<?xml version='1.0' encoding='UTF-8'?><gpx version="1.1" creator="JPX - https://github.com/jenetics/jpx" xmlns="http://www.topografix.com/GPX/1/1"><trk><trkseg><trkpt lat="45.6779299" lon="13.7589958"><ele>26.0</ele><time>2026-04-06T12:07:56.992Z</time></trkpt><trkpt lat="45.6779396" lon="13.7588946"><ele>26.0</ele><time>2026-04-06T12:08:12.001Z</time></trkpt><trkpt lat="45.6779849" lon="13.7588287"><ele>26.0</ele><time>2026-04-06T12:08:15.014Z</time></trkpt><trkpt lat="45.6779408" lon="13.7586535"><ele>26.0</ele><time>2026-04-06T12:08:17.006Z</time></trkpt><trkpt lat="45.6778463" lon="13.7584899"><ele>26.0</ele><time>2026-04-06T12:08:18.005Z</time></trkpt><trkpt lat="45.6777194" lon="13.7583183"><ele>30.666666666666664</ele><time>2026-04-06T12:08:19.007Z</time></trkpt><trkpt lat="45.6775952" lon="13.7581502"><ele>35.333333333333336</ele><time>2026-04-06T12:08:20.016Z</time></trkpt><trkpt lat="45.6774697" lon="13.7579766"><ele>40.0</ele><time>2026-04-06T12:08:21.013Z</time></trkpt><trkpt lat="45.677358" lon="13.7577987"><ele>36.333333333333336</ele><time>2026-04-06T12:08:22.015Z</time></trkpt><trkpt lat="45.6772434" lon="13.7576187"><ele>32.666666666666664</ele><time>2026-04-06T12:08:23.005Z</time></trkpt><trkpt lat="45.6771243" lon="13.7574479"><ele>29.0</ele><time>2026-04-06T12:08:24.006Z</time></trkpt><trkpt lat="45.677005" lon="13.7572949"><ele>34.666666666666664</ele><time>2026-04-06T12:08:25.016Z</time></trkpt><trkpt lat="45.6768944" lon="13.7571403"><ele>40.333333333333336</ele><time>2026-04-06T12:08:25.999Z</time></trkpt><trkpt lat="45.6767829" lon="13.7569924"><ele>46.0</ele><time>2026-04-06T12:08:27.002Z</time></trkpt><trkpt lat="45.6766742" lon="13.7568543"><ele>46.0</ele><time>2026-04-06T12:08:27.999Z</time></trkpt><trkpt lat="45.6765661" lon="13.7567185"><ele>46.0</ele><time>2026-04-06T12:08:29.005Z</time></trkpt><trkpt lat="45.6764665" lon="13.7565889"><ele>46.0</ele><time>2026-04-06T12:08:30.012Z</time></trkpt><trkpt lat="45.6763678" lon="13.7564599"><ele>46.0</ele><time>2026-04-06T12:08:31.058Z</time></trkpt><trkpt lat="45.6762669" lon="13.7563501"><ele>46.0</ele><time>2026-04-06T12:08:32.036Z</time></trkpt><trkpt lat="45.6761722" lon="13.7563013"><ele>46.0</ele><time>2026-04-06T12:08:33.004Z</time></trkpt><trkpt lat="45.6760971" lon="13.7562797"><ele>46.0</ele><time>2026-04-06T12:08:34.048Z</time></trkpt><trkpt lat="45.676009" lon="13.7563041"><ele>46.0</ele><time>2026-04-06T12:08:36.012Z</time></trkpt><trkpt lat="45.6760173" lon="13.7564214"><ele>46.0</ele><time>2026-04-06T12:08:41.019Z</time></trkpt><trkpt lat="45.676077" lon="13.7564719"><ele>46.0</ele><time>2026-04-06T12:08:42.014Z</time></trkpt><trkpt lat="45.6761467" lon="13.7565181"><ele>46.0</ele><time>2026-04-06T12:08:43.019Z</time></trkpt><trkpt lat="45.6762249" lon="13.7566064"><ele>46.0</ele><time>2026-04-06T12:08:44.037Z</time></trkpt><trkpt lat="45.6762979" lon="13.7567285"><ele>46.0</ele><time>2026-04-06T12:08:45.021Z</time></trkpt><trkpt lat="45.6763656" lon="13.7568728"><ele>46.0</ele><time>2026-04-06T12:08:46.002Z</time></trkpt><trkpt lat="45.6764318" lon="13.7570377"><ele>50.333333333333336</ele><time>2026-04-06T12:08:47.013Z</time></trkpt><trkpt lat="45.6765022" lon="13.757219"><ele>54.66666666666667</ele><time>2026-04-06T12:08:48.013Z</time></trkpt><trkpt lat="45.676582" lon="13.7574123"><ele>59.0</ele><time>2026-04-06T12:08:49.006Z</time></trkpt><trkpt lat="45.6766707" lon="13.7576158"><ele>64.66666666666667</ele><time>2026-04-06T12:08:50.005Z</time></trkpt><trkpt lat="45.6767718" lon="13.757826"><ele>70.33333333333333</ele><time>2026-04-06T12:08:51.015Z</time></trkpt><trkpt lat="45.6768642" lon="13.7580377"><ele>76.0</ele><time>2026-04-06T12:08:52.003Z</time></trkpt><trkpt lat="45.6769542" lon="13.7582413"><ele>69.75</ele><time>2026-04-06T12:08:53.017Z</time></trkpt><trkpt lat="45.6770346" lon="13.7584243"><ele>63.5</ele><time>2026-04-06T12:08:54.005Z</time></trkpt><trkpt lat="45.677086" lon="13.7586065"><ele>57.25</ele><time>2026-04-06T12:08:55.044Z</time></trkpt><trkpt lat="45.6771287" lon="13.7587824"><ele>51.0</ele><time>2026-04-06T12:08:56.034Z</time></trkpt><trkpt lat="45.6771702" lon="13.7589526"><ele>51.0</ele><time>2026-04-06T12:08:57.022Z</time></trkpt><trkpt lat="45.6772219" lon="13.7591072"><ele>51.0</ele><time>2026-04-06T12:08:58.015Z</time></trkpt><trkpt lat="45.6772809" lon="13.7592538"><ele>51.0</ele><time>2026-04-06T12:08:59.072Z</time></trkpt><trkpt lat="45.6773315" lon="13.759386"><ele>51.0</ele><time>2026-04-06T12:09:00.021Z</time></trkpt><trkpt lat="45.6773701" lon="13.7595105"><ele>51.0</ele><time>2026-04-06T12:09:01.065Z</time></trkpt><trkpt lat="45.6774021" lon="13.7596556"><ele>51.75</ele><time>2026-04-06T12:09:02.016Z</time></trkpt><trkpt lat="45.6774312" lon="13.7598372"><ele>52.5</ele><time>2026-04-06T12:09:03.02Z</time></trkpt><trkpt lat="45.6774295" lon="13.7600358"><ele>53.25</ele><time>2026-04-06T12:09:04.012Z</time></trkpt><trkpt lat="45.6773797" lon="13.7602383"><ele>54.0</ele><time>2026-04-06T12:09:05.027Z</time></trkpt><trkpt lat="45.6772994" lon="13.7604314"><ele>54.75</ele><time>2026-04-06T12:09:06.017Z</time></trkpt><trkpt lat="45.6771935" lon="13.7606129"><ele>55.5</ele><time>2026-04-06T12:09:07.015Z</time></trkpt><trkpt lat="45.6771039" lon="13.7607796"><ele>56.25</ele><time>2026-04-06T12:09:08.011Z</time></trkpt><trkpt lat="45.6770367" lon="13.7609392"><ele>57.0</ele><time>2026-04-06T12:09:09.017Z</time></trkpt><trkpt lat="45.6769914" lon="13.761099"><ele>59.8</ele><time>2026-04-06T12:09:10.026Z</time></trkpt><trkpt lat="45.6769867" lon="13.7612519"><ele>62.6</ele><time>2026-04-06T12:09:11.016Z</time></trkpt><trkpt lat="45.6770565" lon="13.7613609"><ele>65.39999999999999</ele><time>2026-04-06T12:09:12.009Z</time></trkpt><trkpt lat="45.6771504" lon="13.7614313"><ele>68.2</ele><time>2026-04-06T12:09:13.006Z</time></trkpt><trkpt lat="45.677261" lon="13.7614571"><ele>71.0</ele><time>2026-04-06T12:09:14.007Z</time></trkpt><trkpt lat="45.6773775" lon="13.7614418"><ele>71.0</ele><time>2026-04-06T12:09:15.007Z</time></trkpt><trkpt lat="45.6774961" lon="13.7613769"><ele>71.0</ele><time>2026-04-06T12:09:16.003Z</time></trkpt><trkpt lat="45.6776275" lon="13.7613002"><ele>71.0</ele><time>2026-04-06T12:09:17.003Z</time></trkpt><trkpt lat="45.6777597" lon="13.7612181"><ele>71.0</ele><time>2026-04-06T12:09:18.004Z</time></trkpt><trkpt lat="45.6778871" lon="13.7611606"><ele>70.0</ele><time>2026-04-06T12:09:19.007Z</time></trkpt><trkpt lat="45.678006" lon="13.7611244"><ele>69.0</ele><time>2026-04-06T12:09:20.006Z</time></trkpt><trkpt lat="45.6781267" lon="13.7611443"><ele>68.0</ele><time>2026-04-06T12:09:21.02Z</time></trkpt><trkpt lat="45.6782407" lon="13.7612012"><ele>67.0</ele><time>2026-04-06T12:09:22.006Z</time></trkpt><trkpt lat="45.6783446" lon="13.7613078"><ele>67.0</ele><time>2026-04-06T12:09:23.014Z</time></trkpt><trkpt lat="45.6784464" lon="13.7614504"><ele>67.0</ele><time>2026-04-06T12:09:24.008Z</time></trkpt><trkpt lat="45.6785485" lon="13.7615893"><ele>67.0</ele><time>2026-04-06T12:09:25.01Z</time></trkpt><trkpt lat="45.6786628" lon="13.7616978"><ele>67.0</ele><time>2026-04-06T12:09:26.021Z</time></trkpt><trkpt lat="45.6788009" lon="13.7617781"><ele>67.5</ele><time>2026-04-06T12:09:27.018Z</time></trkpt><trkpt lat="45.6789396" lon="13.7618114"><ele>68.0</ele><time>2026-04-06T12:09:28.012Z</time></trkpt><trkpt lat="45.679065" lon="13.7618532"><ele>68.5</ele><time>2026-04-06T12:09:29.016Z</time></trkpt><trkpt lat="45.6791783" lon="13.761896"><ele>69.0</ele><time>2026-04-06T12:09:30.004Z</time></trkpt><trkpt lat="45.6792825" lon="13.7619034"><ele>70.60000000000001</ele><time>2026-04-06T12:09:31.025Z</time></trkpt><trkpt lat="45.6793713" lon="13.7618623"><ele>72.2</ele><time>2026-04-06T12:09:32.003Z</time></trkpt><trkpt lat="45.6794507" lon="13.7617647"><ele>73.80000000000001</ele><time>2026-04-06T12:09:33.023Z</time></trkpt><trkpt lat="45.6795" lon="13.761645"><ele>75.4</ele><time>2026-04-06T12:09:34.021Z</time></trkpt><trkpt lat="45.6795185" lon="13.7615137"><ele>77.0</ele><time>2026-04-06T12:09:35.011Z</time></trkpt><trkpt lat="45.6795119" lon="13.7613761"><ele>77.0</ele><time>2026-04-06T12:09:36.022Z</time></trkpt><trkpt lat="45.6794944" lon="13.7612308"><ele>77.0</ele><time>2026-04-06T12:09:37.013Z</time></trkpt><trkpt lat="45.6794722" lon="13.7610979"><ele>77.0</ele><time>2026-04-06T12:09:38.011Z</time></trkpt><trkpt lat="45.6794574" lon="13.7609692"><ele>77.0</ele><time>2026-04-06T12:09:39.01Z</time></trkpt><trkpt lat="45.6794594" lon="13.7608471"><ele>77.0</ele><time>2026-04-06T12:09:40.015Z</time></trkpt><trkpt lat="45.679486" lon="13.7607205"><ele>75.16666666666667</ele><time>2026-04-06T12:09:41.02Z</time></trkpt><trkpt lat="45.679538" lon="13.7606144"><ele>73.33333333333334</ele><time>2026-04-06T12:09:42.01Z</time></trkpt><trkpt lat="45.6796042" lon="13.7605276"><ele>71.5</ele><time>2026-04-06T12:09:43.013Z</time></trkpt><trkpt lat="45.6796781" lon="13.7604719"><ele>69.66666666666667</ele><time>2026-04-06T12:09:44.014Z</time></trkpt><trkpt lat="45.6797467" lon="13.7604718"><ele>67.83333333333333</ele><time>2026-04-06T12:09:45.015Z</time></trkpt><trkpt lat="45.6798206" lon="13.7604833"><ele>66.0</ele><time>2026-04-06T12:09:46.019Z</time></trkpt><trkpt lat="45.6799047" lon="13.7604906"><ele>66.0</ele><time>2026-04-06T12:09:47.018Z</time></trkpt><trkpt lat="45.6799921" lon="13.7604996"><ele>66.0</ele><time>2026-04-06T12:09:48.013Z</time></trkpt><trkpt lat="45.680085" lon="13.760506"><ele>66.0</ele><time>2026-04-06T12:09:49.015Z</time></trkpt><trkpt lat="45.6801785" lon="13.7605209"><ele>66.0</ele><time>2026-04-06T12:09:50.011Z</time></trkpt><trkpt lat="45.680264" lon="13.7605272"><ele>66.0</ele><time>2026-04-06T12:09:51.021Z</time></trkpt><trkpt lat="45.6803471" lon="13.7605356"><ele>66.0</ele><time>2026-04-06T12:09:52.006Z</time></trkpt><trkpt lat="45.6804235" lon="13.7605129"><ele>66.33333333333333</ele><time>2026-04-06T12:09:53.01Z</time></trkpt><trkpt lat="45.68049" lon="13.7604717"><ele>66.66666666666667</ele><time>2026-04-06T12:09:54.011Z</time></trkpt><trkpt lat="45.6805462" lon="13.7603911"><ele>67.0</ele><time>2026-04-06T12:09:55.006Z</time></trkpt><trkpt lat="45.6805967" lon="13.7602793"><ele>67.33333333333334</ele><time>2026-04-06T12:09:56.026Z</time></trkpt><trkpt lat="45.6806434" lon="13.7601798"><ele>67.66666666666667</ele><time>2026-04-06T12:09:57.016Z</time></trkpt><trkpt lat="45.6806919" lon="13.7600829"><ele>68.0</ele><time>2026-04-06T12:09:58.008Z</time></trkpt><trkpt lat="45.6807421" lon="13.7599859"><ele>68.0</ele><time>2026-04-06T12:09:59.013Z</time></trkpt><trkpt lat="45.6807933" lon="13.7598827"><ele>68.0</ele><time>2026-04-06T12:10:00.008Z</time></trkpt><trkpt lat="45.6808482" lon="13.7597658"><ele>68.0</ele><time>2026-04-06T12:10:01.018Z</time></trkpt><trkpt lat="45.6809041" lon="13.7596519"><ele>68.0</ele><time>2026-04-06T12:10:02.005Z</time></trkpt><trkpt lat="45.6809576" lon="13.7595494"><ele>68.0</ele><time>2026-04-06T12:10:03.014Z</time></trkpt><trkpt lat="45.6810235" lon="13.7594627"><ele>68.0</ele><time>2026-04-06T12:10:04.02Z</time></trkpt><trkpt lat="45.6810843" lon="13.7593891"><ele>68.0</ele><time>2026-04-06T12:10:05.018Z</time></trkpt><trkpt lat="45.6811498" lon="13.7593165"><ele>68.0</ele><time>2026-04-06T12:10:06.017Z</time></trkpt><trkpt lat="45.6812188" lon="13.7592414"><ele>68.0</ele><time>2026-04-06T12:10:07.013Z</time></trkpt><trkpt lat="45.6812903" lon="13.7591569"><ele>68.0</ele><time>2026-04-06T12:10:08.022Z</time></trkpt><trkpt lat="45.6813702" lon="13.7590769"><ele>68.0</ele><time>2026-04-06T12:10:09.018Z</time></trkpt><trkpt lat="45.6814618" lon="13.759014"><ele>69.4</ele><time>2026-04-06T12:10:10.02Z</time></trkpt><trkpt lat="45.6815526" lon="13.7589665"><ele>70.8</ele><time>2026-04-06T12:10:11.017Z</time></trkpt><trkpt lat="45.6816454" lon="13.7589218"><ele>72.2</ele><time>2026-04-06T12:10:12.01Z</time></trkpt><trkpt lat="45.6817332" lon="13.7588625"><ele>73.6</ele><time>2026-04-06T12:10:13.018Z</time></trkpt><trkpt lat="45.6818156" lon="13.7587879"><ele>75.0</ele><time>2026-04-06T12:10:14.008Z</time></trkpt><trkpt lat="45.6818933" lon="13.7587018"><ele>77.75</ele><time>2026-04-06T12:10:15.018Z</time></trkpt><trkpt lat="45.6819702" lon="13.7585977"><ele>80.5</ele><time>2026-04-06T12:10:16.013Z</time></trkpt><trkpt lat="45.6820458" lon="13.7584749"><ele>83.25</ele><time>2026-04-06T12:10:17.025Z</time></trkpt><trkpt lat="45.6821301" lon="13.7583215"><ele>86.0</ele><time>2026-04-06T12:10:18.018Z</time></trkpt><trkpt lat="45.6822161" lon="13.7581404"><ele>86.0</ele><time>2026-04-06T12:10:19.016Z</time></trkpt><trkpt lat="45.6823009" lon="13.7579725"><ele>86.0</ele><time>2026-04-06T12:10:20.013Z</time></trkpt><trkpt lat="45.6823698" lon="13.7578183"><ele>86.0</ele><time>2026-04-06T12:10:21.015Z</time></trkpt><trkpt lat="45.6824144" lon="13.7576892"><ele>86.0</ele><time>2026-04-06T12:10:22.019Z</time></trkpt><trkpt lat="45.6824449" lon="13.7575653"><ele>84.83333333333334</ele><time>2026-04-06T12:10:28.009Z</time></trkpt><trkpt lat="45.6824786" lon="13.7574187"><ele>83.66666666666667</ele><time>2026-04-06T12:10:30.014Z</time></trkpt><trkpt lat="45.6825079" lon="13.7573372"><ele>82.5</ele><time>2026-04-06T12:10:31.022Z</time></trkpt><trkpt lat="45.6825433" lon="13.7572395"><ele>81.33333333333333</ele><time>2026-04-06T12:10:32.021Z</time></trkpt><trkpt lat="45.6825855" lon="13.7571386"><ele>80.16666666666666</ele><time>2026-04-06T12:10:33.017Z</time></trkpt><trkpt lat="45.6826249" lon="13.7570391"><ele>79.0</ele><time>2026-04-06T12:10:34.017Z</time></trkpt><trkpt lat="45.6826773" lon="13.7569388"><ele>77.8</ele><time>2026-04-06T12:10:35.013Z</time></trkpt><trkpt lat="45.6827363" lon="13.7568411"><ele>76.60000000000001</ele><time>2026-04-06T12:10:36.022Z</time></trkpt><trkpt lat="45.6828013" lon="13.756739"><ele>75.4</ele><time>2026-04-06T12:10:37.015Z</time></trkpt><trkpt lat="45.6828702" lon="13.7566415"><ele>74.2</ele><time>2026-04-06T12:10:38.019Z</time></trkpt><trkpt lat="45.6829501" lon="13.7565416"><ele>73.0</ele><time>2026-04-06T12:10:39.024Z</time></trkpt><trkpt lat="45.6830379" lon="13.7564408"><ele>78.25</ele><time>2026-04-06T12:10:40.015Z</time></trkpt><trkpt lat="45.6831321" lon="13.7563448"><ele>83.5</ele><time>2026-04-06T12:10:41.023Z</time></trkpt><trkpt lat="45.6832288" lon="13.7562463"><ele>88.75</ele><time>2026-04-06T12:10:42.014Z</time></trkpt><trkpt lat="45.6833269" lon="13.7561459"><ele>94.0</ele><time>2026-04-06T12:10:43.015Z</time></trkpt><trkpt lat="45.6834212" lon="13.7560469"><ele>94.0</ele><time>2026-04-06T12:10:44.015Z</time></trkpt><trkpt lat="45.6835139" lon="13.755957"><ele>94.0</ele><time>2026-04-06T12:10:45.016Z</time></trkpt><trkpt lat="45.6836058" lon="13.7558702"><ele>94.0</ele><time>2026-04-06T12:10:46.03Z</time></trkpt><trkpt lat="45.6837004" lon="13.755794"><ele>94.0</ele><time>2026-04-06T12:10:47.018Z</time></trkpt><trkpt lat="45.6838019" lon="13.7557302"><ele>94.0</ele><time>2026-04-06T12:10:48.016Z</time></trkpt><trkpt lat="45.6839143" lon="13.7556983"><ele>94.0</ele><time>2026-04-06T12:10:49.017Z</time></trkpt><trkpt lat="45.6840219" lon="13.755688"><ele>94.0</ele><time>2026-04-06T12:10:50.012Z</time></trkpt><trkpt lat="45.6841262" lon="13.7556924"><ele>94.0</ele><time>2026-04-06T12:10:51.015Z</time></trkpt><trkpt lat="45.6842267" lon="13.755711"><ele>94.0</ele><time>2026-04-06T12:10:52.013Z</time></trkpt><trkpt lat="45.6843236" lon="13.7557467"><ele>94.0</ele><time>2026-04-06T12:10:53.018Z</time></trkpt><trkpt lat="45.6844096" lon="13.7557958"><ele>94.6</ele><time>2026-04-06T12:10:54.012Z</time></trkpt><trkpt lat="45.6845033" lon="13.7558585"><ele>95.2</ele><time>2026-04-06T12:10:55.026Z</time></trkpt><trkpt lat="45.6845931" lon="13.7559164"><ele>95.8</ele><time>2026-04-06T12:10:56.015Z</time></trkpt><trkpt lat="45.6846843" lon="13.7559729"><ele>96.39999999999999</ele><time>2026-04-06T12:10:57.012Z</time></trkpt><trkpt lat="45.6847732" lon="13.7560349"><ele>97.0</ele><time>2026-04-06T12:10:58.012Z</time></trkpt><trkpt lat="45.6848616" lon="13.7561037"><ele>99.6</ele><time>2026-04-06T12:10:59.014Z</time></trkpt><trkpt lat="45.6849513" lon="13.7561715"><ele>102.19999999999999</ele><time>2026-04-06T12:11:00.036Z</time></trkpt><trkpt lat="45.6850294" lon="13.7562487"><ele>104.8</ele><time>2026-04-06T12:11:01.022Z</time></trkpt><trkpt lat="45.6850988" lon="13.7563348"><ele>107.4</ele><time>2026-04-06T12:11:02.02Z</time></trkpt><trkpt lat="45.6851713" lon="13.7564123"><ele>110.0</ele><time>2026-04-06T12:11:03.015Z</time></trkpt><trkpt lat="45.6852479" lon="13.7564829"><ele>110.8</ele><time>2026-04-06T12:11:04.021Z</time></trkpt><trkpt lat="45.6853345" lon="13.7565278"><ele>111.6</ele><time>2026-04-06T12:11:05.017Z</time></trkpt><trkpt lat="45.6854264" lon="13.7565202"><ele>112.4</ele><time>2026-04-06T12:11:06.013Z</time></trkpt><trkpt lat="45.685511" lon="13.7564664"><ele>113.2</ele><time>2026-04-06T12:11:07.019Z</time></trkpt><trkpt lat="45.6855813" lon="13.7563815"><ele>114.0</ele><time>2026-04-06T12:11:08.015Z</time></trkpt><trkpt lat="45.6856359" lon="13.7562779"><ele>114.0</ele><time>2026-04-06T12:11:09.017Z</time></trkpt><trkpt lat="45.6856744" lon="13.7561543"><ele>114.0</ele><time>2026-04-06T12:11:10.012Z</time></trkpt><trkpt lat="45.6856831" lon="13.756005"><ele>114.0</ele><time>2026-04-06T12:11:11.011Z</time></trkpt><trkpt lat="45.6856909" lon="13.7558524"><ele>114.0</ele><time>2026-04-06T12:11:12.012Z</time></trkpt><trkpt lat="45.6856979" lon="13.7557024"><ele>114.0</ele><time>2026-04-06T12:11:13.014Z</time></trkpt><trkpt lat="45.6857082" lon="13.7555595"><ele>113.80000000000001</ele><time>2026-04-06T12:11:14.015Z</time></trkpt><trkpt lat="45.6857168" lon="13.7554096"><ele>113.60000000000001</ele><time>2026-04-06T12:11:15.016Z</time></trkpt><trkpt lat="45.6857283" lon="13.7552518"><ele>113.4</ele><time>2026-04-06T12:11:16.018Z</time></trkpt><trkpt lat="45.6857441" lon="13.7550872"><ele>113.2</ele><time>2026-04-06T12:11:17.019Z</time></trkpt><trkpt lat="45.6857545" lon="13.7549198"><ele>113.0</ele><time>2026-04-06T12:11:18.014Z</time></trkpt><trkpt lat="45.6857651" lon="13.7547531"><ele>113.0</ele><time>2026-04-06T12:11:19.019Z</time></trkpt><trkpt lat="45.6857789" lon="13.7545834"><ele>113.0</ele><time>2026-04-06T12:11:20.012Z</time></trkpt><trkpt lat="45.6858072" lon="13.754415"><ele>113.0</ele><time>2026-04-06T12:11:21.013Z</time></trkpt><trkpt lat="45.6858517" lon="13.7542539"><ele>113.0</ele><time>2026-04-06T12:11:22.014Z</time></trkpt><trkpt lat="45.6858986" lon="13.7541065"><ele>112.2</ele><time>2026-04-06T12:11:23.019Z</time></trkpt><trkpt lat="45.6859559" lon="13.7539642"><ele>111.4</ele><time>2026-04-06T12:11:24.022Z</time></trkpt><trkpt lat="45.6860168" lon="13.7538292"><ele>110.60000000000001</ele><time>2026-04-06T12:11:25.01Z</time></trkpt><trkpt lat="45.6860825" lon="13.7537037"><ele>109.80000000000001</ele><time>2026-04-06T12:11:26.014Z</time></trkpt><trkpt lat="45.6861544" lon="13.753582"><ele>109.0</ele><time>2026-04-06T12:11:27.016Z</time></trkpt><trkpt lat="45.6862343" lon="13.7534642"><ele>114.25</ele><time>2026-04-06T12:11:28.02Z</time></trkpt><trkpt lat="45.686317" lon="13.7533437"><ele>119.5</ele><time>2026-04-06T12:11:29.013Z</time></trkpt><trkpt lat="45.6863981" lon="13.7532202"><ele>124.75</ele><time>2026-04-06T12:11:30.023Z</time></trkpt><trkpt lat="45.68647" lon="13.7531001"><ele>130.0</ele><time>2026-04-06T12:11:31.015Z</time></trkpt><trkpt lat="45.6865377" lon="13.7529817"><ele>130.0</ele><time>2026-04-06T12:11:32.018Z</time></trkpt><trkpt lat="45.6866088" lon="13.7528699"><ele>130.0</ele><time>2026-04-06T12:11:33.009Z</time></trkpt><trkpt lat="45.6866753" lon="13.7527624"><ele>130.0</ele><time>2026-04-06T12:11:34.012Z</time></trkpt><trkpt lat="45.6867357" lon="13.7526656"><ele>130.0</ele><time>2026-04-06T12:11:35.02Z</time></trkpt><trkpt lat="45.6867932" lon="13.7525933"><ele>130.0</ele><time>2026-04-06T12:11:36.016Z</time></trkpt><trkpt lat="45.6868493" lon="13.7525336"><ele>130.0</ele><time>2026-04-06T12:11:37.021Z</time></trkpt><trkpt lat="45.6869123" lon="13.7524779"><ele>130.14285714285717</ele><time>2026-04-06T12:11:38.012Z</time></trkpt><trkpt lat="45.6869812" lon="13.7524257"><ele>130.28571428571428</ele><time>2026-04-06T12:11:39.016Z</time></trkpt><trkpt lat="45.6870537" lon="13.7523781"><ele>130.42857142857144</ele><time>2026-04-06T12:11:40.022Z</time></trkpt><trkpt lat="45.6871194" lon="13.7523542"><ele>130.57142857142858</ele><time>2026-04-06T12:11:41.017Z</time></trkpt><trkpt lat="45.6871856" lon="13.7523444"><ele>130.71428571428572</ele><time>2026-04-06T12:11:42.028Z</time></trkpt><trkpt lat="45.6872522" lon="13.7523503"><ele>130.85714285714286</ele><time>2026-04-06T12:11:43.019Z</time></trkpt><trkpt lat="45.6873342" lon="13.7523734"><ele>131.0</ele><time>2026-04-06T12:11:44.018Z</time></trkpt><trkpt lat="45.6874326" lon="13.7524274"><ele>131.0</ele><time>2026-04-06T12:11:45.016Z</time></trkpt><trkpt lat="45.6875279" lon="13.7525077"><ele>131.0</ele><time>2026-04-06T12:11:46.018Z</time></trkpt><trkpt lat="45.687623" lon="13.7525662"><ele>131.0</ele><time>2026-04-06T12:11:47.016Z</time></trkpt><trkpt lat="45.6877219" lon="13.7525408"><ele>131.0</ele><time>2026-04-06T12:11:48.021Z</time></trkpt><trkpt lat="45.6878002" lon="13.7524721"><ele>131.0</ele><time>2026-04-06T12:11:49.012Z</time></trkpt><trkpt lat="45.6878612" lon="13.7523508"><ele>132.5</ele><time>2026-04-06T12:11:50.013Z</time></trkpt><trkpt lat="45.6879255" lon="13.7522095"><ele>134.0</ele><time>2026-04-06T12:11:51.011Z</time></trkpt><trkpt lat="45.688001" lon="13.7520578"><ele>135.5</ele><time>2026-04-06T12:11:52.024Z</time></trkpt><trkpt lat="45.6880914" lon="13.751888"><ele>137.0</ele><time>2026-04-06T12:11:53.013Z</time></trkpt><trkpt lat="45.6881861" lon="13.7517184"><ele>137.0</ele><time>2026-04-06T12:11:54.02Z</time></trkpt><trkpt lat="45.6882964" lon="13.7515565"><ele>137.0</ele><time>2026-04-06T12:11:55.015Z</time></trkpt><trkpt lat="45.6884175" lon="13.7514086"><ele>137.0</ele><time>2026-04-06T12:11:56.018Z</time></trkpt><trkpt lat="45.6885207" lon="13.7512521"><ele>143.0</ele><time>2026-04-06T12:11:57.024Z</time></trkpt><trkpt lat="45.6886132" lon="13.7510661"><ele>149.0</ele><time>2026-04-06T12:11:58.017Z</time></trkpt><trkpt lat="45.6887001" lon="13.7508584"><ele>155.0</ele><time>2026-04-06T12:11:59.016Z</time></trkpt><trkpt lat="45.6887971" lon="13.7506449"><ele>155.0</ele><time>2026-04-06T12:12:00.02Z</time></trkpt><trkpt lat="45.6888963" lon="13.7504197"><ele>155.0</ele><time>2026-04-06T12:12:01.02Z</time></trkpt><trkpt lat="45.6889946" lon="13.7501839"><ele>155.0</ele><time>2026-04-06T12:12:02.035Z</time></trkpt><trkpt lat="45.6890977" lon="13.7499506"><ele>152.0</ele><time>2026-04-06T12:12:03.009Z</time></trkpt><trkpt lat="45.6892007" lon="13.7497376"><ele>149.0</ele><time>2026-04-06T12:12:04.002Z</time></trkpt><trkpt lat="45.6893029" lon="13.7495492"><ele>146.0</ele><time>2026-04-06T12:12:05.01Z</time></trkpt><trkpt lat="45.6894021" lon="13.7493615"><ele>152.0</ele><time>2026-04-06T12:12:06.01Z</time></trkpt><trkpt lat="45.6895028" lon="13.7491898"><ele>158.0</ele><time>2026-04-06T12:12:07.019Z</time></trkpt><trkpt lat="45.6896013" lon="13.7490178"><ele>164.0</ele><time>2026-04-06T12:12:08.005Z</time></trkpt><trkpt lat="45.6896956" lon="13.7488462"><ele>164.0</ele><time>2026-04-06T12:12:09.008Z</time></trkpt><trkpt lat="45.6897804" lon="13.7486464"><ele>164.0</ele><time>2026-04-06T12:12:10.013Z</time></trkpt><trkpt lat="45.6898669" lon="13.748436"><ele>164.0</ele><time>2026-04-06T12:12:11.015Z</time></trkpt><trkpt lat="45.6899612" lon="13.7482163"><ele>159.66666666666666</ele><time>2026-04-06T12:12:12.012Z</time></trkpt><trkpt lat="45.6900603" lon="13.7479844"><ele>155.33333333333334</ele><time>2026-04-06T12:12:13.016Z</time></trkpt><trkpt lat="45.6901665" lon="13.7477393"><ele>151.0</ele><time>2026-04-06T12:12:14.006Z</time></trkpt><trkpt lat="45.6902821" lon="13.7474907"><ele>155.0</ele><time>2026-04-06T12:12:15.014Z</time></trkpt><trkpt lat="45.6904007" lon="13.7472358"><ele>159.0</ele><time>2026-04-06T12:12:16.018Z</time></trkpt><trkpt lat="45.6905121" lon="13.7469804"><ele>163.0</ele><time>2026-04-06T12:12:17.017Z</time></trkpt><trkpt lat="45.6906203" lon="13.7467328"><ele>163.0</ele><time>2026-04-06T12:12:18.018Z</time></trkpt><trkpt lat="45.6907269" lon="13.7464982"><ele>163.0</ele><time>2026-04-06T12:12:19.017Z</time></trkpt><trkpt lat="45.6908327" lon="13.7462731"><ele>163.0</ele><time>2026-04-06T12:12:20.017Z</time></trkpt><trkpt lat="45.6909383" lon="13.7460423"><ele>168.0</ele><time>2026-04-06T12:12:21.014Z</time></trkpt><trkpt lat="45.6910475" lon="13.7458195"><ele>173.0</ele><time>2026-04-06T12:12:22.016Z</time></trkpt><trkpt lat="45.6911588" lon="13.7455975"><ele>178.0</ele><time>2026-04-06T12:12:23.014Z</time></trkpt><trkpt lat="45.6912622" lon="13.7453876"><ele>171.0</ele><time>2026-04-06T12:12:24.015Z</time></trkpt><trkpt lat="45.691366" lon="13.7451902"><ele>164.0</ele><time>2026-04-06T12:12:25.014Z</time></trkpt><trkpt lat="45.6914753" lon="13.7449962"><ele>157.0</ele><time>2026-04-06T12:12:26.016Z</time></trkpt><trkpt lat="45.6915967" lon="13.7448148"><ele>157.0</ele><time>2026-04-06T12:12:27.015Z</time></trkpt><trkpt lat="45.6917337" lon="13.7446618"><ele>157.0</ele><time>2026-04-06T12:12:28.019Z</time></trkpt><trkpt lat="45.6918747" lon="13.7445317"><ele>157.0</ele><time>2026-04-06T12:12:29.012Z</time></trkpt><trkpt lat="45.6920387" lon="13.7444401"><ele>154.66666666666669</ele><time>2026-04-06T12:12:30.029Z</time></trkpt><trkpt lat="45.6922091" lon="13.7443635"><ele>152.33333333333334</ele><time>2026-04-06T12:12:31.017Z</time></trkpt><trkpt lat="45.6923823" lon="13.7443017"><ele>150.0</ele><time>2026-04-06T12:12:32.015Z</time></trkpt><trkpt lat="45.692557" lon="13.7442654"><ele>150.0</ele><time>2026-04-06T12:12:33.013Z</time></trkpt><trkpt lat="45.6927259" lon="13.744249"><ele>150.0</ele><time>2026-04-06T12:12:34.013Z</time></trkpt><trkpt lat="45.6928959" lon="13.7442485"><ele>150.0</ele><time>2026-04-06T12:12:35.015Z</time></trkpt><trkpt lat="45.6930735" lon="13.7442511"><ele>152.33333333333334</ele><time>2026-04-06T12:12:36.017Z</time></trkpt><trkpt lat="45.6932595" lon="13.7442347"><ele>154.66666666666669</ele><time>2026-04-06T12:12:37.015Z</time></trkpt><trkpt lat="45.6934545" lon="13.7441839"><ele>157.0</ele><time>2026-04-06T12:12:38.011Z</time></trkpt><trkpt lat="45.6936364" lon="13.7440873"><ele>165.66666666666669</ele><time>2026-04-06T12:12:39.013Z</time></trkpt><trkpt lat="45.6938122" lon="13.7439638"><ele>174.33333333333334</ele><time>2026-04-06T12:12:40.003Z</time></trkpt><trkpt lat="45.6939948" lon="13.7438348"><ele>183.0</ele><time>2026-04-06T12:12:41.017Z</time></trkpt><trkpt lat="45.694179" lon="13.7437063"><ele>183.0</ele><time>2026-04-06T12:12:42.012Z</time></trkpt><trkpt lat="45.6943559" lon="13.7435714"><ele>183.0</ele><time>2026-04-06T12:12:43.018Z</time></trkpt><trkpt lat="45.6945348" lon="13.7434292"><ele>183.0</ele><time>2026-04-06T12:12:44.006Z</time></trkpt><trkpt lat="45.6947087" lon="13.7432837"><ele>182.0</ele><time>2026-04-06T12:12:45.014Z</time></trkpt><trkpt lat="45.6948775" lon="13.7431272"><ele>181.0</ele><time>2026-04-06T12:12:46.028Z</time></trkpt><trkpt lat="45.6950445" lon="13.7429714"><ele>180.0</ele><time>2026-04-06T12:12:47.012Z</time></trkpt><trkpt lat="45.6952017" lon="13.7428057"><ele>180.33333333333334</ele><time>2026-04-06T12:12:48.021Z</time></trkpt><trkpt lat="45.6953604" lon="13.7426347"><ele>180.66666666666669</ele><time>2026-04-06T12:12:49.008Z</time></trkpt><trkpt lat="45.6955108" lon="13.7424586"><ele>181.0</ele><time>2026-04-06T12:12:50.006Z</time></trkpt><trkpt lat="45.6956702" lon="13.7423046"><ele>181.0</ele><time>2026-04-06T12:12:51.008Z</time></trkpt><trkpt lat="45.695838" lon="13.7421675"><ele>181.0</ele><time>2026-04-06T12:12:52.023Z</time></trkpt><trkpt lat="45.6960042" lon="13.7420333"><ele>181.0</ele><time>2026-04-06T12:12:53.004Z</time></trkpt><trkpt lat="45.6961663" lon="13.7418933"><ele>185.0</ele><time>2026-04-06T12:12:54.019Z</time></trkpt><trkpt lat="45.6963158" lon="13.7417429"><ele>189.0</ele><time>2026-04-06T12:12:55.005Z</time></trkpt><trkpt lat="45.6964528" lon="13.7415586"><ele>193.0</ele><time>2026-04-06T12:12:56.016Z</time></trkpt><trkpt lat="45.6965757" lon="13.7413497"><ele>193.0</ele><time>2026-04-06T12:12:57.006Z</time></trkpt><trkpt lat="45.6967004" lon="13.7411403"><ele>193.0</ele><time>2026-04-06T12:12:58.012Z</time></trkpt><trkpt lat="45.6968292" lon="13.7409228"><ele>193.0</ele><time>2026-04-06T12:12:59.01Z</time></trkpt><trkpt lat="45.6969547" lon="13.7406874"><ele>192.0</ele><time>2026-04-06T12:13:00.011Z</time></trkpt><trkpt lat="45.6970759" lon="13.7404416"><ele>191.0</ele><time>2026-04-06T12:13:01.014Z</time></trkpt><trkpt lat="45.6972014" lon="13.7402055"><ele>190.0</ele><time>2026-04-06T12:13:02.011Z</time></trkpt><trkpt lat="45.6973442" lon="13.7400014"><ele>190.0</ele><time>2026-04-06T12:13:03.01Z</time></trkpt><trkpt lat="45.6975018" lon="13.7398123"><ele>190.0</ele><time>2026-04-06T12:13:04.01Z</time></trkpt><trkpt lat="45.6976502" lon="13.7396166"><ele>190.0</ele><time>2026-04-06T12:13:05.011Z</time></trkpt><trkpt lat="45.6977907" lon="13.7394189"><ele>199.33333333333334</ele><time>2026-04-06T12:13:06.011Z</time></trkpt><trkpt lat="45.6979235" lon="13.7392141"><ele>208.66666666666669</ele><time>2026-04-06T12:13:07.014Z</time></trkpt><trkpt lat="45.6980454" lon="13.7390159"><ele>218.0</ele><time>2026-04-06T12:13:08.013Z</time></trkpt><trkpt lat="45.6981363" lon="13.7388017"><ele>218.0</ele><time>2026-04-06T12:13:09.008Z</time></trkpt><trkpt lat="45.6982201" lon="13.7385835"><ele>218.0</ele><time>2026-04-06T12:13:10.019Z</time></trkpt><trkpt lat="45.6983108" lon="13.7383564"><ele>218.0</ele><time>2026-04-06T12:13:11.007Z</time></trkpt><trkpt lat="45.6984004" lon="13.7381511"><ele>214.5</ele><time>2026-04-06T12:13:12.008Z</time></trkpt><trkpt lat="45.6984864" lon="13.7379705"><ele>211.0</ele><time>2026-04-06T12:13:13.01Z</time></trkpt><trkpt lat="45.6985753" lon="13.7378079"><ele>207.5</ele><time>2026-04-06T12:13:14.018Z</time></trkpt><trkpt lat="45.6986878" lon="13.7376663"><ele>204.0</ele><time>2026-04-06T12:13:15.012Z</time></trkpt><trkpt lat="45.6988255" lon="13.737545"><ele>204.0</ele><time>2026-04-06T12:13:16.022Z</time></trkpt><trkpt lat="45.6989678" lon="13.7374202"><ele>204.0</ele><time>2026-04-06T12:13:17.016Z</time></trkpt><trkpt lat="45.6991172" lon="13.7372957"><ele>204.0</ele><time>2026-04-06T12:13:18.014Z</time></trkpt><trkpt lat="45.6992841" lon="13.7371958"><ele>205.0</ele><time>2026-04-06T12:13:19.013Z</time></trkpt><trkpt lat="45.6994545" lon="13.7371011"><ele>206.0</ele><time>2026-04-06T12:13:20.015Z</time></trkpt><trkpt lat="45.6996202" lon="13.7369772"><ele>207.0</ele><time>2026-04-06T12:13:21.012Z</time></trkpt><trkpt lat="45.6997801" lon="13.7368298"><ele>207.0</ele><time>2026-04-06T12:13:22.004Z</time></trkpt><trkpt lat="45.6999425" lon="13.7366772"><ele>207.0</ele><time>2026-04-06T12:13:23.016Z</time></trkpt><trkpt lat="45.700105" lon="13.7365146"><ele>207.0</ele><time>2026-04-06T12:13:24.007Z</time></trkpt><trkpt lat="45.7002622" lon="13.7363469"><ele>210.0</ele><time>2026-04-06T12:13:25.012Z</time></trkpt><trkpt lat="45.7004009" lon="13.736158"><ele>213.0</ele><time>2026-04-06T12:13:26.011Z</time></trkpt><trkpt lat="45.7005295" lon="13.7359561"><ele>216.0</ele><time>2026-04-06T12:13:27.017Z</time></trkpt><trkpt lat="45.7006567" lon="13.7357597"><ele>216.0</ele><time>2026-04-06T12:13:28.012Z</time></trkpt><trkpt lat="45.700781" lon="13.7355909"><ele>216.0</ele><time>2026-04-06T12:13:29.011Z</time></trkpt><trkpt lat="45.7008996" lon="13.7354484"><ele>216.0</ele><time>2026-04-06T12:13:30.013Z</time></trkpt><trkpt lat="45.7009871" lon="13.73531"><ele>214.8</ele><time>2026-04-06T12:13:31.021Z</time></trkpt><trkpt lat="45.7010296" lon="13.7351913"><ele>213.60000000000002</ele><time>2026-04-06T12:13:32.017Z</time></trkpt><trkpt lat="45.7010203" lon="13.7350519"><ele>212.4</ele><time>2026-04-06T12:13:33.01Z</time></trkpt><trkpt lat="45.7009693" lon="13.7349479"><ele>211.2</ele><time>2026-04-06T12:13:34.012Z</time></trkpt><trkpt lat="45.7008822" lon="13.734863"><ele>210.0</ele><time>2026-04-06T12:13:35.012Z</time></trkpt><trkpt lat="45.7007807" lon="13.7347848"><ele>210.0</ele><time>2026-04-06T12:13:36.003Z</time></trkpt><trkpt lat="45.7006799" lon="13.7346902"><ele>210.0</ele><time>2026-04-06T12:13:37.011Z</time></trkpt><trkpt lat="45.7005857" lon="13.7345864"><ele>210.0</ele><time>2026-04-06T12:13:38.005Z</time></trkpt><trkpt lat="45.7005197" lon="13.7344548"><ele>210.0</ele><time>2026-04-06T12:13:39.01Z</time></trkpt><trkpt lat="45.7004913" lon="13.7342967"><ele>213.25</ele><time>2026-04-06T12:13:40.019Z</time></trkpt><trkpt lat="45.7004902" lon="13.7341353"><ele>216.5</ele><time>2026-04-06T12:13:41.02Z</time></trkpt><trkpt lat="45.7005043" lon="13.7339705"><ele>219.75</ele><time>2026-04-06T12:13:42.008Z</time></trkpt><trkpt lat="45.7005414" lon="13.7337824"><ele>223.0</ele><time>2026-04-06T12:13:43.025Z</time></trkpt><trkpt lat="45.7006019" lon="13.7335841"><ele>224.0</ele><time>2026-04-06T12:13:44.017Z</time></trkpt><trkpt lat="45.7006664" lon="13.7333878"><ele>225.0</ele><time>2026-04-06T12:13:45.031Z</time></trkpt><trkpt lat="45.7007239" lon="13.7331948"><ele>226.0</ele><time>2026-04-06T12:13:46.03Z</time></trkpt><trkpt lat="45.7007691" lon="13.7330268"><ele>227.0</ele><time>2026-04-06T12:13:47.019Z</time></trkpt><trkpt lat="45.7008075" lon="13.7328935"><ele>227.0</ele><time>2026-04-06T12:13:48.032Z</time></trkpt><trkpt lat="45.7008548" lon="13.7328261"><ele>227.0</ele><time>2026-04-06T12:13:49.022Z</time></trkpt><trkpt lat="45.7009376" lon="13.7328703"><ele>227.0</ele><time>2026-04-06T12:13:51.018Z</time></trkpt><trkpt lat="45.7009064" lon="13.7330684"><ele>227.0</ele><time>2026-04-06T12:13:53.016Z</time></trkpt><trkpt lat="45.7008533" lon="13.7332126"><ele>227.0</ele><time>2026-04-06T12:13:54.024Z</time></trkpt><trkpt lat="45.7008043" lon="13.7333881"><ele>226.0</ele><time>2026-04-06T12:13:55.026Z</time></trkpt><trkpt lat="45.7007545" lon="13.7335794"><ele>225.0</ele><time>2026-04-06T12:13:56.023Z</time></trkpt><trkpt lat="45.7007276" lon="13.7337676"><ele>224.0</ele><time>2026-04-06T12:13:57.032Z</time></trkpt><trkpt lat="45.7007364" lon="13.7339436"><ele>223.0</ele><time>2026-04-06T12:13:58.031Z</time></trkpt><trkpt lat="45.7007861" lon="13.7340917"><ele>223.0</ele><time>2026-04-06T12:13:59.024Z</time></trkpt><trkpt lat="45.7008683" lon="13.7341949"><ele>223.0</ele><time>2026-04-06T12:14:00.025Z</time></trkpt><trkpt lat="45.7009766" lon="13.7342656"><ele>223.0</ele><time>2026-04-06T12:14:01.025Z</time></trkpt><trkpt lat="45.7011052" lon="13.7343046"><ele>223.0</ele><time>2026-04-06T12:14:02.023Z</time></trkpt><trkpt lat="45.7012283" lon="13.734342"><ele>227.25</ele><time>2026-04-06T12:14:03.02Z</time></trkpt><trkpt lat="45.701354" lon="13.7343638"><ele>231.5</ele><time>2026-04-06T12:14:04.014Z</time></trkpt><trkpt lat="45.7014836" lon="13.7343655"><ele>235.75</ele><time>2026-04-06T12:14:05.031Z</time></trkpt><trkpt lat="45.7016086" lon="13.7343535"><ele>240.0</ele><time>2026-04-06T12:14:06.019Z</time></trkpt><trkpt lat="45.7017355" lon="13.7343352"><ele>240.0</ele><time>2026-04-06T12:14:07.021Z</time></trkpt><trkpt lat="45.7018571" lon="13.7342994"><ele>240.0</ele><time>2026-04-06T12:14:08.012Z</time></trkpt><trkpt lat="45.7019732" lon="13.734241"><ele>240.0</ele><time>2026-04-06T12:14:09.02Z</time></trkpt><trkpt lat="45.7020851" lon="13.7341679"><ele>240.0</ele><time>2026-04-06T12:14:10.017Z</time></trkpt><trkpt lat="45.7021958" lon="13.73409"><ele>241.75</ele><time>2026-04-06T12:14:11.012Z</time></trkpt><trkpt lat="45.7023133" lon="13.7340022"><ele>243.5</ele><time>2026-04-06T12:14:12.025Z</time></trkpt><trkpt lat="45.7024347" lon="13.7339141"><ele>245.25</ele><time>2026-04-06T12:14:13.016Z</time></trkpt><trkpt lat="45.7025577" lon="13.7338167"><ele>247.0</ele><time>2026-04-06T12:14:14.012Z</time></trkpt><trkpt lat="45.7026778" lon="13.7337186"><ele>247.75</ele><time>2026-04-06T12:14:15.008Z</time></trkpt><trkpt lat="45.7027951" lon="13.7336202"><ele>248.5</ele><time>2026-04-06T12:14:16.01Z</time></trkpt><trkpt lat="45.7029155" lon="13.7335285"><ele>249.25</ele><time>2026-04-06T12:14:17.006Z</time></trkpt><trkpt lat="45.7030364" lon="13.733442"><ele>250.0</ele><time>2026-04-06T12:14:18.019Z</time></trkpt><trkpt lat="45.7031489" lon="13.7333515"><ele>250.0</ele><time>2026-04-06T12:14:19.013Z</time></trkpt><trkpt lat="45.7032611" lon="13.7332655"><ele>250.0</ele><time>2026-04-06T12:14:20.023Z</time></trkpt><trkpt lat="45.7033705" lon="13.7331816"><ele>250.0</ele><time>2026-04-06T12:14:21.02Z</time></trkpt><trkpt lat="45.7034916" lon="13.7331187"><ele>250.0</ele><time>2026-04-06T12:14:22.008Z</time></trkpt><trkpt lat="45.7036223" lon="13.7330716"><ele>249.75</ele><time>2026-04-06T12:14:23.014Z</time></trkpt><trkpt lat="45.7037544" lon="13.7330228"><ele>249.5</ele><time>2026-04-06T12:14:24.016Z</time></trkpt><trkpt lat="45.7038856" lon="13.7329665"><ele>249.25</ele><time>2026-04-06T12:14:25.022Z</time></trkpt><trkpt lat="45.7040274" lon="13.7329115"><ele>249.0</ele><time>2026-04-06T12:14:26.017Z</time></trkpt><trkpt lat="45.7041722" lon="13.732854"><ele>249.0</ele><time>2026-04-06T12:14:27.017Z</time></trkpt><trkpt lat="45.7043214" lon="13.7327925"><ele>249.0</ele><time>2026-04-06T12:14:28.035Z</time></trkpt><trkpt lat="45.7044676" lon="13.7327367"><ele>249.0</ele><time>2026-04-06T12:14:29.023Z</time></trkpt><trkpt lat="45.7046006" lon="13.7326812"><ele>249.0</ele><time>2026-04-06T12:14:30.03Z</time></trkpt><trkpt lat="45.7047232" lon="13.7326308"><ele>249.25</ele><time>2026-04-06T12:14:31.029Z</time></trkpt><trkpt lat="45.7048414" lon="13.7325799"><ele>249.5</ele><time>2026-04-06T12:14:32.032Z</time></trkpt><trkpt lat="45.7049581" lon="13.7325301"><ele>249.75</ele><time>2026-04-06T12:14:33.038Z</time></trkpt><trkpt lat="45.7050735" lon="13.7324822"><ele>250.0</ele><time>2026-04-06T12:14:34.027Z</time></trkpt><trkpt lat="45.70519" lon="13.7324358"><ele>251.2</ele><time>2026-04-06T12:14:35.021Z</time></trkpt><trkpt lat="45.7052997" lon="13.7323904"><ele>252.4</ele><time>2026-04-06T12:14:36.036Z</time></trkpt><trkpt lat="45.7054003" lon="13.7323432"><ele>253.60000000000002</ele><time>2026-04-06T12:14:37.032Z</time></trkpt><trkpt lat="45.705491" lon="13.7322965"><ele>254.8</ele><time>2026-04-06T12:14:38.04Z</time></trkpt><trkpt lat="45.7055746" lon="13.7322541"><ele>256.0</ele><time>2026-04-06T12:14:39.035Z</time></trkpt><trkpt lat="45.7056532" lon="13.732219"><ele>256.0</ele><time>2026-04-06T12:14:40.028Z</time></trkpt><trkpt lat="45.7057257" lon="13.7321882"><ele>256.0</ele><time>2026-04-06T12:14:41.038Z</time></trkpt><trkpt lat="45.7057925" lon="13.7321761"><ele>256.0</ele><time>2026-04-06T12:14:42.028Z</time></trkpt><trkpt lat="45.7059103" lon="13.7321534"><ele>256.0</ele><time>2026-04-06T12:14:44.055Z</time></trkpt><trkpt lat="45.7060343" lon="13.7322548"><ele>256.0</ele><time>2026-04-06T12:14:46.023Z</time></trkpt><trkpt lat="45.7061036" lon="13.7323265"><ele>256.0</ele><time>2026-04-06T12:14:47.031Z</time></trkpt><trkpt lat="45.7061749" lon="13.7324022"><ele>256.0</ele><time>2026-04-06T12:14:48.031Z</time></trkpt><trkpt lat="45.7062596" lon="13.732486"><ele>256.0</ele><time>2026-04-06T12:14:49.031Z</time></trkpt><trkpt lat="45.7063458" lon="13.7325813"><ele>256.0</ele><time>2026-04-06T12:14:50.016Z</time></trkpt><trkpt lat="45.7064327" lon="13.732673"><ele>256.0</ele><time>2026-04-06T12:14:51.029Z</time></trkpt><trkpt lat="45.7065217" lon="13.7327708"><ele>256.0</ele><time>2026-04-06T12:14:52.028Z</time></trkpt><trkpt lat="45.7066137" lon="13.7328725"><ele>256.0</ele><time>2026-04-06T12:14:53.036Z</time></trkpt><trkpt lat="45.7067105" lon="13.7329752"><ele>256.0</ele><time>2026-04-06T12:14:54.027Z</time></trkpt><trkpt lat="45.7068091" lon="13.7330778"><ele>256.0</ele><time>2026-04-06T12:14:55.031Z</time></trkpt><trkpt lat="45.7069059" lon="13.7331636"><ele>255.4</ele><time>2026-04-06T12:14:56.025Z</time></trkpt><trkpt lat="45.7070027" lon="13.73325"><ele>254.8</ele><time>2026-04-06T12:14:57.034Z</time></trkpt><trkpt lat="45.7070973" lon="13.7333381"><ele>254.20000000000002</ele><time>2026-04-06T12:14:58.03Z</time></trkpt><trkpt lat="45.7071891" lon="13.7334201"><ele>253.60000000000002</ele><time>2026-04-06T12:14:59.038Z</time></trkpt><trkpt lat="45.7072774" lon="13.7335021"><ele>253.0</ele><time>2026-04-06T12:15:00.038Z</time></trkpt><trkpt lat="45.7073649" lon="13.7335797"><ele>252.66666666666666</ele><time>2026-04-06T12:15:01.039Z</time></trkpt><trkpt lat="45.7074487" lon="13.7336445"><ele>252.33333333333331</ele><time>2026-04-06T12:15:02.038Z</time></trkpt><trkpt lat="45.7075302" lon="13.7337007"><ele>252.0</ele><time>2026-04-06T12:15:03.046Z</time></trkpt><trkpt lat="45.7076143" lon="13.7337478"><ele>251.66666666666669</ele><time>2026-04-06T12:15:04.042Z</time></trkpt><trkpt lat="45.7076942" lon="13.7337788"><ele>251.33333333333334</ele><time>2026-04-06T12:15:05.04Z</time></trkpt><trkpt lat="45.7077703" lon="13.7337838"><ele>251.0</ele><time>2026-04-06T12:15:06.021Z</time></trkpt><trkpt lat="45.7078727" lon="13.7337739"><ele>251.00000000000003</ele><time>2026-04-06T12:15:08.02Z</time></trkpt><trkpt lat="45.7079407" lon="13.7337619"><ele>251.0</ele><time>2026-04-06T12:15:10.018Z</time></trkpt><trkpt lat="45.7080148" lon="13.7337809"><ele>251.0</ele><time>2026-04-06T12:15:13.024Z</time></trkpt><trkpt lat="45.7080842" lon="13.733785"><ele>251.0</ele><time>2026-04-06T12:15:20.035Z</time></trkpt><trkpt lat="45.7081382" lon="13.7336506"><ele>251.00000000000003</ele><time>2026-04-06T12:15:22.022Z</time></trkpt><trkpt lat="45.7081384" lon="13.7335437"><ele>251.0</ele><time>2026-04-06T12:15:23.032Z</time></trkpt><trkpt lat="45.7081367" lon="13.733448"><ele>251.0</ele><time>2026-04-06T12:15:24.03Z</time></trkpt><trkpt lat="45.7081433" lon="13.7332727"><ele>251.00000000000003</ele><time>2026-04-06T12:15:26.032Z</time></trkpt><trkpt lat="45.7081546" lon="13.7331202"><ele>251.00000000000003</ele><time>2026-04-06T12:15:28.038Z</time></trkpt><trkpt lat="45.7081727" lon="13.7329722"><ele>251.0</ele><time>2026-04-06T12:15:30.034Z</time></trkpt><trkpt lat="45.7081875" lon="13.7328269"><ele>251.0</ele><time>2026-04-06T12:15:32.037Z</time></trkpt><trkpt lat="45.7081919" lon="13.7327236"><ele>251.0</ele><time>2026-04-06T12:15:34.031Z</time></trkpt><trkpt lat="45.7082042" lon="13.7326136"><ele>251.00000000000003</ele><time>2026-04-06T12:15:36.028Z</time></trkpt><trkpt lat="45.708202" lon="13.7324612"><ele>251.00000000000003</ele><time>2026-04-06T12:15:38.03Z</time></trkpt><trkpt lat="45.7082171" lon="13.7322954"><ele>251.0</ele><time>2026-04-06T12:15:40.026Z</time></trkpt><trkpt lat="45.7082336" lon="13.7321293"><ele>251.0</ele><time>2026-04-06T12:15:42.034Z</time></trkpt><trkpt lat="45.7082466" lon="13.7320409"><ele>250.99999999999997</ele><time>2026-04-06T12:15:43.03Z</time></trkpt><trkpt lat="45.7082612" lon="13.7319529"><ele>251.0</ele><time>2026-04-06T12:15:44.028Z</time></trkpt><trkpt lat="45.7082791" lon="13.7318613"><ele>250.99999999999997</ele><time>2026-04-06T12:15:45.042Z</time></trkpt><trkpt lat="45.7082979" lon="13.7317639"><ele>250.99999999999997</ele><time>2026-04-06T12:15:46.03Z</time></trkpt><trkpt lat="45.7083148" lon="13.7316673"><ele>251.0</ele><time>2026-04-06T12:15:47.03Z</time></trkpt><trkpt lat="45.708336" lon="13.7315642"><ele>250.99999999999997</ele><time>2026-04-06T12:15:48.035Z</time></trkpt><trkpt lat="45.7083586" lon="13.731453"><ele>250.99999999999997</ele><time>2026-04-06T12:15:49.034Z</time></trkpt><trkpt lat="45.7083947" lon="13.7313219"><ele>251.5</ele><time>2026-04-06T12:15:50.038Z</time></trkpt><trkpt lat="45.7084302" lon="13.7311684"><ele>252.0</ele><time>2026-04-06T12:15:51.036Z</time></trkpt><trkpt lat="45.7084669" lon="13.7310075"><ele>252.5</ele><time>2026-04-06T12:15:52.03Z</time></trkpt><trkpt lat="45.7085061" lon="13.7308515"><ele>253.0</ele><time>2026-04-06T12:15:53.049Z</time></trkpt><trkpt lat="45.7085745" lon="13.7307061"><ele>252.5</ele><time>2026-04-06T12:15:54.034Z</time></trkpt><trkpt lat="45.7086729" lon="13.7305609"><ele>252.0</ele><time>2026-04-06T12:15:55.018Z</time></trkpt><trkpt lat="45.7087807" lon="13.7304201"><ele>251.5</ele><time>2026-04-06T12:15:56.025Z</time></trkpt><trkpt lat="45.7088914" lon="13.7302813"><ele>251.0</ele><time>2026-04-06T12:15:57.041Z</time></trkpt><trkpt lat="45.7090089" lon="13.7301536"><ele>250.75</ele><time>2026-04-06T12:15:58.041Z</time></trkpt><trkpt lat="45.7091192" lon="13.7300222"><ele>250.5</ele><time>2026-04-06T12:15:59.035Z</time></trkpt><trkpt lat="45.7092245" lon="13.7299098"><ele>250.25</ele><time>2026-04-06T12:16:00.036Z</time></trkpt><trkpt lat="45.7093408" lon="13.729805"><ele>250.0</ele><time>2026-04-06T12:16:01.039Z</time></trkpt><trkpt lat="45.7094736" lon="13.7297296"><ele>249.0</ele><time>2026-04-06T12:16:02.037Z</time></trkpt><trkpt lat="45.7096225" lon="13.7296632"><ele>248.0</ele><time>2026-04-06T12:16:03.041Z</time></trkpt><trkpt lat="45.7097747" lon="13.7296017"><ele>247.0</ele><time>2026-04-06T12:16:04.038Z</time></trkpt><trkpt lat="45.7099192" lon="13.7295489"><ele>247.0</ele><time>2026-04-06T12:16:05.043Z</time></trkpt><trkpt lat="45.7100552" lon="13.7295064"><ele>247.0</ele><time>2026-04-06T12:16:06.043Z</time></trkpt><trkpt lat="45.7101879" lon="13.7294604"><ele>247.0</ele><time>2026-04-06T12:16:07.036Z</time></trkpt><trkpt lat="45.7103151" lon="13.7294202"><ele>247.0</ele><time>2026-04-06T12:16:08.038Z</time></trkpt><trkpt lat="45.710437" lon="13.7293869"><ele>245.75</ele><time>2026-04-06T12:16:09.034Z</time></trkpt><trkpt lat="45.7105553" lon="13.7293466"><ele>244.5</ele><time>2026-04-06T12:16:10.048Z</time></trkpt><trkpt lat="45.7106726" lon="13.7293056"><ele>243.25</ele><time>2026-04-06T12:16:11.034Z</time></trkpt><trkpt lat="45.7107832" lon="13.7292705"><ele>242.0</ele><time>2026-04-06T12:16:12.042Z</time></trkpt><trkpt lat="45.7108906" lon="13.7292328"><ele>242.0</ele><time>2026-04-06T12:16:13.042Z</time></trkpt><trkpt lat="45.7109935" lon="13.7291966"><ele>242.0</ele><time>2026-04-06T12:16:14.044Z</time></trkpt><trkpt lat="45.7110971" lon="13.7291576"><ele>242.0</ele><time>2026-04-06T12:16:15.057Z</time></trkpt><trkpt lat="45.7112085" lon="13.729122"><ele>242.0</ele><time>2026-04-06T12:16:16.043Z</time></trkpt><trkpt lat="45.7113237" lon="13.7290836"><ele>242.0</ele><time>2026-04-06T12:16:17.042Z</time></trkpt><trkpt lat="45.7114379" lon="13.729049"><ele>242.0</ele><time>2026-04-06T12:16:18.025Z</time></trkpt><trkpt lat="45.7115422" lon="13.7290075"><ele>242.0</ele><time>2026-04-06T12:16:19.028Z</time></trkpt><trkpt lat="45.7116434" lon="13.7289719"><ele>242.0</ele><time>2026-04-06T12:16:20.026Z</time></trkpt><trkpt lat="45.7117454" lon="13.7289366"><ele>242.0</ele><time>2026-04-06T12:16:21.039Z</time></trkpt><trkpt lat="45.7118527" lon="13.7289003"><ele>242.0</ele><time>2026-04-06T12:16:22.041Z</time></trkpt><trkpt lat="45.7119664" lon="13.7288613"><ele>241.5</ele><time>2026-04-06T12:16:23.022Z</time></trkpt><trkpt lat="45.7120899" lon="13.7288205"><ele>241.0</ele><time>2026-04-06T12:16:24.035Z</time></trkpt><trkpt lat="45.7122134" lon="13.7287727"><ele>240.5</ele><time>2026-04-06T12:16:25.04Z</time></trkpt><trkpt lat="45.7123334" lon="13.7287341"><ele>240.0</ele><time>2026-04-06T12:16:26.041Z</time></trkpt><trkpt lat="45.71245" lon="13.7287012"><ele>240.0</ele><time>2026-04-06T12:16:27.036Z</time></trkpt><trkpt lat="45.7125608" lon="13.7286651"><ele>240.0</ele><time>2026-04-06T12:16:28.029Z</time></trkpt><trkpt lat="45.7126695" lon="13.7286308"><ele>240.0</ele><time>2026-04-06T12:16:29.035Z</time></trkpt><trkpt lat="45.7127787" lon="13.7285957"><ele>240.0</ele><time>2026-04-06T12:16:30.024Z</time></trkpt><trkpt lat="45.7128922" lon="13.7285628"><ele>239.5</ele><time>2026-04-06T12:16:31.038Z</time></trkpt><trkpt lat="45.713002" lon="13.72853"><ele>239.0</ele><time>2026-04-06T12:16:32.043Z</time></trkpt><trkpt lat="45.713116" lon="13.7284993"><ele>238.5</ele><time>2026-04-06T12:16:33.037Z</time></trkpt><trkpt lat="45.7132316" lon="13.7284706"><ele>238.0</ele><time>2026-04-06T12:16:34.037Z</time></trkpt><trkpt lat="45.713345" lon="13.7284413"><ele>238.0</ele><time>2026-04-06T12:16:35.058Z</time></trkpt><trkpt lat="45.7134517" lon="13.7284076"><ele>238.0</ele><time>2026-04-06T12:16:36.045Z</time></trkpt><trkpt lat="45.713551" lon="13.7283788"><ele>238.0</ele><time>2026-04-06T12:16:37.037Z</time></trkpt><trkpt lat="45.7136499" lon="13.7283548"><ele>238.0</ele><time>2026-04-06T12:16:38.047Z</time></trkpt><trkpt lat="45.7137506" lon="13.7283316"><ele>238.0</ele><time>2026-04-06T12:16:39.045Z</time></trkpt><trkpt lat="45.7138562" lon="13.7283004"><ele>238.2</ele><time>2026-04-06T12:16:40.055Z</time></trkpt><trkpt lat="45.7139698" lon="13.7282737"><ele>238.4</ele><time>2026-04-06T12:16:41.038Z</time></trkpt><trkpt lat="45.7140791" lon="13.7282381"><ele>238.59999999999997</ele><time>2026-04-06T12:16:42.037Z</time></trkpt><trkpt lat="45.7141871" lon="13.7282095"><ele>238.79999999999998</ele><time>2026-04-06T12:16:43.031Z</time></trkpt><trkpt lat="45.7142935" lon="13.728178"><ele>239.0</ele><time>2026-04-06T12:16:44.047Z</time></trkpt><trkpt lat="45.7143981" lon="13.7281313"><ele>239.0</ele><time>2026-04-06T12:16:45.042Z</time></trkpt><trkpt lat="45.7145132" lon="13.7280666"><ele>239.0</ele><time>2026-04-06T12:16:46.046Z</time></trkpt><trkpt lat="45.7146313" lon="13.7279951"><ele>239.0</ele><time>2026-04-06T12:16:47.036Z</time></trkpt><trkpt lat="45.7147507" lon="13.7279078"><ele>239.0</ele><time>2026-04-06T12:16:48.025Z</time></trkpt><trkpt lat="45.7148739" lon="13.7278"><ele>239.0</ele><time>2026-04-06T12:16:49.049Z</time></trkpt><trkpt lat="45.7149971" lon="13.7276598"><ele>239.0</ele><time>2026-04-06T12:16:50.035Z</time></trkpt><trkpt lat="45.7151142" lon="13.7275043"><ele>239.0</ele><time>2026-04-06T12:16:51.044Z</time></trkpt><trkpt lat="45.7152358" lon="13.7273322"><ele>238.33333333333334</ele><time>2026-04-06T12:16:52.036Z</time></trkpt><trkpt lat="45.7153672" lon="13.7271667"><ele>237.66666666666669</ele><time>2026-04-06T12:16:53.021Z</time></trkpt><trkpt lat="45.715498" lon="13.7270068"><ele>237.0</ele><time>2026-04-06T12:16:54.035Z</time></trkpt><trkpt lat="45.7156388" lon="13.7268451"><ele>237.0</ele><time>2026-04-06T12:16:55.028Z</time></trkpt><trkpt lat="45.7157822" lon="13.7266784"><ele>237.0</ele><time>2026-04-06T12:16:56.023Z</time></trkpt><trkpt lat="45.7159318" lon="13.7264964"><ele>237.0</ele><time>2026-04-06T12:16:57.026Z</time></trkpt><trkpt lat="45.7160825" lon="13.7263092"><ele>237.0</ele><time>2026-04-06T12:16:58.026Z</time></trkpt><trkpt lat="45.7162377" lon="13.7261175"><ele>237.0</ele><time>2026-04-06T12:16:59.027Z</time></trkpt><trkpt lat="45.7163886" lon="13.7259251"><ele>237.0</ele><time>2026-04-06T12:17:00.023Z</time></trkpt><trkpt lat="45.7165383" lon="13.7257278"><ele>237.33333333333331</ele><time>2026-04-06T12:17:01.025Z</time></trkpt><trkpt lat="45.7166918" lon="13.7255332"><ele>237.66666666666666</ele><time>2026-04-06T12:17:02.032Z</time></trkpt><trkpt lat="45.7168467" lon="13.7253373"><ele>238.0</ele><time>2026-04-06T12:17:03.026Z</time></trkpt><trkpt lat="45.716999" lon="13.7251407"><ele>237.33333333333331</ele><time>2026-04-06T12:17:04.021Z</time></trkpt><trkpt lat="45.7171493" lon="13.7249441"><ele>236.66666666666669</ele><time>2026-04-06T12:17:05.023Z</time></trkpt><trkpt lat="45.7172969" lon="13.7247562"><ele>236.0</ele><time>2026-04-06T12:17:06.025Z</time></trkpt><trkpt lat="45.7174416" lon="13.7245718"><ele>236.33333333333334</ele><time>2026-04-06T12:17:07.025Z</time></trkpt><trkpt lat="45.717586" lon="13.7243905"><ele>236.66666666666669</ele><time>2026-04-06T12:17:08.019Z</time></trkpt><trkpt lat="45.7177316" lon="13.7242106"><ele>237.0</ele><time>2026-04-06T12:17:09.036Z</time></trkpt><trkpt lat="45.7178755" lon="13.7240287"><ele>237.0</ele><time>2026-04-06T12:17:10.024Z</time></trkpt><trkpt lat="45.7180204" lon="13.7238449"><ele>237.0</ele><time>2026-04-06T12:17:11.019Z</time></trkpt><trkpt lat="45.7181678" lon="13.7236614"><ele>237.0</ele><time>2026-04-06T12:17:12.021Z</time></trkpt><trkpt lat="45.718311" lon="13.7234776"><ele>236.66666666666669</ele><time>2026-04-06T12:17:13.028Z</time></trkpt><trkpt lat="45.7184548" lon="13.7232905"><ele>236.33333333333334</ele><time>2026-04-06T12:17:14.015Z</time></trkpt><trkpt lat="45.7185976" lon="13.7230985"><ele>236.0</ele><time>2026-04-06T12:17:15.046Z</time></trkpt><trkpt lat="45.7187444" lon="13.7229116"><ele>236.0</ele><time>2026-04-06T12:17:16.022Z</time></trkpt><trkpt lat="45.7188878" lon="13.7227318"><ele>236.0</ele><time>2026-04-06T12:17:17.021Z</time></trkpt><trkpt lat="45.719033" lon="13.7225527"><ele>236.0</ele><time>2026-04-06T12:17:18.028Z</time></trkpt><trkpt lat="45.7191792" lon="13.7223712"><ele>236.0</ele><time>2026-04-06T12:17:19.02Z</time></trkpt><trkpt lat="45.719325" lon="13.7221849"><ele>236.0</ele><time>2026-04-06T12:17:20.03Z</time></trkpt><trkpt lat="45.7194732" lon="13.7219966"><ele>236.0</ele><time>2026-04-06T12:17:21.031Z</time></trkpt><trkpt lat="45.7196178" lon="13.7218072"><ele>236.0</ele><time>2026-04-06T12:17:22.028Z</time></trkpt><trkpt lat="45.7197607" lon="13.721615"><ele>236.0</ele><time>2026-04-06T12:17:23.037Z</time></trkpt><trkpt lat="45.7199038" lon="13.7214296"><ele>236.0</ele><time>2026-04-06T12:17:24.029Z</time></trkpt><trkpt lat="45.7200442" lon="13.7212414"><ele>236.0</ele><time>2026-04-06T12:17:25.046Z</time></trkpt><trkpt lat="45.7201807" lon="13.7210527"><ele>236.0</ele><time>2026-04-06T12:17:26.036Z</time></trkpt><trkpt lat="45.7203177" lon="13.7208586"><ele>236.0</ele><time>2026-04-06T12:17:27.032Z</time></trkpt><trkpt lat="45.7204532" lon="13.7206614"><ele>236.0</ele><time>2026-04-06T12:17:28.021Z</time></trkpt><trkpt lat="45.7205899" lon="13.7204614"><ele>236.0</ele><time>2026-04-06T12:17:29.028Z</time></trkpt><trkpt lat="45.7207243" lon="13.7202585"><ele>236.0</ele><time>2026-04-06T12:17:30.025Z</time></trkpt><trkpt lat="45.720861" lon="13.7200481"><ele>236.66666666666669</ele><time>2026-04-06T12:17:31.031Z</time></trkpt><trkpt lat="45.7209958" lon="13.7198388"><ele>237.33333333333331</ele><time>2026-04-06T12:17:32.03Z</time></trkpt><trkpt lat="45.72113" lon="13.7196344"><ele>238.0</ele><time>2026-04-06T12:17:33.022Z</time></trkpt><trkpt lat="45.7212666" lon="13.7194304"><ele>239.0</ele><time>2026-04-06T12:17:34.023Z</time></trkpt><trkpt lat="45.721403" lon="13.7192259"><ele>240.0</ele><time>2026-04-06T12:17:35.023Z</time></trkpt><trkpt lat="45.7215394" lon="13.7190244"><ele>241.0</ele><time>2026-04-06T12:17:36.027Z</time></trkpt><trkpt lat="45.7216739" lon="13.7188241"><ele>241.0</ele><time>2026-04-06T12:17:37.029Z</time></trkpt><trkpt lat="45.7218031" lon="13.7186251"><ele>241.0</ele><time>2026-04-06T12:17:38.022Z</time></trkpt><trkpt lat="45.7219314" lon="13.7184258"><ele>241.0</ele><time>2026-04-06T12:17:39.039Z</time></trkpt><trkpt lat="45.7220627" lon="13.7182264"><ele>240.66666666666666</ele><time>2026-04-06T12:17:40.027Z</time></trkpt><trkpt lat="45.7221907" lon="13.7180312"><ele>240.33333333333331</ele><time>2026-04-06T12:17:41.04Z</time></trkpt><trkpt lat="45.7223166" lon="13.7178354"><ele>240.0</ele><time>2026-04-06T12:17:42.032Z</time></trkpt><trkpt lat="45.7224441" lon="13.7176474"><ele>240.0</ele><time>2026-04-06T12:17:43.032Z</time></trkpt><trkpt lat="45.7225712" lon="13.7174568"><ele>240.0</ele><time>2026-04-06T12:17:44.032Z</time></trkpt><trkpt lat="45.722698" lon="13.7172675"><ele>240.0</ele><time>2026-04-06T12:17:45.036Z</time></trkpt><trkpt lat="45.7228272" lon="13.7170789"><ele>239.0</ele><time>2026-04-06T12:17:46.04Z</time></trkpt><trkpt lat="45.7229539" lon="13.7168895"><ele>238.0</ele><time>2026-04-06T12:17:47.021Z</time></trkpt><trkpt lat="45.72308" lon="13.7166957"><ele>237.0</ele><time>2026-04-06T12:17:48.031Z</time></trkpt><trkpt lat="45.7232062" lon="13.7165027"><ele>237.0</ele><time>2026-04-06T12:17:49.031Z</time></trkpt><trkpt lat="45.7233335" lon="13.7163094"><ele>237.0</ele><time>2026-04-06T12:17:50.023Z</time></trkpt><trkpt lat="45.7234611" lon="13.7161168"><ele>237.0</ele><time>2026-04-06T12:17:51.027Z</time></trkpt><trkpt lat="45.7235886" lon="13.7159215"><ele>236.33333333333331</ele><time>2026-04-06T12:17:52.034Z</time></trkpt><trkpt lat="45.723716" lon="13.7157245"><ele>235.66666666666666</ele><time>2026-04-06T12:17:53.029Z</time></trkpt><trkpt lat="45.7238448" lon="13.7155254"><ele>235.0</ele><time>2026-04-06T12:17:54.028Z</time></trkpt><trkpt lat="45.7239718" lon="13.7153262"><ele>235.66666666666666</ele><time>2026-04-06T12:17:55.034Z</time></trkpt><trkpt lat="45.7241017" lon="13.715123"><ele>236.33333333333331</ele><time>2026-04-06T12:17:56.025Z</time></trkpt><trkpt lat="45.7242358" lon="13.7149176"><ele>237.0</ele><time>2026-04-06T12:17:57.034Z</time></trkpt><trkpt lat="45.7243705" lon="13.7147175"><ele>235.0</ele><time>2026-04-06T12:17:58.028Z</time></trkpt><trkpt lat="45.7245051" lon="13.7145211"><ele>233.0</ele><time>2026-04-06T12:17:59.025Z</time></trkpt><trkpt lat="45.7246383" lon="13.7143251"><ele>231.0</ele><time>2026-04-06T12:18:00.036Z</time></trkpt><trkpt lat="45.7247671" lon="13.7141286"><ele>231.0</ele><time>2026-04-06T12:18:01.03Z</time></trkpt><trkpt lat="45.724897" lon="13.7139341"><ele>231.0</ele><time>2026-04-06T12:18:02.035Z</time></trkpt><trkpt lat="45.7250258" lon="13.7137355"><ele>231.0</ele><time>2026-04-06T12:18:03.041Z</time></trkpt><trkpt lat="45.7251565" lon="13.7135356"><ele>229.66666666666669</ele><time>2026-04-06T12:18:04.039Z</time></trkpt><trkpt lat="45.7252897" lon="13.7133382"><ele>228.33333333333334</ele><time>2026-04-06T12:18:05.032Z</time></trkpt><trkpt lat="45.7254221" lon="13.7131373"><ele>227.0</ele><time>2026-04-06T12:18:06.032Z</time></trkpt><trkpt lat="45.7255556" lon="13.7129362"><ele>227.33333333333334</ele><time>2026-04-06T12:18:07.042Z</time></trkpt><trkpt lat="45.7256851" lon="13.7127312"><ele>227.66666666666669</ele><time>2026-04-06T12:18:08.029Z</time></trkpt><trkpt lat="45.7258141" lon="13.7125196"><ele>228.0</ele><time>2026-04-06T12:18:09.034Z</time></trkpt><trkpt lat="45.7259426" lon="13.7123042"><ele>226.33333333333331</ele><time>2026-04-06T12:18:10.027Z</time></trkpt><trkpt lat="45.726067" lon="13.7120854"><ele>224.66666666666666</ele><time>2026-04-06T12:18:11.029Z</time></trkpt><trkpt lat="45.7261873" lon="13.7118675"><ele>223.0</ele><time>2026-04-06T12:18:12.032Z</time></trkpt><trkpt lat="45.7263052" lon="13.7116557"><ele>223.0</ele><time>2026-04-06T12:18:13.037Z</time></trkpt><trkpt lat="45.7264233" lon="13.7114436"><ele>223.0</ele><time>2026-04-06T12:18:14.034Z</time></trkpt><trkpt lat="45.7265408" lon="13.7112262"><ele>223.0</ele><time>2026-04-06T12:18:15.034Z</time></trkpt><trkpt lat="45.7266555" lon="13.7110092"><ele>223.33333333333331</ele><time>2026-04-06T12:18:16.03Z</time></trkpt><trkpt lat="45.7267694" lon="13.7107921"><ele>223.66666666666669</ele><time>2026-04-06T12:18:17.03Z</time></trkpt><trkpt lat="45.7268853" lon="13.7105682"><ele>224.0</ele><time>2026-04-06T12:18:18.035Z</time></trkpt><trkpt lat="45.7270028" lon="13.7103499"><ele>222.33333333333334</ele><time>2026-04-06T12:18:19.029Z</time></trkpt><trkpt lat="45.7271202" lon="13.7101268"><ele>220.66666666666669</ele><time>2026-04-06T12:18:20.027Z</time></trkpt><trkpt lat="45.7272383" lon="13.7099017"><ele>219.0</ele><time>2026-04-06T12:18:21.024Z</time></trkpt><trkpt lat="45.7273556" lon="13.709679"><ele>219.0</ele><time>2026-04-06T12:18:22.034Z</time></trkpt><trkpt lat="45.7274725" lon="13.7094664"><ele>219.0</ele><time>2026-04-06T12:18:23.038Z</time></trkpt><trkpt lat="45.7275891" lon="13.7092566"><ele>219.0</ele><time>2026-04-06T12:18:24.028Z</time></trkpt><trkpt lat="45.7277051" lon="13.7090478"><ele>218.33333333333331</ele><time>2026-04-06T12:18:25.042Z</time></trkpt><trkpt lat="45.7278209" lon="13.7088357"><ele>217.66666666666666</ele><time>2026-04-06T12:18:26.027Z</time></trkpt><trkpt lat="45.7279348" lon="13.7086224"><ele>217.0</ele><time>2026-04-06T12:18:27.029Z</time></trkpt><trkpt lat="45.7280495" lon="13.7084118"><ele>217.0</ele><time>2026-04-06T12:18:28.026Z</time></trkpt><trkpt lat="45.7281652" lon="13.7082012"><ele>217.0</ele><time>2026-04-06T12:18:29.039Z</time></trkpt><trkpt lat="45.7282798" lon="13.7079922"><ele>217.0</ele><time>2026-04-06T12:18:30.023Z</time></trkpt><trkpt lat="45.7283919" lon="13.707778"><ele>216.66666666666666</ele><time>2026-04-06T12:18:31.028Z</time></trkpt><trkpt lat="45.7285033" lon="13.7075679"><ele>216.33333333333331</ele><time>2026-04-06T12:18:32.025Z</time></trkpt><trkpt lat="45.7286173" lon="13.7073559"><ele>216.0</ele><time>2026-04-06T12:18:33.042Z</time></trkpt><trkpt lat="45.72873" lon="13.7071452"><ele>216.0</ele><time>2026-04-06T12:18:34.036Z</time></trkpt><trkpt lat="45.7288435" lon="13.7069289"><ele>216.0</ele><time>2026-04-06T12:18:35.037Z</time></trkpt><trkpt lat="45.7289581" lon="13.7067114"><ele>216.0</ele><time>2026-04-06T12:18:36.037Z</time></trkpt><trkpt lat="45.7290737" lon="13.7064927"><ele>215.66666666666669</ele><time>2026-04-06T12:18:37.032Z</time></trkpt><trkpt lat="45.7291887" lon="13.7062692"><ele>215.33333333333334</ele><time>2026-04-06T12:18:38.029Z</time></trkpt><trkpt lat="45.7293051" lon="13.7060504"><ele>215.0</ele><time>2026-04-06T12:18:39.034Z</time></trkpt><trkpt lat="45.7294218" lon="13.7058326"><ele>215.0</ele><time>2026-04-06T12:18:40.033Z</time></trkpt><trkpt lat="45.7295405" lon="13.7056147"><ele>215.0</ele><time>2026-04-06T12:18:41.041Z</time></trkpt><trkpt lat="45.7296599" lon="13.7053956"><ele>215.0</ele><time>2026-04-06T12:18:42.04Z</time></trkpt><trkpt lat="45.729781" lon="13.7051764"><ele>215.33333333333334</ele><time>2026-04-06T12:18:43.032Z</time></trkpt><trkpt lat="45.7298981" lon="13.7049519"><ele>215.66666666666669</ele><time>2026-04-06T12:18:44.041Z</time></trkpt><trkpt lat="45.7300151" lon="13.7047326"><ele>216.0</ele><time>2026-04-06T12:18:45.032Z</time></trkpt><trkpt lat="45.7301275" lon="13.7045191"><ele>214.66666666666669</ele><time>2026-04-06T12:18:46.032Z</time></trkpt><trkpt lat="45.7302381" lon="13.7043119"><ele>213.33333333333334</ele><time>2026-04-06T12:18:47.019Z</time></trkpt><trkpt lat="45.730348" lon="13.7041097"><ele>212.0</ele><time>2026-04-06T12:18:48.026Z</time></trkpt><trkpt lat="45.7304573" lon="13.7039148"><ele>212.0</ele><time>2026-04-06T12:18:49.019Z</time></trkpt><trkpt lat="45.7305627" lon="13.7037193"><ele>212.0</ele><time>2026-04-06T12:18:50.022Z</time></trkpt><trkpt lat="45.7306713" lon="13.7035193"><ele>212.0</ele><time>2026-04-06T12:18:51.031Z</time></trkpt><trkpt lat="45.7307805" lon="13.7033177"><ele>212.0</ele><time>2026-04-06T12:18:52.037Z</time></trkpt><trkpt lat="45.7308903" lon="13.7031143"><ele>212.0</ele><time>2026-04-06T12:18:53.041Z</time></trkpt><trkpt lat="45.7309996" lon="13.7029081"><ele>212.0</ele><time>2026-04-06T12:18:54.024Z</time></trkpt><trkpt lat="45.731109" lon="13.7027019"><ele>212.0</ele><time>2026-04-06T12:18:55.036Z</time></trkpt><trkpt lat="45.7312203" lon="13.7024973"><ele>212.0</ele><time>2026-04-06T12:18:56.036Z</time></trkpt><trkpt lat="45.7313341" lon="13.7022931"><ele>212.0</ele><time>2026-04-06T12:18:57.028Z</time></trkpt><trkpt lat="45.7314461" lon="13.702083"><ele>212.0</ele><time>2026-04-06T12:18:58.028Z</time></trkpt><trkpt lat="45.7315564" lon="13.7018727"><ele>212.0</ele><time>2026-04-06T12:18:59.034Z</time></trkpt><trkpt lat="45.7316648" lon="13.7016654"><ele>212.0</ele><time>2026-04-06T12:19:00.032Z</time></trkpt><trkpt lat="45.7317758" lon="13.7014594"><ele>212.0</ele><time>2026-04-06T12:19:01.036Z</time></trkpt><trkpt lat="45.7318893" lon="13.7012526"><ele>212.0</ele><time>2026-04-06T12:19:02.023Z</time></trkpt><trkpt lat="45.7320017" lon="13.7010405"><ele>212.0</ele><time>2026-04-06T12:19:03.035Z</time></trkpt><trkpt lat="45.7321157" lon="13.7008248"><ele>211.33333333333334</ele><time>2026-04-06T12:19:04.024Z</time></trkpt><trkpt lat="45.7322271" lon="13.7006076"><ele>210.66666666666669</ele><time>2026-04-06T12:19:05.028Z</time></trkpt><trkpt lat="45.7323402" lon="13.7003929"><ele>210.0</ele><time>2026-04-06T12:19:06.026Z</time></trkpt><trkpt lat="45.7324535" lon="13.7001844"><ele>210.0</ele><time>2026-04-06T12:19:07.036Z</time></trkpt><trkpt lat="45.7325643" lon="13.6999715"><ele>210.0</ele><time>2026-04-06T12:19:08.03Z</time></trkpt><trkpt lat="45.7326762" lon="13.6997637"><ele>210.0</ele><time>2026-04-06T12:19:09.029Z</time></trkpt><trkpt lat="45.7327872" lon="13.699556"><ele>210.0</ele><time>2026-04-06T12:19:10.036Z</time></trkpt><trkpt lat="45.7329008" lon="13.6993525"><ele>210.0</ele><time>2026-04-06T12:19:11.024Z</time></trkpt><trkpt lat="45.7330142" lon="13.6991489"><ele>210.0</ele><time>2026-04-06T12:19:12.037Z</time></trkpt><trkpt lat="45.733128" lon="13.6989419"><ele>210.0</ele><time>2026-04-06T12:19:13.031Z</time></trkpt><trkpt lat="45.7332393" lon="13.6987376"><ele>210.0</ele><time>2026-04-06T12:19:14.025Z</time></trkpt><trkpt lat="45.7333499" lon="13.698532"><ele>210.0</ele><time>2026-04-06T12:19:15.023Z</time></trkpt><trkpt lat="45.733457" lon="13.6983261"><ele>208.33333333333331</ele><time>2026-04-06T12:19:16.034Z</time></trkpt><trkpt lat="45.7335619" lon="13.6981248"><ele>206.66666666666666</ele><time>2026-04-06T12:19:17.034Z</time></trkpt><trkpt lat="45.7336678" lon="13.6979236"><ele>205.0</ele><time>2026-04-06T12:19:18.024Z</time></trkpt><trkpt lat="45.7337743" lon="13.697724"><ele>205.0</ele><time>2026-04-06T12:19:19.038Z</time></trkpt><trkpt lat="45.7338822" lon="13.6975229"><ele>205.0</ele><time>2026-04-06T12:19:20.029Z</time></trkpt><trkpt lat="45.7339919" lon="13.6973135"><ele>205.0</ele><time>2026-04-06T12:19:21.024Z</time></trkpt><trkpt lat="45.7341013" lon="13.6971027"><ele>205.66666666666666</ele><time>2026-04-06T12:19:22.036Z</time></trkpt><trkpt lat="45.7342123" lon="13.6968914"><ele>206.33333333333331</ele><time>2026-04-06T12:19:23.027Z</time></trkpt><trkpt lat="45.7343273" lon="13.6966859"><ele>207.0</ele><time>2026-04-06T12:19:24.038Z</time></trkpt><trkpt lat="45.7344418" lon="13.6964806"><ele>205.66666666666669</ele><time>2026-04-06T12:19:25.035Z</time></trkpt><trkpt lat="45.7345513" lon="13.6962747"><ele>204.33333333333334</ele><time>2026-04-06T12:19:26.037Z</time></trkpt><trkpt lat="45.7346627" lon="13.6960716"><ele>203.0</ele><time>2026-04-06T12:19:27.028Z</time></trkpt><trkpt lat="45.7347757" lon="13.6958694"><ele>203.0</ele><time>2026-04-06T12:19:28.036Z</time></trkpt><trkpt lat="45.7348892" lon="13.6956637"><ele>203.0</ele><time>2026-04-06T12:19:29.041Z</time></trkpt><trkpt lat="45.7350016" lon="13.6954589"><ele>203.0</ele><time>2026-04-06T12:19:30.035Z</time></trkpt><trkpt lat="45.7351105" lon="13.6952519"><ele>201.66666666666669</ele><time>2026-04-06T12:19:31.037Z</time></trkpt><trkpt lat="45.7352208" lon="13.6950421"><ele>200.33333333333331</ele><time>2026-04-06T12:19:32.02Z</time></trkpt><trkpt lat="45.735332" lon="13.6948317"><ele>199.0</ele><time>2026-04-06T12:19:33.037Z</time></trkpt><trkpt lat="45.7354429" lon="13.6946235"><ele>199.66666666666666</ele><time>2026-04-06T12:19:34.025Z</time></trkpt><trkpt lat="45.7355527" lon="13.6944127"><ele>200.33333333333331</ele><time>2026-04-06T12:19:35.026Z</time></trkpt><trkpt lat="45.7356619" lon="13.6942042"><ele>201.0</ele><time>2026-04-06T12:19:36.029Z</time></trkpt><trkpt lat="45.7357721" lon="13.6939906"><ele>201.0</ele><time>2026-04-06T12:19:37.037Z</time></trkpt><trkpt lat="45.7358776" lon="13.6937797"><ele>201.0</ele><time>2026-04-06T12:19:38.036Z</time></trkpt><trkpt lat="45.7359835" lon="13.6935653"><ele>201.0</ele><time>2026-04-06T12:19:39.035Z</time></trkpt><trkpt lat="45.7360881" lon="13.6933565"><ele>200.0</ele><time>2026-04-06T12:19:40.033Z</time></trkpt><trkpt lat="45.736193" lon="13.6931498"><ele>199.0</ele><time>2026-04-06T12:19:41.043Z</time></trkpt><trkpt lat="45.7362964" lon="13.6929399"><ele>198.0</ele><time>2026-04-06T12:19:42.035Z</time></trkpt><trkpt lat="45.736397" lon="13.6927278"><ele>198.0</ele><time>2026-04-06T12:19:43.034Z</time></trkpt><trkpt lat="45.7364974" lon="13.6925192"><ele>198.0</ele><time>2026-04-06T12:19:44.042Z</time></trkpt><trkpt lat="45.7366015" lon="13.6923111"><ele>198.0</ele><time>2026-04-06T12:19:45.043Z</time></trkpt><trkpt lat="45.7367" lon="13.6921014"><ele>198.33333333333331</ele><time>2026-04-06T12:19:46.036Z</time></trkpt><trkpt lat="45.7368024" lon="13.6918881"><ele>198.66666666666666</ele><time>2026-04-06T12:19:47.033Z</time></trkpt><trkpt lat="45.7369051" lon="13.6916798"><ele>199.0</ele><time>2026-04-06T12:19:48.039Z</time></trkpt><trkpt lat="45.7370091" lon="13.6914727"><ele>197.66666666666666</ele><time>2026-04-06T12:19:49.043Z</time></trkpt><trkpt lat="45.7371142" lon="13.6912637"><ele>196.33333333333331</ele><time>2026-04-06T12:19:50.033Z</time></trkpt><trkpt lat="45.7372181" lon="13.6910514"><ele>195.0</ele><time>2026-04-06T12:19:51.046Z</time></trkpt><trkpt lat="45.7373316" lon="13.6908459"><ele>195.0</ele><time>2026-04-06T12:19:52.031Z</time></trkpt><trkpt lat="45.7374537" lon="13.6906438"><ele>195.0</ele><time>2026-04-06T12:19:53.043Z</time></trkpt><trkpt lat="45.7375817" lon="13.6904426"><ele>195.0</ele><time>2026-04-06T12:19:54.036Z</time></trkpt><trkpt lat="45.7377066" lon="13.6902416"><ele>194.0</ele><time>2026-04-06T12:19:55.034Z</time></trkpt><trkpt lat="45.7378296" lon="13.6900382"><ele>193.0</ele><time>2026-04-06T12:19:56.034Z</time></trkpt><trkpt lat="45.7379535" lon="13.6898436"><ele>192.0</ele><time>2026-04-06T12:19:57.039Z</time></trkpt><trkpt lat="45.7380771" lon="13.6896475"><ele>192.0</ele><time>2026-04-06T12:19:58.052Z</time></trkpt><trkpt lat="45.738198" lon="13.6894524"><ele>192.0</ele><time>2026-04-06T12:19:59.032Z</time></trkpt><trkpt lat="45.738317" lon="13.6892523"><ele>192.0</ele><time>2026-04-06T12:20:00.033Z</time></trkpt><trkpt lat="45.7384363" lon="13.6890579"><ele>190.0</ele><time>2026-04-06T12:20:01.042Z</time></trkpt><trkpt lat="45.738555" lon="13.6888736"><ele>188.0</ele><time>2026-04-06T12:20:02.04Z</time></trkpt><trkpt lat="45.7386652" lon="13.6886991"><ele>186.0</ele><time>2026-04-06T12:20:03.05Z</time></trkpt><trkpt lat="45.7387682" lon="13.6885359"><ele>186.0</ele><time>2026-04-06T12:20:04.052Z</time></trkpt><trkpt lat="45.7388638" lon="13.6883762"><ele>186.0</ele><time>2026-04-06T12:20:05.042Z</time></trkpt><trkpt lat="45.738958" lon="13.6882189"><ele>186.0</ele><time>2026-04-06T12:20:06.046Z</time></trkpt><trkpt lat="45.7390539" lon="13.6880621"><ele>186.0</ele><time>2026-04-06T12:20:07.03Z</time></trkpt><trkpt lat="45.739151" lon="13.6879021"><ele>187.33333333333334</ele><time>2026-04-06T12:20:08.039Z</time></trkpt><trkpt lat="45.739252" lon="13.6877345"><ele>188.66666666666669</ele><time>2026-04-06T12:20:09.03Z</time></trkpt><trkpt lat="45.7393566" lon="13.6875613"><ele>190.0</ele><time>2026-04-06T12:20:10.042Z</time></trkpt><trkpt lat="45.7394733" lon="13.687376"><ele>189.0</ele><time>2026-04-06T12:20:11.044Z</time></trkpt><trkpt lat="45.7395956" lon="13.6871911"><ele>188.0</ele><time>2026-04-06T12:20:12.043Z</time></trkpt><trkpt lat="45.7397242" lon="13.6869987"><ele>187.0</ele><time>2026-04-06T12:20:13.043Z</time></trkpt><trkpt lat="45.739854" lon="13.6867907"><ele>187.0</ele><time>2026-04-06T12:20:14.023Z</time></trkpt><trkpt lat="45.7399851" lon="13.6865776"><ele>187.0</ele><time>2026-04-06T12:20:15.039Z</time></trkpt><trkpt lat="45.7401174" lon="13.6863676"><ele>187.0</ele><time>2026-04-06T12:20:16.03Z</time></trkpt><trkpt lat="45.7402501" lon="13.6861545"><ele>185.66666666666669</ele><time>2026-04-06T12:20:17.037Z</time></trkpt><trkpt lat="45.7403815" lon="13.685939"><ele>184.33333333333334</ele><time>2026-04-06T12:20:18.041Z</time></trkpt><trkpt lat="45.7405124" lon="13.6857259"><ele>183.0</ele><time>2026-04-06T12:20:19.039Z</time></trkpt><trkpt lat="45.7406429" lon="13.6855112"><ele>183.0</ele><time>2026-04-06T12:20:20.026Z</time></trkpt><trkpt lat="45.740771" lon="13.6853005"><ele>183.0</ele><time>2026-04-06T12:20:21.025Z</time></trkpt><trkpt lat="45.7409003" lon="13.6850875"><ele>183.0</ele><time>2026-04-06T12:20:22.029Z</time></trkpt><trkpt lat="45.7410292" lon="13.6848745"><ele>182.33333333333334</ele><time>2026-04-06T12:20:23.034Z</time></trkpt><trkpt lat="45.7411567" lon="13.6846625"><ele>181.66666666666669</ele><time>2026-04-06T12:20:24.035Z</time></trkpt><trkpt lat="45.741285" lon="13.6844514"><ele>181.0</ele><time>2026-04-06T12:20:25.046Z</time></trkpt><trkpt lat="45.7414153" lon="13.6842381"><ele>181.0</ele><time>2026-04-06T12:20:26.032Z</time></trkpt><trkpt lat="45.7415472" lon="13.6840274"><ele>181.0</ele><time>2026-04-06T12:20:27.048Z</time></trkpt><trkpt lat="45.741679" lon="13.6838139"><ele>181.0</ele><time>2026-04-06T12:20:28.042Z</time></trkpt><trkpt lat="45.7418107" lon="13.6836044"><ele>178.66666666666669</ele><time>2026-04-06T12:20:29.045Z</time></trkpt><trkpt lat="45.7419418" lon="13.6833922"><ele>176.33333333333334</ele><time>2026-04-06T12:20:30.04Z</time></trkpt><trkpt lat="45.7420719" lon="13.6831771"><ele>174.0</ele><time>2026-04-06T12:20:31.051Z</time></trkpt><trkpt lat="45.7422028" lon="13.6829646"><ele>175.0</ele><time>2026-04-06T12:20:32.038Z</time></trkpt><trkpt lat="45.7423334" lon="13.6827497"><ele>176.0</ele><time>2026-04-06T12:20:33.035Z</time></trkpt><trkpt lat="45.7424626" lon="13.6825323"><ele>177.0</ele><time>2026-04-06T12:20:34.031Z</time></trkpt><trkpt lat="45.7425923" lon="13.6823232"><ele>176.33333333333334</ele><time>2026-04-06T12:20:35.038Z</time></trkpt><trkpt lat="45.7427224" lon="13.6821156"><ele>175.66666666666669</ele><time>2026-04-06T12:20:36.04Z</time></trkpt><trkpt lat="45.7428527" lon="13.6819052"><ele>175.0</ele><time>2026-04-06T12:20:37.033Z</time></trkpt><trkpt lat="45.7429822" lon="13.6816914"><ele>175.0</ele><time>2026-04-06T12:20:38.013Z</time></trkpt><trkpt lat="45.7431098" lon="13.6814767"><ele>175.0</ele><time>2026-04-06T12:20:39.037Z</time></trkpt><trkpt lat="45.7432385" lon="13.681264"><ele>175.0</ele><time>2026-04-06T12:20:40.036Z</time></trkpt><trkpt lat="45.7433649" lon="13.6810485"><ele>176.66666666666669</ele><time>2026-04-06T12:20:41.041Z</time></trkpt><trkpt lat="45.7434954" lon="13.6808378"><ele>178.33333333333334</ele><time>2026-04-06T12:20:42.038Z</time></trkpt><trkpt lat="45.7436252" lon="13.6806293"><ele>180.0</ele><time>2026-04-06T12:20:43.034Z</time></trkpt><trkpt lat="45.743753" lon="13.6804185"><ele>177.66666666666666</ele><time>2026-04-06T12:20:44.051Z</time></trkpt><trkpt lat="45.743881" lon="13.6802079"><ele>175.33333333333331</ele><time>2026-04-06T12:20:45.036Z</time></trkpt><trkpt lat="45.7440073" lon="13.6799955"><ele>173.0</ele><time>2026-04-06T12:20:46.034Z</time></trkpt><trkpt lat="45.7441368" lon="13.6797825"><ele>173.0</ele><time>2026-04-06T12:20:47.039Z</time></trkpt><trkpt lat="45.7442617" lon="13.6795723"><ele>173.0</ele><time>2026-04-06T12:20:48.037Z</time></trkpt><trkpt lat="45.7443873" lon="13.6793747"><ele>173.0</ele><time>2026-04-06T12:20:49.057Z</time></trkpt><trkpt lat="45.7445039" lon="13.6791957"><ele>171.0</ele><time>2026-04-06T12:20:50.033Z</time></trkpt><trkpt lat="45.7446109" lon="13.6790378"><ele>169.0</ele><time>2026-04-06T12:20:51.034Z</time></trkpt><trkpt lat="45.744717" lon="13.6788878"><ele>167.0</ele><time>2026-04-06T12:20:52.035Z</time></trkpt><trkpt lat="45.7448295" lon="13.6787397"><ele>167.33333333333331</ele><time>2026-04-06T12:20:53.043Z</time></trkpt><trkpt lat="45.7449483" lon="13.6785932"><ele>167.66666666666666</ele><time>2026-04-06T12:20:54.035Z</time></trkpt><trkpt lat="45.7450667" lon="13.6784406"><ele>168.0</ele><time>2026-04-06T12:20:55.042Z</time></trkpt><trkpt lat="45.7451873" lon="13.678287"><ele>165.66666666666666</ele><time>2026-04-06T12:20:56.039Z</time></trkpt><trkpt lat="45.7453093" lon="13.6781311"><ele>163.33333333333331</ele><time>2026-04-06T12:20:57.034Z</time></trkpt><trkpt lat="45.745436" lon="13.6779662"><ele>161.0</ele><time>2026-04-06T12:20:58.04Z</time></trkpt><trkpt lat="45.7455642" lon="13.6778027"><ele>161.33333333333331</ele><time>2026-04-06T12:20:59.034Z</time></trkpt><trkpt lat="45.7456916" lon="13.6776348"><ele>161.66666666666666</ele><time>2026-04-06T12:21:00.04Z</time></trkpt><trkpt lat="45.745819" lon="13.6774651"><ele>162.0</ele><time>2026-04-06T12:21:01.036Z</time></trkpt><trkpt lat="45.7459476" lon="13.6773016"><ele>160.66666666666666</ele><time>2026-04-06T12:21:02.039Z</time></trkpt><trkpt lat="45.7460729" lon="13.6771341"><ele>159.33333333333331</ele><time>2026-04-06T12:21:03.043Z</time></trkpt><trkpt lat="45.7462004" lon="13.6769682"><ele>158.0</ele><time>2026-04-06T12:21:04.035Z</time></trkpt><trkpt lat="45.7463303" lon="13.6767973"><ele>156.66666666666666</ele><time>2026-04-06T12:21:05.036Z</time></trkpt><trkpt lat="45.7464606" lon="13.6766268"><ele>155.33333333333334</ele><time>2026-04-06T12:21:06.043Z</time></trkpt><trkpt lat="45.7465925" lon="13.6764644"><ele>154.0</ele><time>2026-04-06T12:21:07.043Z</time></trkpt><trkpt lat="45.7467191" lon="13.6762959"><ele>154.0</ele><time>2026-04-06T12:21:08.041Z</time></trkpt><trkpt lat="45.7468434" lon="13.6761306"><ele>154.0</ele><time>2026-04-06T12:21:09.038Z</time></trkpt><trkpt lat="45.7469699" lon="13.6759655"><ele>154.0</ele><time>2026-04-06T12:21:10.044Z</time></trkpt><trkpt lat="45.747098" lon="13.6758008"><ele>153.0</ele><time>2026-04-06T12:21:11.043Z</time></trkpt><trkpt lat="45.7472252" lon="13.6756312"><ele>152.0</ele><time>2026-04-06T12:21:12.047Z</time></trkpt><trkpt lat="45.7473548" lon="13.6754619"><ele>151.0</ele><time>2026-04-06T12:21:13.051Z</time></trkpt><trkpt lat="45.7474867" lon="13.675295"><ele>150.66666666666669</ele><time>2026-04-06T12:21:14.037Z</time></trkpt><trkpt lat="45.7476183" lon="13.6751305"><ele>150.33333333333334</ele><time>2026-04-06T12:21:15.049Z</time></trkpt><trkpt lat="45.7477477" lon="13.6749629"><ele>150.0</ele><time>2026-04-06T12:21:16.044Z</time></trkpt><trkpt lat="45.7478762" lon="13.6747968"><ele>150.0</ele><time>2026-04-06T12:21:17.035Z</time></trkpt><trkpt lat="45.7480012" lon="13.6746345"><ele>150.0</ele><time>2026-04-06T12:21:18.046Z</time></trkpt><trkpt lat="45.7481266" lon="13.6744747"><ele>150.0</ele><time>2026-04-06T12:21:19.042Z</time></trkpt><trkpt lat="45.7482521" lon="13.6743105"><ele>149.66666666666666</ele><time>2026-04-06T12:21:20.042Z</time></trkpt><trkpt lat="45.7483806" lon="13.6741484"><ele>149.33333333333331</ele><time>2026-04-06T12:21:21.033Z</time></trkpt><trkpt lat="45.7485029" lon="13.6739761"><ele>149.0</ele><time>2026-04-06T12:21:22.045Z</time></trkpt><trkpt lat="45.7486335" lon="13.673812"><ele>147.66666666666666</ele><time>2026-04-06T12:21:23.035Z</time></trkpt><trkpt lat="45.7487634" lon="13.6736463"><ele>146.33333333333334</ele><time>2026-04-06T12:21:24.033Z</time></trkpt><trkpt lat="45.7488938" lon="13.6734805"><ele>145.0</ele><time>2026-04-06T12:21:25.047Z</time></trkpt><trkpt lat="45.7490223" lon="13.6733173"><ele>145.0</ele><time>2026-04-06T12:21:26.036Z</time></trkpt><trkpt lat="45.7491502" lon="13.6731551"><ele>145.0</ele><time>2026-04-06T12:21:27.033Z</time></trkpt><trkpt lat="45.7492809" lon="13.6729997"><ele>145.0</ele><time>2026-04-06T12:21:28.039Z</time></trkpt><trkpt lat="45.7494095" lon="13.6728311"><ele>144.66666666666669</ele><time>2026-04-06T12:21:29.037Z</time></trkpt><trkpt lat="45.7495356" lon="13.6726618"><ele>144.33333333333334</ele><time>2026-04-06T12:21:30.041Z</time></trkpt><trkpt lat="45.7496485" lon="13.6724916"><ele>144.0</ele><time>2026-04-06T12:21:31.04Z</time></trkpt><trkpt lat="45.749748" lon="13.6723284"><ele>144.0</ele><time>2026-04-06T12:21:32.048Z</time></trkpt><trkpt lat="45.7498362" lon="13.6721486"><ele>144.0</ele><time>2026-04-06T12:21:33.034Z</time></trkpt><trkpt lat="45.7499126" lon="13.6719514"><ele>144.0</ele><time>2026-04-06T12:21:34.033Z</time></trkpt><trkpt lat="45.7499821" lon="13.6717447"><ele>144.0</ele><time>2026-04-06T12:21:35.034Z</time></trkpt><trkpt lat="45.7500481" lon="13.6715193"><ele>144.0</ele><time>2026-04-06T12:21:36.021Z</time></trkpt><trkpt lat="45.7501111" lon="13.6712899"><ele>144.0</ele><time>2026-04-06T12:21:37.019Z</time></trkpt><trkpt lat="45.7501699" lon="13.6710552"><ele>142.33333333333334</ele><time>2026-04-06T12:21:38.036Z</time></trkpt><trkpt lat="45.7502409" lon="13.6708284"><ele>140.66666666666669</ele><time>2026-04-06T12:21:39.032Z</time></trkpt><trkpt lat="45.7503173" lon="13.6706064"><ele>139.0</ele><time>2026-04-06T12:21:40.02Z</time></trkpt><trkpt lat="45.750402" lon="13.6703817"><ele>138.66666666666669</ele><time>2026-04-06T12:21:41.031Z</time></trkpt><trkpt lat="45.7504796" lon="13.6701668"><ele>138.33333333333334</ele><time>2026-04-06T12:21:42.018Z</time></trkpt><trkpt lat="45.7505486" lon="13.669958"><ele>138.0</ele><time>2026-04-06T12:21:43.02Z</time></trkpt><trkpt lat="45.7506085" lon="13.6697648"><ele>138.0</ele><time>2026-04-06T12:21:44.021Z</time></trkpt><trkpt lat="45.7506715" lon="13.6695956"><ele>138.0</ele><time>2026-04-06T12:21:45.03Z</time></trkpt><trkpt lat="45.7507405" lon="13.6694442"><ele>138.0</ele><time>2026-04-06T12:21:46.032Z</time></trkpt><trkpt lat="45.7508325" lon="13.6693361"><ele>138.0</ele><time>2026-04-06T12:21:47.027Z</time></trkpt><trkpt lat="45.7509454" lon="13.6692587"><ele>138.75</ele><time>2026-04-06T12:21:48.038Z</time></trkpt><trkpt lat="45.7510655" lon="13.6692158"><ele>139.5</ele><time>2026-04-06T12:21:49.033Z</time></trkpt><trkpt lat="45.7511938" lon="13.6691939"><ele>140.25</ele><time>2026-04-06T12:21:50.026Z</time></trkpt><trkpt lat="45.7513239" lon="13.6691802"><ele>141.0</ele><time>2026-04-06T12:21:51.041Z</time></trkpt><trkpt lat="45.7514654" lon="13.6691862"><ele>141.0</ele><time>2026-04-06T12:21:52.031Z</time></trkpt><trkpt lat="45.7516197" lon="13.6692225"><ele>141.0</ele><time>2026-04-06T12:21:53.053Z</time></trkpt><trkpt lat="45.7517726" lon="13.6692994"><ele>141.0</ele><time>2026-04-06T12:21:54.032Z</time></trkpt><trkpt lat="45.7519222" lon="13.6693921"><ele>140.25</ele><time>2026-04-06T12:21:55.04Z</time></trkpt><trkpt lat="45.7520637" lon="13.6694943"><ele>139.5</ele><time>2026-04-06T12:21:56.032Z</time></trkpt><trkpt lat="45.7521987" lon="13.6695807"><ele>138.75</ele><time>2026-04-06T12:21:57.038Z</time></trkpt><trkpt lat="45.7523239" lon="13.6696552"><ele>138.0</ele><time>2026-04-06T12:21:58.045Z</time></trkpt><trkpt lat="45.7524456" lon="13.6697236"><ele>138.0</ele><time>2026-04-06T12:21:59.039Z</time></trkpt><trkpt lat="45.7525621" lon="13.6697709"><ele>138.0</ele><time>2026-04-06T12:22:00.037Z</time></trkpt><trkpt lat="45.7526825" lon="13.6697782"><ele>138.0</ele><time>2026-04-06T12:22:01.043Z</time></trkpt><trkpt lat="45.7528106" lon="13.669742"><ele>138.0</ele><time>2026-04-06T12:22:02.033Z</time></trkpt><trkpt lat="45.7529265" lon="13.6696539"><ele>138.0</ele><time>2026-04-06T12:22:03.04Z</time></trkpt><trkpt lat="45.7530174" lon="13.6695216"><ele>138.0</ele><time>2026-04-06T12:22:04.03Z</time></trkpt><trkpt lat="45.7530933" lon="13.669368"><ele>138.0</ele><time>2026-04-06T12:22:05.037Z</time></trkpt><trkpt lat="45.7531521" lon="13.6691979"><ele>138.0</ele><time>2026-04-06T12:22:06.039Z</time></trkpt><trkpt lat="45.753208" lon="13.669007"><ele>138.25</ele><time>2026-04-06T12:22:07.04Z</time></trkpt><trkpt lat="45.7532701" lon="13.6688173"><ele>138.5</ele><time>2026-04-06T12:22:08.03Z</time></trkpt><trkpt lat="45.7533373" lon="13.6686567"><ele>138.75</ele><time>2026-04-06T12:22:09.039Z</time></trkpt><trkpt lat="45.753429" lon="13.6685153"><ele>139.0</ele><time>2026-04-06T12:22:10.044Z</time></trkpt><trkpt lat="45.7535453" lon="13.6684184"><ele>136.66666666666669</ele><time>2026-04-06T12:22:11.031Z</time></trkpt><trkpt lat="45.7536733" lon="13.6683163"><ele>134.33333333333334</ele><time>2026-04-06T12:22:12.034Z</time></trkpt><trkpt lat="45.7537984" lon="13.6681962"><ele>132.0</ele><time>2026-04-06T12:22:13.042Z</time></trkpt><trkpt lat="45.7538731" lon="13.6679952"><ele>131.33333333333334</ele><time>2026-04-06T12:22:14.044Z</time></trkpt><trkpt lat="45.7539243" lon="13.667776"><ele>130.66666666666669</ele><time>2026-04-06T12:22:15.036Z</time></trkpt><trkpt lat="45.7539659" lon="13.6675409"><ele>130.0</ele><time>2026-04-06T12:22:16.03Z</time></trkpt><trkpt lat="45.7540066" lon="13.6672976"><ele>130.0</ele><time>2026-04-06T12:22:17.035Z</time></trkpt><trkpt lat="45.7540548" lon="13.6670521"><ele>130.0</ele><time>2026-04-06T12:22:18.03Z</time></trkpt><trkpt lat="45.7541084" lon="13.6668024"><ele>130.0</ele><time>2026-04-06T12:22:19.023Z</time></trkpt><trkpt lat="45.754161" lon="13.6665486"><ele>130.0</ele><time>2026-04-06T12:22:20.024Z</time></trkpt><trkpt lat="45.754213" lon="13.666292"><ele>130.0</ele><time>2026-04-06T12:22:21.032Z</time></trkpt><trkpt lat="45.7542676" lon="13.6660462"><ele>130.0</ele><time>2026-04-06T12:22:22.032Z</time></trkpt><trkpt lat="45.7543142" lon="13.6658125"><ele>130.33333333333334</ele><time>2026-04-06T12:22:23.029Z</time></trkpt><trkpt lat="45.7543476" lon="13.6655833"><ele>130.66666666666666</ele><time>2026-04-06T12:22:24.029Z</time></trkpt><trkpt lat="45.7543683" lon="13.6653495"><ele>131.0</ele><time>2026-04-06T12:22:25.034Z</time></trkpt><trkpt lat="45.7543738" lon="13.6651019"><ele>131.0</ele><time>2026-04-06T12:22:26.033Z</time></trkpt><trkpt lat="45.7543658" lon="13.6648589"><ele>131.0</ele><time>2026-04-06T12:22:27.037Z</time></trkpt><trkpt lat="45.7543496" lon="13.6646167"><ele>131.0</ele><time>2026-04-06T12:22:28.025Z</time></trkpt><trkpt lat="45.7543199" lon="13.6643775"><ele>131.33333333333331</ele><time>2026-04-06T12:22:29.025Z</time></trkpt><trkpt lat="45.7542763" lon="13.6641417"><ele>131.66666666666666</ele><time>2026-04-06T12:22:30.029Z</time></trkpt><trkpt lat="45.7542327" lon="13.6639069"><ele>132.0</ele><time>2026-04-06T12:22:31.029Z</time></trkpt><trkpt lat="45.754191" lon="13.6636904"><ele>131.5</ele><time>2026-04-06T12:22:32.031Z</time></trkpt><trkpt lat="45.7541508" lon="13.6634871"><ele>131.0</ele><time>2026-04-06T12:22:33.036Z</time></trkpt><trkpt lat="45.7541111" lon="13.6632928"><ele>130.5</ele><time>2026-04-06T12:22:34.031Z</time></trkpt><trkpt lat="45.7540756" lon="13.6631121"><ele>130.0</ele><time>2026-04-06T12:22:35.036Z</time></trkpt><trkpt lat="45.7540635" lon="13.6629488"><ele>130.0</ele><time>2026-04-06T12:22:36.044Z</time></trkpt><trkpt lat="45.7540844" lon="13.6628105"><ele>130.0</ele><time>2026-04-06T12:22:37.049Z</time></trkpt><trkpt lat="45.7541407" lon="13.6626937"><ele>130.0</ele><time>2026-04-06T12:22:38.032Z</time></trkpt><trkpt lat="45.754244" lon="13.6625831"><ele>130.0</ele><time>2026-04-06T12:22:39.027Z</time></trkpt><trkpt lat="45.7543567" lon="13.6624737"><ele>127.66666666666667</ele><time>2026-04-06T12:22:40.021Z</time></trkpt><trkpt lat="45.7544779" lon="13.6623588"><ele>125.33333333333334</ele><time>2026-04-06T12:22:41.035Z</time></trkpt><trkpt lat="45.7546041" lon="13.6622336"><ele>123.0</ele><time>2026-04-06T12:22:42.039Z</time></trkpt><trkpt lat="45.7547304" lon="13.6620972"><ele>123.66666666666666</ele><time>2026-04-06T12:22:43.042Z</time></trkpt><trkpt lat="45.75485" lon="13.6619441"><ele>124.33333333333333</ele><time>2026-04-06T12:22:44.041Z</time></trkpt><trkpt lat="45.7549691" lon="13.6617821"><ele>125.0</ele><time>2026-04-06T12:22:45.048Z</time></trkpt><trkpt lat="45.7550881" lon="13.6616082"><ele>124.0</ele><time>2026-04-06T12:22:46.044Z</time></trkpt><trkpt lat="45.7552067" lon="13.6614227"><ele>123.0</ele><time>2026-04-06T12:22:47.031Z</time></trkpt><trkpt lat="45.7553234" lon="13.6612294"><ele>122.0</ele><time>2026-04-06T12:22:48.024Z</time></trkpt><trkpt lat="45.7554392" lon="13.661029"><ele>122.0</ele><time>2026-04-06T12:22:49.037Z</time></trkpt><trkpt lat="45.7555551" lon="13.6608364"><ele>122.0</ele><time>2026-04-06T12:22:50.031Z</time></trkpt><trkpt lat="45.7556631" lon="13.660653"><ele>122.0</ele><time>2026-04-06T12:22:51.042Z</time></trkpt><trkpt lat="45.7557699" lon="13.6604763"><ele>122.0</ele><time>2026-04-06T12:22:52.033Z</time></trkpt><trkpt lat="45.7558797" lon="13.6603157"><ele>122.0</ele><time>2026-04-06T12:22:53.034Z</time></trkpt><trkpt lat="45.7560025" lon="13.6601609"><ele>122.0</ele><time>2026-04-06T12:22:54.04Z</time></trkpt><trkpt lat="45.7561378" lon="13.6600175"><ele>121.33333333333333</ele><time>2026-04-06T12:22:55.04Z</time></trkpt><trkpt lat="45.7562864" lon="13.659891"><ele>120.66666666666666</ele><time>2026-04-06T12:22:56.036Z</time></trkpt><trkpt lat="45.7564435" lon="13.659773"><ele>120.0</ele><time>2026-04-06T12:22:57.033Z</time></trkpt><trkpt lat="45.7566072" lon="13.659646"><ele>120.0</ele><time>2026-04-06T12:22:58.044Z</time></trkpt><trkpt lat="45.7567724" lon="13.6595267"><ele>120.0</ele><time>2026-04-06T12:22:59.051Z</time></trkpt><trkpt lat="45.756939" lon="13.6594057"><ele>120.0</ele><time>2026-04-06T12:23:00.045Z</time></trkpt><trkpt lat="45.7571035" lon="13.6592817"><ele>120.0</ele><time>2026-04-06T12:23:01.043Z</time></trkpt><trkpt lat="45.7572678" lon="13.6591544"><ele>120.0</ele><time>2026-04-06T12:23:02.05Z</time></trkpt><trkpt lat="45.7574306" lon="13.6590295"><ele>120.0</ele><time>2026-04-06T12:23:03.046Z</time></trkpt><trkpt lat="45.7575894" lon="13.6589023"><ele>119.66666666666666</ele><time>2026-04-06T12:23:04.04Z</time></trkpt><trkpt lat="45.7577456" lon="13.6587725"><ele>119.33333333333333</ele><time>2026-04-06T12:23:05.04Z</time></trkpt><trkpt lat="45.7579036" lon="13.6586473"><ele>119.0</ele><time>2026-04-06T12:23:06.039Z</time></trkpt><trkpt lat="45.7580614" lon="13.658522"><ele>119.0</ele><time>2026-04-06T12:23:07.053Z</time></trkpt><trkpt lat="45.7582203" lon="13.658396"><ele>119.0</ele><time>2026-04-06T12:23:08.037Z</time></trkpt><trkpt lat="45.7583759" lon="13.6582665"><ele>119.0</ele><time>2026-04-06T12:23:09.042Z</time></trkpt><trkpt lat="45.7585294" lon="13.6581366"><ele>119.0</ele><time>2026-04-06T12:23:10.044Z</time></trkpt><trkpt lat="45.7586753" lon="13.6579995"><ele>119.0</ele><time>2026-04-06T12:23:11.034Z</time></trkpt><trkpt lat="45.758815" lon="13.6578462"><ele>119.0</ele><time>2026-04-06T12:23:12.045Z</time></trkpt><trkpt lat="45.7589442" lon="13.6576739"><ele>119.0</ele><time>2026-04-06T12:23:13.036Z</time></trkpt><trkpt lat="45.7590662" lon="13.6574873"><ele>119.0</ele><time>2026-04-06T12:23:14.043Z</time></trkpt><trkpt lat="45.7591771" lon="13.6573012"><ele>119.0</ele><time>2026-04-06T12:23:15.036Z</time></trkpt><trkpt lat="45.75928" lon="13.6570989"><ele>119.0</ele><time>2026-04-06T12:23:16.034Z</time></trkpt><trkpt lat="45.7593708" lon="13.6568883"><ele>119.0</ele><time>2026-04-06T12:23:17.042Z</time></trkpt><trkpt lat="45.7594516" lon="13.6566742"><ele>119.0</ele><time>2026-04-06T12:23:18.041Z</time></trkpt><trkpt lat="45.7595317" lon="13.6564524"><ele>119.0</ele><time>2026-04-06T12:23:19.036Z</time></trkpt><trkpt lat="45.7596104" lon="13.6562323"><ele>119.0</ele><time>2026-04-06T12:23:20.043Z</time></trkpt><trkpt lat="45.7596903" lon="13.6560101"><ele>119.0</ele><time>2026-04-06T12:23:21.042Z</time></trkpt><trkpt lat="45.7597757" lon="13.6557877"><ele>117.66666666666666</ele><time>2026-04-06T12:23:22.061Z</time></trkpt><trkpt lat="45.7598568" lon="13.6555604"><ele>116.33333333333334</ele><time>2026-04-06T12:23:23.036Z</time></trkpt><trkpt lat="45.7599406" lon="13.6553377"><ele>115.0</ele><time>2026-04-06T12:23:24.045Z</time></trkpt><trkpt lat="45.760023" lon="13.6551127"><ele>115.0</ele><time>2026-04-06T12:23:25.036Z</time></trkpt><trkpt lat="45.760106" lon="13.654887"><ele>115.0</ele><time>2026-04-06T12:23:26.034Z</time></trkpt><trkpt lat="45.7601888" lon="13.6546587"><ele>115.0</ele><time>2026-04-06T12:23:27.04Z</time></trkpt><trkpt lat="45.7602748" lon="13.654431"><ele>116.66666666666667</ele><time>2026-04-06T12:23:28.042Z</time></trkpt><trkpt lat="45.7603668" lon="13.6542071"><ele>118.33333333333334</ele><time>2026-04-06T12:23:29.049Z</time></trkpt><trkpt lat="45.7604657" lon="13.6539891"><ele>120.0</ele><time>2026-04-06T12:23:30.04Z</time></trkpt><trkpt lat="45.7605722" lon="13.6537796"><ele>118.66666666666666</ele><time>2026-04-06T12:23:31.037Z</time></trkpt><trkpt lat="45.7606863" lon="13.6535768"><ele>117.33333333333333</ele><time>2026-04-06T12:23:32.033Z</time></trkpt><trkpt lat="45.7608069" lon="13.6533845"><ele>116.0</ele><time>2026-04-06T12:23:33.034Z</time></trkpt><trkpt lat="45.7609336" lon="13.6532024"><ele>116.0</ele><time>2026-04-06T12:23:34.027Z</time></trkpt><trkpt lat="45.7610625" lon="13.6530234"><ele>116.0</ele><time>2026-04-06T12:23:35.026Z</time></trkpt><trkpt lat="45.7611934" lon="13.652844"><ele>116.0</ele><time>2026-04-06T12:23:36.025Z</time></trkpt><trkpt lat="45.761324" lon="13.652661"><ele>116.0</ele><time>2026-04-06T12:23:37.032Z</time></trkpt><trkpt lat="45.7614529" lon="13.6524805"><ele>116.0</ele><time>2026-04-06T12:23:38.021Z</time></trkpt><trkpt lat="45.7615814" lon="13.6522978"><ele>116.0</ele><time>2026-04-06T12:23:39.032Z</time></trkpt><trkpt lat="45.7617097" lon="13.6521162"><ele>116.0</ele><time>2026-04-06T12:23:40.035Z</time></trkpt><trkpt lat="45.7618363" lon="13.6519282"><ele>116.0</ele><time>2026-04-06T12:23:41.036Z</time></trkpt><trkpt lat="45.761962" lon="13.6517415"><ele>116.0</ele><time>2026-04-06T12:23:42.038Z</time></trkpt><trkpt lat="45.7620892" lon="13.6515509"><ele>116.0</ele><time>2026-04-06T12:23:43.035Z</time></trkpt><trkpt lat="45.7622153" lon="13.6513615"><ele>116.0</ele><time>2026-04-06T12:23:44.037Z</time></trkpt><trkpt lat="45.7623388" lon="13.6511693"><ele>116.0</ele><time>2026-04-06T12:23:45.03Z</time></trkpt><trkpt lat="45.762461" lon="13.650976"><ele>116.0</ele><time>2026-04-06T12:23:46.023Z</time></trkpt><trkpt lat="45.7625829" lon="13.6507838"><ele>116.0</ele><time>2026-04-06T12:23:47.031Z</time></trkpt><trkpt lat="45.7627041" lon="13.6505956"><ele>116.0</ele><time>2026-04-06T12:23:48.036Z</time></trkpt><trkpt lat="45.7628281" lon="13.6504066"><ele>114.33333333333333</ele><time>2026-04-06T12:23:49.033Z</time></trkpt><trkpt lat="45.762957" lon="13.6502192"><ele>112.66666666666666</ele><time>2026-04-06T12:23:50.045Z</time></trkpt><trkpt lat="45.7630827" lon="13.6500337"><ele>111.0</ele><time>2026-04-06T12:23:51.029Z</time></trkpt><trkpt lat="45.7632049" lon="13.6498525"><ele>111.0</ele><time>2026-04-06T12:23:52.034Z</time></trkpt><trkpt lat="45.763327" lon="13.6496681"><ele>111.0</ele><time>2026-04-06T12:23:53.038Z</time></trkpt><trkpt lat="45.7634479" lon="13.6494847"><ele>111.0</ele><time>2026-04-06T12:23:54.035Z</time></trkpt><trkpt lat="45.76357" lon="13.6493047"><ele>109.0</ele><time>2026-04-06T12:23:55.033Z</time></trkpt><trkpt lat="45.7636941" lon="13.6491226"><ele>107.0</ele><time>2026-04-06T12:23:56.034Z</time></trkpt><trkpt lat="45.7638196" lon="13.6489363"><ele>105.0</ele><time>2026-04-06T12:23:57.035Z</time></trkpt><trkpt lat="45.7639447" lon="13.6487424"><ele>104.33333333333334</ele><time>2026-04-06T12:23:58.033Z</time></trkpt><trkpt lat="45.7640722" lon="13.6485479"><ele>103.66666666666667</ele><time>2026-04-06T12:23:59.035Z</time></trkpt><trkpt lat="45.7642007" lon="13.6483566"><ele>103.0</ele><time>2026-04-06T12:24:00.04Z</time></trkpt><trkpt lat="45.7643312" lon="13.6481639"><ele>103.33333333333334</ele><time>2026-04-06T12:24:01.031Z</time></trkpt><trkpt lat="45.7644593" lon="13.6479678"><ele>103.66666666666666</ele><time>2026-04-06T12:24:02.033Z</time></trkpt><trkpt lat="45.7645857" lon="13.6477798"><ele>104.0</ele><time>2026-04-06T12:24:03.038Z</time></trkpt><trkpt lat="45.7647071" lon="13.647598"><ele>103.0</ele><time>2026-04-06T12:24:04.036Z</time></trkpt><trkpt lat="45.764829" lon="13.6474186"><ele>102.0</ele><time>2026-04-06T12:24:05.028Z</time></trkpt><trkpt lat="45.7649434" lon="13.6472474"><ele>101.0</ele><time>2026-04-06T12:24:06.029Z</time></trkpt><trkpt lat="45.7650578" lon="13.6470772"><ele>100.66666666666666</ele><time>2026-04-06T12:24:07.044Z</time></trkpt><trkpt lat="45.7651774" lon="13.6469028"><ele>100.33333333333334</ele><time>2026-04-06T12:24:08.044Z</time></trkpt><trkpt lat="45.7652949" lon="13.646732"><ele>100.0</ele><time>2026-04-06T12:24:09.034Z</time></trkpt><trkpt lat="45.7654022" lon="13.646572"><ele>99.66666666666667</ele><time>2026-04-06T12:24:10.024Z</time></trkpt><trkpt lat="45.7655079" lon="13.646416"><ele>99.33333333333334</ele><time>2026-04-06T12:24:11.042Z</time></trkpt><trkpt lat="45.7656105" lon="13.6462619"><ele>99.0</ele><time>2026-04-06T12:24:12.038Z</time></trkpt><trkpt lat="45.7657153" lon="13.6461048"><ele>98.0</ele><time>2026-04-06T12:24:13.031Z</time></trkpt><trkpt lat="45.765818" lon="13.6459415"><ele>97.0</ele><time>2026-04-06T12:24:14.022Z</time></trkpt><trkpt lat="45.7659197" lon="13.6457783"><ele>96.0</ele><time>2026-04-06T12:24:15.039Z</time></trkpt><trkpt lat="45.7660166" lon="13.6456299"><ele>95.0</ele><time>2026-04-06T12:24:16.031Z</time></trkpt><trkpt lat="45.7661049" lon="13.6454888"><ele>94.6</ele><time>2026-04-06T12:24:17.031Z</time></trkpt><trkpt lat="45.7661901" lon="13.6453558"><ele>94.2</ele><time>2026-04-06T12:24:18.046Z</time></trkpt><trkpt lat="45.7662697" lon="13.6452317"><ele>93.80000000000001</ele><time>2026-04-06T12:24:19.021Z</time></trkpt><trkpt lat="45.7663362" lon="13.6451469"><ele>93.4</ele><time>2026-04-06T12:24:20.027Z</time></trkpt><trkpt lat="45.766392" lon="13.6450731"><ele>93.0</ele><time>2026-04-06T12:24:21.019Z</time></trkpt><trkpt lat="45.7664462" lon="13.6449929"><ele>93.0</ele><time>2026-04-06T12:24:22.029Z</time></trkpt><trkpt lat="45.7665024" lon="13.6449035"><ele>93.0</ele><time>2026-04-06T12:24:23.024Z</time></trkpt><trkpt lat="45.7665675" lon="13.6447988"><ele>93.0</ele><time>2026-04-06T12:24:24.038Z</time></trkpt><trkpt lat="45.766639" lon="13.6446811"><ele>93.0</ele><time>2026-04-06T12:24:25.031Z</time></trkpt><trkpt lat="45.7667196" lon="13.6445631"><ele>93.0</ele><time>2026-04-06T12:24:26.03Z</time></trkpt><trkpt lat="45.7668099" lon="13.644431"><ele>92.33333333333333</ele><time>2026-04-06T12:24:27.037Z</time></trkpt><trkpt lat="45.7668962" lon="13.6442808"><ele>91.66666666666666</ele><time>2026-04-06T12:24:28.038Z</time></trkpt><trkpt lat="45.766988" lon="13.6441131"><ele>91.0</ele><time>2026-04-06T12:24:29.043Z</time></trkpt><trkpt lat="45.7670991" lon="13.6439361"><ele>91.0</ele><time>2026-04-06T12:24:30.048Z</time></trkpt><trkpt lat="45.7672291" lon="13.6437604"><ele>91.0</ele><time>2026-04-06T12:24:31.037Z</time></trkpt><trkpt lat="45.7673618" lon="13.6435807"><ele>91.0</ele><time>2026-04-06T12:24:32.038Z</time></trkpt><trkpt lat="45.7674935" lon="13.643396"><ele>91.33333333333333</ele><time>2026-04-06T12:24:33.037Z</time></trkpt><trkpt lat="45.7676263" lon="13.6432071"><ele>91.66666666666667</ele><time>2026-04-06T12:24:34.036Z</time></trkpt><trkpt lat="45.7677578" lon="13.6430126"><ele>92.0</ele><time>2026-04-06T12:24:35.049Z</time></trkpt><trkpt lat="45.7678885" lon="13.6428184"><ele>91.33333333333334</ele><time>2026-04-06T12:24:36.03Z</time></trkpt><trkpt lat="45.7680141" lon="13.6426221"><ele>90.66666666666667</ele><time>2026-04-06T12:24:37.032Z</time></trkpt><trkpt lat="45.7681397" lon="13.6424304"><ele>90.0</ele><time>2026-04-06T12:24:38.03Z</time></trkpt><trkpt lat="45.7682683" lon="13.6422424"><ele>90.0</ele><time>2026-04-06T12:24:39.03Z</time></trkpt><trkpt lat="45.7683957" lon="13.642054"><ele>90.0</ele><time>2026-04-06T12:24:40.028Z</time></trkpt><trkpt lat="45.7685214" lon="13.6418685"><ele>90.0</ele><time>2026-04-06T12:24:41.046Z</time></trkpt><trkpt lat="45.7686464" lon="13.6416854"><ele>88.66666666666667</ele><time>2026-04-06T12:24:42.036Z</time></trkpt><trkpt lat="45.768768" lon="13.6415053"><ele>87.33333333333334</ele><time>2026-04-06T12:24:43.033Z</time></trkpt><trkpt lat="45.7688824" lon="13.6413346"><ele>86.0</ele><time>2026-04-06T12:24:44.031Z</time></trkpt><trkpt lat="45.7689919" lon="13.6411677"><ele>85.5</ele><time>2026-04-06T12:24:45.034Z</time></trkpt><trkpt lat="45.7690923" lon="13.6410136"><ele>85.0</ele><time>2026-04-06T12:24:46.04Z</time></trkpt><trkpt lat="45.7691955" lon="13.6408632"><ele>84.5</ele><time>2026-04-06T12:24:47.034Z</time></trkpt><trkpt lat="45.7692961" lon="13.6407125"><ele>84.0</ele><time>2026-04-06T12:24:48.035Z</time></trkpt><trkpt lat="45.7694027" lon="13.6405542"><ele>83.25</ele><time>2026-04-06T12:24:49.04Z</time></trkpt><trkpt lat="45.76951" lon="13.6403996"><ele>82.5</ele><time>2026-04-06T12:24:50.022Z</time></trkpt><trkpt lat="45.7696093" lon="13.6402512"><ele>81.75</ele><time>2026-04-06T12:24:51.023Z</time></trkpt><trkpt lat="45.7696991" lon="13.6401043"><ele>81.0</ele><time>2026-04-06T12:24:52.02Z</time></trkpt><trkpt lat="45.7697911" lon="13.6399661"><ele>81.0</ele><time>2026-04-06T12:24:53.038Z</time></trkpt><trkpt lat="45.7698799" lon="13.6398314"><ele>81.0</ele><time>2026-04-06T12:24:54.022Z</time></trkpt><trkpt lat="45.7699614" lon="13.6397003"><ele>81.0</ele><time>2026-04-06T12:24:55.03Z</time></trkpt><trkpt lat="45.7700291" lon="13.639596"><ele>81.0</ele><time>2026-04-06T12:24:56.028Z</time></trkpt><trkpt lat="45.7700885" lon="13.6394963"><ele>81.0</ele><time>2026-04-06T12:24:57.035Z</time></trkpt><trkpt lat="45.7701452" lon="13.6393984"><ele>80.5</ele><time>2026-04-06T12:24:58.031Z</time></trkpt><trkpt lat="45.7701975" lon="13.6393047"><ele>80.0</ele><time>2026-04-06T12:24:59.037Z</time></trkpt><trkpt lat="45.7702723" lon="13.6391964"><ele>79.5</ele><time>2026-04-06T12:25:01.033Z</time></trkpt><trkpt lat="45.7703278" lon="13.6391465"><ele>79.0</ele><time>2026-04-06T12:25:02.019Z</time></trkpt><trkpt lat="45.7703912" lon="13.6391008"><ele>78.5</ele><time>2026-04-06T12:25:03.028Z</time></trkpt><trkpt lat="45.7704553" lon="13.6390493"><ele>78.0</ele><time>2026-04-06T12:25:04.02Z</time></trkpt><trkpt lat="45.770512" lon="13.6389887"><ele>78.0</ele><time>2026-04-06T12:25:05.028Z</time></trkpt><trkpt lat="45.7705586" lon="13.6388999"><ele>78.0</ele><time>2026-04-06T12:25:06.023Z</time></trkpt><trkpt lat="45.7706024" lon="13.6387998"><ele>78.0</ele><time>2026-04-06T12:25:07.024Z</time></trkpt><trkpt lat="45.7706428" lon="13.6386951"><ele>78.0</ele><time>2026-04-06T12:25:08.031Z</time></trkpt><trkpt lat="45.7706892" lon="13.6385847"><ele>78.0</ele><time>2026-04-06T12:25:09.042Z</time></trkpt><trkpt lat="45.770754" lon="13.638464"><ele>78.0</ele><time>2026-04-06T12:25:10.032Z</time></trkpt><trkpt lat="45.770842" lon="13.6383365"><ele>78.25</ele><time>2026-04-06T12:25:11.043Z</time></trkpt><trkpt lat="45.7709354" lon="13.6382019"><ele>78.5</ele><time>2026-04-06T12:25:12.029Z</time></trkpt><trkpt lat="45.7710257" lon="13.6380708"><ele>78.75</ele><time>2026-04-06T12:25:13.027Z</time></trkpt><trkpt lat="45.7711063" lon="13.6379487"><ele>79.0</ele><time>2026-04-06T12:25:14.026Z</time></trkpt><trkpt lat="45.7711812" lon="13.637833"><ele>78.2</ele><time>2026-04-06T12:25:15.028Z</time></trkpt><trkpt lat="45.7712508" lon="13.6377261"><ele>77.4</ele><time>2026-04-06T12:25:16.018Z</time></trkpt><trkpt lat="45.7713135" lon="13.6376271"><ele>76.6</ele><time>2026-04-06T12:25:17.014Z</time></trkpt><trkpt lat="45.7713765" lon="13.6375285"><ele>75.8</ele><time>2026-04-06T12:25:18.021Z</time></trkpt><trkpt lat="45.7714356" lon="13.6374354"><ele>75.0</ele><time>2026-04-06T12:25:19.019Z</time></trkpt><trkpt lat="45.7714921" lon="13.6373419"><ele>75.0</ele><time>2026-04-06T12:25:20.031Z</time></trkpt><trkpt lat="45.7715492" lon="13.6372432"><ele>75.0</ele><time>2026-04-06T12:25:21.025Z</time></trkpt><trkpt lat="45.7716114" lon="13.6371267"><ele>75.0</ele><time>2026-04-06T12:25:22.019Z</time></trkpt><trkpt lat="45.7716847" lon="13.6370165"><ele>75.0</ele><time>2026-04-06T12:25:23.025Z</time></trkpt><trkpt lat="45.7717522" lon="13.6369143"><ele>75.0</ele><time>2026-04-06T12:25:24.018Z</time></trkpt><trkpt lat="45.7718134" lon="13.6368172"><ele>75.28571428571428</ele><time>2026-04-06T12:25:25.018Z</time></trkpt><trkpt lat="45.7718643" lon="13.6367406"><ele>75.57142857142857</ele><time>2026-04-06T12:25:26.021Z</time></trkpt><trkpt lat="45.7719075" lon="13.6366733"><ele>75.85714285714286</ele><time>2026-04-06T12:25:27.019Z</time></trkpt><trkpt lat="45.7719525" lon="13.6366033"><ele>76.14285714285714</ele><time>2026-04-06T12:25:28.017Z</time></trkpt><trkpt lat="45.7720004" lon="13.6365267"><ele>76.42857142857143</ele><time>2026-04-06T12:25:29.015Z</time></trkpt><trkpt lat="45.7720464" lon="13.6364516"><ele>76.71428571428571</ele><time>2026-04-06T12:25:30.029Z</time></trkpt><trkpt lat="45.7720884" lon="13.6363722"><ele>77.0</ele><time>2026-04-06T12:25:31.022Z</time></trkpt><trkpt lat="45.7721283" lon="13.6362909"><ele>77.0</ele><time>2026-04-06T12:25:32.024Z</time></trkpt><trkpt lat="45.7721663" lon="13.6362067"><ele>77.0</ele><time>2026-04-06T12:25:33.024Z</time></trkpt><trkpt lat="45.7722055" lon="13.6361245"><ele>77.0</ele><time>2026-04-06T12:25:34.021Z</time></trkpt><trkpt lat="45.7722457" lon="13.6360427"><ele>77.0</ele><time>2026-04-06T12:25:35.031Z</time></trkpt><trkpt lat="45.7722893" lon="13.6359537"><ele>77.0</ele><time>2026-04-06T12:25:36.026Z</time></trkpt><trkpt lat="45.7723368" lon="13.635849"><ele>77.0</ele><time>2026-04-06T12:25:37.019Z</time></trkpt><trkpt lat="45.7723902" lon="13.6357301"><ele>77.2</ele><time>2026-04-06T12:25:38.016Z</time></trkpt><trkpt lat="45.7724464" lon="13.6356108"><ele>77.4</ele><time>2026-04-06T12:25:39.025Z</time></trkpt><trkpt lat="45.772508" lon="13.6354921"><ele>77.6</ele><time>2026-04-06T12:25:40.028Z</time></trkpt><trkpt lat="45.7725747" lon="13.6353773"><ele>77.8</ele><time>2026-04-06T12:25:41.025Z</time></trkpt><trkpt lat="45.7726489" lon="13.6352724"><ele>78.0</ele><time>2026-04-06T12:25:42.025Z</time></trkpt><trkpt lat="45.7727327" lon="13.6351814"><ele>78.0</ele><time>2026-04-06T12:25:43.04Z</time></trkpt><trkpt lat="45.7728134" lon="13.635097"><ele>78.0</ele><time>2026-04-06T12:25:44.026Z</time></trkpt><trkpt lat="45.7728904" lon="13.635015"><ele>78.0</ele><time>2026-04-06T12:25:45.021Z</time></trkpt><trkpt lat="45.7729707" lon="13.6349348"><ele>78.0</ele><time>2026-04-06T12:25:46.015Z</time></trkpt><trkpt lat="45.7730498" lon="13.6348555"><ele>78.0</ele><time>2026-04-06T12:25:47.016Z</time></trkpt><trkpt lat="45.7731273" lon="13.6347693"><ele>78.0</ele><time>2026-04-06T12:25:48.011Z</time></trkpt><trkpt lat="45.7732073" lon="13.6346732"><ele>78.0</ele><time>2026-04-06T12:25:49.016Z</time></trkpt><trkpt lat="45.7732885" lon="13.6345761"><ele>78.0</ele><time>2026-04-06T12:25:50.024Z</time></trkpt><trkpt lat="45.7733723" lon="13.6344748"><ele>78.0</ele><time>2026-04-06T12:25:51.021Z</time></trkpt><trkpt lat="45.7734499" lon="13.6343778"><ele>78.0</ele><time>2026-04-06T12:25:52.021Z</time></trkpt><trkpt lat="45.7735205" lon="13.6342822"><ele>77.4</ele><time>2026-04-06T12:25:53.015Z</time></trkpt><trkpt lat="45.7735795" lon="13.6341863"><ele>76.8</ele><time>2026-04-06T12:25:54.018Z</time></trkpt><trkpt lat="45.7736253" lon="13.6340782"><ele>76.2</ele><time>2026-04-06T12:25:55.035Z</time></trkpt><trkpt lat="45.7736598" lon="13.6339553"><ele>75.6</ele><time>2026-04-06T12:25:56.02Z</time></trkpt><trkpt lat="45.7736905" lon="13.6338273"><ele>75.0</ele><time>2026-04-06T12:25:57.018Z</time></trkpt><trkpt lat="45.7737109" lon="13.6336949"><ele>74.8</ele><time>2026-04-06T12:25:58.02Z</time></trkpt><trkpt lat="45.7737196" lon="13.633553"><ele>74.6</ele><time>2026-04-06T12:25:59.017Z</time></trkpt><trkpt lat="45.773719" lon="13.6334094"><ele>74.4</ele><time>2026-04-06T12:26:00.026Z</time></trkpt><trkpt lat="45.7737059" lon="13.6332665"><ele>74.2</ele><time>2026-04-06T12:26:01.023Z</time></trkpt><trkpt lat="45.7736912" lon="13.6331138"><ele>74.0</ele><time>2026-04-06T12:26:02.021Z</time></trkpt><trkpt lat="45.773672" lon="13.6329575"><ele>73.60000000000001</ele><time>2026-04-06T12:26:03.026Z</time></trkpt><trkpt lat="45.7736524" lon="13.6328053"><ele>73.2</ele><time>2026-04-06T12:26:04.021Z</time></trkpt><trkpt lat="45.773629" lon="13.632653"><ele>72.80000000000001</ele><time>2026-04-06T12:26:05.019Z</time></trkpt><trkpt lat="45.7736045" lon="13.632494"><ele>72.4</ele><time>2026-04-06T12:26:06.023Z</time></trkpt><trkpt lat="45.7735798" lon="13.63233"><ele>72.0</ele><time>2026-04-06T12:26:07.02Z</time></trkpt><trkpt lat="45.7735512" lon="13.6321666"><ele>72.0</ele><time>2026-04-06T12:26:08.017Z</time></trkpt><trkpt lat="45.7735255" lon="13.6320039"><ele>72.0</ele><time>2026-04-06T12:26:09.036Z</time></trkpt><trkpt lat="45.7734979" lon="13.6318398"><ele>72.0</ele><time>2026-04-06T12:26:10.022Z</time></trkpt><trkpt lat="45.7734735" lon="13.6316749"><ele>72.0</ele><time>2026-04-06T12:26:11.015Z</time></trkpt><trkpt lat="45.7734488" lon="13.631513"><ele>70.75</ele><time>2026-04-06T12:26:12.026Z</time></trkpt><trkpt lat="45.7734236" lon="13.631355"><ele>69.5</ele><time>2026-04-06T12:26:13.029Z</time></trkpt><trkpt lat="45.7733968" lon="13.6311879"><ele>68.25</ele><time>2026-04-06T12:26:14.027Z</time></trkpt><trkpt lat="45.7733671" lon="13.6310152"><ele>67.0</ele><time>2026-04-06T12:26:15.039Z</time></trkpt><trkpt lat="45.7733351" lon="13.6308473"><ele>67.0</ele><time>2026-04-06T12:26:16.037Z</time></trkpt><trkpt lat="45.7733086" lon="13.6306839"><ele>67.0</ele><time>2026-04-06T12:26:17.039Z</time></trkpt><trkpt lat="45.7732826" lon="13.6305194"><ele>67.0</ele><time>2026-04-06T12:26:18.021Z</time></trkpt><trkpt lat="45.7732591" lon="13.6303573"><ele>67.0</ele><time>2026-04-06T12:26:19.037Z</time></trkpt><trkpt lat="45.7732358" lon="13.6301945"><ele>66.5</ele><time>2026-04-06T12:26:20.018Z</time></trkpt><trkpt lat="45.77321" lon="13.6300238"><ele>66.0</ele><time>2026-04-06T12:26:21.028Z</time></trkpt><trkpt lat="45.7731866" lon="13.6298569"><ele>65.5</ele><time>2026-04-06T12:26:22.02Z</time></trkpt><trkpt lat="45.773162" lon="13.6296934"><ele>65.0</ele><time>2026-04-06T12:26:23.03Z</time></trkpt><trkpt lat="45.7731356" lon="13.6295184"><ele>64.5</ele><time>2026-04-06T12:26:24.025Z</time></trkpt><trkpt lat="45.7731076" lon="13.6293426"><ele>64.0</ele><time>2026-04-06T12:26:25.039Z</time></trkpt><trkpt lat="45.7730769" lon="13.6291632"><ele>63.5</ele><time>2026-04-06T12:26:26.029Z</time></trkpt><trkpt lat="45.7730515" lon="13.6289946"><ele>63.0</ele><time>2026-04-06T12:26:27.038Z</time></trkpt><trkpt lat="45.7730325" lon="13.6288295"><ele>63.0</ele><time>2026-04-06T12:26:28.029Z</time></trkpt><trkpt lat="45.7730132" lon="13.6286588"><ele>63.0</ele><time>2026-04-06T12:26:29.032Z</time></trkpt><trkpt lat="45.7729906" lon="13.6284799"><ele>63.0</ele><time>2026-04-06T12:26:30.026Z</time></trkpt><trkpt lat="45.7729653" lon="13.6282944"><ele>63.0</ele><time>2026-04-06T12:26:31.038Z</time></trkpt><trkpt lat="45.7729415" lon="13.6281007"><ele>62.0</ele><time>2026-04-06T12:26:32.032Z</time></trkpt><trkpt lat="45.7729194" lon="13.6279096"><ele>61.0</ele><time>2026-04-06T12:26:33.035Z</time></trkpt><trkpt lat="45.7728942" lon="13.6277168"><ele>60.0</ele><time>2026-04-06T12:26:34.029Z</time></trkpt><trkpt lat="45.7728682" lon="13.6275117"><ele>59.0</ele><time>2026-04-06T12:26:35.034Z</time></trkpt><trkpt lat="45.7728405" lon="13.6272958"><ele>58.333333333333336</ele><time>2026-04-06T12:26:36.031Z</time></trkpt><trkpt lat="45.7728175" lon="13.6270744"><ele>57.66666666666667</ele><time>2026-04-06T12:26:37.03Z</time></trkpt><trkpt lat="45.7728101" lon="13.626854"><ele>57.0</ele><time>2026-04-06T12:26:38.038Z</time></trkpt><trkpt lat="45.7728125" lon="13.6266375"><ele>57.0</ele><time>2026-04-06T12:26:39.038Z</time></trkpt><trkpt lat="45.7728185" lon="13.626418"><ele>57.0</ele><time>2026-04-06T12:26:40.025Z</time></trkpt><trkpt lat="45.772828" lon="13.6261929"><ele>57.0</ele><time>2026-04-06T12:26:41.035Z</time></trkpt><trkpt lat="45.7728463" lon="13.6259628"><ele>58.33333333333333</ele><time>2026-04-06T12:26:42.027Z</time></trkpt><trkpt lat="45.7728712" lon="13.6257379"><ele>59.666666666666664</ele><time>2026-04-06T12:26:43.03Z</time></trkpt><trkpt lat="45.7728994" lon="13.6255123"><ele>61.0</ele><time>2026-04-06T12:26:44.021Z</time></trkpt><trkpt lat="45.7729258" lon="13.6252806"><ele>61.33333333333333</ele><time>2026-04-06T12:26:45.031Z</time></trkpt><trkpt lat="45.7729499" lon="13.6250547"><ele>61.66666666666667</ele><time>2026-04-06T12:26:46.03Z</time></trkpt><trkpt lat="45.7729764" lon="13.6248313"><ele>62.0</ele><time>2026-04-06T12:26:47.037Z</time></trkpt><trkpt lat="45.7730044" lon="13.6246156"><ele>62.0</ele><time>2026-04-06T12:26:48.036Z</time></trkpt><trkpt lat="45.7730279" lon="13.6244012"><ele>62.0</ele><time>2026-04-06T12:26:49.047Z</time></trkpt><trkpt lat="45.7730507" lon="13.6241752"><ele>62.0</ele><time>2026-04-06T12:26:50.042Z</time></trkpt><trkpt lat="45.7730767" lon="13.6239442"><ele>62.0</ele><time>2026-04-06T12:26:51.031Z</time></trkpt><trkpt lat="45.7731048" lon="13.6237067"><ele>62.0</ele><time>2026-04-06T12:26:52.041Z</time></trkpt><trkpt lat="45.7731279" lon="13.6234677"><ele>62.0</ele><time>2026-04-06T12:26:53.032Z</time></trkpt><trkpt lat="45.7731449" lon="13.6232247"><ele>61.66666666666667</ele><time>2026-04-06T12:26:54.027Z</time></trkpt><trkpt lat="45.7731567" lon="13.6229828"><ele>61.33333333333333</ele><time>2026-04-06T12:26:55.03Z</time></trkpt><trkpt lat="45.7731694" lon="13.6227357"><ele>61.0</ele><time>2026-04-06T12:26:56.032Z</time></trkpt><trkpt lat="45.7731858" lon="13.6224829"><ele>61.0</ele><time>2026-04-06T12:26:57.029Z</time></trkpt><trkpt lat="45.7732106" lon="13.6222242"><ele>61.0</ele><time>2026-04-06T12:26:58.026Z</time></trkpt><trkpt lat="45.7732402" lon="13.6219624"><ele>61.0</ele><time>2026-04-06T12:26:59.034Z</time></trkpt><trkpt lat="45.7732703" lon="13.6217037"><ele>61.0</ele><time>2026-04-06T12:27:00.027Z</time></trkpt><trkpt lat="45.7732991" lon="13.6214439"><ele>61.0</ele><time>2026-04-06T12:27:01.038Z</time></trkpt><trkpt lat="45.7733231" lon="13.6211858"><ele>61.0</ele><time>2026-04-06T12:27:02.022Z</time></trkpt><trkpt lat="45.7733428" lon="13.6209216"><ele>61.0</ele><time>2026-04-06T12:27:03.029Z</time></trkpt><trkpt lat="45.7733625" lon="13.6206551"><ele>61.0</ele><time>2026-04-06T12:27:04.02Z</time></trkpt><trkpt lat="45.7733812" lon="13.6203912"><ele>61.0</ele><time>2026-04-06T12:27:05.021Z</time></trkpt><trkpt lat="45.773397" lon="13.620134"><ele>61.33333333333333</ele><time>2026-04-06T12:27:06.025Z</time></trkpt><trkpt lat="45.7734135" lon="13.6198809"><ele>61.66666666666667</ele><time>2026-04-06T12:27:07.039Z</time></trkpt><trkpt lat="45.7734311" lon="13.6196323"><ele>62.0</ele><time>2026-04-06T12:27:08.026Z</time></trkpt><trkpt lat="45.773449" lon="13.6193944"><ele>60.333333333333336</ele><time>2026-04-06T12:27:09.04Z</time></trkpt><trkpt lat="45.7734636" lon="13.6191699"><ele>58.66666666666667</ele><time>2026-04-06T12:27:10.022Z</time></trkpt><trkpt lat="45.7734798" lon="13.61896"><ele>57.0</ele><time>2026-04-06T12:27:11.031Z</time></trkpt><trkpt lat="45.7734928" lon="13.6187498"><ele>57.25</ele><time>2026-04-06T12:27:12.022Z</time></trkpt><trkpt lat="45.7735066" lon="13.6185349"><ele>57.5</ele><time>2026-04-06T12:27:13.028Z</time></trkpt><trkpt lat="45.7735218" lon="13.6183254"><ele>57.75</ele><time>2026-04-06T12:27:14.025Z</time></trkpt><trkpt lat="45.7735382" lon="13.6181176"><ele>58.0</ele><time>2026-04-06T12:27:15.034Z</time></trkpt><trkpt lat="45.7735517" lon="13.6179126"><ele>57.75</ele><time>2026-04-06T12:27:16.05Z</time></trkpt><trkpt lat="45.7735668" lon="13.6177133"><ele>57.5</ele><time>2026-04-06T12:27:17.038Z</time></trkpt><trkpt lat="45.7735807" lon="13.6175181"><ele>57.25</ele><time>2026-04-06T12:27:18.036Z</time></trkpt><trkpt lat="45.7735992" lon="13.6173236"><ele>57.0</ele><time>2026-04-06T12:27:19.038Z</time></trkpt><trkpt lat="45.7736321" lon="13.6171289"><ele>57.75</ele><time>2026-04-06T12:27:20.027Z</time></trkpt><trkpt lat="45.7736826" lon="13.6169414"><ele>58.5</ele><time>2026-04-06T12:27:21.041Z</time></trkpt><trkpt lat="45.7737417" lon="13.6167682"><ele>59.25</ele><time>2026-04-06T12:27:22.03Z</time></trkpt><trkpt lat="45.7738057" lon="13.6166009"><ele>60.0</ele><time>2026-04-06T12:27:23.028Z</time></trkpt><trkpt lat="45.7738735" lon="13.6164279"><ele>60.0</ele><time>2026-04-06T12:27:24.032Z</time></trkpt><trkpt lat="45.7739494" lon="13.616247"><ele>60.0</ele><time>2026-04-06T12:27:25.032Z</time></trkpt><trkpt lat="45.7740292" lon="13.6160548"><ele>60.0</ele><time>2026-04-06T12:27:26.027Z</time></trkpt><trkpt lat="45.7741115" lon="13.6158589"><ele>60.66666666666667</ele><time>2026-04-06T12:27:27.015Z</time></trkpt><trkpt lat="45.7741902" lon="13.6156661"><ele>61.333333333333336</ele><time>2026-04-06T12:27:28.015Z</time></trkpt><trkpt lat="45.7742631" lon="13.6154705"><ele>62.0</ele><time>2026-04-06T12:27:29.02Z</time></trkpt><trkpt lat="45.7743349" lon="13.6152727"><ele>61.5</ele><time>2026-04-06T12:27:30.017Z</time></trkpt><trkpt lat="45.774407" lon="13.6150737"><ele>61.0</ele><time>2026-04-06T12:27:31.014Z</time></trkpt><trkpt lat="45.7744713" lon="13.6148858"><ele>60.5</ele><time>2026-04-06T12:27:32.027Z</time></trkpt><trkpt lat="45.7745274" lon="13.6147111"><ele>60.0</ele><time>2026-04-06T12:27:33.022Z</time></trkpt><trkpt lat="45.7745715" lon="13.6145532"><ele>60.0</ele><time>2026-04-06T12:27:34.029Z</time></trkpt><trkpt lat="45.7746075" lon="13.6144086"><ele>60.0</ele><time>2026-04-06T12:27:35.016Z</time></trkpt><trkpt lat="45.7746434" lon="13.6142522"><ele>60.0</ele><time>2026-04-06T12:27:36.021Z</time></trkpt><trkpt lat="45.774674" lon="13.6140983"><ele>60.0</ele><time>2026-04-06T12:27:37.027Z</time></trkpt><trkpt lat="45.774693" lon="13.6139412"><ele>60.0</ele><time>2026-04-06T12:27:38.026Z</time></trkpt><trkpt lat="45.7747013" lon="13.6137891"><ele>60.0</ele><time>2026-04-06T12:27:39.026Z</time></trkpt><trkpt lat="45.7747078" lon="13.6136692"><ele>60.0</ele><time>2026-04-06T12:27:40.034Z</time></trkpt><trkpt lat="45.7747134" lon="13.6135751"><ele>60.0</ele><time>2026-04-06T12:27:41.033Z</time></trkpt><trkpt lat="45.7747207" lon="13.6134808"><ele>60.0</ele><time>2026-04-06T12:27:42.03Z</time></trkpt><trkpt lat="45.7747294" lon="13.6133706"><ele>60.0</ele><time>2026-04-06T12:27:43.028Z</time></trkpt><trkpt lat="45.7747396" lon="13.6132437"><ele>60.0</ele><time>2026-04-06T12:27:44.029Z</time></trkpt><trkpt lat="45.7747481" lon="13.6131038"><ele>59.5</ele><time>2026-04-06T12:27:45.028Z</time></trkpt><trkpt lat="45.7747595" lon="13.6129577"><ele>59.0</ele><time>2026-04-06T12:27:46.029Z</time></trkpt><trkpt lat="45.7747705" lon="13.612801"><ele>58.5</ele><time>2026-04-06T12:27:47.034Z</time></trkpt><trkpt lat="45.7747816" lon="13.6126269"><ele>58.0</ele><time>2026-04-06T12:27:48.025Z</time></trkpt><trkpt lat="45.7747937" lon="13.6124553"><ele>57.75</ele><time>2026-04-06T12:27:49.032Z</time></trkpt><trkpt lat="45.7748075" lon="13.6122879"><ele>57.5</ele><time>2026-04-06T12:27:50.026Z</time></trkpt><trkpt lat="45.774823" lon="13.6121149"><ele>57.25</ele><time>2026-04-06T12:27:51.033Z</time></trkpt><trkpt lat="45.7748388" lon="13.6119367"><ele>57.0</ele><time>2026-04-06T12:27:52.04Z</time></trkpt><trkpt lat="45.7748515" lon="13.6117527"><ele>57.0</ele><time>2026-04-06T12:27:53.033Z</time></trkpt><trkpt lat="45.7748605" lon="13.6115684"><ele>57.0</ele><time>2026-04-06T12:27:54.046Z</time></trkpt><trkpt lat="45.7748486" lon="13.6113681"><ele>57.0</ele><time>2026-04-06T12:27:55.034Z</time></trkpt><trkpt lat="45.7748199" lon="13.6111738"><ele>57.0</ele><time>2026-04-06T12:27:56.029Z</time></trkpt><trkpt lat="45.7747867" lon="13.6109795"><ele>57.0</ele><time>2026-04-06T12:27:57.029Z</time></trkpt><trkpt lat="45.774752" lon="13.6107887"><ele>57.0</ele><time>2026-04-06T12:27:58.038Z</time></trkpt><trkpt lat="45.7747246" lon="13.6106045"><ele>57.0</ele><time>2026-04-06T12:27:59.029Z</time></trkpt><trkpt lat="45.7746962" lon="13.6104302"><ele>57.0</ele><time>2026-04-06T12:28:00.032Z</time></trkpt><trkpt lat="45.7746632" lon="13.610249"><ele>55.75</ele><time>2026-04-06T12:28:01.025Z</time></trkpt><trkpt lat="45.7746284" lon="13.6100572"><ele>54.5</ele><time>2026-04-06T12:28:02.022Z</time></trkpt><trkpt lat="45.7745967" lon="13.6098497"><ele>53.25</ele><time>2026-04-06T12:28:03.024Z</time></trkpt><trkpt lat="45.7745655" lon="13.6096333"><ele>52.0</ele><time>2026-04-06T12:28:04.022Z</time></trkpt><trkpt lat="45.7745474" lon="13.6094102"><ele>51.5</ele><time>2026-04-06T12:28:05.025Z</time></trkpt><trkpt lat="45.7745453" lon="13.609193"><ele>51.0</ele><time>2026-04-06T12:28:06.029Z</time></trkpt><trkpt lat="45.7745554" lon="13.6089838"><ele>50.5</ele><time>2026-04-06T12:28:07.046Z</time></trkpt><trkpt lat="45.7745806" lon="13.6087888"><ele>50.0</ele><time>2026-04-06T12:28:08.018Z</time></trkpt><trkpt lat="45.7746143" lon="13.6086007"><ele>49.5</ele><time>2026-04-06T12:28:09.035Z</time></trkpt><trkpt lat="45.7746556" lon="13.6084218"><ele>49.0</ele><time>2026-04-06T12:28:10.031Z</time></trkpt><trkpt lat="45.7747015" lon="13.6082484"><ele>48.5</ele><time>2026-04-06T12:28:11.038Z</time></trkpt><trkpt lat="45.7747502" lon="13.6080796"><ele>48.0</ele><time>2026-04-06T12:28:12.017Z</time></trkpt><trkpt lat="45.7747988" lon="13.6079173"><ele>48.0</ele><time>2026-04-06T12:28:13.036Z</time></trkpt><trkpt lat="45.77485" lon="13.6077604"><ele>48.0</ele><time>2026-04-06T12:28:14.028Z</time></trkpt><trkpt lat="45.7749" lon="13.6076082"><ele>48.0</ele><time>2026-04-06T12:28:15.032Z</time></trkpt><trkpt lat="45.7749454" lon="13.6074675"><ele>48.0</ele><time>2026-04-06T12:28:16.016Z</time></trkpt><trkpt lat="45.7749927" lon="13.6073277"><ele>48.0</ele><time>2026-04-06T12:28:17.03Z</time></trkpt><trkpt lat="45.7750367" lon="13.6071949"><ele>48.0</ele><time>2026-04-06T12:28:18.03Z</time></trkpt><trkpt lat="45.775082" lon="13.6070613"><ele>48.0</ele><time>2026-04-06T12:28:19.032Z</time></trkpt><trkpt lat="45.7751275" lon="13.606928"><ele>48.0</ele><time>2026-04-06T12:28:20.029Z</time></trkpt><trkpt lat="45.7751692" lon="13.606792"><ele>48.0</ele><time>2026-04-06T12:28:21.045Z</time></trkpt><trkpt lat="45.7752154" lon="13.6066573"><ele>48.0</ele><time>2026-04-06T12:28:22.03Z</time></trkpt><trkpt lat="45.7752625" lon="13.6065103"><ele>48.0</ele><time>2026-04-06T12:28:23.033Z</time></trkpt><trkpt lat="45.7753117" lon="13.6063626"><ele>48.0</ele><time>2026-04-06T12:28:24.02Z</time></trkpt><trkpt lat="45.7753601" lon="13.6062175"><ele>48.0</ele><time>2026-04-06T12:28:25.025Z</time></trkpt><trkpt lat="45.775406" lon="13.6060672"><ele>47.0</ele><time>2026-04-06T12:28:26.029Z</time></trkpt><trkpt lat="45.7754533" lon="13.6059106"><ele>46.0</ele><time>2026-04-06T12:28:27.031Z</time></trkpt><trkpt lat="45.7755033" lon="13.6057466"><ele>45.0</ele><time>2026-04-06T12:28:28.026Z</time></trkpt><trkpt lat="45.775553" lon="13.6055776"><ele>44.0</ele><time>2026-04-06T12:28:29.046Z</time></trkpt><trkpt lat="45.7756067" lon="13.6054121"><ele>43.25</ele><time>2026-04-06T12:28:30.031Z</time></trkpt><trkpt lat="45.7756613" lon="13.6052457"><ele>42.5</ele><time>2026-04-06T12:28:31.036Z</time></trkpt><trkpt lat="45.7757137" lon="13.6050695"><ele>41.75</ele><time>2026-04-06T12:28:32.025Z</time></trkpt><trkpt lat="45.7757722" lon="13.6048672"><ele>41.0</ele><time>2026-04-06T12:28:33.026Z</time></trkpt><trkpt lat="45.775839" lon="13.6046582"><ele>40.666666666666664</ele><time>2026-04-06T12:28:34.022Z</time></trkpt><trkpt lat="45.7759072" lon="13.6044332"><ele>40.333333333333336</ele><time>2026-04-06T12:28:35.022Z</time></trkpt><trkpt lat="45.7759869" lon="13.6041891"><ele>40.0</ele><time>2026-04-06T12:28:36.022Z</time></trkpt><trkpt lat="45.77608" lon="13.6039202"><ele>39.333333333333336</ele><time>2026-04-06T12:28:37.022Z</time></trkpt><trkpt lat="45.7761794" lon="13.6036527"><ele>38.666666666666664</ele><time>2026-04-06T12:28:38.02Z</time></trkpt><trkpt lat="45.7762747" lon="13.6033818"><ele>38.0</ele><time>2026-04-06T12:28:39.017Z</time></trkpt><trkpt lat="45.7763597" lon="13.6031139"><ele>38.0</ele><time>2026-04-06T12:28:40.021Z</time></trkpt><trkpt lat="45.7764431" lon="13.602857"><ele>38.0</ele><time>2026-04-06T12:28:41.02Z</time></trkpt><trkpt lat="45.7765201" lon="13.6026128"><ele>38.0</ele><time>2026-04-06T12:28:42.019Z</time></trkpt><trkpt lat="45.7765931" lon="13.6023844"><ele>36.666666666666664</ele><time>2026-04-06T12:28:43.026Z</time></trkpt><trkpt lat="45.7766628" lon="13.6021604"><ele>35.333333333333336</ele><time>2026-04-06T12:28:44.019Z</time></trkpt><trkpt lat="45.7767323" lon="13.6019439"><ele>34.0</ele><time>2026-04-06T12:28:45.021Z</time></trkpt><trkpt lat="45.7767961" lon="13.6017438"><ele>34.25</ele><time>2026-04-06T12:28:46.023Z</time></trkpt><trkpt lat="45.7768581" lon="13.6015544"><ele>34.5</ele><time>2026-04-06T12:28:47.011Z</time></trkpt><trkpt lat="45.7769229" lon="13.6013826"><ele>34.75</ele><time>2026-04-06T12:28:48.023Z</time></trkpt><trkpt lat="45.7769912" lon="13.6012224"><ele>35.0</ele><time>2026-04-06T12:28:49.014Z</time></trkpt><trkpt lat="45.7770463" lon="13.6010798"><ele>34.666666666666664</ele><time>2026-04-06T12:28:50.016Z</time></trkpt><trkpt lat="45.7770843" lon="13.6009471"><ele>34.33333333333333</ele><time>2026-04-06T12:28:51.035Z</time></trkpt><trkpt lat="45.7770871" lon="13.600842"><ele>34.0</ele><time>2026-04-06T12:28:52.021Z</time></trkpt><trkpt lat="45.7770589" lon="13.6007529"><ele>33.666666666666664</ele><time>2026-04-06T12:28:53.014Z</time></trkpt><trkpt lat="45.7769988" lon="13.6007013"><ele>33.333333333333336</ele><time>2026-04-06T12:28:54.016Z</time></trkpt><trkpt lat="45.7769169" lon="13.6006405"><ele>33.0</ele><time>2026-04-06T12:28:55.015Z</time></trkpt><trkpt lat="45.7768326" lon="13.6005812"><ele>33.0</ele><time>2026-04-06T12:28:56.009Z</time></trkpt><trkpt lat="45.776763" lon="13.6005215"><ele>33.0</ele><time>2026-04-06T12:28:57.017Z</time></trkpt><trkpt lat="45.7767055" lon="13.6003456"><ele>33.0</ele><time>2026-04-06T12:28:59.021Z</time></trkpt><trkpt lat="45.7767067" lon="13.6002085"><ele>33.0</ele><time>2026-04-06T12:29:00.016Z</time></trkpt><trkpt lat="45.7767202" lon="13.6000614"><ele>33.0</ele><time>2026-04-06T12:29:01.012Z</time></trkpt><trkpt lat="45.776735" lon="13.5999147"><ele>33.333333333333336</ele><time>2026-04-06T12:29:02.017Z</time></trkpt><trkpt lat="45.7767493" lon="13.5997624"><ele>33.666666666666664</ele><time>2026-04-06T12:29:03.019Z</time></trkpt><trkpt lat="45.7767696" lon="13.5996248"><ele>34.0</ele><time>2026-04-06T12:29:04.025Z</time></trkpt><trkpt lat="45.7767847" lon="13.5995012"><ele>34.33333333333333</ele><time>2026-04-06T12:29:05.023Z</time></trkpt><trkpt lat="45.776806" lon="13.5994067"><ele>34.666666666666664</ele><time>2026-04-06T12:29:06.021Z</time></trkpt><trkpt lat="45.7768017" lon="13.5993108"><ele>35.0</ele><time>2026-04-06T12:29:08.021Z</time></trkpt><trkpt lat="45.7767886" lon="13.5994215"><ele>35.0</ele><time>2026-04-06T12:39:43.073Z</time></trkpt><trkpt lat="45.7767847" lon="13.5995694"><ele>35.0</ele><time>2026-04-06T12:39:45.031Z</time></trkpt><trkpt lat="45.7767604" lon="13.5996768"><ele>35.0</ele><time>2026-04-06T12:39:46.033Z</time></trkpt><trkpt lat="45.7767411" lon="13.5997909"><ele>35.0</ele><time>2026-04-06T12:39:47.052Z</time></trkpt><trkpt lat="45.7767233" lon="13.5999208"><ele>35.0</ele><time>2026-04-06T12:39:48.052Z</time></trkpt><trkpt lat="45.7767166" lon="13.6000559"><ele>35.0</ele><time>2026-04-06T12:39:49.078Z</time></trkpt><trkpt lat="45.7767121" lon="13.6001833"><ele>35.0</ele><time>2026-04-06T12:39:50.052Z</time></trkpt><trkpt lat="45.7767108" lon="13.600304"><ele>35.0</ele><time>2026-04-06T12:39:51.054Z</time></trkpt><trkpt lat="45.7767153" lon="13.6004175"><ele>35.0</ele><time>2026-04-06T12:39:52.029Z</time></trkpt><trkpt lat="45.7767853" lon="13.6005664"><ele>35.0</ele><time>2026-04-06T12:39:54.039Z</time></trkpt><trkpt lat="45.7768547" lon="13.6006167"><ele>35.666666666666664</ele><time>2026-04-06T12:39:55.025Z</time></trkpt><trkpt lat="45.7769168" lon="13.6006635"><ele>36.33333333333333</ele><time>2026-04-06T12:39:56.024Z</time></trkpt><trkpt lat="45.7769779" lon="13.6007052"><ele>37.0</ele><time>2026-04-06T12:39:57.029Z</time></trkpt><trkpt lat="45.7770527" lon="13.6008127"><ele>37.666666666666664</ele><time>2026-04-06T12:39:59.039Z</time></trkpt><trkpt lat="45.7770611" lon="13.6009493"><ele>38.333333333333336</ele><time>2026-04-06T12:40:01.028Z</time></trkpt><trkpt lat="45.7770415" lon="13.6010407"><ele>39.0</ele><time>2026-04-06T12:40:02.022Z</time></trkpt><trkpt lat="45.7770095" lon="13.601145"><ele>38.2</ele><time>2026-04-06T12:40:03.016Z</time></trkpt><trkpt lat="45.7769603" lon="13.6012566"><ele>37.4</ele><time>2026-04-06T12:40:04.015Z</time></trkpt><trkpt lat="45.776905" lon="13.6013823"><ele>36.6</ele><time>2026-04-06T12:40:05.024Z</time></trkpt><trkpt lat="45.7768461" lon="13.6015159"><ele>35.8</ele><time>2026-04-06T12:40:06.026Z</time></trkpt><trkpt lat="45.7767889" lon="13.6016636"><ele>35.0</ele><time>2026-04-06T12:40:07.051Z</time></trkpt><trkpt lat="45.7767364" lon="13.601816"><ele>34.75</ele><time>2026-04-06T12:40:08.018Z</time></trkpt><trkpt lat="45.7766876" lon="13.6019745"><ele>34.5</ele><time>2026-04-06T12:40:09.017Z</time></trkpt><trkpt lat="45.7766378" lon="13.6021281"><ele>34.25</ele><time>2026-04-06T12:40:10.018Z</time></trkpt><trkpt lat="45.7765879" lon="13.6022832"><ele>34.0</ele><time>2026-04-06T12:40:11.018Z</time></trkpt><trkpt lat="45.7765432" lon="13.6024321"><ele>34.0</ele><time>2026-04-06T12:40:12.022Z</time></trkpt><trkpt lat="45.7765007" lon="13.6025763"><ele>34.0</ele><time>2026-04-06T12:40:13.024Z</time></trkpt><trkpt lat="45.7764619" lon="13.6027084"><ele>34.0</ele><time>2026-04-06T12:40:14.031Z</time></trkpt><trkpt lat="45.7764239" lon="13.6028322"><ele>34.0</ele><time>2026-04-06T12:40:15.02Z</time></trkpt><trkpt lat="45.7763832" lon="13.6029553"><ele>34.0</ele><time>2026-04-06T12:40:16.043Z</time></trkpt><trkpt lat="45.7763455" lon="13.6030726"><ele>34.8</ele><time>2026-04-06T12:40:17.022Z</time></trkpt><trkpt lat="45.7763073" lon="13.6031986"><ele>35.599999999999994</ele><time>2026-04-06T12:40:18.014Z</time></trkpt><trkpt lat="45.7762656" lon="13.6033279"><ele>36.4</ele><time>2026-04-06T12:40:19.012Z</time></trkpt><trkpt lat="45.7762252" lon="13.6034553"><ele>37.199999999999996</ele><time>2026-04-06T12:40:20.021Z</time></trkpt><trkpt lat="45.7761856" lon="13.6035817"><ele>38.0</ele><time>2026-04-06T12:40:21.005Z</time></trkpt><trkpt lat="45.7761498" lon="13.6036998"><ele>38.0</ele><time>2026-04-06T12:40:22.02Z</time></trkpt><trkpt lat="45.7761118" lon="13.6038177"><ele>38.0</ele><time>2026-04-06T12:40:23.016Z</time></trkpt><trkpt lat="45.7760717" lon="13.6039402"><ele>38.0</ele><time>2026-04-06T12:40:24.02Z</time></trkpt><trkpt lat="45.7760318" lon="13.6040685"><ele>38.0</ele><time>2026-04-06T12:40:25.035Z</time></trkpt><trkpt lat="45.775989" lon="13.604204"><ele>38.0</ele><time>2026-04-06T12:40:26.023Z</time></trkpt><trkpt lat="45.775946" lon="13.6043462"><ele>38.0</ele><time>2026-04-06T12:40:27.01Z</time></trkpt><trkpt lat="45.7759008" lon="13.604493"><ele>38.0</ele><time>2026-04-06T12:40:28.028Z</time></trkpt><trkpt lat="45.7758508" lon="13.6046401"><ele>38.0</ele><time>2026-04-06T12:40:29.014Z</time></trkpt><trkpt lat="45.7757982" lon="13.6047857"><ele>38.0</ele><time>2026-04-06T12:40:30.016Z</time></trkpt><trkpt lat="45.7757467" lon="13.6049364"><ele>38.75</ele><time>2026-04-06T12:40:31.021Z</time></trkpt><trkpt lat="45.7756963" lon="13.6050834"><ele>39.5</ele><time>2026-04-06T12:40:32.016Z</time></trkpt><trkpt lat="45.7756464" lon="13.6052346"><ele>40.25</ele><time>2026-04-06T12:40:33.03Z</time></trkpt><trkpt lat="45.7755981" lon="13.6053901"><ele>41.0</ele><time>2026-04-06T12:40:34.021Z</time></trkpt><trkpt lat="45.7755537" lon="13.6055485"><ele>41.75</ele><time>2026-04-06T12:40:35.014Z</time></trkpt><trkpt lat="45.7755051" lon="13.6057038"><ele>42.5</ele><time>2026-04-06T12:40:36.027Z</time></trkpt><trkpt lat="45.7754521" lon="13.6058625"><ele>43.25</ele><time>2026-04-06T12:40:37.02Z</time></trkpt><trkpt lat="45.7754009" lon="13.6060188"><ele>44.0</ele><time>2026-04-06T12:40:38.026Z</time></trkpt><trkpt lat="45.7753492" lon="13.6061737"><ele>44.5</ele><time>2026-04-06T12:40:39.018Z</time></trkpt><trkpt lat="45.7752979" lon="13.6063291"><ele>45.0</ele><time>2026-04-06T12:40:40.018Z</time></trkpt><trkpt lat="45.7752464" lon="13.6064877"><ele>45.5</ele><time>2026-04-06T12:40:41.019Z</time></trkpt><trkpt lat="45.7751968" lon="13.6066418"><ele>46.0</ele><time>2026-04-06T12:40:42.028Z</time></trkpt><trkpt lat="45.7751465" lon="13.6067941"><ele>46.0</ele><time>2026-04-06T12:40:43.019Z</time></trkpt><trkpt lat="45.7750937" lon="13.6069485"><ele>46.0</ele><time>2026-04-06T12:40:44.012Z</time></trkpt><trkpt lat="45.775039" lon="13.6071068"><ele>46.0</ele><time>2026-04-06T12:40:45.02Z</time></trkpt><trkpt lat="45.7749867" lon="13.6072742"><ele>46.0</ele><time>2026-04-06T12:40:46.024Z</time></trkpt><trkpt lat="45.774935" lon="13.6074389"><ele>46.5</ele><time>2026-04-06T12:40:47.026Z</time></trkpt><trkpt lat="45.7748803" lon="13.6076134"><ele>47.0</ele><time>2026-04-06T12:40:48.007Z</time></trkpt><trkpt lat="45.7748228" lon="13.60779"><ele>47.5</ele><time>2026-04-06T12:40:49.018Z</time></trkpt><trkpt lat="45.7747647" lon="13.6079615"><ele>48.0</ele><time>2026-04-06T12:40:50.016Z</time></trkpt><trkpt lat="45.7747146" lon="13.6081309"><ele>48.0</ele><time>2026-04-06T12:40:51.029Z</time></trkpt><trkpt lat="45.7746658" lon="13.6082932"><ele>48.0</ele><time>2026-04-06T12:40:52.036Z</time></trkpt><trkpt lat="45.774617" lon="13.6084551"><ele>48.0</ele><time>2026-04-06T12:40:53.023Z</time></trkpt><trkpt lat="45.7745719" lon="13.608622"><ele>48.0</ele><time>2026-04-06T12:40:54.042Z</time></trkpt><trkpt lat="45.7745363" lon="13.6088"><ele>48.5</ele><time>2026-04-06T12:40:55.033Z</time></trkpt><trkpt lat="45.774512" lon="13.6089872"><ele>49.0</ele><time>2026-04-06T12:40:56.019Z</time></trkpt><trkpt lat="45.7745009" lon="13.6091763"><ele>49.5</ele><time>2026-04-06T12:40:57.036Z</time></trkpt><trkpt lat="45.7744968" lon="13.6093746"><ele>50.0</ele><time>2026-04-06T12:40:58.023Z</time></trkpt><trkpt lat="45.7744995" lon="13.6095729"><ele>50.5</ele><time>2026-04-06T12:40:59.019Z</time></trkpt><trkpt lat="45.7745142" lon="13.6097707"><ele>51.0</ele><time>2026-04-06T12:41:00.021Z</time></trkpt><trkpt lat="45.7745386" lon="13.6099689"><ele>51.5</ele><time>2026-04-06T12:41:01.039Z</time></trkpt><trkpt lat="45.7745749" lon="13.6101719"><ele>52.0</ele><time>2026-04-06T12:41:02.017Z</time></trkpt><trkpt lat="45.7746135" lon="13.6103733"><ele>53.666666666666664</ele><time>2026-04-06T12:41:03.021Z</time></trkpt><trkpt lat="45.7746571" lon="13.6105811"><ele>55.33333333333333</ele><time>2026-04-06T12:41:04.018Z</time></trkpt><trkpt lat="45.7746956" lon="13.6107934"><ele>57.0</ele><time>2026-04-06T12:41:05.028Z</time></trkpt><trkpt lat="45.7747315" lon="13.6110068"><ele>56.75</ele><time>2026-04-06T12:41:06.019Z</time></trkpt><trkpt lat="45.7747638" lon="13.611217"><ele>56.5</ele><time>2026-04-06T12:41:07.036Z</time></trkpt><trkpt lat="45.7747896" lon="13.6114242"><ele>56.25</ele><time>2026-04-06T12:41:08.039Z</time></trkpt><trkpt lat="45.7748049" lon="13.6116352"><ele>56.0</ele><time>2026-04-06T12:41:09.051Z</time></trkpt><trkpt lat="45.7748036" lon="13.6118501"><ele>56.333333333333336</ele><time>2026-04-06T12:41:10.031Z</time></trkpt><trkpt lat="45.7747935" lon="13.6120671"><ele>56.66666666666667</ele><time>2026-04-06T12:41:11.03Z</time></trkpt><trkpt lat="45.7747804" lon="13.6122859"><ele>57.0</ele><time>2026-04-06T12:41:12.02Z</time></trkpt><trkpt lat="45.7747623" lon="13.612504"><ele>57.0</ele><time>2026-04-06T12:41:13.026Z</time></trkpt><trkpt lat="45.7747434" lon="13.6127306"><ele>57.0</ele><time>2026-04-06T12:41:14.014Z</time></trkpt><trkpt lat="45.7747245" lon="13.6129567"><ele>57.0</ele><time>2026-04-06T12:41:15.019Z</time></trkpt><trkpt lat="45.7747066" lon="13.6131848"><ele>57.33333333333333</ele><time>2026-04-06T12:41:16.022Z</time></trkpt><trkpt lat="45.7746912" lon="13.6134073"><ele>57.666666666666664</ele><time>2026-04-06T12:41:17.022Z</time></trkpt><trkpt lat="45.7746761" lon="13.6136328"><ele>58.0</ele><time>2026-04-06T12:41:18.021Z</time></trkpt><trkpt lat="45.7746595" lon="13.6138567"><ele>58.666666666666664</ele><time>2026-04-06T12:41:19.025Z</time></trkpt><trkpt lat="45.7746399" lon="13.6140732"><ele>59.33333333333333</ele><time>2026-04-06T12:41:20.033Z</time></trkpt><trkpt lat="45.7746115" lon="13.6142856"><ele>60.0</ele><time>2026-04-06T12:41:21.037Z</time></trkpt><trkpt lat="45.7745633" lon="13.6144937"><ele>60.0</ele><time>2026-04-06T12:41:22.018Z</time></trkpt><trkpt lat="45.7744997" lon="13.6146982"><ele>60.0</ele><time>2026-04-06T12:41:23.028Z</time></trkpt><trkpt lat="45.7744346" lon="13.6149101"><ele>60.0</ele><time>2026-04-06T12:41:24.022Z</time></trkpt><trkpt lat="45.7743703" lon="13.6151136"><ele>60.5</ele><time>2026-04-06T12:41:25.027Z</time></trkpt><trkpt lat="45.7743054" lon="13.61531"><ele>61.0</ele><time>2026-04-06T12:41:26.037Z</time></trkpt><trkpt lat="45.7742398" lon="13.6155048"><ele>61.5</ele><time>2026-04-06T12:41:27.015Z</time></trkpt><trkpt lat="45.7741752" lon="13.6156935"><ele>62.0</ele><time>2026-04-06T12:41:28.021Z</time></trkpt><trkpt lat="45.7741032" lon="13.615874"><ele>62.0</ele><time>2026-04-06T12:41:29.022Z</time></trkpt><trkpt lat="45.7740261" lon="13.6160606"><ele>62.0</ele><time>2026-04-06T12:41:30.021Z</time></trkpt><trkpt lat="45.7739505" lon="13.6162432"><ele>62.0</ele><time>2026-04-06T12:41:31.041Z</time></trkpt><trkpt lat="45.773874" lon="13.6164251"><ele>62.0</ele><time>2026-04-06T12:41:32.022Z</time></trkpt><trkpt lat="45.7737964" lon="13.6166123"><ele>61.333333333333336</ele><time>2026-04-06T12:41:33.025Z</time></trkpt><trkpt lat="45.7737232" lon="13.616805"><ele>60.66666666666667</ele><time>2026-04-06T12:41:34.025Z</time></trkpt><trkpt lat="45.7736611" lon="13.6170013"><ele>60.0</ele><time>2026-04-06T12:41:35.028Z</time></trkpt><trkpt lat="45.7736138" lon="13.6172019"><ele>59.25</ele><time>2026-04-06T12:41:36.018Z</time></trkpt><trkpt lat="45.7735837" lon="13.6174022"><ele>58.5</ele><time>2026-04-06T12:41:37.024Z</time></trkpt><trkpt lat="45.7735626" lon="13.6175901"><ele>57.75</ele><time>2026-04-06T12:41:38.016Z</time></trkpt><trkpt lat="45.7735458" lon="13.6177671"><ele>57.0</ele><time>2026-04-06T12:41:39.022Z</time></trkpt><trkpt lat="45.7735324" lon="13.6179417"><ele>57.25</ele><time>2026-04-06T12:41:40.023Z</time></trkpt><trkpt lat="45.773517" lon="13.6181212"><ele>57.5</ele><time>2026-04-06T12:41:41.032Z</time></trkpt><trkpt lat="45.7735024" lon="13.6182992"><ele>57.75</ele><time>2026-04-06T12:41:42.046Z</time></trkpt><trkpt lat="45.7734912" lon="13.6184784"><ele>58.0</ele><time>2026-04-06T12:41:43.047Z</time></trkpt><trkpt lat="45.7734814" lon="13.6186501"><ele>57.75</ele><time>2026-04-06T12:41:44.033Z</time></trkpt><trkpt lat="45.7734707" lon="13.6188219"><ele>57.5</ele><time>2026-04-06T12:41:45.01Z</time></trkpt><trkpt lat="45.7734594" lon="13.6189884"><ele>57.25</ele><time>2026-04-06T12:41:46.017Z</time></trkpt><trkpt lat="45.7734446" lon="13.6191608"><ele>57.0</ele><time>2026-04-06T12:41:47.018Z</time></trkpt><trkpt lat="45.7734319" lon="13.6193377"><ele>58.25</ele><time>2026-04-06T12:41:48.017Z</time></trkpt><trkpt lat="45.7734202" lon="13.6195235"><ele>59.5</ele><time>2026-04-06T12:41:49.022Z</time></trkpt><trkpt lat="45.7734073" lon="13.6197167"><ele>60.75</ele><time>2026-04-06T12:41:50.023Z</time></trkpt><trkpt lat="45.7733911" lon="13.6199103"><ele>62.0</ele><time>2026-04-06T12:41:51.017Z</time></trkpt><trkpt lat="45.7733741" lon="13.6201052"><ele>62.0</ele><time>2026-04-06T12:41:52.02Z</time></trkpt><trkpt lat="45.7733584" lon="13.6203067"><ele>62.0</ele><time>2026-04-06T12:41:53.014Z</time></trkpt><trkpt lat="45.7733441" lon="13.6205127"><ele>62.0</ele><time>2026-04-06T12:41:54.02Z</time></trkpt><trkpt lat="45.773333" lon="13.6207171"><ele>62.0</ele><time>2026-04-06T12:41:55.031Z</time></trkpt><trkpt lat="45.7733156" lon="13.6209197"><ele>61.75</ele><time>2026-04-06T12:41:56.021Z</time></trkpt><trkpt lat="45.7732963" lon="13.6211206"><ele>61.5</ele><time>2026-04-06T12:41:57.028Z</time></trkpt><trkpt lat="45.7732797" lon="13.62132"><ele>61.25</ele><time>2026-04-06T12:41:58.017Z</time></trkpt><trkpt lat="45.7732616" lon="13.6215246"><ele>61.0</ele><time>2026-04-06T12:41:59.026Z</time></trkpt><trkpt lat="45.7732429" lon="13.6217364"><ele>61.0</ele><time>2026-04-06T12:42:00.023Z</time></trkpt><trkpt lat="45.7732207" lon="13.6219597"><ele>61.0</ele><time>2026-04-06T12:42:01.027Z</time></trkpt><trkpt lat="45.7731977" lon="13.6221962"><ele>61.0</ele><time>2026-04-06T12:42:02.044Z</time></trkpt><trkpt lat="45.773177" lon="13.6224432"><ele>61.0</ele><time>2026-04-06T12:42:03.031Z</time></trkpt><trkpt lat="45.7731566" lon="13.6226971"><ele>61.0</ele><time>2026-04-06T12:42:04.019Z</time></trkpt><trkpt lat="45.7731384" lon="13.6229513"><ele>61.0</ele><time>2026-04-06T12:42:05.026Z</time></trkpt><trkpt lat="45.7731217" lon="13.6232059"><ele>61.0</ele><time>2026-04-06T12:42:06.021Z</time></trkpt><trkpt lat="45.7731103" lon="13.6234541"><ele>61.0</ele><time>2026-04-06T12:42:07.038Z</time></trkpt><trkpt lat="45.7730988" lon="13.6236903"><ele>61.0</ele><time>2026-04-06T12:42:08.024Z</time></trkpt><trkpt lat="45.7730801" lon="13.6239248"><ele>61.33333333333333</ele><time>2026-04-06T12:42:09.026Z</time></trkpt><trkpt lat="45.7730524" lon="13.6241574"><ele>61.66666666666667</ele><time>2026-04-06T12:42:10.052Z</time></trkpt><trkpt lat="45.7730218" lon="13.6243894"><ele>62.0</ele><time>2026-04-06T12:42:11.023Z</time></trkpt><trkpt lat="45.7729931" lon="13.6246306"><ele>62.0</ele><time>2026-04-06T12:42:12.005Z</time></trkpt><trkpt lat="45.7729689" lon="13.6248653"><ele>62.0</ele><time>2026-04-06T12:42:13.028Z</time></trkpt><trkpt lat="45.7729453" lon="13.62509"><ele>62.0</ele><time>2026-04-06T12:42:14.018Z</time></trkpt><trkpt lat="45.7729239" lon="13.625311"><ele>61.75</ele><time>2026-04-06T12:42:15.041Z</time></trkpt><trkpt lat="45.7728973" lon="13.6255236"><ele>61.5</ele><time>2026-04-06T12:42:16.021Z</time></trkpt><trkpt lat="45.7728718" lon="13.6257302"><ele>61.25</ele><time>2026-04-06T12:42:17.024Z</time></trkpt><trkpt lat="45.7728435" lon="13.6259354"><ele>61.0</ele><time>2026-04-06T12:42:18.025Z</time></trkpt><trkpt lat="45.7728183" lon="13.6261405"><ele>59.666666666666664</ele><time>2026-04-06T12:42:19.02Z</time></trkpt><trkpt lat="45.7727971" lon="13.6263542"><ele>58.33333333333333</ele><time>2026-04-06T12:42:20.027Z</time></trkpt><trkpt lat="45.7727774" lon="13.6265707"><ele>57.0</ele><time>2026-04-06T12:42:21.027Z</time></trkpt><trkpt lat="45.7727709" lon="13.6267862"><ele>56.33333333333333</ele><time>2026-04-06T12:42:22.026Z</time></trkpt><trkpt lat="45.7727749" lon="13.6270031"><ele>55.666666666666664</ele><time>2026-04-06T12:42:23.019Z</time></trkpt><trkpt lat="45.7727925" lon="13.627228"><ele>55.0</ele><time>2026-04-06T12:42:24.025Z</time></trkpt><trkpt lat="45.7728169" lon="13.6274526"><ele>55.0</ele><time>2026-04-06T12:42:25.023Z</time></trkpt><trkpt lat="45.77285" lon="13.6276864"><ele>55.0</ele><time>2026-04-06T12:42:26.013Z</time></trkpt><trkpt lat="45.7728822" lon="13.6279176"><ele>55.0</ele><time>2026-04-06T12:42:27.028Z</time></trkpt><trkpt lat="45.7729116" lon="13.6281272"><ele>56.0</ele><time>2026-04-06T12:42:28.026Z</time></trkpt><trkpt lat="45.7729395" lon="13.6283201"><ele>57.0</ele><time>2026-04-06T12:42:29.036Z</time></trkpt><trkpt lat="45.772967" lon="13.6285032"><ele>58.0</ele><time>2026-04-06T12:42:30.02Z</time></trkpt><trkpt lat="45.7729947" lon="13.6286903"><ele>59.0</ele><time>2026-04-06T12:42:31.019Z</time></trkpt><trkpt lat="45.7730242" lon="13.6288875"><ele>60.0</ele><time>2026-04-06T12:42:32.021Z</time></trkpt><trkpt lat="45.7730527" lon="13.629084"><ele>61.0</ele><time>2026-04-06T12:42:33.021Z</time></trkpt><trkpt lat="45.7730792" lon="13.6292713"><ele>62.0</ele><time>2026-04-06T12:42:34.042Z</time></trkpt><trkpt lat="45.7731018" lon="13.6294427"><ele>63.0</ele><time>2026-04-06T12:42:35.027Z</time></trkpt><trkpt lat="45.7731271" lon="13.6296098"><ele>63.5</ele><time>2026-04-06T12:42:36.019Z</time></trkpt><trkpt lat="45.7731535" lon="13.6297831"><ele>64.0</ele><time>2026-04-06T12:42:37.014Z</time></trkpt><trkpt lat="45.7731786" lon="13.629949"><ele>64.5</ele><time>2026-04-06T12:42:38.015Z</time></trkpt><trkpt lat="45.773203" lon="13.6301121"><ele>65.0</ele><time>2026-04-06T12:42:39.029Z</time></trkpt><trkpt lat="45.773228" lon="13.6302743"><ele>65.5</ele><time>2026-04-06T12:42:40.018Z</time></trkpt><trkpt lat="45.773248" lon="13.6304253"><ele>66.0</ele><time>2026-04-06T12:42:41.013Z</time></trkpt><trkpt lat="45.7732704" lon="13.6305849"><ele>66.5</ele><time>2026-04-06T12:42:42.03Z</time></trkpt><trkpt lat="45.7733016" lon="13.630757"><ele>67.0</ele><time>2026-04-06T12:42:43.026Z</time></trkpt><trkpt lat="45.7733311" lon="13.6309502"><ele>67.0</ele><time>2026-04-06T12:42:44.023Z</time></trkpt><trkpt lat="45.7733631" lon="13.6311559"><ele>67.0</ele><time>2026-04-06T12:42:45.042Z</time></trkpt><trkpt lat="45.7733935" lon="13.6313647"><ele>67.0</ele><time>2026-04-06T12:42:46.014Z</time></trkpt><trkpt lat="45.7734252" lon="13.631575"><ele>67.0</ele><time>2026-04-06T12:42:47.022Z</time></trkpt><trkpt lat="45.7734584" lon="13.6317902"><ele>66.66666666666666</ele><time>2026-04-06T12:42:48.015Z</time></trkpt><trkpt lat="45.7734917" lon="13.6320064"><ele>66.33333333333333</ele><time>2026-04-06T12:42:49.023Z</time></trkpt><trkpt lat="45.7735259" lon="13.632215"><ele>66.0</ele><time>2026-04-06T12:42:50.021Z</time></trkpt><trkpt lat="45.7735608" lon="13.6324225"><ele>67.5</ele><time>2026-04-06T12:42:51.025Z</time></trkpt><trkpt lat="45.7735928" lon="13.6326343"><ele>69.0</ele><time>2026-04-06T12:42:52.039Z</time></trkpt><trkpt lat="45.7736246" lon="13.6328298"><ele>70.5</ele><time>2026-04-06T12:42:53.026Z</time></trkpt><trkpt lat="45.7736494" lon="13.6330209"><ele>72.0</ele><time>2026-04-06T12:42:54.029Z</time></trkpt><trkpt lat="45.7736698" lon="13.6332117"><ele>72.5</ele><time>2026-04-06T12:42:55.034Z</time></trkpt><trkpt lat="45.7736925" lon="13.6333948"><ele>73.0</ele><time>2026-04-06T12:42:56.029Z</time></trkpt><trkpt lat="45.7736985" lon="13.6335723"><ele>73.5</ele><time>2026-04-06T12:42:57.03Z</time></trkpt><trkpt lat="45.7736869" lon="13.6337461"><ele>74.0</ele><time>2026-04-06T12:42:58.037Z</time></trkpt><trkpt lat="45.7736543" lon="13.6339176"><ele>74.25</ele><time>2026-04-06T12:42:59.042Z</time></trkpt><trkpt lat="45.7736006" lon="13.6340759"><ele>74.5</ele><time>2026-04-06T12:43:00.027Z</time></trkpt><trkpt lat="45.7735351" lon="13.6342225"><ele>74.75</ele><time>2026-04-06T12:43:01.025Z</time></trkpt><trkpt lat="45.7734572" lon="13.6343614"><ele>75.0</ele><time>2026-04-06T12:43:02.031Z</time></trkpt><trkpt lat="45.7733651" lon="13.6344964"><ele>75.75</ele><time>2026-04-06T12:43:03.027Z</time></trkpt><trkpt lat="45.7732699" lon="13.6346155"><ele>76.5</ele><time>2026-04-06T12:43:04.017Z</time></trkpt><trkpt lat="45.7731708" lon="13.634728"><ele>77.25</ele><time>2026-04-06T12:43:05.021Z</time></trkpt><trkpt lat="45.7730683" lon="13.6348376"><ele>78.0</ele><time>2026-04-06T12:43:06.018Z</time></trkpt><trkpt lat="45.772968" lon="13.6349392"><ele>78.0</ele><time>2026-04-06T12:43:07.016Z</time></trkpt><trkpt lat="45.7728681" lon="13.6350364"><ele>78.0</ele><time>2026-04-06T12:43:08.013Z</time></trkpt><trkpt lat="45.7727689" lon="13.6351266"><ele>78.0</ele><time>2026-04-06T12:43:09.027Z</time></trkpt><trkpt lat="45.7726692" lon="13.6352182"><ele>78.0</ele><time>2026-04-06T12:43:10.027Z</time></trkpt><trkpt lat="45.7725735" lon="13.6353224"><ele>77.0</ele><time>2026-04-06T12:43:11.028Z</time></trkpt><trkpt lat="45.7724939" lon="13.6354376"><ele>76.0</ele><time>2026-04-06T12:43:12.022Z</time></trkpt><trkpt lat="45.7724247" lon="13.6355724"><ele>75.0</ele><time>2026-04-06T12:43:13.03Z</time></trkpt><trkpt lat="45.7723628" lon="13.6357138"><ele>74.0</ele><time>2026-04-06T12:43:14.04Z</time></trkpt><trkpt lat="45.7722985" lon="13.63586"><ele>74.0</ele><time>2026-04-06T12:43:15.017Z</time></trkpt><trkpt lat="45.7722399" lon="13.6360067"><ele>74.0</ele><time>2026-04-06T12:43:16.019Z</time></trkpt><trkpt lat="45.7721812" lon="13.6361489"><ele>74.0</ele><time>2026-04-06T12:43:17.023Z</time></trkpt><trkpt lat="45.7721177" lon="13.6362941"><ele>74.0</ele><time>2026-04-06T12:43:18.02Z</time></trkpt><trkpt lat="45.7720444" lon="13.6364376"><ele>74.0</ele><time>2026-04-06T12:43:19.038Z</time></trkpt><trkpt lat="45.7719706" lon="13.6365819"><ele>74.0</ele><time>2026-04-06T12:43:20.012Z</time></trkpt><trkpt lat="45.7718854" lon="13.6367282"><ele>74.0</ele><time>2026-04-06T12:43:21.021Z</time></trkpt><trkpt lat="45.7717776" lon="13.6368929"><ele>74.0</ele><time>2026-04-06T12:43:22.019Z</time></trkpt><trkpt lat="45.7716579" lon="13.6370758"><ele>74.33333333333334</ele><time>2026-04-06T12:43:23.017Z</time></trkpt><trkpt lat="45.771537" lon="13.6372571"><ele>74.66666666666667</ele><time>2026-04-06T12:43:24.018Z</time></trkpt><trkpt lat="45.7714132" lon="13.6374374"><ele>75.0</ele><time>2026-04-06T12:43:25.008Z</time></trkpt><trkpt lat="45.7712946" lon="13.6376202"><ele>74.66666666666667</ele><time>2026-04-06T12:43:26.025Z</time></trkpt><trkpt lat="45.7711791" lon="13.637802"><ele>74.33333333333334</ele><time>2026-04-06T12:43:27.02Z</time></trkpt><trkpt lat="45.7710616" lon="13.6379826"><ele>74.0</ele><time>2026-04-06T12:43:28.013Z</time></trkpt><trkpt lat="45.7709511" lon="13.6381483"><ele>75.25</ele><time>2026-04-06T12:43:29.014Z</time></trkpt><trkpt lat="45.7708485" lon="13.6382908"><ele>76.5</ele><time>2026-04-06T12:43:30.02Z</time></trkpt><trkpt lat="45.7707484" lon="13.6384113"><ele>77.75</ele><time>2026-04-06T12:43:31.028Z</time></trkpt><trkpt lat="45.7706472" lon="13.6384972"><ele>79.0</ele><time>2026-04-06T12:43:32.024Z</time></trkpt><trkpt lat="45.7705337" lon="13.6385469"><ele>79.0</ele><time>2026-04-06T12:43:33.023Z</time></trkpt><trkpt lat="45.7704287" lon="13.6385387"><ele>79.0</ele><time>2026-04-06T12:43:34.014Z</time></trkpt><trkpt lat="45.7703285" lon="13.6385277"><ele>79.0</ele><time>2026-04-06T12:43:35.017Z</time></trkpt><trkpt lat="45.7702496" lon="13.6385828"><ele>79.0</ele><time>2026-04-06T12:43:36.024Z</time></trkpt><trkpt lat="45.7701897" lon="13.6386853"><ele>79.0</ele><time>2026-04-06T12:43:37.025Z</time></trkpt><trkpt lat="45.7701701" lon="13.6388204"><ele>79.2</ele><time>2026-04-06T12:43:38.016Z</time></trkpt><trkpt lat="45.770183" lon="13.6389506"><ele>79.4</ele><time>2026-04-06T12:43:39.026Z</time></trkpt><trkpt lat="45.770233" lon="13.6390428"><ele>79.6</ele><time>2026-04-06T12:43:40.025Z</time></trkpt><trkpt lat="45.7703065" lon="13.6391125"><ele>79.8</ele><time>2026-04-06T12:43:41.022Z</time></trkpt><trkpt lat="45.7704034" lon="13.6391486"><ele>80.0</ele><time>2026-04-06T12:43:42.019Z</time></trkpt><trkpt lat="45.7705102" lon="13.6391724"><ele>79.5</ele><time>2026-04-06T12:43:43.011Z</time></trkpt><trkpt lat="45.770632" lon="13.6392446"><ele>79.0</ele><time>2026-04-06T12:43:44.026Z</time></trkpt><trkpt lat="45.7707445" lon="13.6393576"><ele>78.5</ele><time>2026-04-06T12:43:45.025Z</time></trkpt><trkpt lat="45.7708526" lon="13.6395042"><ele>78.0</ele><time>2026-04-06T12:43:46.023Z</time></trkpt><trkpt lat="45.7709585" lon="13.639662"><ele>78.66666666666667</ele><time>2026-04-06T12:43:47.022Z</time></trkpt><trkpt lat="45.7710695" lon="13.6398197"><ele>79.33333333333334</ele><time>2026-04-06T12:43:48.026Z</time></trkpt><trkpt lat="45.7711826" lon="13.6399759"><ele>80.0</ele><time>2026-04-06T12:43:49.029Z</time></trkpt><trkpt lat="45.7712992" lon="13.6401458"><ele>81.33333333333334</ele><time>2026-04-06T12:43:50.016Z</time></trkpt><trkpt lat="45.7714158" lon="13.6403205"><ele>82.66666666666667</ele><time>2026-04-06T12:43:51.024Z</time></trkpt><trkpt lat="45.7715401" lon="13.6404889"><ele>84.0</ele><time>2026-04-06T12:43:52.017Z</time></trkpt><trkpt lat="45.7716554" lon="13.6406555"><ele>84.0</ele><time>2026-04-06T12:43:53.021Z</time></trkpt><trkpt lat="45.7717667" lon="13.6408041"><ele>84.0</ele><time>2026-04-06T12:43:54.016Z</time></trkpt><trkpt lat="45.77187" lon="13.6409415"><ele>84.0</ele><time>2026-04-06T12:43:55.025Z</time></trkpt><trkpt lat="45.7719703" lon="13.6410777"><ele>84.0</ele><time>2026-04-06T12:43:56.032Z</time></trkpt><trkpt lat="45.7720708" lon="13.6412131"><ele>84.5</ele><time>2026-04-06T12:43:57.024Z</time></trkpt><trkpt lat="45.7721677" lon="13.6413474"><ele>85.0</ele><time>2026-04-06T12:43:58.045Z</time></trkpt><trkpt lat="45.7722638" lon="13.6414818"><ele>85.5</ele><time>2026-04-06T12:43:59.03Z</time></trkpt><trkpt lat="45.7723682" lon="13.6416109"><ele>86.0</ele><time>2026-04-06T12:44:00.027Z</time></trkpt><trkpt lat="45.7724764" lon="13.6417311"><ele>86.0</ele><time>2026-04-06T12:44:01.025Z</time></trkpt><trkpt lat="45.7725873" lon="13.6418483"><ele>86.0</ele><time>2026-04-06T12:44:02.019Z</time></trkpt><trkpt lat="45.772692" lon="13.6419633"><ele>86.0</ele><time>2026-04-06T12:44:03.022Z</time></trkpt><trkpt lat="45.7727939" lon="13.6420659"><ele>86.0</ele><time>2026-04-06T12:44:04.015Z</time></trkpt><trkpt lat="45.7728948" lon="13.6421693"><ele>87.75</ele><time>2026-04-06T12:44:05.024Z</time></trkpt><trkpt lat="45.7729965" lon="13.6422733"><ele>89.5</ele><time>2026-04-06T12:44:06.031Z</time></trkpt><trkpt lat="45.7730921" lon="13.6423696"><ele>91.25</ele><time>2026-04-06T12:44:07.029Z</time></trkpt><trkpt lat="45.7731844" lon="13.6424584"><ele>93.0</ele><time>2026-04-06T12:44:08.03Z</time></trkpt><trkpt lat="45.7732749" lon="13.6425411"><ele>93.0</ele><time>2026-04-06T12:44:09.038Z</time></trkpt><trkpt lat="45.7733607" lon="13.642592"><ele>93.0</ele><time>2026-04-06T12:44:10.031Z</time></trkpt><trkpt lat="45.7734476" lon="13.6425701"><ele>93.0</ele><time>2026-04-06T12:44:11.019Z</time></trkpt><trkpt lat="45.773536" lon="13.6425118"><ele>93.0</ele><time>2026-04-06T12:44:12.016Z</time></trkpt><trkpt lat="45.7736255" lon="13.6424086"><ele>93.0</ele><time>2026-04-06T12:44:13.018Z</time></trkpt><trkpt lat="45.7737176" lon="13.6422902"><ele>93.25</ele><time>2026-04-06T12:44:14.015Z</time></trkpt><trkpt lat="45.7738169" lon="13.6421695"><ele>93.5</ele><time>2026-04-06T12:44:15.021Z</time></trkpt><trkpt lat="45.773914" lon="13.642051"><ele>93.75</ele><time>2026-04-06T12:44:16.018Z</time></trkpt><trkpt lat="45.7740085" lon="13.6419337"><ele>94.0</ele><time>2026-04-06T12:44:17.018Z</time></trkpt><trkpt lat="45.7741056" lon="13.6418016"><ele>93.5</ele><time>2026-04-06T12:44:18.025Z</time></trkpt><trkpt lat="45.7742054" lon="13.6416548"><ele>93.0</ele><time>2026-04-06T12:44:19.031Z</time></trkpt><trkpt lat="45.7742952" lon="13.6414985"><ele>92.5</ele><time>2026-04-06T12:44:20.025Z</time></trkpt><trkpt lat="45.7743899" lon="13.6413438"><ele>92.0</ele><time>2026-04-06T12:44:21.023Z</time></trkpt><trkpt lat="45.7744801" lon="13.6411922"><ele>93.0</ele><time>2026-04-06T12:44:22.046Z</time></trkpt><trkpt lat="45.7745717" lon="13.6410343"><ele>94.0</ele><time>2026-04-06T12:44:23.041Z</time></trkpt><trkpt lat="45.7746633" lon="13.6408776"><ele>95.0</ele><time>2026-04-06T12:44:24.027Z</time></trkpt><trkpt lat="45.7747518" lon="13.6407332"><ele>96.0</ele><time>2026-04-06T12:44:25.024Z</time></trkpt><trkpt lat="45.7748336" lon="13.6406024"><ele>96.0</ele><time>2026-04-06T12:44:26.029Z</time></trkpt><trkpt lat="45.7749128" lon="13.6404853"><ele>96.0</ele><time>2026-04-06T12:44:27.019Z</time></trkpt><trkpt lat="45.7749876" lon="13.6403719"><ele>96.0</ele><time>2026-04-06T12:44:28.026Z</time></trkpt><trkpt lat="45.7750534" lon="13.6402628"><ele>96.0</ele><time>2026-04-06T12:44:29.028Z</time></trkpt><trkpt lat="45.7751155" lon="13.6401645"><ele>96.0</ele><time>2026-04-06T12:44:30.03Z</time></trkpt><trkpt lat="45.7751777" lon="13.640102"><ele>96.0</ele><time>2026-04-06T12:44:31.026Z</time></trkpt><trkpt lat="45.7753086" lon="13.6400968"><ele>96.0</ele><time>2026-04-06T12:44:33.024Z</time></trkpt><trkpt lat="45.7753805" lon="13.6401386"><ele>96.0</ele><time>2026-04-06T12:44:34.013Z</time></trkpt><trkpt lat="45.7754641" lon="13.6401861"><ele>96.0</ele><time>2026-04-06T12:44:35.009Z</time></trkpt><trkpt lat="45.7755609" lon="13.6402278"><ele>96.0</ele><time>2026-04-06T12:44:36.017Z</time></trkpt><trkpt lat="45.7756757" lon="13.6402605"><ele>96.0</ele><time>2026-04-06T12:44:37.021Z</time></trkpt><trkpt lat="45.7758022" lon="13.6402803"><ele>96.0</ele><time>2026-04-06T12:44:38.015Z</time></trkpt><trkpt lat="45.7759235" lon="13.6402878"><ele>96.0</ele><time>2026-04-06T12:44:39.03Z</time></trkpt><trkpt lat="45.7760409" lon="13.6402854"><ele>96.0</ele><time>2026-04-06T12:44:40.029Z</time></trkpt><trkpt lat="45.7761575" lon="13.6402693"><ele>96.5</ele><time>2026-04-06T12:44:41.024Z</time></trkpt><trkpt lat="45.7762753" lon="13.6402305"><ele>97.0</ele><time>2026-04-06T12:44:42.024Z</time></trkpt><trkpt lat="45.7763922" lon="13.6401822"><ele>97.5</ele><time>2026-04-06T12:44:43.022Z</time></trkpt><trkpt lat="45.7765058" lon="13.6401454"><ele>98.0</ele><time>2026-04-06T12:44:44.031Z</time></trkpt><trkpt lat="45.7766233" lon="13.6401464"><ele>98.0</ele><time>2026-04-06T12:44:45.027Z</time></trkpt><trkpt lat="45.7767446" lon="13.6401766"><ele>98.0</ele><time>2026-04-06T12:44:46.018Z</time></trkpt><trkpt lat="45.776853" lon="13.6402166"><ele>98.0</ele><time>2026-04-06T12:44:47.032Z</time></trkpt><trkpt lat="45.7769551" lon="13.6402414"><ele>98.0</ele><time>2026-04-06T12:44:48.031Z</time></trkpt><trkpt lat="45.7770523" lon="13.6402605"><ele>98.0</ele><time>2026-04-06T12:44:49.054Z</time></trkpt><trkpt lat="45.7771494" lon="13.6402872"><ele>98.75</ele><time>2026-04-06T12:44:50.027Z</time></trkpt><trkpt lat="45.7772553" lon="13.640329"><ele>99.5</ele><time>2026-04-06T12:44:51.017Z</time></trkpt><trkpt lat="45.7773647" lon="13.6403627"><ele>100.25</ele><time>2026-04-06T12:44:52.019Z</time></trkpt><trkpt lat="45.7774814" lon="13.6403853"><ele>101.0</ele><time>2026-04-06T12:44:53.015Z</time></trkpt><trkpt lat="45.7776061" lon="13.6404122"><ele>101.75</ele><time>2026-04-06T12:44:54.034Z</time></trkpt><trkpt lat="45.7777347" lon="13.6404433"><ele>102.5</ele><time>2026-04-06T12:44:55.011Z</time></trkpt><trkpt lat="45.77786" lon="13.6404753"><ele>103.25</ele><time>2026-04-06T12:44:56.018Z</time></trkpt><trkpt lat="45.7779795" lon="13.6405133"><ele>104.0</ele><time>2026-04-06T12:44:57.019Z</time></trkpt><trkpt lat="45.7781027" lon="13.6405554"><ele>104.0</ele><time>2026-04-06T12:44:58.014Z</time></trkpt><trkpt lat="45.7782194" lon="13.6405718"><ele>104.0</ele><time>2026-04-06T12:44:59.015Z</time></trkpt><trkpt lat="45.7783359" lon="13.6405293"><ele>104.0</ele><time>2026-04-06T12:45:00.023Z</time></trkpt><trkpt lat="45.7784586" lon="13.6404489"><ele>104.0</ele><time>2026-04-06T12:45:01.018Z</time></trkpt><trkpt lat="45.7785885" lon="13.6403496"><ele>106.0</ele><time>2026-04-06T12:45:02.032Z</time></trkpt><trkpt lat="45.7787239" lon="13.6402387"><ele>108.0</ele><time>2026-04-06T12:45:03.025Z</time></trkpt><trkpt lat="45.7788594" lon="13.6401213"><ele>110.0</ele><time>2026-04-06T12:45:04.027Z</time></trkpt><trkpt lat="45.778994" lon="13.64001"><ele>110.0</ele><time>2026-04-06T12:45:05.027Z</time></trkpt><trkpt lat="45.7791326" lon="13.6399113"><ele>110.0</ele><time>2026-04-06T12:45:06.028Z</time></trkpt><trkpt lat="45.779282" lon="13.6398478"><ele>110.0</ele><time>2026-04-06T12:45:07.023Z</time></trkpt><trkpt lat="45.7794434" lon="13.6398068"><ele>111.0</ele><time>2026-04-06T12:45:08.024Z</time></trkpt><trkpt lat="45.7796087" lon="13.6397822"><ele>112.0</ele><time>2026-04-06T12:45:09.017Z</time></trkpt><trkpt lat="45.7797768" lon="13.6397751"><ele>113.0</ele><time>2026-04-06T12:45:10.018Z</time></trkpt><trkpt lat="45.7799407" lon="13.6397766"><ele>113.0</ele><time>2026-04-06T12:45:11.036Z</time></trkpt><trkpt lat="45.7800922" lon="13.6397972"><ele>113.0</ele><time>2026-04-06T12:45:12.027Z</time></trkpt><trkpt lat="45.7802337" lon="13.6398662"><ele>113.0</ele><time>2026-04-06T12:45:13.023Z</time></trkpt><trkpt lat="45.7803736" lon="13.6399559"><ele>114.66666666666666</ele><time>2026-04-06T12:45:14.012Z</time></trkpt><trkpt lat="45.780521" lon="13.6400579"><ele>116.33333333333334</ele><time>2026-04-06T12:45:15.024Z</time></trkpt><trkpt lat="45.7806727" lon="13.6401661"><ele>118.0</ele><time>2026-04-06T12:45:16.019Z</time></trkpt><trkpt lat="45.7808235" lon="13.6402764"><ele>118.66666666666667</ele><time>2026-04-06T12:45:17.017Z</time></trkpt><trkpt lat="45.7809678" lon="13.6403846"><ele>119.33333333333334</ele><time>2026-04-06T12:45:18.031Z</time></trkpt><trkpt lat="45.7811042" lon="13.6404858"><ele>120.0</ele><time>2026-04-06T12:45:19.028Z</time></trkpt><trkpt lat="45.7812288" lon="13.640575"><ele>121.5</ele><time>2026-04-06T12:45:20.036Z</time></trkpt><trkpt lat="45.7813536" lon="13.6406288"><ele>123.0</ele><time>2026-04-06T12:45:21.031Z</time></trkpt><trkpt lat="45.7814782" lon="13.6406355"><ele>124.5</ele><time>2026-04-06T12:45:22.027Z</time></trkpt><trkpt lat="45.7816085" lon="13.6405936"><ele>126.0</ele><time>2026-04-06T12:45:23.014Z</time></trkpt><trkpt lat="45.7817317" lon="13.6404972"><ele>126.0</ele><time>2026-04-06T12:45:24.02Z</time></trkpt><trkpt lat="45.7818477" lon="13.6403588"><ele>126.0</ele><time>2026-04-06T12:45:25.023Z</time></trkpt><trkpt lat="45.7819479" lon="13.6402259"><ele>126.0</ele><time>2026-04-06T12:45:26.024Z</time></trkpt><trkpt lat="45.7820552" lon="13.640132"><ele>126.0</ele><time>2026-04-06T12:45:27.028Z</time></trkpt><trkpt lat="45.7821707" lon="13.6400743"><ele>128.0</ele><time>2026-04-06T12:45:28.031Z</time></trkpt><trkpt lat="45.7823064" lon="13.6400744"><ele>130.0</ele><time>2026-04-06T12:45:29.018Z</time></trkpt><trkpt lat="45.7824548" lon="13.6400767"><ele>132.0</ele><time>2026-04-06T12:45:30.013Z</time></trkpt><trkpt lat="45.7825939" lon="13.6400646"><ele>134.0</ele><time>2026-04-06T12:45:31.022Z</time></trkpt><trkpt lat="45.7827222" lon="13.6400372"><ele>135.0</ele><time>2026-04-06T12:45:32.035Z</time></trkpt><trkpt lat="45.7828534" lon="13.6400456"><ele>136.0</ele><time>2026-04-06T12:45:33.029Z</time></trkpt><trkpt lat="45.7829846" lon="13.640102"><ele>137.0</ele><time>2026-04-06T12:45:34.046Z</time></trkpt><trkpt lat="45.7831114" lon="13.6401874"><ele>138.0</ele><time>2026-04-06T12:45:35.013Z</time></trkpt><trkpt lat="45.7832369" lon="13.6402451"><ele>138.0</ele><time>2026-04-06T12:45:36.034Z</time></trkpt><trkpt lat="45.7833553" lon="13.6402864"><ele>138.0</ele><time>2026-04-06T12:45:37.019Z</time></trkpt><trkpt lat="45.7834658" lon="13.6403357"><ele>138.0</ele><time>2026-04-06T12:45:38.028Z</time></trkpt><trkpt lat="45.7835665" lon="13.6404207"><ele>138.0</ele><time>2026-04-06T12:45:39.016Z</time></trkpt><trkpt lat="45.7836447" lon="13.6405206"><ele>137.25</ele><time>2026-04-06T12:45:40.02Z</time></trkpt><trkpt lat="45.7837097" lon="13.6406521"><ele>136.5</ele><time>2026-04-06T12:45:41.016Z</time></trkpt><trkpt lat="45.7837661" lon="13.6407942"><ele>135.75</ele><time>2026-04-06T12:45:42.008Z</time></trkpt><trkpt lat="45.7838195" lon="13.6409466"><ele>135.0</ele><time>2026-04-06T12:45:43.029Z</time></trkpt><trkpt lat="45.783878" lon="13.6410976"><ele>135.5</ele><time>2026-04-06T12:45:44.019Z</time></trkpt><trkpt lat="45.7839357" lon="13.6412392"><ele>136.0</ele><time>2026-04-06T12:45:45.021Z</time></trkpt><trkpt lat="45.783994" lon="13.6413833"><ele>136.5</ele><time>2026-04-06T12:45:46.023Z</time></trkpt><trkpt lat="45.7840514" lon="13.6415231"><ele>137.0</ele><time>2026-04-06T12:45:47.014Z</time></trkpt><trkpt lat="45.784105" lon="13.641662"><ele>137.0</ele><time>2026-04-06T12:45:48.02Z</time></trkpt><trkpt lat="45.7841597" lon="13.6417938"><ele>137.0</ele><time>2026-04-06T12:45:49.024Z</time></trkpt><trkpt lat="45.7842146" lon="13.641928"><ele>137.0</ele><time>2026-04-06T12:45:50.024Z</time></trkpt><trkpt lat="45.7842718" lon="13.642065"><ele>137.0</ele><time>2026-04-06T12:45:51.037Z</time></trkpt><trkpt lat="45.7843294" lon="13.6422116"><ele>137.0</ele><time>2026-04-06T12:45:52.015Z</time></trkpt><trkpt lat="45.7843901" lon="13.6423624"><ele>137.0</ele><time>2026-04-06T12:45:53.022Z</time></trkpt><trkpt lat="45.7844498" lon="13.6425111"><ele>137.0</ele><time>2026-04-06T12:45:54.018Z</time></trkpt><trkpt lat="45.7845098" lon="13.6426588"><ele>137.0</ele><time>2026-04-06T12:45:55.025Z</time></trkpt><trkpt lat="45.7845684" lon="13.6428"><ele>137.0</ele><time>2026-04-06T12:45:56.022Z</time></trkpt><trkpt lat="45.7846237" lon="13.6429344"><ele>137.0</ele><time>2026-04-06T12:45:57.026Z</time></trkpt><trkpt lat="45.784675" lon="13.6430598"><ele>137.0</ele><time>2026-04-06T12:45:58.012Z</time></trkpt><trkpt lat="45.7847241" lon="13.6431744"><ele>137.0</ele><time>2026-04-06T12:45:59.029Z</time></trkpt><trkpt lat="45.7847748" lon="13.6433116"><ele>137.0</ele><time>2026-04-06T12:46:01.028Z</time></trkpt><trkpt lat="45.7848413" lon="13.6433966"><ele>137.0</ele><time>2026-04-06T12:46:03.036Z</time></trkpt><trkpt lat="45.7849043" lon="13.6434348"><ele>137.0</ele><time>2026-04-06T12:46:04.029Z</time></trkpt><trkpt lat="45.7849755" lon="13.6434661"><ele>137.0</ele><time>2026-04-06T12:46:05.023Z</time></trkpt><trkpt lat="45.7850432" lon="13.6434968"><ele>137.0</ele><time>2026-04-06T12:46:06.026Z</time></trkpt><trkpt lat="45.7851106" lon="13.6435253"><ele>137.0</ele><time>2026-04-06T12:46:07.027Z</time></trkpt><trkpt lat="45.7851872" lon="13.6435484"><ele>137.0</ele><time>2026-04-06T12:46:08.022Z</time></trkpt><trkpt lat="45.7852735" lon="13.6435751"><ele>137.0</ele><time>2026-04-06T12:46:09.024Z</time></trkpt><trkpt lat="45.7853567" lon="13.6436059"><ele>137.0</ele><time>2026-04-06T12:46:10.02Z</time></trkpt><trkpt lat="45.7854356" lon="13.6436332"><ele>137.0</ele><time>2026-04-06T12:46:11.03Z</time></trkpt><trkpt lat="45.7855077" lon="13.6436784"><ele>137.0</ele><time>2026-04-06T12:46:12.023Z</time></trkpt><trkpt lat="45.7855703" lon="13.6437456"><ele>137.0</ele><time>2026-04-06T12:46:13.028Z</time></trkpt><trkpt lat="45.7856213" lon="13.6438312"><ele>137.0</ele><time>2026-04-06T12:46:14.038Z</time></trkpt><trkpt lat="45.7856748" lon="13.6439107"><ele>137.0</ele><time>2026-04-06T12:46:15.02Z</time></trkpt><trkpt lat="45.7857368" lon="13.6439875"><ele>137.0</ele><time>2026-04-06T12:46:16.025Z</time></trkpt><trkpt lat="45.7858215" lon="13.6440603"><ele>137.0</ele><time>2026-04-06T12:46:17.03Z</time></trkpt><trkpt lat="45.7859297" lon="13.6441439"><ele>137.0</ele><time>2026-04-06T12:46:18.031Z</time></trkpt><trkpt lat="45.7860444" lon="13.6442278"><ele>137.0</ele><time>2026-04-06T12:46:19.027Z</time></trkpt><trkpt lat="45.7861664" lon="13.6443211"><ele>137.25</ele><time>2026-04-06T12:46:20.019Z</time></trkpt><trkpt lat="45.7862944" lon="13.6444113"><ele>137.5</ele><time>2026-04-06T12:46:21.02Z</time></trkpt><trkpt lat="45.7864179" lon="13.6444954"><ele>137.75</ele><time>2026-04-06T12:46:22.02Z</time></trkpt><trkpt lat="45.7865345" lon="13.6445693"><ele>138.0</ele><time>2026-04-06T12:46:23.018Z</time></trkpt><trkpt lat="45.7866562" lon="13.6446315"><ele>138.0</ele><time>2026-04-06T12:46:24.022Z</time></trkpt><trkpt lat="45.7867812" lon="13.6446651"><ele>138.0</ele><time>2026-04-06T12:46:25.015Z</time></trkpt><trkpt lat="45.7869094" lon="13.6446752"><ele>138.0</ele><time>2026-04-06T12:46:26.028Z</time></trkpt><trkpt lat="45.7870382" lon="13.6446698"><ele>138.0</ele><time>2026-04-06T12:46:27.037Z</time></trkpt><trkpt lat="45.7871641" lon="13.6446516"><ele>138.0</ele><time>2026-04-06T12:46:28.027Z</time></trkpt><trkpt lat="45.7872796" lon="13.6446096"><ele>138.0</ele><time>2026-04-06T12:46:29.023Z</time></trkpt><trkpt lat="45.7873904" lon="13.6445614"><ele>138.0</ele><time>2026-04-06T12:46:30.016Z</time></trkpt><trkpt lat="45.7874959" lon="13.6445076"><ele>138.0</ele><time>2026-04-06T12:46:31.015Z</time></trkpt><trkpt lat="45.7876041" lon="13.6444424"><ele>138.8</ele><time>2026-04-06T12:46:32.036Z</time></trkpt><trkpt lat="45.7877071" lon="13.6443588"><ele>139.60000000000002</ele><time>2026-04-06T12:46:33.014Z</time></trkpt><trkpt lat="45.7878064" lon="13.6442763"><ele>140.39999999999998</ele><time>2026-04-06T12:46:34.014Z</time></trkpt><trkpt lat="45.7878946" lon="13.644201"><ele>141.2</ele><time>2026-04-06T12:46:35.013Z</time></trkpt><trkpt lat="45.78798" lon="13.6441302"><ele>142.0</ele><time>2026-04-06T12:46:36.018Z</time></trkpt><trkpt lat="45.7880554" lon="13.6440639"><ele>142.0</ele><time>2026-04-06T12:46:37.015Z</time></trkpt><trkpt lat="45.7881207" lon="13.6439958"><ele>142.0</ele><time>2026-04-06T12:46:38.024Z</time></trkpt><trkpt lat="45.7881831" lon="13.6439521"><ele>142.0</ele><time>2026-04-06T12:46:39.028Z</time></trkpt><trkpt lat="45.788311" lon="13.6439006"><ele>142.0</ele><time>2026-04-06T12:46:41.033Z</time></trkpt><trkpt lat="45.7884109" lon="13.643914"><ele>142.0</ele><time>2026-04-06T12:46:42.014Z</time></trkpt><trkpt lat="45.7885026" lon="13.6439162"><ele>144.33333333333334</ele><time>2026-04-06T12:46:43.02Z</time></trkpt><trkpt lat="45.7885785" lon="13.6439074"><ele>146.66666666666669</ele><time>2026-04-06T12:46:44.02Z</time></trkpt><trkpt lat="45.78868" lon="13.6439067"><ele>149.0</ele><time>2026-04-06T12:46:46.024Z</time></trkpt><trkpt lat="45.7887596" lon="13.6438949"><ele>151.33333333333334</ele><time>2026-04-06T12:46:49.034Z</time></trkpt><trkpt lat="45.7888414" lon="13.6438213"><ele>153.66666666666666</ele><time>2026-04-06T12:46:51.022Z</time></trkpt><trkpt lat="45.7888994" lon="13.6437498"><ele>156.0</ele><time>2026-04-06T12:46:52.01Z</time></trkpt><trkpt lat="45.7889556" lon="13.6436528"><ele>155.0</ele><time>2026-04-06T12:46:53.019Z</time></trkpt><trkpt lat="45.7890072" lon="13.6435451"><ele>154.0</ele><time>2026-04-06T12:46:54.019Z</time></trkpt><trkpt lat="45.7890569" lon="13.643437"><ele>153.0</ele><time>2026-04-06T12:46:55.019Z</time></trkpt><trkpt lat="45.789102" lon="13.6433191"><ele>152.0</ele><time>2026-04-06T12:46:56.023Z</time></trkpt><trkpt lat="45.7891464" lon="13.6432097"><ele>151.0</ele><time>2026-04-06T12:46:57.018Z</time></trkpt><trkpt lat="45.7891958" lon="13.6431189"><ele>150.0</ele><time>2026-04-06T12:46:58.016Z</time></trkpt><trkpt lat="45.7892493" lon="13.643049"><ele>150.0</ele><time>2026-04-06T12:46:59.003Z</time></trkpt><trkpt lat="45.7893015" lon="13.6429936"><ele>150.0</ele><time>2026-04-06T12:47:00.02Z</time></trkpt><trkpt lat="45.7894077" lon="13.6429027"><ele>150.0</ele><time>2026-04-06T12:47:02.013Z</time></trkpt><trkpt lat="45.7894668" lon="13.6428479"><ele>150.0</ele><time>2026-04-06T12:47:03.017Z</time></trkpt><trkpt lat="45.7895304" lon="13.6427837"><ele>150.0</ele><time>2026-04-06T12:47:04.014Z</time></trkpt><trkpt lat="45.7895926" lon="13.642716"><ele>150.0</ele><time>2026-04-06T12:47:05.019Z</time></trkpt><trkpt lat="45.7896479" lon="13.6426433"><ele>151.83333333333334</ele><time>2026-04-06T12:47:06.012Z</time></trkpt><trkpt lat="45.7897002" lon="13.6425718"><ele>153.66666666666666</ele><time>2026-04-06T12:47:07.024Z</time></trkpt><trkpt lat="45.7897466" lon="13.6424917"><ele>155.5</ele><time>2026-04-06T12:47:08.01Z</time></trkpt><trkpt lat="45.7897926" lon="13.6424096"><ele>157.33333333333331</ele><time>2026-04-06T12:47:09.014Z</time></trkpt><trkpt lat="45.7898338" lon="13.6423235"><ele>159.16666666666666</ele><time>2026-04-06T12:47:10.014Z</time></trkpt><trkpt lat="45.7898746" lon="13.6422469"><ele>161.0</ele><time>2026-04-06T12:47:11.013Z</time></trkpt><trkpt lat="45.789946" lon="13.6421039"><ele>160.33333333333331</ele><time>2026-04-06T12:47:13.025Z</time></trkpt><trkpt lat="45.7900178" lon="13.6419568"><ele>159.66666666666666</ele><time>2026-04-06T12:47:15.017Z</time></trkpt><trkpt lat="45.7900553" lon="13.6418809"><ele>159.0</ele><time>2026-04-06T12:47:16.019Z</time></trkpt><trkpt lat="45.7900892" lon="13.641803"><ele>158.33333333333334</ele><time>2026-04-06T12:47:17.02Z</time></trkpt><trkpt lat="45.7901235" lon="13.641711"><ele>157.66666666666669</ele><time>2026-04-06T12:47:18.018Z</time></trkpt><trkpt lat="45.790167" lon="13.6416209"><ele>157.0</ele><time>2026-04-06T12:47:19.022Z</time></trkpt><trkpt lat="45.7902181" lon="13.6415322"><ele>158.5</ele><time>2026-04-06T12:47:20.021Z</time></trkpt><trkpt lat="45.7902659" lon="13.6414469"><ele>160.0</ele><time>2026-04-06T12:47:21.041Z</time></trkpt><trkpt lat="45.7903025" lon="13.6413601"><ele>161.5</ele><time>2026-04-06T12:47:22.018Z</time></trkpt><trkpt lat="45.7903392" lon="13.6412741"><ele>163.0</ele><time>2026-04-06T12:47:23.016Z</time></trkpt><trkpt lat="45.7903801" lon="13.6411918"><ele>164.5</ele><time>2026-04-06T12:47:24.017Z</time></trkpt><trkpt lat="45.7904263" lon="13.6411177"><ele>166.0</ele><time>2026-04-06T12:47:25.018Z</time></trkpt><trkpt lat="45.7905071" lon="13.6409777"><ele>166.0</ele><time>2026-04-06T12:47:27.031Z</time></trkpt><trkpt lat="45.7905504" lon="13.6409079"><ele>166.0</ele><time>2026-04-06T12:47:28.016Z</time></trkpt><trkpt lat="45.7906281" lon="13.6407943"><ele>166.0</ele><time>2026-04-06T12:47:30.022Z</time></trkpt><trkpt lat="45.7907081" lon="13.6406991"><ele>166.0</ele><time>2026-04-06T12:47:32.017Z</time></trkpt><trkpt lat="45.7907607" lon="13.6406484"><ele>166.0</ele><time>2026-04-06T12:47:33.023Z</time></trkpt><trkpt lat="45.7908191" lon="13.6406058"><ele>166.0</ele><time>2026-04-06T12:47:34.01Z</time></trkpt><trkpt lat="45.7908806" lon="13.6405675"><ele>166.0</ele><time>2026-04-06T12:47:35.016Z</time></trkpt><trkpt lat="45.7909409" lon="13.6405262"><ele>166.0</ele><time>2026-04-06T12:47:36.014Z</time></trkpt><trkpt lat="45.7909987" lon="13.6404751"><ele>166.0</ele><time>2026-04-06T12:47:37.022Z</time></trkpt><trkpt lat="45.7910608" lon="13.6404322"><ele>166.0</ele><time>2026-04-06T12:47:38.021Z</time></trkpt><trkpt lat="45.791123" lon="13.6403844"><ele>166.0</ele><time>2026-04-06T12:47:39.017Z</time></trkpt><trkpt lat="45.7911918" lon="13.6403454"><ele>166.0</ele><time>2026-04-06T12:47:40.02Z</time></trkpt><trkpt lat="45.791259" lon="13.6402999"><ele>166.0</ele><time>2026-04-06T12:47:41.009Z</time></trkpt><trkpt lat="45.7913266" lon="13.6402536"><ele>166.33333333333334</ele><time>2026-04-06T12:47:42.027Z</time></trkpt><trkpt lat="45.7913911" lon="13.6402045"><ele>166.66666666666669</ele><time>2026-04-06T12:47:43.012Z</time></trkpt><trkpt lat="45.7914589" lon="13.640168"><ele>167.0</ele><time>2026-04-06T12:47:44.012Z</time></trkpt><trkpt lat="45.7915202" lon="13.640133"><ele>167.33333333333334</ele><time>2026-04-06T12:47:45.012Z</time></trkpt><trkpt lat="45.7915805" lon="13.6401002"><ele>167.66666666666666</ele><time>2026-04-06T12:47:46.008Z</time></trkpt><trkpt lat="45.7916817" lon="13.6400641"><ele>168.0</ele><time>2026-04-06T12:47:48.015Z</time></trkpt><trkpt lat="45.7917777" lon="13.6400565"><ele>168.5</ele><time>2026-04-06T12:47:50.033Z</time></trkpt><trkpt lat="45.7918628" lon="13.6401295"><ele>169.0</ele><time>2026-04-06T12:47:52.009Z</time></trkpt><trkpt lat="45.7919264" lon="13.6402008"><ele>169.5</ele><time>2026-04-06T12:47:54.019Z</time></trkpt><trkpt lat="45.7919712" lon="13.6402681"><ele>170.0</ele><time>2026-04-06T12:47:56.022Z</time></trkpt><trkpt lat="45.7920235" lon="13.6403397"><ele>170.5</ele><time>2026-04-06T12:47:58.03Z</time></trkpt><trkpt lat="45.7920774" lon="13.6404381"><ele>171.0</ele><time>2026-04-06T12:48:00.026Z</time></trkpt><trkpt lat="45.792138" lon="13.6405311"><ele>172.0</ele><time>2026-04-06T12:48:02.012Z</time></trkpt><trkpt lat="45.7921962" lon="13.6406625"><ele>173.0</ele><time>2026-04-06T12:48:04.014Z</time></trkpt><trkpt lat="45.7922586" lon="13.6407951"><ele>174.0</ele><time>2026-04-06T12:48:06.037Z</time></trkpt><trkpt lat="45.7923276" lon="13.6409155"><ele>175.0</ele><time>2026-04-06T12:48:08.034Z</time></trkpt><trkpt lat="45.7924135" lon="13.6410121"><ele>176.0</ele><time>2026-04-06T12:48:10.031Z</time></trkpt><trkpt lat="45.7924672" lon="13.6410598"><ele>176.0</ele><time>2026-04-06T12:48:11.027Z</time></trkpt><trkpt lat="45.7925203" lon="13.6411118"><ele>176.0</ele><time>2026-04-06T12:48:12.035Z</time></trkpt><trkpt lat="45.7926035" lon="13.641224"><ele>176.0</ele><time>2026-04-06T12:48:14.075Z</time></trkpt><trkpt lat="45.7926546" lon="13.6413484"><ele>176.0</ele><time>2026-04-06T12:48:16.035Z</time></trkpt><trkpt lat="45.7926918" lon="13.6414868"><ele>176.0</ele><time>2026-04-06T12:48:18.028Z</time></trkpt><trkpt lat="45.7927419" lon="13.641633"><ele>175.8</ele><time>2026-04-06T12:48:20.03Z</time></trkpt><trkpt lat="45.7927717" lon="13.6417128"><ele>175.60000000000002</ele><time>2026-04-06T12:48:21.034Z</time></trkpt><trkpt lat="45.7928531" lon="13.6418466"><ele>175.4</ele><time>2026-04-06T12:48:23.027Z</time></trkpt><trkpt lat="45.792943" lon="13.6419238"><ele>175.2</ele><time>2026-04-06T12:48:25.033Z</time></trkpt><trkpt lat="45.7930572" lon="13.6419658"><ele>175.0</ele><time>2026-04-06T12:48:27.021Z</time></trkpt><trkpt lat="45.7931248" lon="13.6419828"><ele>174.66666666666669</ele><time>2026-04-06T12:48:28.028Z</time></trkpt><trkpt lat="45.7932047" lon="13.6419756"><ele>174.33333333333334</ele><time>2026-04-06T12:48:29.028Z</time></trkpt><trkpt lat="45.7932934" lon="13.6419751"><ele>174.0</ele><time>2026-04-06T12:48:30.03Z</time></trkpt><trkpt lat="45.7933836" lon="13.6419782"><ele>173.66666666666666</ele><time>2026-04-06T12:48:31.031Z</time></trkpt><trkpt lat="45.7934748" lon="13.6419776"><ele>173.33333333333331</ele><time>2026-04-06T12:48:32.025Z</time></trkpt><trkpt lat="45.7935649" lon="13.6419543"><ele>173.0</ele><time>2026-04-06T12:48:33.044Z</time></trkpt><trkpt lat="45.7936461" lon="13.6419175"><ele>173.66666666666666</ele><time>2026-04-06T12:48:34.04Z</time></trkpt><trkpt lat="45.7937242" lon="13.6418709"><ele>174.33333333333331</ele><time>2026-04-06T12:48:35.033Z</time></trkpt><trkpt lat="45.7937949" lon="13.6418243"><ele>175.0</ele><time>2026-04-06T12:48:36.027Z</time></trkpt><trkpt lat="45.7938692" lon="13.6417856"><ele>175.66666666666666</ele><time>2026-04-06T12:48:37.033Z</time></trkpt><trkpt lat="45.7939485" lon="13.6417654"><ele>176.33333333333334</ele><time>2026-04-06T12:48:38.043Z</time></trkpt><trkpt lat="45.7940291" lon="13.6417539"><ele>177.0</ele><time>2026-04-06T12:48:39.021Z</time></trkpt><trkpt lat="45.7940985" lon="13.641721"><ele>177.0</ele><time>2026-04-06T12:48:40.032Z</time></trkpt><trkpt lat="45.7941655" lon="13.6416638"><ele>177.0</ele><time>2026-04-06T12:48:41.032Z</time></trkpt><trkpt lat="45.7942281" lon="13.6415933"><ele>177.0</ele><time>2026-04-06T12:48:42.028Z</time></trkpt><trkpt lat="45.7942908" lon="13.641527"><ele>177.0</ele><time>2026-04-06T12:48:43.034Z</time></trkpt><trkpt lat="45.794356" lon="13.6414873"><ele>177.0</ele><time>2026-04-06T12:48:44.017Z</time></trkpt><trkpt lat="45.7944232" lon="13.6414531"><ele>177.0</ele><time>2026-04-06T12:48:45.045Z</time></trkpt><trkpt lat="45.7944856" lon="13.6414217"><ele>177.0</ele><time>2026-04-06T12:48:46.033Z</time></trkpt><trkpt lat="45.7945452" lon="13.641386"><ele>177.0</ele><time>2026-04-06T12:48:47.025Z</time></trkpt><trkpt lat="45.7946036" lon="13.6413231"><ele>177.0</ele><time>2026-04-06T12:48:48.03Z</time></trkpt><trkpt lat="45.7946547" lon="13.6412357"><ele>177.0</ele><time>2026-04-06T12:48:49.028Z</time></trkpt><trkpt lat="45.7947034" lon="13.6411367"><ele>177.0</ele><time>2026-04-06T12:48:50.024Z</time></trkpt><trkpt lat="45.794732" lon="13.6410398"><ele>177.0</ele><time>2026-04-06T12:48:51.019Z</time></trkpt><trkpt lat="45.7947599" lon="13.6409551"><ele>177.0</ele><time>2026-04-06T12:48:52.03Z</time></trkpt><trkpt lat="45.7947934" lon="13.640878"><ele>177.0</ele><time>2026-04-06T12:48:53.024Z</time></trkpt><trkpt lat="45.7948428" lon="13.6408039"><ele>177.2</ele><time>2026-04-06T12:48:54.019Z</time></trkpt><trkpt lat="45.7949017" lon="13.6407326"><ele>177.39999999999998</ele><time>2026-04-06T12:48:55.019Z</time></trkpt><trkpt lat="45.7949587" lon="13.6406587"><ele>177.60000000000002</ele><time>2026-04-06T12:48:56.025Z</time></trkpt><trkpt lat="45.7950091" lon="13.6405922"><ele>177.8</ele><time>2026-04-06T12:48:57.02Z</time></trkpt><trkpt lat="45.7951012" lon="13.6404985"><ele>178.0</ele><time>2026-04-06T12:48:59.034Z</time></trkpt><trkpt lat="45.7952114" lon="13.6404242"><ele>177.66666666666669</ele><time>2026-04-06T12:49:01.035Z</time></trkpt><trkpt lat="45.7952728" lon="13.6403852"><ele>177.33333333333334</ele><time>2026-04-06T12:49:02.038Z</time></trkpt><trkpt lat="45.795345" lon="13.6403382"><ele>177.0</ele><time>2026-04-06T12:49:03.024Z</time></trkpt><trkpt lat="45.7954259" lon="13.6402805"><ele>176.66666666666666</ele><time>2026-04-06T12:49:04.031Z</time></trkpt><trkpt lat="45.795524" lon="13.6402353"><ele>176.33333333333331</ele><time>2026-04-06T12:49:05.028Z</time></trkpt><trkpt lat="45.7956255" lon="13.6402097"><ele>176.0</ele><time>2026-04-06T12:49:06.016Z</time></trkpt><trkpt lat="45.7957328" lon="13.6402149"><ele>176.0</ele><time>2026-04-06T12:49:07.016Z</time></trkpt><trkpt lat="45.7958292" lon="13.6402356"><ele>176.0</ele><time>2026-04-06T12:49:08.025Z</time></trkpt><trkpt lat="45.7959301" lon="13.6402759"><ele>176.0</ele><time>2026-04-06T12:49:09.025Z</time></trkpt><trkpt lat="45.7960326" lon="13.6402974"><ele>176.0</ele><time>2026-04-06T12:49:10.034Z</time></trkpt><trkpt lat="45.7961275" lon="13.6402812"><ele>176.0</ele><time>2026-04-06T12:49:11.028Z</time></trkpt><trkpt lat="45.7962258" lon="13.6402465"><ele>176.0</ele><time>2026-04-06T12:49:12.014Z</time></trkpt><trkpt lat="45.7963276" lon="13.6402202"><ele>176.0</ele><time>2026-04-06T12:49:13.029Z</time></trkpt><trkpt lat="45.7964248" lon="13.6402167"><ele>176.0</ele><time>2026-04-06T12:49:14.02Z</time></trkpt><trkpt lat="45.796516" lon="13.640228"><ele>176.0</ele><time>2026-04-06T12:49:15.036Z</time></trkpt><trkpt lat="45.7966043" lon="13.6402507"><ele>176.0</ele><time>2026-04-06T12:49:16.024Z</time></trkpt><trkpt lat="45.7966907" lon="13.6402757"><ele>176.0</ele><time>2026-04-06T12:49:17.02Z</time></trkpt><trkpt lat="45.7967715" lon="13.6402956"><ele>176.0</ele><time>2026-04-06T12:49:18.027Z</time></trkpt><trkpt lat="45.7968468" lon="13.6403206"><ele>176.0</ele><time>2026-04-06T12:49:19.035Z</time></trkpt><trkpt lat="45.796908" lon="13.6403858"><ele>176.0</ele><time>2026-04-06T12:49:20.028Z</time></trkpt><trkpt lat="45.7969546" lon="13.640475"><ele>176.0</ele><time>2026-04-06T12:49:21.026Z</time></trkpt><trkpt lat="45.7969979" lon="13.6405764"><ele>176.0</ele><time>2026-04-06T12:49:22.019Z</time></trkpt><trkpt lat="45.7970328" lon="13.6406835"><ele>175.71428571428572</ele><time>2026-04-06T12:49:23.013Z</time></trkpt><trkpt lat="45.797067" lon="13.6407772"><ele>175.42857142857142</ele><time>2026-04-06T12:49:24.02Z</time></trkpt><trkpt lat="45.7971122" lon="13.6408529"><ele>175.14285714285714</ele><time>2026-04-06T12:49:25.035Z</time></trkpt><trkpt lat="45.7971672" lon="13.640916"><ele>174.85714285714286</ele><time>2026-04-06T12:49:26.02Z</time></trkpt><trkpt lat="45.7972334" lon="13.6409541"><ele>174.57142857142858</ele><time>2026-04-06T12:49:27.023Z</time></trkpt><trkpt lat="45.7973109" lon="13.6409663"><ele>174.28571428571428</ele><time>2026-04-06T12:49:28.009Z</time></trkpt><trkpt lat="45.7973895" lon="13.6409501"><ele>174.0</ele><time>2026-04-06T12:49:29.008Z</time></trkpt><trkpt lat="45.7974538" lon="13.6409019"><ele>174.0</ele><time>2026-04-06T12:49:30.018Z</time></trkpt><trkpt lat="45.7975422" lon="13.6407702"><ele>174.0</ele><time>2026-04-06T12:49:32.019Z</time></trkpt><trkpt lat="45.7975989" lon="13.6407132"><ele>174.0</ele><time>2026-04-06T12:49:33.024Z</time></trkpt><trkpt lat="45.7976653" lon="13.6406573"><ele>174.0</ele><time>2026-04-06T12:49:34.028Z</time></trkpt><trkpt lat="45.7977346" lon="13.6406037"><ele>174.0</ele><time>2026-04-06T12:49:35.024Z</time></trkpt><trkpt lat="45.7978153" lon="13.6405636"><ele>174.0</ele><time>2026-04-06T12:49:36.016Z</time></trkpt><trkpt lat="45.7978949" lon="13.6405374"><ele>173.71428571428572</ele><time>2026-04-06T12:49:37.02Z</time></trkpt><trkpt lat="45.7979663" lon="13.6405145"><ele>173.42857142857144</ele><time>2026-04-06T12:49:38.031Z</time></trkpt><trkpt lat="45.7980339" lon="13.6404812"><ele>173.14285714285717</ele><time>2026-04-06T12:49:39.023Z</time></trkpt><trkpt lat="45.7980987" lon="13.6404505"><ele>172.85714285714286</ele><time>2026-04-06T12:49:40.018Z</time></trkpt><trkpt lat="45.7981678" lon="13.6404218"><ele>172.57142857142858</ele><time>2026-04-06T12:49:41.026Z</time></trkpt><trkpt lat="45.7982469" lon="13.6404045"><ele>172.2857142857143</ele><time>2026-04-06T12:49:42.013Z</time></trkpt><trkpt lat="45.7983298" lon="13.6403993"><ele>172.0</ele><time>2026-04-06T12:49:43.027Z</time></trkpt><trkpt lat="45.7984232" lon="13.6404279"><ele>170.83333333333334</ele><time>2026-04-06T12:49:44.024Z</time></trkpt><trkpt lat="45.7985081" lon="13.6404717"><ele>169.66666666666669</ele><time>2026-04-06T12:49:45.016Z</time></trkpt><trkpt lat="45.7985937" lon="13.6405144"><ele>168.5</ele><time>2026-04-06T12:49:46.025Z</time></trkpt><trkpt lat="45.7986762" lon="13.6405299"><ele>167.33333333333334</ele><time>2026-04-06T12:49:47.017Z</time></trkpt><trkpt lat="45.7987533" lon="13.6405166"><ele>166.16666666666666</ele><time>2026-04-06T12:49:48.013Z</time></trkpt><trkpt lat="45.7988312" lon="13.6404808"><ele>165.0</ele><time>2026-04-06T12:49:49.012Z</time></trkpt><trkpt lat="45.7989069" lon="13.6404303"><ele>165.0</ele><time>2026-04-06T12:49:50.009Z</time></trkpt><trkpt lat="45.7989798" lon="13.6403705"><ele>165.0</ele><time>2026-04-06T12:49:51.026Z</time></trkpt><trkpt lat="45.799061" lon="13.6403052"><ele>165.0</ele><time>2026-04-06T12:49:52.014Z</time></trkpt><trkpt lat="45.7991423" lon="13.6402428"><ele>165.0</ele><time>2026-04-06T12:49:53.017Z</time></trkpt><trkpt lat="45.7992265" lon="13.6401814"><ele>165.0</ele><time>2026-04-06T12:49:54.015Z</time></trkpt><trkpt lat="45.799306" lon="13.6401244"><ele>164.66666666666666</ele><time>2026-04-06T12:49:55.016Z</time></trkpt><trkpt lat="45.7993798" lon="13.6400757"><ele>164.33333333333334</ele><time>2026-04-06T12:49:56.025Z</time></trkpt><trkpt lat="45.7994567" lon="13.6400289"><ele>164.0</ele><time>2026-04-06T12:49:57.032Z</time></trkpt><trkpt lat="45.7995308" lon="13.6399748"><ele>163.66666666666669</ele><time>2026-04-06T12:49:58.029Z</time></trkpt><trkpt lat="45.7996005" lon="13.6399142"><ele>163.33333333333334</ele><time>2026-04-06T12:49:59.013Z</time></trkpt><trkpt lat="45.7996721" lon="13.6398463"><ele>163.0</ele><time>2026-04-06T12:50:00.012Z</time></trkpt><trkpt lat="45.7997347" lon="13.6397731"><ele>163.0</ele><time>2026-04-06T12:50:01.015Z</time></trkpt><trkpt lat="45.7997959" lon="13.6397066"><ele>163.0</ele><time>2026-04-06T12:50:02.021Z</time></trkpt><trkpt lat="45.799865" lon="13.6396617"><ele>163.0</ele><time>2026-04-06T12:50:03.032Z</time></trkpt><trkpt lat="45.7999374" lon="13.6396451"><ele>163.0</ele><time>2026-04-06T12:50:04.025Z</time></trkpt><trkpt lat="45.8000112" lon="13.6396336"><ele>163.0</ele><time>2026-04-06T12:50:05.028Z</time></trkpt><trkpt lat="45.8000822" lon="13.6396197"><ele>163.0</ele><time>2026-04-06T12:50:06.019Z</time></trkpt><trkpt lat="45.8001461" lon="13.6395902"><ele>163.0</ele><time>2026-04-06T12:50:07.024Z</time></trkpt><trkpt lat="45.8002105" lon="13.6395436"><ele>161.83333333333334</ele><time>2026-04-06T12:50:08.015Z</time></trkpt><trkpt lat="45.800335" lon="13.6395233"><ele>160.66666666666669</ele><time>2026-04-06T12:50:10.014Z</time></trkpt><trkpt lat="45.8003971" lon="13.6395492"><ele>159.5</ele><time>2026-04-06T12:50:11.009Z</time></trkpt><trkpt lat="45.8004557" lon="13.6395881"><ele>158.33333333333334</ele><time>2026-04-06T12:50:12.01Z</time></trkpt><trkpt lat="45.8005212" lon="13.6396284"><ele>157.16666666666666</ele><time>2026-04-06T12:50:13.021Z</time></trkpt><trkpt lat="45.8005875" lon="13.6396726"><ele>156.0</ele><time>2026-04-06T12:50:14.03Z</time></trkpt><trkpt lat="45.8006491" lon="13.6397227"><ele>156.0</ele><time>2026-04-06T12:50:15.028Z</time></trkpt><trkpt lat="45.8007069" lon="13.6397807"><ele>156.0</ele><time>2026-04-06T12:50:16.024Z</time></trkpt><trkpt lat="45.8007621" lon="13.6398419"><ele>156.0</ele><time>2026-04-06T12:50:17.034Z</time></trkpt><trkpt lat="45.8008227" lon="13.6398974"><ele>156.0</ele><time>2026-04-06T12:50:18.02Z</time></trkpt><trkpt lat="45.8008931" lon="13.63993"><ele>156.0</ele><time>2026-04-06T12:50:19.011Z</time></trkpt><trkpt lat="45.8009679" lon="13.6399435"><ele>156.0</ele><time>2026-04-06T12:50:20.016Z</time></trkpt><trkpt lat="45.8010433" lon="13.6399491"><ele>156.0</ele><time>2026-04-06T12:50:21.005Z</time></trkpt><trkpt lat="45.8011172" lon="13.6399507"><ele>155.0</ele><time>2026-04-06T12:50:22.022Z</time></trkpt><trkpt lat="45.8011865" lon="13.6399559"><ele>154.0</ele><time>2026-04-06T12:50:23.03Z</time></trkpt><trkpt lat="45.8012591" lon="13.6399714"><ele>153.0</ele><time>2026-04-06T12:50:24.033Z</time></trkpt><trkpt lat="45.8013295" lon="13.6399869"><ele>152.0</ele><time>2026-04-06T12:50:25.025Z</time></trkpt><trkpt lat="45.8014009" lon="13.6400054"><ele>151.0</ele><time>2026-04-06T12:50:26.024Z</time></trkpt><trkpt lat="45.8014755" lon="13.6400586"><ele>150.0</ele><time>2026-04-06T12:50:27.031Z</time></trkpt><trkpt lat="45.8015566" lon="13.6401395"><ele>150.0</ele><time>2026-04-06T12:50:28.025Z</time></trkpt><trkpt lat="45.8016283" lon="13.6402351"><ele>150.0</ele><time>2026-04-06T12:50:29.009Z</time></trkpt><trkpt lat="45.8017027" lon="13.6403318"><ele>150.0</ele><time>2026-04-06T12:50:30.021Z</time></trkpt><trkpt lat="45.8017814" lon="13.6404267"><ele>150.0</ele><time>2026-04-06T12:50:31.022Z</time></trkpt><trkpt lat="45.8018617" lon="13.6405271"><ele>150.0</ele><time>2026-04-06T12:50:32.013Z</time></trkpt><trkpt lat="45.801935" lon="13.6406348"><ele>149.0</ele><time>2026-04-06T12:50:33.009Z</time></trkpt><trkpt lat="45.8020046" lon="13.6407328"><ele>148.0</ele><time>2026-04-06T12:50:34.02Z</time></trkpt><trkpt lat="45.80207" lon="13.6408233"><ele>147.0</ele><time>2026-04-06T12:50:35.022Z</time></trkpt><trkpt lat="45.8021251" lon="13.6409255"><ele>146.0</ele><time>2026-04-06T12:50:36.017Z</time></trkpt><trkpt lat="45.8021649" lon="13.6410308"><ele>145.0</ele><time>2026-04-06T12:50:37.027Z</time></trkpt><trkpt lat="45.8021921" lon="13.6411371"><ele>144.0</ele><time>2026-04-06T12:50:38.024Z</time></trkpt><trkpt lat="45.8022154" lon="13.6412445"><ele>144.0</ele><time>2026-04-06T12:50:39.012Z</time></trkpt><trkpt lat="45.8022629" lon="13.6413197"><ele>144.0</ele><time>2026-04-06T12:50:40.027Z</time></trkpt><trkpt lat="45.8023291" lon="13.6413648"><ele>144.0</ele><time>2026-04-06T12:50:41.011Z</time></trkpt><trkpt lat="45.802412" lon="13.6413871"><ele>144.0</ele><time>2026-04-06T12:50:42.012Z</time></trkpt><trkpt lat="45.8024994" lon="13.6414063"><ele>144.0</ele><time>2026-04-06T12:50:43.001Z</time></trkpt><trkpt lat="45.8025863" lon="13.6414335"><ele>144.0</ele><time>2026-04-06T12:50:44.013Z</time></trkpt><trkpt lat="45.8026766" lon="13.6414925"><ele>142.2</ele><time>2026-04-06T12:50:45.015Z</time></trkpt><trkpt lat="45.802761" lon="13.641588"><ele>140.4</ele><time>2026-04-06T12:50:46.008Z</time></trkpt><trkpt lat="45.8028402" lon="13.6416751"><ele>138.6</ele><time>2026-04-06T12:50:47.022Z</time></trkpt><trkpt lat="45.8029212" lon="13.6417551"><ele>136.8</ele><time>2026-04-06T12:50:48.015Z</time></trkpt><trkpt lat="45.8029984" lon="13.641825"><ele>135.0</ele><time>2026-04-06T12:50:49.023Z</time></trkpt><trkpt lat="45.8030723" lon="13.6418976"><ele>135.2</ele><time>2026-04-06T12:50:50.01Z</time></trkpt><trkpt lat="45.8031426" lon="13.6419849"><ele>135.4</ele><time>2026-04-06T12:50:51.017Z</time></trkpt><trkpt lat="45.8032069" lon="13.6420936"><ele>135.6</ele><time>2026-04-06T12:50:52.007Z</time></trkpt><trkpt lat="45.803268" lon="13.6422024"><ele>135.8</ele><time>2026-04-06T12:50:53.017Z</time></trkpt><trkpt lat="45.8033295" lon="13.642304"><ele>136.0</ele><time>2026-04-06T12:50:54.026Z</time></trkpt><trkpt lat="45.8034014" lon="13.6423787"><ele>136.0</ele><time>2026-04-06T12:50:55.017Z</time></trkpt><trkpt lat="45.803476" lon="13.6424403"><ele>136.0</ele><time>2026-04-06T12:50:56.011Z</time></trkpt><trkpt lat="45.8035412" lon="13.6425114"><ele>136.0</ele><time>2026-04-06T12:50:57.029Z</time></trkpt><trkpt lat="45.80359" lon="13.6425945"><ele>136.0</ele><time>2026-04-06T12:50:58.018Z</time></trkpt><trkpt lat="45.8036294" lon="13.6427128"><ele>136.0</ele><time>2026-04-06T12:50:59.014Z</time></trkpt><trkpt lat="45.8036686" lon="13.6428503"><ele>136.0</ele><time>2026-04-06T12:51:00.007Z</time></trkpt><trkpt lat="45.8036944" lon="13.6429838"><ele>136.0</ele><time>2026-04-06T12:51:01.02Z</time></trkpt><trkpt lat="45.8037035" lon="13.643113"><ele>136.0</ele><time>2026-04-06T12:51:02.013Z</time></trkpt><trkpt lat="45.8037163" lon="13.6432333"><ele>136.0</ele><time>2026-04-06T12:51:03.026Z</time></trkpt><trkpt lat="45.803754" lon="13.6433356"><ele>136.0</ele><time>2026-04-06T12:51:04.025Z</time></trkpt><trkpt lat="45.8038109" lon="13.6434303"><ele>136.0</ele><time>2026-04-06T12:51:05.01Z</time></trkpt><trkpt lat="45.8038567" lon="13.6435302"><ele>136.0</ele><time>2026-04-06T12:51:06.018Z</time></trkpt><trkpt lat="45.8038842" lon="13.6436303"><ele>137.0</ele><time>2026-04-06T12:51:07.014Z</time></trkpt><trkpt lat="45.8038873" lon="13.643742"><ele>138.0</ele><time>2026-04-06T12:51:08.023Z</time></trkpt><trkpt lat="45.8038752" lon="13.6438485"><ele>139.0</ele><time>2026-04-06T12:51:09.009Z</time></trkpt><trkpt lat="45.8038409" lon="13.6439667"><ele>140.0</ele><time>2026-04-06T12:51:10.003Z</time></trkpt><trkpt lat="45.8037904" lon="13.6440735"><ele>141.0</ele><time>2026-04-06T12:51:11.014Z</time></trkpt><trkpt lat="45.8037419" lon="13.6441799"><ele>142.0</ele><time>2026-04-06T12:51:12.019Z</time></trkpt><trkpt lat="45.8036811" lon="13.644277"><ele>142.0</ele><time>2026-04-06T12:51:13.017Z</time></trkpt><trkpt lat="45.8036076" lon="13.6443531"><ele>142.0</ele><time>2026-04-06T12:51:14.013Z</time></trkpt><trkpt lat="45.8035378" lon="13.6444206"><ele>142.0</ele><time>2026-04-06T12:51:15.014Z</time></trkpt><trkpt lat="45.803456" lon="13.6445059"><ele>142.0</ele><time>2026-04-06T12:51:16.011Z</time></trkpt><trkpt lat="45.8033748" lon="13.6445977"><ele>142.0</ele><time>2026-04-06T12:51:17.016Z</time></trkpt><trkpt lat="45.8032795" lon="13.6446854"><ele>143.6</ele><time>2026-04-06T12:51:18.028Z</time></trkpt><trkpt lat="45.8031789" lon="13.6447501"><ele>145.2</ele><time>2026-04-06T12:51:19.008Z</time></trkpt><trkpt lat="45.8030825" lon="13.6448075"><ele>146.8</ele><time>2026-04-06T12:51:20.003Z</time></trkpt><trkpt lat="45.8030025" lon="13.644855"><ele>148.4</ele><time>2026-04-06T12:51:21.019Z</time></trkpt><trkpt lat="45.8029288" lon="13.6449244"><ele>150.0</ele><time>2026-04-06T12:51:22.009Z</time></trkpt><trkpt lat="45.8028723" lon="13.6449989"><ele>150.0</ele><time>2026-04-06T12:51:23.016Z</time></trkpt><trkpt lat="45.8028147" lon="13.6450934"><ele>150.0</ele><time>2026-04-06T12:51:25.02Z</time></trkpt><trkpt lat="45.8028127" lon="13.6452198"><ele>150.0</ele><time>2026-04-06T12:52:34.031Z</time></trkpt><trkpt lat="45.8028292" lon="13.6453956"><ele>150.0</ele><time>2026-04-06T12:52:36.018Z</time></trkpt><trkpt lat="45.8028437" lon="13.6454973"><ele>150.0</ele><time>2026-04-06T12:52:37.012Z</time></trkpt><trkpt lat="45.8028482" lon="13.6456044"><ele>150.0</ele><time>2026-04-06T12:52:38.01Z</time></trkpt><trkpt lat="45.8028498" lon="13.6457327"><ele>149.8</ele><time>2026-04-06T12:52:39.024Z</time></trkpt><trkpt lat="45.8028458" lon="13.6458768"><ele>149.6</ele><time>2026-04-06T12:52:40.016Z</time></trkpt><trkpt lat="45.8028419" lon="13.6460179"><ele>149.4</ele><time>2026-04-06T12:52:41.021Z</time></trkpt><trkpt lat="45.8028522" lon="13.6461544"><ele>149.2</ele><time>2026-04-06T12:52:42.023Z</time></trkpt><trkpt lat="45.8028805" lon="13.6462879"><ele>149.0</ele><time>2026-04-06T12:52:43.024Z</time></trkpt><trkpt lat="45.8029179" lon="13.646427"><ele>148.8</ele><time>2026-04-06T12:52:44.019Z</time></trkpt><trkpt lat="45.8029289" lon="13.6465575"><ele>148.60000000000002</ele><time>2026-04-06T12:52:45.024Z</time></trkpt><trkpt lat="45.8029059" lon="13.6466848"><ele>148.4</ele><time>2026-04-06T12:52:46.012Z</time></trkpt><trkpt lat="45.8028616" lon="13.6467969"><ele>148.20000000000002</ele><time>2026-04-06T12:52:47.01Z</time></trkpt><trkpt lat="45.8028136" lon="13.6469062"><ele>148.0</ele><time>2026-04-06T12:52:48.017Z</time></trkpt><trkpt lat="45.8027751" lon="13.6470182"><ele>147.8</ele><time>2026-04-06T12:52:49.023Z</time></trkpt><trkpt lat="45.8027532" lon="13.6471486"><ele>147.60000000000002</ele><time>2026-04-06T12:52:50.023Z</time></trkpt><trkpt lat="45.8027362" lon="13.6472931"><ele>147.39999999999998</ele><time>2026-04-06T12:52:51.007Z</time></trkpt><trkpt lat="45.8027116" lon="13.6474254"><ele>147.2</ele><time>2026-04-06T12:52:52.017Z</time></trkpt><trkpt lat="45.8026879" lon="13.647568"><ele>147.0</ele><time>2026-04-06T12:52:53.016Z</time></trkpt><trkpt lat="45.8026746" lon="13.6477105"><ele>146.66666666666666</ele><time>2026-04-06T12:52:54.021Z</time></trkpt><trkpt lat="45.802671" lon="13.6478389"><ele>146.33333333333334</ele><time>2026-04-06T12:52:55.018Z</time></trkpt><trkpt lat="45.8026797" lon="13.6479665"><ele>146.0</ele><time>2026-04-06T12:52:56.012Z</time></trkpt><trkpt lat="45.8026987" lon="13.6480969"><ele>145.66666666666669</ele><time>2026-04-06T12:52:57.018Z</time></trkpt><trkpt lat="45.8026988" lon="13.6482151"><ele>145.33333333333334</ele><time>2026-04-06T12:52:58.011Z</time></trkpt><trkpt lat="45.8026738" lon="13.6483449"><ele>145.0</ele><time>2026-04-06T12:52:59.014Z</time></trkpt><trkpt lat="45.8026486" lon="13.6484922"><ele>148.0</ele><time>2026-04-06T12:53:00.005Z</time></trkpt><trkpt lat="45.8026225" lon="13.6486333"><ele>151.0</ele><time>2026-04-06T12:53:01.019Z</time></trkpt><trkpt lat="45.8025864" lon="13.6487778"><ele>154.0</ele><time>2026-04-06T12:53:02.018Z</time></trkpt><trkpt lat="45.8025369" lon="13.6489169"><ele>157.0</ele><time>2026-04-06T12:53:03.012Z</time></trkpt><trkpt lat="45.802487" lon="13.6490468"><ele>160.0</ele><time>2026-04-06T12:53:04.014Z</time></trkpt><trkpt lat="45.8024523" lon="13.6491674"><ele>160.0</ele><time>2026-04-06T12:53:05.013Z</time></trkpt><trkpt lat="45.8024372" lon="13.6492703"><ele>160.0</ele><time>2026-04-06T12:53:06.009Z</time></trkpt><trkpt lat="45.8024506" lon="13.6493846"><ele>160.0</ele><time>2026-04-06T12:53:07.015Z</time></trkpt><trkpt lat="45.8024859" lon="13.6495228"><ele>160.0</ele><time>2026-04-06T12:53:08.008Z</time></trkpt><trkpt lat="45.8025252" lon="13.6496605"><ele>160.0</ele><time>2026-04-06T12:53:09.012Z</time></trkpt><trkpt lat="45.8025439" lon="13.6498034"><ele>160.0</ele><time>2026-04-06T12:53:10.012Z</time></trkpt><trkpt lat="45.802565" lon="13.6499542"><ele>160.0</ele><time>2026-04-06T12:53:11.01Z</time></trkpt><trkpt lat="45.8025788" lon="13.6501068"><ele>160.0</ele><time>2026-04-06T12:53:12.012Z</time></trkpt><trkpt lat="45.8025828" lon="13.6502588"><ele>160.0</ele><time>2026-04-06T12:53:13.015Z</time></trkpt><trkpt lat="45.8025699" lon="13.6504083"><ele>160.0</ele><time>2026-04-06T12:53:14.008Z</time></trkpt><trkpt lat="45.8025487" lon="13.6505621"><ele>160.4</ele><time>2026-04-06T12:53:15.016Z</time></trkpt><trkpt lat="45.8025401" lon="13.6507121"><ele>160.8</ele><time>2026-04-06T12:53:16.024Z</time></trkpt><trkpt lat="45.802538" lon="13.6508621"><ele>161.2</ele><time>2026-04-06T12:53:17.015Z</time></trkpt><trkpt lat="45.8025495" lon="13.6510228"><ele>161.6</ele><time>2026-04-06T12:53:18.012Z</time></trkpt><trkpt lat="45.8025696" lon="13.6511907"><ele>162.0</ele><time>2026-04-06T12:53:19.025Z</time></trkpt><trkpt lat="45.8025925" lon="13.6513485"><ele>162.25</ele><time>2026-04-06T12:53:20.015Z</time></trkpt><trkpt lat="45.8026088" lon="13.6515032"><ele>162.5</ele><time>2026-04-06T12:53:21.024Z</time></trkpt><trkpt lat="45.8026198" lon="13.6516669"><ele>162.75</ele><time>2026-04-06T12:53:22.016Z</time></trkpt><trkpt lat="45.8026261" lon="13.6518332"><ele>163.0</ele><time>2026-04-06T12:53:23.021Z</time></trkpt><trkpt lat="45.8026286" lon="13.6519954"><ele>163.4</ele><time>2026-04-06T12:53:24.017Z</time></trkpt><trkpt lat="45.8026288" lon="13.6521586"><ele>163.8</ele><time>2026-04-06T12:53:25.013Z</time></trkpt><trkpt lat="45.8026228" lon="13.6523178"><ele>164.2</ele><time>2026-04-06T12:53:26.014Z</time></trkpt><trkpt lat="45.8026129" lon="13.6524711"><ele>164.6</ele><time>2026-04-06T12:53:27.017Z</time></trkpt><trkpt lat="45.8025917" lon="13.6526183"><ele>165.0</ele><time>2026-04-06T12:53:28.029Z</time></trkpt><trkpt lat="45.8025645" lon="13.6527646"><ele>165.8</ele><time>2026-04-06T12:53:29.015Z</time></trkpt><trkpt lat="45.8025425" lon="13.652902"><ele>166.6</ele><time>2026-04-06T12:53:30.022Z</time></trkpt><trkpt lat="45.8025293" lon="13.6530463"><ele>167.39999999999998</ele><time>2026-04-06T12:53:31.016Z</time></trkpt><trkpt lat="45.8025341" lon="13.6531816"><ele>168.2</ele><time>2026-04-06T12:53:32.017Z</time></trkpt><trkpt lat="45.8025492" lon="13.6533133"><ele>169.0</ele><time>2026-04-06T12:53:33.013Z</time></trkpt><trkpt lat="45.8025661" lon="13.6534354"><ele>169.0</ele><time>2026-04-06T12:53:34.009Z</time></trkpt><trkpt lat="45.8025384" lon="13.6535461"><ele>169.0</ele><time>2026-04-06T12:53:35.013Z</time></trkpt><trkpt lat="45.8024817" lon="13.653641"><ele>169.0</ele><time>2026-04-06T12:53:36.001Z</time></trkpt><trkpt lat="45.8024306" lon="13.6537405"><ele>169.0</ele><time>2026-04-06T12:53:37.01Z</time></trkpt><trkpt lat="45.8023921" lon="13.6538479"><ele>169.0</ele><time>2026-04-06T12:53:38.011Z</time></trkpt><trkpt lat="45.802366" lon="13.6539726"><ele>169.0</ele><time>2026-04-06T12:53:39.018Z</time></trkpt><trkpt lat="45.8023497" lon="13.6541019"><ele>168.6</ele><time>2026-04-06T12:53:40.014Z</time></trkpt><trkpt lat="45.8023343" lon="13.6542416"><ele>168.2</ele><time>2026-04-06T12:53:41.011Z</time></trkpt><trkpt lat="45.8023285" lon="13.6543972"><ele>167.79999999999998</ele><time>2026-04-06T12:53:42.016Z</time></trkpt><trkpt lat="45.802315" lon="13.6545632"><ele>167.39999999999998</ele><time>2026-04-06T12:53:43.015Z</time></trkpt><trkpt lat="45.8022957" lon="13.6547336"><ele>167.0</ele><time>2026-04-06T12:53:44.012Z</time></trkpt><trkpt lat="45.8022853" lon="13.6549067"><ele>167.0</ele><time>2026-04-06T12:53:45.009Z</time></trkpt><trkpt lat="45.8022808" lon="13.6550904"><ele>167.0</ele><time>2026-04-06T12:53:46.024Z</time></trkpt><trkpt lat="45.802285" lon="13.655272"><ele>167.0</ele><time>2026-04-06T12:53:47.016Z</time></trkpt><trkpt lat="45.8022874" lon="13.6554568"><ele>167.0</ele><time>2026-04-06T12:53:48.013Z</time></trkpt><trkpt lat="45.8022957" lon="13.6556461"><ele>166.5</ele><time>2026-04-06T12:53:49.018Z</time></trkpt><trkpt lat="45.8023108" lon="13.6558236"><ele>166.0</ele><time>2026-04-06T12:53:50.021Z</time></trkpt><trkpt lat="45.8023213" lon="13.6560044"><ele>165.5</ele><time>2026-04-06T12:53:51.022Z</time></trkpt><trkpt lat="45.8023238" lon="13.6561722"><ele>165.0</ele><time>2026-04-06T12:53:52.009Z</time></trkpt><trkpt lat="45.8023119" lon="13.6563315"><ele>164.25</ele><time>2026-04-06T12:53:53.019Z</time></trkpt><trkpt lat="45.802296" lon="13.6564916"><ele>163.5</ele><time>2026-04-06T12:53:54.012Z</time></trkpt><trkpt lat="45.8022866" lon="13.6566508"><ele>162.75</ele><time>2026-04-06T12:53:55.024Z</time></trkpt><trkpt lat="45.8022979" lon="13.6568181"><ele>162.0</ele><time>2026-04-06T12:53:56.01Z</time></trkpt><trkpt lat="45.8023113" lon="13.6569803"><ele>162.0</ele><time>2026-04-06T12:53:57.011Z</time></trkpt><trkpt lat="45.8022978" lon="13.6571369"><ele>162.0</ele><time>2026-04-06T12:53:58.01Z</time></trkpt><trkpt lat="45.8022713" lon="13.6572951"><ele>162.0</ele><time>2026-04-06T12:53:59.016Z</time></trkpt><trkpt lat="45.8022459" lon="13.6574561"><ele>162.0</ele><time>2026-04-06T12:54:00.015Z</time></trkpt><trkpt lat="45.8022257" lon="13.6576089"><ele>162.0</ele><time>2026-04-06T12:54:01.024Z</time></trkpt><trkpt lat="45.8021949" lon="13.6577617"><ele>162.39999999999998</ele><time>2026-04-06T12:54:02.022Z</time></trkpt><trkpt lat="45.8021497" lon="13.6579098"><ele>162.79999999999998</ele><time>2026-04-06T12:54:03.009Z</time></trkpt><trkpt lat="45.8021093" lon="13.6580539"><ele>163.2</ele><time>2026-04-06T12:54:04.006Z</time></trkpt><trkpt lat="45.8020763" lon="13.6581914"><ele>163.6</ele><time>2026-04-06T12:54:05.012Z</time></trkpt><trkpt lat="45.8020498" lon="13.6583227"><ele>164.0</ele><time>2026-04-06T12:54:06.011Z</time></trkpt><trkpt lat="45.8020318" lon="13.6584491"><ele>164.0</ele><time>2026-04-06T12:54:07.017Z</time></trkpt><trkpt lat="45.8020397" lon="13.6585571"><ele>164.0</ele><time>2026-04-06T12:54:08.013Z</time></trkpt><trkpt lat="45.802072" lon="13.6586547"><ele>164.0</ele><time>2026-04-06T12:54:09.005Z</time></trkpt><trkpt lat="45.8021217" lon="13.6587335"><ele>164.0</ele><time>2026-04-06T12:54:10.01Z</time></trkpt><trkpt lat="45.8021769" lon="13.6588229"><ele>164.0</ele><time>2026-04-06T12:54:11.003Z</time></trkpt><trkpt lat="45.8022287" lon="13.6589315"><ele>164.0</ele><time>2026-04-06T12:54:12.013Z</time></trkpt><trkpt lat="45.8022751" lon="13.6590592"><ele>163.79999999999998</ele><time>2026-04-06T12:54:13.014Z</time></trkpt><trkpt lat="45.8023178" lon="13.659188"><ele>163.6</ele><time>2026-04-06T12:54:14.006Z</time></trkpt><trkpt lat="45.8023576" lon="13.6593319"><ele>163.4</ele><time>2026-04-06T12:54:15.001Z</time></trkpt><trkpt lat="45.8023863" lon="13.6594805"><ele>163.2</ele><time>2026-04-06T12:54:16.011Z</time></trkpt><trkpt lat="45.8024055" lon="13.6596389"><ele>163.0</ele><time>2026-04-06T12:54:17.006Z</time></trkpt><trkpt lat="45.8024186" lon="13.6597911"><ele>162.33333333333334</ele><time>2026-04-06T12:54:18.007Z</time></trkpt><trkpt lat="45.8024255" lon="13.6599328"><ele>161.66666666666669</ele><time>2026-04-06T12:54:19.019Z</time></trkpt><trkpt lat="45.8024438" lon="13.6600633"><ele>161.0</ele><time>2026-04-06T12:54:20.003Z</time></trkpt><trkpt lat="45.8024789" lon="13.6601716"><ele>160.33333333333334</ele><time>2026-04-06T12:54:21.008Z</time></trkpt><trkpt lat="45.8025346" lon="13.6602562"><ele>159.66666666666666</ele><time>2026-04-06T12:54:22.003Z</time></trkpt><trkpt lat="45.8026001" lon="13.6603251"><ele>159.0</ele><time>2026-04-06T12:54:23.006Z</time></trkpt><trkpt lat="45.8026824" lon="13.660388"><ele>157.6</ele><time>2026-04-06T12:54:24.005Z</time></trkpt><trkpt lat="45.8027732" lon="13.6604499"><ele>156.2</ele><time>2026-04-06T12:54:25.008Z</time></trkpt><trkpt lat="45.8028542" lon="13.6605279"><ele>154.79999999999998</ele><time>2026-04-06T12:54:26.011Z</time></trkpt><trkpt lat="45.8029126" lon="13.6606281"><ele>153.4</ele><time>2026-04-06T12:54:27.015Z</time></trkpt><trkpt lat="45.8029431" lon="13.6607375"><ele>152.0</ele><time>2026-04-06T12:54:28.005Z</time></trkpt><trkpt lat="45.8029486" lon="13.660871"><ele>152.0</ele><time>2026-04-06T12:54:29.016Z</time></trkpt><trkpt lat="45.802935" lon="13.6610399"><ele>152.0</ele><time>2026-04-06T12:54:30.001Z</time></trkpt><trkpt lat="45.8029258" lon="13.6612052"><ele>152.0</ele><time>2026-04-06T12:54:31.008Z</time></trkpt><trkpt lat="45.8029231" lon="13.6613566"><ele>152.0</ele><time>2026-04-06T12:54:32.005Z</time></trkpt><trkpt lat="45.8029176" lon="13.6614663"><ele>152.0</ele><time>2026-04-06T12:54:33.02Z</time></trkpt><trkpt lat="45.8028826" lon="13.6615632"><ele>151.83333333333331</ele><time>2026-04-06T12:54:34.002Z</time></trkpt><trkpt lat="45.8028422" lon="13.6616677"><ele>151.66666666666666</ele><time>2026-04-06T12:54:35.006Z</time></trkpt><trkpt lat="45.8028126" lon="13.66178"><ele>151.5</ele><time>2026-04-06T12:54:36.019Z</time></trkpt><trkpt lat="45.8027887" lon="13.6619109"><ele>151.33333333333334</ele><time>2026-04-06T12:54:37.008Z</time></trkpt><trkpt lat="45.802782" lon="13.6620287"><ele>151.16666666666669</ele><time>2026-04-06T12:54:38.026Z</time></trkpt><trkpt lat="45.8027723" lon="13.66212"><ele>151.0</ele><time>2026-04-06T12:54:39.016Z</time></trkpt><trkpt lat="45.802728" lon="13.6621959"><ele>151.0</ele><time>2026-04-06T12:54:40.013Z</time></trkpt><trkpt lat="45.8026679" lon="13.6622663"><ele>151.0</ele><time>2026-04-06T12:54:41.01Z</time></trkpt><trkpt lat="45.80259" lon="13.6623154"><ele>151.0</ele><time>2026-04-06T12:54:42.006Z</time></trkpt><trkpt lat="45.8025015" lon="13.6623601"><ele>151.0</ele><time>2026-04-06T12:54:43.015Z</time></trkpt><trkpt lat="45.802416" lon="13.6624206"><ele>151.0</ele><time>2026-04-06T12:54:44.01Z</time></trkpt><trkpt lat="45.802355" lon="13.6625061"><ele>151.0</ele><time>2026-04-06T12:54:45.003Z</time></trkpt><trkpt lat="45.8023036" lon="13.6626288"><ele>152.4</ele><time>2026-04-06T12:54:45.999Z</time></trkpt><trkpt lat="45.8022486" lon="13.6627412"><ele>153.8</ele><time>2026-04-06T12:54:47.007Z</time></trkpt><trkpt lat="45.8021959" lon="13.6628428"><ele>155.20000000000002</ele><time>2026-04-06T12:54:48.018Z</time></trkpt><trkpt lat="45.8021538" lon="13.6629548"><ele>156.6</ele><time>2026-04-06T12:54:49.012Z</time></trkpt><trkpt lat="45.8021263" lon="13.6631152"><ele>158.0</ele><time>2026-04-06T12:54:50.018Z</time></trkpt><trkpt lat="45.802108" lon="13.6632948"><ele>158.0</ele><time>2026-04-06T12:54:51.005Z</time></trkpt><trkpt lat="45.8020795" lon="13.6634694"><ele>158.0</ele><time>2026-04-06T12:54:52.014Z</time></trkpt><trkpt lat="45.8020549" lon="13.6636404"><ele>158.0</ele><time>2026-04-06T12:54:53.012Z</time></trkpt><trkpt lat="45.8020298" lon="13.6638051"><ele>158.0</ele><time>2026-04-06T12:54:54.026Z</time></trkpt><trkpt lat="45.8020053" lon="13.6639653"><ele>158.0</ele><time>2026-04-06T12:54:55.016Z</time></trkpt><trkpt lat="45.80199" lon="13.6641234"><ele>158.0</ele><time>2026-04-06T12:54:56.008Z</time></trkpt><trkpt lat="45.8019892" lon="13.664272"><ele>158.0</ele><time>2026-04-06T12:54:57.015Z</time></trkpt><trkpt lat="45.802018" lon="13.6644043"><ele>158.0</ele><time>2026-04-06T12:54:58.009Z</time></trkpt><trkpt lat="45.8020484" lon="13.6645339"><ele>158.0</ele><time>2026-04-06T12:54:59.016Z</time></trkpt><trkpt lat="45.8020711" lon="13.6646781"><ele>157.5</ele><time>2026-04-06T12:55:00.026Z</time></trkpt><trkpt lat="45.8020843" lon="13.6648445"><ele>157.0</ele><time>2026-04-06T12:55:01.014Z</time></trkpt><trkpt lat="45.8020968" lon="13.6650158"><ele>156.5</ele><time>2026-04-06T12:55:02.022Z</time></trkpt><trkpt lat="45.8021065" lon="13.6651809"><ele>156.0</ele><time>2026-04-06T12:55:03.015Z</time></trkpt><trkpt lat="45.8021082" lon="13.6653432"><ele>155.75</ele><time>2026-04-06T12:55:04.006Z</time></trkpt><trkpt lat="45.80211" lon="13.6655127"><ele>155.5</ele><time>2026-04-06T12:55:05.008Z</time></trkpt><trkpt lat="45.8021101" lon="13.665679"><ele>155.25</ele><time>2026-04-06T12:55:06.01Z</time></trkpt><trkpt lat="45.8021104" lon="13.6658388"><ele>155.0</ele><time>2026-04-06T12:55:07.014Z</time></trkpt><trkpt lat="45.8021025" lon="13.6659925"><ele>154.5</ele><time>2026-04-06T12:55:08.009Z</time></trkpt><trkpt lat="45.8020873" lon="13.6661561"><ele>154.0</ele><time>2026-04-06T12:55:09.016Z</time></trkpt><trkpt lat="45.8020742" lon="13.6663282"><ele>153.5</ele><time>2026-04-06T12:55:10.005Z</time></trkpt><trkpt lat="45.8020779" lon="13.6665095"><ele>153.0</ele><time>2026-04-06T12:55:11.007Z</time></trkpt><trkpt lat="45.80208" lon="13.6666852"><ele>153.0</ele><time>2026-04-06T12:55:12.008Z</time></trkpt><trkpt lat="45.8020848" lon="13.6668625"><ele>153.0</ele><time>2026-04-06T12:55:13.006Z</time></trkpt><trkpt lat="45.8020885" lon="13.6670309"><ele>153.0</ele><time>2026-04-06T12:55:14.02Z</time></trkpt><trkpt lat="45.8020958" lon="13.6671917"><ele>153.0</ele><time>2026-04-06T12:55:15.016Z</time></trkpt><trkpt lat="45.8020983" lon="13.6673543"><ele>152.4</ele><time>2026-04-06T12:55:16.005Z</time></trkpt><trkpt lat="45.8020971" lon="13.6675114"><ele>151.8</ele><time>2026-04-06T12:55:17.016Z</time></trkpt><trkpt lat="45.8020901" lon="13.6676674"><ele>151.2</ele><time>2026-04-06T12:55:18.015Z</time></trkpt><trkpt lat="45.8020729" lon="13.6678148"><ele>150.6</ele><time>2026-04-06T12:55:19.034Z</time></trkpt><trkpt lat="45.8020405" lon="13.6679502"><ele>150.0</ele><time>2026-04-06T12:55:20.016Z</time></trkpt><trkpt lat="45.8020052" lon="13.6680857"><ele>149.4</ele><time>2026-04-06T12:55:21.019Z</time></trkpt><trkpt lat="45.8019753" lon="13.6682286"><ele>148.8</ele><time>2026-04-06T12:55:22.029Z</time></trkpt><trkpt lat="45.8019558" lon="13.6683753"><ele>148.2</ele><time>2026-04-06T12:55:23.024Z</time></trkpt><trkpt lat="45.8019447" lon="13.6685117"><ele>147.6</ele><time>2026-04-06T12:55:24.025Z</time></trkpt><trkpt lat="45.8019187" lon="13.6686232"><ele>147.0</ele><time>2026-04-06T12:55:25.037Z</time></trkpt><trkpt lat="45.8018666" lon="13.6686913"><ele>149.0</ele><time>2026-04-06T12:55:26.019Z</time></trkpt><trkpt lat="45.8018016" lon="13.6687433"><ele>151.0</ele><time>2026-04-06T12:55:27.012Z</time></trkpt><trkpt lat="45.8017216" lon="13.6687844"><ele>153.0</ele><time>2026-04-06T12:55:28.01Z</time></trkpt><trkpt lat="45.8016256" lon="13.6688309"><ele>155.0</ele><time>2026-04-06T12:55:29.008Z</time></trkpt><trkpt lat="45.8015168" lon="13.6688752"><ele>157.0</ele><time>2026-04-06T12:55:30.016Z</time></trkpt><trkpt lat="45.8014096" lon="13.6689181"><ele>157.0</ele><time>2026-04-06T12:55:31.015Z</time></trkpt><trkpt lat="45.8013043" lon="13.6689607"><ele>157.0</ele><time>2026-04-06T12:55:32.009Z</time></trkpt><trkpt lat="45.8012036" lon="13.6690084"><ele>157.0</ele><time>2026-04-06T12:55:33.013Z</time></trkpt><trkpt lat="45.8011089" lon="13.6690562"><ele>157.0</ele><time>2026-04-06T12:55:34.022Z</time></trkpt><trkpt lat="45.8010193" lon="13.669117"><ele>157.0</ele><time>2026-04-06T12:55:35.028Z</time></trkpt><trkpt lat="45.8009357" lon="13.669186"><ele>157.6</ele><time>2026-04-06T12:55:36.008Z</time></trkpt><trkpt lat="45.8008537" lon="13.6692325"><ele>158.2</ele><time>2026-04-06T12:55:37.015Z</time></trkpt><trkpt lat="45.8007671" lon="13.6692595"><ele>158.8</ele><time>2026-04-06T12:55:38.01Z</time></trkpt><trkpt lat="45.8006773" lon="13.6692634"><ele>159.4</ele><time>2026-04-06T12:55:39.003Z</time></trkpt><trkpt lat="45.800581" lon="13.6692472"><ele>160.0</ele><time>2026-04-06T12:55:40.005Z</time></trkpt><trkpt lat="45.8004787" lon="13.6692497"><ele>160.0</ele><time>2026-04-06T12:55:41.018Z</time></trkpt><trkpt lat="45.8003729" lon="13.6692824"><ele>160.0</ele><time>2026-04-06T12:55:42.011Z</time></trkpt><trkpt lat="45.8002561" lon="13.669314"><ele>160.0</ele><time>2026-04-06T12:55:43.021Z</time></trkpt><trkpt lat="45.8001389" lon="13.6693464"><ele>160.0</ele><time>2026-04-06T12:55:44.017Z</time></trkpt><trkpt lat="45.8000351" lon="13.6693657"><ele>160.6</ele><time>2026-04-06T12:55:45.015Z</time></trkpt><trkpt lat="45.7999426" lon="13.6693747"><ele>161.2</ele><time>2026-04-06T12:55:46.01Z</time></trkpt><trkpt lat="45.7998538" lon="13.6693788"><ele>161.8</ele><time>2026-04-06T12:55:47.006Z</time></trkpt><trkpt lat="45.7997706" lon="13.6694051"><ele>162.4</ele><time>2026-04-06T12:55:48.012Z</time></trkpt><trkpt lat="45.7996848" lon="13.6694735"><ele>163.0</ele><time>2026-04-06T12:55:49.012Z</time></trkpt><trkpt lat="45.7995966" lon="13.6695633"><ele>163.0</ele><time>2026-04-06T12:55:50.002Z</time></trkpt><trkpt lat="45.7995064" lon="13.6696479"><ele>163.0</ele><time>2026-04-06T12:55:51.016Z</time></trkpt><trkpt lat="45.7994248" lon="13.6697359"><ele>163.0</ele><time>2026-04-06T12:55:52.014Z</time></trkpt><trkpt lat="45.7993451" lon="13.6698225"><ele>163.0</ele><time>2026-04-06T12:55:53.01Z</time></trkpt><trkpt lat="45.7992679" lon="13.6699235"><ele>163.0</ele><time>2026-04-06T12:55:54.007Z</time></trkpt><trkpt lat="45.7991972" lon="13.6700264"><ele>165.60000000000002</ele><time>2026-04-06T12:55:55.012Z</time></trkpt><trkpt lat="45.7991233" lon="13.6701228"><ele>168.20000000000002</ele><time>2026-04-06T12:55:56.011Z</time></trkpt><trkpt lat="45.7990512" lon="13.6702076"><ele>170.8</ele><time>2026-04-06T12:55:57.016Z</time></trkpt><trkpt lat="45.7989672" lon="13.6702786"><ele>173.4</ele><time>2026-04-06T12:55:58.014Z</time></trkpt><trkpt lat="45.7988644" lon="13.670342"><ele>176.0</ele><time>2026-04-06T12:55:59.016Z</time></trkpt><trkpt lat="45.7987427" lon="13.6704025"><ele>176.0</ele><time>2026-04-06T12:56:00.021Z</time></trkpt><trkpt lat="45.7986173" lon="13.6704763"><ele>176.0</ele><time>2026-04-06T12:56:01.015Z</time></trkpt><trkpt lat="45.7985015" lon="13.6705574"><ele>176.0</ele><time>2026-04-06T12:56:02.013Z</time></trkpt><trkpt lat="45.7983933" lon="13.6706093"><ele>176.0</ele><time>2026-04-06T12:56:03.027Z</time></trkpt><trkpt lat="45.7982897" lon="13.6706577"><ele>176.20000000000002</ele><time>2026-04-06T12:56:04.009Z</time></trkpt><trkpt lat="45.798183" lon="13.670717"><ele>176.4</ele><time>2026-04-06T12:56:05.016Z</time></trkpt><trkpt lat="45.7980889" lon="13.6707661"><ele>176.6</ele><time>2026-04-06T12:56:06.016Z</time></trkpt><trkpt lat="45.7979991" lon="13.6708135"><ele>176.8</ele><time>2026-04-06T12:56:07.01Z</time></trkpt><trkpt lat="45.7979138" lon="13.6708634"><ele>177.0</ele><time>2026-04-06T12:56:08.009Z</time></trkpt><trkpt lat="45.7978376" lon="13.6709036"><ele>177.0</ele><time>2026-04-06T12:56:09.018Z</time></trkpt><trkpt lat="45.7977654" lon="13.6709369"><ele>177.0</ele><time>2026-04-06T12:56:10.02Z</time></trkpt><trkpt lat="45.7977074" lon="13.6709747"><ele>177.0</ele><time>2026-04-06T12:56:11.013Z</time></trkpt><trkpt lat="45.7976631" lon="13.6710576"><ele>177.0</ele><time>2026-04-06T12:56:12.006Z</time></trkpt><trkpt lat="45.7976306" lon="13.6711624"><ele>177.0</ele><time>2026-04-06T12:56:13.013Z</time></trkpt><trkpt lat="45.7975912" lon="13.6712592"><ele>177.0</ele><time>2026-04-06T12:56:14.014Z</time></trkpt><trkpt lat="45.7975401" lon="13.6713557"><ele>178.8</ele><time>2026-04-06T12:56:15.013Z</time></trkpt><trkpt lat="45.7974777" lon="13.6714516"><ele>180.6</ele><time>2026-04-06T12:56:16.028Z</time></trkpt><trkpt lat="45.7974176" lon="13.6715472"><ele>182.4</ele><time>2026-04-06T12:56:17.012Z</time></trkpt><trkpt lat="45.797363" lon="13.6716589"><ele>184.20000000000002</ele><time>2026-04-06T12:56:18.013Z</time></trkpt><trkpt lat="45.7973158" lon="13.6717855"><ele>186.0</ele><time>2026-04-06T12:56:19.01Z</time></trkpt><trkpt lat="45.7972595" lon="13.6718933"><ele>186.5</ele><time>2026-04-06T12:56:20.014Z</time></trkpt><trkpt lat="45.7972" lon="13.6719974"><ele>187.0</ele><time>2026-04-06T12:56:21.008Z</time></trkpt><trkpt lat="45.7971445" lon="13.6720951"><ele>187.5</ele><time>2026-04-06T12:56:22.025Z</time></trkpt><trkpt lat="45.7970811" lon="13.6721555"><ele>188.0</ele><time>2026-04-06T12:56:23.015Z</time></trkpt><trkpt lat="45.7969641" lon="13.6721718"><ele>188.5</ele><time>2026-04-06T12:56:25.023Z</time></trkpt><trkpt lat="45.7969058" lon="13.6721209"><ele>189.0</ele><time>2026-04-06T12:56:26.005Z</time></trkpt><trkpt lat="45.7968498" lon="13.6720462"><ele>190.0</ele><time>2026-04-06T12:56:27.004Z</time></trkpt><trkpt lat="45.7967855" lon="13.6719667"><ele>191.0</ele><time>2026-04-06T12:56:28.003Z</time></trkpt><trkpt lat="45.7967099" lon="13.6719274"><ele>192.0</ele><time>2026-04-06T12:56:29.021Z</time></trkpt><trkpt lat="45.7966212" lon="13.6719315"><ele>193.0</ele><time>2026-04-06T12:56:30.006Z</time></trkpt><trkpt lat="45.7965272" lon="13.6719663"><ele>194.0</ele><time>2026-04-06T12:56:31.002Z</time></trkpt><trkpt lat="45.7964305" lon="13.6720206"><ele>194.0</ele><time>2026-04-06T12:56:31.999Z</time></trkpt><trkpt lat="45.7963395" lon="13.6721012"><ele>194.0</ele><time>2026-04-06T12:56:33.012Z</time></trkpt><trkpt lat="45.7962532" lon="13.6721868"><ele>194.0</ele><time>2026-04-06T12:56:34.007Z</time></trkpt><trkpt lat="45.7961685" lon="13.6722677"><ele>194.0</ele><time>2026-04-06T12:56:35.002Z</time></trkpt><trkpt lat="45.7961022" lon="13.6723498"><ele>194.0</ele><time>2026-04-06T12:56:36.018Z</time></trkpt><trkpt lat="45.7960485" lon="13.6724551"><ele>194.39999999999998</ele><time>2026-04-06T12:56:37.004Z</time></trkpt><trkpt lat="45.7960006" lon="13.6725704"><ele>194.8</ele><time>2026-04-06T12:56:38.002Z</time></trkpt><trkpt lat="45.7959721" lon="13.672688"><ele>195.2</ele><time>2026-04-06T12:56:39.003Z</time></trkpt><trkpt lat="45.7959602" lon="13.6727951"><ele>195.60000000000002</ele><time>2026-04-06T12:56:40.006Z</time></trkpt><trkpt lat="45.795976" lon="13.6729273"><ele>196.0</ele><time>2026-04-06T12:56:41.012Z</time></trkpt><trkpt lat="45.7960036" lon="13.6730663"><ele>196.0</ele><time>2026-04-06T12:56:42.004Z</time></trkpt><trkpt lat="45.7960495" lon="13.6732059"><ele>196.0</ele><time>2026-04-06T12:56:43.008Z</time></trkpt><trkpt lat="45.7960968" lon="13.6733349"><ele>196.0</ele><time>2026-04-06T12:56:44.01Z</time></trkpt><trkpt lat="45.7961257" lon="13.6734518"><ele>196.0</ele><time>2026-04-06T12:56:45.008Z</time></trkpt><trkpt lat="45.7961326" lon="13.6735794"><ele>196.0</ele><time>2026-04-06T12:56:46.014Z</time></trkpt><trkpt lat="45.7961258" lon="13.6737186"><ele>197.60000000000002</ele><time>2026-04-06T12:56:47.002Z</time></trkpt><trkpt lat="45.7961128" lon="13.673874"><ele>199.2</ele><time>2026-04-06T12:56:48.009Z</time></trkpt><trkpt lat="45.7960959" lon="13.6740354"><ele>200.8</ele><time>2026-04-06T12:56:49.009Z</time></trkpt><trkpt lat="45.7960762" lon="13.6741943"><ele>202.39999999999998</ele><time>2026-04-06T12:56:50.005Z</time></trkpt><trkpt lat="45.7960609" lon="13.6743229"><ele>204.0</ele><time>2026-04-06T12:56:51.018Z</time></trkpt><trkpt lat="45.7960415" lon="13.6744417"><ele>204.33333333333334</ele><time>2026-04-06T12:56:52.006Z</time></trkpt><trkpt lat="45.7960272" lon="13.6745536"><ele>204.66666666666669</ele><time>2026-04-06T12:56:53.005Z</time></trkpt><trkpt lat="45.7960003" lon="13.6746811"><ele>205.0</ele><time>2026-04-06T12:56:55.007Z</time></trkpt><trkpt lat="45.7959261" lon="13.6747061"><ele>205.33333333333334</ele><time>2026-04-06T12:56:57.004Z</time></trkpt><trkpt lat="45.7958527" lon="13.6747324"><ele>205.66666666666669</ele><time>2026-04-06T12:56:58.004Z</time></trkpt><trkpt lat="45.7957678" lon="13.6747644"><ele>206.0</ele><time>2026-04-06T12:56:59.009Z</time></trkpt><trkpt lat="45.795682" lon="13.6747938"><ele>206.16666666666669</ele><time>2026-04-06T12:57:00.017Z</time></trkpt><trkpt lat="45.7956033" lon="13.6748337"><ele>206.33333333333334</ele><time>2026-04-06T12:57:01.015Z</time></trkpt><trkpt lat="45.7955349" lon="13.6749028"><ele>206.5</ele><time>2026-04-06T12:57:02.008Z</time></trkpt><trkpt lat="45.7954779" lon="13.674997"><ele>206.66666666666669</ele><time>2026-04-06T12:57:03.006Z</time></trkpt><trkpt lat="45.7954248" lon="13.6750816"><ele>206.83333333333334</ele><time>2026-04-06T12:57:04.005Z</time></trkpt><trkpt lat="45.7953609" lon="13.675151"><ele>207.0</ele><time>2026-04-06T12:57:05.018Z</time></trkpt><trkpt lat="45.7952725" lon="13.6751968"><ele>207.0</ele><time>2026-04-06T12:57:06.011Z</time></trkpt><trkpt lat="45.7951811" lon="13.6752412"><ele>207.0</ele><time>2026-04-06T12:57:07.008Z</time></trkpt><trkpt lat="45.7951051" lon="13.6753013"><ele>207.0</ele><time>2026-04-06T12:57:08.008Z</time></trkpt><trkpt lat="45.7950518" lon="13.6753638"><ele>207.0</ele><time>2026-04-06T12:57:09.01Z</time></trkpt><trkpt lat="45.7950397" lon="13.6755234"><ele>207.0</ele><time>2026-04-06T12:57:11.005Z</time></trkpt><trkpt lat="45.7950551" lon="13.6756343"><ele>207.0</ele><time>2026-04-06T12:57:12.01Z</time></trkpt><trkpt lat="45.7950701" lon="13.6757565"><ele>205.33333333333334</ele><time>2026-04-06T12:57:13.005Z</time></trkpt><trkpt lat="45.7950839" lon="13.675882"><ele>203.66666666666669</ele><time>2026-04-06T12:57:14.018Z</time></trkpt><trkpt lat="45.7951106" lon="13.6759933"><ele>202.0</ele><time>2026-04-06T12:57:15.008Z</time></trkpt><trkpt lat="45.7951576" lon="13.6760784"><ele>200.33333333333334</ele><time>2026-04-06T12:57:16.013Z</time></trkpt><trkpt lat="45.7952177" lon="13.6761435"><ele>198.66666666666669</ele><time>2026-04-06T12:57:17.012Z</time></trkpt><trkpt lat="45.7952866" lon="13.676207"><ele>197.0</ele><time>2026-04-06T12:57:18.012Z</time></trkpt><trkpt lat="45.7953445" lon="13.6762853"><ele>196.83333333333334</ele><time>2026-04-06T12:57:19.026Z</time></trkpt><trkpt lat="45.795367" lon="13.6763854"><ele>196.66666666666669</ele><time>2026-04-06T12:57:20.004Z</time></trkpt><trkpt lat="45.7953797" lon="13.6764844"><ele>196.5</ele><time>2026-04-06T12:57:21.021Z</time></trkpt><trkpt lat="45.7953776" lon="13.6766"><ele>196.33333333333331</ele><time>2026-04-06T12:57:22.017Z</time></trkpt><trkpt lat="45.795351" lon="13.6767463"><ele>196.16666666666666</ele><time>2026-04-06T12:57:23.011Z</time></trkpt><trkpt lat="45.7953171" lon="13.6768987"><ele>196.0</ele><time>2026-04-06T12:57:24.004Z</time></trkpt><trkpt lat="45.7952887" lon="13.6770407"><ele>195.49999999999997</ele><time>2026-04-06T12:57:25.009Z</time></trkpt><trkpt lat="45.7952688" lon="13.677162"><ele>195.0</ele><time>2026-04-06T12:57:26.022Z</time></trkpt><trkpt lat="45.7952354" lon="13.6772505"><ele>194.5</ele><time>2026-04-06T12:57:27.016Z</time></trkpt><trkpt lat="45.7951815" lon="13.6773179"><ele>194.0</ele><time>2026-04-06T12:57:28.003Z</time></trkpt><trkpt lat="45.7951024" lon="13.6773857"><ele>193.49999999999997</ele><time>2026-04-06T12:57:29.012Z</time></trkpt><trkpt lat="45.7950114" lon="13.6774826"><ele>193.0</ele><time>2026-04-06T12:57:30.009Z</time></trkpt><trkpt lat="45.7949305" lon="13.6775817"><ele>192.99999999999997</ele><time>2026-04-06T12:57:31.008Z</time></trkpt><trkpt lat="45.7948733" lon="13.6776828"><ele>193.0</ele><time>2026-04-06T12:57:32.013Z</time></trkpt><trkpt lat="45.7948422" lon="13.6777878"><ele>193.0</ele><time>2026-04-06T12:57:33.01Z</time></trkpt><trkpt lat="45.794826" lon="13.6779058"><ele>193.0</ele><time>2026-04-06T12:57:34.006Z</time></trkpt><trkpt lat="45.7948211" lon="13.6780154"><ele>192.99999999999997</ele><time>2026-04-06T12:57:35.005Z</time></trkpt><trkpt lat="45.7948226" lon="13.6781254"><ele>193.0</ele><time>2026-04-06T12:57:36.009Z</time></trkpt><trkpt lat="45.7948585" lon="13.6782436"><ele>193.0</ele><time>2026-04-06T12:57:37.008Z</time></trkpt><trkpt lat="45.7949046" lon="13.6783762"><ele>193.0</ele><time>2026-04-06T12:57:38.011Z</time></trkpt><trkpt lat="45.7949498" lon="13.6785058"><ele>193.0</ele><time>2026-04-06T12:57:39.002Z</time></trkpt><trkpt lat="45.7949822" lon="13.6786121"><ele>193.0</ele><time>2026-04-06T12:57:40.026Z</time></trkpt><trkpt lat="45.794985" lon="13.67876"><ele>193.0</ele><time>2026-04-06T12:57:42.018Z</time></trkpt><trkpt lat="45.7949485" lon="13.6788636"><ele>193.4</ele><time>2026-04-06T12:57:43.011Z</time></trkpt><trkpt lat="45.7948822" lon="13.6789831"><ele>193.8</ele><time>2026-04-06T12:57:44.01Z</time></trkpt><trkpt lat="45.79482" lon="13.6790943"><ele>194.2</ele><time>2026-04-06T12:57:45.012Z</time></trkpt><trkpt lat="45.7947647" lon="13.6791749"><ele>194.6</ele><time>2026-04-06T12:57:46.016Z</time></trkpt><trkpt lat="45.7946954" lon="13.6792294"><ele>195.0</ele><time>2026-04-06T12:57:47.013Z</time></trkpt><trkpt lat="45.7946136" lon="13.6792745"><ele>195.0</ele><time>2026-04-06T12:57:48.003Z</time></trkpt><trkpt lat="45.7945313" lon="13.6793091"><ele>195.0</ele><time>2026-04-06T12:57:49.004Z</time></trkpt><trkpt lat="45.7944632" lon="13.6793525"><ele>195.0</ele><time>2026-04-06T12:57:50.014Z</time></trkpt><trkpt lat="45.7943903" lon="13.6794497"><ele>195.0</ele><time>2026-04-06T12:57:52.003Z</time></trkpt><trkpt lat="45.7943775" lon="13.6795552"><ele>195.0</ele><time>2026-04-06T12:58:01.018Z</time></trkpt><trkpt lat="45.7944538" lon="13.6796609"><ele>195.0</ele><time>2026-04-06T12:58:03.011Z</time></trkpt><trkpt lat="45.7945084" lon="13.6797401"><ele>195.4</ele><time>2026-04-06T12:58:04.004Z</time></trkpt><trkpt lat="45.7945602" lon="13.6798414"><ele>195.8</ele><time>2026-04-06T12:58:05.015Z</time></trkpt><trkpt lat="45.794596" lon="13.6799433"><ele>196.2</ele><time>2026-04-06T12:58:06.009Z</time></trkpt><trkpt lat="45.7946154" lon="13.680042"><ele>196.6</ele><time>2026-04-06T12:58:07.006Z</time></trkpt><trkpt lat="45.794615" lon="13.6802109"><ele>197.0</ele><time>2026-04-06T12:58:09.004Z</time></trkpt><trkpt lat="45.7945806" lon="13.6803454"><ele>197.6</ele><time>2026-04-06T12:58:11.002Z</time></trkpt><trkpt lat="45.7945228" lon="13.680502"><ele>198.2</ele><time>2026-04-06T12:58:13.01Z</time></trkpt><trkpt lat="45.7944657" lon="13.6806376"><ele>198.8</ele><time>2026-04-06T12:58:15.016Z</time></trkpt><trkpt lat="45.7944438" lon="13.6807529"><ele>199.4</ele><time>2026-04-06T12:58:17.008Z</time></trkpt><trkpt lat="45.7944398" lon="13.6808678"><ele>200.0</ele><time>2026-04-06T12:58:19.998Z</time></trkpt><trkpt lat="45.794375" lon="13.6809467"><ele>200.33333333333334</ele><time>2026-04-06T12:58:23.994Z</time></trkpt><trkpt lat="45.794306" lon="13.6809244"><ele>200.66666666666669</ele><time>2026-04-06T12:58:26Z</time></trkpt><trkpt lat="45.7942366" lon="13.6809305"><ele>201.0</ele><time>2026-04-06T12:58:28.008Z</time></trkpt><trkpt lat="45.7941582" lon="13.6809688"><ele>201.33333333333331</ele><time>2026-04-06T12:58:30.012Z</time></trkpt><trkpt lat="45.7940682" lon="13.6809266"><ele>201.66666666666666</ele><time>2026-04-06T12:58:33.001Z</time></trkpt><trkpt lat="45.7939937" lon="13.6808917"><ele>202.0</ele><time>2026-04-06T12:58:35.005Z</time></trkpt><trkpt lat="45.7939247" lon="13.6808729"><ele>201.99999999999997</ele><time>2026-04-06T12:58:37.006Z</time></trkpt><trkpt lat="45.793845" lon="13.6808534"><ele>202.0</ele><time>2026-04-06T12:58:39.006Z</time></trkpt><trkpt lat="45.7937586" lon="13.6808409"><ele>202.0</ele><time>2026-04-06T12:58:41.003Z</time></trkpt><trkpt lat="45.7936688" lon="13.6808198"><ele>202.0</ele><time>2026-04-06T12:58:43.02Z</time></trkpt><trkpt lat="45.7935824" lon="13.6807897"><ele>201.99999999999997</ele><time>2026-04-06T12:58:45.012Z</time></trkpt><trkpt lat="45.7935001" lon="13.6807792"><ele>202.0</ele><time>2026-04-06T12:58:47.012Z</time></trkpt><trkpt lat="45.7934167" lon="13.6807765"><ele>203.16666666666666</ele><time>2026-04-06T12:58:49.015Z</time></trkpt><trkpt lat="45.7933783" lon="13.6808589"><ele>204.33333333333331</ele><time>2026-04-06T12:58:56.004Z</time></trkpt><trkpt lat="45.7933651" lon="13.6809843"><ele>205.5</ele><time>2026-04-06T12:59:00.017Z</time></trkpt><trkpt lat="45.7933051" lon="13.6810869"><ele>206.66666666666669</ele><time>2026-04-06T12:59:02.012Z</time></trkpt><trkpt lat="45.7932832" lon="13.6812154"><ele>207.83333333333334</ele><time>2026-04-06T12:59:04.021Z</time></trkpt><trkpt lat="45.7932388" lon="13.6812879"><ele>209.0</ele><time>2026-04-06T12:59:07.022Z</time></trkpt><trkpt lat="45.7931716" lon="13.6813002"><ele>209.66666666666669</ele><time>2026-04-06T12:59:10.009Z</time></trkpt><trkpt lat="45.7931093" lon="13.6812854"><ele>210.33333333333334</ele><time>2026-04-06T12:59:12.004Z</time></trkpt><trkpt lat="45.7930106" lon="13.6812802"><ele>211.0</ele><time>2026-04-06T12:59:14.013Z</time></trkpt><trkpt lat="45.7929323" lon="13.681288"><ele>211.66666666666669</ele><time>2026-04-06T12:59:16.028Z</time></trkpt><trkpt lat="45.7928455" lon="13.6813226"><ele>212.33333333333334</ele><time>2026-04-06T12:59:18.024Z</time></trkpt><trkpt lat="45.7927488" lon="13.6813157"><ele>213.0</ele><time>2026-04-06T12:59:20.022Z</time></trkpt><trkpt lat="45.7926831" lon="13.6813292"><ele>212.16666666666666</ele><time>2026-04-06T12:59:22.015Z</time></trkpt><trkpt lat="45.7926215" lon="13.6813585"><ele>211.33333333333331</ele><time>2026-04-06T12:59:24.013Z</time></trkpt><trkpt lat="45.7925532" lon="13.6814353"><ele>210.5</ele><time>2026-04-06T12:59:26.016Z</time></trkpt><trkpt lat="45.7925025" lon="13.6815448"><ele>209.66666666666666</ele><time>2026-04-06T12:59:28.008Z</time></trkpt><trkpt lat="45.7924675" lon="13.6816663"><ele>208.83333333333331</ele><time>2026-04-06T12:59:30.014Z</time></trkpt><trkpt lat="45.7924385" lon="13.6817634"><ele>208.0</ele><time>2026-04-06T12:59:32.01Z</time></trkpt><trkpt lat="45.7924076" lon="13.6818601"><ele>208.33333333333331</ele><time>2026-04-06T12:59:35.014Z</time></trkpt><trkpt lat="45.79245" lon="13.6820043"><ele>208.66666666666666</ele><time>2026-04-06T12:59:38.002Z</time></trkpt><trkpt lat="45.7924569" lon="13.682123"><ele>209.0</ele><time>2026-04-06T12:59:41.01Z</time></trkpt><trkpt lat="45.792406" lon="13.6822007"><ele>209.33333333333331</ele><time>2026-04-06T12:59:44.009Z</time></trkpt><trkpt lat="45.7923582" lon="13.6822641"><ele>209.66666666666666</ele><time>2026-04-06T12:59:46.013Z</time></trkpt><trkpt lat="45.7923055" lon="13.6823762"><ele>210.0</ele><time>2026-04-06T12:59:49.005Z</time></trkpt><trkpt lat="45.7922673" lon="13.6824804"><ele>210.0</ele><time>2026-04-06T12:59:52.014Z</time></trkpt><trkpt lat="45.7922574" lon="13.6825807"><ele>210.0</ele><time>2026-04-06T12:59:58.017Z</time></trkpt><trkpt lat="45.7922744" lon="13.6826995"><ele>210.0</ele><time>2026-04-06T13:00:00.022Z</time></trkpt><trkpt lat="45.7923091" lon="13.6828009"><ele>210.0</ele><time>2026-04-06T13:00:02.022Z</time></trkpt><trkpt lat="45.7923459" lon="13.6828817"><ele>210.0</ele><time>2026-04-06T13:00:04.014Z</time></trkpt><trkpt lat="45.792342" lon="13.6829839"><ele>210.0</ele><time>2026-04-06T13:00:07.022Z</time></trkpt><trkpt lat="45.7923227" lon="13.6830889"><ele>210.0</ele><time>2026-04-06T13:00:09.024Z</time></trkpt><trkpt lat="45.7923023" lon="13.6832046"><ele>210.66666666666666</ele><time>2026-04-06T13:00:11.035Z</time></trkpt><trkpt lat="45.7922776" lon="13.6832973"><ele>211.33333333333331</ele><time>2026-04-06T13:00:13.011Z</time></trkpt><trkpt lat="45.7922287" lon="13.6833647"><ele>212.0</ele><time>2026-04-06T13:00:15.01Z</time></trkpt><trkpt lat="45.7921461" lon="13.6834376"><ele>212.66666666666666</ele><time>2026-04-06T13:00:17.011Z</time></trkpt><trkpt lat="45.7921205" lon="13.683531"><ele>213.33333333333331</ele><time>2026-04-06T13:00:19.012Z</time></trkpt><trkpt lat="45.7921359" lon="13.6836398"><ele>214.0</ele><time>2026-04-06T13:00:21.016Z</time></trkpt><trkpt lat="45.7921924" lon="13.6837429"><ele>215.16666666666666</ele><time>2026-04-06T13:00:24.02Z</time></trkpt><trkpt lat="45.7922312" lon="13.6838588"><ele>216.33333333333331</ele><time>2026-04-06T13:00:27.016Z</time></trkpt><trkpt lat="45.7922231" lon="13.6839497"><ele>217.5</ele><time>2026-04-06T13:00:29.022Z</time></trkpt><trkpt lat="45.7921737" lon="13.6840601"><ele>218.66666666666669</ele><time>2026-04-06T13:00:33.03Z</time></trkpt><trkpt lat="45.7921143" lon="13.6841569"><ele>219.83333333333334</ele><time>2026-04-06T13:00:35.022Z</time></trkpt><trkpt lat="45.7920766" lon="13.6842341"><ele>221.0</ele><time>2026-04-06T13:00:36.017Z</time></trkpt><trkpt lat="45.7920117" lon="13.6843473"><ele>221.0</ele><time>2026-04-06T13:00:38.025Z</time></trkpt><trkpt lat="45.7919291" lon="13.684424"><ele>221.00000000000003</ele><time>2026-04-06T13:00:40.033Z</time></trkpt><trkpt lat="45.7918428" lon="13.6845023"><ele>221.00000000000003</ele><time>2026-04-06T13:00:42.025Z</time></trkpt><trkpt lat="45.7917654" lon="13.6846099"><ele>221.0</ele><time>2026-04-06T13:00:44.015Z</time></trkpt><trkpt lat="45.7917141" lon="13.684745"><ele>221.0</ele><time>2026-04-06T13:00:46.029Z</time></trkpt><trkpt lat="45.7916586" lon="13.6848732"><ele>220.20000000000002</ele><time>2026-04-06T13:00:48.014Z</time></trkpt><trkpt lat="45.7916155" lon="13.6849639"><ele>219.40000000000003</ele><time>2026-04-06T13:00:50.025Z</time></trkpt><trkpt lat="45.7915518" lon="13.6850645"><ele>218.6</ele><time>2026-04-06T13:00:52.009Z</time></trkpt><trkpt lat="45.7914555" lon="13.6851728"><ele>217.8</ele><time>2026-04-06T13:00:54.032Z</time></trkpt><trkpt lat="45.7913698" lon="13.6852921"><ele>217.0</ele><time>2026-04-06T13:00:56.014Z</time></trkpt><trkpt lat="45.7912854" lon="13.6853931"><ele>216.99999999999997</ele><time>2026-04-06T13:00:58.023Z</time></trkpt><trkpt lat="45.7912275" lon="13.6854614"><ele>217.0</ele><time>2026-04-06T13:01:00.027Z</time></trkpt><trkpt lat="45.791171" lon="13.6855309"><ele>217.0</ele><time>2026-04-06T13:01:02.017Z</time></trkpt><trkpt lat="45.7911521" lon="13.6856434"><ele>217.0</ele><time>2026-04-06T13:01:04.009Z</time></trkpt><trkpt lat="45.7911173" lon="13.6857739"><ele>216.99999999999997</ele><time>2026-04-06T13:01:06.032Z</time></trkpt><trkpt lat="45.7910784" lon="13.6858602"><ele>217.0</ele><time>2026-04-06T13:01:08.029Z</time></trkpt><trkpt lat="45.7910097" lon="13.6859207"><ele>216.99999999999997</ele><time>2026-04-06T13:01:10.013Z</time></trkpt><trkpt lat="45.7909434" lon="13.685979"><ele>217.0</ele><time>2026-04-06T13:01:12.013Z</time></trkpt><trkpt lat="45.7908745" lon="13.6860201"><ele>217.0</ele><time>2026-04-06T13:01:14.017Z</time></trkpt><trkpt lat="45.7908039" lon="13.686016"><ele>217.0</ele><time>2026-04-06T13:01:17.013Z</time></trkpt><trkpt lat="45.7907506" lon="13.6860652"><ele>216.99999999999997</ele><time>2026-04-06T13:01:19.006Z</time></trkpt><trkpt lat="45.790678" lon="13.6861486"><ele>217.0</ele><time>2026-04-06T13:01:21.028Z</time></trkpt><trkpt lat="45.7906191" lon="13.6862175"><ele>216.57142857142858</ele><time>2026-04-06T13:01:23.032Z</time></trkpt><trkpt lat="45.7905622" lon="13.6862777"><ele>216.14285714285714</ele><time>2026-04-06T13:01:25.025Z</time></trkpt><trkpt lat="45.7905119" lon="13.6863474"><ele>215.71428571428572</ele><time>2026-04-06T13:01:27.032Z</time></trkpt><trkpt lat="45.790447" lon="13.6863811"><ele>215.28571428571428</ele><time>2026-04-06T13:01:29.023Z</time></trkpt><trkpt lat="45.7904049" lon="13.6864592"><ele>214.85714285714286</ele><time>2026-04-06T13:01:31.022Z</time></trkpt><trkpt lat="45.7903728" lon="13.6865721"><ele>214.42857142857144</ele><time>2026-04-06T13:01:33.015Z</time></trkpt><trkpt lat="45.7903442" lon="13.6866603"><ele>214.0</ele><time>2026-04-06T13:01:35.02Z</time></trkpt><trkpt lat="45.7903161" lon="13.6867678"><ele>213.99999999999997</ele><time>2026-04-06T13:01:38.02Z</time></trkpt><trkpt lat="45.7902947" lon="13.6868877"><ele>214.0</ele><time>2026-04-06T13:01:41.011Z</time></trkpt><trkpt lat="45.7902661" lon="13.686979"><ele>214.0</ele><time>2026-04-06T13:01:43.021Z</time></trkpt><trkpt lat="45.7902505" lon="13.6871106"><ele>214.0</ele><time>2026-04-06T13:01:46.007Z</time></trkpt><trkpt lat="45.7902302" lon="13.6872029"><ele>213.99999999999997</ele><time>2026-04-06T13:01:48.02Z</time></trkpt><trkpt lat="45.7902211" lon="13.6872947"><ele>214.0</ele><time>2026-04-06T13:01:50.026Z</time></trkpt><trkpt lat="45.790173" lon="13.6874093"><ele>214.16666666666666</ele><time>2026-04-06T13:01:53.014Z</time></trkpt><trkpt lat="45.7901074" lon="13.6874979"><ele>214.33333333333331</ele><time>2026-04-06T13:01:55.018Z</time></trkpt><trkpt lat="45.7900479" lon="13.6875877"><ele>214.5</ele><time>2026-04-06T13:01:57.007Z</time></trkpt><trkpt lat="45.7899936" lon="13.6876435"><ele>214.66666666666669</ele><time>2026-04-06T13:01:59.012Z</time></trkpt><trkpt lat="45.7899583" lon="13.6877552"><ele>214.83333333333334</ele><time>2026-04-06T13:02:02.008Z</time></trkpt><trkpt lat="45.7899166" lon="13.6878601"><ele>215.0</ele><time>2026-04-06T13:02:05.01Z</time></trkpt><trkpt lat="45.7898761" lon="13.6879321"><ele>214.00000000000003</ele><time>2026-04-06T13:02:07.016Z</time></trkpt><trkpt lat="45.7898524" lon="13.6880159"><ele>213.0</ele><time>2026-04-06T13:02:09.018Z</time></trkpt><trkpt lat="45.789842" lon="13.6881161"><ele>212.0</ele><time>2026-04-06T13:02:11.026Z</time></trkpt><trkpt lat="45.7897735" lon="13.6882051"><ele>211.0</ele><time>2026-04-06T13:02:14.016Z</time></trkpt><trkpt lat="45.7897188" lon="13.6882757"><ele>210.00000000000003</ele><time>2026-04-06T13:02:16.011Z</time></trkpt><trkpt lat="45.7896578" lon="13.6883593"><ele>209.0</ele><time>2026-04-06T13:02:18.014Z</time></trkpt><trkpt lat="45.7895742" lon="13.6884581"><ele>209.0</ele><time>2026-04-06T13:02:20.009Z</time></trkpt><trkpt lat="45.7894975" lon="13.6885329"><ele>209.0</ele><time>2026-04-06T13:02:22.013Z</time></trkpt><trkpt lat="45.7894236" lon="13.6886231"><ele>209.0</ele><time>2026-04-06T13:02:24.015Z</time></trkpt><trkpt lat="45.7893496" lon="13.68871"><ele>209.0</ele><time>2026-04-06T13:02:26.016Z</time></trkpt><trkpt lat="45.7892902" lon="13.6887897"><ele>209.0</ele><time>2026-04-06T13:02:28.005Z</time></trkpt><trkpt lat="45.7892156" lon="13.6888576"><ele>208.33333333333334</ele><time>2026-04-06T13:02:31.013Z</time></trkpt><trkpt lat="45.7891472" lon="13.688894"><ele>207.66666666666669</ele><time>2026-04-06T13:02:33.013Z</time></trkpt><trkpt lat="45.7890585" lon="13.6889034"><ele>207.0</ele><time>2026-04-06T13:02:35.009Z</time></trkpt><trkpt lat="45.7889718" lon="13.6889385"><ele>206.33333333333331</ele><time>2026-04-06T13:02:37.008Z</time></trkpt><trkpt lat="45.7888957" lon="13.6889832"><ele>205.66666666666666</ele><time>2026-04-06T13:02:39.019Z</time></trkpt><trkpt lat="45.7888555" lon="13.689053"><ele>205.0</ele><time>2026-04-06T13:02:41.005Z</time></trkpt><trkpt lat="45.7888803" lon="13.6891657"><ele>204.99999999999997</ele><time>2026-04-06T13:02:43.013Z</time></trkpt><trkpt lat="45.7888937" lon="13.6892665"><ele>205.0</ele><time>2026-04-06T13:02:45.023Z</time></trkpt><trkpt lat="45.7888607" lon="13.6893595"><ele>205.0</ele><time>2026-04-06T13:02:48.012Z</time></trkpt><trkpt lat="45.7887921" lon="13.6894131"><ele>205.0</ele><time>2026-04-06T13:02:51.007Z</time></trkpt><trkpt lat="45.7888322" lon="13.6895238"><ele>204.99999999999997</ele><time>2026-04-06T13:02:55.008Z</time></trkpt><trkpt lat="45.7888619" lon="13.6896231"><ele>205.0</ele><time>2026-04-06T13:02:58.007Z</time></trkpt><trkpt lat="45.7888347" lon="13.6897289"><ele>205.16666666666666</ele><time>2026-04-06T13:03:01.002Z</time></trkpt><trkpt lat="45.7887604" lon="13.6897884"><ele>205.33333333333331</ele><time>2026-04-06T13:03:04.018Z</time></trkpt><trkpt lat="45.7886812" lon="13.6898245"><ele>205.5</ele><time>2026-04-06T13:03:07.017Z</time></trkpt><trkpt lat="45.7886149" lon="13.6898515"><ele>205.66666666666669</ele><time>2026-04-06T13:03:09.015Z</time></trkpt><trkpt lat="45.788552" lon="13.6898881"><ele>205.83333333333334</ele><time>2026-04-06T13:03:11.019Z</time></trkpt><trkpt lat="45.7885003" lon="13.689954"><ele>206.0</ele><time>2026-04-06T13:03:13.03Z</time></trkpt><trkpt lat="45.7884431" lon="13.6900406"><ele>206.00000000000003</ele><time>2026-04-06T13:03:15.018Z</time></trkpt><trkpt lat="45.7883654" lon="13.6900944"><ele>206.0</ele><time>2026-04-06T13:03:17.004Z</time></trkpt><trkpt lat="45.7882888" lon="13.6901894"><ele>206.0</ele><time>2026-04-06T13:03:19.017Z</time></trkpt><trkpt lat="45.7882436" lon="13.690256"><ele>206.0</ele><time>2026-04-06T13:03:21.016Z</time></trkpt><trkpt lat="45.7882137" lon="13.6903367"><ele>206.00000000000003</ele><time>2026-04-06T13:03:23.019Z</time></trkpt><trkpt lat="45.7881649" lon="13.6904594"><ele>206.0</ele><time>2026-04-06T13:03:25.023Z</time></trkpt><trkpt lat="45.7880952" lon="13.6905493"><ele>206.50000000000003</ele><time>2026-04-06T13:03:27.02Z</time></trkpt><trkpt lat="45.7880435" lon="13.6906154"><ele>207.0</ele><time>2026-04-06T13:03:29.012Z</time></trkpt><trkpt lat="45.7879768" lon="13.6907027"><ele>207.5</ele><time>2026-04-06T13:03:32.02Z</time></trkpt><trkpt lat="45.7879112" lon="13.6907677"><ele>208.0</ele><time>2026-04-06T13:03:35.017Z</time></trkpt><trkpt lat="45.7878451" lon="13.6908261"><ele>208.50000000000003</ele><time>2026-04-06T13:03:37.025Z</time></trkpt><trkpt lat="45.7877533" lon="13.6909172"><ele>209.0</ele><time>2026-04-06T13:03:39.025Z</time></trkpt><trkpt lat="45.7876632" lon="13.691011"><ele>207.16666666666669</ele><time>2026-04-06T13:03:41.017Z</time></trkpt><trkpt lat="45.7875865" lon="13.6911063"><ele>205.33333333333334</ele><time>2026-04-06T13:03:43.024Z</time></trkpt><trkpt lat="45.7875168" lon="13.6911727"><ele>203.5</ele><time>2026-04-06T13:03:45.017Z</time></trkpt><trkpt lat="45.7874432" lon="13.69123"><ele>201.66666666666669</ele><time>2026-04-06T13:03:47.022Z</time></trkpt><trkpt lat="45.7873803" lon="13.691256"><ele>199.83333333333334</ele><time>2026-04-06T13:03:49.011Z</time></trkpt><trkpt lat="45.7872975" lon="13.6912995"><ele>198.0</ele><time>2026-04-06T13:03:51.015Z</time></trkpt><trkpt lat="45.7872281" lon="13.6913398"><ele>198.0</ele><time>2026-04-06T13:03:54.017Z</time></trkpt><trkpt lat="45.7871554" lon="13.6913818"><ele>198.0</ele><time>2026-04-06T13:03:57.014Z</time></trkpt><trkpt lat="45.7871056" lon="13.6914899"><ele>198.0</ele><time>2026-04-06T13:04:00.009Z</time></trkpt><trkpt lat="45.787069" lon="13.6915916"><ele>198.0</ele><time>2026-04-06T13:04:02.011Z</time></trkpt><trkpt lat="45.7870398" lon="13.6916797"><ele>198.0</ele><time>2026-04-06T13:04:04.008Z</time></trkpt><trkpt lat="45.7869885" lon="13.6917442"><ele>198.0</ele><time>2026-04-06T13:04:06.015Z</time></trkpt><trkpt lat="45.7869296" lon="13.6918075"><ele>198.0</ele><time>2026-04-06T13:04:08.009Z</time></trkpt><trkpt lat="45.7868504" lon="13.6918434"><ele>198.0</ele><time>2026-04-06T13:04:10.014Z</time></trkpt><trkpt lat="45.7867687" lon="13.6918712"><ele>198.0</ele><time>2026-04-06T13:04:12.024Z</time></trkpt><trkpt lat="45.7866983" lon="13.6918931"><ele>198.0</ele><time>2026-04-06T13:04:15.032Z</time></trkpt><trkpt lat="45.786631" lon="13.6919007"><ele>198.0</ele><time>2026-04-06T13:04:18.012Z</time></trkpt><trkpt lat="45.7865455" lon="13.6919454"><ele>198.0</ele><time>2026-04-06T13:04:21.02Z</time></trkpt><trkpt lat="45.7864832" lon="13.6920124"><ele>199.14285714285714</ele><time>2026-04-06T13:04:25.006Z</time></trkpt><trkpt lat="45.7863971" lon="13.6921176"><ele>200.28571428571428</ele><time>2026-04-06T13:04:27.015Z</time></trkpt><trkpt lat="45.7863518" lon="13.6921825"><ele>201.42857142857142</ele><time>2026-04-06T13:04:28.011Z</time></trkpt><trkpt lat="45.7863016" lon="13.6922537"><ele>202.57142857142856</ele><time>2026-04-06T13:04:29.013Z</time></trkpt><trkpt lat="45.7862577" lon="13.6923287"><ele>203.71428571428572</ele><time>2026-04-06T13:04:30.019Z</time></trkpt><trkpt lat="45.7862156" lon="13.6923991"><ele>204.85714285714283</ele><time>2026-04-06T13:04:31.016Z</time></trkpt><trkpt lat="45.7861753" lon="13.6924691"><ele>206.0</ele><time>2026-04-06T13:04:32.013Z</time></trkpt><trkpt lat="45.7861331" lon="13.6925395"><ele>206.0</ele><time>2026-04-06T13:04:33.027Z</time></trkpt><trkpt lat="45.7860912" lon="13.6926085"><ele>206.0</ele><time>2026-04-06T13:04:34.01Z</time></trkpt><trkpt lat="45.7860194" lon="13.6927493"><ele>206.0</ele><time>2026-04-06T13:04:36.015Z</time></trkpt><trkpt lat="45.7859318" lon="13.6928585"><ele>206.0</ele><time>2026-04-06T13:04:38.016Z</time></trkpt><trkpt lat="45.7858412" lon="13.6929556"><ele>206.0</ele><time>2026-04-06T13:04:40.02Z</time></trkpt><trkpt lat="45.7857519" lon="13.6930556"><ele>206.20000000000002</ele><time>2026-04-06T13:04:42.02Z</time></trkpt><trkpt lat="45.7856803" lon="13.6931552"><ele>206.4</ele><time>2026-04-06T13:04:44.028Z</time></trkpt><trkpt lat="45.7855882" lon="13.6932245"><ele>206.6</ele><time>2026-04-06T13:04:46.026Z</time></trkpt><trkpt lat="45.7854781" lon="13.6932783"><ele>206.8</ele><time>2026-04-06T13:04:48.015Z</time></trkpt><trkpt lat="45.7853697" lon="13.6933559"><ele>207.0</ele><time>2026-04-06T13:04:50.024Z</time></trkpt><trkpt lat="45.7853201" lon="13.6934174"><ele>207.0</ele><time>2026-04-06T13:04:51.037Z</time></trkpt><trkpt lat="45.7852254" lon="13.6935435"><ele>207.0</ele><time>2026-04-06T13:04:53.03Z</time></trkpt><trkpt lat="45.7851806" lon="13.6936138"><ele>207.0</ele><time>2026-04-06T13:04:54.018Z</time></trkpt><trkpt lat="45.785135" lon="13.6936805"><ele>207.0</ele><time>2026-04-06T13:04:55.02Z</time></trkpt><trkpt lat="45.7850904" lon="13.6937446"><ele>207.0</ele><time>2026-04-06T13:04:56.017Z</time></trkpt><trkpt lat="45.7850107" lon="13.69387"><ele>207.0</ele><time>2026-04-06T13:04:58.016Z</time></trkpt><trkpt lat="45.7849322" lon="13.6939896"><ele>205.2</ele><time>2026-04-06T13:05:00.02Z</time></trkpt><trkpt lat="45.7848592" lon="13.6941072"><ele>203.39999999999998</ele><time>2026-04-06T13:05:02.012Z</time></trkpt><trkpt lat="45.7847886" lon="13.6942343"><ele>201.60000000000002</ele><time>2026-04-06T13:05:04.009Z</time></trkpt><trkpt lat="45.7847553" lon="13.6943656"><ele>199.8</ele><time>2026-04-06T13:05:06.031Z</time></trkpt><trkpt lat="45.7847205" lon="13.6945114"><ele>198.0</ele><time>2026-04-06T13:05:08.011Z</time></trkpt><trkpt lat="45.7846778" lon="13.694672"><ele>196.2</ele><time>2026-04-06T13:05:10.022Z</time></trkpt><trkpt lat="45.7846444" lon="13.6948292"><ele>194.4</ele><time>2026-04-06T13:05:12.016Z</time></trkpt><trkpt lat="45.7846298" lon="13.694997"><ele>192.6</ele><time>2026-04-06T13:05:14.011Z</time></trkpt><trkpt lat="45.7845771" lon="13.6951198"><ele>190.79999999999998</ele><time>2026-04-06T13:05:16.01Z</time></trkpt><trkpt lat="45.7845199" lon="13.6952509"><ele>189.0</ele><time>2026-04-06T13:05:18.017Z</time></trkpt><trkpt lat="45.7844476" lon="13.6953566"><ele>189.39999999999998</ele><time>2026-04-06T13:05:20.016Z</time></trkpt><trkpt lat="45.7843953" lon="13.6954069"><ele>189.8</ele><time>2026-04-06T13:05:21.019Z</time></trkpt><trkpt lat="45.7843025" lon="13.6955399"><ele>190.2</ele><time>2026-04-06T13:05:23.027Z</time></trkpt><trkpt lat="45.7842531" lon="13.695596"><ele>190.60000000000002</ele><time>2026-04-06T13:05:24.015Z</time></trkpt><trkpt lat="45.7841483" lon="13.695708"><ele>191.0</ele><time>2026-04-06T13:05:26.027Z</time></trkpt><trkpt lat="45.7840485" lon="13.6958031"><ele>191.0</ele><time>2026-04-06T13:05:28.023Z</time></trkpt><trkpt lat="45.7839846" lon="13.6958352"><ele>191.0</ele><time>2026-04-06T13:05:29.018Z</time></trkpt><trkpt lat="45.7839162" lon="13.6958648"><ele>191.0</ele><time>2026-04-06T13:05:30.02Z</time></trkpt><trkpt lat="45.7838496" lon="13.6958984"><ele>191.0</ele><time>2026-04-06T13:05:31.029Z</time></trkpt><trkpt lat="45.7837833" lon="13.6959415"><ele>191.0</ele><time>2026-04-06T13:05:32.019Z</time></trkpt><trkpt lat="45.7837165" lon="13.6959867"><ele>191.0</ele><time>2026-04-06T13:05:33.026Z</time></trkpt><trkpt lat="45.783655" lon="13.6960372"><ele>191.0</ele><time>2026-04-06T13:05:34.025Z</time></trkpt><trkpt lat="45.7835953" lon="13.6960836"><ele>189.66666666666666</ele><time>2026-04-06T13:05:35.025Z</time></trkpt><trkpt lat="45.7835305" lon="13.6961294"><ele>188.33333333333331</ele><time>2026-04-06T13:05:36.021Z</time></trkpt><trkpt lat="45.7834717" lon="13.6961757"><ele>187.0</ele><time>2026-04-06T13:05:37.034Z</time></trkpt><trkpt lat="45.7834176" lon="13.6962267"><ele>185.66666666666666</ele><time>2026-04-06T13:05:38.027Z</time></trkpt><trkpt lat="45.783367" lon="13.6962862"><ele>184.33333333333334</ele><time>2026-04-06T13:05:39.033Z</time></trkpt><trkpt lat="45.7832824" lon="13.6964184"><ele>183.0</ele><time>2026-04-06T13:05:41.04Z</time></trkpt><trkpt lat="45.7832049" lon="13.6965582"><ele>182.8</ele><time>2026-04-06T13:05:43.017Z</time></trkpt><trkpt lat="45.7831772" lon="13.6966562"><ele>182.60000000000002</ele><time>2026-04-06T13:05:45.03Z</time></trkpt><trkpt lat="45.7831439" lon="13.6967862"><ele>182.39999999999998</ele><time>2026-04-06T13:05:48.025Z</time></trkpt><trkpt lat="45.7830785" lon="13.6969026"><ele>182.2</ele><time>2026-04-06T13:05:50.021Z</time></trkpt><trkpt lat="45.7830119" lon="13.6970221"><ele>182.0</ele><time>2026-04-06T13:05:52.022Z</time></trkpt><trkpt lat="45.7829445" lon="13.697114"><ele>182.0</ele><time>2026-04-06T13:05:54.009Z</time></trkpt><trkpt lat="45.7828506" lon="13.6971802"><ele>182.0</ele><time>2026-04-06T13:05:56.005Z</time></trkpt><trkpt lat="45.7827743" lon="13.6972653"><ele>182.0</ele><time>2026-04-06T13:05:58.011Z</time></trkpt><trkpt lat="45.7827029" lon="13.6973898"><ele>182.0</ele><time>2026-04-06T13:06:00.015Z</time></trkpt><trkpt lat="45.7826401" lon="13.6975142"><ele>182.0</ele><time>2026-04-06T13:06:02.019Z</time></trkpt><trkpt lat="45.7825905" lon="13.6976479"><ele>181.16666666666666</ele><time>2026-04-06T13:06:04.027Z</time></trkpt><trkpt lat="45.7825549" lon="13.6977849"><ele>180.33333333333331</ele><time>2026-04-06T13:06:06.02Z</time></trkpt><trkpt lat="45.7825272" lon="13.6978852"><ele>179.5</ele><time>2026-04-06T13:06:08.024Z</time></trkpt><trkpt lat="45.7825121" lon="13.6979981"><ele>178.66666666666666</ele><time>2026-04-06T13:06:10.039Z</time></trkpt><trkpt lat="45.7825076" lon="13.6980889"><ele>177.83333333333334</ele><time>2026-04-06T13:06:12.017Z</time></trkpt><trkpt lat="45.7824908" lon="13.6981818"><ele>177.0</ele><time>2026-04-06T13:06:15.018Z</time></trkpt><trkpt lat="45.7824326" lon="13.6982656"><ele>177.0</ele><time>2026-04-06T13:06:18.021Z</time></trkpt><trkpt lat="45.7823931" lon="13.698343"><ele>177.0</ele><time>2026-04-06T13:06:19.009Z</time></trkpt><trkpt lat="45.7823435" lon="13.6984203"><ele>177.0</ele><time>2026-04-06T13:06:20.011Z</time></trkpt><trkpt lat="45.7822847" lon="13.6984974"><ele>177.0</ele><time>2026-04-06T13:06:21.018Z</time></trkpt><trkpt lat="45.7822222" lon="13.6985755"><ele>177.0</ele><time>2026-04-06T13:06:22.036Z</time></trkpt><trkpt lat="45.7821574" lon="13.6986596"><ele>177.0</ele><time>2026-04-06T13:06:23.026Z</time></trkpt><trkpt lat="45.7821081" lon="13.6987215"><ele>176.57142857142858</ele><time>2026-04-06T13:06:24.022Z</time></trkpt><trkpt lat="45.782067" lon="13.6988238"><ele>176.14285714285714</ele><time>2026-04-06T13:06:26.029Z</time></trkpt><trkpt lat="45.7820604" lon="13.6989188"><ele>175.71428571428572</ele><time>2026-04-06T13:06:27.021Z</time></trkpt><trkpt lat="45.7820526" lon="13.6990134"><ele>175.28571428571428</ele><time>2026-04-06T13:06:28.021Z</time></trkpt><trkpt lat="45.7820428" lon="13.6991076"><ele>174.85714285714286</ele><time>2026-04-06T13:06:29.026Z</time></trkpt><trkpt lat="45.7820345" lon="13.6992122"><ele>174.42857142857142</ele><time>2026-04-06T13:06:30.03Z</time></trkpt><trkpt lat="45.7820177" lon="13.6993166"><ele>174.0</ele><time>2026-04-06T13:06:31.036Z</time></trkpt><trkpt lat="45.7820027" lon="13.6994125"><ele>173.0</ele><time>2026-04-06T13:06:32.024Z</time></trkpt><trkpt lat="45.7819892" lon="13.6995659"><ele>172.0</ele><time>2026-04-06T13:06:34.024Z</time></trkpt><trkpt lat="45.7819767" lon="13.6996926"><ele>171.0</ele><time>2026-04-06T13:06:36.015Z</time></trkpt><trkpt lat="45.7819233" lon="13.6998037"><ele>170.0</ele><time>2026-04-06T13:06:39.022Z</time></trkpt><trkpt lat="45.7818705" lon="13.699888"><ele>169.0</ele><time>2026-04-06T13:06:40.009Z</time></trkpt><trkpt lat="45.7818211" lon="13.6999655"><ele>168.0</ele><time>2026-04-06T13:06:41.023Z</time></trkpt><trkpt lat="45.7817741" lon="13.7000311"><ele>168.0</ele><time>2026-04-06T13:06:42.016Z</time></trkpt><trkpt lat="45.7817275" lon="13.7000927"><ele>168.0</ele><time>2026-04-06T13:06:43.016Z</time></trkpt><trkpt lat="45.7816888" lon="13.7002146"><ele>168.0</ele><time>2026-04-06T13:06:45.02Z</time></trkpt><trkpt lat="45.7817114" lon="13.7004179"><ele>168.0</ele><time>2026-04-06T13:06:47.014Z</time></trkpt><trkpt lat="45.7817313" lon="13.7005423"><ele>168.0</ele><time>2026-04-06T13:06:48.019Z</time></trkpt><trkpt lat="45.7817472" lon="13.7006757"><ele>168.16666666666666</ele><time>2026-04-06T13:06:49.02Z</time></trkpt><trkpt lat="45.7817566" lon="13.7008112"><ele>168.33333333333334</ele><time>2026-04-06T13:06:50.024Z</time></trkpt><trkpt lat="45.7817579" lon="13.7009382"><ele>168.5</ele><time>2026-04-06T13:06:51.026Z</time></trkpt><trkpt lat="45.7817462" lon="13.7010598"><ele>168.66666666666669</ele><time>2026-04-06T13:06:52.007Z</time></trkpt><trkpt lat="45.7817287" lon="13.7011794"><ele>168.83333333333334</ele><time>2026-04-06T13:06:53.019Z</time></trkpt><trkpt lat="45.7817008" lon="13.7012872"><ele>169.0</ele><time>2026-04-06T13:06:54.009Z</time></trkpt><trkpt lat="45.7816626" lon="13.7013951"><ele>168.33333333333334</ele><time>2026-04-06T13:06:55.01Z</time></trkpt><trkpt lat="45.7816263" lon="13.7014894"><ele>167.66666666666669</ele><time>2026-04-06T13:06:56.012Z</time></trkpt><trkpt lat="45.7815807" lon="13.7015609"><ele>167.0</ele><time>2026-04-06T13:06:57.015Z</time></trkpt><trkpt lat="45.7815245" lon="13.7016264"><ele>166.33333333333334</ele><time>2026-04-06T13:06:58.003Z</time></trkpt><trkpt lat="45.781474" lon="13.701705"><ele>165.66666666666666</ele><time>2026-04-06T13:06:59.008Z</time></trkpt><trkpt lat="45.7814315" lon="13.7018102"><ele>165.0</ele><time>2026-04-06T13:07:00.015Z</time></trkpt><trkpt lat="45.7813962" lon="13.7019398"><ele>164.33333333333334</ele><time>2026-04-06T13:07:01.005Z</time></trkpt><trkpt lat="45.7813623" lon="13.702075"><ele>163.66666666666666</ele><time>2026-04-06T13:07:02.017Z</time></trkpt><trkpt lat="45.78133" lon="13.7022013"><ele>163.0</ele><time>2026-04-06T13:07:03.014Z</time></trkpt><trkpt lat="45.7812956" lon="13.7023155"><ele>162.33333333333331</ele><time>2026-04-06T13:07:04.015Z</time></trkpt><trkpt lat="45.7812648" lon="13.7024216"><ele>161.66666666666666</ele><time>2026-04-06T13:07:05.008Z</time></trkpt><trkpt lat="45.7812294" lon="13.7025272"><ele>161.0</ele><time>2026-04-06T13:07:06.02Z</time></trkpt><trkpt lat="45.781197" lon="13.7026384"><ele>160.83333333333331</ele><time>2026-04-06T13:07:07.007Z</time></trkpt><trkpt lat="45.7811656" lon="13.7027491"><ele>160.66666666666666</ele><time>2026-04-06T13:07:08.012Z</time></trkpt><trkpt lat="45.7811363" lon="13.7028666"><ele>160.5</ele><time>2026-04-06T13:07:09.022Z</time></trkpt><trkpt lat="45.7811114" lon="13.7029936"><ele>160.33333333333334</ele><time>2026-04-06T13:07:10.016Z</time></trkpt><trkpt lat="45.7810812" lon="13.7031217"><ele>160.16666666666669</ele><time>2026-04-06T13:07:11.031Z</time></trkpt><trkpt lat="45.7810435" lon="13.7032415"><ele>160.0</ele><time>2026-04-06T13:07:12.016Z</time></trkpt><trkpt lat="45.7810206" lon="13.7033646"><ele>160.0</ele><time>2026-04-06T13:07:13.016Z</time></trkpt><trkpt lat="45.7810164" lon="13.7034908"><ele>160.0</ele><time>2026-04-06T13:07:14.019Z</time></trkpt><trkpt lat="45.7810239" lon="13.703616"><ele>160.0</ele><time>2026-04-06T13:07:15.006Z</time></trkpt><trkpt lat="45.781038" lon="13.7037359"><ele>160.0</ele><time>2026-04-06T13:07:16.022Z</time></trkpt><trkpt lat="45.7810617" lon="13.7038498"><ele>160.0</ele><time>2026-04-06T13:07:17.024Z</time></trkpt><trkpt lat="45.7810999" lon="13.7039586"><ele>160.0</ele><time>2026-04-06T13:07:18.03Z</time></trkpt><trkpt lat="45.781149" lon="13.7040521"><ele>159.8</ele><time>2026-04-06T13:07:19.025Z</time></trkpt><trkpt lat="45.7812087" lon="13.7041371"><ele>159.6</ele><time>2026-04-06T13:07:20.029Z</time></trkpt><trkpt lat="45.7812831" lon="13.7042198"><ele>159.4</ele><time>2026-04-06T13:07:21.008Z</time></trkpt><trkpt lat="45.7813592" lon="13.7043036"><ele>159.2</ele><time>2026-04-06T13:07:22.017Z</time></trkpt><trkpt lat="45.7814331" lon="13.7043904"><ele>159.0</ele><time>2026-04-06T13:07:23.022Z</time></trkpt><trkpt lat="45.7815073" lon="13.7044767"><ele>159.0</ele><time>2026-04-06T13:07:24.012Z</time></trkpt><trkpt lat="45.7815769" lon="13.7045673"><ele>159.0</ele><time>2026-04-06T13:07:25.034Z</time></trkpt><trkpt lat="45.7816355" lon="13.7046603"><ele>159.0</ele><time>2026-04-06T13:07:26.019Z</time></trkpt><trkpt lat="45.7816785" lon="13.7047647"><ele>159.0</ele><time>2026-04-06T13:07:27.017Z</time></trkpt><trkpt lat="45.7817024" lon="13.7048718"><ele>159.0</ele><time>2026-04-06T13:07:28.021Z</time></trkpt><trkpt lat="45.7816968" lon="13.7049806"><ele>159.0</ele><time>2026-04-06T13:07:29.013Z</time></trkpt><trkpt lat="45.7816749" lon="13.7050949"><ele>159.0</ele><time>2026-04-06T13:07:30.007Z</time></trkpt><trkpt lat="45.7816447" lon="13.7052052"><ele>159.0</ele><time>2026-04-06T13:07:31.008Z</time></trkpt><trkpt lat="45.7816079" lon="13.7053147"><ele>159.0</ele><time>2026-04-06T13:07:32.029Z</time></trkpt><trkpt lat="45.7815655" lon="13.7054251"><ele>159.0</ele><time>2026-04-06T13:07:33.011Z</time></trkpt><trkpt lat="45.781526" lon="13.7055405"><ele>159.0</ele><time>2026-04-06T13:07:34.021Z</time></trkpt><trkpt lat="45.7814943" lon="13.7056626"><ele>159.0</ele><time>2026-04-06T13:07:35.028Z</time></trkpt><trkpt lat="45.7814731" lon="13.7057986"><ele>159.33333333333334</ele><time>2026-04-06T13:07:36.023Z</time></trkpt><trkpt lat="45.7814477" lon="13.7059275"><ele>159.66666666666666</ele><time>2026-04-06T13:07:37.036Z</time></trkpt><trkpt lat="45.7814112" lon="13.7060355"><ele>160.0</ele><time>2026-04-06T13:07:38.028Z</time></trkpt><trkpt lat="45.7813631" lon="13.7061322"><ele>160.33333333333331</ele><time>2026-04-06T13:07:39.024Z</time></trkpt><trkpt lat="45.7813053" lon="13.7062201"><ele>160.66666666666666</ele><time>2026-04-06T13:07:40.029Z</time></trkpt><trkpt lat="45.7812536" lon="13.7063023"><ele>161.0</ele><time>2026-04-06T13:07:41.026Z</time></trkpt><trkpt lat="45.7812261" lon="13.706393"><ele>161.0</ele><time>2026-04-06T13:07:42.026Z</time></trkpt><trkpt lat="45.7812731" lon="13.7065517"><ele>161.0</ele><time>2026-04-06T13:07:44.008Z</time></trkpt><trkpt lat="45.7813174" lon="13.7066235"><ele>161.0</ele><time>2026-04-06T13:07:45.015Z</time></trkpt><trkpt lat="45.7813676" lon="13.7066958"><ele>161.0</ele><time>2026-04-06T13:07:46.008Z</time></trkpt><trkpt lat="45.7814131" lon="13.7067833"><ele>161.0</ele><time>2026-04-06T13:07:47.03Z</time></trkpt><trkpt lat="45.7814551" lon="13.7068667"><ele>161.0</ele><time>2026-04-06T13:07:48.015Z</time></trkpt><trkpt lat="45.7814946" lon="13.7069445"><ele>161.0</ele><time>2026-04-06T13:07:49.02Z</time></trkpt><trkpt lat="45.7815908" lon="13.7070004"><ele>161.0</ele><time>2026-04-06T13:07:51.008Z</time></trkpt><trkpt lat="45.7817026" lon="13.7070439"><ele>161.0</ele><time>2026-04-06T13:07:53.031Z</time></trkpt><trkpt lat="45.7817688" lon="13.707104"><ele>161.0</ele><time>2026-04-06T13:07:54.031Z</time></trkpt><trkpt lat="45.7818406" lon="13.7071737"><ele>161.0</ele><time>2026-04-06T13:07:55.03Z</time></trkpt><trkpt lat="45.7819083" lon="13.707245"><ele>160.83333333333331</ele><time>2026-04-06T13:07:56.025Z</time></trkpt><trkpt lat="45.781976" lon="13.7073178"><ele>160.66666666666666</ele><time>2026-04-06T13:07:57.029Z</time></trkpt><trkpt lat="45.7820446" lon="13.7073837"><ele>160.5</ele><time>2026-04-06T13:07:58.02Z</time></trkpt><trkpt lat="45.7821118" lon="13.7074435"><ele>160.33333333333334</ele><time>2026-04-06T13:07:59.023Z</time></trkpt><trkpt lat="45.7821753" lon="13.7074868"><ele>160.16666666666669</ele><time>2026-04-06T13:08:00.03Z</time></trkpt><trkpt lat="45.7822417" lon="13.7076094"><ele>160.0</ele><time>2026-04-06T13:08:02.025Z</time></trkpt><trkpt lat="45.7822376" lon="13.707794"><ele>160.5</ele><time>2026-04-06T13:08:04.014Z</time></trkpt><trkpt lat="45.7822168" lon="13.7079073"><ele>161.0</ele><time>2026-04-06T13:08:05.014Z</time></trkpt><trkpt lat="45.7821982" lon="13.7080354"><ele>161.5</ele><time>2026-04-06T13:08:06.009Z</time></trkpt><trkpt lat="45.7821968" lon="13.7081458"><ele>162.0</ele><time>2026-04-06T13:08:07.03Z</time></trkpt><trkpt lat="45.7822348" lon="13.7082564"><ele>162.5</ele><time>2026-04-06T13:08:08.016Z</time></trkpt><trkpt lat="45.7822697" lon="13.7083632"><ele>163.0</ele><time>2026-04-06T13:08:09.018Z</time></trkpt><trkpt lat="45.7822829" lon="13.7084628"><ele>162.83333333333334</ele><time>2026-04-06T13:08:10.028Z</time></trkpt><trkpt lat="45.7822706" lon="13.7085849"><ele>162.66666666666669</ele><time>2026-04-06T13:08:11.027Z</time></trkpt><trkpt lat="45.7822606" lon="13.7087097"><ele>162.5</ele><time>2026-04-06T13:08:12.013Z</time></trkpt><trkpt lat="45.7822747" lon="13.7088295"><ele>162.33333333333334</ele><time>2026-04-06T13:08:13.034Z</time></trkpt><trkpt lat="45.7823076" lon="13.7089227"><ele>162.16666666666666</ele><time>2026-04-06T13:08:14.024Z</time></trkpt><trkpt lat="45.7823629" lon="13.7089947"><ele>162.0</ele><time>2026-04-06T13:08:15.008Z</time></trkpt><trkpt lat="45.7824244" lon="13.7090472"><ele>162.0</ele><time>2026-04-06T13:08:16.006Z</time></trkpt><trkpt lat="45.7824881" lon="13.7091124"><ele>162.0</ele><time>2026-04-06T13:08:17.013Z</time></trkpt><trkpt lat="45.7825499" lon="13.7091921"><ele>162.0</ele><time>2026-04-06T13:08:18.021Z</time></trkpt><trkpt lat="45.7826116" lon="13.7092823"><ele>162.0</ele><time>2026-04-06T13:08:19.02Z</time></trkpt><trkpt lat="45.7826679" lon="13.7093827"><ele>162.0</ele><time>2026-04-06T13:08:20.015Z</time></trkpt><trkpt lat="45.7827205" lon="13.7094886"><ele>162.0</ele><time>2026-04-06T13:08:21.038Z</time></trkpt><trkpt lat="45.7827817" lon="13.7095897"><ele>161.4</ele><time>2026-04-06T13:08:22.014Z</time></trkpt><trkpt lat="45.7828439" lon="13.7096899"><ele>160.79999999999998</ele><time>2026-04-06T13:08:23.018Z</time></trkpt><trkpt lat="45.782912" lon="13.709784"><ele>160.2</ele><time>2026-04-06T13:08:24.013Z</time></trkpt><trkpt lat="45.7829881" lon="13.7098708"><ele>159.6</ele><time>2026-04-06T13:08:25.022Z</time></trkpt><trkpt lat="45.7830658" lon="13.709938"><ele>159.0</ele><time>2026-04-06T13:08:26.016Z</time></trkpt><trkpt lat="45.7831217" lon="13.7100224"><ele>159.0</ele><time>2026-04-06T13:08:27.021Z</time></trkpt><trkpt lat="45.7831632" lon="13.7101271"><ele>159.0</ele><time>2026-04-06T13:08:28.011Z</time></trkpt><trkpt lat="45.7832072" lon="13.7102366"><ele>159.0</ele><time>2026-04-06T13:08:29.03Z</time></trkpt><trkpt lat="45.7832641" lon="13.7103428"><ele>159.0</ele><time>2026-04-06T13:08:30.014Z</time></trkpt><trkpt lat="45.7833283" lon="13.710427"><ele>159.0</ele><time>2026-04-06T13:08:31.012Z</time></trkpt><trkpt lat="45.7833863" lon="13.7105033"><ele>159.0</ele><time>2026-04-06T13:08:32.006Z</time></trkpt><trkpt lat="45.7834372" lon="13.7105748"><ele>158.83333333333334</ele><time>2026-04-06T13:08:33.026Z</time></trkpt><trkpt lat="45.7834781" lon="13.7106537"><ele>158.66666666666666</ele><time>2026-04-06T13:08:34.014Z</time></trkpt><trkpt lat="45.7835148" lon="13.7107476"><ele>158.5</ele><time>2026-04-06T13:08:35.038Z</time></trkpt><trkpt lat="45.7835511" lon="13.7108448"><ele>158.33333333333331</ele><time>2026-04-06T13:08:36.018Z</time></trkpt><trkpt lat="45.7835916" lon="13.7109437"><ele>158.16666666666666</ele><time>2026-04-06T13:08:37.028Z</time></trkpt><trkpt lat="45.7836241" lon="13.7110455"><ele>158.0</ele><time>2026-04-06T13:08:38.023Z</time></trkpt><trkpt lat="45.783646" lon="13.7111455"><ele>158.4</ele><time>2026-04-06T13:08:39.017Z</time></trkpt><trkpt lat="45.7836691" lon="13.7113097"><ele>158.8</ele><time>2026-04-06T13:08:41.023Z</time></trkpt><trkpt lat="45.7836896" lon="13.711434"><ele>159.2</ele><time>2026-04-06T13:08:43.009Z</time></trkpt><trkpt lat="45.783752" lon="13.7114956"><ele>159.6</ele><time>2026-04-06T13:08:45.01Z</time></trkpt><trkpt lat="45.7838072" lon="13.7115419"><ele>160.0</ele><time>2026-04-06T13:08:47.03Z</time></trkpt><trkpt lat="45.7838045" lon="13.7117068"><ele>160.0</ele><time>2026-04-06T13:08:49.014Z</time></trkpt><trkpt lat="45.7837751" lon="13.7117994"><ele>160.0</ele><time>2026-04-06T13:08:50.004Z</time></trkpt><trkpt lat="45.7837341" lon="13.7118844"><ele>160.0</ele><time>2026-04-06T13:08:51.009Z</time></trkpt><trkpt lat="45.7837016" lon="13.7119667"><ele>160.0</ele><time>2026-04-06T13:08:52.008Z</time></trkpt><trkpt lat="45.7836892" lon="13.7120607"><ele>160.0</ele><time>2026-04-06T13:08:53.004Z</time></trkpt><trkpt lat="45.7836937" lon="13.712168"><ele>160.0</ele><time>2026-04-06T13:08:54.004Z</time></trkpt><trkpt lat="45.7837075" lon="13.7122825"><ele>160.0</ele><time>2026-04-06T13:08:55.017Z</time></trkpt><trkpt lat="45.7837219" lon="13.7124089"><ele>160.66666666666669</ele><time>2026-04-06T13:08:56.029Z</time></trkpt><trkpt lat="45.7837327" lon="13.7125393"><ele>161.33333333333334</ele><time>2026-04-06T13:08:57.023Z</time></trkpt><trkpt lat="45.7837423" lon="13.7126563"><ele>162.0</ele><time>2026-04-06T13:08:58.014Z</time></trkpt><trkpt lat="45.78376" lon="13.7127674"><ele>162.66666666666666</ele><time>2026-04-06T13:08:59.012Z</time></trkpt><trkpt lat="45.7838004" lon="13.7128658"><ele>163.33333333333331</ele><time>2026-04-06T13:09:00.027Z</time></trkpt><trkpt lat="45.783854" lon="13.7129539"><ele>164.0</ele><time>2026-04-06T13:09:01.011Z</time></trkpt><trkpt lat="45.783919" lon="13.7130186"><ele>164.5</ele><time>2026-04-06T13:09:02.022Z</time></trkpt><trkpt lat="45.7839946" lon="13.7130648"><ele>165.0</ele><time>2026-04-06T13:09:03.01Z</time></trkpt><trkpt lat="45.784077" lon="13.7131068"><ele>165.5</ele><time>2026-04-06T13:09:04.009Z</time></trkpt><trkpt lat="45.7841528" lon="13.7131689"><ele>166.0</ele><time>2026-04-06T13:09:05.019Z</time></trkpt><trkpt lat="45.7842269" lon="13.7132464"><ele>166.5</ele><time>2026-04-06T13:09:06.009Z</time></trkpt><trkpt lat="45.7842948" lon="13.7133274"><ele>167.0</ele><time>2026-04-06T13:09:07.019Z</time></trkpt><trkpt lat="45.7843648" lon="13.7133973"><ele>167.66666666666666</ele><time>2026-04-06T13:09:08.016Z</time></trkpt><trkpt lat="45.784439" lon="13.7134677"><ele>168.33333333333331</ele><time>2026-04-06T13:09:09.021Z</time></trkpt><trkpt lat="45.7845117" lon="13.7135526"><ele>169.0</ele><time>2026-04-06T13:09:10.02Z</time></trkpt><trkpt lat="45.7845813" lon="13.7136405"><ele>169.66666666666666</ele><time>2026-04-06T13:09:11.021Z</time></trkpt><trkpt lat="45.7846506" lon="13.7137169"><ele>170.33333333333334</ele><time>2026-04-06T13:09:12.013Z</time></trkpt><trkpt lat="45.7847078" lon="13.7137842"><ele>171.0</ele><time>2026-04-06T13:09:13.022Z</time></trkpt><trkpt lat="45.7847515" lon="13.7139315"><ele>172.0</ele><time>2026-04-06T13:09:15.009Z</time></trkpt><trkpt lat="45.7847384" lon="13.7141248"><ele>173.0</ele><time>2026-04-06T13:09:17.025Z</time></trkpt><trkpt lat="45.784729" lon="13.7142332"><ele>174.0</ele><time>2026-04-06T13:09:18.024Z</time></trkpt><trkpt lat="45.7847313" lon="13.7143532"><ele>175.0</ele><time>2026-04-06T13:09:19.016Z</time></trkpt><trkpt lat="45.7847401" lon="13.7144748"><ele>176.0</ele><time>2026-04-06T13:09:20.023Z</time></trkpt><trkpt lat="45.7847474" lon="13.7145897"><ele>176.83333333333331</ele><time>2026-04-06T13:09:21.007Z</time></trkpt><trkpt lat="45.7847539" lon="13.7146862"><ele>177.66666666666666</ele><time>2026-04-06T13:09:22.025Z</time></trkpt><trkpt lat="45.7847514" lon="13.7147825"><ele>178.5</ele><time>2026-04-06T13:09:23.026Z</time></trkpt><trkpt lat="45.7846862" lon="13.7149209"><ele>179.33333333333334</ele><time>2026-04-06T13:09:25.02Z</time></trkpt><trkpt lat="45.7846343" lon="13.7149766"><ele>180.16666666666669</ele><time>2026-04-06T13:09:26.011Z</time></trkpt><trkpt lat="45.7845372" lon="13.715102"><ele>181.0</ele><time>2026-04-06T13:09:28.023Z</time></trkpt><trkpt lat="45.784499" lon="13.7151963"><ele>181.20000000000002</ele><time>2026-04-06T13:09:29.015Z</time></trkpt><trkpt lat="45.7844611" lon="13.7152887"><ele>181.4</ele><time>2026-04-06T13:09:30.015Z</time></trkpt><trkpt lat="45.7844251" lon="13.7153786"><ele>181.6</ele><time>2026-04-06T13:09:31.031Z</time></trkpt><trkpt lat="45.7843896" lon="13.7154574"><ele>181.8</ele><time>2026-04-06T13:09:32.024Z</time></trkpt><trkpt lat="45.7843176" lon="13.7156068"><ele>182.0</ele><time>2026-04-06T13:09:34.022Z</time></trkpt><trkpt lat="45.7842814" lon="13.7158095"><ele>181.83333333333331</ele><time>2026-04-06T13:09:36.036Z</time></trkpt><trkpt lat="45.784283" lon="13.7159454"><ele>181.66666666666666</ele><time>2026-04-06T13:09:37.023Z</time></trkpt><trkpt lat="45.7842823" lon="13.7160754"><ele>181.5</ele><time>2026-04-06T13:09:38.018Z</time></trkpt><trkpt lat="45.7842655" lon="13.7161971"><ele>181.33333333333334</ele><time>2026-04-06T13:09:39.023Z</time></trkpt><trkpt lat="45.7842405" lon="13.7162835"><ele>181.16666666666669</ele><time>2026-04-06T13:09:40.013Z</time></trkpt><trkpt lat="45.7842173" lon="13.716368"><ele>181.0</ele><time>2026-04-06T13:09:41.028Z</time></trkpt><trkpt lat="45.7842231" lon="13.7165218"><ele>181.0</ele><time>2026-04-06T13:09:43.023Z</time></trkpt><trkpt lat="45.7842592" lon="13.7166065"><ele>181.0</ele><time>2026-04-06T13:09:44.008Z</time></trkpt><trkpt lat="45.7842967" lon="13.7166966"><ele>181.0</ele><time>2026-04-06T13:09:45.009Z</time></trkpt><trkpt lat="45.7843365" lon="13.7167871"><ele>181.0</ele><time>2026-04-06T13:09:46.005Z</time></trkpt><trkpt lat="45.7843746" lon="13.7168698"><ele>181.0</ele><time>2026-04-06T13:09:47.014Z</time></trkpt><trkpt lat="45.7844191" lon="13.716943"><ele>181.0</ele><time>2026-04-06T13:09:48.018Z</time></trkpt><trkpt lat="45.7844779" lon="13.7170026"><ele>181.0</ele><time>2026-04-06T13:09:49.009Z</time></trkpt><trkpt lat="45.7845287" lon="13.7170638"><ele>182.0</ele><time>2026-04-06T13:09:50.013Z</time></trkpt><trkpt lat="45.7845593" lon="13.7171632"><ele>183.0</ele><time>2026-04-06T13:09:51.005Z</time></trkpt><trkpt lat="45.7845759" lon="13.7172722"><ele>184.0</ele><time>2026-04-06T13:09:52Z</time></trkpt><trkpt lat="45.7845908" lon="13.7173905"><ele>185.0</ele><time>2026-04-06T13:09:53Z</time></trkpt><trkpt lat="45.7846054" lon="13.7175013"><ele>186.0</ele><time>2026-04-06T13:09:54.011Z</time></trkpt><trkpt lat="45.7846207" lon="13.717603"><ele>187.0</ele><time>2026-04-06T13:09:55.007Z</time></trkpt><trkpt lat="45.7846334" lon="13.7177642"><ele>187.33333333333334</ele><time>2026-04-06T13:09:57.012Z</time></trkpt><trkpt lat="45.7846292" lon="13.7178683"><ele>187.66666666666669</ele><time>2026-04-06T13:09:58.009Z</time></trkpt><trkpt lat="45.784624" lon="13.717989"><ele>188.0</ele><time>2026-04-06T13:09:59.01Z</time></trkpt><trkpt lat="45.78463" lon="13.7181065"><ele>188.33333333333334</ele><time>2026-04-06T13:10:00.003Z</time></trkpt><trkpt lat="45.7846335" lon="13.7182188"><ele>188.66666666666666</ele><time>2026-04-06T13:10:01.013Z</time></trkpt><trkpt lat="45.7846259" lon="13.7183332"><ele>189.0</ele><time>2026-04-06T13:10:02.02Z</time></trkpt><trkpt lat="45.7846012" lon="13.7184573"><ele>188.2</ele><time>2026-04-06T13:10:03.009Z</time></trkpt><trkpt lat="45.7845644" lon="13.71859"><ele>187.39999999999998</ele><time>2026-04-06T13:10:04.004Z</time></trkpt><trkpt lat="45.7845125" lon="13.7187067"><ele>186.6</ele><time>2026-04-06T13:10:05.013Z</time></trkpt><trkpt lat="45.7844516" lon="13.7188068"><ele>185.8</ele><time>2026-04-06T13:10:06.014Z</time></trkpt><trkpt lat="45.7843815" lon="13.7188995"><ele>185.0</ele><time>2026-04-06T13:10:07.012Z</time></trkpt><trkpt lat="45.7843069" lon="13.7189826"><ele>184.99999999999997</ele><time>2026-04-06T13:10:08.003Z</time></trkpt><trkpt lat="45.7842422" lon="13.7190602"><ele>185.0</ele><time>2026-04-06T13:10:09.006Z</time></trkpt><trkpt lat="45.7841769" lon="13.7191314"><ele>185.0</ele><time>2026-04-06T13:10:10.013Z</time></trkpt><trkpt lat="45.7841201" lon="13.7191902"><ele>185.0</ele><time>2026-04-06T13:10:11.003Z</time></trkpt><trkpt lat="45.7840678" lon="13.7192531"><ele>185.0</ele><time>2026-04-06T13:10:11.999Z</time></trkpt><trkpt lat="45.7840309" lon="13.719342"><ele>184.99999999999997</ele><time>2026-04-06T13:10:13.008Z</time></trkpt><trkpt lat="45.7840128" lon="13.7194429"><ele>185.0</ele><time>2026-04-06T13:10:14.005Z</time></trkpt><trkpt lat="45.7839971" lon="13.7195421"><ele>183.83333333333331</ele><time>2026-04-06T13:10:15Z</time></trkpt><trkpt lat="45.7839857" lon="13.7196483"><ele>182.66666666666666</ele><time>2026-04-06T13:10:16.005Z</time></trkpt><trkpt lat="45.7839738" lon="13.7197675"><ele>181.5</ele><time>2026-04-06T13:10:17.011Z</time></trkpt><trkpt lat="45.783974" lon="13.7199017"><ele>180.33333333333334</ele><time>2026-04-06T13:10:18.006Z</time></trkpt><trkpt lat="45.7839844" lon="13.7200397"><ele>179.16666666666669</ele><time>2026-04-06T13:10:19.012Z</time></trkpt><trkpt lat="45.7839999" lon="13.7201749"><ele>178.0</ele><time>2026-04-06T13:10:20.006Z</time></trkpt><trkpt lat="45.7840079" lon="13.7203121"><ele>177.33333333333334</ele><time>2026-04-06T13:10:21.01Z</time></trkpt><trkpt lat="45.7840005" lon="13.720444"><ele>176.66666666666669</ele><time>2026-04-06T13:10:22.001Z</time></trkpt><trkpt lat="45.7839857" lon="13.7205557"><ele>176.0</ele><time>2026-04-06T13:10:23.012Z</time></trkpt><trkpt lat="45.7839593" lon="13.7206544"><ele>175.33333333333334</ele><time>2026-04-06T13:10:24Z</time></trkpt><trkpt lat="45.7839273" lon="13.7207494"><ele>174.66666666666666</ele><time>2026-04-06T13:10:25.01Z</time></trkpt><trkpt lat="45.7838971" lon="13.7208474"><ele>174.0</ele><time>2026-04-06T13:10:26.014Z</time></trkpt><trkpt lat="45.7838721" lon="13.7209526"><ele>173.57142857142856</ele><time>2026-04-06T13:10:27.013Z</time></trkpt><trkpt lat="45.7838576" lon="13.7210679"><ele>173.14285714285714</ele><time>2026-04-06T13:10:28.009Z</time></trkpt><trkpt lat="45.7838442" lon="13.7211807"><ele>172.71428571428572</ele><time>2026-04-06T13:10:29.025Z</time></trkpt><trkpt lat="45.783845" lon="13.7212834"><ele>172.28571428571428</ele><time>2026-04-06T13:10:30.021Z</time></trkpt><trkpt lat="45.783864" lon="13.7213713"><ele>171.85714285714286</ele><time>2026-04-06T13:10:31.022Z</time></trkpt><trkpt lat="45.7838991" lon="13.7214518"><ele>171.42857142857142</ele><time>2026-04-06T13:10:32.024Z</time></trkpt><trkpt lat="45.7839525" lon="13.7215198"><ele>171.0</ele><time>2026-04-06T13:10:33.018Z</time></trkpt><trkpt lat="45.7840199" lon="13.7215968"><ele>171.0</ele><time>2026-04-06T13:10:34.012Z</time></trkpt><trkpt lat="45.7840759" lon="13.7216814"><ele>171.0</ele><time>2026-04-06T13:10:35.034Z</time></trkpt><trkpt lat="45.7841312" lon="13.7217757"><ele>171.0</ele><time>2026-04-06T13:10:36.021Z</time></trkpt><trkpt lat="45.7841887" lon="13.7218785"><ele>171.0</ele><time>2026-04-06T13:10:37.025Z</time></trkpt><trkpt lat="45.7842464" lon="13.7219868"><ele>171.0</ele><time>2026-04-06T13:10:38.026Z</time></trkpt><trkpt lat="45.7843044" lon="13.7220945"><ele>171.0</ele><time>2026-04-06T13:10:39.027Z</time></trkpt><trkpt lat="45.7843577" lon="13.7222108"><ele>168.0</ele><time>2026-04-06T13:10:40.029Z</time></trkpt><trkpt lat="45.7844026" lon="13.7223331"><ele>165.0</ele><time>2026-04-06T13:10:41.023Z</time></trkpt><trkpt lat="45.7844366" lon="13.7224525"><ele>162.0</ele><time>2026-04-06T13:10:42.01Z</time></trkpt><trkpt lat="45.7844538" lon="13.722578"><ele>159.0</ele><time>2026-04-06T13:10:43.026Z</time></trkpt><trkpt lat="45.7844594" lon="13.7226871"><ele>156.0</ele><time>2026-04-06T13:10:44.006Z</time></trkpt><trkpt lat="45.7844638" lon="13.7227963"><ele>153.0</ele><time>2026-04-06T13:10:45.016Z</time></trkpt><trkpt lat="45.7844634" lon="13.7229003"><ele>152.33333333333334</ele><time>2026-04-06T13:10:46.01Z</time></trkpt><trkpt lat="45.7844576" lon="13.7229982"><ele>151.66666666666666</ele><time>2026-04-06T13:10:47.011Z</time></trkpt><trkpt lat="45.784445" lon="13.7230952"><ele>151.0</ele><time>2026-04-06T13:10:48.012Z</time></trkpt><trkpt lat="45.7844663" lon="13.7232385"><ele>150.33333333333331</ele><time>2026-04-06T13:10:50.002Z</time></trkpt><trkpt lat="45.7845712" lon="13.723327"><ele>149.66666666666666</ele><time>2026-04-06T13:10:51.996Z</time></trkpt><trkpt lat="45.7846281" lon="13.723391"><ele>149.0</ele><time>2026-04-06T13:10:53.006Z</time></trkpt><trkpt lat="45.7846809" lon="13.7234728"><ele>151.5</ele><time>2026-04-06T13:10:54.009Z</time></trkpt><trkpt lat="45.7847404" lon="13.7235726"><ele>154.0</ele><time>2026-04-06T13:10:55.004Z</time></trkpt><trkpt lat="45.7847967" lon="13.7236671"><ele>156.5</ele><time>2026-04-06T13:10:56.005Z</time></trkpt><trkpt lat="45.7848519" lon="13.72375"><ele>159.0</ele><time>2026-04-06T13:10:56.997Z</time></trkpt><trkpt lat="45.784907" lon="13.7238201"><ele>161.5</ele><time>2026-04-06T13:10:58Z</time></trkpt><trkpt lat="45.7849662" lon="13.723866"><ele>164.0</ele><time>2026-04-06T13:10:59.003Z</time></trkpt><trkpt lat="45.7850299" lon="13.7239011"><ele>164.0</ele><time>2026-04-06T13:10:59.997Z</time></trkpt><trkpt lat="45.7851406" lon="13.7239383"><ele>164.0</ele><time>2026-04-06T13:11:02Z</time></trkpt><trkpt lat="45.785252" lon="13.7239557"><ele>164.0</ele><time>2026-04-06T13:11:03.998Z</time></trkpt><trkpt lat="45.7853563" lon="13.723994"><ele>164.0</ele><time>2026-04-06T13:11:05.995Z</time></trkpt><trkpt lat="45.7854538" lon="13.7240404"><ele>164.0</ele><time>2026-04-06T13:11:07.99Z</time></trkpt><trkpt lat="45.7855483" lon="13.7240787"><ele>166.39999999999998</ele><time>2026-04-06T13:11:09.994Z</time></trkpt><trkpt lat="45.7856274" lon="13.7240867"><ele>168.8</ele><time>2026-04-06T13:11:12Z</time></trkpt><trkpt lat="45.7856878" lon="13.7240154"><ele>171.2</ele><time>2026-04-06T13:11:13.983Z</time></trkpt><trkpt lat="45.7857275" lon="13.7239263"><ele>173.60000000000002</ele><time>2026-04-06T13:11:14.991Z</time></trkpt><trkpt lat="45.7857967" lon="13.7237811"><ele>176.0</ele><time>2026-04-06T13:11:17.01Z</time></trkpt><trkpt lat="45.7858642" lon="13.7236684"><ele>177.8</ele><time>2026-04-06T13:11:18.995Z</time></trkpt><trkpt lat="45.7859238" lon="13.7235529"><ele>179.60000000000002</ele><time>2026-04-06T13:11:20.999Z</time></trkpt><trkpt lat="45.7859991" lon="13.7234419"><ele>181.4</ele><time>2026-04-06T13:11:23.009Z</time></trkpt><trkpt lat="45.7860814" lon="13.7233491"><ele>183.2</ele><time>2026-04-06T13:11:24.992Z</time></trkpt><trkpt lat="45.7861705" lon="13.7232579"><ele>185.0</ele><time>2026-04-06T13:11:27.005Z</time></trkpt><trkpt lat="45.7862738" lon="13.7231961"><ele>185.0</ele><time>2026-04-06T13:11:29.003Z</time></trkpt><trkpt lat="45.786391" lon="13.7231897"><ele>185.0</ele><time>2026-04-06T13:11:31.001Z</time></trkpt><trkpt lat="45.7865122" lon="13.7232215"><ele>185.0</ele><time>2026-04-06T13:11:33.014Z</time></trkpt><trkpt lat="45.7865808" lon="13.7232605"><ele>185.0</ele><time>2026-04-06T13:11:34.012Z</time></trkpt><trkpt lat="45.7866334" lon="13.7233204"><ele>185.0</ele><time>2026-04-06T13:11:35.009Z</time></trkpt><trkpt lat="45.7867034" lon="13.723447"><ele>185.0</ele><time>2026-04-06T13:11:37.001Z</time></trkpt><trkpt lat="45.7867368" lon="13.7235328"><ele>185.0</ele><time>2026-04-06T13:11:38.009Z</time></trkpt><trkpt lat="45.7867673" lon="13.7236173"><ele>185.0</ele><time>2026-04-06T13:11:39.01Z</time></trkpt><trkpt lat="45.7867974" lon="13.7237026"><ele>185.0</ele><time>2026-04-06T13:11:40.016Z</time></trkpt><trkpt lat="45.7868353" lon="13.7237844"><ele>185.0</ele><time>2026-04-06T13:11:41.006Z</time></trkpt><trkpt lat="45.7868767" lon="13.7238536"><ele>185.0</ele><time>2026-04-06T13:11:41.998Z</time></trkpt><trkpt lat="45.7869686" lon="13.7239558"><ele>188.2</ele><time>2026-04-06T13:11:44.003Z</time></trkpt><trkpt lat="45.787062" lon="13.7240289"><ele>191.4</ele><time>2026-04-06T13:11:46.002Z</time></trkpt><trkpt lat="45.7871785" lon="13.724046"><ele>194.60000000000002</ele><time>2026-04-06T13:11:48.009Z</time></trkpt><trkpt lat="45.7873093" lon="13.7240118"><ele>197.8</ele><time>2026-04-06T13:11:50.017Z</time></trkpt><trkpt lat="45.7873851" lon="13.7239704"><ele>201.0</ele><time>2026-04-06T13:11:51.009Z</time></trkpt><trkpt lat="45.7874586" lon="13.7239484"><ele>201.0</ele><time>2026-04-06T13:11:52.002Z</time></trkpt><trkpt lat="45.787534" lon="13.7239445"><ele>201.0</ele><time>2026-04-06T13:11:53.003Z</time></trkpt><trkpt lat="45.787608" lon="13.7239647"><ele>201.0</ele><time>2026-04-06T13:11:54.006Z</time></trkpt><trkpt lat="45.7876842" lon="13.7240173"><ele>201.0</ele><time>2026-04-06T13:11:55.002Z</time></trkpt><trkpt lat="45.7877438" lon="13.7240801"><ele>201.0</ele><time>2026-04-06T13:11:56.008Z</time></trkpt><trkpt lat="45.7877981" lon="13.7241408"><ele>201.0</ele><time>2026-04-06T13:11:57.007Z</time></trkpt><trkpt lat="45.7878456" lon="13.7242165"><ele>201.0</ele><time>2026-04-06T13:11:58.006Z</time></trkpt><trkpt lat="45.7878816" lon="13.7242984"><ele>202.20000000000002</ele><time>2026-04-06T13:11:59.008Z</time></trkpt><trkpt lat="45.7879217" lon="13.7243951"><ele>203.4</ele><time>2026-04-06T13:12:00.011Z</time></trkpt><trkpt lat="45.7879623" lon="13.7245058"><ele>204.6</ele><time>2026-04-06T13:12:01.016Z</time></trkpt><trkpt lat="45.7880051" lon="13.7246267"><ele>205.8</ele><time>2026-04-06T13:12:02.025Z</time></trkpt><trkpt lat="45.7880535" lon="13.7247475"><ele>207.0</ele><time>2026-04-06T13:12:03.016Z</time></trkpt><trkpt lat="45.7880987" lon="13.7248637"><ele>207.6</ele><time>2026-04-06T13:12:04.005Z</time></trkpt><trkpt lat="45.7881514" lon="13.724983"><ele>208.2</ele><time>2026-04-06T13:12:05.016Z</time></trkpt><trkpt lat="45.7882097" lon="13.7251055"><ele>208.8</ele><time>2026-04-06T13:12:06.001Z</time></trkpt><trkpt lat="45.7882739" lon="13.7252307"><ele>209.4</ele><time>2026-04-06T13:12:07.024Z</time></trkpt><trkpt lat="45.7883374" lon="13.7253428"><ele>210.0</ele><time>2026-04-06T13:12:07.999Z</time></trkpt><trkpt lat="45.7884049" lon="13.7254519"><ele>210.16666666666666</ele><time>2026-04-06T13:12:09.003Z</time></trkpt><trkpt lat="45.7884646" lon="13.7255531"><ele>210.33333333333331</ele><time>2026-04-06T13:12:10.002Z</time></trkpt><trkpt lat="45.788519" lon="13.7256493"><ele>210.5</ele><time>2026-04-06T13:12:10.996Z</time></trkpt><trkpt lat="45.7885588" lon="13.7257366"><ele>210.66666666666666</ele><time>2026-04-06T13:12:11.998Z</time></trkpt><trkpt lat="45.7885917" lon="13.7258207"><ele>210.83333333333331</ele><time>2026-04-06T13:12:12.997Z</time></trkpt><trkpt lat="45.7886363" lon="13.7259003"><ele>211.0</ele><time>2026-04-06T13:12:14.021Z</time></trkpt><trkpt lat="45.7886925" lon="13.7259693"><ele>211.60000000000002</ele><time>2026-04-06T13:12:15.012Z</time></trkpt><trkpt lat="45.7887609" lon="13.7260335"><ele>212.2</ele><time>2026-04-06T13:12:16.014Z</time></trkpt><trkpt lat="45.7888353" lon="13.7261151"><ele>212.79999999999998</ele><time>2026-04-06T13:12:17.016Z</time></trkpt><trkpt lat="45.7889181" lon="13.7262014"><ele>213.39999999999998</ele><time>2026-04-06T13:12:18.007Z</time></trkpt><trkpt lat="45.7890055" lon="13.7262848"><ele>214.0</ele><time>2026-04-06T13:12:19.016Z</time></trkpt><trkpt lat="45.789092" lon="13.7263662"><ele>213.99999999999997</ele><time>2026-04-06T13:12:20.01Z</time></trkpt><trkpt lat="45.7891696" lon="13.7264535"><ele>214.0</ele><time>2026-04-06T13:12:21.011Z</time></trkpt><trkpt lat="45.7892443" lon="13.7265344"><ele>214.0</ele><time>2026-04-06T13:12:22.003Z</time></trkpt><trkpt lat="45.7893212" lon="13.7266096"><ele>214.0</ele><time>2026-04-06T13:12:23.009Z</time></trkpt><trkpt lat="45.7893898" lon="13.7266631"><ele>213.99999999999997</ele><time>2026-04-06T13:12:24.004Z</time></trkpt><trkpt lat="45.7894659" lon="13.7266857"><ele>214.0</ele><time>2026-04-06T13:12:25.01Z</time></trkpt><trkpt lat="45.7895445" lon="13.7266938"><ele>215.16666666666666</ele><time>2026-04-06T13:12:26.004Z</time></trkpt><trkpt lat="45.7896211" lon="13.7267275"><ele>216.33333333333331</ele><time>2026-04-06T13:12:27.013Z</time></trkpt><trkpt lat="45.789679" lon="13.7267902"><ele>217.5</ele><time>2026-04-06T13:12:28.01Z</time></trkpt><trkpt lat="45.7897354" lon="13.726877"><ele>218.66666666666669</ele><time>2026-04-06T13:12:29.004Z</time></trkpt><trkpt lat="45.7897976" lon="13.7269603"><ele>219.83333333333334</ele><time>2026-04-06T13:12:30.017Z</time></trkpt><trkpt lat="45.7898715" lon="13.7270314"><ele>221.0</ele><time>2026-04-06T13:12:31.021Z</time></trkpt><trkpt lat="45.7899606" lon="13.7270798"><ele>221.0</ele><time>2026-04-06T13:12:32.014Z</time></trkpt><trkpt lat="45.7900542" lon="13.7271092"><ele>221.00000000000003</ele><time>2026-04-06T13:12:33.006Z</time></trkpt><trkpt lat="45.7901489" lon="13.7271401"><ele>221.00000000000003</ele><time>2026-04-06T13:12:34.014Z</time></trkpt><trkpt lat="45.7902345" lon="13.7271955"><ele>221.0</ele><time>2026-04-06T13:12:35.014Z</time></trkpt><trkpt lat="45.7903263" lon="13.7272762"><ele>221.0</ele><time>2026-04-06T13:12:36.009Z</time></trkpt><trkpt lat="45.7904222" lon="13.7273677"><ele>222.0</ele><time>2026-04-06T13:12:37.013Z</time></trkpt><trkpt lat="45.7905102" lon="13.7274614"><ele>223.00000000000003</ele><time>2026-04-06T13:12:38.012Z</time></trkpt><trkpt lat="45.7905947" lon="13.7275636"><ele>224.00000000000003</ele><time>2026-04-06T13:12:39.019Z</time></trkpt><trkpt lat="45.790669" lon="13.7276646"><ele>225.0</ele><time>2026-04-06T13:12:40.011Z</time></trkpt><trkpt lat="45.7907298" lon="13.7277687"><ele>226.0</ele><time>2026-04-06T13:12:41.007Z</time></trkpt><trkpt lat="45.7907935" lon="13.7278786"><ele>225.99999999999997</ele><time>2026-04-06T13:12:42.008Z</time></trkpt><trkpt lat="45.7908584" lon="13.7279808"><ele>226.0</ele><time>2026-04-06T13:12:43.004Z</time></trkpt><trkpt lat="45.7909229" lon="13.7280815"><ele>226.0</ele><time>2026-04-06T13:12:44.021Z</time></trkpt><trkpt lat="45.7909853" lon="13.7281793"><ele>226.0</ele><time>2026-04-06T13:12:44.999Z</time></trkpt><trkpt lat="45.7910458" lon="13.7282516"><ele>225.99999999999997</ele><time>2026-04-06T13:12:46.015Z</time></trkpt><trkpt lat="45.7911051" lon="13.7283003"><ele>226.0</ele><time>2026-04-06T13:12:47.01Z</time></trkpt><trkpt lat="45.7911882" lon="13.7283444"><ele>227.60000000000002</ele><time>2026-04-06T13:12:48.002Z</time></trkpt><trkpt lat="45.7912861" lon="13.7283646"><ele>229.20000000000002</ele><time>2026-04-06T13:12:49.012Z</time></trkpt><trkpt lat="45.7913873" lon="13.7283711"><ele>230.79999999999998</ele><time>2026-04-06T13:12:50.004Z</time></trkpt><trkpt lat="45.7914822" lon="13.7283936"><ele>232.39999999999998</ele><time>2026-04-06T13:12:51.017Z</time></trkpt><trkpt lat="45.7915711" lon="13.7284264"><ele>234.0</ele><time>2026-04-06T13:12:52.015Z</time></trkpt><trkpt lat="45.7916606" lon="13.7284753"><ele>234.0</ele><time>2026-04-06T13:12:53.015Z</time></trkpt><trkpt lat="45.7917476" lon="13.7285483"><ele>233.99999999999997</ele><time>2026-04-06T13:12:54.008Z</time></trkpt><trkpt lat="45.7918345" lon="13.7286323"><ele>233.99999999999997</ele><time>2026-04-06T13:12:55.013Z</time></trkpt><trkpt lat="45.7919221" lon="13.7287215"><ele>234.0</ele><time>2026-04-06T13:12:56.004Z</time></trkpt><trkpt lat="45.7920101" lon="13.7288107"><ele>234.0</ele><time>2026-04-06T13:12:57.022Z</time></trkpt><trkpt lat="45.7921046" lon="13.7288903"><ele>235.39999999999998</ele><time>2026-04-06T13:12:58.014Z</time></trkpt><trkpt lat="45.792206" lon="13.7289707"><ele>236.79999999999998</ele><time>2026-04-06T13:12:59.013Z</time></trkpt><trkpt lat="45.7922942" lon="13.72905"><ele>238.20000000000002</ele><time>2026-04-06T13:13:00.015Z</time></trkpt><trkpt lat="45.792375" lon="13.7291206"><ele>239.60000000000002</ele><time>2026-04-06T13:13:01.022Z</time></trkpt><trkpt lat="45.7924467" lon="13.7291904"><ele>241.0</ele><time>2026-04-06T13:13:02.035Z</time></trkpt><trkpt lat="45.7924998" lon="13.7292656"><ele>241.0</ele><time>2026-04-06T13:13:03.022Z</time></trkpt><trkpt lat="45.7925285" lon="13.7293477"><ele>241.00000000000003</ele><time>2026-04-06T13:13:04.012Z</time></trkpt><trkpt lat="45.7925408" lon="13.729447"><ele>241.0</ele><time>2026-04-06T13:13:05.008Z</time></trkpt><trkpt lat="45.7925542" lon="13.72955"><ele>241.0</ele><time>2026-04-06T13:13:06.005Z</time></trkpt><trkpt lat="45.7925644" lon="13.7296566"><ele>241.00000000000003</ele><time>2026-04-06T13:13:07.019Z</time></trkpt><trkpt lat="45.7925775" lon="13.7297573"><ele>241.0</ele><time>2026-04-06T13:13:08.01Z</time></trkpt><trkpt lat="45.7925878" lon="13.7298563"><ele>241.0</ele><time>2026-04-06T13:13:09.024Z</time></trkpt><trkpt lat="45.7926016" lon="13.7299472"><ele>241.14285714285717</ele><time>2026-04-06T13:13:10.011Z</time></trkpt><trkpt lat="45.7926203" lon="13.7300364"><ele>241.2857142857143</ele><time>2026-04-06T13:13:11.024Z</time></trkpt><trkpt lat="45.7926534" lon="13.7301207"><ele>241.42857142857144</ele><time>2026-04-06T13:13:12.014Z</time></trkpt><trkpt lat="45.7927034" lon="13.7301999"><ele>241.57142857142856</ele><time>2026-04-06T13:13:13.007Z</time></trkpt><trkpt lat="45.7927624" lon="13.7302687"><ele>241.7142857142857</ele><time>2026-04-06T13:13:13.999Z</time></trkpt><trkpt lat="45.7928205" lon="13.7303243"><ele>241.85714285714283</ele><time>2026-04-06T13:13:15.013Z</time></trkpt><trkpt lat="45.7928709" lon="13.7303787"><ele>242.0</ele><time>2026-04-06T13:13:16.013Z</time></trkpt><trkpt lat="45.7929226" lon="13.7304351"><ele>242.83333333333334</ele><time>2026-04-06T13:13:17.011Z</time></trkpt><trkpt lat="45.7929757" lon="13.7305044"><ele>243.66666666666669</ele><time>2026-04-06T13:13:18.024Z</time></trkpt><trkpt lat="45.7930334" lon="13.7305734"><ele>244.5</ele><time>2026-04-06T13:13:19.008Z</time></trkpt><trkpt lat="45.7930935" lon="13.7306495"><ele>245.33333333333331</ele><time>2026-04-06T13:13:20.012Z</time></trkpt><trkpt lat="45.7931566" lon="13.730739"><ele>246.16666666666666</ele><time>2026-04-06T13:13:21.013Z</time></trkpt><trkpt lat="45.7932023" lon="13.7308384"><ele>247.0</ele><time>2026-04-06T13:13:22.013Z</time></trkpt><trkpt lat="45.7932392" lon="13.7309327"><ele>246.99999999999997</ele><time>2026-04-06T13:13:23.013Z</time></trkpt><trkpt lat="45.793292" lon="13.7310163"><ele>247.0</ele><time>2026-04-06T13:13:24.011Z</time></trkpt><trkpt lat="45.7933538" lon="13.7310847"><ele>247.0</ele><time>2026-04-06T13:13:25.008Z</time></trkpt><trkpt lat="45.7934171" lon="13.7311453"><ele>247.0</ele><time>2026-04-06T13:13:26.007Z</time></trkpt><trkpt lat="45.7934746" lon="13.7311885"><ele>246.99999999999997</ele><time>2026-04-06T13:13:27.021Z</time></trkpt><trkpt lat="45.7935557" lon="13.7312633"><ele>247.0</ele><time>2026-04-06T13:13:29.034Z</time></trkpt><trkpt lat="45.7936391" lon="13.7313706"><ele>248.66666666666666</ele><time>2026-04-06T13:13:31.02Z</time></trkpt><trkpt lat="45.7937148" lon="13.7315147"><ele>250.33333333333331</ele><time>2026-04-06T13:13:33.02Z</time></trkpt><trkpt lat="45.7937568" lon="13.7315939"><ele>252.0</ele><time>2026-04-06T13:13:34.033Z</time></trkpt><trkpt lat="45.7938008" lon="13.7316689"><ele>253.66666666666669</ele><time>2026-04-06T13:13:35.022Z</time></trkpt><trkpt lat="45.7938526" lon="13.7317393"><ele>255.33333333333334</ele><time>2026-04-06T13:13:36.013Z</time></trkpt><trkpt lat="45.7939039" lon="13.7318135"><ele>257.0</ele><time>2026-04-06T13:13:37.011Z</time></trkpt><trkpt lat="45.7939483" lon="13.7318787"><ele>256.8</ele><time>2026-04-06T13:13:38.013Z</time></trkpt><trkpt lat="45.7940005" lon="13.7319463"><ele>256.6</ele><time>2026-04-06T13:13:39.021Z</time></trkpt><trkpt lat="45.79408" lon="13.7320698"><ele>256.40000000000003</ele><time>2026-04-06T13:13:41.035Z</time></trkpt><trkpt lat="45.7941531" lon="13.732172"><ele>256.2</ele><time>2026-04-06T13:13:43.012Z</time></trkpt><trkpt lat="45.7942205" lon="13.7323045"><ele>256.0</ele><time>2026-04-06T13:13:45.018Z</time></trkpt><trkpt lat="45.7943033" lon="13.7324504"><ele>256.42857142857144</ele><time>2026-04-06T13:13:47.021Z</time></trkpt><trkpt lat="45.7943569" lon="13.7325233"><ele>256.85714285714283</ele><time>2026-04-06T13:13:48.016Z</time></trkpt><trkpt lat="45.7944123" lon="13.7326012"><ele>257.2857142857143</ele><time>2026-04-06T13:13:49.01Z</time></trkpt><trkpt lat="45.7944667" lon="13.7326745"><ele>257.7142857142857</ele><time>2026-04-06T13:13:50.012Z</time></trkpt><trkpt lat="45.7945179" lon="13.7327376"><ele>258.1428571428571</ele><time>2026-04-06T13:13:51.014Z</time></trkpt><trkpt lat="45.7945754" lon="13.7328028"><ele>258.57142857142856</ele><time>2026-04-06T13:13:52.017Z</time></trkpt><trkpt lat="45.7946416" lon="13.7328687"><ele>259.0</ele><time>2026-04-06T13:13:53.012Z</time></trkpt><trkpt lat="45.7947154" lon="13.7329294"><ele>259.0</ele><time>2026-04-06T13:13:54.035Z</time></trkpt><trkpt lat="45.7947916" lon="13.7329988"><ele>259.0</ele><time>2026-04-06T13:13:55.019Z</time></trkpt><trkpt lat="45.7948695" lon="13.7330905"><ele>259.0</ele><time>2026-04-06T13:13:56.02Z</time></trkpt><trkpt lat="45.7949441" lon="13.7331904"><ele>259.0</ele><time>2026-04-06T13:13:57.033Z</time></trkpt><trkpt lat="45.7950184" lon="13.7332927"><ele>259.0</ele><time>2026-04-06T13:13:58.019Z</time></trkpt><trkpt lat="45.7950898" lon="13.7333882"><ele>259.0</ele><time>2026-04-06T13:13:59.026Z</time></trkpt><trkpt lat="45.7951664" lon="13.7334627"><ele>259.0</ele><time>2026-04-06T13:14:00.027Z</time></trkpt><trkpt lat="45.7952414" lon="13.7335339"><ele>259.0</ele><time>2026-04-06T13:14:01.023Z</time></trkpt><trkpt lat="45.7953165" lon="13.7336033"><ele>259.0</ele><time>2026-04-06T13:14:02.026Z</time></trkpt><trkpt lat="45.795383" lon="13.7336742"><ele>259.0</ele><time>2026-04-06T13:14:03.026Z</time></trkpt><trkpt lat="45.7954506" lon="13.7337375"><ele>259.0</ele><time>2026-04-06T13:14:04.025Z</time></trkpt><trkpt lat="45.7955149" lon="13.7338065"><ele>258.16666666666663</ele><time>2026-04-06T13:14:05.03Z</time></trkpt><trkpt lat="45.795574" lon="13.7338929"><ele>257.3333333333333</ele><time>2026-04-06T13:14:06.039Z</time></trkpt><trkpt lat="45.7956236" lon="13.7340002"><ele>256.5</ele><time>2026-04-06T13:14:07.019Z</time></trkpt><trkpt lat="45.7956561" lon="13.7341189"><ele>255.66666666666669</ele><time>2026-04-06T13:14:08.02Z</time></trkpt><trkpt lat="45.7956597" lon="13.7342334"><ele>254.83333333333334</ele><time>2026-04-06T13:14:09.033Z</time></trkpt><trkpt lat="45.7956402" lon="13.7343382"><ele>254.0</ele><time>2026-04-06T13:14:10.007Z</time></trkpt><trkpt lat="45.7956027" lon="13.7344524"><ele>253.6</ele><time>2026-04-06T13:14:11.015Z</time></trkpt><trkpt lat="45.7955841" lon="13.734571"><ele>253.2</ele><time>2026-04-06T13:14:12.005Z</time></trkpt><trkpt lat="45.7955779" lon="13.7347067"><ele>252.79999999999998</ele><time>2026-04-06T13:14:13.024Z</time></trkpt><trkpt lat="45.7955807" lon="13.7348432"><ele>252.39999999999998</ele><time>2026-04-06T13:14:14.031Z</time></trkpt><trkpt lat="45.7955873" lon="13.7349794"><ele>252.0</ele><time>2026-04-06T13:14:15.026Z</time></trkpt><trkpt lat="45.7955818" lon="13.7351108"><ele>252.0</ele><time>2026-04-06T13:14:16.023Z</time></trkpt><trkpt lat="45.7955682" lon="13.7352354"><ele>252.0</ele><time>2026-04-06T13:14:17.018Z</time></trkpt><trkpt lat="45.7955547" lon="13.7353552"><ele>252.0</ele><time>2026-04-06T13:14:18.026Z</time></trkpt><trkpt lat="45.7955583" lon="13.7354729"><ele>252.0</ele><time>2026-04-06T13:14:19.025Z</time></trkpt><trkpt lat="45.7955781" lon="13.7355904"><ele>252.0</ele><time>2026-04-06T13:14:20.037Z</time></trkpt><trkpt lat="45.7956105" lon="13.7357051"><ele>252.0</ele><time>2026-04-06T13:14:21.022Z</time></trkpt><trkpt lat="45.7956553" lon="13.7358243"><ele>252.0</ele><time>2026-04-06T13:14:22.021Z</time></trkpt><trkpt lat="45.7957085" lon="13.735961"><ele>252.0</ele><time>2026-04-06T13:14:23.019Z</time></trkpt><trkpt lat="45.7957657" lon="13.7361068"><ele>252.0</ele><time>2026-04-06T13:14:24.006Z</time></trkpt><trkpt lat="45.7958278" lon="13.7362589"><ele>252.0</ele><time>2026-04-06T13:14:25.034Z</time></trkpt><trkpt lat="45.7958864" lon="13.7364106"><ele>251.75</ele><time>2026-04-06T13:14:26.006Z</time></trkpt><trkpt lat="45.7959405" lon="13.7365663"><ele>251.5</ele><time>2026-04-06T13:14:27.024Z</time></trkpt><trkpt lat="45.7959871" lon="13.7367217"><ele>251.25</ele><time>2026-04-06T13:14:28.017Z</time></trkpt><trkpt lat="45.7960348" lon="13.7368745"><ele>251.0</ele><time>2026-04-06T13:14:29.019Z</time></trkpt><trkpt lat="45.7960829" lon="13.7370232"><ele>251.75</ele><time>2026-04-06T13:14:30.028Z</time></trkpt><trkpt lat="45.7961239" lon="13.7371799"><ele>252.5</ele><time>2026-04-06T13:14:31.022Z</time></trkpt><trkpt lat="45.7961711" lon="13.7373397"><ele>253.25</ele><time>2026-04-06T13:14:32.019Z</time></trkpt><trkpt lat="45.7962202" lon="13.7374993"><ele>254.0</ele><time>2026-04-06T13:14:33.021Z</time></trkpt><trkpt lat="45.7962693" lon="13.7376489"><ele>253.5</ele><time>2026-04-06T13:14:34.024Z</time></trkpt><trkpt lat="45.7963199" lon="13.7378056"><ele>253.0</ele><time>2026-04-06T13:14:35.025Z</time></trkpt><trkpt lat="45.7963661" lon="13.7379634"><ele>252.5</ele><time>2026-04-06T13:14:36.013Z</time></trkpt><trkpt lat="45.7964093" lon="13.73812"><ele>252.0</ele><time>2026-04-06T13:14:37.035Z</time></trkpt><trkpt lat="45.7964488" lon="13.7382599"><ele>252.0</ele><time>2026-04-06T13:14:38.012Z</time></trkpt><trkpt lat="45.7964828" lon="13.7383931"><ele>252.0</ele><time>2026-04-06T13:14:39.016Z</time></trkpt><trkpt lat="45.7965114" lon="13.7385145"><ele>252.0</ele><time>2026-04-06T13:14:40.008Z</time></trkpt><trkpt lat="45.7965414" lon="13.7386351"><ele>252.0</ele><time>2026-04-06T13:14:41.013Z</time></trkpt><trkpt lat="45.7965734" lon="13.7387566"><ele>252.0</ele><time>2026-04-06T13:14:42.018Z</time></trkpt><trkpt lat="45.7966231" lon="13.7388667"><ele>251.66666666666666</ele><time>2026-04-06T13:14:43.012Z</time></trkpt><trkpt lat="45.7966879" lon="13.7389509"><ele>251.33333333333331</ele><time>2026-04-06T13:14:44.014Z</time></trkpt><trkpt lat="45.7967587" lon="13.7390184"><ele>251.0</ele><time>2026-04-06T13:14:45.007Z</time></trkpt><trkpt lat="45.7968343" lon="13.7390883"><ele>250.66666666666666</ele><time>2026-04-06T13:14:46.024Z</time></trkpt><trkpt lat="45.7969088" lon="13.7391594"><ele>250.33333333333331</ele><time>2026-04-06T13:14:47.022Z</time></trkpt><trkpt lat="45.79698" lon="13.739222"><ele>250.0</ele><time>2026-04-06T13:14:48.02Z</time></trkpt><trkpt lat="45.7970493" lon="13.7392884"><ele>250.2</ele><time>2026-04-06T13:14:49.025Z</time></trkpt><trkpt lat="45.7971122" lon="13.7393742"><ele>250.4</ele><time>2026-04-06T13:14:50.025Z</time></trkpt><trkpt lat="45.797169" lon="13.7394879"><ele>250.60000000000002</ele><time>2026-04-06T13:14:51.025Z</time></trkpt><trkpt lat="45.7972323" lon="13.739623"><ele>250.8</ele><time>2026-04-06T13:14:52.011Z</time></trkpt><trkpt lat="45.797297" lon="13.7397717"><ele>251.0</ele><time>2026-04-06T13:14:53.023Z</time></trkpt><trkpt lat="45.797358" lon="13.7399402"><ele>251.0</ele><time>2026-04-06T13:14:54.024Z</time></trkpt><trkpt lat="45.7974148" lon="13.7401222"><ele>251.0</ele><time>2026-04-06T13:14:55.037Z</time></trkpt><trkpt lat="45.7974767" lon="13.7403196"><ele>251.0</ele><time>2026-04-06T13:14:56.008Z</time></trkpt><trkpt lat="45.7975293" lon="13.7405182"><ele>251.0</ele><time>2026-04-06T13:14:57.016Z</time></trkpt><trkpt lat="45.7975769" lon="13.7406994"><ele>250.75</ele><time>2026-04-06T13:14:58.023Z</time></trkpt><trkpt lat="45.7976305" lon="13.7408768"><ele>250.5</ele><time>2026-04-06T13:14:59.016Z</time></trkpt><trkpt lat="45.7976884" lon="13.741049"><ele>250.25</ele><time>2026-04-06T13:15:00.035Z</time></trkpt><trkpt lat="45.7977436" lon="13.7412225"><ele>250.0</ele><time>2026-04-06T13:15:01.015Z</time></trkpt><trkpt lat="45.7977897" lon="13.7414099"><ele>249.75</ele><time>2026-04-06T13:15:02.016Z</time></trkpt><trkpt lat="45.7978321" lon="13.7416097"><ele>249.5</ele><time>2026-04-06T13:15:03.024Z</time></trkpt><trkpt lat="45.7978779" lon="13.7418097"><ele>249.25</ele><time>2026-04-06T13:15:04.026Z</time></trkpt><trkpt lat="45.7979225" lon="13.7420069"><ele>249.0</ele><time>2026-04-06T13:15:05.035Z</time></trkpt><trkpt lat="45.79797" lon="13.7422037"><ele>249.0</ele><time>2026-04-06T13:15:06.023Z</time></trkpt><trkpt lat="45.7980184" lon="13.7423938"><ele>249.0</ele><time>2026-04-06T13:15:07.024Z</time></trkpt><trkpt lat="45.7980676" lon="13.7425777"><ele>249.0</ele><time>2026-04-06T13:15:08.01Z</time></trkpt><trkpt lat="45.7981175" lon="13.7427533"><ele>249.0</ele><time>2026-04-06T13:15:09.019Z</time></trkpt><trkpt lat="45.7981569" lon="13.7429205"><ele>248.39999999999998</ele><time>2026-04-06T13:15:10.013Z</time></trkpt><trkpt lat="45.798182" lon="13.7430738"><ele>247.79999999999998</ele><time>2026-04-06T13:15:11.016Z</time></trkpt><trkpt lat="45.7982044" lon="13.74322"><ele>247.20000000000002</ele><time>2026-04-06T13:15:12.014Z</time></trkpt><trkpt lat="45.7982304" lon="13.7433641"><ele>246.60000000000002</ele><time>2026-04-06T13:15:13.045Z</time></trkpt><trkpt lat="45.7982686" lon="13.7434965"><ele>246.0</ele><time>2026-04-06T13:15:14.015Z</time></trkpt><trkpt lat="45.7983243" lon="13.7436198"><ele>245.8</ele><time>2026-04-06T13:15:15.009Z</time></trkpt><trkpt lat="45.7983876" lon="13.7437413"><ele>245.60000000000002</ele><time>2026-04-06T13:15:16.017Z</time></trkpt><trkpt lat="45.7984373" lon="13.7438627"><ele>245.4</ele><time>2026-04-06T13:15:17.02Z</time></trkpt><trkpt lat="45.7984746" lon="13.7439801"><ele>245.2</ele><time>2026-04-06T13:15:18.025Z</time></trkpt><trkpt lat="45.7985111" lon="13.7440965"><ele>245.0</ele><time>2026-04-06T13:15:19.024Z</time></trkpt><trkpt lat="45.7985608" lon="13.7442095"><ele>245.0</ele><time>2026-04-06T13:15:20.033Z</time></trkpt><trkpt lat="45.7986129" lon="13.7443164"><ele>245.0</ele><time>2026-04-06T13:15:21.021Z</time></trkpt><trkpt lat="45.79867" lon="13.7444333"><ele>245.0</ele><time>2026-04-06T13:15:22.01Z</time></trkpt><trkpt lat="45.7987397" lon="13.7445424"><ele>245.0</ele><time>2026-04-06T13:15:23.014Z</time></trkpt><trkpt lat="45.7988179" lon="13.7446523"><ele>245.0</ele><time>2026-04-06T13:15:24.015Z</time></trkpt><trkpt lat="45.798904" lon="13.7447465"><ele>244.25</ele><time>2026-04-06T13:15:25.015Z</time></trkpt><trkpt lat="45.7989999" lon="13.744835"><ele>243.5</ele><time>2026-04-06T13:15:26.035Z</time></trkpt><trkpt lat="45.7990956" lon="13.7449307"><ele>242.75</ele><time>2026-04-06T13:15:27.018Z</time></trkpt><trkpt lat="45.7991854" lon="13.7450355"><ele>242.0</ele><time>2026-04-06T13:15:28.012Z</time></trkpt><trkpt lat="45.7992718" lon="13.7451509"><ele>242.2</ele><time>2026-04-06T13:15:29.017Z</time></trkpt><trkpt lat="45.7993469" lon="13.745265"><ele>242.39999999999998</ele><time>2026-04-06T13:15:30.005Z</time></trkpt><trkpt lat="45.7994166" lon="13.7453691"><ele>242.60000000000002</ele><time>2026-04-06T13:15:31.027Z</time></trkpt><trkpt lat="45.79949" lon="13.7454612"><ele>242.8</ele><time>2026-04-06T13:15:32.018Z</time></trkpt><trkpt lat="45.7995566" lon="13.7455383"><ele>243.0</ele><time>2026-04-06T13:15:33.02Z</time></trkpt><trkpt lat="45.7996105" lon="13.7456029"><ele>243.0</ele><time>2026-04-06T13:15:34.01Z</time></trkpt><trkpt lat="45.799676" lon="13.7457007"><ele>243.0</ele><time>2026-04-06T13:15:36.016Z</time></trkpt><trkpt lat="45.7997261" lon="13.7457641"><ele>243.0</ele><time>2026-04-06T13:15:38.031Z</time></trkpt><trkpt lat="45.7998056" lon="13.745777"><ele>243.0</ele><time>2026-04-06T13:15:40.008Z</time></trkpt><trkpt lat="45.7999134" lon="13.7457067"><ele>243.0</ele><time>2026-04-06T13:15:42.011Z</time></trkpt><trkpt lat="45.7999719" lon="13.7456586"><ele>243.0</ele><time>2026-04-06T13:15:43.026Z</time></trkpt><trkpt lat="45.8000329" lon="13.7456021"><ele>243.0</ele><time>2026-04-06T13:15:44.01Z</time></trkpt><trkpt lat="45.8001033" lon="13.745553"><ele>243.0</ele><time>2026-04-06T13:15:45.026Z</time></trkpt><trkpt lat="45.8001733" lon="13.7455125"><ele>243.0</ele><time>2026-04-06T13:15:46.003Z</time></trkpt><trkpt lat="45.8002348" lon="13.7454724"><ele>243.0</ele><time>2026-04-06T13:15:47.025Z</time></trkpt><trkpt lat="45.8003013" lon="13.7453366"><ele>243.0</ele><time>2026-04-06T13:15:49.008Z</time></trkpt><trkpt lat="45.8003169" lon="13.7451603"><ele>244.2</ele><time>2026-04-06T13:15:51.009Z</time></trkpt><trkpt lat="45.8003223" lon="13.7450546"><ele>245.4</ele><time>2026-04-06T13:15:52.023Z</time></trkpt><trkpt lat="45.8003304" lon="13.7449228"><ele>246.59999999999997</ele><time>2026-04-06T13:15:53.022Z</time></trkpt><trkpt lat="45.8003473" lon="13.744782"><ele>247.79999999999998</ele><time>2026-04-06T13:15:54.03Z</time></trkpt><trkpt lat="45.8003602" lon="13.7446277"><ele>249.0</ele><time>2026-04-06T13:15:55.029Z</time></trkpt><trkpt lat="45.800391" lon="13.7444705"><ele>248.5</ele><time>2026-04-06T13:15:56.033Z</time></trkpt><trkpt lat="45.8004401" lon="13.7443158"><ele>248.0</ele><time>2026-04-06T13:15:57.032Z</time></trkpt><trkpt lat="45.8005031" lon="13.7441603"><ele>247.5</ele><time>2026-04-06T13:15:58.036Z</time></trkpt><trkpt lat="45.8005751" lon="13.7440147"><ele>247.0</ele><time>2026-04-06T13:15:59.032Z</time></trkpt><trkpt lat="45.8006592" lon="13.7438711"><ele>247.0</ele><time>2026-04-06T13:16:00.03Z</time></trkpt><trkpt lat="45.800737" lon="13.7437146"><ele>247.0</ele><time>2026-04-06T13:16:01.03Z</time></trkpt><trkpt lat="45.8007916" lon="13.743553"><ele>247.0</ele><time>2026-04-06T13:16:02.034Z</time></trkpt><trkpt lat="45.8008444" lon="13.7433866"><ele>247.0</ele><time>2026-04-06T13:16:03.036Z</time></trkpt><trkpt lat="45.8008771" lon="13.7432161"><ele>247.5</ele><time>2026-04-06T13:16:04.047Z</time></trkpt><trkpt lat="45.8008989" lon="13.743037"><ele>248.0</ele><time>2026-04-06T13:16:05.025Z</time></trkpt><trkpt lat="45.8009242" lon="13.7428551"><ele>248.5</ele><time>2026-04-06T13:16:06.028Z</time></trkpt><trkpt lat="45.8009459" lon="13.7426964"><ele>249.0</ele><time>2026-04-06T13:16:07.031Z</time></trkpt><trkpt lat="45.80098" lon="13.7425508"><ele>249.0</ele><time>2026-04-06T13:16:08.032Z</time></trkpt><trkpt lat="45.8010399" lon="13.7424059"><ele>249.0</ele><time>2026-04-06T13:16:09.032Z</time></trkpt><trkpt lat="45.8011228" lon="13.7422516"><ele>249.0</ele><time>2026-04-06T13:16:10.029Z</time></trkpt><trkpt lat="45.8012117" lon="13.7421028"><ele>249.0</ele><time>2026-04-06T13:16:11.03Z</time></trkpt><trkpt lat="45.8012933" lon="13.7419567"><ele>248.75</ele><time>2026-04-06T13:16:12.01Z</time></trkpt><trkpt lat="45.8013711" lon="13.7418179"><ele>248.5</ele><time>2026-04-06T13:16:13.018Z</time></trkpt><trkpt lat="45.8014348" lon="13.7416891"><ele>248.25</ele><time>2026-04-06T13:16:14.02Z</time></trkpt><trkpt lat="45.8014757" lon="13.7415454"><ele>248.0</ele><time>2026-04-06T13:16:15.02Z</time></trkpt><trkpt lat="45.8015007" lon="13.7413786"><ele>248.0</ele><time>2026-04-06T13:16:16.02Z</time></trkpt><trkpt lat="45.8015279" lon="13.7411998"><ele>248.0</ele><time>2026-04-06T13:16:17.023Z</time></trkpt><trkpt lat="45.8015621" lon="13.7410283"><ele>248.0</ele><time>2026-04-06T13:16:18.021Z</time></trkpt><trkpt lat="45.8015987" lon="13.7408526"><ele>248.0</ele><time>2026-04-06T13:16:19.032Z</time></trkpt><trkpt lat="45.8016514" lon="13.7406892"><ele>249.0</ele><time>2026-04-06T13:16:20.012Z</time></trkpt><trkpt lat="45.8017084" lon="13.7405329"><ele>250.0</ele><time>2026-04-06T13:16:21.021Z</time></trkpt><trkpt lat="45.8017575" lon="13.740371"><ele>251.0</ele><time>2026-04-06T13:16:22.024Z</time></trkpt><trkpt lat="45.8017928" lon="13.7402077"><ele>252.0</ele><time>2026-04-06T13:16:23.021Z</time></trkpt><trkpt lat="45.8018021" lon="13.7400354"><ele>251.8</ele><time>2026-04-06T13:16:24.03Z</time></trkpt><trkpt lat="45.8018051" lon="13.7398764"><ele>251.6</ele><time>2026-04-06T13:16:25.01Z</time></trkpt><trkpt lat="45.8018081" lon="13.7397308"><ele>251.40000000000003</ele><time>2026-04-06T13:16:26.027Z</time></trkpt><trkpt lat="45.8018224" lon="13.7395868"><ele>251.20000000000002</ele><time>2026-04-06T13:16:27.025Z</time></trkpt><trkpt lat="45.8018574" lon="13.7394454"><ele>251.0</ele><time>2026-04-06T13:16:28.021Z</time></trkpt><trkpt lat="45.8019053" lon="13.7393145"><ele>250.8</ele><time>2026-04-06T13:16:29.02Z</time></trkpt><trkpt lat="45.8019469" lon="13.7391754"><ele>250.60000000000002</ele><time>2026-04-06T13:16:30.026Z</time></trkpt><trkpt lat="45.801969" lon="13.7390313"><ele>250.4</ele><time>2026-04-06T13:16:31.027Z</time></trkpt><trkpt lat="45.8019654" lon="13.7388801"><ele>250.2</ele><time>2026-04-06T13:16:32.01Z</time></trkpt><trkpt lat="45.80196" lon="13.7387299"><ele>250.0</ele><time>2026-04-06T13:16:33.026Z</time></trkpt><trkpt lat="45.8019587" lon="13.7385653"><ele>250.6</ele><time>2026-04-06T13:16:34.024Z</time></trkpt><trkpt lat="45.8019694" lon="13.7384121"><ele>251.2</ele><time>2026-04-06T13:16:35.028Z</time></trkpt><trkpt lat="45.8019907" lon="13.738273"><ele>251.8</ele><time>2026-04-06T13:16:36.019Z</time></trkpt><trkpt lat="45.8020294" lon="13.7381293"><ele>252.4</ele><time>2026-04-06T13:16:37.012Z</time></trkpt><trkpt lat="45.8020691" lon="13.7379723"><ele>253.0</ele><time>2026-04-06T13:16:38.005Z</time></trkpt><trkpt lat="45.8021178" lon="13.737824"><ele>255.0</ele><time>2026-04-06T13:16:39.02Z</time></trkpt><trkpt lat="45.8021872" lon="13.7376598"><ele>257.0</ele><time>2026-04-06T13:16:40.012Z</time></trkpt><trkpt lat="45.8022804" lon="13.7375102"><ele>259.0</ele><time>2026-04-06T13:16:41.016Z</time></trkpt><trkpt lat="45.8023707" lon="13.7373444"><ele>261.0</ele><time>2026-04-06T13:16:42.007Z</time></trkpt><trkpt lat="45.802473" lon="13.7371822"><ele>261.0</ele><time>2026-04-06T13:16:43.005Z</time></trkpt><trkpt lat="45.8025571" lon="13.7370377"><ele>261.0</ele><time>2026-04-06T13:16:44.008Z</time></trkpt><trkpt lat="45.8026524" lon="13.7369103"><ele>261.0</ele><time>2026-04-06T13:16:45.019Z</time></trkpt><trkpt lat="45.8027583" lon="13.7367897"><ele>261.0</ele><time>2026-04-06T13:16:46.006Z</time></trkpt><trkpt lat="45.8028625" lon="13.7366726"><ele>260.5</ele><time>2026-04-06T13:16:47.009Z</time></trkpt><trkpt lat="45.8029676" lon="13.7365551"><ele>260.0</ele><time>2026-04-06T13:16:48.003Z</time></trkpt><trkpt lat="45.8030613" lon="13.7364266"><ele>259.5</ele><time>2026-04-06T13:16:49.008Z</time></trkpt><trkpt lat="45.8031459" lon="13.7362813"><ele>259.0</ele><time>2026-04-06T13:16:50.009Z</time></trkpt><trkpt lat="45.8032325" lon="13.7361366"><ele>259.0</ele><time>2026-04-06T13:16:51.01Z</time></trkpt><trkpt lat="45.8033371" lon="13.7360084"><ele>259.0</ele><time>2026-04-06T13:16:52.024Z</time></trkpt><trkpt lat="45.8034532" lon="13.7358822"><ele>259.0</ele><time>2026-04-06T13:16:53.006Z</time></trkpt><trkpt lat="45.8035581" lon="13.7357477"><ele>259.0</ele><time>2026-04-06T13:16:54.002Z</time></trkpt><trkpt lat="45.8036523" lon="13.735606"><ele>259.0</ele><time>2026-04-06T13:16:55.01Z</time></trkpt><trkpt lat="45.8037418" lon="13.7354788"><ele>259.0</ele><time>2026-04-06T13:16:56.008Z</time></trkpt><trkpt lat="45.8038269" lon="13.7353692"><ele>259.0</ele><time>2026-04-06T13:16:57.018Z</time></trkpt><trkpt lat="45.8039065" lon="13.7352547"><ele>259.0</ele><time>2026-04-06T13:16:58.01Z</time></trkpt><trkpt lat="45.8039774" lon="13.7351196"><ele>258.0</ele><time>2026-04-06T13:16:59.011Z</time></trkpt><trkpt lat="45.8040414" lon="13.7349713"><ele>257.0</ele><time>2026-04-06T13:17:00.035Z</time></trkpt><trkpt lat="45.8041007" lon="13.7348145"><ele>256.0</ele><time>2026-04-06T13:17:01.005Z</time></trkpt><trkpt lat="45.8041605" lon="13.7346502"><ele>255.0</ele><time>2026-04-06T13:17:02.005Z</time></trkpt><trkpt lat="45.8042267" lon="13.7344863"><ele>255.0</ele><time>2026-04-06T13:17:03.013Z</time></trkpt><trkpt lat="45.8042914" lon="13.7343268"><ele>255.0</ele><time>2026-04-06T13:17:04.019Z</time></trkpt><trkpt lat="45.8043519" lon="13.7341613"><ele>255.0</ele><time>2026-04-06T13:17:05.028Z</time></trkpt><trkpt lat="45.8044068" lon="13.7339871"><ele>255.0</ele><time>2026-04-06T13:17:06.02Z</time></trkpt><trkpt lat="45.8044582" lon="13.7338207"><ele>254.75</ele><time>2026-04-06T13:17:07.024Z</time></trkpt><trkpt lat="45.8045153" lon="13.7336651"><ele>254.5</ele><time>2026-04-06T13:17:08.009Z</time></trkpt><trkpt lat="45.8045791" lon="13.733516"><ele>254.25</ele><time>2026-04-06T13:17:09.01Z</time></trkpt><trkpt lat="45.8046418" lon="13.7333741"><ele>254.0</ele><time>2026-04-06T13:17:10.007Z</time></trkpt><trkpt lat="45.8047217" lon="13.7332476"><ele>254.0</ele><time>2026-04-06T13:17:11.015Z</time></trkpt><trkpt lat="45.8048156" lon="13.7331371"><ele>254.0</ele><time>2026-04-06T13:17:12.016Z</time></trkpt><trkpt lat="45.8049111" lon="13.7330213"><ele>254.0</ele><time>2026-04-06T13:17:13.016Z</time></trkpt><trkpt lat="45.8050065" lon="13.7329086"><ele>254.0</ele><time>2026-04-06T13:17:14.013Z</time></trkpt><trkpt lat="45.8051085" lon="13.7328094"><ele>252.75</ele><time>2026-04-06T13:17:15.012Z</time></trkpt><trkpt lat="45.8052199" lon="13.7327397"><ele>251.5</ele><time>2026-04-06T13:17:16.021Z</time></trkpt><trkpt lat="45.8053337" lon="13.7326895"><ele>250.25</ele><time>2026-04-06T13:17:17.009Z</time></trkpt><trkpt lat="45.8054478" lon="13.7326429"><ele>249.0</ele><time>2026-04-06T13:17:18.011Z</time></trkpt><trkpt lat="45.8055537" lon="13.7325967"><ele>249.0</ele><time>2026-04-06T13:17:19.013Z</time></trkpt><trkpt lat="45.8056535" lon="13.7325444"><ele>248.99999999999997</ele><time>2026-04-06T13:17:20.011Z</time></trkpt><trkpt lat="45.8057607" lon="13.7325129"><ele>248.99999999999997</ele><time>2026-04-06T13:17:21.015Z</time></trkpt><trkpt lat="45.8058683" lon="13.7325001"><ele>249.0</ele><time>2026-04-06T13:17:22.015Z</time></trkpt><trkpt lat="45.8059745" lon="13.7324659"><ele>249.0</ele><time>2026-04-06T13:17:23.008Z</time></trkpt><trkpt lat="45.8060814" lon="13.7323997"><ele>248.5</ele><time>2026-04-06T13:17:24.005Z</time></trkpt><trkpt lat="45.8061804" lon="13.7323084"><ele>248.0</ele><time>2026-04-06T13:17:25.008Z</time></trkpt><trkpt lat="45.806275" lon="13.7321934"><ele>247.5</ele><time>2026-04-06T13:17:26.01Z</time></trkpt><trkpt lat="45.8063662" lon="13.7320701"><ele>247.0</ele><time>2026-04-06T13:17:27.004Z</time></trkpt><trkpt lat="45.8064632" lon="13.7319716"><ele>247.0</ele><time>2026-04-06T13:17:28.006Z</time></trkpt><trkpt lat="45.8065697" lon="13.731895"><ele>247.0</ele><time>2026-04-06T13:17:29.023Z</time></trkpt><trkpt lat="45.8066793" lon="13.7318344"><ele>247.0</ele><time>2026-04-06T13:17:30.011Z</time></trkpt><trkpt lat="45.8067956" lon="13.7317776"><ele>247.0</ele><time>2026-04-06T13:17:31.02Z</time></trkpt><trkpt lat="45.8069056" lon="13.7317289"><ele>246.0</ele><time>2026-04-06T13:17:32.007Z</time></trkpt><trkpt lat="45.8070199" lon="13.7316924"><ele>245.0</ele><time>2026-04-06T13:17:33.013Z</time></trkpt><trkpt lat="45.8071342" lon="13.7316682"><ele>244.0</ele><time>2026-04-06T13:17:34.013Z</time></trkpt><trkpt lat="45.8072406" lon="13.7316397"><ele>243.0</ele><time>2026-04-06T13:17:35.023Z</time></trkpt><trkpt lat="45.8073432" lon="13.7315753"><ele>243.0</ele><time>2026-04-06T13:17:36.016Z</time></trkpt><trkpt lat="45.8074348" lon="13.7314758"><ele>243.0</ele><time>2026-04-06T13:17:37.024Z</time></trkpt><trkpt lat="45.8075232" lon="13.731358"><ele>243.0</ele><time>2026-04-06T13:17:37.999Z</time></trkpt><trkpt lat="45.8076173" lon="13.731228"><ele>243.0</ele><time>2026-04-06T13:17:39.016Z</time></trkpt><trkpt lat="45.8077147" lon="13.7311097"><ele>242.75</ele><time>2026-04-06T13:17:40.014Z</time></trkpt><trkpt lat="45.8078048" lon="13.7310056"><ele>242.5</ele><time>2026-04-06T13:17:41.014Z</time></trkpt><trkpt lat="45.8079047" lon="13.7309212"><ele>242.25</ele><time>2026-04-06T13:17:42.009Z</time></trkpt><trkpt lat="45.8080104" lon="13.7308426"><ele>242.0</ele><time>2026-04-06T13:17:43.012Z</time></trkpt><trkpt lat="45.8081111" lon="13.7307636"><ele>242.0</ele><time>2026-04-06T13:17:44.009Z</time></trkpt><trkpt lat="45.808201" lon="13.7306656"><ele>242.0</ele><time>2026-04-06T13:17:45.011Z</time></trkpt><trkpt lat="45.8082848" lon="13.7305234"><ele>242.0</ele><time>2026-04-06T13:17:46.02Z</time></trkpt><trkpt lat="45.8083586" lon="13.7303693"><ele>242.0</ele><time>2026-04-06T13:17:47.005Z</time></trkpt><trkpt lat="45.8084438" lon="13.7302411"><ele>242.25</ele><time>2026-04-06T13:17:48.009Z</time></trkpt><trkpt lat="45.8085418" lon="13.7301276"><ele>242.5</ele><time>2026-04-06T13:17:49.016Z</time></trkpt><trkpt lat="45.8086424" lon="13.7300019"><ele>242.75</ele><time>2026-04-06T13:17:50.013Z</time></trkpt><trkpt lat="45.8087404" lon="13.7298622"><ele>243.0</ele><time>2026-04-06T13:17:51.019Z</time></trkpt><trkpt lat="45.808831" lon="13.7297176"><ele>243.0</ele><time>2026-04-06T13:17:52.011Z</time></trkpt><trkpt lat="45.80892" lon="13.7295707"><ele>243.0</ele><time>2026-04-06T13:17:53.012Z</time></trkpt><trkpt lat="45.8090036" lon="13.7294229"><ele>243.0</ele><time>2026-04-06T13:17:54.009Z</time></trkpt><trkpt lat="45.809087" lon="13.729295"><ele>243.0</ele><time>2026-04-06T13:17:55.018Z</time></trkpt><trkpt lat="45.8091724" lon="13.7292093"><ele>243.0</ele><time>2026-04-06T13:17:56.033Z</time></trkpt><trkpt lat="45.8092632" lon="13.7291325"><ele>243.0</ele><time>2026-04-06T13:17:57.022Z</time></trkpt><trkpt lat="45.8093612" lon="13.7290857"><ele>243.0</ele><time>2026-04-06T13:17:58.018Z</time></trkpt><trkpt lat="45.8094652" lon="13.7290478"><ele>243.0</ele><time>2026-04-06T13:17:59.007Z</time></trkpt><trkpt lat="45.8095758" lon="13.7290098"><ele>243.0</ele><time>2026-04-06T13:18:00.015Z</time></trkpt><trkpt lat="45.8096877" lon="13.7289675"><ele>243.5</ele><time>2026-04-06T13:18:01.021Z</time></trkpt><trkpt lat="45.8098042" lon="13.7289137"><ele>244.0</ele><time>2026-04-06T13:18:02.011Z</time></trkpt><trkpt lat="45.8099218" lon="13.7288537"><ele>244.5</ele><time>2026-04-06T13:18:03.018Z</time></trkpt><trkpt lat="45.8100329" lon="13.7287985"><ele>245.0</ele><time>2026-04-06T13:18:04.008Z</time></trkpt><trkpt lat="45.8101345" lon="13.7287457"><ele>245.83333333333334</ele><time>2026-04-06T13:18:05.021Z</time></trkpt><trkpt lat="45.8102308" lon="13.7287221"><ele>246.66666666666669</ele><time>2026-04-06T13:18:06.008Z</time></trkpt><trkpt lat="45.8103257" lon="13.7287246"><ele>247.5</ele><time>2026-04-06T13:18:07.036Z</time></trkpt><trkpt lat="45.8104147" lon="13.7287583"><ele>248.33333333333331</ele><time>2026-04-06T13:18:08.005Z</time></trkpt><trkpt lat="45.8104772" lon="13.7287808"><ele>249.16666666666666</ele><time>2026-04-06T13:18:09.025Z</time></trkpt><trkpt lat="45.8105525" lon="13.7288388"><ele>250.0</ele><time>2026-04-06T13:18:21.036Z</time></trkpt><trkpt lat="45.8106025" lon="13.7289034"><ele>250.0</ele><time>2026-04-06T13:18:22.016Z</time></trkpt><trkpt lat="45.8106454" lon="13.7289764"><ele>250.0</ele><time>2026-04-06T13:18:23.027Z</time></trkpt><trkpt lat="45.810696" lon="13.7290536"><ele>250.0</ele><time>2026-04-06T13:18:24.015Z</time></trkpt><trkpt lat="45.8107492" lon="13.7291291"><ele>250.0</ele><time>2026-04-06T13:18:25.018Z</time></trkpt><trkpt lat="45.8107996" lon="13.7291855"><ele>250.0</ele><time>2026-04-06T13:18:26.021Z</time></trkpt><trkpt lat="45.8108998" lon="13.7292253"><ele>250.0</ele><time>2026-04-06T13:18:28.042Z</time></trkpt><trkpt lat="45.8109575" lon="13.7291883"><ele>250.0</ele><time>2026-04-06T13:22:32.023Z</time></trkpt><trkpt lat="45.8110535" lon="13.7291669"><ele>251.33333333333331</ele><time>2026-04-06T13:22:34.028Z</time></trkpt><trkpt lat="45.8111235" lon="13.729139"><ele>252.66666666666666</ele><time>2026-04-06T13:22:35.038Z</time></trkpt><trkpt lat="45.8112043" lon="13.7291255"><ele>254.0</ele><time>2026-04-06T13:22:36.022Z</time></trkpt><trkpt lat="45.8112912" lon="13.7291048"><ele>255.33333333333331</ele><time>2026-04-06T13:22:37.031Z</time></trkpt><trkpt lat="45.811379" lon="13.7290716"><ele>256.6666666666667</ele><time>2026-04-06T13:22:38.023Z</time></trkpt><trkpt lat="45.8114663" lon="13.7290185"><ele>258.0</ele><time>2026-04-06T13:22:39.029Z</time></trkpt><trkpt lat="45.8115388" lon="13.7289352"><ele>258.0</ele><time>2026-04-06T13:22:40.02Z</time></trkpt><trkpt lat="45.8116036" lon="13.7288324"><ele>258.0</ele><time>2026-04-06T13:22:41.006Z</time></trkpt><trkpt lat="45.8116653" lon="13.728711"><ele>258.0</ele><time>2026-04-06T13:22:42.025Z</time></trkpt><trkpt lat="45.8117413" lon="13.7285908"><ele>258.0</ele><time>2026-04-06T13:22:43.016Z</time></trkpt><trkpt lat="45.8118247" lon="13.7284686"><ele>258.0</ele><time>2026-04-06T13:22:44.017Z</time></trkpt><trkpt lat="45.8119089" lon="13.7283493"><ele>258.5</ele><time>2026-04-06T13:22:45.014Z</time></trkpt><trkpt lat="45.8119822" lon="13.7282196"><ele>259.0</ele><time>2026-04-06T13:22:46.02Z</time></trkpt><trkpt lat="45.8120548" lon="13.7280951"><ele>259.5</ele><time>2026-04-06T13:22:47.027Z</time></trkpt><trkpt lat="45.8121348" lon="13.7279668"><ele>260.0</ele><time>2026-04-06T13:22:48.02Z</time></trkpt><trkpt lat="45.8122254" lon="13.7278328"><ele>259.75</ele><time>2026-04-06T13:22:49.023Z</time></trkpt><trkpt lat="45.8123204" lon="13.7277039"><ele>259.5</ele><time>2026-04-06T13:22:50.025Z</time></trkpt><trkpt lat="45.8124081" lon="13.7275681"><ele>259.25</ele><time>2026-04-06T13:22:51.026Z</time></trkpt><trkpt lat="45.8124955" lon="13.7274346"><ele>259.0</ele><time>2026-04-06T13:22:52.027Z</time></trkpt><trkpt lat="45.8125827" lon="13.7272948"><ele>257.25</ele><time>2026-04-06T13:22:53.021Z</time></trkpt><trkpt lat="45.812675" lon="13.7271668"><ele>255.5</ele><time>2026-04-06T13:22:54.012Z</time></trkpt><trkpt lat="45.8127654" lon="13.7270491"><ele>253.75</ele><time>2026-04-06T13:22:55.025Z</time></trkpt><trkpt lat="45.8128616" lon="13.7269481"><ele>252.0</ele><time>2026-04-06T13:22:56.023Z</time></trkpt><trkpt lat="45.8129669" lon="13.7268515"><ele>251.75</ele><time>2026-04-06T13:22:57.046Z</time></trkpt><trkpt lat="45.8130733" lon="13.7267546"><ele>251.5</ele><time>2026-04-06T13:22:58.023Z</time></trkpt><trkpt lat="45.8131866" lon="13.7266497"><ele>251.25</ele><time>2026-04-06T13:22:59.022Z</time></trkpt><trkpt lat="45.8133147" lon="13.7265426"><ele>251.0</ele><time>2026-04-06T13:23:00.03Z</time></trkpt><trkpt lat="45.8134452" lon="13.7264424"><ele>251.75</ele><time>2026-04-06T13:23:01.024Z</time></trkpt><trkpt lat="45.8135692" lon="13.7263565"><ele>252.5</ele><time>2026-04-06T13:23:02.03Z</time></trkpt><trkpt lat="45.8136794" lon="13.7262805"><ele>253.25</ele><time>2026-04-06T13:23:03.059Z</time></trkpt><trkpt lat="45.8137846" lon="13.7262092"><ele>254.0</ele><time>2026-04-06T13:23:04.029Z</time></trkpt><trkpt lat="45.8138973" lon="13.7261471"><ele>254.0</ele><time>2026-04-06T13:23:05.036Z</time></trkpt><trkpt lat="45.8140195" lon="13.7261061"><ele>254.0</ele><time>2026-04-06T13:23:06.033Z</time></trkpt><trkpt lat="45.8141441" lon="13.7260833"><ele>254.0</ele><time>2026-04-06T13:23:07.027Z</time></trkpt><trkpt lat="45.8142679" lon="13.7260678"><ele>254.0</ele><time>2026-04-06T13:23:08.041Z</time></trkpt><trkpt lat="45.8143913" lon="13.7260458"><ele>255.0</ele><time>2026-04-06T13:23:09.019Z</time></trkpt><trkpt lat="45.8145133" lon="13.7260079"><ele>256.0</ele><time>2026-04-06T13:23:10.03Z</time></trkpt><trkpt lat="45.8146404" lon="13.7259683"><ele>257.0</ele><time>2026-04-06T13:23:11.02Z</time></trkpt><trkpt lat="45.8147644" lon="13.7259405"><ele>258.0</ele><time>2026-04-06T13:23:12.018Z</time></trkpt><trkpt lat="45.814882" lon="13.7259264"><ele>258.0</ele><time>2026-04-06T13:23:13.022Z</time></trkpt><trkpt lat="45.8149973" lon="13.725886"><ele>258.0</ele><time>2026-04-06T13:23:14.021Z</time></trkpt><trkpt lat="45.8150944" lon="13.7257937"><ele>258.0</ele><time>2026-04-06T13:23:15.045Z</time></trkpt><trkpt lat="45.815182" lon="13.7256913"><ele>258.0</ele><time>2026-04-06T13:23:16.014Z</time></trkpt><trkpt lat="45.8152704" lon="13.725574"><ele>259.25</ele><time>2026-04-06T13:23:17.029Z</time></trkpt><trkpt lat="45.8153755" lon="13.7254609"><ele>260.5</ele><time>2026-04-06T13:23:18.03Z</time></trkpt><trkpt lat="45.8154788" lon="13.725355"><ele>261.75</ele><time>2026-04-06T13:23:19.026Z</time></trkpt><trkpt lat="45.8155755" lon="13.7252575"><ele>263.0</ele><time>2026-04-06T13:23:20.031Z</time></trkpt><trkpt lat="45.815672" lon="13.7251915"><ele>263.0</ele><time>2026-04-06T13:23:21.038Z</time></trkpt><trkpt lat="45.8157668" lon="13.7251401"><ele>263.0</ele><time>2026-04-06T13:23:22.038Z</time></trkpt><trkpt lat="45.8158701" lon="13.7251073"><ele>263.0</ele><time>2026-04-06T13:23:23.028Z</time></trkpt><trkpt lat="45.8159775" lon="13.7250924"><ele>263.0</ele><time>2026-04-06T13:23:24.026Z</time></trkpt><trkpt lat="45.8161018" lon="13.7250782"><ele>263.0</ele><time>2026-04-06T13:23:25.047Z</time></trkpt><trkpt lat="45.8162273" lon="13.7250595"><ele>264.2</ele><time>2026-04-06T13:23:26.029Z</time></trkpt><trkpt lat="45.8163478" lon="13.725038"><ele>265.4</ele><time>2026-04-06T13:23:27.044Z</time></trkpt><trkpt lat="45.8164603" lon="13.7250292"><ele>266.59999999999997</ele><time>2026-04-06T13:23:28.028Z</time></trkpt><trkpt lat="45.816566" lon="13.7250281"><ele>267.8</ele><time>2026-04-06T13:23:29.028Z</time></trkpt><trkpt lat="45.8166505" lon="13.7250239"><ele>269.0</ele><time>2026-04-06T13:23:30.021Z</time></trkpt><trkpt lat="45.8167342" lon="13.7250483"><ele>269.0</ele><time>2026-04-06T13:23:32.039Z</time></trkpt><trkpt lat="45.8167953" lon="13.7251788"><ele>269.0</ele><time>2026-04-06T13:23:34.026Z</time></trkpt><trkpt lat="45.8168253" lon="13.7252864"><ele>269.0</ele><time>2026-04-06T13:23:35.015Z</time></trkpt><trkpt lat="45.8168758" lon="13.725411"><ele>269.0</ele><time>2026-04-06T13:23:36.027Z</time></trkpt><trkpt lat="45.8169343" lon="13.7255585"><ele>269.0</ele><time>2026-04-06T13:23:37.023Z</time></trkpt><trkpt lat="45.8169929" lon="13.7257233"><ele>269.0</ele><time>2026-04-06T13:23:38.015Z</time></trkpt><trkpt lat="45.8170581" lon="13.7258953"><ele>269.0</ele><time>2026-04-06T13:23:39.015Z</time></trkpt><trkpt lat="45.8171216" lon="13.7260802"><ele>269.0</ele><time>2026-04-06T13:23:40.018Z</time></trkpt><trkpt lat="45.8171864" lon="13.7262725"><ele>269.0</ele><time>2026-04-06T13:23:41.021Z</time></trkpt><trkpt lat="45.817255" lon="13.7264688"><ele>269.0</ele><time>2026-04-06T13:23:42.025Z</time></trkpt><trkpt lat="45.8173276" lon="13.7266522"><ele>269.0</ele><time>2026-04-06T13:23:43.026Z</time></trkpt><trkpt lat="45.8174112" lon="13.7268246"><ele>269.0</ele><time>2026-04-06T13:23:44.021Z</time></trkpt><trkpt lat="45.8175048" lon="13.7269997"><ele>269.0</ele><time>2026-04-06T13:23:45.031Z</time></trkpt><trkpt lat="45.8176031" lon="13.7271644"><ele>268.75</ele><time>2026-04-06T13:23:46.019Z</time></trkpt><trkpt lat="45.8176996" lon="13.727319"><ele>268.5</ele><time>2026-04-06T13:23:47.022Z</time></trkpt><trkpt lat="45.8177801" lon="13.7274806"><ele>268.25</ele><time>2026-04-06T13:23:48.018Z</time></trkpt><trkpt lat="45.817836" lon="13.7276681"><ele>268.0</ele><time>2026-04-06T13:23:49.024Z</time></trkpt><trkpt lat="45.8178799" lon="13.7278723"><ele>268.0</ele><time>2026-04-06T13:23:50.014Z</time></trkpt><trkpt lat="45.8179285" lon="13.7280582"><ele>268.0</ele><time>2026-04-06T13:23:51.016Z</time></trkpt><trkpt lat="45.8179891" lon="13.7282191"><ele>268.0</ele><time>2026-04-06T13:23:52.028Z</time></trkpt><trkpt lat="45.8180508" lon="13.7283781"><ele>268.0</ele><time>2026-04-06T13:23:53.02Z</time></trkpt><trkpt lat="45.8180974" lon="13.7285348"><ele>268.2</ele><time>2026-04-06T13:23:54.021Z</time></trkpt><trkpt lat="45.8181173" lon="13.7286977"><ele>268.4</ele><time>2026-04-06T13:23:55.052Z</time></trkpt><trkpt lat="45.8181107" lon="13.7288704"><ele>268.59999999999997</ele><time>2026-04-06T13:23:56.027Z</time></trkpt><trkpt lat="45.8180957" lon="13.7290256"><ele>268.8</ele><time>2026-04-06T13:23:57.019Z</time></trkpt><trkpt lat="45.818096" lon="13.7291743"><ele>269.0</ele><time>2026-04-06T13:23:58.014Z</time></trkpt><trkpt lat="45.8181206" lon="13.7293261"><ele>269.6666666666667</ele><time>2026-04-06T13:23:59.023Z</time></trkpt><trkpt lat="45.8181392" lon="13.7294613"><ele>270.33333333333337</ele><time>2026-04-06T13:24:00.025Z</time></trkpt><trkpt lat="45.8181273" lon="13.7295795"><ele>271.0</ele><time>2026-04-06T13:24:01.008Z</time></trkpt><trkpt lat="45.8180881" lon="13.7296892"><ele>271.6666666666667</ele><time>2026-04-06T13:24:02.013Z</time></trkpt><trkpt lat="45.8180244" lon="13.7297726"><ele>272.3333333333333</ele><time>2026-04-06T13:24:03.001Z</time></trkpt><trkpt lat="45.8179471" lon="13.7298509"><ele>273.0</ele><time>2026-04-06T13:24:04.003Z</time></trkpt><trkpt lat="45.8178972" lon="13.7299876"><ele>273.0</ele><time>2026-04-06T13:24:05.021Z</time></trkpt><trkpt lat="45.8178741" lon="13.7301642"><ele>273.0</ele><time>2026-04-06T13:24:06.003Z</time></trkpt><trkpt lat="45.8178437" lon="13.7303536"><ele>273.0</ele><time>2026-04-06T13:24:07.024Z</time></trkpt><trkpt lat="45.8177976" lon="13.7305367"><ele>273.0</ele><time>2026-04-06T13:24:08.018Z</time></trkpt><trkpt lat="45.817737" lon="13.7307097"><ele>273.25</ele><time>2026-04-06T13:24:09.031Z</time></trkpt><trkpt lat="45.8176759" lon="13.7308822"><ele>273.5</ele><time>2026-04-06T13:24:10.019Z</time></trkpt><trkpt lat="45.8176167" lon="13.7310609"><ele>273.75</ele><time>2026-04-06T13:24:11.027Z</time></trkpt><trkpt lat="45.8175565" lon="13.7312276"><ele>274.0</ele><time>2026-04-06T13:24:12.014Z</time></trkpt><trkpt lat="45.817493" lon="13.731387"><ele>274.25</ele><time>2026-04-06T13:24:13.02Z</time></trkpt><trkpt lat="45.8174278" lon="13.731543"><ele>274.5</ele><time>2026-04-06T13:24:14.012Z</time></trkpt><trkpt lat="45.8173735" lon="13.7317031"><ele>274.75</ele><time>2026-04-06T13:24:15.028Z</time></trkpt><trkpt lat="45.8173495" lon="13.7318856"><ele>275.0</ele><time>2026-04-06T13:24:16.025Z</time></trkpt><trkpt lat="45.8173396" lon="13.7320774"><ele>275.5</ele><time>2026-04-06T13:24:17.024Z</time></trkpt><trkpt lat="45.8173535" lon="13.7322839"><ele>276.0</ele><time>2026-04-06T13:24:18.01Z</time></trkpt><trkpt lat="45.8173709" lon="13.732496"><ele>276.5</ele><time>2026-04-06T13:24:19.025Z</time></trkpt><trkpt lat="45.8173889" lon="13.7327134"><ele>277.0</ele><time>2026-04-06T13:24:20.017Z</time></trkpt><trkpt lat="45.8174126" lon="13.7329206"><ele>277.5</ele><time>2026-04-06T13:24:21.015Z</time></trkpt><trkpt lat="45.8174343" lon="13.7331093"><ele>278.0</ele><time>2026-04-06T13:24:22.015Z</time></trkpt><trkpt lat="45.8174599" lon="13.7332927"><ele>278.5</ele><time>2026-04-06T13:24:23.017Z</time></trkpt><trkpt lat="45.8174843" lon="13.7334828"><ele>279.0</ele><time>2026-04-06T13:24:24.032Z</time></trkpt><trkpt lat="45.8175056" lon="13.7336717"><ele>279.0</ele><time>2026-04-06T13:24:25.024Z</time></trkpt><trkpt lat="45.8175296" lon="13.7338695"><ele>279.0</ele><time>2026-04-06T13:24:26.031Z</time></trkpt><trkpt lat="45.8175541" lon="13.7340699"><ele>279.0</ele><time>2026-04-06T13:24:27.014Z</time></trkpt><trkpt lat="45.8175733" lon="13.7342659"><ele>279.0</ele><time>2026-04-06T13:24:28.009Z</time></trkpt><trkpt lat="45.8175932" lon="13.7344628"><ele>280.0</ele><time>2026-04-06T13:24:29.011Z</time></trkpt><trkpt lat="45.8176149" lon="13.7346595"><ele>281.0</ele><time>2026-04-06T13:24:30.014Z</time></trkpt><trkpt lat="45.817642" lon="13.7348521"><ele>282.0</ele><time>2026-04-06T13:24:31.023Z</time></trkpt><trkpt lat="45.8176848" lon="13.7350314"><ele>283.0</ele><time>2026-04-06T13:24:32.016Z</time></trkpt><trkpt lat="45.8177316" lon="13.7351983"><ele>284.25</ele><time>2026-04-06T13:24:33.019Z</time></trkpt><trkpt lat="45.8177765" lon="13.7353749"><ele>285.5</ele><time>2026-04-06T13:24:34.02Z</time></trkpt><trkpt lat="45.8178024" lon="13.7355507"><ele>286.75</ele><time>2026-04-06T13:24:35.015Z</time></trkpt><trkpt lat="45.8178099" lon="13.7357475"><ele>288.0</ele><time>2026-04-06T13:24:36.02Z</time></trkpt><trkpt lat="45.8178107" lon="13.7359488"><ele>288.25</ele><time>2026-04-06T13:24:37.024Z</time></trkpt><trkpt lat="45.8178074" lon="13.7361548"><ele>288.5</ele><time>2026-04-06T13:24:38.019Z</time></trkpt><trkpt lat="45.81779" lon="13.7363538"><ele>288.75</ele><time>2026-04-06T13:24:39.018Z</time></trkpt><trkpt lat="45.8177693" lon="13.7365471"><ele>289.0</ele><time>2026-04-06T13:24:40.035Z</time></trkpt><trkpt lat="45.8177578" lon="13.736746"><ele>288.25</ele><time>2026-04-06T13:24:41.032Z</time></trkpt><trkpt lat="45.8177623" lon="13.7369537"><ele>287.5</ele><time>2026-04-06T13:24:42.026Z</time></trkpt><trkpt lat="45.817778" lon="13.7371591"><ele>286.75</ele><time>2026-04-06T13:24:43.032Z</time></trkpt><trkpt lat="45.8177979" lon="13.7373545"><ele>286.0</ele><time>2026-04-06T13:24:44.029Z</time></trkpt><trkpt lat="45.8178018" lon="13.737544"><ele>285.25</ele><time>2026-04-06T13:24:45.035Z</time></trkpt><trkpt lat="45.8177987" lon="13.737736"><ele>284.5</ele><time>2026-04-06T13:24:46.023Z</time></trkpt><trkpt lat="45.8177668" lon="13.7379134"><ele>283.75</ele><time>2026-04-06T13:24:47.035Z</time></trkpt><trkpt lat="45.8177048" lon="13.7380768"><ele>283.0</ele><time>2026-04-06T13:24:48.032Z</time></trkpt><trkpt lat="45.8176184" lon="13.7382127"><ele>282.75</ele><time>2026-04-06T13:24:49.009Z</time></trkpt><trkpt lat="45.8175369" lon="13.7383434"><ele>282.5</ele><time>2026-04-06T13:24:50.022Z</time></trkpt><trkpt lat="45.8174705" lon="13.7384894"><ele>282.25</ele><time>2026-04-06T13:24:51.018Z</time></trkpt><trkpt lat="45.8174325" lon="13.7386708"><ele>282.0</ele><time>2026-04-06T13:24:52.027Z</time></trkpt><trkpt lat="45.8174243" lon="13.7388722"><ele>282.0</ele><time>2026-04-06T13:24:53.027Z</time></trkpt><trkpt lat="45.8174428" lon="13.7390878"><ele>282.0</ele><time>2026-04-06T13:24:54.022Z</time></trkpt><trkpt lat="45.8174747" lon="13.7393019"><ele>282.0</ele><time>2026-04-06T13:24:55.031Z</time></trkpt><trkpt lat="45.8175076" lon="13.7395179"><ele>282.25</ele><time>2026-04-06T13:24:56.021Z</time></trkpt><trkpt lat="45.8175424" lon="13.7397285"><ele>282.5</ele><time>2026-04-06T13:24:57.025Z</time></trkpt><trkpt lat="45.8175802" lon="13.7399289"><ele>282.75</ele><time>2026-04-06T13:24:58.027Z</time></trkpt><trkpt lat="45.8176334" lon="13.7401318"><ele>283.0</ele><time>2026-04-06T13:24:59.023Z</time></trkpt><trkpt lat="45.8176968" lon="13.7403296"><ele>284.5</ele><time>2026-04-06T13:25:00.024Z</time></trkpt><trkpt lat="45.8177537" lon="13.7405125"><ele>286.0</ele><time>2026-04-06T13:25:01.026Z</time></trkpt><trkpt lat="45.8178078" lon="13.7406855"><ele>287.5</ele><time>2026-04-06T13:25:02.037Z</time></trkpt><trkpt lat="45.8178562" lon="13.7408451"><ele>289.0</ele><time>2026-04-06T13:25:03.024Z</time></trkpt><trkpt lat="45.8178909" lon="13.7410016"><ele>289.5</ele><time>2026-04-06T13:25:04.03Z</time></trkpt><trkpt lat="45.8179024" lon="13.7411783"><ele>290.0</ele><time>2026-04-06T13:25:05.038Z</time></trkpt><trkpt lat="45.8178899" lon="13.741369"><ele>290.5</ele><time>2026-04-06T13:25:06.032Z</time></trkpt><trkpt lat="45.8178666" lon="13.7415657"><ele>291.0</ele><time>2026-04-06T13:25:07.04Z</time></trkpt><trkpt lat="45.8178492" lon="13.7417667"><ele>291.25</ele><time>2026-04-06T13:25:08.02Z</time></trkpt><trkpt lat="45.8178496" lon="13.741966"><ele>291.5</ele><time>2026-04-06T13:25:09.034Z</time></trkpt><trkpt lat="45.8178803" lon="13.7421686"><ele>291.75</ele><time>2026-04-06T13:25:10.029Z</time></trkpt><trkpt lat="45.8179145" lon="13.7423676"><ele>292.0</ele><time>2026-04-06T13:25:11.028Z</time></trkpt><trkpt lat="45.8179229" lon="13.7425327"><ele>292.0</ele><time>2026-04-06T13:25:12.029Z</time></trkpt><trkpt lat="45.8179008" lon="13.7426887"><ele>292.0</ele><time>2026-04-06T13:25:13.028Z</time></trkpt><trkpt lat="45.8178463" lon="13.7428439"><ele>292.0</ele><time>2026-04-06T13:25:14.022Z</time></trkpt><trkpt lat="45.8177894" lon="13.7430062"><ele>292.0</ele><time>2026-04-06T13:25:15.033Z</time></trkpt><trkpt lat="45.8177349" lon="13.7431755"><ele>292.5</ele><time>2026-04-06T13:25:16.032Z</time></trkpt><trkpt lat="45.817685" lon="13.7433363"><ele>293.0</ele><time>2026-04-06T13:25:17.027Z</time></trkpt><trkpt lat="45.8176385" lon="13.7435049"><ele>293.5</ele><time>2026-04-06T13:25:18.03Z</time></trkpt><trkpt lat="45.8176008" lon="13.7436729"><ele>294.0</ele><time>2026-04-06T13:25:19.019Z</time></trkpt><trkpt lat="45.8175648" lon="13.7438444"><ele>293.0</ele><time>2026-04-06T13:25:20.029Z</time></trkpt><trkpt lat="45.8175334" lon="13.7440196"><ele>292.0</ele><time>2026-04-06T13:25:21.023Z</time></trkpt><trkpt lat="45.8174967" lon="13.7441866"><ele>291.0</ele><time>2026-04-06T13:25:22.025Z</time></trkpt><trkpt lat="45.8174482" lon="13.7443382"><ele>290.0</ele><time>2026-04-06T13:25:23.042Z</time></trkpt><trkpt lat="45.8173848" lon="13.7444576"><ele>290.0</ele><time>2026-04-06T13:25:24.03Z</time></trkpt><trkpt lat="45.8173092" lon="13.7445428"><ele>290.0</ele><time>2026-04-06T13:25:25.016Z</time></trkpt><trkpt lat="45.8172237" lon="13.7446042"><ele>290.0</ele><time>2026-04-06T13:25:26.025Z</time></trkpt><trkpt lat="45.817136" lon="13.7446479"><ele>290.0</ele><time>2026-04-06T13:25:27.013Z</time></trkpt><trkpt lat="45.8170525" lon="13.7446913"><ele>290.0</ele><time>2026-04-06T13:25:28.034Z</time></trkpt><trkpt lat="45.8169753" lon="13.744742"><ele>290.0</ele><time>2026-04-06T13:25:29.023Z</time></trkpt><trkpt lat="45.8169132" lon="13.7447883"><ele>290.0</ele><time>2026-04-06T13:25:30.026Z</time></trkpt><trkpt lat="45.8168317" lon="13.7449057"><ele>290.0</ele><time>2026-04-06T13:25:32.019Z</time></trkpt><trkpt lat="45.8168117" lon="13.745"><ele>290.0</ele><time>2026-04-06T13:25:33.019Z</time></trkpt><trkpt lat="45.8167982" lon="13.7451355"><ele>290.0</ele><time>2026-04-06T13:25:35.038Z</time></trkpt><trkpt lat="45.8168366" lon="13.7452394"><ele>290.0</ele><time>2026-04-06T13:25:38.018Z</time></trkpt><trkpt lat="45.8169031" lon="13.7452699"><ele>290.0</ele><time>2026-04-06T13:25:41.012Z</time></trkpt><trkpt lat="45.8168857" lon="13.7451704"><ele>290.0</ele><time>2026-04-06T13:29:40.025Z</time></trkpt><trkpt lat="45.8168173" lon="13.7451518"><ele>290.0</ele><time>2026-04-06T13:29:42.027Z</time></trkpt><trkpt lat="45.816756" lon="13.7452182"><ele>290.0</ele><time>2026-04-06T13:29:44.026Z</time></trkpt><trkpt lat="45.8167721" lon="13.7453973"><ele>290.0</ele><time>2026-04-06T13:29:46.03Z</time></trkpt><trkpt lat="45.8167987" lon="13.7455013"><ele>290.0</ele><time>2026-04-06T13:29:47.032Z</time></trkpt><trkpt lat="45.8168439" lon="13.7456196"><ele>289.8</ele><time>2026-04-06T13:29:48.019Z</time></trkpt><trkpt lat="45.8168939" lon="13.7457418"><ele>289.6</ele><time>2026-04-06T13:29:49.029Z</time></trkpt><trkpt lat="45.8169449" lon="13.7458656"><ele>289.4</ele><time>2026-04-06T13:29:50.033Z</time></trkpt><trkpt lat="45.8169994" lon="13.7459948"><ele>289.2</ele><time>2026-04-06T13:29:51.045Z</time></trkpt><trkpt lat="45.8170616" lon="13.7461326"><ele>289.0</ele><time>2026-04-06T13:29:52.049Z</time></trkpt><trkpt lat="45.8171307" lon="13.7462903"><ele>288.0</ele><time>2026-04-06T13:29:53.034Z</time></trkpt><trkpt lat="45.8172058" lon="13.7464521"><ele>287.0</ele><time>2026-04-06T13:29:54.044Z</time></trkpt><trkpt lat="45.81728" lon="13.7466216"><ele>286.0</ele><time>2026-04-06T13:29:55.023Z</time></trkpt><trkpt lat="45.8173451" lon="13.7467926"><ele>285.0</ele><time>2026-04-06T13:29:56.023Z</time></trkpt><trkpt lat="45.8174044" lon="13.7469503"><ele>285.0</ele><time>2026-04-06T13:29:57.024Z</time></trkpt><trkpt lat="45.8174626" lon="13.7470959"><ele>285.0</ele><time>2026-04-06T13:29:58.014Z</time></trkpt><trkpt lat="45.8175023" lon="13.7472305"><ele>285.0</ele><time>2026-04-06T13:29:59.034Z</time></trkpt><trkpt lat="45.8175358" lon="13.7473706"><ele>285.0</ele><time>2026-04-06T13:30:00.039Z</time></trkpt><trkpt lat="45.8175535" lon="13.7475335"><ele>285.0</ele><time>2026-04-06T13:30:01.036Z</time></trkpt><trkpt lat="45.8175629" lon="13.7477078"><ele>285.25</ele><time>2026-04-06T13:30:02.025Z</time></trkpt><trkpt lat="45.8175585" lon="13.7478931"><ele>285.5</ele><time>2026-04-06T13:30:03.034Z</time></trkpt><trkpt lat="45.817556" lon="13.7480712"><ele>285.75</ele><time>2026-04-06T13:30:04.028Z</time></trkpt><trkpt lat="45.8175551" lon="13.7482382"><ele>286.0</ele><time>2026-04-06T13:30:05.049Z</time></trkpt><trkpt lat="45.8175545" lon="13.7483933"><ele>286.0</ele><time>2026-04-06T13:30:06.04Z</time></trkpt><trkpt lat="45.8175645" lon="13.7485324"><ele>286.0</ele><time>2026-04-06T13:30:07.036Z</time></trkpt><trkpt lat="45.8175917" lon="13.7486551"><ele>286.0</ele><time>2026-04-06T13:30:08.034Z</time></trkpt><trkpt lat="45.8176596" lon="13.7487665"><ele>286.0</ele><time>2026-04-06T13:30:09.02Z</time></trkpt><trkpt lat="45.8177333" lon="13.7488582"><ele>286.0</ele><time>2026-04-06T13:30:10.022Z</time></trkpt><trkpt lat="45.8178062" lon="13.7489444"><ele>287.40000000000003</ele><time>2026-04-06T13:30:11.018Z</time></trkpt><trkpt lat="45.8178844" lon="13.7490255"><ele>288.8</ele><time>2026-04-06T13:30:12.025Z</time></trkpt><trkpt lat="45.8179639" lon="13.7491027"><ele>290.20000000000005</ele><time>2026-04-06T13:30:13.034Z</time></trkpt><trkpt lat="45.8180478" lon="13.7491682"><ele>291.6</ele><time>2026-04-06T13:30:14.037Z</time></trkpt><trkpt lat="45.8181347" lon="13.7492264"><ele>293.0</ele><time>2026-04-06T13:30:15.032Z</time></trkpt><trkpt lat="45.8182222" lon="13.7492757"><ele>293.0</ele><time>2026-04-06T13:30:16.037Z</time></trkpt><trkpt lat="45.8183093" lon="13.7493224"><ele>293.0</ele><time>2026-04-06T13:30:17.061Z</time></trkpt><trkpt lat="45.8184028" lon="13.7493498"><ele>293.0</ele><time>2026-04-06T13:30:18.042Z</time></trkpt><trkpt lat="45.8184989" lon="13.7493759"><ele>293.0</ele><time>2026-04-06T13:30:19.033Z</time></trkpt><trkpt lat="45.8185957" lon="13.7493973"><ele>293.0</ele><time>2026-04-06T13:30:20.055Z</time></trkpt><trkpt lat="45.8187001" lon="13.7494243"><ele>290.8</ele><time>2026-04-06T13:30:21.042Z</time></trkpt><trkpt lat="45.8187992" lon="13.7494494"><ele>288.6</ele><time>2026-04-06T13:30:22.044Z</time></trkpt><trkpt lat="45.8188932" lon="13.7494723"><ele>286.4</ele><time>2026-04-06T13:30:23.038Z</time></trkpt><trkpt lat="45.8189821" lon="13.7494928"><ele>284.2</ele><time>2026-04-06T13:30:24.028Z</time></trkpt><trkpt lat="45.8190714" lon="13.7495054"><ele>282.0</ele><time>2026-04-06T13:30:25.05Z</time></trkpt><trkpt lat="45.8191585" lon="13.7495136"><ele>282.0</ele><time>2026-04-06T13:30:26.033Z</time></trkpt><trkpt lat="45.8192469" lon="13.7495134"><ele>282.0</ele><time>2026-04-06T13:30:27.033Z</time></trkpt><trkpt lat="45.8193324" lon="13.749517"><ele>282.0</ele><time>2026-04-06T13:30:28.04Z</time></trkpt><trkpt lat="45.8194216" lon="13.7495176"><ele>282.0</ele><time>2026-04-06T13:30:29.033Z</time></trkpt><trkpt lat="45.8195089" lon="13.7495137"><ele>282.0</ele><time>2026-04-06T13:30:30.049Z</time></trkpt><trkpt lat="45.819598" lon="13.7495149"><ele>282.0</ele><time>2026-04-06T13:30:31.044Z</time></trkpt><trkpt lat="45.8197034" lon="13.7495337"><ele>281.0</ele><time>2026-04-06T13:30:32.046Z</time></trkpt><trkpt lat="45.8198266" lon="13.7495909"><ele>280.0</ele><time>2026-04-06T13:30:33.031Z</time></trkpt><trkpt lat="45.8199409" lon="13.7497002"><ele>279.0</ele><time>2026-04-06T13:30:34.039Z</time></trkpt><trkpt lat="45.8200406" lon="13.7498023"><ele>278.0</ele><time>2026-04-06T13:30:35.025Z</time></trkpt><trkpt lat="45.8201314" lon="13.7499058"><ele>277.6</ele><time>2026-04-06T13:30:36.02Z</time></trkpt><trkpt lat="45.8202093" lon="13.750017"><ele>277.20000000000005</ele><time>2026-04-06T13:30:37.02Z</time></trkpt><trkpt lat="45.8202686" lon="13.7501416"><ele>276.8</ele><time>2026-04-06T13:30:38.037Z</time></trkpt><trkpt lat="45.8203265" lon="13.750278"><ele>276.40000000000003</ele><time>2026-04-06T13:30:39.025Z</time></trkpt><trkpt lat="45.8203805" lon="13.7504199"><ele>276.0</ele><time>2026-04-06T13:30:40.03Z</time></trkpt><trkpt lat="45.8204369" lon="13.7505648"><ele>276.0</ele><time>2026-04-06T13:30:41.022Z</time></trkpt><trkpt lat="45.8204953" lon="13.7507012"><ele>276.0</ele><time>2026-04-06T13:30:42.008Z</time></trkpt><trkpt lat="45.8205577" lon="13.7508295"><ele>276.0</ele><time>2026-04-06T13:30:43.03Z</time></trkpt><trkpt lat="45.8206301" lon="13.7509516"><ele>276.0</ele><time>2026-04-06T13:30:44.009Z</time></trkpt><trkpt lat="45.8207105" lon="13.7510676"><ele>276.0</ele><time>2026-04-06T13:30:45.016Z</time></trkpt><trkpt lat="45.8207946" lon="13.7511847"><ele>275.40000000000003</ele><time>2026-04-06T13:30:46.024Z</time></trkpt><trkpt lat="45.820879" lon="13.7512928"><ele>274.8</ele><time>2026-04-06T13:30:47.028Z</time></trkpt><trkpt lat="45.8209592" lon="13.7513959"><ele>274.20000000000005</ele><time>2026-04-06T13:30:48.031Z</time></trkpt><trkpt lat="45.8210333" lon="13.7515135"><ele>273.6</ele><time>2026-04-06T13:30:49.024Z</time></trkpt><trkpt lat="45.8210985" lon="13.7516252"><ele>273.0</ele><time>2026-04-06T13:30:50.016Z</time></trkpt><trkpt lat="45.8211554" lon="13.7517468"><ele>273.0</ele><time>2026-04-06T13:30:51.032Z</time></trkpt><trkpt lat="45.8211997" lon="13.7518725"><ele>273.0</ele><time>2026-04-06T13:30:52.029Z</time></trkpt><trkpt lat="45.8212179" lon="13.7520043"><ele>273.0</ele><time>2026-04-06T13:30:53.023Z</time></trkpt><trkpt lat="45.8212231" lon="13.7521247"><ele>273.0</ele><time>2026-04-06T13:30:54.022Z</time></trkpt><trkpt lat="45.8212404" lon="13.7522335"><ele>273.0</ele><time>2026-04-06T13:30:55.026Z</time></trkpt><trkpt lat="45.8212998" lon="13.752295"><ele>273.0</ele><time>2026-04-06T13:30:56.03Z</time></trkpt><trkpt lat="45.821372" lon="13.7523055"><ele>272.4</ele><time>2026-04-06T13:30:57.025Z</time></trkpt><trkpt lat="45.8214534" lon="13.752302"><ele>271.8</ele><time>2026-04-06T13:30:58.047Z</time></trkpt><trkpt lat="45.821541" lon="13.7523383"><ele>271.2</ele><time>2026-04-06T13:30:59.031Z</time></trkpt><trkpt lat="45.8216316" lon="13.7523961"><ele>270.6</ele><time>2026-04-06T13:31:00.029Z</time></trkpt><trkpt lat="45.8217308" lon="13.7524737"><ele>270.0</ele><time>2026-04-06T13:31:01.05Z</time></trkpt><trkpt lat="45.8218204" lon="13.7525707"><ele>268.8</ele><time>2026-04-06T13:31:02.024Z</time></trkpt><trkpt lat="45.8219081" lon="13.7526651"><ele>267.6</ele><time>2026-04-06T13:31:03.034Z</time></trkpt><trkpt lat="45.8219933" lon="13.7527572"><ele>266.4</ele><time>2026-04-06T13:31:04.035Z</time></trkpt><trkpt lat="45.8220742" lon="13.7528436"><ele>265.2</ele><time>2026-04-06T13:31:05.027Z</time></trkpt><trkpt lat="45.8221539" lon="13.7529217"><ele>264.0</ele><time>2026-04-06T13:31:06.04Z</time></trkpt><trkpt lat="45.8222306" lon="13.7529945"><ele>263.8</ele><time>2026-04-06T13:31:07.039Z</time></trkpt><trkpt lat="45.8223037" lon="13.7530719"><ele>263.59999999999997</ele><time>2026-04-06T13:31:08.025Z</time></trkpt><trkpt lat="45.8223831" lon="13.7531424"><ele>263.4</ele><time>2026-04-06T13:31:09.041Z</time></trkpt><trkpt lat="45.8224618" lon="13.7532081"><ele>263.2</ele><time>2026-04-06T13:31:10.043Z</time></trkpt><trkpt lat="45.8225377" lon="13.7532767"><ele>263.0</ele><time>2026-04-06T13:31:11.034Z</time></trkpt><trkpt lat="45.8226172" lon="13.7533465"><ele>263.0</ele><time>2026-04-06T13:31:12.033Z</time></trkpt><trkpt lat="45.8226995" lon="13.7534151"><ele>263.0</ele><time>2026-04-06T13:31:13.044Z</time></trkpt><trkpt lat="45.8227938" lon="13.7534997"><ele>263.0</ele><time>2026-04-06T13:31:14.03Z</time></trkpt><trkpt lat="45.8228863" lon="13.7535923"><ele>263.0</ele><time>2026-04-06T13:31:15.036Z</time></trkpt><trkpt lat="45.8229732" lon="13.7536834"><ele>263.0</ele><time>2026-04-06T13:31:16.026Z</time></trkpt><trkpt lat="45.8230593" lon="13.7537764"><ele>263.0</ele><time>2026-04-06T13:31:17.037Z</time></trkpt><trkpt lat="45.8231401" lon="13.7538694"><ele>263.0</ele><time>2026-04-06T13:31:18.034Z</time></trkpt><trkpt lat="45.8232215" lon="13.7539647"><ele>263.0</ele><time>2026-04-06T13:31:19.029Z</time></trkpt><trkpt lat="45.8232994" lon="13.7540626"><ele>263.0</ele><time>2026-04-06T13:31:20.04Z</time></trkpt><trkpt lat="45.823379" lon="13.7541594"><ele>263.0</ele><time>2026-04-06T13:31:21.034Z</time></trkpt><trkpt lat="45.8234575" lon="13.7542582"><ele>262.8</ele><time>2026-04-06T13:31:22.037Z</time></trkpt><trkpt lat="45.8235376" lon="13.7543601"><ele>262.6</ele><time>2026-04-06T13:31:23.031Z</time></trkpt><trkpt lat="45.8236177" lon="13.7544553"><ele>262.4</ele><time>2026-04-06T13:31:24.039Z</time></trkpt><trkpt lat="45.8236979" lon="13.7545537"><ele>262.2</ele><time>2026-04-06T13:31:25.024Z</time></trkpt><trkpt lat="45.8237817" lon="13.7546571"><ele>262.0</ele><time>2026-04-06T13:31:26.021Z</time></trkpt><trkpt lat="45.8238697" lon="13.7547622"><ele>262.4</ele><time>2026-04-06T13:31:27.031Z</time></trkpt><trkpt lat="45.8239586" lon="13.754862"><ele>262.79999999999995</ele><time>2026-04-06T13:31:28.024Z</time></trkpt><trkpt lat="45.8240498" lon="13.7549625"><ele>263.2</ele><time>2026-04-06T13:31:29.032Z</time></trkpt><trkpt lat="45.8241363" lon="13.7550539"><ele>263.59999999999997</ele><time>2026-04-06T13:31:30.036Z</time></trkpt><trkpt lat="45.8242117" lon="13.7551373"><ele>264.0</ele><time>2026-04-06T13:31:31.032Z</time></trkpt><trkpt lat="45.8242813" lon="13.7552127"><ele>265.0</ele><time>2026-04-06T13:31:32.031Z</time></trkpt><trkpt lat="45.8243298" lon="13.7552729"><ele>266.0</ele><time>2026-04-06T13:31:33.039Z</time></trkpt><trkpt lat="45.824406" lon="13.7553681"><ele>267.0</ele><time>2026-04-06T13:31:35.025Z</time></trkpt><trkpt lat="45.8244915" lon="13.7554725"><ele>268.0</ele><time>2026-04-06T13:31:37.033Z</time></trkpt><trkpt lat="45.8245437" lon="13.7555389"><ele>269.0</ele><time>2026-04-06T13:31:38.044Z</time></trkpt><trkpt lat="45.8246052" lon="13.7556129"><ele>270.0</ele><time>2026-04-06T13:31:39.035Z</time></trkpt><trkpt lat="45.8246821" lon="13.7557063"><ele>270.0</ele><time>2026-04-06T13:31:40.023Z</time></trkpt><trkpt lat="45.8247671" lon="13.7558003"><ele>270.0</ele><time>2026-04-06T13:31:41.028Z</time></trkpt><trkpt lat="45.8248479" lon="13.7558971"><ele>270.0</ele><time>2026-04-06T13:31:42.031Z</time></trkpt><trkpt lat="45.824918" lon="13.7559876"><ele>270.0</ele><time>2026-04-06T13:31:43.021Z</time></trkpt><trkpt lat="45.8249751" lon="13.7560496"><ele>270.0</ele><time>2026-04-06T13:31:44.021Z</time></trkpt><trkpt lat="45.8250543" lon="13.7561353"><ele>270.1666666666667</ele><time>2026-04-06T13:31:46.023Z</time></trkpt><trkpt lat="45.8251183" lon="13.7562107"><ele>270.3333333333333</ele><time>2026-04-06T13:31:48.027Z</time></trkpt><trkpt lat="45.82521" lon="13.7561835"><ele>270.5</ele><time>2026-04-06T13:31:51.025Z</time></trkpt><trkpt lat="45.8252998" lon="13.7561036"><ele>270.66666666666663</ele><time>2026-04-06T13:31:53.025Z</time></trkpt><trkpt lat="45.8253613" lon="13.7560695"><ele>270.8333333333333</ele><time>2026-04-06T13:31:54.025Z</time></trkpt><trkpt lat="45.8254228" lon="13.7560331"><ele>271.0</ele><time>2026-04-06T13:31:55.042Z</time></trkpt><trkpt lat="45.8254792" lon="13.7559715"><ele>271.0</ele><time>2026-04-06T13:31:56.041Z</time></trkpt><trkpt lat="45.8255354" lon="13.755912"><ele>271.0</ele><time>2026-04-06T13:31:57.046Z</time></trkpt><trkpt lat="45.8255925" lon="13.7558463"><ele>271.0</ele><time>2026-04-06T13:31:58.038Z</time></trkpt><trkpt lat="45.8256806" lon="13.7557244"><ele>271.0</ele><time>2026-04-06T13:32:00.032Z</time></trkpt><trkpt lat="45.8257714" lon="13.7556834"><ele>271.0</ele><time>2026-04-06T13:32:02.022Z</time></trkpt><trkpt lat="45.8258528" lon="13.7556371"><ele>271.0</ele><time>2026-04-06T13:32:04.046Z</time></trkpt><trkpt lat="45.8259267" lon="13.7555398"><ele>271.0</ele><time>2026-04-06T13:32:06.019Z</time></trkpt><trkpt lat="45.8260189" lon="13.7554643"><ele>271.0</ele><time>2026-04-06T13:32:08.032Z</time></trkpt><trkpt lat="45.8260855" lon="13.7553871"><ele>271.0</ele><time>2026-04-06T13:32:10.035Z</time></trkpt><trkpt lat="45.8261418" lon="13.7553258"><ele>271.0</ele><time>2026-04-06T13:32:12.028Z</time></trkpt><trkpt lat="45.8262276" lon="13.755346"><ele>271.0</ele><time>2026-04-06T13:32:14.012Z</time></trkpt><trkpt lat="45.8263227" lon="13.755405"><ele>271.0</ele><time>2026-04-06T13:32:16.037Z</time></trkpt><trkpt lat="45.8263925" lon="13.7554208"><ele>271.0</ele><time>2026-04-06T13:32:18.027Z</time></trkpt><trkpt lat="45.8264716" lon="13.7554275"><ele>271.0</ele><time>2026-04-06T13:32:21.038Z</time></trkpt><trkpt lat="45.8265565" lon="13.7553702"><ele>271.0</ele><time>2026-04-06T13:32:24.034Z</time></trkpt><trkpt lat="45.8266403" lon="13.755406"><ele>271.0</ele><time>2026-04-06T13:32:26.023Z</time></trkpt><trkpt lat="45.8267135" lon="13.7554721"><ele>271.0</ele><time>2026-04-06T13:32:29.03Z</time></trkpt><trkpt lat="45.8266524" lon="13.7554455"><ele>271.0</ele><time>2026-04-06T13:32:43.017Z</time></trkpt><trkpt lat="45.8265628" lon="13.7553888"><ele>271.0</ele><time>2026-04-06T13:32:45.023Z</time></trkpt><trkpt lat="45.8264709" lon="13.7553634"><ele>271.0</ele><time>2026-04-06T13:32:47.038Z</time></trkpt><trkpt lat="45.8263629" lon="13.7553867"><ele>271.0</ele><time>2026-04-06T13:32:49.041Z</time></trkpt><trkpt lat="45.8262664" lon="13.7553702"><ele>271.0</ele><time>2026-04-06T13:32:51.047Z</time></trkpt><trkpt lat="45.8261884" lon="13.7553276"><ele>271.0</ele><time>2026-04-06T13:32:53.03Z</time></trkpt><trkpt lat="45.8261264" lon="13.7552823"><ele>271.0</ele><time>2026-04-06T13:32:55.051Z</time></trkpt><trkpt lat="45.8260852" lon="13.7551862"><ele>271.0</ele><time>2026-04-06T13:32:57.022Z</time></trkpt><trkpt lat="45.8260812" lon="13.7550802"><ele>271.0</ele><time>2026-04-06T13:33:00.051Z</time></trkpt><trkpt lat="45.8260173" lon="13.7551115"><ele>271.0</ele><time>2026-04-06T13:33:03.034Z</time></trkpt><trkpt lat="45.8259852" lon="13.7551998"><ele>271.0</ele><time>2026-04-06T13:33:05.022Z</time></trkpt><trkpt lat="45.8259584" lon="13.7553131"><ele>271.0</ele><time>2026-04-06T13:33:07.038Z</time></trkpt><trkpt lat="45.8259309" lon="13.7554545"><ele>271.0</ele><time>2026-04-06T13:33:09.04Z</time></trkpt><trkpt lat="45.8258794" lon="13.7555826"><ele>271.0</ele><time>2026-04-06T13:33:11.035Z</time></trkpt><trkpt lat="45.8258031" lon="13.7556777"><ele>271.0</ele><time>2026-04-06T13:33:13.039Z</time></trkpt><trkpt lat="45.8257023" lon="13.7557234"><ele>271.0</ele><time>2026-04-06T13:33:15.041Z</time></trkpt><trkpt lat="45.8256004" lon="13.7557865"><ele>271.0</ele><time>2026-04-06T13:33:17.034Z</time></trkpt><trkpt lat="45.825521" lon="13.7559104"><ele>271.0</ele><time>2026-04-06T13:33:19.043Z</time></trkpt><trkpt lat="45.8254394" lon="13.7560171"><ele>271.0</ele><time>2026-04-06T13:33:21.05Z</time></trkpt><trkpt lat="45.8253524" lon="13.7561101"><ele>271.0</ele><time>2026-04-06T13:33:23.036Z</time></trkpt><trkpt lat="45.8252804" lon="13.7561351"><ele>271.0</ele><time>2026-04-06T13:33:25.03Z</time></trkpt><trkpt lat="45.8252192" lon="13.7560795"><ele>271.0</ele><time>2026-04-06T13:33:30.029Z</time></trkpt><trkpt lat="45.8251829" lon="13.7559663"><ele>271.0</ele><time>2026-04-06T13:33:33.041Z</time></trkpt><trkpt lat="45.8251574" lon="13.7558642"><ele>271.0</ele><time>2026-04-06T13:33:35.034Z</time></trkpt><trkpt lat="45.8251558" lon="13.7557359"><ele>271.0</ele><time>2026-04-06T13:33:37.04Z</time></trkpt><trkpt lat="45.8251866" lon="13.7555862"><ele>271.0</ele><time>2026-04-06T13:33:39.042Z</time></trkpt><trkpt lat="45.8252363" lon="13.7555001"><ele>271.0</ele><time>2026-04-06T13:33:40.024Z</time></trkpt><trkpt lat="45.8252942" lon="13.7554196"><ele>271.0</ele><time>2026-04-06T13:33:41.027Z</time></trkpt><trkpt lat="45.8253498" lon="13.755334"><ele>271.0</ele><time>2026-04-06T13:33:42.029Z</time></trkpt><trkpt lat="45.8254022" lon="13.7552443"><ele>271.0</ele><time>2026-04-06T13:33:43.034Z</time></trkpt><trkpt lat="45.8254595" lon="13.7551611"><ele>271.0</ele><time>2026-04-06T13:33:44.025Z</time></trkpt><trkpt lat="45.8255162" lon="13.7550767"><ele>271.0</ele><time>2026-04-06T13:33:45.038Z</time></trkpt><trkpt lat="45.8255673" lon="13.7550015"><ele>271.0</ele><time>2026-04-06T13:33:46.026Z</time></trkpt><trkpt lat="45.8256187" lon="13.7549404"><ele>271.0</ele><time>2026-04-06T13:33:47.039Z</time></trkpt><trkpt lat="45.8256864" lon="13.7548277"><ele>271.0</ele><time>2026-04-06T13:33:49.021Z</time></trkpt><trkpt lat="45.8256609" lon="13.7547143"><ele>271.0</ele><time>2026-04-06T13:33:52.025Z</time></trkpt><trkpt lat="45.8255701" lon="13.7547106"><ele>271.0</ele><time>2026-04-06T13:33:55.026Z</time></trkpt><trkpt lat="45.8255219" lon="13.7548026"><ele>271.0</ele><time>2026-04-06T13:33:57.022Z</time></trkpt><trkpt lat="45.8254764" lon="13.7549671"><ele>271.0</ele><time>2026-04-06T13:33:59.039Z</time></trkpt><trkpt lat="45.8254579" lon="13.7550631"><ele>271.0</ele><time>2026-04-06T13:34:00.035Z</time></trkpt><trkpt lat="45.8254438" lon="13.7551629"><ele>271.0</ele><time>2026-04-06T13:34:01.035Z</time></trkpt><trkpt lat="45.8253681" lon="13.7553077"><ele>271.0</ele><time>2026-04-06T13:34:03.021Z</time></trkpt><trkpt lat="45.8253201" lon="13.7553879"><ele>271.0</ele><time>2026-04-06T13:34:04.027Z</time></trkpt><trkpt lat="45.8252637" lon="13.7554677"><ele>271.0</ele><time>2026-04-06T13:34:05.041Z</time></trkpt><trkpt lat="45.8252087" lon="13.7555544"><ele>271.0</ele><time>2026-04-06T13:34:06.021Z</time></trkpt><trkpt lat="45.8251646" lon="13.7556398"><ele>271.0</ele><time>2026-04-06T13:34:07.037Z</time></trkpt><trkpt lat="45.8251371" lon="13.7557321"><ele>271.0</ele><time>2026-04-06T13:34:08.038Z</time></trkpt><trkpt lat="45.8251202" lon="13.7558301"><ele>271.0</ele><time>2026-04-06T13:34:09.004Z</time></trkpt><trkpt lat="45.8251288" lon="13.7559338"><ele>271.0</ele><time>2026-04-06T13:34:10.035Z</time></trkpt><trkpt lat="45.825165" lon="13.7560214"><ele>271.0</ele><time>2026-04-06T13:34:11.021Z</time></trkpt><trkpt lat="45.825207" lon="13.7560988"><ele>271.0</ele><time>2026-04-06T13:34:12.023Z</time></trkpt><trkpt lat="45.8252099" lon="13.7561949"><ele>271.0</ele><time>2026-04-06T13:34:14.031Z</time></trkpt><trkpt lat="45.8251951" lon="13.75629"><ele>271.0</ele><time>2026-04-06T13:34:17.032Z</time></trkpt><trkpt lat="45.8252847" lon="13.7564039"><ele>271.2</ele><time>2026-04-06T13:34:19.016Z</time></trkpt><trkpt lat="45.8253328" lon="13.7564858"><ele>271.40000000000003</ele><time>2026-04-06T13:34:20.011Z</time></trkpt><trkpt lat="45.8253941" lon="13.7565806"><ele>271.6</ele><time>2026-04-06T13:34:21.038Z</time></trkpt><trkpt lat="45.8254639" lon="13.7566951"><ele>271.8</ele><time>2026-04-06T13:34:22.03Z</time></trkpt><trkpt lat="45.8255514" lon="13.7568176"><ele>272.0</ele><time>2026-04-06T13:34:23.035Z</time></trkpt><trkpt lat="45.8256388" lon="13.7569484"><ele>271.5</ele><time>2026-04-06T13:34:24.024Z</time></trkpt><trkpt lat="45.8257326" lon="13.7570792"><ele>271.0</ele><time>2026-04-06T13:34:25.035Z</time></trkpt><trkpt lat="45.8258168" lon="13.7571956"><ele>270.5</ele><time>2026-04-06T13:34:26.024Z</time></trkpt><trkpt lat="45.8258988" lon="13.7573088"><ele>270.0</ele><time>2026-04-06T13:34:27.044Z</time></trkpt><trkpt lat="45.8259838" lon="13.757421"><ele>269.75</ele><time>2026-04-06T13:34:28.037Z</time></trkpt><trkpt lat="45.8260735" lon="13.757541"><ele>269.5</ele><time>2026-04-06T13:34:29.048Z</time></trkpt><trkpt lat="45.8261624" lon="13.7576582"><ele>269.25</ele><time>2026-04-06T13:34:30.032Z</time></trkpt><trkpt lat="45.8262515" lon="13.7577861"><ele>269.0</ele><time>2026-04-06T13:34:31.044Z</time></trkpt><trkpt lat="45.8263434" lon="13.7579107"><ele>268.75</ele><time>2026-04-06T13:34:32.034Z</time></trkpt><trkpt lat="45.8264371" lon="13.7580379"><ele>268.5</ele><time>2026-04-06T13:34:33.033Z</time></trkpt><trkpt lat="45.82653" lon="13.7581658"><ele>268.25</ele><time>2026-04-06T13:34:34.029Z</time></trkpt><trkpt lat="45.8266232" lon="13.7582983"><ele>268.0</ele><time>2026-04-06T13:34:35.032Z</time></trkpt><trkpt lat="45.8267185" lon="13.7584285"><ele>267.75</ele><time>2026-04-06T13:34:36.041Z</time></trkpt><trkpt lat="45.8268123" lon="13.7585501"><ele>267.5</ele><time>2026-04-06T13:34:37.036Z</time></trkpt><trkpt lat="45.8269094" lon="13.7586751"><ele>267.25</ele><time>2026-04-06T13:34:38.047Z</time></trkpt><trkpt lat="45.8270046" lon="13.7588019"><ele>267.0</ele><time>2026-04-06T13:34:39.037Z</time></trkpt><trkpt lat="45.8271008" lon="13.7589298"><ele>267.0</ele><time>2026-04-06T13:34:40.036Z</time></trkpt><trkpt lat="45.8271951" lon="13.7590581"><ele>267.0</ele><time>2026-04-06T13:34:41.042Z</time></trkpt><trkpt lat="45.8272939" lon="13.7591826"><ele>267.0</ele><time>2026-04-06T13:34:42.029Z</time></trkpt><trkpt lat="45.8273841" lon="13.7593022"><ele>267.0</ele><time>2026-04-06T13:34:43.04Z</time></trkpt><trkpt lat="45.8274712" lon="13.7594184"><ele>267.25</ele><time>2026-04-06T13:34:44.031Z</time></trkpt><trkpt lat="45.8275531" lon="13.7595369"><ele>267.5</ele><time>2026-04-06T13:34:45.035Z</time></trkpt><trkpt lat="45.8276388" lon="13.7596635"><ele>267.75</ele><time>2026-04-06T13:34:46.043Z</time></trkpt><trkpt lat="45.8277312" lon="13.7597968"><ele>268.0</ele><time>2026-04-06T13:34:47.037Z</time></trkpt><trkpt lat="45.827823" lon="13.7599348"><ele>268.0</ele><time>2026-04-06T13:34:48.029Z</time></trkpt><trkpt lat="45.8279198" lon="13.7600694"><ele>268.0</ele><time>2026-04-06T13:34:49.035Z</time></trkpt><trkpt lat="45.8280198" lon="13.7602071"><ele>268.0</ele><time>2026-04-06T13:34:50.033Z</time></trkpt><trkpt lat="45.828122" lon="13.7603476"><ele>268.0</ele><time>2026-04-06T13:34:51.033Z</time></trkpt><trkpt lat="45.8282239" lon="13.7604853"><ele>269.0</ele><time>2026-04-06T13:34:52.033Z</time></trkpt><trkpt lat="45.8283221" lon="13.760619"><ele>270.0</ele><time>2026-04-06T13:34:53.034Z</time></trkpt><trkpt lat="45.8284113" lon="13.760743"><ele>271.0</ele><time>2026-04-06T13:34:54.031Z</time></trkpt><trkpt lat="45.8285016" lon="13.7608611"><ele>272.0</ele><time>2026-04-06T13:34:55.03Z</time></trkpt><trkpt lat="45.8285896" lon="13.7609771"><ele>272.0</ele><time>2026-04-06T13:34:56.031Z</time></trkpt><trkpt lat="45.8286818" lon="13.7610948"><ele>272.0</ele><time>2026-04-06T13:34:57.037Z</time></trkpt><trkpt lat="45.8287759" lon="13.7611955"><ele>272.0</ele><time>2026-04-06T13:34:58.036Z</time></trkpt><trkpt lat="45.8288766" lon="13.7612908"><ele>272.0</ele><time>2026-04-06T13:34:59.027Z</time></trkpt><trkpt lat="45.828986" lon="13.761386"><ele>272.0</ele><time>2026-04-06T13:35:00.045Z</time></trkpt><trkpt lat="45.8290968" lon="13.7614888"><ele>272.0</ele><time>2026-04-06T13:35:01.04Z</time></trkpt><trkpt lat="45.8292146" lon="13.7615893"><ele>272.0</ele><time>2026-04-06T13:35:02.027Z</time></trkpt><trkpt lat="45.8293335" lon="13.7616895"><ele>272.0</ele><time>2026-04-06T13:35:03.035Z</time></trkpt><trkpt lat="45.8294467" lon="13.7617826"><ele>272.25</ele><time>2026-04-06T13:35:04.039Z</time></trkpt><trkpt lat="45.8295459" lon="13.7618716"><ele>272.5</ele><time>2026-04-06T13:35:05.027Z</time></trkpt><trkpt lat="45.8296429" lon="13.7619586"><ele>272.75</ele><time>2026-04-06T13:35:06.031Z</time></trkpt><trkpt lat="45.8297452" lon="13.7620497"><ele>273.0</ele><time>2026-04-06T13:35:07.039Z</time></trkpt><trkpt lat="45.829854" lon="13.7621488"><ele>273.0</ele><time>2026-04-06T13:35:08.037Z</time></trkpt><trkpt lat="45.8299631" lon="13.7622463"><ele>273.0</ele><time>2026-04-06T13:35:09.035Z</time></trkpt><trkpt lat="45.8300703" lon="13.7623399"><ele>273.0</ele><time>2026-04-06T13:35:10.026Z</time></trkpt><trkpt lat="45.8301781" lon="13.76243"><ele>273.0</ele><time>2026-04-06T13:35:11.036Z</time></trkpt><trkpt lat="45.8302887" lon="13.7625308"><ele>273.5</ele><time>2026-04-06T13:35:12.027Z</time></trkpt><trkpt lat="45.8304013" lon="13.7626383"><ele>274.0</ele><time>2026-04-06T13:35:13.031Z</time></trkpt><trkpt lat="45.8305123" lon="13.7627413"><ele>274.5</ele><time>2026-04-06T13:35:14.033Z</time></trkpt><trkpt lat="45.8306194" lon="13.7628357"><ele>275.0</ele><time>2026-04-06T13:35:15.033Z</time></trkpt><trkpt lat="45.8307246" lon="13.7629299"><ele>275.0</ele><time>2026-04-06T13:35:16.02Z</time></trkpt><trkpt lat="45.8308251" lon="13.7630254"><ele>275.0</ele><time>2026-04-06T13:35:17.035Z</time></trkpt><trkpt lat="45.8309274" lon="13.7631167"><ele>275.0</ele><time>2026-04-06T13:35:18.041Z</time></trkpt><trkpt lat="45.8310273" lon="13.7632097"><ele>275.0</ele><time>2026-04-06T13:35:19.031Z</time></trkpt><trkpt lat="45.8311274" lon="13.7633002"><ele>275.0</ele><time>2026-04-06T13:35:20.021Z</time></trkpt><trkpt lat="45.8312318" lon="13.7633915"><ele>275.0</ele><time>2026-04-06T13:35:21.023Z</time></trkpt><trkpt lat="45.8313376" lon="13.7634878"><ele>275.0</ele><time>2026-04-06T13:35:22.039Z</time></trkpt><trkpt lat="45.8314501" lon="13.7635824"><ele>275.0</ele><time>2026-04-06T13:35:23.037Z</time></trkpt><trkpt lat="45.831561" lon="13.7636798"><ele>275.0</ele><time>2026-04-06T13:35:24.047Z</time></trkpt><trkpt lat="45.8316713" lon="13.7637788"><ele>275.0</ele><time>2026-04-06T13:35:25.032Z</time></trkpt><trkpt lat="45.8317834" lon="13.7638794"><ele>275.0</ele><time>2026-04-06T13:35:26.034Z</time></trkpt><trkpt lat="45.8318971" lon="13.7639857"><ele>275.0</ele><time>2026-04-06T13:35:27.045Z</time></trkpt><trkpt lat="45.8320135" lon="13.7641001"><ele>275.5</ele><time>2026-04-06T13:35:28.038Z</time></trkpt><trkpt lat="45.8321292" lon="13.7642122"><ele>276.0</ele><time>2026-04-06T13:35:29.047Z</time></trkpt><trkpt lat="45.83225" lon="13.7643147"><ele>276.5</ele><time>2026-04-06T13:35:30.03Z</time></trkpt><trkpt lat="45.8323759" lon="13.7644056"><ele>277.0</ele><time>2026-04-06T13:35:31.038Z</time></trkpt><trkpt lat="45.8325045" lon="13.7644836"><ele>277.0</ele><time>2026-04-06T13:35:32.026Z</time></trkpt><trkpt lat="45.8326366" lon="13.7645456"><ele>277.0</ele><time>2026-04-06T13:35:33.033Z</time></trkpt><trkpt lat="45.8327712" lon="13.7645969"><ele>277.0</ele><time>2026-04-06T13:35:34.03Z</time></trkpt><trkpt lat="45.8329083" lon="13.7646487"><ele>277.0</ele><time>2026-04-06T13:35:35.018Z</time></trkpt><trkpt lat="45.8330458" lon="13.7646962"><ele>277.0</ele><time>2026-04-06T13:35:36.025Z</time></trkpt><trkpt lat="45.8331852" lon="13.7647344"><ele>277.0</ele><time>2026-04-06T13:35:37.028Z</time></trkpt><trkpt lat="45.833323" lon="13.7647589"><ele>277.0</ele><time>2026-04-06T13:35:38.039Z</time></trkpt><trkpt lat="45.8334592" lon="13.7647838"><ele>277.0</ele><time>2026-04-06T13:35:39.023Z</time></trkpt><trkpt lat="45.8335926" lon="13.7648147"><ele>276.75</ele><time>2026-04-06T13:35:40.019Z</time></trkpt><trkpt lat="45.8337247" lon="13.7648501"><ele>276.5</ele><time>2026-04-06T13:35:41.026Z</time></trkpt><trkpt lat="45.833858" lon="13.7648878"><ele>276.25</ele><time>2026-04-06T13:35:42.031Z</time></trkpt><trkpt lat="45.8339907" lon="13.7649211"><ele>276.0</ele><time>2026-04-06T13:35:43.034Z</time></trkpt><trkpt lat="45.8341211" lon="13.7649579"><ele>276.0</ele><time>2026-04-06T13:35:44.045Z</time></trkpt><trkpt lat="45.8342517" lon="13.7649943"><ele>276.0</ele><time>2026-04-06T13:35:45.045Z</time></trkpt><trkpt lat="45.8343813" lon="13.7650307"><ele>276.0</ele><time>2026-04-06T13:35:46.04Z</time></trkpt><trkpt lat="45.8345103" lon="13.7650672"><ele>276.0</ele><time>2026-04-06T13:35:47.041Z</time></trkpt><trkpt lat="45.8346443" lon="13.7651068"><ele>276.0</ele><time>2026-04-06T13:35:48.04Z</time></trkpt><trkpt lat="45.8347754" lon="13.7651514"><ele>276.0</ele><time>2026-04-06T13:35:49.046Z</time></trkpt><trkpt lat="45.8349053" lon="13.7651933"><ele>276.0</ele><time>2026-04-06T13:35:50.034Z</time></trkpt><trkpt lat="45.8350381" lon="13.7652309"><ele>276.0</ele><time>2026-04-06T13:35:51.027Z</time></trkpt><trkpt lat="45.835166" lon="13.7652724"><ele>275.5</ele><time>2026-04-06T13:35:52.027Z</time></trkpt><trkpt lat="45.8352907" lon="13.7653191"><ele>275.0</ele><time>2026-04-06T13:35:53.024Z</time></trkpt><trkpt lat="45.8354122" lon="13.7653581"><ele>274.5</ele><time>2026-04-06T13:35:54.028Z</time></trkpt><trkpt lat="45.8355297" lon="13.765395"><ele>274.0</ele><time>2026-04-06T13:35:55.032Z</time></trkpt><trkpt lat="45.8356462" lon="13.7654336"><ele>274.0</ele><time>2026-04-06T13:35:56.031Z</time></trkpt><trkpt lat="45.8357607" lon="13.7654749"><ele>274.0</ele><time>2026-04-06T13:35:57.031Z</time></trkpt><trkpt lat="45.8358746" lon="13.7655192"><ele>274.0</ele><time>2026-04-06T13:35:58.031Z</time></trkpt><trkpt lat="45.8359843" lon="13.7655583"><ele>274.0</ele><time>2026-04-06T13:35:59.035Z</time></trkpt><trkpt lat="45.8360895" lon="13.7655852"><ele>275.0</ele><time>2026-04-06T13:36:00.036Z</time></trkpt><trkpt lat="45.8361872" lon="13.7656081"><ele>276.0</ele><time>2026-04-06T13:36:01.039Z</time></trkpt><trkpt lat="45.8362842" lon="13.7656375"><ele>277.0</ele><time>2026-04-06T13:36:02.036Z</time></trkpt><trkpt lat="45.8363798" lon="13.7656643"><ele>278.0</ele><time>2026-04-06T13:36:03.03Z</time></trkpt><trkpt lat="45.8364885" lon="13.7656951"><ele>279.0</ele><time>2026-04-06T13:36:04.036Z</time></trkpt><trkpt lat="45.8365949" lon="13.7657293"><ele>279.0</ele><time>2026-04-06T13:36:05.033Z</time></trkpt><trkpt lat="45.8366993" lon="13.7657629"><ele>279.0</ele><time>2026-04-06T13:36:06.033Z</time></trkpt><trkpt lat="45.8367976" lon="13.7658016"><ele>279.0</ele><time>2026-04-06T13:36:07.03Z</time></trkpt><trkpt lat="45.8368933" lon="13.7658212"><ele>279.0</ele><time>2026-04-06T13:36:08.027Z</time></trkpt><trkpt lat="45.8369935" lon="13.7658429"><ele>279.0</ele><time>2026-04-06T13:36:09.034Z</time></trkpt><trkpt lat="45.8370934" lon="13.765868"><ele>280.0</ele><time>2026-04-06T13:36:10.029Z</time></trkpt><trkpt lat="45.8371979" lon="13.7658911"><ele>281.0</ele><time>2026-04-06T13:36:11.036Z</time></trkpt><trkpt lat="45.8373043" lon="13.7659172"><ele>282.0</ele><time>2026-04-06T13:36:12.024Z</time></trkpt><trkpt lat="45.8374127" lon="13.7659468"><ele>283.0</ele><time>2026-04-06T13:36:13.031Z</time></trkpt><trkpt lat="45.8375084" lon="13.7659796"><ele>284.0</ele><time>2026-04-06T13:36:14.029Z</time></trkpt><trkpt lat="45.8375999" lon="13.7660012"><ele>284.1666666666667</ele><time>2026-04-06T13:36:15.028Z</time></trkpt><trkpt lat="45.8376813" lon="13.7660167"><ele>284.33333333333337</ele><time>2026-04-06T13:36:16.035Z</time></trkpt><trkpt lat="45.8377628" lon="13.7660305"><ele>284.5</ele><time>2026-04-06T13:36:17.031Z</time></trkpt><trkpt lat="45.8378286" lon="13.7660558"><ele>284.6666666666667</ele><time>2026-04-06T13:36:18.028Z</time></trkpt><trkpt lat="45.8379143" lon="13.7661647"><ele>284.8333333333333</ele><time>2026-04-06T13:36:20.011Z</time></trkpt><trkpt lat="45.8379647" lon="13.7662401"><ele>285.0</ele><time>2026-04-06T13:36:21.032Z</time></trkpt><trkpt lat="45.8380275" lon="13.7663337"><ele>285.0</ele><time>2026-04-06T13:36:22.019Z</time></trkpt><trkpt lat="45.8380972" lon="13.7664217"><ele>285.0</ele><time>2026-04-06T13:36:23.026Z</time></trkpt><trkpt lat="45.8381744" lon="13.7665221"><ele>285.0</ele><time>2026-04-06T13:36:24.023Z</time></trkpt><trkpt lat="45.8382519" lon="13.7666365"><ele>285.0</ele><time>2026-04-06T13:36:25.023Z</time></trkpt><trkpt lat="45.8383318" lon="13.766758"><ele>285.0</ele><time>2026-04-06T13:36:26.008Z</time></trkpt><trkpt lat="45.8384105" lon="13.7668745"><ele>284.5</ele><time>2026-04-06T13:36:27.014Z</time></trkpt><trkpt lat="45.8384918" lon="13.7669953"><ele>284.0</ele><time>2026-04-06T13:36:28.021Z</time></trkpt><trkpt lat="45.8385713" lon="13.7671228"><ele>283.5</ele><time>2026-04-06T13:36:29.01Z</time></trkpt><trkpt lat="45.8386514" lon="13.7672467"><ele>283.0</ele><time>2026-04-06T13:36:30.017Z</time></trkpt><trkpt lat="45.8387215" lon="13.7673749"><ele>283.0</ele><time>2026-04-06T13:36:31.017Z</time></trkpt><trkpt lat="45.8387902" lon="13.7675032"><ele>283.0</ele><time>2026-04-06T13:36:32.017Z</time></trkpt><trkpt lat="45.8388441" lon="13.7676365"><ele>283.0</ele><time>2026-04-06T13:36:33.016Z</time></trkpt><trkpt lat="45.8388963" lon="13.7677805"><ele>283.0</ele><time>2026-04-06T13:36:34.013Z</time></trkpt><trkpt lat="45.8389503" lon="13.7679182"><ele>283.0</ele><time>2026-04-06T13:36:35.021Z</time></trkpt><trkpt lat="45.8389867" lon="13.768064"><ele>282.0</ele><time>2026-04-06T13:36:36.02Z</time></trkpt><trkpt lat="45.8390151" lon="13.768197"><ele>281.0</ele><time>2026-04-06T13:36:37.019Z</time></trkpt><trkpt lat="45.8390362" lon="13.7683367"><ele>280.0</ele><time>2026-04-06T13:36:38.019Z</time></trkpt><trkpt lat="45.8390467" lon="13.7684812"><ele>279.0</ele><time>2026-04-06T13:36:39.021Z</time></trkpt><trkpt lat="45.8390488" lon="13.7686217"><ele>278.0</ele><time>2026-04-06T13:36:40.015Z</time></trkpt><trkpt lat="45.8390342" lon="13.7687553"><ele>277.2</ele><time>2026-04-06T13:36:41.01Z</time></trkpt><trkpt lat="45.8390199" lon="13.7688944"><ele>276.4</ele><time>2026-04-06T13:36:42.031Z</time></trkpt><trkpt lat="45.8390031" lon="13.7690264"><ele>275.59999999999997</ele><time>2026-04-06T13:36:43.017Z</time></trkpt><trkpt lat="45.8390045" lon="13.7691655"><ele>274.8</ele><time>2026-04-06T13:36:44.008Z</time></trkpt><trkpt lat="45.8390211" lon="13.7693192"><ele>274.0</ele><time>2026-04-06T13:36:45.015Z</time></trkpt><trkpt lat="45.8390448" lon="13.7694802"><ele>274.0</ele><time>2026-04-06T13:36:46.012Z</time></trkpt><trkpt lat="45.839059" lon="13.7696619"><ele>274.0</ele><time>2026-04-06T13:36:47.005Z</time></trkpt><trkpt lat="45.839065" lon="13.7698332"><ele>274.0</ele><time>2026-04-06T13:36:48.019Z</time></trkpt><trkpt lat="45.8390808" lon="13.7699996"><ele>274.0</ele><time>2026-04-06T13:36:49.003Z</time></trkpt><trkpt lat="45.8391064" lon="13.7701341"><ele>275.16666666666663</ele><time>2026-04-06T13:36:50.008Z</time></trkpt><trkpt lat="45.8391306" lon="13.770263"><ele>276.3333333333333</ele><time>2026-04-06T13:36:51.002Z</time></trkpt><trkpt lat="45.8391558" lon="13.7703798"><ele>277.5</ele><time>2026-04-06T13:36:52.013Z</time></trkpt><trkpt lat="45.839157" lon="13.7705038"><ele>278.6666666666667</ele><time>2026-04-06T13:36:54.004Z</time></trkpt><trkpt lat="45.8390952" lon="13.7705437"><ele>279.83333333333337</ele><time>2026-04-06T13:36:56.002Z</time></trkpt><trkpt lat="45.8390322" lon="13.7705426"><ele>281.0</ele><time>2026-04-06T13:36:57.003Z</time></trkpt><trkpt lat="45.8389117" lon="13.7706083"><ele>281.0</ele><time>2026-04-06T13:36:59.017Z</time></trkpt><trkpt lat="45.8388552" lon="13.7706811"><ele>281.0</ele><time>2026-04-06T13:37:00.008Z</time></trkpt><trkpt lat="45.8387953" lon="13.7707841"><ele>281.0</ele><time>2026-04-06T13:37:01.005Z</time></trkpt><trkpt lat="45.8387309" lon="13.7709016"><ele>281.0</ele><time>2026-04-06T13:37:02.004Z</time></trkpt><trkpt lat="45.8386687" lon="13.7710031"><ele>281.0</ele><time>2026-04-06T13:37:03.006Z</time></trkpt><trkpt lat="45.8385935" lon="13.7710736"><ele>283.8</ele><time>2026-04-06T13:37:04.001Z</time></trkpt><trkpt lat="45.8385034" lon="13.7711292"><ele>286.6</ele><time>2026-04-06T13:37:04.99Z</time></trkpt><trkpt lat="45.8384049" lon="13.7711758"><ele>289.4</ele><time>2026-04-06T13:37:06.006Z</time></trkpt><trkpt lat="45.838302" lon="13.7712326"><ele>292.2</ele><time>2026-04-06T13:37:07.007Z</time></trkpt><trkpt lat="45.838203" lon="13.7712906"><ele>295.0</ele><time>2026-04-06T13:37:08.004Z</time></trkpt><trkpt lat="45.8381061" lon="13.7713475"><ele>295.0</ele><time>2026-04-06T13:37:09.008Z</time></trkpt><trkpt lat="45.8380157" lon="13.7714376"><ele>295.0</ele><time>2026-04-06T13:37:10.004Z</time></trkpt><trkpt lat="45.8379354" lon="13.7715267"><ele>295.0</ele><time>2026-04-06T13:37:11.003Z</time></trkpt><trkpt lat="45.8378555" lon="13.7716097"><ele>295.0</ele><time>2026-04-06T13:37:12.002Z</time></trkpt><trkpt lat="45.8377683" lon="13.7716743"><ele>295.0</ele><time>2026-04-06T13:37:13.005Z</time></trkpt><trkpt lat="45.8376741" lon="13.7717418"><ele>294.4</ele><time>2026-04-06T13:37:13.993Z</time></trkpt><trkpt lat="45.8375631" lon="13.7717914"><ele>293.8</ele><time>2026-04-06T13:37:14.995Z</time></trkpt><trkpt lat="45.8374523" lon="13.7718264"><ele>293.2</ele><time>2026-04-06T13:37:16.003Z</time></trkpt><trkpt lat="45.8373453" lon="13.7718438"><ele>292.6</ele><time>2026-04-06T13:37:17.004Z</time></trkpt><trkpt lat="45.8372424" lon="13.7718321"><ele>292.0</ele><time>2026-04-06T13:37:17.998Z</time></trkpt><trkpt lat="45.8371394" lon="13.7718173"><ele>292.0</ele><time>2026-04-06T13:37:18.995Z</time></trkpt><trkpt lat="45.8370515" lon="13.7718044"><ele>292.0</ele><time>2026-04-06T13:37:19.998Z</time></trkpt><trkpt lat="45.8369759" lon="13.7718024"><ele>292.0</ele><time>2026-04-06T13:37:21.01Z</time></trkpt><trkpt lat="45.8368953" lon="13.7718336"><ele>292.0</ele><time>2026-04-06T13:37:21.995Z</time></trkpt><trkpt lat="45.8368263" lon="13.7718992"><ele>292.0</ele><time>2026-04-06T13:37:23.001Z</time></trkpt><trkpt lat="45.8367574" lon="13.7719728"><ele>292.0</ele><time>2026-04-06T13:37:24.002Z</time></trkpt><trkpt lat="45.8366708" lon="13.7720364"><ele>292.6</ele><time>2026-04-06T13:37:25.005Z</time></trkpt><trkpt lat="45.8365702" lon="13.7720948"><ele>293.2</ele><time>2026-04-06T13:37:26.003Z</time></trkpt><trkpt lat="45.83647" lon="13.7721482"><ele>293.8</ele><time>2026-04-06T13:37:26.995Z</time></trkpt><trkpt lat="45.8363691" lon="13.7722084"><ele>294.4</ele><time>2026-04-06T13:37:28.014Z</time></trkpt><trkpt lat="45.8362684" lon="13.772264"><ele>295.0</ele><time>2026-04-06T13:37:29.001Z</time></trkpt><trkpt lat="45.8361759" lon="13.7723016"><ele>295.00000000000006</ele><time>2026-04-06T13:37:30.004Z</time></trkpt><trkpt lat="45.8360961" lon="13.7723336"><ele>295.0</ele><time>2026-04-06T13:37:31.003Z</time></trkpt><trkpt lat="45.8360292" lon="13.772376"><ele>295.0</ele><time>2026-04-06T13:37:32Z</time></trkpt><trkpt lat="45.8359785" lon="13.7724333"><ele>295.0</ele><time>2026-04-06T13:37:33.033Z</time></trkpt><trkpt lat="45.8359492" lon="13.7725175"><ele>295.0</ele><time>2026-04-06T13:37:34.001Z</time></trkpt><trkpt lat="45.8359258" lon="13.7726278"><ele>295.00000000000006</ele><time>2026-04-06T13:37:35Z</time></trkpt><trkpt lat="45.8359035" lon="13.7727424"><ele>295.0</ele><time>2026-04-06T13:37:36.002Z</time></trkpt><trkpt lat="45.8358679" lon="13.772853"><ele>296.66666666666663</ele><time>2026-04-06T13:37:37.014Z</time></trkpt><trkpt lat="45.8358225" lon="13.772952"><ele>298.3333333333333</ele><time>2026-04-06T13:37:38.014Z</time></trkpt><trkpt lat="45.8357751" lon="13.7730403"><ele>300.0</ele><time>2026-04-06T13:37:39.013Z</time></trkpt><trkpt lat="45.8357272" lon="13.7731067"><ele>301.6666666666667</ele><time>2026-04-06T13:37:40.005Z</time></trkpt><trkpt lat="45.8356147" lon="13.7731933"><ele>303.33333333333337</ele><time>2026-04-06T13:37:42.005Z</time></trkpt><trkpt lat="45.8355396" lon="13.7732593"><ele>305.0</ele><time>2026-04-06T13:37:43.001Z</time></trkpt><trkpt lat="45.8354364" lon="13.7733297"><ele>305.0</ele><time>2026-04-06T13:37:43.996Z</time></trkpt><trkpt lat="45.8353297" lon="13.773405"><ele>305.0</ele><time>2026-04-06T13:37:44.998Z</time></trkpt><trkpt lat="45.8352216" lon="13.7734758"><ele>305.0</ele><time>2026-04-06T13:37:45.996Z</time></trkpt><trkpt lat="45.8351067" lon="13.7735414"><ele>305.0</ele><time>2026-04-06T13:37:46.996Z</time></trkpt><trkpt lat="45.8349928" lon="13.7736076"><ele>305.0</ele><time>2026-04-06T13:37:48.008Z</time></trkpt><trkpt lat="45.8348794" lon="13.7736795"><ele>305.0</ele><time>2026-04-06T13:37:49.004Z</time></trkpt><trkpt lat="45.8347678" lon="13.7737557"><ele>305.0</ele><time>2026-04-06T13:37:49.998Z</time></trkpt><trkpt lat="45.8346616" lon="13.773831"><ele>305.0</ele><time>2026-04-06T13:37:51.001Z</time></trkpt><trkpt lat="45.8345628" lon="13.7739037"><ele>305.0</ele><time>2026-04-06T13:37:52.008Z</time></trkpt><trkpt lat="45.834464" lon="13.7739683"><ele>305.0</ele><time>2026-04-06T13:37:52.998Z</time></trkpt><trkpt lat="45.8343754" lon="13.7740008"><ele>305.0</ele><time>2026-04-06T13:37:54.019Z</time></trkpt><trkpt lat="45.834278" lon="13.7740083"><ele>305.0</ele><time>2026-04-06T13:37:55.009Z</time></trkpt><trkpt lat="45.8341795" lon="13.7740086"><ele>305.0</ele><time>2026-04-06T13:37:55.994Z</time></trkpt><trkpt lat="45.8340708" lon="13.7740199"><ele>303.75</ele><time>2026-04-06T13:37:57.002Z</time></trkpt><trkpt lat="45.8339625" lon="13.7740353"><ele>302.5</ele><time>2026-04-06T13:37:58.01Z</time></trkpt><trkpt lat="45.8338493" lon="13.7740504"><ele>301.25</ele><time>2026-04-06T13:37:59.015Z</time></trkpt><trkpt lat="45.8337393" lon="13.7740622"><ele>300.0</ele><time>2026-04-06T13:38:00.01Z</time></trkpt><trkpt lat="45.8336219" lon="13.7740822"><ele>300.0</ele><time>2026-04-06T13:38:01.014Z</time></trkpt><trkpt lat="45.8334981" lon="13.7741021"><ele>300.0</ele><time>2026-04-06T13:38:02.007Z</time></trkpt><trkpt lat="45.8333758" lon="13.7741202"><ele>300.0</ele><time>2026-04-06T13:38:03.004Z</time></trkpt><trkpt lat="45.8332517" lon="13.7741407"><ele>300.0</ele><time>2026-04-06T13:38:04.003Z</time></trkpt><trkpt lat="45.8331282" lon="13.7741594"><ele>299.25</ele><time>2026-04-06T13:38:05.001Z</time></trkpt><trkpt lat="45.8330024" lon="13.7741784"><ele>298.5</ele><time>2026-04-06T13:38:05.998Z</time></trkpt><trkpt lat="45.8328764" lon="13.7742038"><ele>297.75</ele><time>2026-04-06T13:38:06.998Z</time></trkpt><trkpt lat="45.8327453" lon="13.7742261"><ele>297.0</ele><time>2026-04-06T13:38:08.002Z</time></trkpt><trkpt lat="45.8326168" lon="13.7742422"><ele>295.5</ele><time>2026-04-06T13:38:09.004Z</time></trkpt><trkpt lat="45.8324889" lon="13.7742662"><ele>294.0</ele><time>2026-04-06T13:38:09.996Z</time></trkpt><trkpt lat="45.8323614" lon="13.7742908"><ele>292.5</ele><time>2026-04-06T13:38:11.002Z</time></trkpt><trkpt lat="45.8322321" lon="13.7743121"><ele>291.0</ele><time>2026-04-06T13:38:12.003Z</time></trkpt><trkpt lat="45.8321101" lon="13.7743357"><ele>291.0</ele><time>2026-04-06T13:38:13.014Z</time></trkpt><trkpt lat="45.8319847" lon="13.7743541"><ele>291.0</ele><time>2026-04-06T13:38:14.006Z</time></trkpt><trkpt lat="45.8318645" lon="13.7743755"><ele>291.0</ele><time>2026-04-06T13:38:15.031Z</time></trkpt><trkpt lat="45.8317499" lon="13.7743877"><ele>291.0</ele><time>2026-04-06T13:38:16.001Z</time></trkpt><trkpt lat="45.8316368" lon="13.7744033"><ele>291.75</ele><time>2026-04-06T13:38:17.018Z</time></trkpt><trkpt lat="45.8315182" lon="13.7744199"><ele>292.5</ele><time>2026-04-06T13:38:18.007Z</time></trkpt><trkpt lat="45.8313967" lon="13.7744347"><ele>293.25</ele><time>2026-04-06T13:38:19.007Z</time></trkpt><trkpt lat="45.8312709" lon="13.7744492"><ele>294.0</ele><time>2026-04-06T13:38:20.014Z</time></trkpt><trkpt lat="45.8311436" lon="13.7744707"><ele>294.0</ele><time>2026-04-06T13:38:20.998Z</time></trkpt><trkpt lat="45.8310211" lon="13.7744888"><ele>294.0</ele><time>2026-04-06T13:38:22.003Z</time></trkpt><trkpt lat="45.830899" lon="13.7745169"><ele>294.0</ele><time>2026-04-06T13:38:23.014Z</time></trkpt><trkpt lat="45.8307778" lon="13.7745416"><ele>294.0</ele><time>2026-04-06T13:38:24.012Z</time></trkpt><trkpt lat="45.8306547" lon="13.7745565"><ele>293.5</ele><time>2026-04-06T13:38:25.023Z</time></trkpt><trkpt lat="45.8305309" lon="13.7745442"><ele>293.0</ele><time>2026-04-06T13:38:26.005Z</time></trkpt><trkpt lat="45.8304124" lon="13.7745227"><ele>292.5</ele><time>2026-04-06T13:38:27.005Z</time></trkpt><trkpt lat="45.8302913" lon="13.7744983"><ele>292.0</ele><time>2026-04-06T13:38:28.009Z</time></trkpt><trkpt lat="45.830173" lon="13.7744753"><ele>292.2</ele><time>2026-04-06T13:38:29.006Z</time></trkpt><trkpt lat="45.8300569" lon="13.7744603"><ele>292.4</ele><time>2026-04-06T13:38:30.012Z</time></trkpt><trkpt lat="45.8299467" lon="13.7744445"><ele>292.6</ele><time>2026-04-06T13:38:31.005Z</time></trkpt><trkpt lat="45.8298443" lon="13.7744252"><ele>292.8</ele><time>2026-04-06T13:38:32.015Z</time></trkpt><trkpt lat="45.8297516" lon="13.774405"><ele>293.0</ele><time>2026-04-06T13:38:33.01Z</time></trkpt><trkpt lat="45.8296623" lon="13.7743878"><ele>293.0</ele><time>2026-04-06T13:38:34.017Z</time></trkpt><trkpt lat="45.8295761" lon="13.7743668"><ele>293.0</ele><time>2026-04-06T13:38:35.019Z</time></trkpt><trkpt lat="45.8294993" lon="13.7743324"><ele>293.0</ele><time>2026-04-06T13:38:36.013Z</time></trkpt><trkpt lat="45.829424" lon="13.7743055"><ele>293.0</ele><time>2026-04-06T13:38:37.007Z</time></trkpt><trkpt lat="45.8293462" lon="13.7742984"><ele>293.0</ele><time>2026-04-06T13:38:38.012Z</time></trkpt><trkpt lat="45.8292743" lon="13.77429"><ele>293.0</ele><time>2026-04-06T13:38:39.011Z</time></trkpt><trkpt lat="45.829209" lon="13.7742768"><ele>292.1666666666667</ele><time>2026-04-06T13:38:40.017Z</time></trkpt><trkpt lat="45.8291403" lon="13.7742507"><ele>291.33333333333337</ele><time>2026-04-06T13:38:41.016Z</time></trkpt><trkpt lat="45.8290663" lon="13.7742109"><ele>290.5</ele><time>2026-04-06T13:38:42.004Z</time></trkpt><trkpt lat="45.8289814" lon="13.7741666"><ele>289.6666666666667</ele><time>2026-04-06T13:38:43.016Z</time></trkpt><trkpt lat="45.8288909" lon="13.7741418"><ele>288.8333333333333</ele><time>2026-04-06T13:38:44.009Z</time></trkpt><trkpt lat="45.8288097" lon="13.7741255"><ele>288.0</ele><time>2026-04-06T13:38:45.011Z</time></trkpt><trkpt lat="45.8287242" lon="13.7741079"><ele>288.0</ele><time>2026-04-06T13:38:46.025Z</time></trkpt><trkpt lat="45.8286271" lon="13.774121"><ele>288.0</ele><time>2026-04-06T13:38:47.005Z</time></trkpt><trkpt lat="45.82854" lon="13.7741685"><ele>288.0</ele><time>2026-04-06T13:38:48.003Z</time></trkpt><trkpt lat="45.8284526" lon="13.7742228"><ele>288.0</ele><time>2026-04-06T13:38:48.995Z</time></trkpt><trkpt lat="45.8283679" lon="13.7742785"><ele>288.0</ele><time>2026-04-06T13:38:50.006Z</time></trkpt><trkpt lat="45.8282742" lon="13.7743386"><ele>287.6</ele><time>2026-04-06T13:38:51.007Z</time></trkpt><trkpt lat="45.8281827" lon="13.774412"><ele>287.20000000000005</ele><time>2026-04-06T13:38:52.003Z</time></trkpt><trkpt lat="45.8280941" lon="13.7744884"><ele>286.8</ele><time>2026-04-06T13:38:53.008Z</time></trkpt><trkpt lat="45.8280014" lon="13.7745638"><ele>286.40000000000003</ele><time>2026-04-06T13:38:54.006Z</time></trkpt><trkpt lat="45.8279145" lon="13.7746375"><ele>286.0</ele><time>2026-04-06T13:38:55.009Z</time></trkpt><trkpt lat="45.827831" lon="13.7747022"><ele>286.0</ele><time>2026-04-06T13:38:56.002Z</time></trkpt><trkpt lat="45.8277546" lon="13.7747538"><ele>286.0</ele><time>2026-04-06T13:38:57.004Z</time></trkpt><trkpt lat="45.8276747" lon="13.7747928"><ele>286.0</ele><time>2026-04-06T13:38:58.006Z</time></trkpt><trkpt lat="45.8275946" lon="13.7748135"><ele>286.0</ele><time>2026-04-06T13:38:59.009Z</time></trkpt><trkpt lat="45.8275175" lon="13.7748182"><ele>286.0</ele><time>2026-04-06T13:39:00.016Z</time></trkpt><trkpt lat="45.8274352" lon="13.7748317"><ele>286.0</ele><time>2026-04-06T13:39:01.003Z</time></trkpt><trkpt lat="45.8273635" lon="13.7748646"><ele>284.66666666666663</ele><time>2026-04-06T13:39:02.002Z</time></trkpt><trkpt lat="45.8272858" lon="13.7749029"><ele>283.3333333333333</ele><time>2026-04-06T13:39:02.999Z</time></trkpt><trkpt lat="45.8272025" lon="13.7749339"><ele>282.0</ele><time>2026-04-06T13:39:04.002Z</time></trkpt><trkpt lat="45.8271187" lon="13.7749659"><ele>280.6666666666667</ele><time>2026-04-06T13:39:04.999Z</time></trkpt><trkpt lat="45.8270331" lon="13.7749923"><ele>279.33333333333337</ele><time>2026-04-06T13:39:06.009Z</time></trkpt><trkpt lat="45.8269525" lon="13.7750322"><ele>278.0</ele><time>2026-04-06T13:39:06.997Z</time></trkpt><trkpt lat="45.8268706" lon="13.7751008"><ele>277.6666666666667</ele><time>2026-04-06T13:39:08Z</time></trkpt><trkpt lat="45.8267853" lon="13.7751785"><ele>277.33333333333337</ele><time>2026-04-06T13:39:08.995Z</time></trkpt><trkpt lat="45.8267042" lon="13.7752531"><ele>277.0</ele><time>2026-04-06T13:39:10.002Z</time></trkpt><trkpt lat="45.8266278" lon="13.7753168"><ele>276.6666666666667</ele><time>2026-04-06T13:39:11.007Z</time></trkpt><trkpt lat="45.8265646" lon="13.7753554"><ele>276.3333333333333</ele><time>2026-04-06T13:39:12.009Z</time></trkpt><trkpt lat="45.8265008" lon="13.7753942"><ele>276.0</ele><time>2026-04-06T13:39:13.013Z</time></trkpt><trkpt lat="45.8264337" lon="13.7754229"><ele>276.0</ele><time>2026-04-06T13:39:13.999Z</time></trkpt><trkpt lat="45.8263666" lon="13.7754369"><ele>276.0</ele><time>2026-04-06T13:39:15.001Z</time></trkpt><trkpt lat="45.8262994" lon="13.7754443"><ele>276.0</ele><time>2026-04-06T13:39:15.998Z</time></trkpt><trkpt lat="45.8262321" lon="13.7754348"><ele>276.0</ele><time>2026-04-06T13:39:17Z</time></trkpt><trkpt lat="45.8261736" lon="13.7753865"><ele>276.0</ele><time>2026-04-06T13:39:18.002Z</time></trkpt><trkpt lat="45.8261149" lon="13.7753421"><ele>276.0</ele><time>2026-04-06T13:39:18.995Z</time></trkpt><trkpt lat="45.8260487" lon="13.7752997"><ele>276.0</ele><time>2026-04-06T13:39:19.993Z</time></trkpt><trkpt lat="45.8259744" lon="13.7752446"><ele>276.0</ele><time>2026-04-06T13:39:20.994Z</time></trkpt><trkpt lat="45.8259001" lon="13.7751891"><ele>276.0</ele><time>2026-04-06T13:39:21.992Z</time></trkpt><trkpt lat="45.8258406" lon="13.7751347"><ele>276.0</ele><time>2026-04-06T13:39:23.014Z</time></trkpt><trkpt lat="45.8257605" lon="13.7751131"><ele>276.0</ele><time>2026-04-06T13:39:24.997Z</time></trkpt><trkpt lat="45.8256785" lon="13.7752666"><ele>276.0</ele><time>2026-04-06T13:39:27.995Z</time></trkpt><trkpt lat="45.8256395" lon="13.7754284"><ele>276.0</ele><time>2026-04-06T13:39:28.997Z</time></trkpt><trkpt lat="45.8255999" lon="13.7755916"><ele>276.0</ele><time>2026-04-06T13:39:30.01Z</time></trkpt><trkpt lat="45.8255656" lon="13.7757636"><ele>276.0</ele><time>2026-04-06T13:39:30.997Z</time></trkpt><trkpt lat="45.8255317" lon="13.7759472"><ele>276.0</ele><time>2026-04-06T13:39:31.994Z</time></trkpt><trkpt lat="45.8254878" lon="13.7761335"><ele>276.5</ele><time>2026-04-06T13:39:33.003Z</time></trkpt><trkpt lat="45.8254345" lon="13.7763269"><ele>277.0</ele><time>2026-04-06T13:39:33.992Z</time></trkpt><trkpt lat="45.8253825" lon="13.7765232"><ele>277.5</ele><time>2026-04-06T13:39:35Z</time></trkpt><trkpt lat="45.8253306" lon="13.7767146"><ele>278.0</ele><time>2026-04-06T13:39:35.992Z</time></trkpt><trkpt lat="45.8252837" lon="13.7769048"><ele>278.25</ele><time>2026-04-06T13:39:37.013Z</time></trkpt><trkpt lat="45.8252349" lon="13.7770904"><ele>278.5</ele><time>2026-04-06T13:39:38.003Z</time></trkpt><trkpt lat="45.8251929" lon="13.7772703"><ele>278.75</ele><time>2026-04-06T13:39:38.995Z</time></trkpt><trkpt lat="45.8251427" lon="13.7774412"><ele>279.0</ele><time>2026-04-06T13:39:39.994Z</time></trkpt><trkpt lat="45.825097" lon="13.7775951"><ele>278.0</ele><time>2026-04-06T13:39:40.994Z</time></trkpt><trkpt lat="45.825055" lon="13.7777507"><ele>277.0</ele><time>2026-04-06T13:39:41.999Z</time></trkpt><trkpt lat="45.8250128" lon="13.7779034"><ele>276.0</ele><time>2026-04-06T13:39:43Z</time></trkpt><trkpt lat="45.8249658" lon="13.7780466"><ele>275.0</ele><time>2026-04-06T13:39:44Z</time></trkpt><trkpt lat="45.82491" lon="13.7781892"><ele>275.0</ele><time>2026-04-06T13:39:45.011Z</time></trkpt><trkpt lat="45.824846" lon="13.7783273"><ele>275.0</ele><time>2026-04-06T13:39:45.999Z</time></trkpt><trkpt lat="45.8247763" lon="13.7784626"><ele>275.0</ele><time>2026-04-06T13:39:47.004Z</time></trkpt><trkpt lat="45.8247063" lon="13.7786064"><ele>275.0</ele><time>2026-04-06T13:39:48.003Z</time></trkpt><trkpt lat="45.8246324" lon="13.7787457"><ele>275.0</ele><time>2026-04-06T13:39:48.994Z</time></trkpt><trkpt lat="45.824569" lon="13.7788778"><ele>275.0</ele><time>2026-04-06T13:39:49.999Z</time></trkpt><trkpt lat="45.8245121" lon="13.7790024"><ele>275.0</ele><time>2026-04-06T13:39:51.005Z</time></trkpt><trkpt lat="45.8244636" lon="13.7791188"><ele>275.0</ele><time>2026-04-06T13:39:52.019Z</time></trkpt><trkpt lat="45.8244388" lon="13.7792529"><ele>275.0</ele><time>2026-04-06T13:39:53.015Z</time></trkpt><trkpt lat="45.8244336" lon="13.7794084"><ele>275.75</ele><time>2026-04-06T13:39:54.003Z</time></trkpt><trkpt lat="45.8244235" lon="13.7795617"><ele>276.5</ele><time>2026-04-06T13:39:55.001Z</time></trkpt><trkpt lat="45.8244064" lon="13.7797255"><ele>277.25</ele><time>2026-04-06T13:39:56.007Z</time></trkpt><trkpt lat="45.8243819" lon="13.7799012"><ele>278.0</ele><time>2026-04-06T13:39:57.008Z</time></trkpt><trkpt lat="45.8243547" lon="13.7800783"><ele>278.0</ele><time>2026-04-06T13:39:58.015Z</time></trkpt><trkpt lat="45.824329" lon="13.7802518"><ele>278.0</ele><time>2026-04-06T13:39:59.005Z</time></trkpt><trkpt lat="45.8243069" lon="13.7804203"><ele>278.0</ele><time>2026-04-06T13:40:00.009Z</time></trkpt><trkpt lat="45.8242865" lon="13.7805863"><ele>278.0</ele><time>2026-04-06T13:40:01.012Z</time></trkpt><trkpt lat="45.8242649" lon="13.7807457"><ele>277.75</ele><time>2026-04-06T13:40:02.002Z</time></trkpt><trkpt lat="45.8242429" lon="13.7808969"><ele>277.5</ele><time>2026-04-06T13:40:02.993Z</time></trkpt><trkpt lat="45.824216" lon="13.7810546"><ele>277.25</ele><time>2026-04-06T13:40:04.003Z</time></trkpt><trkpt lat="45.8241863" lon="13.7812147"><ele>277.0</ele><time>2026-04-06T13:40:05.011Z</time></trkpt><trkpt lat="45.8241479" lon="13.7813755"><ele>277.0</ele><time>2026-04-06T13:40:06.009Z</time></trkpt><trkpt lat="45.824105" lon="13.7815285"><ele>277.0</ele><time>2026-04-06T13:40:07.011Z</time></trkpt><trkpt lat="45.8240691" lon="13.7816722"><ele>277.0</ele><time>2026-04-06T13:40:08.003Z</time></trkpt><trkpt lat="45.8240368" lon="13.7818098"><ele>277.0</ele><time>2026-04-06T13:40:09.006Z</time></trkpt><trkpt lat="45.8239894" lon="13.7819237"><ele>277.0</ele><time>2026-04-06T13:40:10.01Z</time></trkpt><trkpt lat="45.8239306" lon="13.782015"><ele>276.8</ele><time>2026-04-06T13:40:10.995Z</time></trkpt><trkpt lat="45.8238728" lon="13.7821068"><ele>276.6</ele><time>2026-04-06T13:40:12.006Z</time></trkpt><trkpt lat="45.8238305" lon="13.7822074"><ele>276.40000000000003</ele><time>2026-04-06T13:40:13.013Z</time></trkpt><trkpt lat="45.8238092" lon="13.782338"><ele>276.2</ele><time>2026-04-06T13:40:14.007Z</time></trkpt><trkpt lat="45.8237965" lon="13.7824843"><ele>276.0</ele><time>2026-04-06T13:40:14.997Z</time></trkpt><trkpt lat="45.8237926" lon="13.7826307"><ele>276.0</ele><time>2026-04-06T13:40:16.014Z</time></trkpt><trkpt lat="45.8237675" lon="13.7827756"><ele>276.0</ele><time>2026-04-06T13:40:17.004Z</time></trkpt><trkpt lat="45.8237366" lon="13.7828826"><ele>276.0</ele><time>2026-04-06T13:40:18.006Z</time></trkpt><trkpt lat="45.823711" lon="13.7829728"><ele>276.0</ele><time>2026-04-06T13:40:20.016Z</time></trkpt><trkpt lat="45.8236961" lon="13.7831299"><ele>276.0</ele><time>2026-04-06T13:40:22.036Z</time></trkpt><trkpt lat="45.8236962" lon="13.7832604"><ele>276.0</ele><time>2026-04-06T13:40:23.017Z</time></trkpt><trkpt lat="45.8236837" lon="13.7834341"><ele>276.0</ele><time>2026-04-06T13:40:24Z</time></trkpt><trkpt lat="45.8236859" lon="13.7836294"><ele>276.0</ele><time>2026-04-06T13:40:25.014Z</time></trkpt><trkpt lat="45.8236899" lon="13.7838294"><ele>276.0</ele><time>2026-04-06T13:40:26.003Z</time></trkpt><trkpt lat="45.8236878" lon="13.7840259"><ele>276.6</ele><time>2026-04-06T13:40:27.029Z</time></trkpt><trkpt lat="45.8236804" lon="13.7842061"><ele>277.20000000000005</ele><time>2026-04-06T13:40:28Z</time></trkpt><trkpt lat="45.8236742" lon="13.7843667"><ele>277.79999999999995</ele><time>2026-04-06T13:40:29.004Z</time></trkpt><trkpt lat="45.8236725" lon="13.7845054"><ele>278.4</ele><time>2026-04-06T13:40:30.003Z</time></trkpt><trkpt lat="45.8236705" lon="13.7846091"><ele>279.0</ele><time>2026-04-06T13:40:31.007Z</time></trkpt><trkpt lat="45.8236703" lon="13.7847796"><ele>279.4</ele><time>2026-04-06T13:40:33.011Z</time></trkpt><trkpt lat="45.8236935" lon="13.7849497"><ele>279.79999999999995</ele><time>2026-04-06T13:40:35.014Z</time></trkpt><trkpt lat="45.8236606" lon="13.7851429"><ele>280.20000000000005</ele><time>2026-04-06T13:40:37.028Z</time></trkpt><trkpt lat="45.8236285" lon="13.7852615"><ele>280.6</ele><time>2026-04-06T13:40:38.015Z</time></trkpt><trkpt lat="45.8235925" lon="13.7853972"><ele>281.0</ele><time>2026-04-06T13:40:39.016Z</time></trkpt><trkpt lat="45.8235636" lon="13.7855342"><ele>281.2</ele><time>2026-04-06T13:40:40.01Z</time></trkpt><trkpt lat="45.8235426" lon="13.7856669"><ele>281.40000000000003</ele><time>2026-04-06T13:40:41.015Z</time></trkpt><trkpt lat="45.8235175" lon="13.7857972"><ele>281.6</ele><time>2026-04-06T13:40:42.017Z</time></trkpt><trkpt lat="45.8234744" lon="13.7859149"><ele>281.8</ele><time>2026-04-06T13:40:43.017Z</time></trkpt><trkpt lat="45.8234228" lon="13.7860278"><ele>282.0</ele><time>2026-04-06T13:40:44.003Z</time></trkpt><trkpt lat="45.8233711" lon="13.7861385"><ele>281.2</ele><time>2026-04-06T13:40:45.018Z</time></trkpt><trkpt lat="45.8233215" lon="13.7862505"><ele>280.4</ele><time>2026-04-06T13:40:46.014Z</time></trkpt><trkpt lat="45.8232679" lon="13.7863669"><ele>279.6</ele><time>2026-04-06T13:40:47.01Z</time></trkpt><trkpt lat="45.8232156" lon="13.7864903"><ele>278.8</ele><time>2026-04-06T13:40:48.004Z</time></trkpt><trkpt lat="45.8231668" lon="13.7866151"><ele>278.0</ele><time>2026-04-06T13:40:49.007Z</time></trkpt><trkpt lat="45.8231202" lon="13.7867366"><ele>277.6</ele><time>2026-04-06T13:40:50.01Z</time></trkpt><trkpt lat="45.8230635" lon="13.7868581"><ele>277.20000000000005</ele><time>2026-04-06T13:40:51.005Z</time></trkpt><trkpt lat="45.8230009" lon="13.786966"><ele>276.8</ele><time>2026-04-06T13:40:52.015Z</time></trkpt><trkpt lat="45.8229394" lon="13.7870775"><ele>276.40000000000003</ele><time>2026-04-06T13:40:53.015Z</time></trkpt><trkpt lat="45.8228857" lon="13.7872071"><ele>276.0</ele><time>2026-04-06T13:40:54.014Z</time></trkpt><trkpt lat="45.8228329" lon="13.7873459"><ele>276.0</ele><time>2026-04-06T13:40:55.004Z</time></trkpt><trkpt lat="45.8227766" lon="13.7874846"><ele>276.0</ele><time>2026-04-06T13:40:55.998Z</time></trkpt><trkpt lat="45.8227194" lon="13.7876114"><ele>276.0</ele><time>2026-04-06T13:40:56.997Z</time></trkpt><trkpt lat="45.8226632" lon="13.7877413"><ele>276.0</ele><time>2026-04-06T13:40:58.003Z</time></trkpt><trkpt lat="45.8226105" lon="13.7878772"><ele>276.0</ele><time>2026-04-06T13:40:58.999Z</time></trkpt><trkpt lat="45.8225598" lon="13.7880175"><ele>276.2</ele><time>2026-04-06T13:41:00.001Z</time></trkpt><trkpt lat="45.8225176" lon="13.7881624"><ele>276.40000000000003</ele><time>2026-04-06T13:41:01.01Z</time></trkpt><trkpt lat="45.8224867" lon="13.7883049"><ele>276.6</ele><time>2026-04-06T13:41:02.019Z</time></trkpt><trkpt lat="45.8224543" lon="13.7884341"><ele>276.8</ele><time>2026-04-06T13:41:03.012Z</time></trkpt><trkpt lat="45.8224097" lon="13.7885466"><ele>277.0</ele><time>2026-04-06T13:41:04.014Z</time></trkpt><trkpt lat="45.8223661" lon="13.7886584"><ele>277.16666666666663</ele><time>2026-04-06T13:41:05.017Z</time></trkpt><trkpt lat="45.8223298" lon="13.7887662"><ele>277.3333333333333</ele><time>2026-04-06T13:41:06.004Z</time></trkpt><trkpt lat="45.8222841" lon="13.7888511"><ele>277.5</ele><time>2026-04-06T13:41:07.018Z</time></trkpt><trkpt lat="45.8222262" lon="13.7889131"><ele>277.6666666666667</ele><time>2026-04-06T13:41:07.997Z</time></trkpt><trkpt lat="45.8221831" lon="13.7890008"><ele>277.83333333333337</ele><time>2026-04-06T13:41:09.026Z</time></trkpt><trkpt lat="45.8221507" lon="13.7891179"><ele>278.0</ele><time>2026-04-06T13:41:10.02Z</time></trkpt><trkpt lat="45.8221278" lon="13.7892382"><ele>277.6</ele><time>2026-04-06T13:41:11.004Z</time></trkpt><trkpt lat="45.8220998" lon="13.7893636"><ele>277.20000000000005</ele><time>2026-04-06T13:41:12.015Z</time></trkpt><trkpt lat="45.8220656" lon="13.7894841"><ele>276.8</ele><time>2026-04-06T13:41:13.018Z</time></trkpt><trkpt lat="45.8220318" lon="13.7896102"><ele>276.40000000000003</ele><time>2026-04-06T13:41:14.004Z</time></trkpt><trkpt lat="45.8219974" lon="13.7897357"><ele>276.0</ele><time>2026-04-06T13:41:15.017Z</time></trkpt><trkpt lat="45.8219603" lon="13.7898559"><ele>276.0</ele><time>2026-04-06T13:41:16.006Z</time></trkpt><trkpt lat="45.8219232" lon="13.789972"><ele>276.0</ele><time>2026-04-06T13:41:17.011Z</time></trkpt><trkpt lat="45.8218951" lon="13.7901092"><ele>276.0</ele><time>2026-04-06T13:41:18.028Z</time></trkpt><trkpt lat="45.8218864" lon="13.7902572"><ele>276.0</ele><time>2026-04-06T13:41:19.015Z</time></trkpt><trkpt lat="45.8218729" lon="13.7904184"><ele>276.0</ele><time>2026-04-06T13:41:20.036Z</time></trkpt><trkpt lat="45.821855" lon="13.7905711"><ele>275.8</ele><time>2026-04-06T13:41:21.01Z</time></trkpt><trkpt lat="45.8218403" lon="13.7907104"><ele>275.6</ele><time>2026-04-06T13:41:22.018Z</time></trkpt><trkpt lat="45.8218243" lon="13.7908365"><ele>275.4</ele><time>2026-04-06T13:41:23.017Z</time></trkpt><trkpt lat="45.8218022" lon="13.790957"><ele>275.2</ele><time>2026-04-06T13:41:24.019Z</time></trkpt><trkpt lat="45.8217537" lon="13.7910672"><ele>275.0</ele><time>2026-04-06T13:41:25.017Z</time></trkpt><trkpt lat="45.8216977" lon="13.7911734"><ele>274.6</ele><time>2026-04-06T13:41:26.033Z</time></trkpt><trkpt lat="45.8216363" lon="13.7912908"><ele>274.2</ele><time>2026-04-06T13:41:27.012Z</time></trkpt><trkpt lat="45.8215771" lon="13.7914197"><ele>273.8</ele><time>2026-04-06T13:41:28.008Z</time></trkpt><trkpt lat="45.8215234" lon="13.7915494"><ele>273.4</ele><time>2026-04-06T13:41:29.01Z</time></trkpt><trkpt lat="45.8214752" lon="13.7916712"><ele>273.0</ele><time>2026-04-06T13:41:30.016Z</time></trkpt><trkpt lat="45.8214121" lon="13.7917811"><ele>273.8</ele><time>2026-04-06T13:41:31.014Z</time></trkpt><trkpt lat="45.8213416" lon="13.7918922"><ele>274.6</ele><time>2026-04-06T13:41:32.017Z</time></trkpt><trkpt lat="45.821283" lon="13.7920141"><ele>275.4</ele><time>2026-04-06T13:41:33.017Z</time></trkpt><trkpt lat="45.8212443" lon="13.7921472"><ele>276.2</ele><time>2026-04-06T13:41:34.016Z</time></trkpt><trkpt lat="45.8212151" lon="13.7922747"><ele>277.0</ele><time>2026-04-06T13:41:35.012Z</time></trkpt><trkpt lat="45.8211909" lon="13.7924005"><ele>277.0</ele><time>2026-04-06T13:41:36.029Z</time></trkpt><trkpt lat="45.8211806" lon="13.7925221"><ele>277.0</ele><time>2026-04-06T13:41:37.011Z</time></trkpt><trkpt lat="45.821186" lon="13.7926333"><ele>277.0</ele><time>2026-04-06T13:41:38.011Z</time></trkpt><trkpt lat="45.8211845" lon="13.7927351"><ele>277.0</ele><time>2026-04-06T13:41:39.011Z</time></trkpt><trkpt lat="45.8211654" lon="13.7928305"><ele>277.0</ele><time>2026-04-06T13:41:40.014Z</time></trkpt><trkpt lat="45.8211325" lon="13.7929314"><ele>277.0</ele><time>2026-04-06T13:41:41.018Z</time></trkpt><trkpt lat="45.8210878" lon="13.7930302"><ele>277.2</ele><time>2026-04-06T13:41:42.002Z</time></trkpt><trkpt lat="45.8210412" lon="13.7931419"><ele>277.4</ele><time>2026-04-06T13:41:43.01Z</time></trkpt><trkpt lat="45.8209891" lon="13.7932663"><ele>277.6</ele><time>2026-04-06T13:41:44.01Z</time></trkpt><trkpt lat="45.8209354" lon="13.7934018"><ele>277.8</ele><time>2026-04-06T13:41:45.008Z</time></trkpt><trkpt lat="45.8208892" lon="13.7935376"><ele>278.0</ele><time>2026-04-06T13:41:46.018Z</time></trkpt><trkpt lat="45.8208404" lon="13.7936754"><ele>278.2</ele><time>2026-04-06T13:41:47.027Z</time></trkpt><trkpt lat="45.8207977" lon="13.793821"><ele>278.4</ele><time>2026-04-06T13:41:48.012Z</time></trkpt><trkpt lat="45.8207607" lon="13.7939628"><ele>278.59999999999997</ele><time>2026-04-06T13:41:49.02Z</time></trkpt><trkpt lat="45.8207185" lon="13.7941013"><ele>278.8</ele><time>2026-04-06T13:41:50.01Z</time></trkpt><trkpt lat="45.8206744" lon="13.7942415"><ele>279.0</ele><time>2026-04-06T13:41:51.015Z</time></trkpt><trkpt lat="45.820636" lon="13.794372"><ele>279.0</ele><time>2026-04-06T13:41:52.009Z</time></trkpt><trkpt lat="45.8206015" lon="13.7944889"><ele>279.0</ele><time>2026-04-06T13:41:53.013Z</time></trkpt><trkpt lat="45.8205725" lon="13.7945967"><ele>279.0</ele><time>2026-04-06T13:41:54.013Z</time></trkpt><trkpt lat="45.8205295" lon="13.7946892"><ele>279.0</ele><time>2026-04-06T13:41:55.018Z</time></trkpt><trkpt lat="45.8204817" lon="13.7947719"><ele>279.0</ele><time>2026-04-06T13:41:56.022Z</time></trkpt><trkpt lat="45.82044" lon="13.7948641"><ele>279.0</ele><time>2026-04-06T13:41:57.02Z</time></trkpt><trkpt lat="45.820417" lon="13.7949685"><ele>279.0</ele><time>2026-04-06T13:41:58.014Z</time></trkpt><trkpt lat="45.8204189" lon="13.7950904"><ele>279.0</ele><time>2026-04-06T13:41:59.001Z</time></trkpt><trkpt lat="45.8204418" lon="13.7952196"><ele>279.0</ele><time>2026-04-06T13:42:00.011Z</time></trkpt><trkpt lat="45.8204682" lon="13.7953625"><ele>279.0</ele><time>2026-04-06T13:42:01Z</time></trkpt><trkpt lat="45.8205016" lon="13.7955138"><ele>279.0</ele><time>2026-04-06T13:42:02.006Z</time></trkpt><trkpt lat="45.8205326" lon="13.7956634"><ele>279.2</ele><time>2026-04-06T13:42:03.008Z</time></trkpt><trkpt lat="45.8205524" lon="13.7958103"><ele>279.4</ele><time>2026-04-06T13:42:04.016Z</time></trkpt><trkpt lat="45.8205598" lon="13.7959413"><ele>279.6</ele><time>2026-04-06T13:42:05.006Z</time></trkpt><trkpt lat="45.8205687" lon="13.7960654"><ele>279.8</ele><time>2026-04-06T13:42:06.008Z</time></trkpt><trkpt lat="45.8205823" lon="13.7961983"><ele>280.0</ele><time>2026-04-06T13:42:07.017Z</time></trkpt><trkpt lat="45.8205877" lon="13.7963357"><ele>280.6</ele><time>2026-04-06T13:42:08.009Z</time></trkpt><trkpt lat="45.8205766" lon="13.7964704"><ele>281.2</ele><time>2026-04-06T13:42:09.021Z</time></trkpt><trkpt lat="45.8205511" lon="13.796597"><ele>281.8</ele><time>2026-04-06T13:42:10.011Z</time></trkpt><trkpt lat="45.8205102" lon="13.7967299"><ele>282.4</ele><time>2026-04-06T13:42:11.01Z</time></trkpt><trkpt lat="45.8204691" lon="13.7968654"><ele>283.0</ele><time>2026-04-06T13:42:12.007Z</time></trkpt><trkpt lat="45.8204373" lon="13.7970086"><ele>283.0</ele><time>2026-04-06T13:42:13.003Z</time></trkpt><trkpt lat="45.8204125" lon="13.7971465"><ele>283.0</ele><time>2026-04-06T13:42:14.035Z</time></trkpt><trkpt lat="45.8203847" lon="13.7972776"><ele>283.0</ele><time>2026-04-06T13:42:15.018Z</time></trkpt><trkpt lat="45.8203361" lon="13.797408"><ele>283.0</ele><time>2026-04-06T13:42:16.014Z</time></trkpt><trkpt lat="45.8202686" lon="13.7975329"><ele>283.0</ele><time>2026-04-06T13:42:17.012Z</time></trkpt><trkpt lat="45.8201901" lon="13.7976453"><ele>282.25</ele><time>2026-04-06T13:42:18.026Z</time></trkpt><trkpt lat="45.8201033" lon="13.7977583"><ele>281.5</ele><time>2026-04-06T13:42:19.016Z</time></trkpt><trkpt lat="45.8200157" lon="13.7978789"><ele>280.75</ele><time>2026-04-06T13:42:20.026Z</time></trkpt><trkpt lat="45.8199278" lon="13.7980014"><ele>280.0</ele><time>2026-04-06T13:42:21.017Z</time></trkpt><trkpt lat="45.8198453" lon="13.7981218"><ele>280.0</ele><time>2026-04-06T13:42:22.014Z</time></trkpt><trkpt lat="45.819776" lon="13.7982415"><ele>280.0</ele><time>2026-04-06T13:42:23.019Z</time></trkpt><trkpt lat="45.8197031" lon="13.7983422"><ele>280.0</ele><time>2026-04-06T13:42:24.012Z</time></trkpt><trkpt lat="45.8196332" lon="13.7984198"><ele>280.0</ele><time>2026-04-06T13:42:25.021Z</time></trkpt><trkpt lat="45.8195786" lon="13.7985091"><ele>280.0</ele><time>2026-04-06T13:42:26.012Z</time></trkpt><trkpt lat="45.8195456" lon="13.7986133"><ele>280.2</ele><time>2026-04-06T13:42:26.997Z</time></trkpt><trkpt lat="45.8195267" lon="13.7987419"><ele>280.4</ele><time>2026-04-06T13:42:27.997Z</time></trkpt><trkpt lat="45.8195118" lon="13.7988891"><ele>280.6</ele><time>2026-04-06T13:42:29.006Z</time></trkpt><trkpt lat="45.8195061" lon="13.7990416"><ele>280.8</ele><time>2026-04-06T13:42:30.027Z</time></trkpt><trkpt lat="45.8195006" lon="13.799172"><ele>281.0</ele><time>2026-04-06T13:42:31.012Z</time></trkpt><trkpt lat="45.8194876" lon="13.7992898"><ele>281.1666666666667</ele><time>2026-04-06T13:42:32.017Z</time></trkpt><trkpt lat="45.8194649" lon="13.7994012"><ele>281.33333333333337</ele><time>2026-04-06T13:42:33.011Z</time></trkpt><trkpt lat="45.8194369" lon="13.7995034"><ele>281.5</ele><time>2026-04-06T13:42:34.011Z</time></trkpt><trkpt lat="45.8193992" lon="13.7995895"><ele>281.6666666666667</ele><time>2026-04-06T13:42:35.019Z</time></trkpt><trkpt lat="45.8193421" lon="13.7996653"><ele>281.8333333333333</ele><time>2026-04-06T13:42:36.018Z</time></trkpt><trkpt lat="45.8192722" lon="13.799734"><ele>282.0</ele><time>2026-04-06T13:42:37.017Z</time></trkpt><trkpt lat="45.8191988" lon="13.7997913"><ele>282.0</ele><time>2026-04-06T13:42:38.002Z</time></trkpt><trkpt lat="45.819121" lon="13.7998267"><ele>282.0</ele><time>2026-04-06T13:42:39.006Z</time></trkpt><trkpt lat="45.8190442" lon="13.7998562"><ele>282.0</ele><time>2026-04-06T13:42:40.012Z</time></trkpt><trkpt lat="45.8189641" lon="13.7998895"><ele>282.0</ele><time>2026-04-06T13:42:41.027Z</time></trkpt><trkpt lat="45.8188793" lon="13.7999291"><ele>282.0</ele><time>2026-04-06T13:42:42.015Z</time></trkpt><trkpt lat="45.8188041" lon="13.7999936"><ele>282.0</ele><time>2026-04-06T13:42:43.049Z</time></trkpt><trkpt lat="45.818737" lon="13.8000723"><ele>282.4</ele><time>2026-04-06T13:42:44.006Z</time></trkpt><trkpt lat="45.818692" lon="13.8001752"><ele>282.79999999999995</ele><time>2026-04-06T13:42:45.003Z</time></trkpt><trkpt lat="45.8186539" lon="13.8002909"><ele>283.2</ele><time>2026-04-06T13:42:46.004Z</time></trkpt><trkpt lat="45.8186099" lon="13.8004103"><ele>283.59999999999997</ele><time>2026-04-06T13:42:47.032Z</time></trkpt><trkpt lat="45.8185582" lon="13.8005326"><ele>284.0</ele><time>2026-04-06T13:42:48.035Z</time></trkpt><trkpt lat="45.818504" lon="13.8006535"><ele>284.59999999999997</ele><time>2026-04-06T13:42:49.033Z</time></trkpt><trkpt lat="45.8184483" lon="13.8007779"><ele>285.2</ele><time>2026-04-06T13:42:50.013Z</time></trkpt><trkpt lat="45.8183933" lon="13.8008984"><ele>285.79999999999995</ele><time>2026-04-06T13:42:51.017Z</time></trkpt><trkpt lat="45.8183361" lon="13.8010166"><ele>286.4</ele><time>2026-04-06T13:42:52.021Z</time></trkpt><trkpt lat="45.818268" lon="13.8011215"><ele>287.0</ele><time>2026-04-06T13:42:53.025Z</time></trkpt><trkpt lat="45.8181899" lon="13.8012217"><ele>288.6</ele><time>2026-04-06T13:42:54.039Z</time></trkpt><trkpt lat="45.818111" lon="13.8013181"><ele>290.2</ele><time>2026-04-06T13:42:55.02Z</time></trkpt><trkpt lat="45.818044" lon="13.8014175"><ele>291.8</ele><time>2026-04-06T13:42:56.017Z</time></trkpt><trkpt lat="45.8180012" lon="13.8015233"><ele>293.4</ele><time>2026-04-06T13:42:57.02Z</time></trkpt><trkpt lat="45.8179853" lon="13.8016814"><ele>295.0</ele><time>2026-04-06T13:42:59.012Z</time></trkpt><trkpt lat="45.8180361" lon="13.8018765"><ele>295.5</ele><time>2026-04-06T13:43:01.003Z</time></trkpt><trkpt lat="45.8180698" lon="13.8019908"><ele>296.0</ele><time>2026-04-06T13:43:02.019Z</time></trkpt><trkpt lat="45.8180997" lon="13.8021121"><ele>296.5</ele><time>2026-04-06T13:43:03.015Z</time></trkpt><trkpt lat="45.8181268" lon="13.8022336"><ele>297.0</ele><time>2026-04-06T13:43:04.02Z</time></trkpt><trkpt lat="45.8181653" lon="13.8023446"><ele>297.5</ele><time>2026-04-06T13:43:05.028Z</time></trkpt><trkpt lat="45.8182135" lon="13.8024643"><ele>298.0</ele><time>2026-04-06T13:43:06.025Z</time></trkpt><trkpt lat="45.8182532" lon="13.8025973"><ele>299.0</ele><time>2026-04-06T13:43:07.035Z</time></trkpt><trkpt lat="45.8182913" lon="13.8027386"><ele>300.0</ele><time>2026-04-06T13:43:08.025Z</time></trkpt><trkpt lat="45.818317" lon="13.8028695"><ele>301.0</ele><time>2026-04-06T13:43:09.029Z</time></trkpt><trkpt lat="45.818334" lon="13.8029946"><ele>302.0</ele><time>2026-04-06T13:43:10.019Z</time></trkpt><trkpt lat="45.8183404" lon="13.8031038"><ele>303.0</ele><time>2026-04-06T13:43:11.028Z</time></trkpt><trkpt lat="45.8183339" lon="13.8032009"><ele>304.0</ele><time>2026-04-06T13:43:12.025Z</time></trkpt><trkpt lat="45.8183033" lon="13.8033613"><ele>304.0</ele><time>2026-04-06T13:43:14.046Z</time></trkpt><trkpt lat="45.8182768" lon="13.8034789"><ele>304.0</ele><time>2026-04-06T13:43:16.024Z</time></trkpt><trkpt lat="45.8182563" lon="13.8035813"><ele>304.0</ele><time>2026-04-06T13:43:18.022Z</time></trkpt><trkpt lat="45.8182434" lon="13.8037151"><ele>304.0</ele><time>2026-04-06T13:43:20.006Z</time></trkpt><trkpt lat="45.8182178" lon="13.8038724"><ele>304.0</ele><time>2026-04-06T13:43:22.032Z</time></trkpt><trkpt lat="45.8182005" lon="13.8040456"><ele>304.66666666666663</ele><time>2026-04-06T13:43:24.012Z</time></trkpt><trkpt lat="45.8181987" lon="13.804235"><ele>305.3333333333333</ele><time>2026-04-06T13:43:26.009Z</time></trkpt><trkpt lat="45.8182057" lon="13.8043294"><ele>306.0</ele><time>2026-04-06T13:43:27.01Z</time></trkpt><trkpt lat="45.8182138" lon="13.8044249"><ele>306.6666666666667</ele><time>2026-04-06T13:43:28.021Z</time></trkpt><trkpt lat="45.8182218" lon="13.8045255"><ele>307.33333333333337</ele><time>2026-04-06T13:43:29.022Z</time></trkpt><trkpt lat="45.8182305" lon="13.8046258"><ele>308.0</ele><time>2026-04-06T13:43:30.015Z</time></trkpt><trkpt lat="45.8182441" lon="13.804734"><ele>308.57142857142856</ele><time>2026-04-06T13:43:31.035Z</time></trkpt><trkpt lat="45.818249" lon="13.8048364"><ele>309.1428571428571</ele><time>2026-04-06T13:43:32.017Z</time></trkpt><trkpt lat="45.8182466" lon="13.8049447"><ele>309.7142857142857</ele><time>2026-04-06T13:43:33.038Z</time></trkpt><trkpt lat="45.81824" lon="13.805044"><ele>310.2857142857143</ele><time>2026-04-06T13:43:34.002Z</time></trkpt><trkpt lat="45.8182245" lon="13.8051389"><ele>310.85714285714283</ele><time>2026-04-06T13:43:35.014Z</time></trkpt><trkpt lat="45.8182039" lon="13.8052353"><ele>311.42857142857144</ele><time>2026-04-06T13:43:36.014Z</time></trkpt><trkpt lat="45.8181838" lon="13.8053316"><ele>312.0</ele><time>2026-04-06T13:43:37.023Z</time></trkpt><trkpt lat="45.818158" lon="13.8054272"><ele>312.0</ele><time>2026-04-06T13:43:38.015Z</time></trkpt><trkpt lat="45.8181309" lon="13.8055153"><ele>312.0</ele><time>2026-04-06T13:43:39.023Z</time></trkpt><trkpt lat="45.8180774" lon="13.8056721"><ele>312.0</ele><time>2026-04-06T13:43:41.017Z</time></trkpt><trkpt lat="45.8180283" lon="13.8058252"><ele>312.0</ele><time>2026-04-06T13:43:43.01Z</time></trkpt><trkpt lat="45.8179669" lon="13.8059351"><ele>312.0</ele><time>2026-04-06T13:43:45.02Z</time></trkpt><trkpt lat="45.8179297" lon="13.8060254"><ele>312.6666666666667</ele><time>2026-04-06T13:43:47.012Z</time></trkpt><trkpt lat="45.817956" lon="13.8061403"><ele>313.3333333333333</ele><time>2026-04-06T13:43:49.999Z</time></trkpt><trkpt lat="45.8180629" lon="13.8062004"><ele>314.0</ele><time>2026-04-06T13:43:52.014Z</time></trkpt><trkpt lat="45.8181265" lon="13.8062347"><ele>314.66666666666663</ele><time>2026-04-06T13:43:53.02Z</time></trkpt><trkpt lat="45.8181947" lon="13.8062811"><ele>315.3333333333333</ele><time>2026-04-06T13:43:54.016Z</time></trkpt><trkpt lat="45.8182612" lon="13.8063313"><ele>316.0</ele><time>2026-04-06T13:43:55.014Z</time></trkpt><trkpt lat="45.8183238" lon="13.8063961"><ele>316.0</ele><time>2026-04-06T13:43:56.02Z</time></trkpt><trkpt lat="45.8183774" lon="13.8064568"><ele>316.0</ele><time>2026-04-06T13:43:57.011Z</time></trkpt><trkpt lat="45.8184221" lon="13.8065319"><ele>316.0</ele><time>2026-04-06T13:43:58.012Z</time></trkpt><trkpt lat="45.8184603" lon="13.8066156"><ele>316.0</ele><time>2026-04-06T13:43:59.009Z</time></trkpt><trkpt lat="45.8185138" lon="13.8067687"><ele>316.0</ele><time>2026-04-06T13:44:01.016Z</time></trkpt><trkpt lat="45.8185743" lon="13.8069238"><ele>316.3333333333333</ele><time>2026-04-06T13:44:03.023Z</time></trkpt><trkpt lat="45.8186202" lon="13.8069996"><ele>316.66666666666663</ele><time>2026-04-06T13:44:04.017Z</time></trkpt><trkpt lat="45.8186754" lon="13.8070606"><ele>317.0</ele><time>2026-04-06T13:44:05.023Z</time></trkpt><trkpt lat="45.8187402" lon="13.8071088"><ele>317.3333333333333</ele><time>2026-04-06T13:44:06.009Z</time></trkpt><trkpt lat="45.8188002" lon="13.8071484"><ele>317.6666666666667</ele><time>2026-04-06T13:44:07.02Z</time></trkpt><trkpt lat="45.8189018" lon="13.8072445"><ele>318.0</ele><time>2026-04-06T13:44:09.023Z</time></trkpt><trkpt lat="45.8189521" lon="13.807312"><ele>318.0</ele><time>2026-04-06T13:44:10.024Z</time></trkpt><trkpt lat="45.8190161" lon="13.8073975"><ele>318.0</ele><time>2026-04-06T13:44:11.013Z</time></trkpt><trkpt lat="45.8190828" lon="13.8074894"><ele>318.0</ele><time>2026-04-06T13:44:12.031Z</time></trkpt><trkpt lat="45.8191432" lon="13.80758"><ele>318.0</ele><time>2026-04-06T13:44:13.015Z</time></trkpt><trkpt lat="45.8191992" lon="13.8076581"><ele>318.0</ele><time>2026-04-06T13:44:14.021Z</time></trkpt><trkpt lat="45.8192573" lon="13.8077233"><ele>318.0</ele><time>2026-04-06T13:44:15.014Z</time></trkpt><trkpt lat="45.8193147" lon="13.8077793"><ele>317.0</ele><time>2026-04-06T13:44:16.012Z</time></trkpt><trkpt lat="45.8193716" lon="13.8078362"><ele>316.0</ele><time>2026-04-06T13:44:17.013Z</time></trkpt><trkpt lat="45.8194296" lon="13.8078883"><ele>315.0</ele><time>2026-04-06T13:44:18.018Z</time></trkpt><trkpt lat="45.8194897" lon="13.8079367"><ele>314.0</ele><time>2026-04-06T13:44:19.018Z</time></trkpt><trkpt lat="45.8195485" lon="13.8079816"><ele>313.0</ele><time>2026-04-06T13:44:20.022Z</time></trkpt><trkpt lat="45.8196112" lon="13.8080239"><ele>312.0</ele><time>2026-04-06T13:44:21.018Z</time></trkpt><trkpt lat="45.8196815" lon="13.8080623"><ele>311.0</ele><time>2026-04-06T13:44:22.056Z</time></trkpt><trkpt lat="45.8197663" lon="13.808087"><ele>311.0</ele><time>2026-04-06T13:44:23.02Z</time></trkpt><trkpt lat="45.8198753" lon="13.808094"><ele>311.0</ele><time>2026-04-06T13:44:24.024Z</time></trkpt><trkpt lat="45.8199956" lon="13.8081032"><ele>311.0</ele><time>2026-04-06T13:44:25.02Z</time></trkpt><trkpt lat="45.820106" lon="13.8081072"><ele>311.0</ele><time>2026-04-06T13:44:26.004Z</time></trkpt><trkpt lat="45.8202166" lon="13.8081175"><ele>310.25</ele><time>2026-04-06T13:44:27.02Z</time></trkpt><trkpt lat="45.8203344" lon="13.8081301"><ele>309.5</ele><time>2026-04-06T13:44:28.011Z</time></trkpt><trkpt lat="45.8204516" lon="13.8081412"><ele>308.75</ele><time>2026-04-06T13:44:29.028Z</time></trkpt><trkpt lat="45.8205743" lon="13.8081606"><ele>308.0</ele><time>2026-04-06T13:44:30.015Z</time></trkpt><trkpt lat="45.820701" lon="13.8081897"><ele>308.0</ele><time>2026-04-06T13:44:31.008Z</time></trkpt><trkpt lat="45.8208325" lon="13.8082424"><ele>308.0</ele><time>2026-04-06T13:44:32.012Z</time></trkpt><trkpt lat="45.8209691" lon="13.8082956"><ele>308.0</ele><time>2026-04-06T13:44:33.006Z</time></trkpt><trkpt lat="45.8210987" lon="13.8083334"><ele>308.0</ele><time>2026-04-06T13:44:34.009Z</time></trkpt><trkpt lat="45.8212187" lon="13.8083869"><ele>309.5</ele><time>2026-04-06T13:44:35.009Z</time></trkpt><trkpt lat="45.821332" lon="13.8084463"><ele>311.0</ele><time>2026-04-06T13:44:36.018Z</time></trkpt><trkpt lat="45.8214376" lon="13.8085215"><ele>312.5</ele><time>2026-04-06T13:44:37.01Z</time></trkpt><trkpt lat="45.8215377" lon="13.8086042"><ele>314.0</ele><time>2026-04-06T13:44:38.009Z</time></trkpt><trkpt lat="45.8216428" lon="13.8086962"><ele>314.59999999999997</ele><time>2026-04-06T13:44:39.018Z</time></trkpt><trkpt lat="45.8217447" lon="13.8087818"><ele>315.2</ele><time>2026-04-06T13:44:40.003Z</time></trkpt><trkpt lat="45.8218383" lon="13.8088667"><ele>315.79999999999995</ele><time>2026-04-06T13:44:41.013Z</time></trkpt><trkpt lat="45.8219156" lon="13.8089427"><ele>316.4</ele><time>2026-04-06T13:44:42.025Z</time></trkpt><trkpt lat="45.8219861" lon="13.8090368"><ele>317.0</ele><time>2026-04-06T13:44:43.018Z</time></trkpt><trkpt lat="45.8220505" lon="13.8091571"><ele>318.5</ele><time>2026-04-06T13:44:44.027Z</time></trkpt><trkpt lat="45.8221158" lon="13.8092965"><ele>320.0</ele><time>2026-04-06T13:44:45.015Z</time></trkpt><trkpt lat="45.8221838" lon="13.8094415"><ele>321.5</ele><time>2026-04-06T13:44:46.007Z</time></trkpt><trkpt lat="45.8222575" lon="13.809599"><ele>323.0</ele><time>2026-04-06T13:44:47.004Z</time></trkpt><trkpt lat="45.8223323" lon="13.8097596"><ele>323.2</ele><time>2026-04-06T13:44:47.997Z</time></trkpt><trkpt lat="45.8224077" lon="13.809915"><ele>323.4</ele><time>2026-04-06T13:44:49.017Z</time></trkpt><trkpt lat="45.822475" lon="13.8100623"><ele>323.59999999999997</ele><time>2026-04-06T13:44:50.012Z</time></trkpt><trkpt lat="45.8225167" lon="13.8101903"><ele>323.79999999999995</ele><time>2026-04-06T13:44:51.014Z</time></trkpt><trkpt lat="45.8225471" lon="13.8103102"><ele>324.0</ele><time>2026-04-06T13:44:52.006Z</time></trkpt><trkpt lat="45.8225809" lon="13.8104198"><ele>324.1666666666667</ele><time>2026-04-06T13:44:53.008Z</time></trkpt><trkpt lat="45.8226265" lon="13.8105011"><ele>324.3333333333333</ele><time>2026-04-06T13:44:54Z</time></trkpt><trkpt lat="45.822688" lon="13.8105573"><ele>324.5</ele><time>2026-04-06T13:44:55.001Z</time></trkpt><trkpt lat="45.8227581" lon="13.8106089"><ele>324.66666666666663</ele><time>2026-04-06T13:44:56.002Z</time></trkpt><trkpt lat="45.8228328" lon="13.8106539"><ele>324.8333333333333</ele><time>2026-04-06T13:44:57.016Z</time></trkpt><trkpt lat="45.8229094" lon="13.8106716"><ele>325.0</ele><time>2026-04-06T13:44:58.006Z</time></trkpt><trkpt lat="45.822982" lon="13.8106716"><ele>326.0</ele><time>2026-04-06T13:44:59.017Z</time></trkpt><trkpt lat="45.8230557" lon="13.8106394"><ele>327.0</ele><time>2026-04-06T13:45:00.01Z</time></trkpt><trkpt lat="45.8231307" lon="13.8106061"><ele>328.0</ele><time>2026-04-06T13:45:00.995Z</time></trkpt><trkpt lat="45.8232134" lon="13.8105869"><ele>329.0</ele><time>2026-04-06T13:45:02.013Z</time></trkpt><trkpt lat="45.8233056" lon="13.8105962"><ele>330.0</ele><time>2026-04-06T13:45:03.015Z</time></trkpt><trkpt lat="45.8234064" lon="13.8106174"><ele>331.0</ele><time>2026-04-06T13:45:04.009Z</time></trkpt><trkpt lat="45.8235141" lon="13.8106373"><ele>333.0</ele><time>2026-04-06T13:45:05.004Z</time></trkpt><trkpt lat="45.8236335" lon="13.8106522"><ele>335.0</ele><time>2026-04-06T13:45:06.006Z</time></trkpt><trkpt lat="45.8237584" lon="13.8106704"><ele>337.0</ele><time>2026-04-06T13:45:07.006Z</time></trkpt><trkpt lat="45.8238689" lon="13.810693"><ele>339.0</ele><time>2026-04-06T13:45:08.016Z</time></trkpt><trkpt lat="45.8239322" lon="13.8107178"><ele>341.0</ele><time>2026-04-06T13:45:09.009Z</time></trkpt><trkpt lat="45.8239751" lon="13.8108222"><ele>341.0</ele><time>2026-04-06T13:45:11.99Z</time></trkpt><trkpt lat="45.8239527" lon="13.8109141"><ele>341.0</ele><time>2026-04-06T13:45:12.995Z</time></trkpt><trkpt lat="45.8239297" lon="13.8110513"><ele>341.0</ele><time>2026-04-06T13:45:13.997Z</time></trkpt><trkpt lat="45.823914" lon="13.8112123"><ele>341.0</ele><time>2026-04-06T13:45:15.011Z</time></trkpt><trkpt lat="45.8239035" lon="13.811391"><ele>341.0</ele><time>2026-04-06T13:45:16.006Z</time></trkpt><trkpt lat="45.8239053" lon="13.8115586"><ele>341.5</ele><time>2026-04-06T13:45:17.012Z</time></trkpt><trkpt lat="45.8239214" lon="13.8117195"><ele>342.0</ele><time>2026-04-06T13:45:18.009Z</time></trkpt><trkpt lat="45.8239501" lon="13.8118787"><ele>342.5</ele><time>2026-04-06T13:45:18.999Z</time></trkpt><trkpt lat="45.8239945" lon="13.8120145"><ele>343.0</ele><time>2026-04-06T13:45:20.006Z</time></trkpt><trkpt lat="45.8240606" lon="13.8121588"><ele>344.0</ele><time>2026-04-06T13:45:21.009Z</time></trkpt><trkpt lat="45.8241334" lon="13.8123134"><ele>345.0</ele><time>2026-04-06T13:45:22.011Z</time></trkpt><trkpt lat="45.8241947" lon="13.8124904"><ele>346.0</ele><time>2026-04-06T13:45:23.019Z</time></trkpt><trkpt lat="45.8242432" lon="13.812678"><ele>347.0</ele><time>2026-04-06T13:45:23.997Z</time></trkpt><trkpt lat="45.8242833" lon="13.812837"><ele>347.40000000000003</ele><time>2026-04-06T13:45:25.012Z</time></trkpt><trkpt lat="45.8243214" lon="13.8129835"><ele>347.8</ele><time>2026-04-06T13:45:26Z</time></trkpt><trkpt lat="45.8243635" lon="13.8131104"><ele>348.2</ele><time>2026-04-06T13:45:27.012Z</time></trkpt><trkpt lat="45.8243872" lon="13.8132446"><ele>348.6</ele><time>2026-04-06T13:45:28.01Z</time></trkpt><trkpt lat="45.8243787" lon="13.8133704"><ele>349.0</ele><time>2026-04-06T13:45:29.011Z</time></trkpt><trkpt lat="45.824343" lon="13.813497"><ele>349.0</ele><time>2026-04-06T13:45:30Z</time></trkpt><trkpt lat="45.824286" lon="13.8136152"><ele>349.0</ele><time>2026-04-06T13:45:30.992Z</time></trkpt><trkpt lat="45.8242119" lon="13.8137287"><ele>349.0</ele><time>2026-04-06T13:45:31.998Z</time></trkpt><trkpt lat="45.8241194" lon="13.8138628"><ele>349.0</ele><time>2026-04-06T13:45:33.012Z</time></trkpt><trkpt lat="45.8240206" lon="13.8140213"><ele>349.0</ele><time>2026-04-06T13:45:34.012Z</time></trkpt><trkpt lat="45.8239291" lon="13.8141707"><ele>349.0</ele><time>2026-04-06T13:45:34.997Z</time></trkpt><trkpt lat="45.8238429" lon="13.8143097"><ele>349.0</ele><time>2026-04-06T13:45:36.002Z</time></trkpt><trkpt lat="45.8237641" lon="13.814441"><ele>349.0</ele><time>2026-04-06T13:45:37.001Z</time></trkpt><trkpt lat="45.8236931" lon="13.8145558"><ele>348.79999999999995</ele><time>2026-04-06T13:45:38.01Z</time></trkpt><trkpt lat="45.8236326" lon="13.8146602"><ele>348.59999999999997</ele><time>2026-04-06T13:45:39.012Z</time></trkpt><trkpt lat="45.823605" lon="13.814776"><ele>348.4</ele><time>2026-04-06T13:45:40.019Z</time></trkpt><trkpt lat="45.8236053" lon="13.8149034"><ele>348.2</ele><time>2026-04-06T13:45:41.002Z</time></trkpt><trkpt lat="45.8236125" lon="13.8150377"><ele>348.0</ele><time>2026-04-06T13:45:41.997Z</time></trkpt><trkpt lat="45.8235915" lon="13.815168"><ele>347.25</ele><time>2026-04-06T13:45:43.01Z</time></trkpt><trkpt lat="45.8235558" lon="13.8153068"><ele>346.5</ele><time>2026-04-06T13:45:44.014Z</time></trkpt><trkpt lat="45.8235066" lon="13.8154601"><ele>345.75</ele><time>2026-04-06T13:45:45.01Z</time></trkpt><trkpt lat="45.8234505" lon="13.8156292"><ele>345.0</ele><time>2026-04-06T13:45:46.002Z</time></trkpt><trkpt lat="45.8233997" lon="13.815798"><ele>345.0</ele><time>2026-04-06T13:45:47.004Z</time></trkpt><trkpt lat="45.8233386" lon="13.8159692"><ele>345.0</ele><time>2026-04-06T13:45:48.015Z</time></trkpt><trkpt lat="45.8232551" lon="13.8161488"><ele>345.0</ele><time>2026-04-06T13:45:49.004Z</time></trkpt><trkpt lat="45.8231758" lon="13.8163196"><ele>345.0</ele><time>2026-04-06T13:45:49.998Z</time></trkpt><trkpt lat="45.8230961" lon="13.8164809"><ele>345.0</ele><time>2026-04-06T13:45:51.01Z</time></trkpt><trkpt lat="45.8230322" lon="13.816636"><ele>345.0</ele><time>2026-04-06T13:45:52.007Z</time></trkpt><trkpt lat="45.8229797" lon="13.8168083"><ele>345.0</ele><time>2026-04-06T13:45:53.022Z</time></trkpt><trkpt lat="45.8229495" lon="13.8170151"><ele>345.0</ele><time>2026-04-06T13:45:54.008Z</time></trkpt><trkpt lat="45.8229184" lon="13.8172236"><ele>345.0</ele><time>2026-04-06T13:45:55.011Z</time></trkpt><trkpt lat="45.8228846" lon="13.8174144"><ele>345.0</ele><time>2026-04-06T13:45:56.004Z</time></trkpt><trkpt lat="45.8228524" lon="13.8175886"><ele>345.0</ele><time>2026-04-06T13:45:57.011Z</time></trkpt><trkpt lat="45.8228167" lon="13.8177544"><ele>345.0</ele><time>2026-04-06T13:45:58.016Z</time></trkpt><trkpt lat="45.8227668" lon="13.8178982"><ele>345.0</ele><time>2026-04-06T13:45:59.005Z</time></trkpt><trkpt lat="45.8226986" lon="13.8180404"><ele>345.0</ele><time>2026-04-06T13:46:00.021Z</time></trkpt><trkpt lat="45.8226105" lon="13.8181926"><ele>345.0</ele><time>2026-04-06T13:46:01.004Z</time></trkpt><trkpt lat="45.8225082" lon="13.8183347"><ele>345.0</ele><time>2026-04-06T13:46:02.001Z</time></trkpt><trkpt lat="45.8223995" lon="13.8184491"><ele>344.75</ele><time>2026-04-06T13:46:03.011Z</time></trkpt><trkpt lat="45.8222826" lon="13.8185438"><ele>344.5</ele><time>2026-04-06T13:46:04.002Z</time></trkpt><trkpt lat="45.8221608" lon="13.818635"><ele>344.25</ele><time>2026-04-06T13:46:05.011Z</time></trkpt><trkpt lat="45.822026" lon="13.8187372"><ele>344.0</ele><time>2026-04-06T13:46:05.999Z</time></trkpt><trkpt lat="45.8218875" lon="13.8188424"><ele>344.0</ele><time>2026-04-06T13:46:07.013Z</time></trkpt><trkpt lat="45.8217624" lon="13.8189506"><ele>344.0</ele><time>2026-04-06T13:46:08.008Z</time></trkpt><trkpt lat="45.8216423" lon="13.8190516"><ele>344.0</ele><time>2026-04-06T13:46:09.021Z</time></trkpt><trkpt lat="45.8215291" lon="13.8191321"><ele>344.0</ele><time>2026-04-06T13:46:10.008Z</time></trkpt><trkpt lat="45.8214227" lon="13.819186"><ele>344.0</ele><time>2026-04-06T13:46:11.007Z</time></trkpt><trkpt lat="45.8213166" lon="13.8192096"><ele>344.0</ele><time>2026-04-06T13:46:12.004Z</time></trkpt><trkpt lat="45.8212114" lon="13.819206"><ele>344.0</ele><time>2026-04-06T13:46:13.015Z</time></trkpt><trkpt lat="45.821129" lon="13.8191894"><ele>344.0</ele><time>2026-04-06T13:46:14.004Z</time></trkpt><trkpt lat="45.8210189" lon="13.8191851"><ele>344.0</ele><time>2026-04-06T13:46:16.022Z</time></trkpt><trkpt lat="45.8209673" lon="13.819264"><ele>342.79999999999995</ele><time>2026-04-06T13:46:18.001Z</time></trkpt><trkpt lat="45.820977" lon="13.8194551"><ele>341.59999999999997</ele><time>2026-04-06T13:46:19.997Z</time></trkpt><trkpt lat="45.8209966" lon="13.819581"><ele>340.4</ele><time>2026-04-06T13:46:20.999Z</time></trkpt><trkpt lat="45.8210145" lon="13.8197207"><ele>339.2</ele><time>2026-04-06T13:46:21.993Z</time></trkpt><trkpt lat="45.821031" lon="13.8198637"><ele>338.0</ele><time>2026-04-06T13:46:23.013Z</time></trkpt><trkpt lat="45.8210513" lon="13.8200046"><ele>336.59999999999997</ele><time>2026-04-06T13:46:24.005Z</time></trkpt><trkpt lat="45.8210681" lon="13.820154"><ele>335.2</ele><time>2026-04-06T13:46:25.019Z</time></trkpt><trkpt lat="45.8210785" lon="13.8203161"><ele>333.8</ele><time>2026-04-06T13:46:26.013Z</time></trkpt><trkpt lat="45.821085" lon="13.8204794"><ele>332.4</ele><time>2026-04-06T13:46:27.023Z</time></trkpt><trkpt lat="45.8210942" lon="13.8206395"><ele>331.0</ele><time>2026-04-06T13:46:28.01Z</time></trkpt><trkpt lat="45.8211074" lon="13.8207952"><ele>331.0</ele><time>2026-04-06T13:46:29.013Z</time></trkpt><trkpt lat="45.8211233" lon="13.8209524"><ele>331.0</ele><time>2026-04-06T13:46:30.014Z</time></trkpt><trkpt lat="45.8211287" lon="13.8211123"><ele>331.0</ele><time>2026-04-06T13:46:31.017Z</time></trkpt><trkpt lat="45.8211389" lon="13.8212669"><ele>331.0</ele><time>2026-04-06T13:46:32.004Z</time></trkpt><trkpt lat="45.8211467" lon="13.8214245"><ele>331.0</ele><time>2026-04-06T13:46:33.031Z</time></trkpt><trkpt lat="45.8211593" lon="13.8215815"><ele>330.0</ele><time>2026-04-06T13:46:34.016Z</time></trkpt><trkpt lat="45.8211725" lon="13.8217311"><ele>329.0</ele><time>2026-04-06T13:46:35.012Z</time></trkpt><trkpt lat="45.8211907" lon="13.8218747"><ele>328.0</ele><time>2026-04-06T13:46:36.013Z</time></trkpt><trkpt lat="45.8212159" lon="13.8220147"><ele>327.0</ele><time>2026-04-06T13:46:37.019Z</time></trkpt><trkpt lat="45.8212418" lon="13.8221517"><ele>326.0</ele><time>2026-04-06T13:46:38.01Z</time></trkpt><trkpt lat="45.8212562" lon="13.8222785"><ele>324.1666666666667</ele><time>2026-04-06T13:46:39.016Z</time></trkpt><trkpt lat="45.8212558" lon="13.8223821"><ele>322.33333333333337</ele><time>2026-04-06T13:46:40.001Z</time></trkpt><trkpt lat="45.8212349" lon="13.8225314"><ele>320.5</ele><time>2026-04-06T13:46:42.002Z</time></trkpt><trkpt lat="45.8212584" lon="13.8226372"><ele>318.6666666666667</ele><time>2026-04-06T13:46:44.015Z</time></trkpt><trkpt lat="45.8213333" lon="13.8227006"><ele>316.8333333333333</ele><time>2026-04-06T13:46:45.997Z</time></trkpt><trkpt lat="45.8214369" lon="13.8227052"><ele>315.0</ele><time>2026-04-06T13:46:47.989Z</time></trkpt><trkpt lat="45.8215643" lon="13.8226525"><ele>315.0</ele><time>2026-04-06T13:46:50.002Z</time></trkpt><trkpt lat="45.8216361" lon="13.822622"><ele>315.0</ele><time>2026-04-06T13:46:51.012Z</time></trkpt><trkpt lat="45.8217108" lon="13.8225841"><ele>315.0</ele><time>2026-04-06T13:46:51.997Z</time></trkpt><trkpt lat="45.8217989" lon="13.8225503"><ele>315.0</ele><time>2026-04-06T13:46:53.009Z</time></trkpt><trkpt lat="45.8218898" lon="13.8225203"><ele>315.0</ele><time>2026-04-06T13:46:54.011Z</time></trkpt><trkpt lat="45.8220108" lon="13.8224899"><ele>314.75</ele><time>2026-04-06T13:46:55.008Z</time></trkpt><trkpt lat="45.8221398" lon="13.8224678"><ele>314.5</ele><time>2026-04-06T13:46:56.007Z</time></trkpt><trkpt lat="45.8222814" lon="13.8224544"><ele>314.25</ele><time>2026-04-06T13:46:57.009Z</time></trkpt><trkpt lat="45.8224311" lon="13.8224361"><ele>314.0</ele><time>2026-04-06T13:46:58.006Z</time></trkpt><trkpt lat="45.8225887" lon="13.8224165"><ele>312.6666666666667</ele><time>2026-04-06T13:46:59.014Z</time></trkpt><trkpt lat="45.8227453" lon="13.8224008"><ele>311.3333333333333</ele><time>2026-04-06T13:47:00.006Z</time></trkpt><trkpt lat="45.8228961" lon="13.8223964"><ele>310.0</ele><time>2026-04-06T13:47:01.007Z</time></trkpt><trkpt lat="45.8230482" lon="13.8223979"><ele>310.0</ele><time>2026-04-06T13:47:02.016Z</time></trkpt><trkpt lat="45.8232121" lon="13.8224043"><ele>310.0</ele><time>2026-04-06T13:47:03.002Z</time></trkpt><trkpt lat="45.8233731" lon="13.8224107"><ele>310.0</ele><time>2026-04-06T13:47:04.002Z</time></trkpt><trkpt lat="45.823538" lon="13.8224174"><ele>311.0</ele><time>2026-04-06T13:47:05.019Z</time></trkpt><trkpt lat="45.8236966" lon="13.8224374"><ele>312.0</ele><time>2026-04-06T13:47:06.006Z</time></trkpt><trkpt lat="45.8238594" lon="13.8224672"><ele>313.0</ele><time>2026-04-06T13:47:06.994Z</time></trkpt><trkpt lat="45.8240151" lon="13.8224954"><ele>313.0</ele><time>2026-04-06T13:47:08.002Z</time></trkpt><trkpt lat="45.8241653" lon="13.8225245"><ele>313.0</ele><time>2026-04-06T13:47:09.012Z</time></trkpt><trkpt lat="45.8243047" lon="13.8225393"><ele>313.0</ele><time>2026-04-06T13:47:10.037Z</time></trkpt><trkpt lat="45.8244414" lon="13.8225242"><ele>313.0</ele><time>2026-04-06T13:47:11.005Z</time></trkpt><trkpt lat="45.824576" lon="13.8224815"><ele>313.0</ele><time>2026-04-06T13:47:12.013Z</time></trkpt><trkpt lat="45.8247042" lon="13.822435"><ele>313.0</ele><time>2026-04-06T13:47:13.002Z</time></trkpt><trkpt lat="45.8248351" lon="13.8223986"><ele>313.0</ele><time>2026-04-06T13:47:13.998Z</time></trkpt><trkpt lat="45.8249716" lon="13.8223829"><ele>313.0</ele><time>2026-04-06T13:47:15.003Z</time></trkpt><trkpt lat="45.8251105" lon="13.8223759"><ele>313.25</ele><time>2026-04-06T13:47:15.995Z</time></trkpt><trkpt lat="45.8252454" lon="13.8223627"><ele>313.5</ele><time>2026-04-06T13:47:17.013Z</time></trkpt><trkpt lat="45.8253862" lon="13.8223221"><ele>313.75</ele><time>2026-04-06T13:47:18.004Z</time></trkpt><trkpt lat="45.8255312" lon="13.8222571"><ele>314.0</ele><time>2026-04-06T13:47:19.009Z</time></trkpt><trkpt lat="45.8256752" lon="13.8221866"><ele>314.0</ele><time>2026-04-06T13:47:19.999Z</time></trkpt><trkpt lat="45.8258065" lon="13.8221078"><ele>314.0</ele><time>2026-04-06T13:47:21.013Z</time></trkpt><trkpt lat="45.8259423" lon="13.8220613"><ele>314.0</ele><time>2026-04-06T13:47:22.011Z</time></trkpt><trkpt lat="45.8260858" lon="13.8220364"><ele>314.0</ele><time>2026-04-06T13:47:23.007Z</time></trkpt><trkpt lat="45.8262426" lon="13.8220167"><ele>313.33333333333337</ele><time>2026-04-06T13:47:24.007Z</time></trkpt><trkpt lat="45.8264027" lon="13.8219936"><ele>312.6666666666667</ele><time>2026-04-06T13:47:25.006Z</time></trkpt><trkpt lat="45.826558" lon="13.8219652"><ele>312.0</ele><time>2026-04-06T13:47:25.997Z</time></trkpt><trkpt lat="45.8267058" lon="13.8219387"><ele>312.0</ele><time>2026-04-06T13:47:26.999Z</time></trkpt><trkpt lat="45.8268506" lon="13.8218952"><ele>312.0</ele><time>2026-04-06T13:47:27.997Z</time></trkpt><trkpt lat="45.8270033" lon="13.8218292"><ele>312.0</ele><time>2026-04-06T13:47:29.003Z</time></trkpt><trkpt lat="45.8271615" lon="13.8217373"><ele>315.3333333333333</ele><time>2026-04-06T13:47:30.022Z</time></trkpt><trkpt lat="45.8273251" lon="13.8216338"><ele>318.66666666666663</ele><time>2026-04-06T13:47:30.997Z</time></trkpt><trkpt lat="45.8274923" lon="13.8215224"><ele>322.0</ele><time>2026-04-06T13:47:31.997Z</time></trkpt><trkpt lat="45.8276537" lon="13.8214165"><ele>322.25</ele><time>2026-04-06T13:47:32.998Z</time></trkpt><trkpt lat="45.8278016" lon="13.8213201"><ele>322.5</ele><time>2026-04-06T13:47:33.997Z</time></trkpt><trkpt lat="45.827936" lon="13.8212361"><ele>322.75</ele><time>2026-04-06T13:47:34.994Z</time></trkpt><trkpt lat="45.8280571" lon="13.8211509"><ele>323.0</ele><time>2026-04-06T13:47:35.999Z</time></trkpt><trkpt lat="45.8281597" lon="13.8210672"><ele>324.0</ele><time>2026-04-06T13:47:36.996Z</time></trkpt><trkpt lat="45.828257" lon="13.8209524"><ele>325.0</ele><time>2026-04-06T13:47:38.009Z</time></trkpt><trkpt lat="45.8283493" lon="13.8208125"><ele>326.0</ele><time>2026-04-06T13:47:38.998Z</time></trkpt><trkpt lat="45.8284617" lon="13.8206618"><ele>327.0</ele><time>2026-04-06T13:47:39.993Z</time></trkpt><trkpt lat="45.8285724" lon="13.8204917"><ele>327.0</ele><time>2026-04-06T13:47:41.001Z</time></trkpt><trkpt lat="45.8286848" lon="13.8203274"><ele>327.0</ele><time>2026-04-06T13:47:42.001Z</time></trkpt><trkpt lat="45.8287956" lon="13.8201711"><ele>327.0</ele><time>2026-04-06T13:47:43.001Z</time></trkpt><trkpt lat="45.8289034" lon="13.8200171"><ele>328.25</ele><time>2026-04-06T13:47:44.008Z</time></trkpt><trkpt lat="45.8290153" lon="13.8198764"><ele>329.5</ele><time>2026-04-06T13:47:45.013Z</time></trkpt><trkpt lat="45.8291328" lon="13.8197551"><ele>330.75</ele><time>2026-04-06T13:47:46.001Z</time></trkpt><trkpt lat="45.8292615" lon="13.8196447"><ele>332.0</ele><time>2026-04-06T13:47:47.023Z</time></trkpt><trkpt lat="45.8293883" lon="13.8195454"><ele>333.25</ele><time>2026-04-06T13:47:48.011Z</time></trkpt><trkpt lat="45.8295123" lon="13.8194381"><ele>334.5</ele><time>2026-04-06T13:47:49.002Z</time></trkpt><trkpt lat="45.829639" lon="13.8193321"><ele>335.75</ele><time>2026-04-06T13:47:50.015Z</time></trkpt><trkpt lat="45.8297577" lon="13.8192238"><ele>337.0</ele><time>2026-04-06T13:47:51.012Z</time></trkpt><trkpt lat="45.8298684" lon="13.819118"><ele>338.25</ele><time>2026-04-06T13:47:52.012Z</time></trkpt><trkpt lat="45.8299681" lon="13.8190195"><ele>339.5</ele><time>2026-04-06T13:47:53.007Z</time></trkpt><trkpt lat="45.8300686" lon="13.8189371"><ele>340.75</ele><time>2026-04-06T13:47:54.012Z</time></trkpt><trkpt lat="45.8301697" lon="13.8188692"><ele>342.0</ele><time>2026-04-06T13:47:55.017Z</time></trkpt><trkpt lat="45.83028" lon="13.8188126"><ele>343.0</ele><time>2026-04-06T13:47:56.008Z</time></trkpt><trkpt lat="45.8304061" lon="13.8187684"><ele>344.0</ele><time>2026-04-06T13:47:57.007Z</time></trkpt><trkpt lat="45.8305347" lon="13.8187241"><ele>345.0</ele><time>2026-04-06T13:47:58.007Z</time></trkpt><trkpt lat="45.8306606" lon="13.8186891"><ele>346.0</ele><time>2026-04-06T13:47:59.004Z</time></trkpt><trkpt lat="45.8307793" lon="13.8186546"><ele>346.0</ele><time>2026-04-06T13:48:00.011Z</time></trkpt><trkpt lat="45.8308838" lon="13.8186213"><ele>346.0</ele><time>2026-04-06T13:48:01.021Z</time></trkpt><trkpt lat="45.8309807" lon="13.818602"><ele>346.0</ele><time>2026-04-06T13:48:02.002Z</time></trkpt><trkpt lat="45.8310604" lon="13.8185892"><ele>346.0</ele><time>2026-04-06T13:48:03.015Z</time></trkpt><trkpt lat="45.8311286" lon="13.8185765"><ele>346.0</ele><time>2026-04-06T13:48:04.022Z</time></trkpt><trkpt lat="45.8311926" lon="13.8185571"><ele>346.0</ele><time>2026-04-06T13:48:05.014Z</time></trkpt><trkpt lat="45.8312554" lon="13.818533"><ele>347.16666666666663</ele><time>2026-04-06T13:48:06.006Z</time></trkpt><trkpt lat="45.8313803" lon="13.8184798"><ele>348.3333333333333</ele><time>2026-04-06T13:48:08.007Z</time></trkpt><trkpt lat="45.8314503" lon="13.8184553"><ele>349.5</ele><time>2026-04-06T13:48:09.008Z</time></trkpt><trkpt lat="45.8315195" lon="13.8184304"><ele>350.6666666666667</ele><time>2026-04-06T13:48:10.019Z</time></trkpt><trkpt lat="45.831593" lon="13.8184088"><ele>351.83333333333337</ele><time>2026-04-06T13:48:11.019Z</time></trkpt><trkpt lat="45.8316647" lon="13.8183853"><ele>353.0</ele><time>2026-04-06T13:48:12.018Z</time></trkpt><trkpt lat="45.831739" lon="13.818359"><ele>355.0</ele><time>2026-04-06T13:48:13.002Z</time></trkpt><trkpt lat="45.8318148" lon="13.8183296"><ele>357.0</ele><time>2026-04-06T13:48:14.003Z</time></trkpt><trkpt lat="45.8318918" lon="13.8183207"><ele>359.0</ele><time>2026-04-06T13:48:15.006Z</time></trkpt><trkpt lat="45.8319901" lon="13.8183233"><ele>361.0</ele><time>2026-04-06T13:48:15.997Z</time></trkpt><trkpt lat="45.8320965" lon="13.8183378"><ele>363.0</ele><time>2026-04-06T13:48:17.005Z</time></trkpt><trkpt lat="45.8321975" lon="13.8183414"><ele>363.0</ele><time>2026-04-06T13:48:18.004Z</time></trkpt><trkpt lat="45.8322906" lon="13.8183175"><ele>363.0</ele><time>2026-04-06T13:48:19.002Z</time></trkpt><trkpt lat="45.8323585" lon="13.8182825"><ele>363.0</ele><time>2026-04-06T13:48:20.004Z</time></trkpt><trkpt lat="45.8324467" lon="13.818229"><ele>363.0</ele><time>2026-04-06T13:48:22.015Z</time></trkpt><trkpt lat="45.8324876" lon="13.8183372"><ele>363.0</ele><time>2026-04-06T13:48:24.995Z</time></trkpt><trkpt lat="45.8324317" lon="13.8184361"><ele>363.0</ele><time>2026-04-06T13:48:26.994Z</time></trkpt><trkpt lat="45.8323706" lon="13.8184794"><ele>365.59999999999997</ele><time>2026-04-06T13:48:27.994Z</time></trkpt><trkpt lat="45.8323059" lon="13.8185486"><ele>368.2</ele><time>2026-04-06T13:48:28.999Z</time></trkpt><trkpt lat="45.8322393" lon="13.8186358"><ele>370.8</ele><time>2026-04-06T13:48:30.004Z</time></trkpt><trkpt lat="45.8321724" lon="13.8187346"><ele>373.4</ele><time>2026-04-06T13:48:31.006Z</time></trkpt><trkpt lat="45.8321057" lon="13.8188374"><ele>376.0</ele><time>2026-04-06T13:48:32.005Z</time></trkpt><trkpt lat="45.8320375" lon="13.8189325"><ele>376.0</ele><time>2026-04-06T13:48:32.999Z</time></trkpt><trkpt lat="45.8319658" lon="13.8190279"><ele>376.0</ele><time>2026-04-06T13:48:34.002Z</time></trkpt><trkpt lat="45.8318963" lon="13.8191217"><ele>376.0</ele><time>2026-04-06T13:48:35.005Z</time></trkpt><trkpt lat="45.8318197" lon="13.8192165"><ele>376.0</ele><time>2026-04-06T13:48:36.002Z</time></trkpt><trkpt lat="45.8317472" lon="13.8193273"><ele>376.0</ele><time>2026-04-06T13:48:36.999Z</time></trkpt><trkpt lat="45.8316774" lon="13.81945"><ele>372.20000000000005</ele><time>2026-04-06T13:48:38.005Z</time></trkpt><trkpt lat="45.8316033" lon="13.8195611"><ele>368.40000000000003</ele><time>2026-04-06T13:48:39.007Z</time></trkpt><trkpt lat="45.8315322" lon="13.8196666"><ele>364.6</ele><time>2026-04-06T13:48:40.002Z</time></trkpt><trkpt lat="45.8314526" lon="13.8197694"><ele>360.8</ele><time>2026-04-06T13:48:41.006Z</time></trkpt><trkpt lat="45.8313771" lon="13.8198665"><ele>357.0</ele><time>2026-04-06T13:48:41.996Z</time></trkpt><trkpt lat="45.8312978" lon="13.8199816"><ele>357.0</ele><time>2026-04-06T13:48:43.003Z</time></trkpt><trkpt lat="45.8312081" lon="13.8200919"><ele>357.0</ele><time>2026-04-06T13:48:43.996Z</time></trkpt><trkpt lat="45.8311273" lon="13.8202016"><ele>357.0</ele><time>2026-04-06T13:48:44.998Z</time></trkpt><trkpt lat="45.8310491" lon="13.8203117"><ele>357.0</ele><time>2026-04-06T13:48:46.002Z</time></trkpt><trkpt lat="45.8309758" lon="13.8204206"><ele>357.0</ele><time>2026-04-06T13:48:47.002Z</time></trkpt><trkpt lat="45.8309118" lon="13.8205111"><ele>355.40000000000003</ele><time>2026-04-06T13:48:48.002Z</time></trkpt><trkpt lat="45.8308535" lon="13.8206044"><ele>353.8</ele><time>2026-04-06T13:48:49.003Z</time></trkpt><trkpt lat="45.8308066" lon="13.8207148"><ele>352.2</ele><time>2026-04-06T13:48:50.008Z</time></trkpt><trkpt lat="45.8307725" lon="13.8208422"><ele>350.6</ele><time>2026-04-06T13:48:51.004Z</time></trkpt><trkpt lat="45.8307524" lon="13.8209862"><ele>349.0</ele><time>2026-04-06T13:48:51.997Z</time></trkpt><trkpt lat="45.8307292" lon="13.821127"><ele>349.0</ele><time>2026-04-06T13:48:53.019Z</time></trkpt><trkpt lat="45.8307184" lon="13.8212648"><ele>349.0</ele><time>2026-04-06T13:48:53.997Z</time></trkpt><trkpt lat="45.8307223" lon="13.821393"><ele>349.0</ele><time>2026-04-06T13:48:55.01Z</time></trkpt><trkpt lat="45.8307197" lon="13.821499"><ele>349.0</ele><time>2026-04-06T13:48:55.995Z</time></trkpt><trkpt lat="45.830673" lon="13.8216544"><ele>349.0</ele><time>2026-04-06T13:48:58Z</time></trkpt><trkpt lat="45.8306246" lon="13.8217263"><ele>349.0</ele><time>2026-04-06T13:48:58.995Z</time></trkpt><trkpt lat="45.8305548" lon="13.8218132"><ele>349.2</ele><time>2026-04-06T13:49:00.02Z</time></trkpt><trkpt lat="45.8304696" lon="13.8219062"><ele>349.4</ele><time>2026-04-06T13:49:01.012Z</time></trkpt><trkpt lat="45.8303897" lon="13.8219882"><ele>349.6</ele><time>2026-04-06T13:49:01.994Z</time></trkpt><trkpt lat="45.830302" lon="13.822071"><ele>349.8</ele><time>2026-04-06T13:49:02.997Z</time></trkpt><trkpt lat="45.8302139" lon="13.8221611"><ele>350.0</ele><time>2026-04-06T13:49:04.009Z</time></trkpt><trkpt lat="45.8301354" lon="13.8222411"><ele>350.0</ele><time>2026-04-06T13:49:05.004Z</time></trkpt><trkpt lat="45.8300629" lon="13.8223204"><ele>350.0</ele><time>2026-04-06T13:49:06.004Z</time></trkpt><trkpt lat="45.8299902" lon="13.8224083"><ele>350.0</ele><time>2026-04-06T13:49:07.007Z</time></trkpt><trkpt lat="45.8299121" lon="13.8225173"><ele>350.0</ele><time>2026-04-06T13:49:08.002Z</time></trkpt><trkpt lat="45.8298471" lon="13.8226177"><ele>350.0</ele><time>2026-04-06T13:49:09.014Z</time></trkpt><trkpt lat="45.829784" lon="13.8227154"><ele>351.4</ele><time>2026-04-06T13:49:09.996Z</time></trkpt><trkpt lat="45.8297137" lon="13.8228109"><ele>352.8</ele><time>2026-04-06T13:49:11.003Z</time></trkpt><trkpt lat="45.8296378" lon="13.8229133"><ele>354.20000000000005</ele><time>2026-04-06T13:49:12.004Z</time></trkpt><trkpt lat="45.8295499" lon="13.8230067"><ele>355.6</ele><time>2026-04-06T13:49:13.001Z</time></trkpt><trkpt lat="45.8294632" lon="13.8230925"><ele>357.0</ele><time>2026-04-06T13:49:14.022Z</time></trkpt><trkpt lat="45.8293791" lon="13.8231743"><ele>354.20000000000005</ele><time>2026-04-06T13:49:15.003Z</time></trkpt><trkpt lat="45.8292959" lon="13.8232579"><ele>351.4</ele><time>2026-04-06T13:49:16Z</time></trkpt><trkpt lat="45.8292283" lon="13.8233538"><ele>348.6</ele><time>2026-04-06T13:49:16.995Z</time></trkpt><trkpt lat="45.8291671" lon="13.8234495"><ele>345.79999999999995</ele><time>2026-04-06T13:49:18.001Z</time></trkpt><trkpt lat="45.8291008" lon="13.8235448"><ele>343.0</ele><time>2026-04-06T13:49:18.998Z</time></trkpt><trkpt lat="45.8290405" lon="13.823639"><ele>343.0</ele><time>2026-04-06T13:49:20.001Z</time></trkpt><trkpt lat="45.8289822" lon="13.8237263"><ele>343.0</ele><time>2026-04-06T13:49:21.002Z</time></trkpt><trkpt lat="45.8289207" lon="13.8237978"><ele>343.0</ele><time>2026-04-06T13:49:22.003Z</time></trkpt><trkpt lat="45.8288565" lon="13.8238446"><ele>343.0</ele><time>2026-04-06T13:49:23.017Z</time></trkpt><trkpt lat="45.8287886" lon="13.8238826"><ele>343.0</ele><time>2026-04-06T13:49:24.018Z</time></trkpt><trkpt lat="45.8287149" lon="13.8239159"><ele>343.0</ele><time>2026-04-06T13:49:25.007Z</time></trkpt><trkpt lat="45.8286369" lon="13.8239531"><ele>343.0</ele><time>2026-04-06T13:49:26.009Z</time></trkpt><trkpt lat="45.8285527" lon="13.8239823"><ele>343.0</ele><time>2026-04-06T13:49:27.018Z</time></trkpt><trkpt lat="45.8284624" lon="13.8240028"><ele>343.0</ele><time>2026-04-06T13:49:28.001Z</time></trkpt><trkpt lat="45.828374" lon="13.8240183"><ele>343.0</ele><time>2026-04-06T13:49:29.028Z</time></trkpt><trkpt lat="45.8282853" lon="13.8240328"><ele>343.0</ele><time>2026-04-06T13:49:30.003Z</time></trkpt><trkpt lat="45.8281961" lon="13.8240452"><ele>343.0</ele><time>2026-04-06T13:49:31.015Z</time></trkpt><trkpt lat="45.8281047" lon="13.8240535"><ele>341.5</ele><time>2026-04-06T13:49:32.001Z</time></trkpt><trkpt lat="45.8280203" lon="13.8240767"><ele>340.0</ele><time>2026-04-06T13:49:33.009Z</time></trkpt><trkpt lat="45.8279357" lon="13.8241189"><ele>338.5</ele><time>2026-04-06T13:49:34.004Z</time></trkpt><trkpt lat="45.8278528" lon="13.824166"><ele>337.0</ele><time>2026-04-06T13:49:35.001Z</time></trkpt><trkpt lat="45.8277706" lon="13.8242075"><ele>335.5</ele><time>2026-04-06T13:49:36.011Z</time></trkpt><trkpt lat="45.8277021" lon="13.8242598"><ele>334.0</ele><time>2026-04-06T13:49:37Z</time></trkpt><trkpt lat="45.8276504" lon="13.8243298"><ele>331.8333333333333</ele><time>2026-04-06T13:49:38.001Z</time></trkpt><trkpt lat="45.827607" lon="13.8244152"><ele>329.66666666666663</ele><time>2026-04-06T13:49:38.995Z</time></trkpt><trkpt lat="45.8275499" lon="13.8245038"><ele>327.5</ele><time>2026-04-06T13:49:40.007Z</time></trkpt><trkpt lat="45.8274814" lon="13.8246107"><ele>325.3333333333333</ele><time>2026-04-06T13:49:41.002Z</time></trkpt><trkpt lat="45.8274192" lon="13.8247167"><ele>323.1666666666667</ele><time>2026-04-06T13:49:42.013Z</time></trkpt><trkpt lat="45.8273682" lon="13.82483"><ele>321.0</ele><time>2026-04-06T13:49:43.016Z</time></trkpt><trkpt lat="45.8273355" lon="13.8249412"><ele>321.0</ele><time>2026-04-06T13:49:44.003Z</time></trkpt><trkpt lat="45.8273257" lon="13.8250507"><ele>321.0</ele><time>2026-04-06T13:49:45.017Z</time></trkpt><trkpt lat="45.8273378" lon="13.8251572"><ele>321.0</ele><time>2026-04-06T13:49:45.995Z</time></trkpt><trkpt lat="45.8273595" lon="13.8252644"><ele>321.0</ele><time>2026-04-06T13:49:46.996Z</time></trkpt><trkpt lat="45.8273956" lon="13.8253691"><ele>321.0</ele><time>2026-04-06T13:49:47.993Z</time></trkpt><trkpt lat="45.8274277" lon="13.8254712"><ele>321.0</ele><time>2026-04-06T13:49:49.016Z</time></trkpt><trkpt lat="45.8274465" lon="13.8255591"><ele>322.5</ele><time>2026-04-06T13:49:50.004Z</time></trkpt><trkpt lat="45.8274335" lon="13.8256645"><ele>324.0</ele><time>2026-04-06T13:49:51.018Z</time></trkpt><trkpt lat="45.8273859" lon="13.8257619"><ele>325.5</ele><time>2026-04-06T13:49:51.995Z</time></trkpt><trkpt lat="45.8273193" lon="13.8258506"><ele>327.0</ele><time>2026-04-06T13:49:52.996Z</time></trkpt><trkpt lat="45.8272401" lon="13.8259292"><ele>328.5</ele><time>2026-04-06T13:49:54.005Z</time></trkpt><trkpt lat="45.8271627" lon="13.8260035"><ele>330.0</ele><time>2026-04-06T13:49:54.997Z</time></trkpt><trkpt lat="45.8270881" lon="13.8260926"><ele>329.6</ele><time>2026-04-06T13:49:56.042Z</time></trkpt><trkpt lat="45.8270161" lon="13.8261916"><ele>329.2</ele><time>2026-04-06T13:49:57.008Z</time></trkpt><trkpt lat="45.82695" lon="13.8262975"><ele>328.79999999999995</ele><time>2026-04-06T13:49:58.01Z</time></trkpt><trkpt lat="45.8268845" lon="13.8263948"><ele>328.4</ele><time>2026-04-06T13:49:59.007Z</time></trkpt><trkpt lat="45.826813" lon="13.8264877"><ele>328.0</ele><time>2026-04-06T13:50:00.007Z</time></trkpt><trkpt lat="45.8267629" lon="13.8265821"><ele>328.0</ele><time>2026-04-06T13:50:01.005Z</time></trkpt><trkpt lat="45.8267294" lon="13.8266975"><ele>328.0</ele><time>2026-04-06T13:50:02.012Z</time></trkpt><trkpt lat="45.8267049" lon="13.8268272"><ele>328.0</ele><time>2026-04-06T13:50:03.006Z</time></trkpt><trkpt lat="45.8266744" lon="13.8269623"><ele>328.0</ele><time>2026-04-06T13:50:04.009Z</time></trkpt><trkpt lat="45.8266345" lon="13.8270935"><ele>328.0</ele><time>2026-04-06T13:50:05.016Z</time></trkpt><trkpt lat="45.8265983" lon="13.8272145"><ele>328.3333333333333</ele><time>2026-04-06T13:50:06.009Z</time></trkpt><trkpt lat="45.8265692" lon="13.8273369"><ele>328.66666666666663</ele><time>2026-04-06T13:50:07.017Z</time></trkpt><trkpt lat="45.8265358" lon="13.8274472"><ele>329.0</ele><time>2026-04-06T13:50:08.009Z</time></trkpt><trkpt lat="45.8264995" lon="13.8275621"><ele>329.3333333333333</ele><time>2026-04-06T13:50:09.008Z</time></trkpt><trkpt lat="45.8264728" lon="13.8276775"><ele>329.6666666666667</ele><time>2026-04-06T13:50:10.001Z</time></trkpt><trkpt lat="45.8264614" lon="13.8278111"><ele>330.0</ele><time>2026-04-06T13:50:11.002Z</time></trkpt><trkpt lat="45.8264523" lon="13.8279593"><ele>329.2</ele><time>2026-04-06T13:50:12.011Z</time></trkpt><trkpt lat="45.8264377" lon="13.828107"><ele>328.4</ele><time>2026-04-06T13:50:12.999Z</time></trkpt><trkpt lat="45.8264203" lon="13.8282502"><ele>327.6</ele><time>2026-04-06T13:50:14.004Z</time></trkpt><trkpt lat="45.8264102" lon="13.8283768"><ele>326.8</ele><time>2026-04-06T13:50:15Z</time></trkpt><trkpt lat="45.8263997" lon="13.8284981"><ele>326.0</ele><time>2026-04-06T13:50:16.008Z</time></trkpt><trkpt lat="45.8263768" lon="13.8286191"><ele>325.5</ele><time>2026-04-06T13:50:17.01Z</time></trkpt><trkpt lat="45.8263325" lon="13.828735"><ele>325.0</ele><time>2026-04-06T13:50:18.002Z</time></trkpt><trkpt lat="45.8262864" lon="13.8288534"><ele>324.5</ele><time>2026-04-06T13:50:19.009Z</time></trkpt><trkpt lat="45.826252" lon="13.8289713"><ele>324.0</ele><time>2026-04-06T13:50:20.008Z</time></trkpt><trkpt lat="45.8262229" lon="13.8290842"><ele>323.5</ele><time>2026-04-06T13:50:21.023Z</time></trkpt><trkpt lat="45.8261889" lon="13.8292024"><ele>323.0</ele><time>2026-04-06T13:50:22.006Z</time></trkpt><trkpt lat="45.8261539" lon="13.8293168"><ele>321.2</ele><time>2026-04-06T13:50:23.011Z</time></trkpt><trkpt lat="45.826117" lon="13.8294409"><ele>319.4</ele><time>2026-04-06T13:50:24.003Z</time></trkpt><trkpt lat="45.8260827" lon="13.8295589"><ele>317.59999999999997</ele><time>2026-04-06T13:50:25.002Z</time></trkpt><trkpt lat="45.8260439" lon="13.8296854"><ele>315.79999999999995</ele><time>2026-04-06T13:50:26.006Z</time></trkpt><trkpt lat="45.8260063" lon="13.8298112"><ele>314.0</ele><time>2026-04-06T13:50:27.006Z</time></trkpt><trkpt lat="45.8259744" lon="13.829945"><ele>312.83333333333337</ele><time>2026-04-06T13:50:28.002Z</time></trkpt><trkpt lat="45.8259452" lon="13.8300681"><ele>311.6666666666667</ele><time>2026-04-06T13:50:29.004Z</time></trkpt><trkpt lat="45.8259179" lon="13.8301838"><ele>310.5</ele><time>2026-04-06T13:50:30.018Z</time></trkpt><trkpt lat="45.825891" lon="13.8302853"><ele>309.3333333333333</ele><time>2026-04-06T13:50:30.996Z</time></trkpt><trkpt lat="45.8258652" lon="13.8303745"><ele>308.16666666666663</ele><time>2026-04-06T13:50:31.999Z</time></trkpt><trkpt lat="45.8258179" lon="13.8305018"><ele>307.0</ele><time>2026-04-06T13:50:34Z</time></trkpt><trkpt lat="45.8258079" lon="13.8306047"><ele>306.5</ele><time>2026-04-06T13:50:36.007Z</time></trkpt><trkpt lat="45.8258458" lon="13.830722"><ele>306.0</ele><time>2026-04-06T13:50:37.998Z</time></trkpt><trkpt lat="45.8259096" lon="13.8308229"><ele>305.5</ele><time>2026-04-06T13:50:40.007Z</time></trkpt><trkpt lat="45.825955" lon="13.8308866"><ele>305.0</ele><time>2026-04-06T13:50:41Z</time></trkpt><trkpt lat="45.826003" lon="13.8309523"><ele>304.5</ele><time>2026-04-06T13:50:42.011Z</time></trkpt><trkpt lat="45.8260824" lon="13.8310783"><ele>304.0</ele><time>2026-04-06T13:50:44.009Z</time></trkpt><trkpt lat="45.8261583" lon="13.8311951"><ele>302.4</ele><time>2026-04-06T13:50:46.012Z</time></trkpt><trkpt lat="45.8262151" lon="13.8312977"><ele>300.79999999999995</ele><time>2026-04-06T13:50:48.007Z</time></trkpt><trkpt lat="45.8262571" lon="13.8314212"><ele>299.20000000000005</ele><time>2026-04-06T13:50:50.014Z</time></trkpt><trkpt lat="45.8262634" lon="13.8315127"><ele>297.6</ele><time>2026-04-06T13:50:51.009Z</time></trkpt><trkpt lat="45.8262557" lon="13.8316548"><ele>296.0</ele><time>2026-04-06T13:50:52Z</time></trkpt><trkpt lat="45.8262544" lon="13.8318118"><ele>294.75</ele><time>2026-04-06T13:50:53Z</time></trkpt><trkpt lat="45.8262533" lon="13.831987"><ele>293.5</ele><time>2026-04-06T13:50:54.011Z</time></trkpt><trkpt lat="45.8262617" lon="13.8321707"><ele>292.25</ele><time>2026-04-06T13:50:55.009Z</time></trkpt><trkpt lat="45.8262663" lon="13.8323827"><ele>291.0</ele><time>2026-04-06T13:50:56.011Z</time></trkpt><trkpt lat="45.8262687" lon="13.8326067"><ele>290.5</ele><time>2026-04-06T13:50:57.001Z</time></trkpt><trkpt lat="45.8262731" lon="13.8328132"><ele>290.0</ele><time>2026-04-06T13:50:57.997Z</time></trkpt><trkpt lat="45.826277" lon="13.8330104"><ele>289.5</ele><time>2026-04-06T13:50:58.997Z</time></trkpt><trkpt lat="45.8262877" lon="13.8331923"><ele>289.0</ele><time>2026-04-06T13:50:59.999Z</time></trkpt><trkpt lat="45.8263094" lon="13.8333679"><ele>289.0</ele><time>2026-04-06T13:51:00.997Z</time></trkpt><trkpt lat="45.8263313" lon="13.833542"><ele>289.0</ele><time>2026-04-06T13:51:01.991Z</time></trkpt><trkpt lat="45.8263454" lon="13.8337203"><ele>289.0</ele><time>2026-04-06T13:51:03.011Z</time></trkpt><trkpt lat="45.8263506" lon="13.8338888"><ele>289.0</ele><time>2026-04-06T13:51:03.996Z</time></trkpt><trkpt lat="45.8263554" lon="13.8340547"><ele>289.0</ele><time>2026-04-06T13:51:04.996Z</time></trkpt><trkpt lat="45.8263603" lon="13.8342294"><ele>289.0</ele><time>2026-04-06T13:51:05.998Z</time></trkpt><trkpt lat="45.8263534" lon="13.8343995"><ele>289.0</ele><time>2026-04-06T13:51:07.001Z</time></trkpt><trkpt lat="45.8263325" lon="13.8345493"><ele>289.0</ele><time>2026-04-06T13:51:07.987Z</time></trkpt><trkpt lat="45.8263155" lon="13.8346953"><ele>290.8333333333333</ele><time>2026-04-06T13:51:09.018Z</time></trkpt><trkpt lat="45.8262909" lon="13.8348331"><ele>292.66666666666663</ele><time>2026-04-06T13:51:10.005Z</time></trkpt><trkpt lat="45.826264" lon="13.834952"><ele>294.5</ele><time>2026-04-06T13:51:10.996Z</time></trkpt><trkpt lat="45.826223" lon="13.8350317"><ele>296.3333333333333</ele><time>2026-04-06T13:51:11.991Z</time></trkpt><trkpt lat="45.8261636" lon="13.8351034"><ele>298.1666666666667</ele><time>2026-04-06T13:51:12.993Z</time></trkpt><trkpt lat="45.8260915" lon="13.8351723"><ele>300.0</ele><time>2026-04-06T13:51:13.997Z</time></trkpt><trkpt lat="45.8260257" lon="13.8352391"><ele>300.71428571428567</ele><time>2026-04-06T13:51:15.003Z</time></trkpt><trkpt lat="45.8259773" lon="13.8353108"><ele>301.42857142857144</ele><time>2026-04-06T13:51:16.024Z</time></trkpt><trkpt lat="45.8259638" lon="13.8354002"><ele>302.1428571428571</ele><time>2026-04-06T13:51:17.008Z</time></trkpt><trkpt lat="45.8259589" lon="13.8354955"><ele>302.85714285714283</ele><time>2026-04-06T13:51:17.992Z</time></trkpt><trkpt lat="45.8259697" lon="13.8356031"><ele>303.57142857142856</ele><time>2026-04-06T13:51:18.992Z</time></trkpt><trkpt lat="45.8259949" lon="13.83571"><ele>304.2857142857143</ele><time>2026-04-06T13:51:19.993Z</time></trkpt><trkpt lat="45.826009" lon="13.835822"><ele>305.0</ele><time>2026-04-06T13:51:21.001Z</time></trkpt><trkpt lat="45.8260036" lon="13.8359376"><ele>304.8571428571429</ele><time>2026-04-06T13:51:21.996Z</time></trkpt><trkpt lat="45.8259928" lon="13.8360524"><ele>304.71428571428567</ele><time>2026-04-06T13:51:23.01Z</time></trkpt><trkpt lat="45.8259904" lon="13.8361548"><ele>304.57142857142856</ele><time>2026-04-06T13:51:24.017Z</time></trkpt><trkpt lat="45.8260133" lon="13.8362497"><ele>304.42857142857144</ele><time>2026-04-06T13:51:25.001Z</time></trkpt><trkpt lat="45.8260473" lon="13.8363407"><ele>304.28571428571433</ele><time>2026-04-06T13:51:26.006Z</time></trkpt><trkpt lat="45.8260807" lon="13.8364258"><ele>304.1428571428571</ele><time>2026-04-06T13:51:26.991Z</time></trkpt><trkpt lat="45.8261005" lon="13.8365216"><ele>304.0</ele><time>2026-04-06T13:51:29.011Z</time></trkpt><trkpt lat="45.8261192" lon="13.8366177"><ele>304.0</ele><time>2026-04-06T13:51:32.001Z</time></trkpt><trkpt lat="45.8261497" lon="13.8367363"><ele>304.0</ele><time>2026-04-06T13:51:35.013Z</time></trkpt><trkpt lat="45.8261703" lon="13.8368429"><ele>304.0</ele><time>2026-04-06T13:51:37.026Z</time></trkpt><trkpt lat="45.8261288" lon="13.8370088"><ele>304.0</ele><time>2026-04-06T13:51:38.99Z</time></trkpt><trkpt lat="45.8260936" lon="13.8371167"><ele>304.0</ele><time>2026-04-06T13:51:39.996Z</time></trkpt><trkpt lat="45.8260575" lon="13.8372308"><ele>303.0</ele><time>2026-04-06T13:51:41.011Z</time></trkpt><trkpt lat="45.8260146" lon="13.8373508"><ele>302.0</ele><time>2026-04-06T13:51:42.001Z</time></trkpt><trkpt lat="45.8259772" lon="13.8374741"><ele>301.0</ele><time>2026-04-06T13:51:43Z</time></trkpt><trkpt lat="45.8259383" lon="13.8375941"><ele>300.0</ele><time>2026-04-06T13:51:44.001Z</time></trkpt><trkpt lat="45.8258961" lon="13.8377232"><ele>299.0</ele><time>2026-04-06T13:51:45Z</time></trkpt><trkpt lat="45.8258495" lon="13.8378376"><ele>301.5</ele><time>2026-04-06T13:51:46.007Z</time></trkpt><trkpt lat="45.8258091" lon="13.8379422"><ele>304.0</ele><time>2026-04-06T13:51:47.001Z</time></trkpt><trkpt lat="45.8257675" lon="13.8380402"><ele>306.5</ele><time>2026-04-06T13:51:48.002Z</time></trkpt><trkpt lat="45.8257259" lon="13.8381553"><ele>309.0</ele><time>2026-04-06T13:51:49.011Z</time></trkpt><trkpt lat="45.8256971" lon="13.8382719"><ele>311.5</ele><time>2026-04-06T13:51:50.005Z</time></trkpt><trkpt lat="45.8256872" lon="13.8384017"><ele>314.0</ele><time>2026-04-06T13:51:51.016Z</time></trkpt><trkpt lat="45.8257009" lon="13.8385339"><ele>314.0</ele><time>2026-04-06T13:51:51.994Z</time></trkpt><trkpt lat="45.8257199" lon="13.8386527"><ele>314.0</ele><time>2026-04-06T13:51:53.013Z</time></trkpt><trkpt lat="45.8257301" lon="13.8387657"><ele>314.0</ele><time>2026-04-06T13:51:54.002Z</time></trkpt><trkpt lat="45.8257287" lon="13.8388854"><ele>314.0</ele><time>2026-04-06T13:51:55.006Z</time></trkpt><trkpt lat="45.8257126" lon="13.8389992"><ele>314.0</ele><time>2026-04-06T13:51:56.013Z</time></trkpt><trkpt lat="45.825689" lon="13.8391117"><ele>314.0</ele><time>2026-04-06T13:51:57Z</time></trkpt><trkpt lat="45.8256685" lon="13.8392199"><ele>311.33333333333337</ele><time>2026-04-06T13:51:57.994Z</time></trkpt><trkpt lat="45.8256473" lon="13.8393342"><ele>308.6666666666667</ele><time>2026-04-06T13:51:59.004Z</time></trkpt><trkpt lat="45.8256318" lon="13.8394482"><ele>306.0</ele><time>2026-04-06T13:52:00.004Z</time></trkpt><trkpt lat="45.8256096" lon="13.839563"><ele>303.3333333333333</ele><time>2026-04-06T13:52:01.009Z</time></trkpt><trkpt lat="45.825572" lon="13.8396721"><ele>300.66666666666663</ele><time>2026-04-06T13:52:02.029Z</time></trkpt><trkpt lat="45.8255355" lon="13.8397789"><ele>298.0</ele><time>2026-04-06T13:52:02.997Z</time></trkpt><trkpt lat="45.8254986" lon="13.8398857"><ele>298.0</ele><time>2026-04-06T13:52:04Z</time></trkpt><trkpt lat="45.8254672" lon="13.8399964"><ele>298.0</ele><time>2026-04-06T13:52:05.003Z</time></trkpt><trkpt lat="45.8254358" lon="13.8401242"><ele>298.0</ele><time>2026-04-06T13:52:06.005Z</time></trkpt><trkpt lat="45.8253959" lon="13.8402377"><ele>298.0</ele><time>2026-04-06T13:52:07Z</time></trkpt><trkpt lat="45.825362" lon="13.8403372"><ele>298.0</ele><time>2026-04-06T13:52:07.998Z</time></trkpt><trkpt lat="45.8253233" lon="13.8404362"><ele>298.0</ele><time>2026-04-06T13:52:09.004Z</time></trkpt><trkpt lat="45.8252876" lon="13.8405355"><ele>298.2</ele><time>2026-04-06T13:52:09.997Z</time></trkpt><trkpt lat="45.8252561" lon="13.840638"><ele>298.4</ele><time>2026-04-06T13:52:10.997Z</time></trkpt><trkpt lat="45.8252144" lon="13.8407455"><ele>298.59999999999997</ele><time>2026-04-06T13:52:12.001Z</time></trkpt><trkpt lat="45.8251668" lon="13.8408547"><ele>298.8</ele><time>2026-04-06T13:52:13.005Z</time></trkpt><trkpt lat="45.8251161" lon="13.8409702"><ele>299.0</ele><time>2026-04-06T13:52:13.988Z</time></trkpt><trkpt lat="45.8250523" lon="13.8410886"><ele>299.0</ele><time>2026-04-06T13:52:15.001Z</time></trkpt><trkpt lat="45.8249894" lon="13.8412075"><ele>299.0</ele><time>2026-04-06T13:52:16.003Z</time></trkpt><trkpt lat="45.824927" lon="13.8413296"><ele>299.0</ele><time>2026-04-06T13:52:16.995Z</time></trkpt><trkpt lat="45.8248669" lon="13.8414476"><ele>299.0</ele><time>2026-04-06T13:52:18.009Z</time></trkpt><trkpt lat="45.8248053" lon="13.8415608"><ele>299.0</ele><time>2026-04-06T13:52:18.995Z</time></trkpt><trkpt lat="45.8247321" lon="13.841676"><ele>299.0</ele><time>2026-04-06T13:52:19.992Z</time></trkpt><trkpt lat="45.8246585" lon="13.841786"><ele>299.0</ele><time>2026-04-06T13:52:20.987Z</time></trkpt><trkpt lat="45.8245924" lon="13.841889"><ele>299.0</ele><time>2026-04-06T13:52:21.99Z</time></trkpt><trkpt lat="45.8245171" lon="13.8419884"><ele>299.0</ele><time>2026-04-06T13:52:23Z</time></trkpt><trkpt lat="45.8244416" lon="13.8420937"><ele>299.0</ele><time>2026-04-06T13:52:23.994Z</time></trkpt><trkpt lat="45.8243651" lon="13.8421984"><ele>300.8</ele><time>2026-04-06T13:52:24.992Z</time></trkpt><trkpt lat="45.8242898" lon="13.8422956"><ele>302.59999999999997</ele><time>2026-04-06T13:52:25.995Z</time></trkpt><trkpt lat="45.8242111" lon="13.8423838"><ele>304.4</ele><time>2026-04-06T13:52:26.997Z</time></trkpt><trkpt lat="45.8241389" lon="13.8424689"><ele>306.2</ele><time>2026-04-06T13:52:27.999Z</time></trkpt><trkpt lat="45.8240768" lon="13.8425518"><ele>308.0</ele><time>2026-04-06T13:52:28.996Z</time></trkpt><trkpt lat="45.8240198" lon="13.8426304"><ele>308.0</ele><time>2026-04-06T13:52:29.999Z</time></trkpt><trkpt lat="45.8239705" lon="13.842695"><ele>308.0</ele><time>2026-04-06T13:52:31.015Z</time></trkpt><trkpt lat="45.823888" lon="13.8427654"><ele>308.0</ele><time>2026-04-06T13:52:32.998Z</time></trkpt><trkpt lat="45.8238146" lon="13.8428394"><ele>308.0</ele><time>2026-04-06T13:52:35.001Z</time></trkpt><trkpt lat="45.8237316" lon="13.8429682"><ele>308.0</ele><time>2026-04-06T13:52:37.003Z</time></trkpt><trkpt lat="45.8236969" lon="13.8430502"><ele>308.0</ele><time>2026-04-06T13:52:37.995Z</time></trkpt><trkpt lat="45.8236599" lon="13.8431359"><ele>308.0</ele><time>2026-04-06T13:52:39.001Z</time></trkpt><trkpt lat="45.8236155" lon="13.8432111"><ele>308.0</ele><time>2026-04-06T13:52:40Z</time></trkpt><trkpt lat="45.8235597" lon="13.8432722"><ele>308.0</ele><time>2026-04-06T13:52:40.999Z</time></trkpt><trkpt lat="45.8235044" lon="13.8433355"><ele>308.0</ele><time>2026-04-06T13:52:41.995Z</time></trkpt><trkpt lat="45.8234541" lon="13.8433934"><ele>308.0</ele><time>2026-04-06T13:52:42.996Z</time></trkpt><trkpt lat="45.823373" lon="13.8435046"><ele>308.0</ele><time>2026-04-06T13:52:45.009Z</time></trkpt><trkpt lat="45.8233014" lon="13.8436187"><ele>309.5</ele><time>2026-04-06T13:52:47.005Z</time></trkpt><trkpt lat="45.8232032" lon="13.8436984"><ele>311.0</ele><time>2026-04-06T13:52:49.004Z</time></trkpt><trkpt lat="45.8231299" lon="13.8436981"><ele>312.5</ele><time>2026-04-06T13:52:50.006Z</time></trkpt><trkpt lat="45.8230534" lon="13.8436849"><ele>314.0</ele><time>2026-04-06T13:52:50.991Z</time></trkpt><trkpt lat="45.822971" lon="13.8436641"><ele>315.5</ele><time>2026-04-06T13:52:52Z</time></trkpt><trkpt lat="45.8228986" lon="13.8436519"><ele>317.0</ele><time>2026-04-06T13:52:53.004Z</time></trkpt><trkpt lat="45.8228308" lon="13.8436421"><ele>317.0</ele><time>2026-04-06T13:52:54.001Z</time></trkpt><trkpt lat="45.822738" lon="13.8436776"><ele>317.0</ele><time>2026-04-06T13:52:56.001Z</time></trkpt><trkpt lat="45.8227092" lon="13.8438124"><ele>317.0</ele><time>2026-04-06T13:52:57.998Z</time></trkpt><trkpt lat="45.822716" lon="13.8440043"><ele>317.0</ele><time>2026-04-06T13:53:00.002Z</time></trkpt><trkpt lat="45.822711" lon="13.8441165"><ele>317.0</ele><time>2026-04-06T13:53:00.993Z</time></trkpt><trkpt lat="45.8227037" lon="13.8442254"><ele>318.83333333333337</ele><time>2026-04-06T13:53:01.99Z</time></trkpt><trkpt lat="45.8227026" lon="13.8443355"><ele>320.6666666666667</ele><time>2026-04-06T13:53:02.993Z</time></trkpt><trkpt lat="45.8227092" lon="13.8444526"><ele>322.5</ele><time>2026-04-06T13:53:03.997Z</time></trkpt><trkpt lat="45.8227277" lon="13.8445819"><ele>324.3333333333333</ele><time>2026-04-06T13:53:05.001Z</time></trkpt><trkpt lat="45.8227472" lon="13.844718"><ele>326.16666666666663</ele><time>2026-04-06T13:53:05.992Z</time></trkpt><trkpt lat="45.8227688" lon="13.8448608"><ele>328.0</ele><time>2026-04-06T13:53:07.009Z</time></trkpt><trkpt lat="45.8227822" lon="13.8450125"><ele>330.2</ele><time>2026-04-06T13:53:07.991Z</time></trkpt><trkpt lat="45.8227835" lon="13.845166"><ele>332.4</ele><time>2026-04-06T13:53:08.993Z</time></trkpt><trkpt lat="45.8227465" lon="13.8453136"><ele>334.59999999999997</ele><time>2026-04-06T13:53:09.993Z</time></trkpt><trkpt lat="45.8227022" lon="13.8454556"><ele>336.79999999999995</ele><time>2026-04-06T13:53:10.996Z</time></trkpt><trkpt lat="45.8226658" lon="13.8455894"><ele>339.0</ele><time>2026-04-06T13:53:12.015Z</time></trkpt><trkpt lat="45.82264" lon="13.8457277"><ele>332.59999999999997</ele><time>2026-04-06T13:53:12.986Z</time></trkpt><trkpt lat="45.8226212" lon="13.8458618"><ele>326.2</ele><time>2026-04-06T13:53:13.988Z</time></trkpt><trkpt lat="45.822605" lon="13.8460026"><ele>319.79999999999995</ele><time>2026-04-06T13:53:14.988Z</time></trkpt><trkpt lat="45.8225865" lon="13.8461498"><ele>313.4</ele><time>2026-04-06T13:53:15.989Z</time></trkpt><trkpt lat="45.8225704" lon="13.8463026"><ele>307.0</ele><time>2026-04-06T13:53:16.989Z</time></trkpt><trkpt lat="45.822551" lon="13.8464488"><ele>307.0</ele><time>2026-04-06T13:53:17.994Z</time></trkpt><trkpt lat="45.8225253" lon="13.8465938"><ele>307.0</ele><time>2026-04-06T13:53:18.991Z</time></trkpt><trkpt lat="45.8224958" lon="13.8467503"><ele>307.0</ele><time>2026-04-06T13:53:19.99Z</time></trkpt><trkpt lat="45.8224621" lon="13.846905"><ele>307.0</ele><time>2026-04-06T13:53:20.993Z</time></trkpt><trkpt lat="45.8224206" lon="13.84706"><ele>307.0</ele><time>2026-04-06T13:53:21.983Z</time></trkpt><trkpt lat="45.8223707" lon="13.8472158"><ele>306.5</ele><time>2026-04-06T13:53:23.018Z</time></trkpt><trkpt lat="45.8223115" lon="13.8473661"><ele>306.0</ele><time>2026-04-06T13:53:23.986Z</time></trkpt><trkpt lat="45.8222406" lon="13.8475184"><ele>305.5</ele><time>2026-04-06T13:53:24.99Z</time></trkpt><trkpt lat="45.8221619" lon="13.8476612"><ele>305.0</ele><time>2026-04-06T13:53:25.989Z</time></trkpt><trkpt lat="45.8220812" lon="13.8477963"><ele>305.0</ele><time>2026-04-06T13:53:26.987Z</time></trkpt><trkpt lat="45.8220088" lon="13.8479281"><ele>305.0</ele><time>2026-04-06T13:53:27.989Z</time></trkpt><trkpt lat="45.8219393" lon="13.8480504"><ele>305.0</ele><time>2026-04-06T13:53:28.985Z</time></trkpt><trkpt lat="45.8218737" lon="13.8481625"><ele>305.0</ele><time>2026-04-06T13:53:29.995Z</time></trkpt><trkpt lat="45.8218177" lon="13.8482611"><ele>305.0</ele><time>2026-04-06T13:53:30.994Z</time></trkpt><trkpt lat="45.8217642" lon="13.8483541"><ele>303.83333333333337</ele><time>2026-04-06T13:53:32.99Z</time></trkpt><trkpt lat="45.8217113" lon="13.8484202"><ele>302.6666666666667</ele><time>2026-04-06T13:53:35.997Z</time></trkpt><trkpt lat="45.821664" lon="13.8484902"><ele>301.5</ele><time>2026-04-06T13:53:37.991Z</time></trkpt><trkpt lat="45.8216277" lon="13.848584"><ele>300.3333333333333</ele><time>2026-04-06T13:53:39.992Z</time></trkpt><trkpt lat="45.8215764" lon="13.8486807"><ele>299.16666666666663</ele><time>2026-04-06T13:53:42.998Z</time></trkpt><trkpt lat="45.8215137" lon="13.848767"><ele>298.0</ele><time>2026-04-06T13:53:46.003Z</time></trkpt><trkpt lat="45.8214629" lon="13.848832"><ele>298.0</ele><time>2026-04-06T13:53:48.004Z</time></trkpt><trkpt lat="45.8214024" lon="13.8489009"><ele>298.0</ele><time>2026-04-06T13:53:50.012Z</time></trkpt><trkpt lat="45.8213171" lon="13.849001"><ele>298.0</ele><time>2026-04-06T13:53:52.005Z</time></trkpt><trkpt lat="45.82126" lon="13.8490665"><ele>298.0</ele><time>2026-04-06T13:53:53.007Z</time></trkpt><trkpt lat="45.8211812" lon="13.8491511"><ele>298.0</ele><time>2026-04-06T13:53:54.005Z</time></trkpt><trkpt lat="45.8210953" lon="13.8492402"><ele>299.75</ele><time>2026-04-06T13:53:55.015Z</time></trkpt><trkpt lat="45.8209907" lon="13.8493321"><ele>301.5</ele><time>2026-04-06T13:53:55.998Z</time></trkpt><trkpt lat="45.820872" lon="13.849423"><ele>303.25</ele><time>2026-04-06T13:53:56.992Z</time></trkpt><trkpt lat="45.8207446" lon="13.8495135"><ele>305.0</ele><time>2026-04-06T13:53:57.994Z</time></trkpt><trkpt lat="45.8206194" lon="13.8496076"><ele>305.0</ele><time>2026-04-06T13:53:58.987Z</time></trkpt><trkpt lat="45.820491" lon="13.8497085"><ele>305.0</ele><time>2026-04-06T13:54:00Z</time></trkpt><trkpt lat="45.8203583" lon="13.8498123"><ele>305.0</ele><time>2026-04-06T13:54:00.986Z</time></trkpt><trkpt lat="45.8202358" lon="13.8499157"><ele>305.0</ele><time>2026-04-06T13:54:01.99Z</time></trkpt><trkpt lat="45.8201197" lon="13.850012"><ele>301.75</ele><time>2026-04-06T13:54:02.988Z</time></trkpt><trkpt lat="45.8200096" lon="13.8501034"><ele>298.5</ele><time>2026-04-06T13:54:03.988Z</time></trkpt><trkpt lat="45.8198951" lon="13.8501954"><ele>295.25</ele><time>2026-04-06T13:54:04.992Z</time></trkpt><trkpt lat="45.8197874" lon="13.8503063"><ele>292.0</ele><time>2026-04-06T13:54:05.981Z</time></trkpt><trkpt lat="45.8196862" lon="13.8504156"><ele>292.0</ele><time>2026-04-06T13:54:06.983Z</time></trkpt><trkpt lat="45.8195848" lon="13.8505361"><ele>292.0</ele><time>2026-04-06T13:54:07.992Z</time></trkpt><trkpt lat="45.8194855" lon="13.8506591"><ele>292.0</ele><time>2026-04-06T13:54:08.984Z</time></trkpt><trkpt lat="45.8193853" lon="13.8507839"><ele>292.0</ele><time>2026-04-06T13:54:09.981Z</time></trkpt><trkpt lat="45.8192797" lon="13.8509019"><ele>298.75</ele><time>2026-04-06T13:54:10.988Z</time></trkpt><trkpt lat="45.8191827" lon="13.8510182"><ele>305.5</ele><time>2026-04-06T13:54:11.986Z</time></trkpt><trkpt lat="45.8190898" lon="13.8511287"><ele>312.25</ele><time>2026-04-06T13:54:12.988Z</time></trkpt><trkpt lat="45.8189924" lon="13.8512406"><ele>319.0</ele><time>2026-04-06T13:54:13.984Z</time></trkpt><trkpt lat="45.8189053" lon="13.851352"><ele>319.0</ele><time>2026-04-06T13:54:14.984Z</time></trkpt><trkpt lat="45.8188263" lon="13.8514732"><ele>319.0</ele><time>2026-04-06T13:54:15.986Z</time></trkpt><trkpt lat="45.8187462" lon="13.8516091"><ele>319.0</ele><time>2026-04-06T13:54:16.985Z</time></trkpt><trkpt lat="45.8186749" lon="13.8517412"><ele>319.0</ele><time>2026-04-06T13:54:17.977Z</time></trkpt><trkpt lat="45.8186029" lon="13.8518727"><ele>320.0</ele><time>2026-04-06T13:54:18.982Z</time></trkpt><trkpt lat="45.8185271" lon="13.8520039"><ele>321.0</ele><time>2026-04-06T13:54:19.978Z</time></trkpt><trkpt lat="45.8184503" lon="13.8521293"><ele>322.0</ele><time>2026-04-06T13:54:20.996Z</time></trkpt><trkpt lat="45.8183758" lon="13.8522459"><ele>323.0</ele><time>2026-04-06T13:54:21.983Z</time></trkpt><trkpt lat="45.8183016" lon="13.85235"><ele>324.0</ele><time>2026-04-06T13:54:22.987Z</time></trkpt><trkpt lat="45.8182356" lon="13.8524365"><ele>321.0</ele><time>2026-04-06T13:54:23.986Z</time></trkpt><trkpt lat="45.8181756" lon="13.8525187"><ele>318.0</ele><time>2026-04-06T13:54:24.987Z</time></trkpt><trkpt lat="45.8181217" lon="13.8526103"><ele>315.0</ele><time>2026-04-06T13:54:25.987Z</time></trkpt><trkpt lat="45.8180512" lon="13.8526926"><ele>312.0</ele><time>2026-04-06T13:54:26.995Z</time></trkpt><trkpt lat="45.8179616" lon="13.8527634"><ele>309.0</ele><time>2026-04-06T13:54:28.001Z</time></trkpt><trkpt lat="45.8178693" lon="13.8528249"><ele>309.0</ele><time>2026-04-06T13:54:29.003Z</time></trkpt><trkpt lat="45.81778" lon="13.8528931"><ele>309.0</ele><time>2026-04-06T13:54:30.003Z</time></trkpt><trkpt lat="45.817687" lon="13.8529621"><ele>309.0</ele><time>2026-04-06T13:54:31.002Z</time></trkpt><trkpt lat="45.8175942" lon="13.8530445"><ele>309.0</ele><time>2026-04-06T13:54:32.005Z</time></trkpt><trkpt lat="45.8174992" lon="13.8531268"><ele>309.0</ele><time>2026-04-06T13:54:33.012Z</time></trkpt><trkpt lat="45.8174086" lon="13.8532046"><ele>309.5</ele><time>2026-04-06T13:54:33.999Z</time></trkpt><trkpt lat="45.8173252" lon="13.8532768"><ele>310.0</ele><time>2026-04-06T13:54:35.003Z</time></trkpt><trkpt lat="45.8172445" lon="13.8533542"><ele>310.5</ele><time>2026-04-06T13:54:35.999Z</time></trkpt><trkpt lat="45.817182" lon="13.8534378"><ele>311.0</ele><time>2026-04-06T13:54:37.003Z</time></trkpt><trkpt lat="45.8171409" lon="13.8535335"><ele>311.5</ele><time>2026-04-06T13:54:37.995Z</time></trkpt><trkpt lat="45.8171034" lon="13.8536117"><ele>312.0</ele><time>2026-04-06T13:54:39.001Z</time></trkpt><trkpt lat="45.8170603" lon="13.853755"><ele>312.0</ele><time>2026-04-06T13:54:41.005Z</time></trkpt><trkpt lat="45.8170549" lon="13.8538474"><ele>312.0</ele><time>2026-04-06T13:54:42.001Z</time></trkpt><trkpt lat="45.8170417" lon="13.8539424"><ele>312.0</ele><time>2026-04-06T13:54:43.008Z</time></trkpt><trkpt lat="45.817016" lon="13.8540533"><ele>312.0</ele><time>2026-04-06T13:54:43.993Z</time></trkpt><trkpt lat="45.8169618" lon="13.8541763"><ele>312.0</ele><time>2026-04-06T13:54:45Z</time></trkpt><trkpt lat="45.8168816" lon="13.8542897"><ele>312.0</ele><time>2026-04-06T13:54:45.989Z</time></trkpt><trkpt lat="45.8168164" lon="13.8544114"><ele>314.2</ele><time>2026-04-06T13:54:46.997Z</time></trkpt><trkpt lat="45.816746" lon="13.8545306"><ele>316.4</ele><time>2026-04-06T13:54:47.982Z</time></trkpt><trkpt lat="45.8166717" lon="13.8546368"><ele>318.59999999999997</ele><time>2026-04-06T13:54:48.996Z</time></trkpt><trkpt lat="45.8165999" lon="13.8547151"><ele>320.79999999999995</ele><time>2026-04-06T13:54:49.998Z</time></trkpt><trkpt lat="45.8165328" lon="13.8547785"><ele>323.0</ele><time>2026-04-06T13:54:50.993Z</time></trkpt><trkpt lat="45.8164621" lon="13.8548368"><ele>323.0</ele><time>2026-04-06T13:54:51.994Z</time></trkpt><trkpt lat="45.8163908" lon="13.8548904"><ele>323.0</ele><time>2026-04-06T13:54:52.993Z</time></trkpt><trkpt lat="45.8163287" lon="13.8549482"><ele>323.0</ele><time>2026-04-06T13:54:54.001Z</time></trkpt><trkpt lat="45.8162735" lon="13.8550102"><ele>323.0</ele><time>2026-04-06T13:54:54.992Z</time></trkpt><trkpt lat="45.8162288" lon="13.8550797"><ele>323.0</ele><time>2026-04-06T13:54:55.993Z</time></trkpt><trkpt lat="45.8162002" lon="13.8551772"><ele>323.0</ele><time>2026-04-06T13:54:57.002Z</time></trkpt><trkpt lat="45.8161752" lon="13.8552942"><ele>323.0</ele><time>2026-04-06T13:54:57.989Z</time></trkpt><trkpt lat="45.8161493" lon="13.855399"><ele>323.0</ele><time>2026-04-06T13:54:59.001Z</time></trkpt><trkpt lat="45.8160825" lon="13.8555249"><ele>323.0</ele><time>2026-04-06T13:55:00.996Z</time></trkpt><trkpt lat="45.8160285" lon="13.8555739"><ele>323.0</ele><time>2026-04-06T13:55:02.01Z</time></trkpt><trkpt lat="45.815967" lon="13.8556129"><ele>323.0</ele><time>2026-04-06T13:55:02.984Z</time></trkpt><trkpt lat="45.8159095" lon="13.8556618"><ele>323.0</ele><time>2026-04-06T13:55:03.994Z</time></trkpt><trkpt lat="45.8158573" lon="13.8557304"><ele>323.0</ele><time>2026-04-06T13:55:04.991Z</time></trkpt><trkpt lat="45.8158071" lon="13.8558106"><ele>323.0</ele><time>2026-04-06T13:55:05.99Z</time></trkpt><trkpt lat="45.8157547" lon="13.8558866"><ele>323.0</ele><time>2026-04-06T13:55:07.015Z</time></trkpt><trkpt lat="45.8156917" lon="13.8559652"><ele>323.0</ele><time>2026-04-06T13:55:07.996Z</time></trkpt><trkpt lat="45.8156177" lon="13.8560734"><ele>323.0</ele><time>2026-04-06T13:55:08.996Z</time></trkpt><trkpt lat="45.8155581" lon="13.8561844"><ele>323.0</ele><time>2026-04-06T13:55:09.993Z</time></trkpt><trkpt lat="45.8154977" lon="13.8562973"><ele>324.4</ele><time>2026-04-06T13:55:10.99Z</time></trkpt><trkpt lat="45.8154342" lon="13.8564197"><ele>325.79999999999995</ele><time>2026-04-06T13:55:12.015Z</time></trkpt><trkpt lat="45.815369" lon="13.8565435"><ele>327.2</ele><time>2026-04-06T13:55:12.998Z</time></trkpt><trkpt lat="45.8153018" lon="13.8566628"><ele>328.6</ele><time>2026-04-06T13:55:13.993Z</time></trkpt><trkpt lat="45.8152402" lon="13.8567748"><ele>330.0</ele><time>2026-04-06T13:55:14.996Z</time></trkpt><trkpt lat="45.8151772" lon="13.8568757"><ele>327.4</ele><time>2026-04-06T13:55:15.996Z</time></trkpt><trkpt lat="45.8151132" lon="13.856974"><ele>324.8</ele><time>2026-04-06T13:55:17Z</time></trkpt><trkpt lat="45.8150533" lon="13.8570749"><ele>322.2</ele><time>2026-04-06T13:55:17.993Z</time></trkpt><trkpt lat="45.8149932" lon="13.8571731"><ele>319.6</ele><time>2026-04-06T13:55:18.994Z</time></trkpt><trkpt lat="45.8149303" lon="13.8572713"><ele>317.0</ele><time>2026-04-06T13:55:19.987Z</time></trkpt><trkpt lat="45.8148679" lon="13.8573703"><ele>317.0</ele><time>2026-04-06T13:55:20.986Z</time></trkpt><trkpt lat="45.8148085" lon="13.8574641"><ele>317.0</ele><time>2026-04-06T13:55:22.012Z</time></trkpt><trkpt lat="45.8147685" lon="13.8575569"><ele>317.0</ele><time>2026-04-06T13:55:22.986Z</time></trkpt><trkpt lat="45.8147427" lon="13.8577186"><ele>317.0</ele><time>2026-04-06T13:55:24.982Z</time></trkpt><trkpt lat="45.8147201" lon="13.8578047"><ele>317.0</ele><time>2026-04-06T13:55:25.992Z</time></trkpt><trkpt lat="45.8146881" lon="13.8578968"><ele>317.0</ele><time>2026-04-06T13:55:26.987Z</time></trkpt><trkpt lat="45.8146482" lon="13.8579853"><ele>315.5</ele><time>2026-04-06T13:55:27.988Z</time></trkpt><trkpt lat="45.8146051" lon="13.8580667"><ele>314.0</ele><time>2026-04-06T13:55:28.99Z</time></trkpt><trkpt lat="45.8145605" lon="13.8581306"><ele>312.5</ele><time>2026-04-06T13:55:29.986Z</time></trkpt><trkpt lat="45.8144454" lon="13.8582348"><ele>311.0</ele><time>2026-04-06T13:55:31.991Z</time></trkpt><trkpt lat="45.8143724" lon="13.8582784"><ele>309.5</ele><time>2026-04-06T13:55:32.983Z</time></trkpt><trkpt lat="45.814305" lon="13.8583273"><ele>308.0</ele><time>2026-04-06T13:55:33.985Z</time></trkpt><trkpt lat="45.8142542" lon="13.8583985"><ele>311.6</ele><time>2026-04-06T13:55:34.986Z</time></trkpt><trkpt lat="45.814203" lon="13.8584912"><ele>315.20000000000005</ele><time>2026-04-06T13:55:35.995Z</time></trkpt><trkpt lat="45.8141461" lon="13.8585816"><ele>318.8</ele><time>2026-04-06T13:55:36.988Z</time></trkpt><trkpt lat="45.8140767" lon="13.8586705"><ele>322.40000000000003</ele><time>2026-04-06T13:55:37.985Z</time></trkpt><trkpt lat="45.8140021" lon="13.8587581"><ele>326.0</ele><time>2026-04-06T13:55:38.996Z</time></trkpt><trkpt lat="45.8139249" lon="13.8588494"><ele>326.0</ele><time>2026-04-06T13:55:39.985Z</time></trkpt><trkpt lat="45.8138443" lon="13.8589332"><ele>326.0</ele><time>2026-04-06T13:55:40.999Z</time></trkpt><trkpt lat="45.8137648" lon="13.8589947"><ele>326.0</ele><time>2026-04-06T13:55:41.991Z</time></trkpt><trkpt lat="45.8136865" lon="13.8590183"><ele>326.0</ele><time>2026-04-06T13:55:42.987Z</time></trkpt><trkpt lat="45.8136136" lon="13.8590285"><ele>326.0</ele><time>2026-04-06T13:55:43.984Z</time></trkpt><trkpt lat="45.8135487" lon="13.859042"><ele>326.0</ele><time>2026-04-06T13:55:44.997Z</time></trkpt><trkpt lat="45.8134474" lon="13.8591301"><ele>326.5</ele><time>2026-04-06T13:55:47.011Z</time></trkpt><trkpt lat="45.8133949" lon="13.8592032"><ele>327.0</ele><time>2026-04-06T13:55:47.984Z</time></trkpt><trkpt lat="45.8133409" lon="13.8592799"><ele>327.5</ele><time>2026-04-06T13:55:48.99Z</time></trkpt><trkpt lat="45.8132798" lon="13.8593488"><ele>328.0</ele><time>2026-04-06T13:55:49.996Z</time></trkpt><trkpt lat="45.8132076" lon="13.8594094"><ele>328.5</ele><time>2026-04-06T13:55:50.996Z</time></trkpt><trkpt lat="45.8131341" lon="13.8594903"><ele>329.0</ele><time>2026-04-06T13:55:51.994Z</time></trkpt><trkpt lat="45.8130617" lon="13.8595859"><ele>329.0</ele><time>2026-04-06T13:55:52.99Z</time></trkpt><trkpt lat="45.8130099" lon="13.8596823"><ele>329.0</ele><time>2026-04-06T13:55:53.996Z</time></trkpt><trkpt lat="45.8129723" lon="13.8597853"><ele>329.0</ele><time>2026-04-06T13:55:54.998Z</time></trkpt><trkpt lat="45.8129455" lon="13.8598965"><ele>329.0</ele><time>2026-04-06T13:55:55.999Z</time></trkpt><trkpt lat="45.8129328" lon="13.859992"><ele>329.0</ele><time>2026-04-06T13:55:56.98Z</time></trkpt><trkpt lat="45.8128901" lon="13.8601257"><ele>329.0</ele><time>2026-04-06T13:55:58.992Z</time></trkpt><trkpt lat="45.812824" lon="13.8602603"><ele>327.6</ele><time>2026-04-06T13:56:01.008Z</time></trkpt><trkpt lat="45.8127834" lon="13.8603358"><ele>326.2</ele><time>2026-04-06T13:56:01.991Z</time></trkpt><trkpt lat="45.8127105" lon="13.8604793"><ele>324.8</ele><time>2026-04-06T13:56:03.995Z</time></trkpt><trkpt lat="45.812635" lon="13.8606483"><ele>323.40000000000003</ele><time>2026-04-06T13:56:05.998Z</time></trkpt><trkpt lat="45.8125928" lon="13.8607316"><ele>322.0</ele><time>2026-04-06T13:56:06.996Z</time></trkpt><trkpt lat="45.8125472" lon="13.8608062"><ele>322.0</ele><time>2026-04-06T13:56:07.996Z</time></trkpt><trkpt lat="45.8124985" lon="13.8608789"><ele>322.0</ele><time>2026-04-06T13:56:08.992Z</time></trkpt><trkpt lat="45.812444" lon="13.8609393"><ele>322.0</ele><time>2026-04-06T13:56:09.999Z</time></trkpt><trkpt lat="45.8123797" lon="13.8609816"><ele>322.0</ele><time>2026-04-06T13:56:10.99Z</time></trkpt><trkpt lat="45.812314" lon="13.8610185"><ele>322.0</ele><time>2026-04-06T13:56:11.991Z</time></trkpt><trkpt lat="45.8122384" lon="13.8610498"><ele>322.0</ele><time>2026-04-06T13:56:13.001Z</time></trkpt><trkpt lat="45.8121715" lon="13.8610793"><ele>322.0</ele><time>2026-04-06T13:56:14.001Z</time></trkpt><trkpt lat="45.8120816" lon="13.8611419"><ele>323.16666666666663</ele><time>2026-04-06T13:56:16.012Z</time></trkpt><trkpt lat="45.8120216" lon="13.8612587"><ele>324.3333333333333</ele><time>2026-04-06T13:56:18.008Z</time></trkpt><trkpt lat="45.8119642" lon="13.86141"><ele>325.5</ele><time>2026-04-06T13:56:20.004Z</time></trkpt><trkpt lat="45.8119321" lon="13.8614908"><ele>326.6666666666667</ele><time>2026-04-06T13:56:21.005Z</time></trkpt><trkpt lat="45.8118957" lon="13.8615894"><ele>327.83333333333337</ele><time>2026-04-06T13:56:21.993Z</time></trkpt><trkpt lat="45.8118647" lon="13.8616881"><ele>329.0</ele><time>2026-04-06T13:56:22.996Z</time></trkpt><trkpt lat="45.8118345" lon="13.8617931"><ele>328.83333333333337</ele><time>2026-04-06T13:56:23.988Z</time></trkpt><trkpt lat="45.8118073" lon="13.8619015"><ele>328.6666666666667</ele><time>2026-04-06T13:56:25.024Z</time></trkpt><trkpt lat="45.8117788" lon="13.8620024"><ele>328.5</ele><time>2026-04-06T13:56:25.995Z</time></trkpt><trkpt lat="45.8117701" lon="13.8621288"><ele>328.3333333333333</ele><time>2026-04-06T13:56:28.007Z</time></trkpt><trkpt lat="45.8117596" lon="13.8622889"><ele>328.16666666666663</ele><time>2026-04-06T13:56:30.002Z</time></trkpt><trkpt lat="45.8117229" lon="13.8624075"><ele>328.0</ele><time>2026-04-06T13:56:32.009Z</time></trkpt><trkpt lat="45.8116256" lon="13.8624369"><ele>328.0</ele><time>2026-04-06T13:56:34.989Z</time></trkpt><trkpt lat="45.8115237" lon="13.8624412"><ele>328.0</ele><time>2026-04-06T13:56:37.002Z</time></trkpt><trkpt lat="45.8114336" lon="13.8624656"><ele>328.0</ele><time>2026-04-06T13:56:39.027Z</time></trkpt><trkpt lat="45.8113593" lon="13.8624646"><ele>328.0</ele><time>2026-04-06T13:56:41.009Z</time></trkpt><trkpt lat="45.8113101" lon="13.8625308"><ele>328.0</ele><time>2026-04-06T13:56:42.996Z</time></trkpt><trkpt lat="45.8112808" lon="13.8626831"><ele>328.0</ele><time>2026-04-06T13:56:44.994Z</time></trkpt><trkpt lat="45.8112589" lon="13.8627704"><ele>329.3333333333333</ele><time>2026-04-06T13:56:46.004Z</time></trkpt><trkpt lat="45.8111938" lon="13.8628845"><ele>330.66666666666663</ele><time>2026-04-06T13:56:48.007Z</time></trkpt><trkpt lat="45.8111052" lon="13.862947"><ele>332.0</ele><time>2026-04-06T13:56:49.994Z</time></trkpt><trkpt lat="45.8110418" lon="13.8630062"><ele>333.3333333333333</ele><time>2026-04-06T13:56:52.012Z</time></trkpt><trkpt lat="45.8110788" lon="13.863142"><ele>334.6666666666667</ele><time>2026-04-06T13:56:54.011Z</time></trkpt><trkpt lat="45.8111157" lon="13.8632226"><ele>336.0</ele><time>2026-04-06T13:56:54.994Z</time></trkpt><trkpt lat="45.8111531" lon="13.8633084"><ele>336.0</ele><time>2026-04-06T13:56:55.992Z</time></trkpt><trkpt lat="45.8111833" lon="13.8633988"><ele>336.0</ele><time>2026-04-06T13:56:57.013Z</time></trkpt><trkpt lat="45.8112104" lon="13.8634903"><ele>336.0</ele><time>2026-04-06T13:56:58.017Z</time></trkpt><trkpt lat="45.8112362" lon="13.8635873"><ele>336.0</ele><time>2026-04-06T13:56:59.015Z</time></trkpt><trkpt lat="45.8112601" lon="13.8636851"><ele>336.0</ele><time>2026-04-06T13:57:00.026Z</time></trkpt><trkpt lat="45.8112842" lon="13.863789"><ele>336.0</ele><time>2026-04-06T13:57:01.013Z</time></trkpt><trkpt lat="45.811305" lon="13.86389"><ele>336.0</ele><time>2026-04-06T13:57:02.015Z</time></trkpt><trkpt lat="45.8113226" lon="13.8639878"><ele>337.0</ele><time>2026-04-06T13:57:03Z</time></trkpt><trkpt lat="45.8113484" lon="13.8640836"><ele>338.0</ele><time>2026-04-06T13:57:03.992Z</time></trkpt><trkpt lat="45.8113789" lon="13.8641738"><ele>339.0</ele><time>2026-04-06T13:57:05.004Z</time></trkpt><trkpt lat="45.8113986" lon="13.8642646"><ele>340.0</ele><time>2026-04-06T13:57:06.002Z</time></trkpt><trkpt lat="45.8114114" lon="13.8643609"><ele>341.0</ele><time>2026-04-06T13:57:06.998Z</time></trkpt><trkpt lat="45.8114239" lon="13.8644599"><ele>342.0</ele><time>2026-04-06T13:57:08.001Z</time></trkpt><trkpt lat="45.8114257" lon="13.864563"><ele>343.0</ele><time>2026-04-06T13:57:09.001Z</time></trkpt><trkpt lat="45.8114144" lon="13.8646728"><ele>343.3333333333333</ele><time>2026-04-06T13:57:09.998Z</time></trkpt><trkpt lat="45.8113955" lon="13.8647829"><ele>343.66666666666663</ele><time>2026-04-06T13:57:10.995Z</time></trkpt><trkpt lat="45.8113723" lon="13.8648835"><ele>344.0</ele><time>2026-04-06T13:57:12.001Z</time></trkpt><trkpt lat="45.8113452" lon="13.864979"><ele>344.3333333333333</ele><time>2026-04-06T13:57:13.003Z</time></trkpt><trkpt lat="45.8113285" lon="13.8651241"><ele>344.6666666666667</ele><time>2026-04-06T13:57:15.016Z</time></trkpt><trkpt lat="45.8113734" lon="13.8652576"><ele>345.0</ele><time>2026-04-06T13:57:17.008Z</time></trkpt><trkpt lat="45.8114323" lon="13.8654094"><ele>345.2</ele><time>2026-04-06T13:57:19.001Z</time></trkpt><trkpt lat="45.8114608" lon="13.8654922"><ele>345.4</ele><time>2026-04-06T13:57:19.998Z</time></trkpt><trkpt lat="45.8114842" lon="13.8655793"><ele>345.6</ele><time>2026-04-06T13:57:21.018Z</time></trkpt><trkpt lat="45.811506" lon="13.8657397"><ele>345.8</ele><time>2026-04-06T13:57:23.005Z</time></trkpt><trkpt lat="45.8114931" lon="13.8659065"><ele>346.0</ele><time>2026-04-06T13:57:25.016Z</time></trkpt><trkpt lat="45.8114835" lon="13.8660637"><ele>346.66666666666663</ele><time>2026-04-06T13:57:27.001Z</time></trkpt><trkpt lat="45.8114974" lon="13.8662129"><ele>347.3333333333333</ele><time>2026-04-06T13:57:29.004Z</time></trkpt><trkpt lat="45.8115037" lon="13.866364"><ele>348.0</ele><time>2026-04-06T13:57:31.005Z</time></trkpt><trkpt lat="45.8114734" lon="13.8664478"><ele>348.6666666666667</ele><time>2026-04-06T13:57:43.004Z</time></trkpt><trkpt lat="45.8114091" lon="13.8664837"><ele>349.33333333333337</ele><time>2026-04-06T13:57:53.003Z</time></trkpt><trkpt lat="45.8114717" lon="13.8664674"><ele>350.0</ele><time>2026-04-06T13:58:02.005Z</time></trkpt><trkpt lat="45.8115464" lon="13.8665371"><ele>350.0</ele><time>2026-04-06T13:58:04.991Z</time></trkpt><trkpt lat="45.81163" lon="13.8665527"><ele>350.0</ele><time>2026-04-06T13:58:08.005Z</time></trkpt><trkpt lat="45.8117481" lon="13.8666597"><ele>350.0</ele><time>2026-04-06T13:58:10.008Z</time></trkpt><trkpt lat="45.8118085" lon="13.8667466"><ele>350.0</ele><time>2026-04-06T13:58:10.994Z</time></trkpt><trkpt lat="45.8118554" lon="13.8668485"><ele>350.0</ele><time>2026-04-06T13:58:11.995Z</time></trkpt><trkpt lat="45.8118887" lon="13.866957"><ele>349.6666666666667</ele><time>2026-04-06T13:58:12.999Z</time></trkpt><trkpt lat="45.8119132" lon="13.8670664"><ele>349.33333333333337</ele><time>2026-04-06T13:58:13.999Z</time></trkpt><trkpt lat="45.8119367" lon="13.8671803"><ele>349.0</ele><time>2026-04-06T13:58:14.996Z</time></trkpt><trkpt lat="45.8119611" lon="13.8672999"><ele>348.6666666666667</ele><time>2026-04-06T13:58:16.008Z</time></trkpt><trkpt lat="45.8119848" lon="13.8674139"><ele>348.3333333333333</ele><time>2026-04-06T13:58:16.996Z</time></trkpt><trkpt lat="45.811998" lon="13.867508"><ele>348.0</ele><time>2026-04-06T13:58:17.996Z</time></trkpt><trkpt lat="45.8119905" lon="13.8676297"><ele>348.0</ele><time>2026-04-06T13:58:19.999Z</time></trkpt><trkpt lat="45.8119752" lon="13.8677347"><ele>348.0</ele><time>2026-04-06T13:58:23.005Z</time></trkpt><trkpt lat="45.8120125" lon="13.8678166"><ele>348.0</ele><time>2026-04-06T13:58:26.012Z</time></trkpt><trkpt lat="45.8120835" lon="13.8678507"><ele>348.0</ele><time>2026-04-06T13:58:36.015Z</time></trkpt><trkpt lat="45.8121468" lon="13.8679441"><ele>348.0</ele><time>2026-04-06T13:58:39.004Z</time></trkpt><trkpt lat="45.8121945" lon="13.8680081"><ele>348.0</ele><time>2026-04-06T13:58:42.011Z</time></trkpt><trkpt lat="45.8122257" lon="13.8680915"><ele>348.0</ele><time>2026-04-06T13:58:45.007Z</time></trkpt><trkpt lat="45.8122733" lon="13.8681657"><ele>348.0</ele><time>2026-04-06T13:59:41.012Z</time></trkpt><trkpt lat="45.8123628" lon="13.8681965"><ele>348.0</ele><time>2026-04-06T13:59:46.029Z</time></trkpt><trkpt lat="45.8124318" lon="13.8682569"><ele>348.0</ele><time>2026-04-06T13:59:48.014Z</time></trkpt><trkpt lat="45.8125021" lon="13.8683135"><ele>348.0</ele><time>2026-04-06T13:59:50.021Z</time></trkpt><trkpt lat="45.8125873" lon="13.8683877"><ele>348.0</ele><time>2026-04-06T13:59:52Z</time></trkpt><trkpt lat="45.8126616" lon="13.8684546"><ele>348.0</ele><time>2026-04-06T13:59:54Z</time></trkpt><trkpt lat="45.8127178" lon="13.8685035"><ele>347.85714285714283</ele><time>2026-04-06T13:59:55.995Z</time></trkpt><trkpt lat="45.8127624" lon="13.8685701"><ele>347.7142857142857</ele><time>2026-04-06T13:59:58.01Z</time></trkpt><trkpt lat="45.8128168" lon="13.8686278"><ele>347.57142857142856</ele><time>2026-04-06T14:00:00.006Z</time></trkpt><trkpt lat="45.8128957" lon="13.8686216"><ele>347.42857142857144</ele><time>2026-04-06T14:00:03.991Z</time></trkpt><trkpt lat="45.8129608" lon="13.8686491"><ele>347.2857142857143</ele><time>2026-04-06T14:00:09.999Z</time></trkpt><trkpt lat="45.8130161" lon="13.8686966"><ele>347.14285714285717</ele><time>2026-04-06T14:00:13.017Z</time></trkpt><trkpt lat="45.8130728" lon="13.868763"><ele>347.0</ele><time>2026-04-06T14:00:16.007Z</time></trkpt><trkpt lat="45.8131353" lon="13.8687858"><ele>347.0</ele><time>2026-04-06T14:00:19Z</time></trkpt><trkpt lat="45.813217" lon="13.8687956"><ele>347.0</ele><time>2026-04-06T14:00:21.998Z</time></trkpt><trkpt lat="45.8132917" lon="13.868811"><ele>347.0</ele><time>2026-04-06T14:00:24.999Z</time></trkpt><trkpt lat="45.8133715" lon="13.8688383"><ele>347.0</ele><time>2026-04-06T14:00:28.006Z</time></trkpt><trkpt lat="45.8134424" lon="13.8688479"><ele>347.0</ele><time>2026-04-06T14:00:31.997Z</time></trkpt><trkpt lat="45.8135077" lon="13.8688623"><ele>347.0</ele><time>2026-04-06T14:00:36.001Z</time></trkpt><trkpt lat="45.8135849" lon="13.8688728"><ele>348.33333333333337</ele><time>2026-04-06T14:00:39.002Z</time></trkpt><trkpt lat="45.8136719" lon="13.8688709"><ele>349.6666666666667</ele><time>2026-04-06T14:00:42.012Z</time></trkpt><trkpt lat="45.8137404" lon="13.8688904"><ele>351.0</ele><time>2026-04-06T14:00:44.015Z</time></trkpt><trkpt lat="45.8138248" lon="13.8689365"><ele>352.3333333333333</ele><time>2026-04-06T14:00:47.015Z</time></trkpt><trkpt lat="45.8139047" lon="13.86898"><ele>353.66666666666663</ele><time>2026-04-06T14:00:49.01Z</time></trkpt><trkpt lat="45.8139796" lon="13.8690038"><ele>355.0</ele><time>2026-04-06T14:00:52.006Z</time></trkpt><trkpt lat="45.8140597" lon="13.8689773"><ele>355.0</ele><time>2026-04-06T14:06:12.015Z</time></trkpt><trkpt lat="45.8141433" lon="13.8689787"><ele>355.0</ele><time>2026-04-06T14:06:15.026Z</time></trkpt><trkpt lat="45.8142085" lon="13.8689821"><ele>355.0</ele><time>2026-04-06T14:06:17.002Z</time></trkpt><trkpt lat="45.814277" lon="13.8689878"><ele>355.0</ele><time>2026-04-06T14:06:18.994Z</time></trkpt><trkpt lat="45.8143503" lon="13.8689946"><ele>355.0</ele><time>2026-04-06T14:06:21.003Z</time></trkpt><trkpt lat="45.8144249" lon="13.8689876"><ele>355.0</ele><time>2026-04-06T14:06:23.018Z</time></trkpt><trkpt lat="45.8144901" lon="13.8690049"><ele>355.0</ele><time>2026-04-06T14:06:26.005Z</time></trkpt><trkpt lat="45.8145425" lon="13.8690775"><ele>354.0</ele><time>2026-04-06T14:06:30.007Z</time></trkpt><trkpt lat="45.8145654" lon="13.8691921"><ele>353.0</ele><time>2026-04-06T14:06:34.01Z</time></trkpt><trkpt lat="45.8146261" lon="13.8692247"><ele>352.0</ele><time>2026-04-06T14:06:37.99Z</time></trkpt><trkpt lat="45.8146772" lon="13.8692945"><ele>351.0</ele><time>2026-04-06T14:06:47.99Z</time></trkpt><trkpt lat="45.8147224" lon="13.8693602"><ele>350.0</ele><time>2026-04-06T14:07:05.004Z</time></trkpt><trkpt lat="45.8147494" lon="13.8694586"><ele>349.0</ele><time>2026-04-06T14:07:11.002Z</time></trkpt><trkpt lat="45.8148124" lon="13.8694662"><ele>348.0</ele><time>2026-04-06T14:07:16.994Z</time></trkpt><trkpt lat="45.8148779" lon="13.8695201"><ele>347.3333333333333</ele><time>2026-04-06T14:07:22.001Z</time></trkpt><trkpt lat="45.8149476" lon="13.8695337"><ele>346.6666666666667</ele><time>2026-04-06T14:07:26.998Z</time></trkpt><trkpt lat="45.8150011" lon="13.8694699"><ele>346.0</ele><time>2026-04-06T14:07:49.996Z</time></trkpt><trkpt lat="45.8150662" lon="13.8694772"><ele>345.33333333333337</ele><time>2026-04-06T14:08:03.998Z</time></trkpt><trkpt lat="45.8151167" lon="13.8695361"><ele>344.6666666666667</ele><time>2026-04-06T14:08:10.006Z</time></trkpt><trkpt lat="45.8151283" lon="13.8696693"><ele>344.0</ele><time>2026-04-06T14:08:12.994Z</time></trkpt><trkpt lat="45.8151267" lon="13.8698186"><ele>344.00000000000006</ele><time>2026-04-06T14:08:15.006Z</time></trkpt><trkpt lat="45.8151249" lon="13.8699198"><ele>344.0</ele><time>2026-04-06T14:08:15.984Z</time></trkpt><trkpt lat="45.8151167" lon="13.8700144"><ele>344.0</ele><time>2026-04-06T14:08:17.005Z</time></trkpt><trkpt lat="45.815096" lon="13.8701014"><ele>344.0</ele><time>2026-04-06T14:08:18Z</time></trkpt><trkpt lat="45.8150568" lon="13.870178"><ele>344.0</ele><time>2026-04-06T14:08:18.994Z</time></trkpt><trkpt lat="45.8150056" lon="13.8702497"><ele>344.00000000000006</ele><time>2026-04-06T14:08:19.993Z</time></trkpt><trkpt lat="45.8149414" lon="13.8703112"><ele>344.0</ele><time>2026-04-06T14:08:21.01Z</time></trkpt><trkpt lat="45.8148647" lon="13.8703642"><ele>342.14285714285717</ele><time>2026-04-06T14:08:22.023Z</time></trkpt><trkpt lat="45.8147945" lon="13.8704206"><ele>340.2857142857143</ele><time>2026-04-06T14:08:22.997Z</time></trkpt><trkpt lat="45.814737" lon="13.8704786"><ele>338.42857142857144</ele><time>2026-04-06T14:08:23.996Z</time></trkpt><trkpt lat="45.81469" lon="13.8705568"><ele>336.57142857142856</ele><time>2026-04-06T14:08:24.998Z</time></trkpt><trkpt lat="45.814661" lon="13.8706375"><ele>334.7142857142857</ele><time>2026-04-06T14:08:25.99Z</time></trkpt><trkpt lat="45.8146349" lon="13.8707702"><ele>332.8571428571429</ele><time>2026-04-06T14:08:27.995Z</time></trkpt><trkpt lat="45.8146424" lon="13.8708638"><ele>331.0</ele><time>2026-04-06T14:08:29.024Z</time></trkpt><trkpt lat="45.814641" lon="13.8709661"><ele>329.66666666666663</ele><time>2026-04-06T14:08:29.993Z</time></trkpt><trkpt lat="45.8146262" lon="13.8710603"><ele>328.3333333333333</ele><time>2026-04-06T14:08:30.993Z</time></trkpt><trkpt lat="45.8145982" lon="13.8711759"><ele>327.0</ele><time>2026-04-06T14:08:32.992Z</time></trkpt><trkpt lat="45.8146212" lon="13.8712965"><ele>325.6666666666667</ele><time>2026-04-06T14:08:34.99Z</time></trkpt><trkpt lat="45.814665" lon="13.8713713"><ele>324.33333333333337</ele><time>2026-04-06T14:08:35.983Z</time></trkpt><trkpt lat="45.814708" lon="13.8714574"><ele>323.0</ele><time>2026-04-06T14:08:36.991Z</time></trkpt><trkpt lat="45.8147496" lon="13.8715504"><ele>323.0</ele><time>2026-04-06T14:08:37.995Z</time></trkpt><trkpt lat="45.8147781" lon="13.8716323"><ele>323.0</ele><time>2026-04-06T14:08:38.995Z</time></trkpt><trkpt lat="45.8148313" lon="13.8717395"><ele>323.0</ele><time>2026-04-06T14:08:41.005Z</time></trkpt><trkpt lat="45.8148779" lon="13.8718714"><ele>323.0</ele><time>2026-04-06T14:08:42.998Z</time></trkpt><trkpt lat="45.8149129" lon="13.8720536"><ele>323.0</ele><time>2026-04-06T14:08:44.995Z</time></trkpt><trkpt lat="45.8149274" lon="13.8721582"><ele>323.28571428571433</ele><time>2026-04-06T14:08:46.001Z</time></trkpt><trkpt lat="45.8149382" lon="13.8722622"><ele>323.57142857142856</ele><time>2026-04-06T14:08:46.999Z</time></trkpt><trkpt lat="45.8149466" lon="13.8723616"><ele>323.8571428571429</ele><time>2026-04-06T14:08:47.991Z</time></trkpt><trkpt lat="45.8149617" lon="13.872455"><ele>324.14285714285717</ele><time>2026-04-06T14:08:49.002Z</time></trkpt><trkpt lat="45.8149825" lon="13.8725444"><ele>324.42857142857144</ele><time>2026-04-06T14:08:49.996Z</time></trkpt><trkpt lat="45.814995" lon="13.8726383"><ele>324.7142857142857</ele><time>2026-04-06T14:08:50.999Z</time></trkpt><trkpt lat="45.8149747" lon="13.8727816"><ele>325.0</ele><time>2026-04-06T14:08:52.996Z</time></trkpt><trkpt lat="45.8148792" lon="13.8728247"><ele>324.2</ele><time>2026-04-06T14:08:55.992Z</time></trkpt><trkpt lat="45.8147869" lon="13.8728319"><ele>323.4</ele><time>2026-04-06T14:08:58.005Z</time></trkpt><trkpt lat="45.8146813" lon="13.8728244"><ele>322.6</ele><time>2026-04-06T14:08:59.996Z</time></trkpt><trkpt lat="45.8145785" lon="13.8727798"><ele>321.8</ele><time>2026-04-06T14:09:02.007Z</time></trkpt><trkpt lat="45.8144793" lon="13.8727157"><ele>321.0</ele><time>2026-04-06T14:09:04Z</time></trkpt><trkpt lat="45.81438" lon="13.8726376"><ele>319.8</ele><time>2026-04-06T14:09:06Z</time></trkpt><trkpt lat="45.8142856" lon="13.8725654"><ele>318.6</ele><time>2026-04-06T14:09:07.997Z</time></trkpt><trkpt lat="45.8141963" lon="13.8724865"><ele>317.4</ele><time>2026-04-06T14:09:10Z</time></trkpt><trkpt lat="45.8141053" lon="13.8723953"><ele>316.2</ele><time>2026-04-06T14:09:12.001Z</time></trkpt><trkpt lat="45.8140229" lon="13.8722895"><ele>315.0</ele><time>2026-04-06T14:09:13.998Z</time></trkpt><trkpt lat="45.8139292" lon="13.8721878"><ele>315.0</ele><time>2026-04-06T14:09:15.992Z</time></trkpt><trkpt lat="45.8138369" lon="13.8720862"><ele>315.0</ele><time>2026-04-06T14:09:18.004Z</time></trkpt><trkpt lat="45.8137427" lon="13.8719819"><ele>315.0</ele><time>2026-04-06T14:09:19.99Z</time></trkpt><trkpt lat="45.8136897" lon="13.8719328"><ele>315.0</ele><time>2026-04-06T14:09:20.993Z</time></trkpt><trkpt lat="45.8136357" lon="13.871885"><ele>315.0</ele><time>2026-04-06T14:09:21.996Z</time></trkpt><trkpt lat="45.8135796" lon="13.8718414"><ele>315.0</ele><time>2026-04-06T14:09:22.995Z</time></trkpt><trkpt lat="45.8135178" lon="13.8718007"><ele>313.57142857142856</ele><time>2026-04-06T14:09:23.993Z</time></trkpt><trkpt lat="45.8134511" lon="13.8717784"><ele>312.1428571428571</ele><time>2026-04-06T14:09:25.005Z</time></trkpt><trkpt lat="45.8133847" lon="13.8717464"><ele>310.7142857142857</ele><time>2026-04-06T14:09:25.99Z</time></trkpt><trkpt lat="45.8133164" lon="13.8717134"><ele>309.2857142857143</ele><time>2026-04-06T14:09:26.993Z</time></trkpt><trkpt lat="45.8132498" lon="13.8716897"><ele>307.85714285714283</ele><time>2026-04-06T14:09:28.001Z</time></trkpt><trkpt lat="45.8131808" lon="13.8716632"><ele>306.42857142857144</ele><time>2026-04-06T14:09:28.997Z</time></trkpt><trkpt lat="45.8131148" lon="13.8716518"><ele>305.0</ele><time>2026-04-06T14:09:30.005Z</time></trkpt><trkpt lat="45.8130002" lon="13.8716656"><ele>305.0</ele><time>2026-04-06T14:09:32.001Z</time></trkpt><trkpt lat="45.8129227" lon="13.8717198"><ele>305.0</ele><time>2026-04-06T14:09:33.997Z</time></trkpt><trkpt lat="45.8128272" lon="13.871784"><ele>305.0</ele><time>2026-04-06T14:09:36.003Z</time></trkpt><trkpt lat="45.8127275" lon="13.8718791"><ele>305.0</ele><time>2026-04-06T14:09:37.993Z</time></trkpt><trkpt lat="45.8126782" lon="13.8719354"><ele>305.0</ele><time>2026-04-06T14:09:39.002Z</time></trkpt><trkpt lat="45.8125925" lon="13.8720468"><ele>301.2</ele><time>2026-04-06T14:09:40.998Z</time></trkpt><trkpt lat="45.8124982" lon="13.8721181"><ele>297.4</ele><time>2026-04-06T14:09:42.994Z</time></trkpt><trkpt lat="45.8123857" lon="13.8721461"><ele>293.6</ele><time>2026-04-06T14:09:44.994Z</time></trkpt><trkpt lat="45.8122867" lon="13.8721708"><ele>289.8</ele><time>2026-04-06T14:09:46.987Z</time></trkpt><trkpt lat="45.8122035" lon="13.8722562"><ele>286.0</ele><time>2026-04-06T14:09:48.999Z</time></trkpt><trkpt lat="45.8121438" lon="13.8724034"><ele>286.0</ele><time>2026-04-06T14:09:51.006Z</time></trkpt><trkpt lat="45.8121199" lon="13.8724933"><ele>286.0</ele><time>2026-04-06T14:09:51.982Z</time></trkpt><trkpt lat="45.812076" lon="13.8726504"><ele>286.0</ele><time>2026-04-06T14:09:53.989Z</time></trkpt><trkpt lat="45.8120572" lon="13.8728019"><ele>286.0</ele><time>2026-04-06T14:09:55.983Z</time></trkpt><trkpt lat="45.8120141" lon="13.8729205"><ele>286.0</ele><time>2026-04-06T14:09:57.983Z</time></trkpt><trkpt lat="45.8119464" lon="13.8730059"><ele>283.40000000000003</ele><time>2026-04-06T14:09:59.992Z</time></trkpt><trkpt lat="45.8118935" lon="13.8731398"><ele>280.8</ele><time>2026-04-06T14:10:01.988Z</time></trkpt><trkpt lat="45.8118519" lon="13.8733192"><ele>278.20000000000005</ele><time>2026-04-06T14:10:03.986Z</time></trkpt><trkpt lat="45.8118359" lon="13.8734217"><ele>275.6</ele><time>2026-04-06T14:10:04.985Z</time></trkpt><trkpt lat="45.8118157" lon="13.8735209"><ele>273.0</ele><time>2026-04-06T14:10:05.984Z</time></trkpt><trkpt lat="45.8117928" lon="13.8736191"><ele>269.3333333333333</ele><time>2026-04-06T14:10:06.981Z</time></trkpt><trkpt lat="45.8117737" lon="13.8737224"><ele>265.6666666666667</ele><time>2026-04-06T14:10:07.982Z</time></trkpt><trkpt lat="45.8117554" lon="13.8738314"><ele>262.0</ele><time>2026-04-06T14:10:08.979Z</time></trkpt><trkpt lat="45.8117294" lon="13.8739368"><ele>258.33333333333337</ele><time>2026-04-06T14:10:09.98Z</time></trkpt><trkpt lat="45.8116957" lon="13.8740449"><ele>254.66666666666669</ele><time>2026-04-06T14:10:10.989Z</time></trkpt><trkpt lat="45.811654" lon="13.8741454"><ele>251.0</ele><time>2026-04-06T14:10:11.986Z</time></trkpt><trkpt lat="45.8116082" lon="13.8742477"><ele>250.50000000000003</ele><time>2026-04-06T14:10:13.002Z</time></trkpt><trkpt lat="45.811574" lon="13.8743528"><ele>250.0</ele><time>2026-04-06T14:10:13.987Z</time></trkpt><trkpt lat="45.8115532" lon="13.874455"><ele>249.5</ele><time>2026-04-06T14:10:14.987Z</time></trkpt><trkpt lat="45.8115359" lon="13.8745601"><ele>249.0</ele><time>2026-04-06T14:10:15.986Z</time></trkpt><trkpt lat="45.8115199" lon="13.8747165"><ele>248.50000000000003</ele><time>2026-04-06T14:10:17.982Z</time></trkpt><trkpt lat="45.8115194" lon="13.8748638"><ele>248.0</ele><time>2026-04-06T14:10:19.98Z</time></trkpt><trkpt lat="45.8115003" lon="13.875032"><ele>245.50000000000003</ele><time>2026-04-06T14:10:21.981Z</time></trkpt><trkpt lat="45.8114782" lon="13.8751215"><ele>243.0</ele><time>2026-04-06T14:10:22.985Z</time></trkpt><trkpt lat="45.8114442" lon="13.8752037"><ele>240.5</ele><time>2026-04-06T14:10:23.987Z</time></trkpt><trkpt lat="45.8113886" lon="13.8753177"><ele>238.0</ele><time>2026-04-06T14:10:25.994Z</time></trkpt><trkpt lat="45.8113501" lon="13.8754106"><ele>235.50000000000003</ele><time>2026-04-06T14:10:27.987Z</time></trkpt><trkpt lat="45.8113757" lon="13.8754967"><ele>233.0</ele><time>2026-04-06T14:10:29.983Z</time></trkpt><trkpt lat="45.8114656" lon="13.875548"><ele>233.0</ele><time>2026-04-06T14:10:31.985Z</time></trkpt><trkpt lat="45.8115686" lon="13.8755933"><ele>233.0</ele><time>2026-04-06T14:10:34.009Z</time></trkpt><trkpt lat="45.8116296" lon="13.8756248"><ele>233.0</ele><time>2026-04-06T14:10:34.984Z</time></trkpt><trkpt lat="45.8117363" lon="13.8756748"><ele>233.0</ele><time>2026-04-06T14:10:36.977Z</time></trkpt><trkpt lat="45.8118458" lon="13.875729"><ele>233.0</ele><time>2026-04-06T14:10:38.984Z</time></trkpt><trkpt lat="45.8119604" lon="13.8758038"><ele>232.8</ele><time>2026-04-06T14:10:40.983Z</time></trkpt><trkpt lat="45.8120263" lon="13.8758436"><ele>232.60000000000002</ele><time>2026-04-06T14:10:41.984Z</time></trkpt><trkpt lat="45.8120854" lon="13.8758794"><ele>232.39999999999998</ele><time>2026-04-06T14:10:42.981Z</time></trkpt><trkpt lat="45.8121964" lon="13.8759597"><ele>232.2</ele><time>2026-04-06T14:10:44.981Z</time></trkpt><trkpt lat="45.8123133" lon="13.8760205"><ele>232.0</ele><time>2026-04-06T14:10:46.983Z</time></trkpt><trkpt lat="45.8124237" lon="13.8760721"><ele>230.0</ele><time>2026-04-06T14:10:48.983Z</time></trkpt><trkpt lat="45.8125391" lon="13.8761244"><ele>228.0</ele><time>2026-04-06T14:10:50.982Z</time></trkpt><trkpt lat="45.8126541" lon="13.876135"><ele>226.0</ele><time>2026-04-06T14:10:52.991Z</time></trkpt><trkpt lat="45.8127548" lon="13.8761553"><ele>224.0</ele><time>2026-04-06T14:10:54.991Z</time></trkpt><trkpt lat="45.8128502" lon="13.8761977"><ele>222.0</ele><time>2026-04-06T14:10:56.993Z</time></trkpt><trkpt lat="45.8129644" lon="13.8762041"><ele>222.0</ele><time>2026-04-06T14:10:58.99Z</time></trkpt><trkpt lat="45.813034" lon="13.8761961"><ele>222.0</ele><time>2026-04-06T14:10:59.991Z</time></trkpt><trkpt lat="45.8130971" lon="13.8761888"><ele>222.0</ele><time>2026-04-06T14:11:00.982Z</time></trkpt><trkpt lat="45.813206" lon="13.8762193"><ele>222.0</ele><time>2026-04-06T14:11:02.987Z</time></trkpt><trkpt lat="45.813245" lon="13.8763503"><ele>222.0</ele><time>2026-04-06T14:11:04.984Z</time></trkpt><trkpt lat="45.813234" lon="13.8764987"><ele>222.0</ele><time>2026-04-06T14:11:06.982Z</time></trkpt><trkpt lat="45.8132158" lon="13.8766725"><ele>219.2</ele><time>2026-04-06T14:11:08.993Z</time></trkpt><trkpt lat="45.8132123" lon="13.8767716"><ele>216.39999999999998</ele><time>2026-04-06T14:11:09.991Z</time></trkpt><trkpt lat="45.8132066" lon="13.8768666"><ele>213.60000000000002</ele><time>2026-04-06T14:11:10.987Z</time></trkpt><trkpt lat="45.8131885" lon="13.8770402"><ele>210.8</ele><time>2026-04-06T14:11:12.992Z</time></trkpt><trkpt lat="45.8131616" lon="13.8772106"><ele>208.0</ele><time>2026-04-06T14:11:14.992Z</time></trkpt><trkpt lat="45.8131189" lon="13.8773712"><ele>208.0</ele><time>2026-04-06T14:11:16.995Z</time></trkpt><trkpt lat="45.813091" lon="13.8775226"><ele>208.0</ele><time>2026-04-06T14:11:18.99Z</time></trkpt><trkpt lat="45.8130808" lon="13.8776582"><ele>208.0</ele><time>2026-04-06T14:11:20.994Z</time></trkpt><trkpt lat="45.8130394" lon="13.8778085"><ele>208.0</ele><time>2026-04-06T14:11:22.99Z</time></trkpt><trkpt lat="45.8130088" lon="13.8778964"><ele>208.0</ele><time>2026-04-06T14:11:23.982Z</time></trkpt><trkpt lat="45.8129304" lon="13.8780135"><ele>205.66666666666666</ele><time>2026-04-06T14:11:25.971Z</time></trkpt><trkpt lat="45.8128483" lon="13.8780877"><ele>203.33333333333331</ele><time>2026-04-06T14:11:27.982Z</time></trkpt><trkpt lat="45.8127762" lon="13.8781274"><ele>201.0</ele><time>2026-04-06T14:11:29.981Z</time></trkpt><trkpt lat="45.8127109" lon="13.8781638"><ele>198.66666666666669</ele><time>2026-04-06T14:11:31.974Z</time></trkpt><trkpt lat="45.8126496" lon="13.8782105"><ele>196.33333333333334</ele><time>2026-04-06T14:11:33.978Z</time></trkpt><trkpt lat="45.8125742" lon="13.8783001"><ele>194.0</ele><time>2026-04-06T14:11:35.984Z</time></trkpt><trkpt lat="45.8125028" lon="13.8784092"><ele>189.39999999999998</ele><time>2026-04-06T14:11:37.985Z</time></trkpt><trkpt lat="45.8124481" lon="13.8785092"><ele>184.8</ele><time>2026-04-06T14:11:39.975Z</time></trkpt><trkpt lat="45.812419" lon="13.8786479"><ele>180.2</ele><time>2026-04-06T14:11:41.989Z</time></trkpt><trkpt lat="45.8124076" lon="13.8787896"><ele>175.60000000000002</ele><time>2026-04-06T14:11:44.011Z</time></trkpt><trkpt lat="45.8124223" lon="13.8789197"><ele>171.0</ele><time>2026-04-06T14:11:45.978Z</time></trkpt><trkpt lat="45.8124313" lon="13.8790536"><ele>171.0</ele><time>2026-04-06T14:11:47.989Z</time></trkpt><trkpt lat="45.8124232" lon="13.8791807"><ele>171.0</ele><time>2026-04-06T14:11:49.985Z</time></trkpt><trkpt lat="45.8123635" lon="13.8792549"><ele>171.0</ele><time>2026-04-06T14:11:51.987Z</time></trkpt><trkpt lat="45.8122962" lon="13.8792195"><ele>171.0</ele><time>2026-04-06T14:11:53.979Z</time></trkpt><trkpt lat="45.8121921" lon="13.879211"><ele>171.0</ele><time>2026-04-06T14:11:55.977Z</time></trkpt><trkpt lat="45.8121131" lon="13.8792197"><ele>171.0</ele><time>2026-04-06T14:11:56.979Z</time></trkpt><trkpt lat="45.812043" lon="13.8792162"><ele>171.0</ele><time>2026-04-06T14:11:57.995Z</time></trkpt><trkpt lat="45.8119387" lon="13.8792208"><ele>171.0</ele><time>2026-04-06T14:11:59.977Z</time></trkpt><trkpt lat="45.8119044" lon="13.8793627"><ele>171.0</ele><time>2026-04-06T14:12:01.98Z</time></trkpt><trkpt lat="45.8119046" lon="13.8795039"><ele>171.0</ele><time>2026-04-06T14:12:03.969Z</time></trkpt><trkpt lat="45.8118869" lon="13.8796158"><ele>171.0</ele><time>2026-04-06T14:12:05.978Z</time></trkpt><trkpt lat="45.8118515" lon="13.8798039"><ele>169.0</ele><time>2026-04-06T14:12:07.979Z</time></trkpt><trkpt lat="45.8118492" lon="13.8799365"><ele>167.0</ele><time>2026-04-06T14:12:08.973Z</time></trkpt><trkpt lat="45.8118623" lon="13.8800812"><ele>165.0</ele><time>2026-04-06T14:12:09.978Z</time></trkpt><trkpt lat="45.8118859" lon="13.8802327"><ele>163.0</ele><time>2026-04-06T14:12:10.979Z</time></trkpt><trkpt lat="45.8119099" lon="13.880391"><ele>161.0</ele><time>2026-04-06T14:12:11.977Z</time></trkpt><trkpt lat="45.8119339" lon="13.880544"><ele>161.0</ele><time>2026-04-06T14:12:12.981Z</time></trkpt><trkpt lat="45.8119534" lon="13.8807022"><ele>161.0</ele><time>2026-04-06T14:12:13.984Z</time></trkpt><trkpt lat="45.8119644" lon="13.8808641"><ele>161.0</ele><time>2026-04-06T14:12:14.982Z</time></trkpt><trkpt lat="45.811964" lon="13.8810351"><ele>161.0</ele><time>2026-04-06T14:12:15.98Z</time></trkpt><trkpt lat="45.8119491" lon="13.8812077"><ele>161.25</ele><time>2026-04-06T14:12:16.981Z</time></trkpt><trkpt lat="45.8119294" lon="13.8813733"><ele>161.5</ele><time>2026-04-06T14:12:18.008Z</time></trkpt><trkpt lat="45.8119094" lon="13.8815429"><ele>161.75</ele><time>2026-04-06T14:12:18.984Z</time></trkpt><trkpt lat="45.8118868" lon="13.8817127"><ele>162.0</ele><time>2026-04-06T14:12:19.981Z</time></trkpt><trkpt lat="45.8118714" lon="13.8818906"><ele>162.0</ele><time>2026-04-06T14:12:20.984Z</time></trkpt><trkpt lat="45.8118688" lon="13.8820637"><ele>162.0</ele><time>2026-04-06T14:12:21.98Z</time></trkpt><trkpt lat="45.811884" lon="13.8822411"><ele>162.0</ele><time>2026-04-06T14:12:22.99Z</time></trkpt><trkpt lat="45.8119038" lon="13.8824146"><ele>162.0</ele><time>2026-04-06T14:12:23.986Z</time></trkpt><trkpt lat="45.8119175" lon="13.8825762"><ele>162.2</ele><time>2026-04-06T14:12:24.997Z</time></trkpt><trkpt lat="45.8119228" lon="13.8827259"><ele>162.39999999999998</ele><time>2026-04-06T14:12:25.981Z</time></trkpt><trkpt lat="45.811921" lon="13.8828669"><ele>162.60000000000002</ele><time>2026-04-06T14:12:26.981Z</time></trkpt><trkpt lat="45.8119083" lon="13.8830044"><ele>162.8</ele><time>2026-04-06T14:12:27.97Z</time></trkpt><trkpt lat="45.8118897" lon="13.883137"><ele>163.0</ele><time>2026-04-06T14:12:28.981Z</time></trkpt><trkpt lat="45.8118737" lon="13.8832659"><ele>163.0</ele><time>2026-04-06T14:12:29.983Z</time></trkpt><trkpt lat="45.811861" lon="13.8834032"><ele>163.0</ele><time>2026-04-06T14:12:30.98Z</time></trkpt><trkpt lat="45.8118552" lon="13.8835461"><ele>163.0</ele><time>2026-04-06T14:12:31.983Z</time></trkpt><trkpt lat="45.8118773" lon="13.8836911"><ele>163.0</ele><time>2026-04-06T14:12:32.995Z</time></trkpt><trkpt lat="45.8119262" lon="13.8838194"><ele>163.0</ele><time>2026-04-06T14:12:33.985Z</time></trkpt><trkpt lat="45.8119788" lon="13.8839345"><ele>163.16666666666669</ele><time>2026-04-06T14:12:35.006Z</time></trkpt><trkpt lat="45.8120256" lon="13.8840467"><ele>163.33333333333334</ele><time>2026-04-06T14:12:35.985Z</time></trkpt><trkpt lat="45.812064" lon="13.8841549"><ele>163.5</ele><time>2026-04-06T14:12:36.991Z</time></trkpt><trkpt lat="45.8120948" lon="13.8842687"><ele>163.66666666666666</ele><time>2026-04-06T14:12:37.996Z</time></trkpt><trkpt lat="45.8121194" lon="13.884381"><ele>163.83333333333331</ele><time>2026-04-06T14:12:38.989Z</time></trkpt><trkpt lat="45.8121326" lon="13.8844856"><ele>164.0</ele><time>2026-04-06T14:12:39.982Z</time></trkpt><trkpt lat="45.8121249" lon="13.8845764"><ele>164.5</ele><time>2026-04-06T14:12:40.989Z</time></trkpt><trkpt lat="45.8120913" lon="13.8847089"><ele>165.0</ele><time>2026-04-06T14:12:42.987Z</time></trkpt><trkpt lat="45.8120898" lon="13.8848089"><ele>165.5</ele><time>2026-04-06T14:16:05.992Z</time></trkpt><trkpt lat="45.8121386" lon="13.8848945"><ele>166.0</ele><time>2026-04-06T14:16:07.995Z</time></trkpt><trkpt lat="45.8122054" lon="13.8849953"><ele>166.5</ele><time>2026-04-06T14:16:10.002Z</time></trkpt><trkpt lat="45.8122463" lon="13.8850718"><ele>167.0</ele><time>2026-04-06T14:16:11.995Z</time></trkpt><trkpt lat="45.8122855" lon="13.8851472"><ele>168.2</ele><time>2026-04-06T14:16:13.985Z</time></trkpt><trkpt lat="45.8123782" lon="13.8852842"><ele>169.39999999999998</ele><time>2026-04-06T14:16:15.982Z</time></trkpt><trkpt lat="45.8124375" lon="13.885374"><ele>170.60000000000002</ele><time>2026-04-06T14:16:16.997Z</time></trkpt><trkpt lat="45.8124931" lon="13.8854729"><ele>171.8</ele><time>2026-04-06T14:16:17.998Z</time></trkpt><trkpt lat="45.8125387" lon="13.8855928"><ele>173.0</ele><time>2026-04-06T14:16:18.992Z</time></trkpt><trkpt lat="45.8125847" lon="13.8857265"><ele>173.0</ele><time>2026-04-06T14:16:19.994Z</time></trkpt><trkpt lat="45.8126328" lon="13.8858742"><ele>173.0</ele><time>2026-04-06T14:16:21.001Z</time></trkpt><trkpt lat="45.812689" lon="13.8860299"><ele>173.0</ele><time>2026-04-06T14:16:21.99Z</time></trkpt><trkpt lat="45.8127676" lon="13.8861835"><ele>173.0</ele><time>2026-04-06T14:16:22.984Z</time></trkpt><trkpt lat="45.8128646" lon="13.8863178"><ele>173.0</ele><time>2026-04-06T14:16:23.997Z</time></trkpt><trkpt lat="45.8129661" lon="13.8864462"><ele>173.0</ele><time>2026-04-06T14:16:24.993Z</time></trkpt><trkpt lat="45.8130684" lon="13.8865786"><ele>173.0</ele><time>2026-04-06T14:16:25.992Z</time></trkpt><trkpt lat="45.8131704" lon="13.8867252"><ele>173.0</ele><time>2026-04-06T14:16:26.995Z</time></trkpt><trkpt lat="45.8132653" lon="13.8868745"><ele>173.0</ele><time>2026-04-06T14:16:28.025Z</time></trkpt><trkpt lat="45.8133535" lon="13.8870207"><ele>173.0</ele><time>2026-04-06T14:16:28.986Z</time></trkpt><trkpt lat="45.8134416" lon="13.8871638"><ele>173.0</ele><time>2026-04-06T14:16:29.995Z</time></trkpt><trkpt lat="45.8135281" lon="13.887304"><ele>173.0</ele><time>2026-04-06T14:16:30.996Z</time></trkpt><trkpt lat="45.8136002" lon="13.8874424"><ele>170.20000000000002</ele><time>2026-04-06T14:16:31.994Z</time></trkpt><trkpt lat="45.8136582" lon="13.887585"><ele>167.4</ele><time>2026-04-06T14:16:32.994Z</time></trkpt><trkpt lat="45.8136869" lon="13.8877373"><ele>164.60000000000002</ele><time>2026-04-06T14:16:33.999Z</time></trkpt><trkpt lat="45.8136812" lon="13.8878837"><ele>161.8</ele><time>2026-04-06T14:16:34.993Z</time></trkpt><trkpt lat="45.8136514" lon="13.8880314"><ele>159.0</ele><time>2026-04-06T14:16:36.001Z</time></trkpt><trkpt lat="45.8135984" lon="13.8881842"><ele>159.0</ele><time>2026-04-06T14:16:36.989Z</time></trkpt><trkpt lat="45.8135311" lon="13.8883401"><ele>159.0</ele><time>2026-04-06T14:16:38Z</time></trkpt><trkpt lat="45.8134543" lon="13.8884994"><ele>159.0</ele><time>2026-04-06T14:16:38.993Z</time></trkpt><trkpt lat="45.8133699" lon="13.8886586"><ele>159.0</ele><time>2026-04-06T14:16:39.992Z</time></trkpt><trkpt lat="45.8132936" lon="13.8888105"><ele>161.0</ele><time>2026-04-06T14:16:40.997Z</time></trkpt><trkpt lat="45.8132291" lon="13.8889661"><ele>163.0</ele><time>2026-04-06T14:16:41.992Z</time></trkpt><trkpt lat="45.8131785" lon="13.8891286"><ele>165.0</ele><time>2026-04-06T14:16:42.998Z</time></trkpt><trkpt lat="45.8131439" lon="13.8892886"><ele>167.0</ele><time>2026-04-06T14:16:44.002Z</time></trkpt><trkpt lat="45.8131201" lon="13.8894409"><ele>167.0</ele><time>2026-04-06T14:16:44.994Z</time></trkpt><trkpt lat="45.8131006" lon="13.8895896"><ele>167.0</ele><time>2026-04-06T14:16:45.996Z</time></trkpt><trkpt lat="45.8130819" lon="13.8897334"><ele>167.0</ele><time>2026-04-06T14:16:46.998Z</time></trkpt><trkpt lat="45.8130674" lon="13.8898777"><ele>167.0</ele><time>2026-04-06T14:16:47.988Z</time></trkpt><trkpt lat="45.8130705" lon="13.8900198"><ele>167.0</ele><time>2026-04-06T14:16:48.99Z</time></trkpt><trkpt lat="45.8130855" lon="13.8901716"><ele>166.2</ele><time>2026-04-06T14:16:49.995Z</time></trkpt><trkpt lat="45.8131107" lon="13.8903187"><ele>165.39999999999998</ele><time>2026-04-06T14:16:51.025Z</time></trkpt><trkpt lat="45.8131382" lon="13.8904812"><ele>164.60000000000002</ele><time>2026-04-06T14:16:51.996Z</time></trkpt><trkpt lat="45.8131811" lon="13.8906282"><ele>163.8</ele><time>2026-04-06T14:16:53.014Z</time></trkpt><trkpt lat="45.8132319" lon="13.8907675"><ele>163.0</ele><time>2026-04-06T14:16:53.998Z</time></trkpt><trkpt lat="45.8132863" lon="13.8909058"><ele>163.0</ele><time>2026-04-06T14:16:54.99Z</time></trkpt><trkpt lat="45.8133333" lon="13.8910297"><ele>163.0</ele><time>2026-04-06T14:16:55.99Z</time></trkpt><trkpt lat="45.8133775" lon="13.8911498"><ele>163.0</ele><time>2026-04-06T14:16:57.005Z</time></trkpt><trkpt lat="45.8134199" lon="13.8912699"><ele>163.0</ele><time>2026-04-06T14:16:58.005Z</time></trkpt><trkpt lat="45.813462" lon="13.8913882"><ele>163.0</ele><time>2026-04-06T14:16:58.993Z</time></trkpt><trkpt lat="45.8135065" lon="13.8915067"><ele>169.0</ele><time>2026-04-06T14:17:00.003Z</time></trkpt><trkpt lat="45.8135519" lon="13.8916407"><ele>175.0</ele><time>2026-04-06T14:17:00.994Z</time></trkpt><trkpt lat="45.8136016" lon="13.8917912"><ele>181.0</ele><time>2026-04-06T14:17:01.988Z</time></trkpt><trkpt lat="45.8136449" lon="13.8919563"><ele>187.0</ele><time>2026-04-06T14:17:02.986Z</time></trkpt><trkpt lat="45.8136676" lon="13.892134"><ele>189.5</ele><time>2026-04-06T14:17:03.985Z</time></trkpt><trkpt lat="45.813676" lon="13.8923181"><ele>192.0</ele><time>2026-04-06T14:17:04.991Z</time></trkpt><trkpt lat="45.8136742" lon="13.8924985"><ele>194.5</ele><time>2026-04-06T14:17:05.987Z</time></trkpt><trkpt lat="45.8136681" lon="13.8926711"><ele>197.0</ele><time>2026-04-06T14:17:06.985Z</time></trkpt><trkpt lat="45.8136593" lon="13.8928425"><ele>199.25</ele><time>2026-04-06T14:17:07.985Z</time></trkpt><trkpt lat="45.8136396" lon="13.8930122"><ele>201.5</ele><time>2026-04-06T14:17:08.992Z</time></trkpt><trkpt lat="45.8136041" lon="13.8931739"><ele>203.75</ele><time>2026-04-06T14:17:09.982Z</time></trkpt><trkpt lat="45.8135675" lon="13.8933327"><ele>206.0</ele><time>2026-04-06T14:17:10.989Z</time></trkpt><trkpt lat="45.8135388" lon="13.8934805"><ele>207.8</ele><time>2026-04-06T14:17:11.991Z</time></trkpt><trkpt lat="45.813504" lon="13.893629"><ele>209.60000000000002</ele><time>2026-04-06T14:17:12.993Z</time></trkpt><trkpt lat="45.8134602" lon="13.8937718"><ele>211.4</ele><time>2026-04-06T14:17:13.981Z</time></trkpt><trkpt lat="45.8134129" lon="13.8939096"><ele>213.2</ele><time>2026-04-06T14:17:14.985Z</time></trkpt><trkpt lat="45.8133536" lon="13.8940341"><ele>215.0</ele><time>2026-04-06T14:17:15.978Z</time></trkpt><trkpt lat="45.8132811" lon="13.894145"><ele>207.6</ele><time>2026-04-06T14:17:16.979Z</time></trkpt><trkpt lat="45.8132032" lon="13.8942506"><ele>200.2</ele><time>2026-04-06T14:17:18.043Z</time></trkpt><trkpt lat="45.8131359" lon="13.8943611"><ele>192.8</ele><time>2026-04-06T14:17:18.977Z</time></trkpt><trkpt lat="45.8130847" lon="13.8944749"><ele>185.4</ele><time>2026-04-06T14:17:19.99Z</time></trkpt><trkpt lat="45.8130546" lon="13.8946056"><ele>178.0</ele><time>2026-04-06T14:17:20.984Z</time></trkpt><trkpt lat="45.8130461" lon="13.8947593"><ele>178.0</ele><time>2026-04-06T14:17:21.98Z</time></trkpt><trkpt lat="45.813047" lon="13.8949173"><ele>178.0</ele><time>2026-04-06T14:17:22.981Z</time></trkpt><trkpt lat="45.8130445" lon="13.8950706"><ele>178.0</ele><time>2026-04-06T14:17:23.987Z</time></trkpt><trkpt lat="45.8130376" lon="13.8952323"><ele>178.0</ele><time>2026-04-06T14:17:24.996Z</time></trkpt><trkpt lat="45.8130324" lon="13.8953888"><ele>178.0</ele><time>2026-04-06T14:17:25.982Z</time></trkpt><trkpt lat="45.8130239" lon="13.8955429"><ele>178.8</ele><time>2026-04-06T14:17:27.005Z</time></trkpt><trkpt lat="45.8130085" lon="13.8956974"><ele>179.60000000000002</ele><time>2026-04-06T14:17:27.996Z</time></trkpt><trkpt lat="45.812977" lon="13.8958461"><ele>180.39999999999998</ele><time>2026-04-06T14:17:28.979Z</time></trkpt><trkpt lat="45.8129392" lon="13.8959937"><ele>181.2</ele><time>2026-04-06T14:17:29.983Z</time></trkpt><trkpt lat="45.8128916" lon="13.8961304"><ele>182.0</ele><time>2026-04-06T14:17:30.98Z</time></trkpt><trkpt lat="45.8128385" lon="13.8962642"><ele>182.6</ele><time>2026-04-06T14:17:31.996Z</time></trkpt><trkpt lat="45.8127873" lon="13.896397"><ele>183.2</ele><time>2026-04-06T14:17:32.982Z</time></trkpt><trkpt lat="45.812735" lon="13.8965229"><ele>183.8</ele><time>2026-04-06T14:17:33.98Z</time></trkpt><trkpt lat="45.8126831" lon="13.8966441"><ele>184.4</ele><time>2026-04-06T14:17:34.987Z</time></trkpt><trkpt lat="45.8126347" lon="13.8967664"><ele>185.0</ele><time>2026-04-06T14:17:35.99Z</time></trkpt><trkpt lat="45.8125861" lon="13.8968874"><ele>183.0</ele><time>2026-04-06T14:17:36.989Z</time></trkpt><trkpt lat="45.8125422" lon="13.897013"><ele>181.0</ele><time>2026-04-06T14:17:37.994Z</time></trkpt><trkpt lat="45.8125049" lon="13.8971473"><ele>179.0</ele><time>2026-04-06T14:17:38.988Z</time></trkpt><trkpt lat="45.8124817" lon="13.8972852"><ele>177.0</ele><time>2026-04-06T14:17:39.982Z</time></trkpt><trkpt lat="45.8124753" lon="13.8974259"><ele>175.0</ele><time>2026-04-06T14:17:40.988Z</time></trkpt><trkpt lat="45.8124803" lon="13.8975762"><ele>177.2</ele><time>2026-04-06T14:17:41.987Z</time></trkpt><trkpt lat="45.8125052" lon="13.8977248"><ele>179.4</ele><time>2026-04-06T14:17:42.991Z</time></trkpt><trkpt lat="45.8125351" lon="13.8978711"><ele>181.60000000000002</ele><time>2026-04-06T14:17:44.024Z</time></trkpt><trkpt lat="45.8125632" lon="13.8980107"><ele>183.8</ele><time>2026-04-06T14:17:44.983Z</time></trkpt><trkpt lat="45.8125885" lon="13.8981489"><ele>186.0</ele><time>2026-04-06T14:17:45.987Z</time></trkpt><trkpt lat="45.8126172" lon="13.8982921"><ele>188.60000000000002</ele><time>2026-04-06T14:17:46.985Z</time></trkpt><trkpt lat="45.812646" lon="13.8984214"><ele>191.2</ele><time>2026-04-06T14:17:47.979Z</time></trkpt><trkpt lat="45.812683" lon="13.898546"><ele>193.8</ele><time>2026-04-06T14:17:48.986Z</time></trkpt><trkpt lat="45.8127362" lon="13.8986713"><ele>196.39999999999998</ele><time>2026-04-06T14:17:49.984Z</time></trkpt><trkpt lat="45.8128013" lon="13.898793"><ele>199.0</ele><time>2026-04-06T14:17:50.983Z</time></trkpt><trkpt lat="45.8128795" lon="13.8989071"><ele>194.79999999999998</ele><time>2026-04-06T14:17:51.982Z</time></trkpt><trkpt lat="45.8129657" lon="13.8990072"><ele>190.6</ele><time>2026-04-06T14:17:52.982Z</time></trkpt><trkpt lat="45.8130583" lon="13.899092"><ele>186.4</ele><time>2026-04-06T14:17:53.993Z</time></trkpt><trkpt lat="45.8131549" lon="13.8991617"><ele>182.2</ele><time>2026-04-06T14:17:54.985Z</time></trkpt><trkpt lat="45.8132526" lon="13.8992197"><ele>178.0</ele><time>2026-04-06T14:17:55.982Z</time></trkpt><trkpt lat="45.8133477" lon="13.8992649"><ele>178.0</ele><time>2026-04-06T14:17:56.994Z</time></trkpt><trkpt lat="45.8134429" lon="13.899303"><ele>178.0</ele><time>2026-04-06T14:17:57.987Z</time></trkpt><trkpt lat="45.8135339" lon="13.8993385"><ele>178.0</ele><time>2026-04-06T14:17:58.984Z</time></trkpt><trkpt lat="45.8136229" lon="13.8993853"><ele>178.0</ele><time>2026-04-06T14:17:59.986Z</time></trkpt><trkpt lat="45.8137096" lon="13.8994507"><ele>178.0</ele><time>2026-04-06T14:18:00.988Z</time></trkpt><trkpt lat="45.813799" lon="13.8995379"><ele>178.5</ele><time>2026-04-06T14:18:01.99Z</time></trkpt><trkpt lat="45.8138727" lon="13.8996524"><ele>179.0</ele><time>2026-04-06T14:18:02.983Z</time></trkpt><trkpt lat="45.8139456" lon="13.8997858"><ele>179.5</ele><time>2026-04-06T14:18:03.987Z</time></trkpt><trkpt lat="45.8140092" lon="13.8999224"><ele>180.0</ele><time>2026-04-06T14:18:04.991Z</time></trkpt><trkpt lat="45.8140709" lon="13.9000625"><ele>179.0</ele><time>2026-04-06T14:18:05.986Z</time></trkpt><trkpt lat="45.814123" lon="13.9002051"><ele>178.0</ele><time>2026-04-06T14:18:06.992Z</time></trkpt><trkpt lat="45.8141793" lon="13.9003473"><ele>177.0</ele><time>2026-04-06T14:18:08.025Z</time></trkpt><trkpt lat="45.8142359" lon="13.900489"><ele>176.0</ele><time>2026-04-06T14:18:08.983Z</time></trkpt><trkpt lat="45.8142915" lon="13.9006175"><ele>175.0</ele><time>2026-04-06T14:18:10Z</time></trkpt><trkpt lat="45.8143468" lon="13.9007387"><ele>176.2</ele><time>2026-04-06T14:18:10.984Z</time></trkpt><trkpt lat="45.8144032" lon="13.9008604"><ele>177.4</ele><time>2026-04-06T14:18:11.98Z</time></trkpt><trkpt lat="45.814458" lon="13.9009847"><ele>178.60000000000002</ele><time>2026-04-06T14:18:12.981Z</time></trkpt><trkpt lat="45.8145096" lon="13.9011168"><ele>179.8</ele><time>2026-04-06T14:18:13.984Z</time></trkpt><trkpt lat="45.8145537" lon="13.9012688"><ele>181.0</ele><time>2026-04-06T14:18:14.987Z</time></trkpt><trkpt lat="45.8145777" lon="13.9014304"><ele>181.0</ele><time>2026-04-06T14:18:15.973Z</time></trkpt><trkpt lat="45.8145794" lon="13.9015899"><ele>181.0</ele><time>2026-04-06T14:18:16.974Z</time></trkpt><trkpt lat="45.8145684" lon="13.901737"><ele>181.0</ele><time>2026-04-06T14:18:17.977Z</time></trkpt><trkpt lat="45.8145557" lon="13.9018757"><ele>181.0</ele><time>2026-04-06T14:18:18.982Z</time></trkpt><trkpt lat="45.8145439" lon="13.9020247"><ele>181.0</ele><time>2026-04-06T14:18:19.98Z</time></trkpt><trkpt lat="45.8145305" lon="13.9021803"><ele>183.25</ele><time>2026-04-06T14:18:20.987Z</time></trkpt><trkpt lat="45.8145091" lon="13.9023373"><ele>185.5</ele><time>2026-04-06T14:18:21.977Z</time></trkpt><trkpt lat="45.8144839" lon="13.9024987"><ele>187.75</ele><time>2026-04-06T14:18:22.984Z</time></trkpt><trkpt lat="45.8144608" lon="13.9026595"><ele>190.0</ele><time>2026-04-06T14:18:23.982Z</time></trkpt><trkpt lat="45.8144479" lon="13.9028239"><ele>192.25</ele><time>2026-04-06T14:18:24.982Z</time></trkpt><trkpt lat="45.8144451" lon="13.9029915"><ele>194.5</ele><time>2026-04-06T14:18:25.982Z</time></trkpt><trkpt lat="45.8144553" lon="13.9031625"><ele>196.75</ele><time>2026-04-06T14:18:26.982Z</time></trkpt><trkpt lat="45.814473" lon="13.9033321"><ele>199.0</ele><time>2026-04-06T14:18:27.986Z</time></trkpt><trkpt lat="45.8144948" lon="13.9034945"><ele>199.2</ele><time>2026-04-06T14:18:28.989Z</time></trkpt><trkpt lat="45.8145136" lon="13.9036423"><ele>199.39999999999998</ele><time>2026-04-06T14:18:29.979Z</time></trkpt><trkpt lat="45.8145325" lon="13.9037902"><ele>199.6</ele><time>2026-04-06T14:18:31.003Z</time></trkpt><trkpt lat="45.8145511" lon="13.9039411"><ele>199.8</ele><time>2026-04-06T14:18:31.979Z</time></trkpt><trkpt lat="45.8145615" lon="13.9040986"><ele>200.0</ele><time>2026-04-06T14:18:32.989Z</time></trkpt><trkpt lat="45.8145733" lon="13.9042565"><ele>200.0</ele><time>2026-04-06T14:18:33.983Z</time></trkpt><trkpt lat="45.8145745" lon="13.9044176"><ele>200.0</ele><time>2026-04-06T14:18:34.985Z</time></trkpt><trkpt lat="45.8145684" lon="13.904583"><ele>200.0</ele><time>2026-04-06T14:18:35.984Z</time></trkpt><trkpt lat="45.8145419" lon="13.9047425"><ele>200.0</ele><time>2026-04-06T14:18:37.037Z</time></trkpt><trkpt lat="45.8144899" lon="13.9048734"><ele>200.0</ele><time>2026-04-06T14:18:37.982Z</time></trkpt><trkpt lat="45.8144273" lon="13.9049922"><ele>200.75</ele><time>2026-04-06T14:18:38.98Z</time></trkpt><trkpt lat="45.8143539" lon="13.9051075"><ele>201.5</ele><time>2026-04-06T14:18:39.983Z</time></trkpt><trkpt lat="45.8142733" lon="13.9052358"><ele>202.25</ele><time>2026-04-06T14:18:40.985Z</time></trkpt><trkpt lat="45.8141926" lon="13.9053665"><ele>203.0</ele><time>2026-04-06T14:18:41.991Z</time></trkpt><trkpt lat="45.8141192" lon="13.9054896"><ele>200.4</ele><time>2026-04-06T14:18:42.981Z</time></trkpt><trkpt lat="45.8140501" lon="13.9056106"><ele>197.8</ele><time>2026-04-06T14:18:43.986Z</time></trkpt><trkpt lat="45.8139803" lon="13.9057243"><ele>195.2</ele><time>2026-04-06T14:18:45.008Z</time></trkpt><trkpt lat="45.8139167" lon="13.9058343"><ele>192.6</ele><time>2026-04-06T14:18:45.992Z</time></trkpt><trkpt lat="45.8138614" lon="13.9059447"><ele>190.0</ele><time>2026-04-06T14:18:46.995Z</time></trkpt><trkpt lat="45.8138055" lon="13.9060545"><ele>189.66666666666669</ele><time>2026-04-06T14:18:47.99Z</time></trkpt><trkpt lat="45.8137522" lon="13.9061624"><ele>189.33333333333334</ele><time>2026-04-06T14:18:48.987Z</time></trkpt><trkpt lat="45.8137027" lon="13.9062633"><ele>189.0</ele><time>2026-04-06T14:18:49.983Z</time></trkpt><trkpt lat="45.8136629" lon="13.9063568"><ele>188.66666666666666</ele><time>2026-04-06T14:18:51.01Z</time></trkpt><trkpt lat="45.81363" lon="13.9064481"><ele>188.33333333333331</ele><time>2026-04-06T14:18:51.989Z</time></trkpt><trkpt lat="45.8135867" lon="13.9065596"><ele>188.0</ele><time>2026-04-06T14:18:53.997Z</time></trkpt><trkpt lat="45.8135153" lon="13.9065953"><ele>189.5</ele><time>2026-04-06T14:18:56.991Z</time></trkpt><trkpt lat="45.8134026" lon="13.906584"><ele>191.0</ele><time>2026-04-06T14:18:58.992Z</time></trkpt><trkpt lat="45.8133314" lon="13.9065678"><ele>192.5</ele><time>2026-04-06T14:18:59.992Z</time></trkpt><trkpt lat="45.8132585" lon="13.9065358"><ele>194.0</ele><time>2026-04-06T14:19:01.008Z</time></trkpt><trkpt lat="45.813188" lon="13.9064941"><ele>195.50000000000003</ele><time>2026-04-06T14:19:01.99Z</time></trkpt><trkpt lat="45.8131133" lon="13.9064527"><ele>197.0</ele><time>2026-04-06T14:19:02.998Z</time></trkpt><trkpt lat="45.8130413" lon="13.9064441"><ele>197.0</ele><time>2026-04-06T14:19:03.989Z</time></trkpt><trkpt lat="45.8129305" lon="13.9065332"><ele>197.0</ele><time>2026-04-06T14:19:05.979Z</time></trkpt><trkpt lat="45.8128603" lon="13.9065989"><ele>197.0</ele><time>2026-04-06T14:19:06.986Z</time></trkpt><trkpt lat="45.8127771" lon="13.9066739"><ele>197.0</ele><time>2026-04-06T14:19:07.986Z</time></trkpt><trkpt lat="45.8126834" lon="13.9067353"><ele>197.0</ele><time>2026-04-06T14:19:08.982Z</time></trkpt><trkpt lat="45.8125831" lon="13.9067902"><ele>197.5</ele><time>2026-04-06T14:19:09.994Z</time></trkpt><trkpt lat="45.8124709" lon="13.9068337"><ele>198.0</ele><time>2026-04-06T14:19:10.987Z</time></trkpt><trkpt lat="45.8123565" lon="13.9068771"><ele>198.5</ele><time>2026-04-06T14:19:11.988Z</time></trkpt><trkpt lat="45.8122513" lon="13.9069227"><ele>199.0</ele><time>2026-04-06T14:19:12.987Z</time></trkpt><trkpt lat="45.8121474" lon="13.9069844"><ele>199.0</ele><time>2026-04-06T14:19:13.987Z</time></trkpt><trkpt lat="45.8120423" lon="13.9070569"><ele>199.0</ele><time>2026-04-06T14:19:14.982Z</time></trkpt><trkpt lat="45.8119322" lon="13.9071232"><ele>199.0</ele><time>2026-04-06T14:19:15.983Z</time></trkpt><trkpt lat="45.8118243" lon="13.9071827"><ele>199.0</ele><time>2026-04-06T14:19:16.987Z</time></trkpt><trkpt lat="45.8117277" lon="13.9072408"><ele>200.16666666666666</ele><time>2026-04-06T14:19:17.985Z</time></trkpt><trkpt lat="45.8116507" lon="13.9072913"><ele>201.33333333333331</ele><time>2026-04-06T14:19:18.985Z</time></trkpt><trkpt lat="45.8115719" lon="13.9073434"><ele>202.5</ele><time>2026-04-06T14:19:19.989Z</time></trkpt><trkpt lat="45.8114963" lon="13.907379"><ele>203.66666666666669</ele><time>2026-04-06T14:19:20.987Z</time></trkpt><trkpt lat="45.8114199" lon="13.9073977"><ele>204.83333333333334</ele><time>2026-04-06T14:19:21.982Z</time></trkpt><trkpt lat="45.8113418" lon="13.9073986"><ele>206.0</ele><time>2026-04-06T14:19:22.997Z</time></trkpt><trkpt lat="45.8112637" lon="13.9073999"><ele>206.00000000000003</ele><time>2026-04-06T14:19:23.986Z</time></trkpt><trkpt lat="45.8111922" lon="13.9074212"><ele>206.0</ele><time>2026-04-06T14:19:24.985Z</time></trkpt><trkpt lat="45.8111297" lon="13.9074646"><ele>206.0</ele><time>2026-04-06T14:19:25.983Z</time></trkpt><trkpt lat="45.8110704" lon="13.9075191"><ele>206.0</ele><time>2026-04-06T14:19:26.973Z</time></trkpt><trkpt lat="45.810999" lon="13.9075742"><ele>206.00000000000003</ele><time>2026-04-06T14:19:27.99Z</time></trkpt><trkpt lat="45.8109141" lon="13.9076184"><ele>206.0</ele><time>2026-04-06T14:19:28.985Z</time></trkpt><trkpt lat="45.8108141" lon="13.9076422"><ele>208.8</ele><time>2026-04-06T14:19:30.002Z</time></trkpt><trkpt lat="45.8107104" lon="13.9076669"><ele>211.60000000000002</ele><time>2026-04-06T14:19:30.99Z</time></trkpt><trkpt lat="45.8106075" lon="13.9077043"><ele>214.4</ele><time>2026-04-06T14:19:31.978Z</time></trkpt><trkpt lat="45.8105034" lon="13.9077483"><ele>217.2</ele><time>2026-04-06T14:19:32.981Z</time></trkpt><trkpt lat="45.8103904" lon="13.9077928"><ele>220.0</ele><time>2026-04-06T14:19:33.986Z</time></trkpt><trkpt lat="45.8102819" lon="13.9078277"><ele>220.0</ele><time>2026-04-06T14:19:34.995Z</time></trkpt><trkpt lat="45.8101797" lon="13.9078612"><ele>220.0</ele><time>2026-04-06T14:19:35.984Z</time></trkpt><trkpt lat="45.8100889" lon="13.9079147"><ele>220.0</ele><time>2026-04-06T14:19:36.987Z</time></trkpt><trkpt lat="45.8100005" lon="13.9079834"><ele>220.0</ele><time>2026-04-06T14:19:37.976Z</time></trkpt><trkpt lat="45.8099104" lon="13.9080697"><ele>220.0</ele><time>2026-04-06T14:19:38.978Z</time></trkpt><trkpt lat="45.8098023" lon="13.9081704"><ele>221.0</ele><time>2026-04-06T14:19:39.984Z</time></trkpt><trkpt lat="45.8096854" lon="13.9082691"><ele>222.0</ele><time>2026-04-06T14:19:40.984Z</time></trkpt><trkpt lat="45.8095771" lon="13.9083581"><ele>223.0</ele><time>2026-04-06T14:19:41.978Z</time></trkpt><trkpt lat="45.809477" lon="13.9084431"><ele>224.0</ele><time>2026-04-06T14:19:42.981Z</time></trkpt><trkpt lat="45.8093802" lon="13.9085237"><ele>225.39999999999998</ele><time>2026-04-06T14:19:43.983Z</time></trkpt><trkpt lat="45.8092791" lon="13.9085799"><ele>226.79999999999998</ele><time>2026-04-06T14:19:44.98Z</time></trkpt><trkpt lat="45.8091719" lon="13.9086074"><ele>228.20000000000002</ele><time>2026-04-06T14:19:45.969Z</time></trkpt><trkpt lat="45.8090693" lon="13.9086263"><ele>229.60000000000002</ele><time>2026-04-06T14:19:46.982Z</time></trkpt><trkpt lat="45.8089821" lon="13.9086151"><ele>231.0</ele><time>2026-04-06T14:19:47.978Z</time></trkpt><trkpt lat="45.808899" lon="13.9085923"><ele>231.0</ele><time>2026-04-06T14:19:48.977Z</time></trkpt><trkpt lat="45.808827" lon="13.9085831"><ele>231.0</ele><time>2026-04-06T14:19:49.977Z</time></trkpt><trkpt lat="45.8087602" lon="13.9086451"><ele>231.0</ele><time>2026-04-06T14:19:50.979Z</time></trkpt><trkpt lat="45.8086906" lon="13.9087373"><ele>231.0</ele><time>2026-04-06T14:19:51.971Z</time></trkpt><trkpt lat="45.8086181" lon="13.9088325"><ele>231.0</ele><time>2026-04-06T14:19:52.971Z</time></trkpt><trkpt lat="45.8085403" lon="13.9089234"><ele>231.0</ele><time>2026-04-06T14:19:53.973Z</time></trkpt><trkpt lat="45.8084443" lon="13.9089961"><ele>232.8</ele><time>2026-04-06T14:19:54.979Z</time></trkpt><trkpt lat="45.8083478" lon="13.9090568"><ele>234.60000000000002</ele><time>2026-04-06T14:19:55.974Z</time></trkpt><trkpt lat="45.8082604" lon="13.9091202"><ele>236.4</ele><time>2026-04-06T14:19:56.975Z</time></trkpt><trkpt lat="45.8081828" lon="13.9091967"><ele>238.2</ele><time>2026-04-06T14:19:57.966Z</time></trkpt><trkpt lat="45.8081188" lon="13.909285"><ele>240.0</ele><time>2026-04-06T14:19:58.979Z</time></trkpt><trkpt lat="45.8080516" lon="13.9093827"><ele>240.6</ele><time>2026-04-06T14:19:59.979Z</time></trkpt><trkpt lat="45.8079739" lon="13.9094772"><ele>241.2</ele><time>2026-04-06T14:20:00.996Z</time></trkpt><trkpt lat="45.8078925" lon="13.9095588"><ele>241.8</ele><time>2026-04-06T14:20:01.982Z</time></trkpt><trkpt lat="45.8078015" lon="13.9096607"><ele>242.4</ele><time>2026-04-06T14:20:02.981Z</time></trkpt><trkpt lat="45.8077224" lon="13.9097737"><ele>243.0</ele><time>2026-04-06T14:20:03.975Z</time></trkpt><trkpt lat="45.8076566" lon="13.909894"><ele>243.0</ele><time>2026-04-06T14:20:04.974Z</time></trkpt><trkpt lat="45.8076175" lon="13.9100103"><ele>243.0</ele><time>2026-04-06T14:20:05.979Z</time></trkpt><trkpt lat="45.8075845" lon="13.9101126"><ele>243.0</ele><time>2026-04-06T14:20:06.981Z</time></trkpt><trkpt lat="45.8075317" lon="13.910191"><ele>243.0</ele><time>2026-04-06T14:20:07.986Z</time></trkpt><trkpt lat="45.8074584" lon="13.9102368"><ele>243.0</ele><time>2026-04-06T14:20:08.975Z</time></trkpt><trkpt lat="45.8073771" lon="13.9102691"><ele>243.0</ele><time>2026-04-06T14:20:09.965Z</time></trkpt><trkpt lat="45.8072967" lon="13.9103069"><ele>244.5</ele><time>2026-04-06T14:20:10.978Z</time></trkpt><trkpt lat="45.8072269" lon="13.9103349"><ele>246.0</ele><time>2026-04-06T14:20:11.97Z</time></trkpt><trkpt lat="45.8071432" lon="13.9103839"><ele>247.5</ele><time>2026-04-06T14:20:12.985Z</time></trkpt><trkpt lat="45.8070605" lon="13.910409"><ele>249.0</ele><time>2026-04-06T14:20:13.966Z</time></trkpt><trkpt lat="45.8069661" lon="13.9104057"><ele>250.5</ele><time>2026-04-06T14:20:14.966Z</time></trkpt><trkpt lat="45.8068867" lon="13.9104014"><ele>252.0</ele><time>2026-04-06T14:20:15.977Z</time></trkpt><trkpt lat="45.8067967" lon="13.9104287"><ele>252.0</ele><time>2026-04-06T14:20:17.975Z</time></trkpt><trkpt lat="45.8067621" lon="13.9105203"><ele>252.0</ele><time>2026-04-06T14:20:19.976Z</time></trkpt><trkpt lat="45.8067576" lon="13.9106149"><ele>252.0</ele><time>2026-04-06T14:20:20.973Z</time></trkpt><trkpt lat="45.8067172" lon="13.9107717"><ele>252.0</ele><time>2026-04-06T14:20:22.977Z</time></trkpt><trkpt lat="45.8066636" lon="13.910845"><ele>252.0</ele><time>2026-04-06T14:20:23.974Z</time></trkpt><trkpt lat="45.8066029" lon="13.9109238"><ele>252.0</ele><time>2026-04-06T14:20:24.969Z</time></trkpt><trkpt lat="45.8065392" lon="13.9110067"><ele>255.16666666666666</ele><time>2026-04-06T14:20:25.97Z</time></trkpt><trkpt lat="45.8064786" lon="13.9110964"><ele>258.3333333333333</ele><time>2026-04-06T14:20:26.976Z</time></trkpt><trkpt lat="45.8064191" lon="13.9111814"><ele>261.5</ele><time>2026-04-06T14:20:27.987Z</time></trkpt><trkpt lat="45.8063545" lon="13.9112334"><ele>264.66666666666663</ele><time>2026-04-06T14:20:28.972Z</time></trkpt><trkpt lat="45.8062737" lon="13.9112579"><ele>267.8333333333333</ele><time>2026-04-06T14:20:29.974Z</time></trkpt><trkpt lat="45.8061967" lon="13.9112523"><ele>271.0</ele><time>2026-04-06T14:20:30.974Z</time></trkpt><trkpt lat="45.8061245" lon="13.9112422"><ele>271.0</ele><time>2026-04-06T14:20:31.969Z</time></trkpt><trkpt lat="45.8060438" lon="13.9112606"><ele>271.0</ele><time>2026-04-06T14:20:32.992Z</time></trkpt><trkpt lat="45.8059629" lon="13.9112973"><ele>271.0</ele><time>2026-04-06T14:20:33.976Z</time></trkpt><trkpt lat="45.8058869" lon="13.9113415"><ele>271.0</ele><time>2026-04-06T14:20:34.967Z</time></trkpt><trkpt lat="45.8058151" lon="13.9114123"><ele>271.0</ele><time>2026-04-06T14:20:35.974Z</time></trkpt><trkpt lat="45.8057363" lon="13.9114901"><ele>271.0</ele><time>2026-04-06T14:20:36.973Z</time></trkpt><trkpt lat="45.8056558" lon="13.9115609"><ele>269.6</ele><time>2026-04-06T14:20:37.974Z</time></trkpt><trkpt lat="45.805584" lon="13.9116113"><ele>268.20000000000005</ele><time>2026-04-06T14:20:38.969Z</time></trkpt><trkpt lat="45.805519" lon="13.9116406"><ele>266.79999999999995</ele><time>2026-04-06T14:20:39.998Z</time></trkpt><trkpt lat="45.8054387" lon="13.9117381"><ele>265.4</ele><time>2026-04-06T14:20:41.974Z</time></trkpt><trkpt lat="45.8053681" lon="13.9118428"><ele>264.0</ele><time>2026-04-06T14:20:43.971Z</time></trkpt><trkpt lat="45.8052833" lon="13.9119159"><ele>264.8333333333333</ele><time>2026-04-06T14:20:45.975Z</time></trkpt><trkpt lat="45.8052266" lon="13.9119839"><ele>265.6666666666667</ele><time>2026-04-06T14:20:47.973Z</time></trkpt><trkpt lat="45.8051618" lon="13.9120755"><ele>266.5</ele><time>2026-04-06T14:20:50.982Z</time></trkpt><trkpt lat="45.8051221" lon="13.9121468"><ele>267.33333333333337</ele><time>2026-04-06T14:21:07.968Z</time></trkpt><trkpt lat="45.8050786" lon="13.9122177"><ele>268.1666666666667</ele><time>2026-04-06T14:21:24.99Z</time></trkpt><trkpt lat="45.8051398" lon="13.9121343"><ele>269.0</ele><time>2026-04-06T14:22:29.985Z</time></trkpt><trkpt lat="45.8051941" lon="13.9120397"><ele>268.0</ele><time>2026-04-06T14:22:31.96Z</time></trkpt><trkpt lat="45.8052676" lon="13.9119158"><ele>267.0</ele><time>2026-04-06T14:22:33.982Z</time></trkpt><trkpt lat="45.8053644" lon="13.9118308"><ele>266.0</ele><time>2026-04-06T14:22:35.983Z</time></trkpt><trkpt lat="45.8054197" lon="13.9117673"><ele>265.0</ele><time>2026-04-06T14:22:37.982Z</time></trkpt><trkpt lat="45.8054253" lon="13.9116758"><ele>264.0</ele><time>2026-04-06T14:22:40.984Z</time></trkpt><trkpt lat="45.8053201" lon="13.9117048"><ele>264.0</ele><time>2026-04-06T14:22:43.966Z</time></trkpt><trkpt lat="45.8052475" lon="13.9117381"><ele>264.0</ele><time>2026-04-06T14:22:44.993Z</time></trkpt><trkpt lat="45.8051876" lon="13.9117789"><ele>264.0</ele><time>2026-04-06T14:22:45.972Z</time></trkpt><trkpt lat="45.8051168" lon="13.9118428"><ele>264.0</ele><time>2026-04-06T14:22:46.973Z</time></trkpt><trkpt lat="45.8050411" lon="13.9119149"><ele>264.0</ele><time>2026-04-06T14:22:47.975Z</time></trkpt><trkpt lat="45.8049712" lon="13.9119852"><ele>264.0</ele><time>2026-04-06T14:22:48.978Z</time></trkpt><trkpt lat="45.8049" lon="13.9120542"><ele>265.0</ele><time>2026-04-06T14:22:49.97Z</time></trkpt><trkpt lat="45.80483" lon="13.9121351"><ele>266.0</ele><time>2026-04-06T14:22:50.995Z</time></trkpt><trkpt lat="45.8047609" lon="13.9122392"><ele>267.0</ele><time>2026-04-06T14:22:51.981Z</time></trkpt><trkpt lat="45.8046937" lon="13.9123504"><ele>268.0</ele><time>2026-04-06T14:22:52.969Z</time></trkpt><trkpt lat="45.8046291" lon="13.91247"><ele>269.0</ele><time>2026-04-06T14:22:53.981Z</time></trkpt><trkpt lat="45.8045591" lon="13.9125491"><ele>270.83333333333337</ele><time>2026-04-06T14:22:54.982Z</time></trkpt><trkpt lat="45.80448" lon="13.9126085"><ele>272.6666666666667</ele><time>2026-04-06T14:22:55.98Z</time></trkpt><trkpt lat="45.8043914" lon="13.9126559"><ele>274.5</ele><time>2026-04-06T14:22:56.996Z</time></trkpt><trkpt lat="45.8043102" lon="13.9126966"><ele>276.3333333333333</ele><time>2026-04-06T14:22:57.973Z</time></trkpt><trkpt lat="45.8042381" lon="13.9127308"><ele>278.16666666666663</ele><time>2026-04-06T14:22:58.975Z</time></trkpt><trkpt lat="45.8041658" lon="13.9127627"><ele>280.0</ele><time>2026-04-06T14:22:59.977Z</time></trkpt><trkpt lat="45.8040929" lon="13.9127976"><ele>280.0</ele><time>2026-04-06T14:23:00.976Z</time></trkpt><trkpt lat="45.8040162" lon="13.9128445"><ele>280.0</ele><time>2026-04-06T14:23:01.973Z</time></trkpt><trkpt lat="45.8039503" lon="13.9128965"><ele>280.0</ele><time>2026-04-06T14:23:02.967Z</time></trkpt><trkpt lat="45.8038954" lon="13.9129508"><ele>280.0</ele><time>2026-04-06T14:23:03.972Z</time></trkpt><trkpt lat="45.8038085" lon="13.9130185"><ele>280.0</ele><time>2026-04-06T14:23:05.968Z</time></trkpt><trkpt lat="45.8037409" lon="13.9130809"><ele>280.0</ele><time>2026-04-06T14:23:07.972Z</time></trkpt><trkpt lat="45.8036985" lon="13.9132409"><ele>282.4</ele><time>2026-04-06T14:23:09.961Z</time></trkpt><trkpt lat="45.8036524" lon="13.9134114"><ele>284.8</ele><time>2026-04-06T14:23:11.969Z</time></trkpt><trkpt lat="45.8035745" lon="13.9135486"><ele>287.2</ele><time>2026-04-06T14:23:13.974Z</time></trkpt><trkpt lat="45.8034942" lon="13.913608"><ele>289.6</ele><time>2026-04-06T14:23:15.971Z</time></trkpt><trkpt lat="45.8034177" lon="13.9136475"><ele>292.0</ele><time>2026-04-06T14:23:17.977Z</time></trkpt><trkpt lat="45.8032985" lon="13.9137112"><ele>292.0</ele><time>2026-04-06T14:23:19.975Z</time></trkpt><trkpt lat="45.8032088" lon="13.9138432"><ele>292.0</ele><time>2026-04-06T14:23:21.988Z</time></trkpt><trkpt lat="45.8031619" lon="13.9139167"><ele>292.0</ele><time>2026-04-06T14:23:22.972Z</time></trkpt><trkpt lat="45.8031224" lon="13.9139985"><ele>292.0</ele><time>2026-04-06T14:23:23.97Z</time></trkpt><trkpt lat="45.8030504" lon="13.9141351"><ele>292.0</ele><time>2026-04-06T14:23:25.978Z</time></trkpt><trkpt lat="45.802953" lon="13.9142486"><ele>297.25</ele><time>2026-04-06T14:23:27.973Z</time></trkpt><trkpt lat="45.8028496" lon="13.9143556"><ele>302.5</ele><time>2026-04-06T14:23:29.976Z</time></trkpt><trkpt lat="45.802763" lon="13.9144722"><ele>307.75</ele><time>2026-04-06T14:23:31.971Z</time></trkpt><trkpt lat="45.8027168" lon="13.9146248"><ele>313.0</ele><time>2026-04-06T14:23:33.973Z</time></trkpt><trkpt lat="45.8026887" lon="13.9147758"><ele>312.8333333333333</ele><time>2026-04-06T14:23:35.968Z</time></trkpt><trkpt lat="45.8026521" lon="13.9148545"><ele>312.66666666666663</ele><time>2026-04-06T14:23:36.975Z</time></trkpt><trkpt lat="45.8026097" lon="13.9149268"><ele>312.5</ele><time>2026-04-06T14:23:37.971Z</time></trkpt><trkpt lat="45.8025625" lon="13.9150022"><ele>312.3333333333333</ele><time>2026-04-06T14:23:38.975Z</time></trkpt><trkpt lat="45.8025102" lon="13.9150907"><ele>312.1666666666667</ele><time>2026-04-06T14:23:39.969Z</time></trkpt><trkpt lat="45.8024505" lon="13.9151786"><ele>312.0</ele><time>2026-04-06T14:23:40.973Z</time></trkpt><trkpt lat="45.8023868" lon="13.9152663"><ele>312.0</ele><time>2026-04-06T14:23:41.977Z</time></trkpt><trkpt lat="45.8023384" lon="13.9153479"><ele>312.0</ele><time>2026-04-06T14:23:42.99Z</time></trkpt><trkpt lat="45.8022771" lon="13.9154673"><ele>312.0</ele><time>2026-04-06T14:23:44.969Z</time></trkpt><trkpt lat="45.8022418" lon="13.9155709"><ele>312.0</ele><time>2026-04-06T14:23:47.975Z</time></trkpt><trkpt lat="45.8022492" lon="13.9157078"><ele>312.0</ele><time>2026-04-06T14:23:50.986Z</time></trkpt><trkpt lat="45.8022573" lon="13.9158467"><ele>313.1666666666667</ele><time>2026-04-06T14:23:52.977Z</time></trkpt><trkpt lat="45.8022588" lon="13.9160023"><ele>314.3333333333333</ele><time>2026-04-06T14:23:54.973Z</time></trkpt><trkpt lat="45.8022608" lon="13.9160992"><ele>315.5</ele><time>2026-04-06T14:23:56.981Z</time></trkpt><trkpt lat="45.8022761" lon="13.9162069"><ele>316.66666666666663</ele><time>2026-04-06T14:23:59.972Z</time></trkpt><trkpt lat="45.8022633" lon="13.9163338"><ele>317.8333333333333</ele><time>2026-04-06T14:24:03.975Z</time></trkpt><trkpt lat="45.8022175" lon="13.9164116"><ele>319.0</ele><time>2026-04-06T14:24:05.975Z</time></trkpt><trkpt lat="45.8021521" lon="13.9164886"><ele>319.0</ele><time>2026-04-06T14:24:07.973Z</time></trkpt><trkpt lat="45.8021194" lon="13.9165946"><ele>319.0</ele><time>2026-04-06T14:24:09.963Z</time></trkpt><trkpt lat="45.8020804" lon="13.9167048"><ele>319.0</ele><time>2026-04-06T14:24:11.973Z</time></trkpt><trkpt lat="45.8020235" lon="13.9168036"><ele>319.0</ele><time>2026-04-06T14:24:13.978Z</time></trkpt><trkpt lat="45.8019831" lon="13.9168743"><ele>319.0</ele><time>2026-04-06T14:24:14.968Z</time></trkpt><trkpt lat="45.8019155" lon="13.9170083"><ele>319.0</ele><time>2026-04-06T14:24:16.972Z</time></trkpt><trkpt lat="45.8018624" lon="13.9170902"><ele>321.14285714285717</ele><time>2026-04-06T14:24:19.973Z</time></trkpt><trkpt lat="45.8017978" lon="13.9170882"><ele>323.2857142857143</ele><time>2026-04-06T14:25:10.977Z</time></trkpt><trkpt lat="45.8017397" lon="13.9171419"><ele>325.42857142857144</ele><time>2026-04-06T14:25:22.986Z</time></trkpt><trkpt lat="45.8016873" lon="13.9171989"><ele>327.57142857142856</ele><time>2026-04-06T14:26:04.984Z</time></trkpt><trkpt lat="45.8017469" lon="13.9171606"><ele>329.7142857142857</ele><time>2026-04-06T14:31:57.985Z</time></trkpt><trkpt lat="45.8017802" lon="13.9170753"><ele>331.85714285714283</ele><time>2026-04-06T14:32:41.974Z</time></trkpt><trkpt lat="45.8018576" lon="13.9170748"><ele>334.0</ele><time>2026-04-06T14:33:10.973Z</time></trkpt><trkpt lat="45.8019121" lon="13.9170258"><ele>334.0</ele><time>2026-04-06T14:33:13.971Z</time></trkpt><trkpt lat="45.8019495" lon="13.9169343"><ele>334.0</ele><time>2026-04-06T14:33:16.979Z</time></trkpt><trkpt lat="45.8020015" lon="13.9168532"><ele>334.0</ele><time>2026-04-06T14:33:21.981Z</time></trkpt><trkpt lat="45.8020535" lon="13.9167865"><ele>334.0</ele><time>2026-04-06T14:33:23.971Z</time></trkpt><trkpt lat="45.802111" lon="13.9167184"><ele>334.0</ele><time>2026-04-06T14:33:26.975Z</time></trkpt><trkpt lat="45.8021373" lon="13.9166185"><ele>334.0</ele><time>2026-04-06T14:33:30.972Z</time></trkpt><trkpt lat="45.8021769" lon="13.9165364"><ele>334.0</ele><time>2026-04-06T14:33:33.973Z</time></trkpt><trkpt lat="45.8022258" lon="13.9164773"><ele>331.5</ele><time>2026-04-06T14:33:36.967Z</time></trkpt><trkpt lat="45.8022527" lon="13.9163852"><ele>329.0</ele><time>2026-04-06T14:34:09.967Z</time></trkpt><trkpt lat="45.8022727" lon="13.9162759"><ele>326.5</ele><time>2026-04-06T14:34:12.969Z</time></trkpt><trkpt lat="45.8022816" lon="13.9161773"><ele>324.0</ele><time>2026-04-06T14:35:07.98Z</time></trkpt><trkpt lat="45.802259" lon="13.9160214"><ele>321.5</ele><time>2026-04-06T14:35:10.987Z</time></trkpt><trkpt lat="45.8022594" lon="13.9158853"><ele>319.0</ele><time>2026-04-06T14:35:13.004Z</time></trkpt><trkpt lat="45.8022643" lon="13.9157683"><ele>317.8333333333333</ele><time>2026-04-06T14:35:15.993Z</time></trkpt><trkpt lat="45.8022416" lon="13.9156663"><ele>316.66666666666663</ele><time>2026-04-06T14:35:19.002Z</time></trkpt><trkpt lat="45.8022391" lon="13.9155513"><ele>315.5</ele><time>2026-04-06T14:35:21.981Z</time></trkpt><trkpt lat="45.8022739" lon="13.9154727"><ele>314.3333333333333</ele><time>2026-04-06T14:35:25.973Z</time></trkpt><trkpt lat="45.8023411" lon="13.9153638"><ele>313.1666666666667</ele><time>2026-04-06T14:35:28.984Z</time></trkpt><trkpt lat="45.8024042" lon="13.9152684"><ele>312.0</ele><time>2026-04-06T14:35:30.971Z</time></trkpt><trkpt lat="45.8024799" lon="13.9151299"><ele>312.2</ele><time>2026-04-06T14:35:32.97Z</time></trkpt><trkpt lat="45.8025443" lon="13.9150163"><ele>312.4</ele><time>2026-04-06T14:35:34.974Z</time></trkpt><trkpt lat="45.8026127" lon="13.9148969"><ele>312.6</ele><time>2026-04-06T14:35:36.969Z</time></trkpt><trkpt lat="45.8026717" lon="13.9147732"><ele>312.8</ele><time>2026-04-06T14:35:38.967Z</time></trkpt><trkpt lat="45.8027191" lon="13.914613"><ele>313.0</ele><time>2026-04-06T14:35:40.972Z</time></trkpt><trkpt lat="45.8027531" lon="13.914537"><ele>313.0</ele><time>2026-04-06T14:35:41.969Z</time></trkpt><trkpt lat="45.8028477" lon="13.9144194"><ele>313.0</ele><time>2026-04-06T14:35:43.977Z</time></trkpt><trkpt lat="45.8029026" lon="13.9143747"><ele>313.0</ele><time>2026-04-06T14:35:44.966Z</time></trkpt><trkpt lat="45.8029934" lon="13.914298"><ele>313.0</ele><time>2026-04-06T14:35:46.965Z</time></trkpt><trkpt lat="45.8030835" lon="13.9141989"><ele>313.0</ele><time>2026-04-06T14:35:48.969Z</time></trkpt><trkpt lat="45.8031496" lon="13.9140528"><ele>312.6</ele><time>2026-04-06T14:35:50.976Z</time></trkpt><trkpt lat="45.8032147" lon="13.9139053"><ele>312.20000000000005</ele><time>2026-04-06T14:35:52.983Z</time></trkpt><trkpt lat="45.8032533" lon="13.9138331"><ele>311.8</ele><time>2026-04-06T14:35:53.975Z</time></trkpt><trkpt lat="45.8033299" lon="13.9137088"><ele>311.40000000000003</ele><time>2026-04-06T14:35:55.968Z</time></trkpt><trkpt lat="45.8034239" lon="13.9136789"><ele>311.0</ele><time>2026-04-06T14:35:57.974Z</time></trkpt><trkpt lat="45.8035357" lon="13.9136349"><ele>311.0</ele><time>2026-04-06T14:35:59.965Z</time></trkpt><trkpt lat="45.8036169" lon="13.9135402"><ele>311.0</ele><time>2026-04-06T14:36:01.971Z</time></trkpt><trkpt lat="45.8036621" lon="13.91346"><ele>311.0</ele><time>2026-04-06T14:36:02.977Z</time></trkpt><trkpt lat="45.8036934" lon="13.9133753"><ele>311.0</ele><time>2026-04-06T14:36:03.964Z</time></trkpt><trkpt lat="45.803734" lon="13.9132432"><ele>311.0</ele><time>2026-04-06T14:36:05.976Z</time></trkpt><trkpt lat="45.803712" lon="13.9131353"><ele>311.0</ele><time>2026-04-06T14:37:51.972Z</time></trkpt><trkpt lat="45.8036322" lon="13.9130538"><ele>306.6</ele><time>2026-04-06T14:37:53.969Z</time></trkpt><trkpt lat="45.8035442" lon="13.9129577"><ele>302.20000000000005</ele><time>2026-04-06T14:37:55.971Z</time></trkpt><trkpt lat="45.8034684" lon="13.9128628"><ele>297.79999999999995</ele><time>2026-04-06T14:37:57.964Z</time></trkpt><trkpt lat="45.8034182" lon="13.9127842"><ele>293.4</ele><time>2026-04-06T14:37:59.973Z</time></trkpt><trkpt lat="45.8033522" lon="13.9126997"><ele>289.0</ele><time>2026-04-06T14:38:01.966Z</time></trkpt><trkpt lat="45.8032729" lon="13.9125988"><ele>289.5</ele><time>2026-04-06T14:38:03.968Z</time></trkpt><trkpt lat="45.803195" lon="13.9125128"><ele>290.0</ele><time>2026-04-06T14:38:05.973Z</time></trkpt><trkpt lat="45.8031071" lon="13.9124498"><ele>290.5</ele><time>2026-04-06T14:38:07.975Z</time></trkpt><trkpt lat="45.8030123" lon="13.9123586"><ele>291.0</ele><time>2026-04-06T14:38:09.966Z</time></trkpt><trkpt lat="45.802961" lon="13.9123038"><ele>291.5</ele><time>2026-04-06T14:38:10.971Z</time></trkpt><trkpt lat="45.8029001" lon="13.9122663"><ele>292.0</ele><time>2026-04-06T14:38:11.976Z</time></trkpt><trkpt lat="45.802808" lon="13.9121808"><ele>292.0</ele><time>2026-04-06T14:38:13.966Z</time></trkpt><trkpt lat="45.8027103" lon="13.9121108"><ele>292.0</ele><time>2026-04-06T14:38:15.966Z</time></trkpt><trkpt lat="45.8026338" lon="13.9120506"><ele>292.0</ele><time>2026-04-06T14:38:17.967Z</time></trkpt><trkpt lat="45.8025542" lon="13.9119919"><ele>292.0</ele><time>2026-04-06T14:38:19.967Z</time></trkpt><trkpt lat="45.802464" lon="13.9119193"><ele>292.0</ele><time>2026-04-06T14:38:21.962Z</time></trkpt><trkpt lat="45.8023661" lon="13.9118399"><ele>294.1428571428571</ele><time>2026-04-06T14:38:23.97Z</time></trkpt><trkpt lat="45.8023088" lon="13.9117868"><ele>296.2857142857143</ele><time>2026-04-06T14:38:24.972Z</time></trkpt><trkpt lat="45.8022113" lon="13.9117176"><ele>298.42857142857144</ele><time>2026-04-06T14:38:26.973Z</time></trkpt><trkpt lat="45.802155" lon="13.911677"><ele>300.57142857142856</ele><time>2026-04-06T14:38:28.965Z</time></trkpt><trkpt lat="45.8020879" lon="13.9116625"><ele>302.7142857142857</ele><time>2026-04-06T14:38:41.97Z</time></trkpt><trkpt lat="45.8021348" lon="13.9117294"><ele>304.85714285714283</ele><time>2026-04-06T14:39:32.966Z</time></trkpt><trkpt lat="45.8021928" lon="13.9117697"><ele>307.0</ele><time>2026-04-06T14:39:34.97Z</time></trkpt><trkpt lat="45.8022785" lon="13.9118378"><ele>308.8</ele><time>2026-04-06T14:39:36.971Z</time></trkpt><trkpt lat="45.8023809" lon="13.9119053"><ele>310.6</ele><time>2026-04-06T14:39:38.975Z</time></trkpt><trkpt lat="45.8024453" lon="13.9119623"><ele>312.40000000000003</ele><time>2026-04-06T14:39:40.975Z</time></trkpt><trkpt lat="45.8025162" lon="13.9120297"><ele>314.2</ele><time>2026-04-06T14:39:42.971Z</time></trkpt><trkpt lat="45.8025938" lon="13.9121075"><ele>316.0</ele><time>2026-04-06T14:39:44.964Z</time></trkpt><trkpt lat="45.8026858" lon="13.9121945"><ele>311.2</ele><time>2026-04-06T14:39:46.96Z</time></trkpt><trkpt lat="45.802793" lon="13.9122629"><ele>306.40000000000003</ele><time>2026-04-06T14:39:48.967Z</time></trkpt><trkpt lat="45.8028805" lon="13.9123213"><ele>301.6</ele><time>2026-04-06T14:39:50.972Z</time></trkpt><trkpt lat="45.802951" lon="13.9123769"><ele>296.8</ele><time>2026-04-06T14:39:52.967Z</time></trkpt><trkpt lat="45.803021" lon="13.912425"><ele>292.0</ele><time>2026-04-06T14:39:54.962Z</time></trkpt><trkpt lat="45.8030924" lon="13.9124884"><ele>292.0</ele><time>2026-04-06T14:39:56.966Z</time></trkpt><trkpt lat="45.8031618" lon="13.912561"><ele>292.0</ele><time>2026-04-06T14:39:58.964Z</time></trkpt><trkpt lat="45.8032305" lon="13.9126469"><ele>292.0</ele><time>2026-04-06T14:40:00.976Z</time></trkpt><trkpt lat="45.8033001" lon="13.912725"><ele>292.0</ele><time>2026-04-06T14:40:02.974Z</time></trkpt><trkpt lat="45.8033731" lon="13.9128012"><ele>292.0</ele><time>2026-04-06T14:40:04.965Z</time></trkpt><trkpt lat="45.8034415" lon="13.912884"><ele>292.0</ele><time>2026-04-06T14:40:06.959Z</time></trkpt><trkpt lat="45.8035039" lon="13.9129725"><ele>290.0</ele><time>2026-04-06T14:40:08.971Z</time></trkpt><trkpt lat="45.8035826" lon="13.9130524"><ele>288.0</ele><time>2026-04-06T14:40:10.975Z</time></trkpt><trkpt lat="45.803668" lon="13.9131319"><ele>286.0</ele><time>2026-04-06T14:40:12.969Z</time></trkpt><trkpt lat="45.8037335" lon="13.9131129"><ele>284.0</ele><time>2026-04-06T14:40:15.96Z</time></trkpt><trkpt lat="45.803793" lon="13.9130587"><ele>282.0</ele><time>2026-04-06T14:40:17.965Z</time></trkpt><trkpt lat="45.8038605" lon="13.9130351"><ele>280.0</ele><time>2026-04-06T14:40:18.963Z</time></trkpt><trkpt lat="45.8039434" lon="13.9129848"><ele>280.0</ele><time>2026-04-06T14:40:19.97Z</time></trkpt><trkpt lat="45.8040363" lon="13.9129253"><ele>280.0</ele><time>2026-04-06T14:40:20.968Z</time></trkpt><trkpt lat="45.8041306" lon="13.9128783"><ele>280.0</ele><time>2026-04-06T14:40:21.986Z</time></trkpt><trkpt lat="45.8042155" lon="13.9128352"><ele>280.0</ele><time>2026-04-06T14:40:22.968Z</time></trkpt><trkpt lat="45.8042965" lon="13.9127862"><ele>280.0</ele><time>2026-04-06T14:40:23.972Z</time></trkpt><trkpt lat="45.8043881" lon="13.9127156"><ele>281.2</ele><time>2026-04-06T14:40:24.969Z</time></trkpt><trkpt lat="45.8044789" lon="13.9126484"><ele>282.4</ele><time>2026-04-06T14:40:25.966Z</time></trkpt><trkpt lat="45.8045619" lon="13.912582"><ele>283.6</ele><time>2026-04-06T14:40:26.974Z</time></trkpt><trkpt lat="45.8046362" lon="13.9124934"><ele>284.8</ele><time>2026-04-06T14:40:27.97Z</time></trkpt><trkpt lat="45.8047091" lon="13.9123877"><ele>286.0</ele><time>2026-04-06T14:40:28.986Z</time></trkpt><trkpt lat="45.8047848" lon="13.9122644"><ele>281.75</ele><time>2026-04-06T14:40:29.961Z</time></trkpt><trkpt lat="45.8048622" lon="13.9121425"><ele>277.5</ele><time>2026-04-06T14:40:30.972Z</time></trkpt><trkpt lat="45.8049457" lon="13.912019"><ele>273.25</ele><time>2026-04-06T14:40:31.963Z</time></trkpt><trkpt lat="45.805039" lon="13.9119113"><ele>269.0</ele><time>2026-04-06T14:40:32.966Z</time></trkpt><trkpt lat="45.8051353" lon="13.9118172"><ele>268.0</ele><time>2026-04-06T14:40:33.97Z</time></trkpt><trkpt lat="45.8052287" lon="13.911734"><ele>267.0</ele><time>2026-04-06T14:40:34.965Z</time></trkpt><trkpt lat="45.8053144" lon="13.9116959"><ele>266.0</ele><time>2026-04-06T14:40:35.982Z</time></trkpt><trkpt lat="45.8053826" lon="13.9116852"><ele>265.0</ele><time>2026-04-06T14:40:36.967Z</time></trkpt><trkpt lat="45.8054962" lon="13.9116706"><ele>264.0</ele><time>2026-04-06T14:40:38.973Z</time></trkpt><trkpt lat="45.8055683" lon="13.911657"><ele>264.0</ele><time>2026-04-06T14:40:39.958Z</time></trkpt><trkpt lat="45.8056483" lon="13.9116323"><ele>264.0</ele><time>2026-04-06T14:40:40.99Z</time></trkpt><trkpt lat="45.8057229" lon="13.9116034"><ele>264.0</ele><time>2026-04-06T14:40:41.964Z</time></trkpt><trkpt lat="45.8057913" lon="13.9115655"><ele>264.0</ele><time>2026-04-06T14:40:42.971Z</time></trkpt><trkpt lat="45.8058617" lon="13.911516"><ele>264.0</ele><time>2026-04-06T14:40:43.964Z</time></trkpt><trkpt lat="45.8059227" lon="13.911448"><ele>264.0</ele><time>2026-04-06T14:40:44.961Z</time></trkpt><trkpt lat="45.8059857" lon="13.9113706"><ele>265.4</ele><time>2026-04-06T14:40:45.961Z</time></trkpt><trkpt lat="45.8060441" lon="13.9113147"><ele>266.79999999999995</ele><time>2026-04-06T14:40:46.967Z</time></trkpt><trkpt lat="45.8061583" lon="13.9112687"><ele>268.20000000000005</ele><time>2026-04-06T14:40:48.964Z</time></trkpt><trkpt lat="45.8062773" lon="13.9112826"><ele>269.6</ele><time>2026-04-06T14:40:50.967Z</time></trkpt><trkpt lat="45.806386" lon="13.9112206"><ele>271.0</ele><time>2026-04-06T14:40:52.967Z</time></trkpt><trkpt lat="45.8064425" lon="13.9111721"><ele>271.0</ele><time>2026-04-06T14:40:53.967Z</time></trkpt><trkpt lat="45.8065062" lon="13.9110932"><ele>271.0</ele><time>2026-04-06T14:40:55.001Z</time></trkpt><trkpt lat="45.8065781" lon="13.911003"><ele>271.0</ele><time>2026-04-06T14:40:55.971Z</time></trkpt><trkpt lat="45.8066385" lon="13.9109122"><ele>271.0</ele><time>2026-04-06T14:40:56.972Z</time></trkpt><trkpt lat="45.8066873" lon="13.9108286"><ele>271.0</ele><time>2026-04-06T14:40:57.964Z</time></trkpt><trkpt lat="45.8067304" lon="13.9107522"><ele>271.0</ele><time>2026-04-06T14:40:58.973Z</time></trkpt><trkpt lat="45.8067809" lon="13.910596"><ele>267.8333333333333</ele><time>2026-04-06T14:41:00.971Z</time></trkpt><trkpt lat="45.8068331" lon="13.910464"><ele>264.66666666666663</ele><time>2026-04-06T14:41:02.972Z</time></trkpt><trkpt lat="45.8069036" lon="13.9104413"><ele>261.5</ele><time>2026-04-06T14:41:05.974Z</time></trkpt><trkpt lat="45.806997" lon="13.9104559"><ele>258.3333333333333</ele><time>2026-04-06T14:41:07.957Z</time></trkpt><trkpt lat="45.8070716" lon="13.9104566"><ele>255.16666666666666</ele><time>2026-04-06T14:41:08.968Z</time></trkpt><trkpt lat="45.8071502" lon="13.9104307"><ele>252.0</ele><time>2026-04-06T14:41:09.968Z</time></trkpt><trkpt lat="45.8072508" lon="13.9103725"><ele>252.0</ele><time>2026-04-06T14:41:10.975Z</time></trkpt><trkpt lat="45.8073529" lon="13.9103065"><ele>252.0</ele><time>2026-04-06T14:41:11.975Z</time></trkpt><trkpt lat="45.8074534" lon="13.9102576"><ele>252.0</ele><time>2026-04-06T14:41:12.976Z</time></trkpt><trkpt lat="45.8075239" lon="13.9102168"><ele>252.0</ele><time>2026-04-06T14:41:13.965Z</time></trkpt><trkpt lat="45.8075714" lon="13.9101557"><ele>252.0</ele><time>2026-04-06T14:41:14.964Z</time></trkpt><trkpt lat="45.8076164" lon="13.9100504"><ele>252.0</ele><time>2026-04-06T14:41:15.968Z</time></trkpt><trkpt lat="45.8076586" lon="13.909917"><ele>249.75</ele><time>2026-04-06T14:41:16.968Z</time></trkpt><trkpt lat="45.8077154" lon="13.9097809"><ele>247.5</ele><time>2026-04-06T14:41:17.995Z</time></trkpt><trkpt lat="45.8077872" lon="13.9096583"><ele>245.25</ele><time>2026-04-06T14:41:18.972Z</time></trkpt><trkpt lat="45.8078767" lon="13.9095484"><ele>243.0</ele><time>2026-04-06T14:41:19.968Z</time></trkpt><trkpt lat="45.807976" lon="13.9094438"><ele>243.0</ele><time>2026-04-06T14:41:20.962Z</time></trkpt><trkpt lat="45.8080747" lon="13.9093513"><ele>243.0</ele><time>2026-04-06T14:41:21.971Z</time></trkpt><trkpt lat="45.8081624" lon="13.9092553"><ele>243.0</ele><time>2026-04-06T14:41:22.984Z</time></trkpt><trkpt lat="45.8082225" lon="13.9091628"><ele>243.0</ele><time>2026-04-06T14:41:23.965Z</time></trkpt><trkpt lat="45.8082748" lon="13.9090792"><ele>243.0</ele><time>2026-04-06T14:41:24.978Z</time></trkpt><trkpt lat="45.8083358" lon="13.9090219"><ele>242.5</ele><time>2026-04-06T14:41:25.966Z</time></trkpt><trkpt lat="45.8083924" lon="13.9089811"><ele>242.0</ele><time>2026-04-06T14:41:26.972Z</time></trkpt><trkpt lat="45.8084622" lon="13.9089441"><ele>241.5</ele><time>2026-04-06T14:41:27.975Z</time></trkpt><trkpt lat="45.8085323" lon="13.9089068"><ele>241.0</ele><time>2026-04-06T14:41:28.971Z</time></trkpt><trkpt lat="45.8086035" lon="13.908859"><ele>240.5</ele><time>2026-04-06T14:41:29.987Z</time></trkpt><trkpt lat="45.8086741" lon="13.9087968"><ele>240.0</ele><time>2026-04-06T14:41:30.969Z</time></trkpt><trkpt lat="45.8087391" lon="13.9087323"><ele>238.5</ele><time>2026-04-06T14:41:31.968Z</time></trkpt><trkpt lat="45.8088009" lon="13.9086757"><ele>237.0</ele><time>2026-04-06T14:41:32.971Z</time></trkpt><trkpt lat="45.8088679" lon="13.9086395"><ele>235.5</ele><time>2026-04-06T14:41:33.969Z</time></trkpt><trkpt lat="45.8089387" lon="13.9086122"><ele>234.0</ele><time>2026-04-06T14:41:34.991Z</time></trkpt><trkpt lat="45.8090184" lon="13.9086027"><ele>232.5</ele><time>2026-04-06T14:41:35.961Z</time></trkpt><trkpt lat="45.8091048" lon="13.9085995"><ele>231.0</ele><time>2026-04-06T14:41:36.974Z</time></trkpt><trkpt lat="45.8091909" lon="13.9085935"><ele>231.0</ele><time>2026-04-06T14:41:37.977Z</time></trkpt><trkpt lat="45.8092839" lon="13.9085879"><ele>231.00000000000003</ele><time>2026-04-06T14:41:38.97Z</time></trkpt><trkpt lat="45.8093761" lon="13.908553"><ele>231.00000000000003</ele><time>2026-04-06T14:41:39.968Z</time></trkpt><trkpt lat="45.8094617" lon="13.9084945"><ele>231.0</ele><time>2026-04-06T14:41:40.975Z</time></trkpt><trkpt lat="45.8095406" lon="13.9084342"><ele>231.0</ele><time>2026-04-06T14:41:41.974Z</time></trkpt><trkpt lat="45.8096208" lon="13.9083716"><ele>229.83333333333334</ele><time>2026-04-06T14:41:42.972Z</time></trkpt><trkpt lat="45.8097001" lon="13.9083047"><ele>228.66666666666669</ele><time>2026-04-06T14:41:43.968Z</time></trkpt><trkpt lat="45.8097744" lon="13.9082597"><ele>227.5</ele><time>2026-04-06T14:41:44.963Z</time></trkpt><trkpt lat="45.8098468" lon="13.9082075"><ele>226.33333333333334</ele><time>2026-04-06T14:41:45.977Z</time></trkpt><trkpt lat="45.8099265" lon="13.908146"><ele>225.16666666666669</ele><time>2026-04-06T14:41:46.976Z</time></trkpt><trkpt lat="45.810005" lon="13.9080686"><ele>224.0</ele><time>2026-04-06T14:41:47.975Z</time></trkpt><trkpt lat="45.810082" lon="13.9079891"><ele>223.33333333333334</ele><time>2026-04-06T14:41:48.975Z</time></trkpt><trkpt lat="45.8101603" lon="13.9079317"><ele>222.66666666666669</ele><time>2026-04-06T14:41:49.972Z</time></trkpt><trkpt lat="45.8102412" lon="13.9079007"><ele>222.0</ele><time>2026-04-06T14:41:50.973Z</time></trkpt><trkpt lat="45.8103201" lon="13.9078821"><ele>221.33333333333331</ele><time>2026-04-06T14:41:51.986Z</time></trkpt><trkpt lat="45.8103945" lon="13.9078637"><ele>220.66666666666666</ele><time>2026-04-06T14:41:52.967Z</time></trkpt><trkpt lat="45.8104701" lon="13.9078316"><ele>220.0</ele><time>2026-04-06T14:41:53.977Z</time></trkpt><trkpt lat="45.810545" lon="13.9077957"><ele>219.99999999999997</ele><time>2026-04-06T14:41:54.974Z</time></trkpt><trkpt lat="45.8106187" lon="13.9077612"><ele>220.0</ele><time>2026-04-06T14:41:55.963Z</time></trkpt><trkpt lat="45.8106948" lon="13.9077228"><ele>220.0</ele><time>2026-04-06T14:41:56.972Z</time></trkpt><trkpt lat="45.8107742" lon="13.9076933"><ele>220.0</ele><time>2026-04-06T14:41:57.981Z</time></trkpt><trkpt lat="45.8108582" lon="13.907665"><ele>219.99999999999997</ele><time>2026-04-06T14:41:58.971Z</time></trkpt><trkpt lat="45.8109399" lon="13.9076394"><ele>220.0</ele><time>2026-04-06T14:41:59.968Z</time></trkpt><trkpt lat="45.8110197" lon="13.907596"><ele>217.66666666666666</ele><time>2026-04-06T14:42:01.02Z</time></trkpt><trkpt lat="45.811097" lon="13.9075308"><ele>215.33333333333331</ele><time>2026-04-06T14:42:01.976Z</time></trkpt><trkpt lat="45.8111739" lon="13.9074719"><ele>213.0</ele><time>2026-04-06T14:42:02.974Z</time></trkpt><trkpt lat="45.8112488" lon="13.9074226"><ele>210.66666666666669</ele><time>2026-04-06T14:42:03.967Z</time></trkpt><trkpt lat="45.8113325" lon="13.9074049"><ele>208.33333333333334</ele><time>2026-04-06T14:42:04.97Z</time></trkpt><trkpt lat="45.8114244" lon="13.9073999"><ele>206.0</ele><time>2026-04-06T14:42:05.97Z</time></trkpt><trkpt lat="45.8115057" lon="13.9073884"><ele>206.00000000000003</ele><time>2026-04-06T14:42:06.969Z</time></trkpt><trkpt lat="45.8115801" lon="13.9073614"><ele>206.0</ele><time>2026-04-06T14:42:07.974Z</time></trkpt><trkpt lat="45.8116486" lon="13.9073319"><ele>206.0</ele><time>2026-04-06T14:42:08.964Z</time></trkpt><trkpt lat="45.8117208" lon="13.9072982"><ele>206.0</ele><time>2026-04-06T14:42:09.968Z</time></trkpt><trkpt lat="45.8118009" lon="13.9072511"><ele>206.00000000000003</ele><time>2026-04-06T14:42:10.967Z</time></trkpt><trkpt lat="45.8118962" lon="13.9071915"><ele>206.0</ele><time>2026-04-06T14:42:11.974Z</time></trkpt><trkpt lat="45.8119919" lon="13.907132"><ele>204.25</ele><time>2026-04-06T14:42:12.972Z</time></trkpt><trkpt lat="45.8120942" lon="13.9070776"><ele>202.5</ele><time>2026-04-06T14:42:13.96Z</time></trkpt><trkpt lat="45.8121974" lon="13.9070112"><ele>200.75</ele><time>2026-04-06T14:42:14.976Z</time></trkpt><trkpt lat="45.8123094" lon="13.9069362"><ele>199.0</ele><time>2026-04-06T14:42:15.961Z</time></trkpt><trkpt lat="45.8124202" lon="13.9068788"><ele>199.0</ele><time>2026-04-06T14:42:16.974Z</time></trkpt><trkpt lat="45.812524" lon="13.9068336"><ele>199.0</ele><time>2026-04-06T14:42:17.964Z</time></trkpt><trkpt lat="45.8126303" lon="13.9067854"><ele>199.0</ele><time>2026-04-06T14:42:18.963Z</time></trkpt><trkpt lat="45.812735" lon="13.9067176"><ele>199.0</ele><time>2026-04-06T14:42:19.966Z</time></trkpt><trkpt lat="45.8128367" lon="13.9066375"><ele>198.6</ele><time>2026-04-06T14:42:20.972Z</time></trkpt><trkpt lat="45.8129176" lon="13.9065599"><ele>198.2</ele><time>2026-04-06T14:42:21.964Z</time></trkpt><trkpt lat="45.8130013" lon="13.9064736"><ele>197.79999999999998</ele><time>2026-04-06T14:42:23.971Z</time></trkpt><trkpt lat="45.8130778" lon="13.906396"><ele>197.39999999999998</ele><time>2026-04-06T14:42:25.986Z</time></trkpt><trkpt lat="45.8131959" lon="13.9063065"><ele>197.0</ele><time>2026-04-06T14:42:27.964Z</time></trkpt><trkpt lat="45.8132662" lon="13.9062554"><ele>197.0</ele><time>2026-04-06T14:42:28.971Z</time></trkpt><trkpt lat="45.8133412" lon="13.9061731"><ele>197.0</ele><time>2026-04-06T14:42:30.972Z</time></trkpt><trkpt lat="45.8133675" lon="13.9060599"><ele>197.0</ele><time>2026-04-06T14:42:32.972Z</time></trkpt><trkpt lat="45.8133779" lon="13.9059224"><ele>197.0</ele><time>2026-04-06T14:42:34.977Z</time></trkpt><trkpt lat="45.8133721" lon="13.9057624"><ele>197.0</ele><time>2026-04-06T14:42:36.985Z</time></trkpt><trkpt lat="45.8133197" lon="13.9056164"><ele>198.71428571428572</ele><time>2026-04-06T14:42:38.987Z</time></trkpt><trkpt lat="45.8132746" lon="13.90555"><ele>200.42857142857144</ele><time>2026-04-06T14:42:39.984Z</time></trkpt><trkpt lat="45.8132287" lon="13.9054812"><ele>202.14285714285714</ele><time>2026-04-06T14:42:40.973Z</time></trkpt><trkpt lat="45.8131762" lon="13.9054225"><ele>203.85714285714286</ele><time>2026-04-06T14:42:41.989Z</time></trkpt><trkpt lat="45.8131217" lon="13.9053534"><ele>205.57142857142856</ele><time>2026-04-06T14:42:42.983Z</time></trkpt><trkpt lat="45.8130662" lon="13.9052834"><ele>207.28571428571428</ele><time>2026-04-06T14:42:44.002Z</time></trkpt><trkpt lat="45.813013" lon="13.9052225"><ele>209.0</ele><time>2026-04-06T14:42:44.974Z</time></trkpt><trkpt lat="45.8129152" lon="13.9051262"><ele>209.83333333333334</ele><time>2026-04-06T14:42:46.985Z</time></trkpt><trkpt lat="45.8128692" lon="13.9050168"><ele>210.66666666666669</ele><time>2026-04-06T14:42:48.979Z</time></trkpt><trkpt lat="45.8128406" lon="13.9049297"><ele>211.5</ele><time>2026-04-06T14:42:50.995Z</time></trkpt><trkpt lat="45.8127996" lon="13.9048351"><ele>212.33333333333331</ele><time>2026-04-06T14:42:52.98Z</time></trkpt><trkpt lat="45.8127623" lon="13.9047488"><ele>213.16666666666666</ele><time>2026-04-06T14:42:54.984Z</time></trkpt><trkpt lat="45.8127232" lon="13.9046544"><ele>214.0</ele><time>2026-04-06T14:42:56.976Z</time></trkpt><trkpt lat="45.8126826" lon="13.9045446"><ele>213.99999999999997</ele><time>2026-04-06T14:42:58.981Z</time></trkpt><trkpt lat="45.8126603" lon="13.9044125"><ele>214.0</ele><time>2026-04-06T14:43:00.994Z</time></trkpt><trkpt lat="45.8126448" lon="13.9043114"><ele>214.0</ele><time>2026-04-06T14:43:02.978Z</time></trkpt><trkpt lat="45.8126004" lon="13.9042165"><ele>214.0</ele><time>2026-04-06T14:43:05.998Z</time></trkpt><trkpt lat="45.8125401" lon="13.9041613"><ele>213.99999999999997</ele><time>2026-04-06T14:43:08.979Z</time></trkpt><trkpt lat="45.8124782" lon="13.9041092"><ele>214.0</ele><time>2026-04-06T14:43:11.979Z</time></trkpt><trkpt lat="45.8124213" lon="13.9040597"><ele>213.99999999999997</ele><time>2026-04-06T14:43:14.97Z</time></trkpt><trkpt lat="45.8123845" lon="13.9041386"><ele>214.0</ele><time>2026-04-06T14:43:23.98Z</time></trkpt><trkpt lat="45.8124621" lon="13.9042021"><ele>214.0</ele><time>2026-04-06T14:43:26.97Z</time></trkpt><trkpt lat="45.8125344" lon="13.9042191"><ele>214.0</ele><time>2026-04-06T14:43:28.969Z</time></trkpt><trkpt lat="45.8126026" lon="13.9042306"><ele>213.99999999999997</ele><time>2026-04-06T14:43:31.98Z</time></trkpt><trkpt lat="45.812644" lon="13.904363"><ele>214.0</ele><time>2026-04-06T14:43:34.987Z</time></trkpt><trkpt lat="45.8126594" lon="13.9044598"><ele>214.0</ele><time>2026-04-06T14:43:35.978Z</time></trkpt><trkpt lat="45.812697" lon="13.9046168"><ele>213.99999999999997</ele><time>2026-04-06T14:43:37.98Z</time></trkpt><trkpt lat="45.8127632" lon="13.9047737"><ele>213.99999999999997</ele><time>2026-04-06T14:43:39.988Z</time></trkpt><trkpt lat="45.8127994" lon="13.9048615"><ele>214.0</ele><time>2026-04-06T14:43:41.003Z</time></trkpt><trkpt lat="45.812856" lon="13.9050121"><ele>214.0</ele><time>2026-04-06T14:43:42.98Z</time></trkpt><trkpt lat="45.8129104" lon="13.905134"><ele>213.0</ele><time>2026-04-06T14:43:44.992Z</time></trkpt><trkpt lat="45.8129737" lon="13.905221"><ele>211.99999999999997</ele><time>2026-04-06T14:43:46.999Z</time></trkpt><trkpt lat="45.8130556" lon="13.9053068"><ele>211.0</ele><time>2026-04-06T14:43:48.984Z</time></trkpt><trkpt lat="45.8131317" lon="13.9053885"><ele>210.0</ele><time>2026-04-06T14:43:50.982Z</time></trkpt><trkpt lat="45.813207" lon="13.9054991"><ele>209.0</ele><time>2026-04-06T14:43:52.981Z</time></trkpt><trkpt lat="45.8132908" lon="13.9056183"><ele>209.0</ele><time>2026-04-06T14:43:54.972Z</time></trkpt><trkpt lat="45.8133513" lon="13.9057561"><ele>209.0</ele><time>2026-04-06T14:43:56.977Z</time></trkpt><trkpt lat="45.8133704" lon="13.905891"><ele>209.0</ele><time>2026-04-06T14:43:58.984Z</time></trkpt><trkpt lat="45.813369" lon="13.9060056"><ele>209.0</ele><time>2026-04-06T14:44:00.987Z</time></trkpt><trkpt lat="45.8133495" lon="13.9061463"><ele>209.0</ele><time>2026-04-06T14:44:02.985Z</time></trkpt><trkpt lat="45.8132787" lon="13.906238"><ele>207.00000000000003</ele><time>2026-04-06T14:44:04.98Z</time></trkpt><trkpt lat="45.8131857" lon="13.9063038"><ele>205.0</ele><time>2026-04-06T14:44:06.983Z</time></trkpt><trkpt lat="45.8131158" lon="13.9063432"><ele>203.0</ele><time>2026-04-06T14:44:08.983Z</time></trkpt><trkpt lat="45.813116" lon="13.9064521"><ele>201.0</ele><time>2026-04-06T14:44:12.975Z</time></trkpt><trkpt lat="45.8131785" lon="13.9064806"><ele>199.00000000000003</ele><time>2026-04-06T14:44:41.983Z</time></trkpt><trkpt lat="45.8132374" lon="13.9065253"><ele>197.0</ele><time>2026-04-06T14:44:43.978Z</time></trkpt><trkpt lat="45.8133198" lon="13.9065776"><ele>197.0</ele><time>2026-04-06T14:44:45.991Z</time></trkpt><trkpt lat="45.8134275" lon="13.9065844"><ele>197.0</ele><time>2026-04-06T14:44:47.974Z</time></trkpt><trkpt lat="45.8135176" lon="13.9065879"><ele>197.0</ele><time>2026-04-06T14:44:49.973Z</time></trkpt><trkpt lat="45.8136075" lon="13.9065399"><ele>197.0</ele><time>2026-04-06T14:44:52.973Z</time></trkpt><trkpt lat="45.8136508" lon="13.9064519"><ele>197.0</ele><time>2026-04-06T14:44:53.969Z</time></trkpt><trkpt lat="45.8136923" lon="13.9063323"><ele>195.25</ele><time>2026-04-06T14:44:54.976Z</time></trkpt><trkpt lat="45.8137496" lon="13.9062093"><ele>193.5</ele><time>2026-04-06T14:44:55.96Z</time></trkpt><trkpt lat="45.8138163" lon="13.9060825"><ele>191.75</ele><time>2026-04-06T14:44:56.969Z</time></trkpt><trkpt lat="45.8138921" lon="13.9059334"><ele>190.0</ele><time>2026-04-06T14:44:57.963Z</time></trkpt><trkpt lat="45.8139744" lon="13.9057712"><ele>190.0</ele><time>2026-04-06T14:44:58.967Z</time></trkpt><trkpt lat="45.814062" lon="13.9056147"><ele>190.0</ele><time>2026-04-06T14:44:59.969Z</time></trkpt><trkpt lat="45.8141512" lon="13.9054711"><ele>190.0</ele><time>2026-04-06T14:45:00.968Z</time></trkpt><trkpt lat="45.8142309" lon="13.9053428"><ele>190.0</ele><time>2026-04-06T14:45:01.972Z</time></trkpt><trkpt lat="45.8143067" lon="13.9052168"><ele>192.0</ele><time>2026-04-06T14:45:02.965Z</time></trkpt><trkpt lat="45.8143798" lon="13.9051015"><ele>194.0</ele><time>2026-04-06T14:45:03.979Z</time></trkpt><trkpt lat="45.814449" lon="13.904995"><ele>196.0</ele><time>2026-04-06T14:45:04.976Z</time></trkpt><trkpt lat="45.8145149" lon="13.9048859"><ele>198.0</ele><time>2026-04-06T14:45:05.973Z</time></trkpt><trkpt lat="45.8145606" lon="13.9047641"><ele>200.0</ele><time>2026-04-06T14:45:06.968Z</time></trkpt><trkpt lat="45.8145836" lon="13.9046143"><ele>200.0</ele><time>2026-04-06T14:45:07.973Z</time></trkpt><trkpt lat="45.8145943" lon="13.9044644"><ele>200.0</ele><time>2026-04-06T14:45:08.973Z</time></trkpt><trkpt lat="45.8145983" lon="13.9043248"><ele>200.0</ele><time>2026-04-06T14:45:09.969Z</time></trkpt><trkpt lat="45.8146023" lon="13.9041823"><ele>200.0</ele><time>2026-04-06T14:45:10.975Z</time></trkpt><trkpt lat="45.8145971" lon="13.9040449"><ele>200.0</ele><time>2026-04-06T14:45:11.972Z</time></trkpt><trkpt lat="45.8145805" lon="13.9039188"><ele>200.2</ele><time>2026-04-06T14:45:12.978Z</time></trkpt><trkpt lat="45.8145596" lon="13.9037833"><ele>200.4</ele><time>2026-04-06T14:45:13.971Z</time></trkpt><trkpt lat="45.8145391" lon="13.903632"><ele>200.60000000000002</ele><time>2026-04-06T14:45:14.982Z</time></trkpt><trkpt lat="45.8145238" lon="13.9034787"><ele>200.8</ele><time>2026-04-06T14:45:15.977Z</time></trkpt><trkpt lat="45.814511" lon="13.9033224"><ele>201.0</ele><time>2026-04-06T14:45:16.975Z</time></trkpt><trkpt lat="45.8144981" lon="13.9031595"><ele>200.60000000000002</ele><time>2026-04-06T14:45:17.973Z</time></trkpt><trkpt lat="45.8144894" lon="13.9030041"><ele>200.2</ele><time>2026-04-06T14:45:18.977Z</time></trkpt><trkpt lat="45.8144912" lon="13.9028575"><ele>199.8</ele><time>2026-04-06T14:45:19.971Z</time></trkpt><trkpt lat="45.8145025" lon="13.9027089"><ele>199.39999999999998</ele><time>2026-04-06T14:45:20.978Z</time></trkpt><trkpt lat="45.8145185" lon="13.9025608"><ele>199.0</ele><time>2026-04-06T14:45:21.982Z</time></trkpt><trkpt lat="45.8145399" lon="13.9024113"><ele>197.2</ele><time>2026-04-06T14:45:22.971Z</time></trkpt><trkpt lat="45.8145619" lon="13.9022601"><ele>195.39999999999998</ele><time>2026-04-06T14:45:23.976Z</time></trkpt><trkpt lat="45.8145803" lon="13.9021139"><ele>193.6</ele><time>2026-04-06T14:45:24.972Z</time></trkpt><trkpt lat="45.8145893" lon="13.9019718"><ele>191.8</ele><time>2026-04-06T14:45:25.972Z</time></trkpt><trkpt lat="45.8145962" lon="13.9018229"><ele>190.0</ele><time>2026-04-06T14:45:26.972Z</time></trkpt><trkpt lat="45.8146038" lon="13.9016691"><ele>188.2</ele><time>2026-04-06T14:45:27.969Z</time></trkpt><trkpt lat="45.8146059" lon="13.9015173"><ele>186.4</ele><time>2026-04-06T14:45:28.971Z</time></trkpt><trkpt lat="45.8145982" lon="13.9013761"><ele>184.60000000000002</ele><time>2026-04-06T14:45:29.969Z</time></trkpt><trkpt lat="45.8145782" lon="13.9012398"><ele>182.8</ele><time>2026-04-06T14:45:30.971Z</time></trkpt><trkpt lat="45.8145387" lon="13.9010972"><ele>181.0</ele><time>2026-04-06T14:45:31.976Z</time></trkpt><trkpt lat="45.8144824" lon="13.9009624"><ele>179.8</ele><time>2026-04-06T14:45:33.002Z</time></trkpt><trkpt lat="45.8144203" lon="13.9008248"><ele>178.60000000000002</ele><time>2026-04-06T14:45:33.975Z</time></trkpt><trkpt lat="45.8143583" lon="13.9006921"><ele>177.4</ele><time>2026-04-06T14:45:34.976Z</time></trkpt><trkpt lat="45.8143017" lon="13.9005636"><ele>176.2</ele><time>2026-04-06T14:45:35.964Z</time></trkpt><trkpt lat="45.8142469" lon="13.9004258"><ele>175.0</ele><time>2026-04-06T14:45:36.964Z</time></trkpt><trkpt lat="45.8141876" lon="13.9002899"><ele>175.0</ele><time>2026-04-06T14:45:37.983Z</time></trkpt><trkpt lat="45.8141294" lon="13.9001518"><ele>175.0</ele><time>2026-04-06T14:45:38.979Z</time></trkpt><trkpt lat="45.8140696" lon="13.9000115"><ele>175.0</ele><time>2026-04-06T14:45:39.971Z</time></trkpt><trkpt lat="45.8140097" lon="13.8998778"><ele>175.0</ele><time>2026-04-06T14:45:40.973Z</time></trkpt><trkpt lat="45.8139501" lon="13.8997566"><ele>175.0</ele><time>2026-04-06T14:45:41.965Z</time></trkpt><trkpt lat="45.8138923" lon="13.8996473"><ele>176.0</ele><time>2026-04-06T14:45:42.982Z</time></trkpt><trkpt lat="45.8138367" lon="13.8995423"><ele>177.0</ele><time>2026-04-06T14:45:43.968Z</time></trkpt><trkpt lat="45.8137773" lon="13.8994563"><ele>178.0</ele><time>2026-04-06T14:45:44.977Z</time></trkpt><trkpt lat="45.8137054" lon="13.8993879"><ele>179.0</ele><time>2026-04-06T14:45:45.976Z</time></trkpt><trkpt lat="45.8136087" lon="13.899333"><ele>180.0</ele><time>2026-04-06T14:45:46.97Z</time></trkpt><trkpt lat="45.8134966" lon="13.899291"><ele>178.6</ele><time>2026-04-06T14:45:47.969Z</time></trkpt><trkpt lat="45.8133962" lon="13.8992457"><ele>177.2</ele><time>2026-04-06T14:45:48.969Z</time></trkpt><trkpt lat="45.8132956" lon="13.8991955"><ele>175.8</ele><time>2026-04-06T14:45:49.984Z</time></trkpt><trkpt lat="45.8131931" lon="13.8991313"><ele>174.4</ele><time>2026-04-06T14:45:50.969Z</time></trkpt><trkpt lat="45.8130867" lon="13.8990482"><ele>173.0</ele><time>2026-04-06T14:45:51.965Z</time></trkpt><trkpt lat="45.8129941" lon="13.8989627"><ele>173.0</ele><time>2026-04-06T14:45:52.969Z</time></trkpt><trkpt lat="45.8129067" lon="13.8988718"><ele>173.0</ele><time>2026-04-06T14:45:53.966Z</time></trkpt><trkpt lat="45.812818" lon="13.898763"><ele>173.0</ele><time>2026-04-06T14:45:54.988Z</time></trkpt><trkpt lat="45.8127397" lon="13.8986346"><ele>173.0</ele><time>2026-04-06T14:45:55.966Z</time></trkpt><trkpt lat="45.8126738" lon="13.898491"><ele>175.60000000000002</ele><time>2026-04-06T14:45:56.962Z</time></trkpt><trkpt lat="45.8126371" lon="13.8983309"><ele>178.20000000000002</ele><time>2026-04-06T14:45:57.964Z</time></trkpt><trkpt lat="45.8126099" lon="13.8981688"><ele>180.8</ele><time>2026-04-06T14:45:58.959Z</time></trkpt><trkpt lat="45.8125853" lon="13.8980211"><ele>183.4</ele><time>2026-04-06T14:45:59.965Z</time></trkpt><trkpt lat="45.8125562" lon="13.8978731"><ele>186.0</ele><time>2026-04-06T14:46:00.966Z</time></trkpt><trkpt lat="45.8125285" lon="13.8977225"><ele>183.25</ele><time>2026-04-06T14:46:01.971Z</time></trkpt><trkpt lat="45.8125048" lon="13.8975705"><ele>180.5</ele><time>2026-04-06T14:46:02.962Z</time></trkpt><trkpt lat="45.8124911" lon="13.8974099"><ele>177.75</ele><time>2026-04-06T14:46:03.966Z</time></trkpt><trkpt lat="45.8125009" lon="13.8972499"><ele>175.0</ele><time>2026-04-06T14:46:04.967Z</time></trkpt><trkpt lat="45.812546" lon="13.8970832"><ele>175.0</ele><time>2026-04-06T14:46:05.97Z</time></trkpt><trkpt lat="45.812608" lon="13.8969199"><ele>175.0</ele><time>2026-04-06T14:46:06.964Z</time></trkpt><trkpt lat="45.8126732" lon="13.8967481"><ele>175.0</ele><time>2026-04-06T14:46:07.968Z</time></trkpt><trkpt lat="45.8127346" lon="13.8965873"><ele>175.0</ele><time>2026-04-06T14:46:08.973Z</time></trkpt><trkpt lat="45.8127899" lon="13.8964497"><ele>176.4</ele><time>2026-04-06T14:46:09.967Z</time></trkpt><trkpt lat="45.8128457" lon="13.896317"><ele>177.8</ele><time>2026-04-06T14:46:10.983Z</time></trkpt><trkpt lat="45.8128986" lon="13.8961825"><ele>179.2</ele><time>2026-04-06T14:46:11.97Z</time></trkpt><trkpt lat="45.8129505" lon="13.8960438"><ele>180.6</ele><time>2026-04-06T14:46:12.968Z</time></trkpt><trkpt lat="45.8129997" lon="13.8959055"><ele>182.0</ele><time>2026-04-06T14:46:13.964Z</time></trkpt><trkpt lat="45.8130387" lon="13.8957357"><ele>182.0</ele><time>2026-04-06T14:46:14.971Z</time></trkpt><trkpt lat="45.8130586" lon="13.8955534"><ele>182.0</ele><time>2026-04-06T14:46:15.963Z</time></trkpt><trkpt lat="45.8130701" lon="13.8953695"><ele>182.0</ele><time>2026-04-06T14:46:16.972Z</time></trkpt><trkpt lat="45.8130745" lon="13.8951943"><ele>182.0</ele><time>2026-04-06T14:46:17.974Z</time></trkpt><trkpt lat="45.813076" lon="13.8950354"><ele>181.2</ele><time>2026-04-06T14:46:18.969Z</time></trkpt><trkpt lat="45.8130761" lon="13.8948839"><ele>180.39999999999998</ele><time>2026-04-06T14:46:19.969Z</time></trkpt><trkpt lat="45.8130831" lon="13.8947333"><ele>179.60000000000002</ele><time>2026-04-06T14:46:20.968Z</time></trkpt><trkpt lat="45.8131023" lon="13.8945763"><ele>178.8</ele><time>2026-04-06T14:46:21.973Z</time></trkpt><trkpt lat="45.8131466" lon="13.8944305"><ele>178.0</ele><time>2026-04-06T14:46:22.973Z</time></trkpt><trkpt lat="45.813214" lon="13.8943015"><ele>177.5</ele><time>2026-04-06T14:46:23.979Z</time></trkpt><trkpt lat="45.8132917" lon="13.8941853"><ele>177.0</ele><time>2026-04-06T14:46:24.973Z</time></trkpt><trkpt lat="45.8133655" lon="13.8940709"><ele>176.5</ele><time>2026-04-06T14:46:25.969Z</time></trkpt><trkpt lat="45.8134365" lon="13.8939408"><ele>176.0</ele><time>2026-04-06T14:46:26.979Z</time></trkpt><trkpt lat="45.8134934" lon="13.8937939"><ele>183.5</ele><time>2026-04-06T14:46:27.97Z</time></trkpt><trkpt lat="45.8135406" lon="13.8936331"><ele>191.0</ele><time>2026-04-06T14:46:28.984Z</time></trkpt><trkpt lat="45.8135844" lon="13.8934786"><ele>198.5</ele><time>2026-04-06T14:46:29.97Z</time></trkpt><trkpt lat="45.8136189" lon="13.8933166"><ele>206.0</ele><time>2026-04-06T14:46:30.965Z</time></trkpt><trkpt lat="45.8136518" lon="13.893139"><ele>206.0</ele><time>2026-04-06T14:46:31.971Z</time></trkpt><trkpt lat="45.813683" lon="13.8929617"><ele>206.0</ele><time>2026-04-06T14:46:32.966Z</time></trkpt><trkpt lat="45.8137125" lon="13.8927843"><ele>206.0</ele><time>2026-04-06T14:46:33.962Z</time></trkpt><trkpt lat="45.8137291" lon="13.8926163"><ele>206.0</ele><time>2026-04-06T14:46:34.972Z</time></trkpt><trkpt lat="45.8137235" lon="13.8924553"><ele>204.20000000000002</ele><time>2026-04-06T14:46:35.965Z</time></trkpt><trkpt lat="45.8137136" lon="13.8922968"><ele>202.4</ele><time>2026-04-06T14:46:36.966Z</time></trkpt><trkpt lat="45.8136988" lon="13.8921475"><ele>200.6</ele><time>2026-04-06T14:46:37.966Z</time></trkpt><trkpt lat="45.8136814" lon="13.8919985"><ele>198.8</ele><time>2026-04-06T14:46:38.974Z</time></trkpt><trkpt lat="45.8136594" lon="13.8918572"><ele>197.0</ele><time>2026-04-06T14:46:39.974Z</time></trkpt><trkpt lat="45.8136272" lon="13.8917317"><ele>195.0</ele><time>2026-04-06T14:46:40.975Z</time></trkpt><trkpt lat="45.8135868" lon="13.8916264"><ele>193.0</ele><time>2026-04-06T14:46:41.979Z</time></trkpt><trkpt lat="45.813548" lon="13.8915155"><ele>191.0</ele><time>2026-04-06T14:46:42.99Z</time></trkpt><trkpt lat="45.8135037" lon="13.8913903"><ele>189.0</ele><time>2026-04-06T14:46:43.977Z</time></trkpt><trkpt lat="45.8134505" lon="13.891257"><ele>187.0</ele><time>2026-04-06T14:46:44.972Z</time></trkpt><trkpt lat="45.8133975" lon="13.8911228"><ele>182.2</ele><time>2026-04-06T14:46:45.972Z</time></trkpt><trkpt lat="45.8133531" lon="13.8909986"><ele>177.39999999999998</ele><time>2026-04-06T14:46:46.977Z</time></trkpt><trkpt lat="45.8133107" lon="13.890872"><ele>172.60000000000002</ele><time>2026-04-06T14:46:47.976Z</time></trkpt><trkpt lat="45.8132669" lon="13.8907515"><ele>167.8</ele><time>2026-04-06T14:46:48.988Z</time></trkpt><trkpt lat="45.8132274" lon="13.890636"><ele>163.0</ele><time>2026-04-06T14:46:49.977Z</time></trkpt><trkpt lat="45.8131887" lon="13.8905135"><ele>163.0</ele><time>2026-04-06T14:46:50.978Z</time></trkpt><trkpt lat="45.8131467" lon="13.8903802"><ele>163.0</ele><time>2026-04-06T14:46:51.974Z</time></trkpt><trkpt lat="45.8131192" lon="13.8902293"><ele>163.0</ele><time>2026-04-06T14:46:52.973Z</time></trkpt><trkpt lat="45.8131042" lon="13.8900777"><ele>163.0</ele><time>2026-04-06T14:46:53.976Z</time></trkpt><trkpt lat="45.8130985" lon="13.8899186"><ele>163.0</ele><time>2026-04-06T14:46:55.005Z</time></trkpt><trkpt lat="45.8131012" lon="13.8897501"><ele>163.8</ele><time>2026-04-06T14:46:55.982Z</time></trkpt><trkpt lat="45.8131143" lon="13.8895842"><ele>164.60000000000002</ele><time>2026-04-06T14:46:56.972Z</time></trkpt><trkpt lat="45.8131384" lon="13.8894373"><ele>165.39999999999998</ele><time>2026-04-06T14:46:57.974Z</time></trkpt><trkpt lat="45.8131651" lon="13.8893018"><ele>166.2</ele><time>2026-04-06T14:46:58.973Z</time></trkpt><trkpt lat="45.8131948" lon="13.8891614"><ele>167.0</ele><time>2026-04-06T14:46:59.984Z</time></trkpt><trkpt lat="45.8132263" lon="13.8890168"><ele>165.4</ele><time>2026-04-06T14:47:00.978Z</time></trkpt><trkpt lat="45.8132718" lon="13.8888768"><ele>163.79999999999998</ele><time>2026-04-06T14:47:01.969Z</time></trkpt><trkpt lat="45.8133324" lon="13.8887433"><ele>162.2</ele><time>2026-04-06T14:47:02.967Z</time></trkpt><trkpt lat="45.8134009" lon="13.8886182"><ele>160.6</ele><time>2026-04-06T14:47:03.965Z</time></trkpt><trkpt lat="45.8134763" lon="13.8884883"><ele>159.0</ele><time>2026-04-06T14:47:04.965Z</time></trkpt><trkpt lat="45.8135478" lon="13.8883624"><ele>159.0</ele><time>2026-04-06T14:47:05.979Z</time></trkpt><trkpt lat="45.8136057" lon="13.8882367"><ele>159.0</ele><time>2026-04-06T14:47:06.967Z</time></trkpt><trkpt lat="45.8136585" lon="13.8881069"><ele>159.0</ele><time>2026-04-06T14:47:07.966Z</time></trkpt><trkpt lat="45.8137023" lon="13.88797"><ele>159.0</ele><time>2026-04-06T14:47:08.979Z</time></trkpt><trkpt lat="45.8137233" lon="13.8878263"><ele>159.0</ele><time>2026-04-06T14:47:09.973Z</time></trkpt><trkpt lat="45.8137169" lon="13.8876798"><ele>159.0</ele><time>2026-04-06T14:47:10.988Z</time></trkpt><trkpt lat="45.813684" lon="13.8875379"><ele>159.0</ele><time>2026-04-06T14:47:11.975Z</time></trkpt><trkpt lat="45.8136268" lon="13.8874164"><ele>159.0</ele><time>2026-04-06T14:47:12.979Z</time></trkpt><trkpt lat="45.8135596" lon="13.8872947"><ele>159.0</ele><time>2026-04-06T14:47:13.981Z</time></trkpt><trkpt lat="45.8134958" lon="13.8871871"><ele>159.0</ele><time>2026-04-06T14:47:14.972Z</time></trkpt><trkpt lat="45.8134283" lon="13.8870798"><ele>160.8</ele><time>2026-04-06T14:47:15.976Z</time></trkpt><trkpt lat="45.8133604" lon="13.8869732"><ele>162.60000000000002</ele><time>2026-04-06T14:47:16.979Z</time></trkpt><trkpt lat="45.813294" lon="13.8868632"><ele>164.4</ele><time>2026-04-06T14:47:17.997Z</time></trkpt><trkpt lat="45.8132243" lon="13.8867458"><ele>166.20000000000002</ele><time>2026-04-06T14:47:18.986Z</time></trkpt><trkpt lat="45.8131484" lon="13.8866337"><ele>168.0</ele><time>2026-04-06T14:47:19.986Z</time></trkpt><trkpt lat="45.8130695" lon="13.8865249"><ele>168.0</ele><time>2026-04-06T14:47:20.985Z</time></trkpt><trkpt lat="45.8129931" lon="13.8864213"><ele>168.0</ele><time>2026-04-06T14:47:21.993Z</time></trkpt><trkpt lat="45.8129135" lon="13.8863234"><ele>168.0</ele><time>2026-04-06T14:47:22.977Z</time></trkpt><trkpt lat="45.8128422" lon="13.8862318"><ele>168.0</ele><time>2026-04-06T14:47:23.997Z</time></trkpt><trkpt lat="45.812772" lon="13.8861203"><ele>168.0</ele><time>2026-04-06T14:47:24.979Z</time></trkpt><trkpt lat="45.8127126" lon="13.8859974"><ele>167.0</ele><time>2026-04-06T14:47:25.986Z</time></trkpt><trkpt lat="45.812658" lon="13.8858654"><ele>166.0</ele><time>2026-04-06T14:47:26.983Z</time></trkpt><trkpt lat="45.812614" lon="13.8857313"><ele>165.0</ele><time>2026-04-06T14:47:27.971Z</time></trkpt><trkpt lat="45.8125669" lon="13.8855889"><ele>164.0</ele><time>2026-04-06T14:47:28.974Z</time></trkpt><trkpt lat="45.8125126" lon="13.8854554"><ele>163.0</ele><time>2026-04-06T14:47:29.977Z</time></trkpt><trkpt lat="45.812448" lon="13.8853333"><ele>163.8</ele><time>2026-04-06T14:47:30.987Z</time></trkpt><trkpt lat="45.8123694" lon="13.885215"><ele>164.60000000000002</ele><time>2026-04-06T14:47:31.972Z</time></trkpt><trkpt lat="45.8122969" lon="13.8851036"><ele>165.39999999999998</ele><time>2026-04-06T14:47:32.992Z</time></trkpt><trkpt lat="45.8122271" lon="13.8850055"><ele>166.2</ele><time>2026-04-06T14:47:33.976Z</time></trkpt><trkpt lat="45.8121675" lon="13.8849052"><ele>167.0</ele><time>2026-04-06T14:47:34.976Z</time></trkpt><trkpt lat="45.8121344" lon="13.8847863"><ele>167.0</ele><time>2026-04-06T14:47:35.976Z</time></trkpt><trkpt lat="45.8121252" lon="13.8846479"><ele>167.0</ele><time>2026-04-06T14:47:36.975Z</time></trkpt><trkpt lat="45.8121277" lon="13.8845017"><ele>167.0</ele><time>2026-04-06T14:47:37.975Z</time></trkpt><trkpt lat="45.8121171" lon="13.8843657"><ele>167.0</ele><time>2026-04-06T14:47:38.972Z</time></trkpt><trkpt lat="45.812083" lon="13.8842267"><ele>167.0</ele><time>2026-04-06T14:47:39.98Z</time></trkpt><trkpt lat="45.8120452" lon="13.8840855"><ele>166.5</ele><time>2026-04-06T14:47:40.981Z</time></trkpt><trkpt lat="45.8120054" lon="13.883953"><ele>166.0</ele><time>2026-04-06T14:47:41.981Z</time></trkpt><trkpt lat="45.8119669" lon="13.8838357"><ele>165.5</ele><time>2026-04-06T14:47:42.973Z</time></trkpt><trkpt lat="45.8119318" lon="13.8837174"><ele>165.0</ele><time>2026-04-06T14:47:43.967Z</time></trkpt><trkpt lat="45.8119016" lon="13.883607"><ele>164.5</ele><time>2026-04-06T14:47:44.972Z</time></trkpt><trkpt lat="45.8118906" lon="13.8835061"><ele>164.0</ele><time>2026-04-06T14:47:45.972Z</time></trkpt><trkpt lat="45.8118973" lon="13.8834081"><ele>163.79999999999998</ele><time>2026-04-06T14:47:46.975Z</time></trkpt><trkpt lat="45.8119076" lon="13.8832916"><ele>163.6</ele><time>2026-04-06T14:47:47.971Z</time></trkpt><trkpt lat="45.8119237" lon="13.8831598"><ele>163.4</ele><time>2026-04-06T14:47:48.973Z</time></trkpt><trkpt lat="45.8119393" lon="13.8830246"><ele>163.2</ele><time>2026-04-06T14:47:49.975Z</time></trkpt><trkpt lat="45.8119536" lon="13.8828858"><ele>163.0</ele><time>2026-04-06T14:47:50.967Z</time></trkpt><trkpt lat="45.8119615" lon="13.8827494"><ele>163.0</ele><time>2026-04-06T14:47:51.967Z</time></trkpt><trkpt lat="45.8119589" lon="13.8826049"><ele>163.0</ele><time>2026-04-06T14:47:52.972Z</time></trkpt><trkpt lat="45.8119521" lon="13.8824606"><ele>163.0</ele><time>2026-04-06T14:47:53.972Z</time></trkpt><trkpt lat="45.8119384" lon="13.8823164"><ele>163.0</ele><time>2026-04-06T14:47:54.99Z</time></trkpt><trkpt lat="45.8119236" lon="13.8821739"><ele>163.0</ele><time>2026-04-06T14:47:55.97Z</time></trkpt><trkpt lat="45.8119147" lon="13.8820192"><ele>162.75</ele><time>2026-04-06T14:47:56.968Z</time></trkpt><trkpt lat="45.8119077" lon="13.8818563"><ele>162.5</ele><time>2026-04-06T14:47:57.974Z</time></trkpt><trkpt lat="45.8119111" lon="13.8816918"><ele>162.25</ele><time>2026-04-06T14:47:58.968Z</time></trkpt><trkpt lat="45.8119331" lon="13.8815278"><ele>162.0</ele><time>2026-04-06T14:47:59.996Z</time></trkpt><trkpt lat="45.8119568" lon="13.8813694"><ele>162.0</ele><time>2026-04-06T14:48:00.967Z</time></trkpt><trkpt lat="45.8119793" lon="13.8812233"><ele>162.0</ele><time>2026-04-06T14:48:01.973Z</time></trkpt><trkpt lat="45.8119941" lon="13.881083"><ele>162.0</ele><time>2026-04-06T14:48:02.98Z</time></trkpt><trkpt lat="45.8119958" lon="13.8809507"><ele>162.0</ele><time>2026-04-06T14:48:03.964Z</time></trkpt><trkpt lat="45.8119892" lon="13.8808042"><ele>162.0</ele><time>2026-04-06T14:48:04.978Z</time></trkpt><trkpt lat="45.8119731" lon="13.8806389"><ele>161.75</ele><time>2026-04-06T14:48:05.971Z</time></trkpt><trkpt lat="45.8119486" lon="13.8804692"><ele>161.5</ele><time>2026-04-06T14:48:06.973Z</time></trkpt><trkpt lat="45.8119262" lon="13.8803089"><ele>161.25</ele><time>2026-04-06T14:48:07.976Z</time></trkpt><trkpt lat="45.8119079" lon="13.8801498"><ele>161.0</ele><time>2026-04-06T14:48:08.968Z</time></trkpt><trkpt lat="45.811897" lon="13.8799859"><ele>161.0</ele><time>2026-04-06T14:48:09.969Z</time></trkpt><trkpt lat="45.8118868" lon="13.8798204"><ele>161.0</ele><time>2026-04-06T14:48:10.974Z</time></trkpt><trkpt lat="45.8118808" lon="13.8796459"><ele>161.0</ele><time>2026-04-06T14:48:11.973Z</time></trkpt><trkpt lat="45.8118745" lon="13.8794707"><ele>161.0</ele><time>2026-04-06T14:48:12.967Z</time></trkpt><trkpt lat="45.8118613" lon="13.8793043"><ele>163.0</ele><time>2026-04-06T14:48:13.965Z</time></trkpt><trkpt lat="45.8118403" lon="13.8791522"><ele>165.0</ele><time>2026-04-06T14:48:14.976Z</time></trkpt><trkpt lat="45.8118072" lon="13.879008"><ele>167.0</ele><time>2026-04-06T14:48:15.981Z</time></trkpt><trkpt lat="45.8117638" lon="13.8788626"><ele>169.0</ele><time>2026-04-06T14:48:16.973Z</time></trkpt><trkpt lat="45.8117108" lon="13.8787379"><ele>171.0</ele><time>2026-04-06T14:48:17.992Z</time></trkpt><trkpt lat="45.8116359" lon="13.8786372"><ele>171.0</ele><time>2026-04-06T14:48:18.971Z</time></trkpt><trkpt lat="45.8115415" lon="13.8785547"><ele>171.0</ele><time>2026-04-06T14:48:19.971Z</time></trkpt><trkpt lat="45.8114412" lon="13.8784803"><ele>171.0</ele><time>2026-04-06T14:48:20.973Z</time></trkpt><trkpt lat="45.8113533" lon="13.8784082"><ele>171.0</ele><time>2026-04-06T14:48:21.972Z</time></trkpt><trkpt lat="45.8112568" lon="13.8783305"><ele>171.0</ele><time>2026-04-06T14:48:22.976Z</time></trkpt><trkpt lat="45.8111589" lon="13.8782377"><ele>171.0</ele><time>2026-04-06T14:48:23.97Z</time></trkpt><trkpt lat="45.8110583" lon="13.8781274"><ele>171.0</ele><time>2026-04-06T14:48:24.994Z</time></trkpt><trkpt lat="45.8109658" lon="13.8780067"><ele>171.0</ele><time>2026-04-06T14:48:25.962Z</time></trkpt><trkpt lat="45.8108842" lon="13.877877"><ele>171.0</ele><time>2026-04-06T14:48:26.97Z</time></trkpt><trkpt lat="45.8108089" lon="13.8777392"><ele>174.0</ele><time>2026-04-06T14:48:27.965Z</time></trkpt><trkpt lat="45.8107466" lon="13.8775987"><ele>177.0</ele><time>2026-04-06T14:48:28.964Z</time></trkpt><trkpt lat="45.8106883" lon="13.8774616"><ele>180.0</ele><time>2026-04-06T14:48:29.969Z</time></trkpt><trkpt lat="45.8106229" lon="13.8773238"><ele>183.0</ele><time>2026-04-06T14:48:30.964Z</time></trkpt><trkpt lat="45.8105505" lon="13.8771915"><ele>183.0</ele><time>2026-04-06T14:48:31.973Z</time></trkpt><trkpt lat="45.8104692" lon="13.8770685"><ele>183.0</ele><time>2026-04-06T14:48:32.963Z</time></trkpt><trkpt lat="45.8103805" lon="13.8769559"><ele>183.0</ele><time>2026-04-06T14:48:33.963Z</time></trkpt><trkpt lat="45.8102808" lon="13.8768604"><ele>183.0</ele><time>2026-04-06T14:48:34.959Z</time></trkpt><trkpt lat="45.8101774" lon="13.8767692"><ele>184.25</ele><time>2026-04-06T14:48:35.961Z</time></trkpt><trkpt lat="45.8100679" lon="13.8766782"><ele>185.5</ele><time>2026-04-06T14:48:36.963Z</time></trkpt><trkpt lat="45.8099665" lon="13.8765876"><ele>186.75</ele><time>2026-04-06T14:48:37.967Z</time></trkpt><trkpt lat="45.809871" lon="13.8765003"><ele>188.0</ele><time>2026-04-06T14:48:38.963Z</time></trkpt><trkpt lat="45.8097875" lon="13.876405"><ele>188.0</ele><time>2026-04-06T14:48:39.973Z</time></trkpt><trkpt lat="45.8097084" lon="13.8763"><ele>188.0</ele><time>2026-04-06T14:48:40.973Z</time></trkpt><trkpt lat="45.8096388" lon="13.8761832"><ele>188.0</ele><time>2026-04-06T14:48:41.966Z</time></trkpt><trkpt lat="45.8095816" lon="13.8760651"><ele>188.0</ele><time>2026-04-06T14:48:42.969Z</time></trkpt><trkpt lat="45.8095339" lon="13.8759348"><ele>188.0</ele><time>2026-04-06T14:48:43.958Z</time></trkpt><trkpt lat="45.8094994" lon="13.8757944"><ele>189.0</ele><time>2026-04-06T14:48:44.965Z</time></trkpt><trkpt lat="45.8094937" lon="13.8756379"><ele>190.0</ele><time>2026-04-06T14:48:45.96Z</time></trkpt><trkpt lat="45.8095082" lon="13.8754695"><ele>191.0</ele><time>2026-04-06T14:48:46.97Z</time></trkpt><trkpt lat="45.809533" lon="13.8752938"><ele>192.0</ele><time>2026-04-06T14:48:47.967Z</time></trkpt><trkpt lat="45.8095715" lon="13.8751216"><ele>192.75</ele><time>2026-04-06T14:48:48.957Z</time></trkpt><trkpt lat="45.809619" lon="13.8749428"><ele>193.5</ele><time>2026-04-06T14:48:49.955Z</time></trkpt><trkpt lat="45.8096709" lon="13.8747743"><ele>194.25</ele><time>2026-04-06T14:48:50.957Z</time></trkpt><trkpt lat="45.8097199" lon="13.8746246"><ele>195.0</ele><time>2026-04-06T14:48:51.955Z</time></trkpt><trkpt lat="45.8097656" lon="13.8744833"><ele>195.0</ele><time>2026-04-06T14:48:52.96Z</time></trkpt><trkpt lat="45.8098149" lon="13.8743394"><ele>195.0</ele><time>2026-04-06T14:48:53.967Z</time></trkpt><trkpt lat="45.8098649" lon="13.8741994"><ele>195.0</ele><time>2026-04-06T14:48:54.959Z</time></trkpt><trkpt lat="45.8099133" lon="13.8740595"><ele>195.0</ele><time>2026-04-06T14:48:55.96Z</time></trkpt><trkpt lat="45.8099475" lon="13.8739272"><ele>195.0</ele><time>2026-04-06T14:48:56.969Z</time></trkpt><trkpt lat="45.8099588" lon="13.8737888"><ele>192.8</ele><time>2026-04-06T14:48:57.953Z</time></trkpt><trkpt lat="45.8099414" lon="13.8736501"><ele>190.6</ele><time>2026-04-06T14:48:58.979Z</time></trkpt><trkpt lat="45.8098934" lon="13.8735233"><ele>188.39999999999998</ele><time>2026-04-06T14:48:59.957Z</time></trkpt><trkpt lat="45.8098114" lon="13.8734124"><ele>186.2</ele><time>2026-04-06T14:49:00.956Z</time></trkpt><trkpt lat="45.8097075" lon="13.8733293"><ele>184.0</ele><time>2026-04-06T14:49:01.956Z</time></trkpt><trkpt lat="45.809599" lon="13.8732506"><ele>183.75</ele><time>2026-04-06T14:49:02.96Z</time></trkpt><trkpt lat="45.8094981" lon="13.8731723"><ele>183.5</ele><time>2026-04-06T14:49:03.969Z</time></trkpt><trkpt lat="45.8094063" lon="13.8730806"><ele>183.25</ele><time>2026-04-06T14:49:04.956Z</time></trkpt><trkpt lat="45.8093201" lon="13.8729784"><ele>183.0</ele><time>2026-04-06T14:49:05.957Z</time></trkpt><trkpt lat="45.8092494" lon="13.8728385"><ele>187.0</ele><time>2026-04-06T14:49:06.964Z</time></trkpt><trkpt lat="45.8092085" lon="13.8726742"><ele>191.0</ele><time>2026-04-06T14:49:07.955Z</time></trkpt><trkpt lat="45.8091937" lon="13.8725005"><ele>195.0</ele><time>2026-04-06T14:49:08.957Z</time></trkpt><trkpt lat="45.8092101" lon="13.8723255"><ele>199.0</ele><time>2026-04-06T14:49:09.957Z</time></trkpt><trkpt lat="45.8092407" lon="13.8721478"><ele>199.0</ele><time>2026-04-06T14:49:10.966Z</time></trkpt><trkpt lat="45.8092697" lon="13.87195"><ele>199.0</ele><time>2026-04-06T14:49:11.953Z</time></trkpt><trkpt lat="45.8092899" lon="13.8717584"><ele>199.0</ele><time>2026-04-06T14:49:12.963Z</time></trkpt><trkpt lat="45.8092981" lon="13.8715732"><ele>199.0</ele><time>2026-04-06T14:49:13.96Z</time></trkpt><trkpt lat="45.8092965" lon="13.8713855"><ele>198.25</ele><time>2026-04-06T14:49:14.957Z</time></trkpt><trkpt lat="45.8092807" lon="13.8712026"><ele>197.5</ele><time>2026-04-06T14:49:15.957Z</time></trkpt><trkpt lat="45.8092513" lon="13.8710192"><ele>196.75</ele><time>2026-04-06T14:49:16.977Z</time></trkpt><trkpt lat="45.8092064" lon="13.8708449"><ele>196.0</ele><time>2026-04-06T14:49:17.957Z</time></trkpt><trkpt lat="45.8091529" lon="13.8706778"><ele>196.0</ele><time>2026-04-06T14:49:18.957Z</time></trkpt><trkpt lat="45.8090944" lon="13.8705087"><ele>196.0</ele><time>2026-04-06T14:49:19.964Z</time></trkpt><trkpt lat="45.8090329" lon="13.8703445"><ele>196.0</ele><time>2026-04-06T14:49:20.963Z</time></trkpt><trkpt lat="45.8089775" lon="13.8701901"><ele>196.0</ele><time>2026-04-06T14:49:21.96Z</time></trkpt><trkpt lat="45.8089247" lon="13.8700549"><ele>196.0</ele><time>2026-04-06T14:49:22.976Z</time></trkpt><trkpt lat="45.8088753" lon="13.8699104"><ele>196.0</ele><time>2026-04-06T14:49:23.955Z</time></trkpt><trkpt lat="45.8088284" lon="13.8697564"><ele>196.0</ele><time>2026-04-06T14:49:24.96Z</time></trkpt><trkpt lat="45.8087818" lon="13.8696068"><ele>196.0</ele><time>2026-04-06T14:49:25.963Z</time></trkpt><trkpt lat="45.8087353" lon="13.8694547"><ele>196.0</ele><time>2026-04-06T14:49:26.964Z</time></trkpt><trkpt lat="45.808679" lon="13.8692934"><ele>196.0</ele><time>2026-04-06T14:49:27.966Z</time></trkpt><trkpt lat="45.808623" lon="13.8691383"><ele>196.0</ele><time>2026-04-06T14:49:28.963Z</time></trkpt><trkpt lat="45.8085703" lon="13.868983"><ele>196.0</ele><time>2026-04-06T14:49:29.959Z</time></trkpt><trkpt lat="45.8085178" lon="13.8688282"><ele>194.75</ele><time>2026-04-06T14:49:30.961Z</time></trkpt><trkpt lat="45.8084565" lon="13.8686712"><ele>193.5</ele><time>2026-04-06T14:49:31.963Z</time></trkpt><trkpt lat="45.8083946" lon="13.8685264"><ele>192.25</ele><time>2026-04-06T14:49:32.957Z</time></trkpt><trkpt lat="45.8083146" lon="13.8683933"><ele>191.0</ele><time>2026-04-06T14:49:33.963Z</time></trkpt><trkpt lat="45.8082352" lon="13.8682733"><ele>191.0</ele><time>2026-04-06T14:49:34.963Z</time></trkpt><trkpt lat="45.8081572" lon="13.8681621"><ele>191.0</ele><time>2026-04-06T14:49:35.969Z</time></trkpt><trkpt lat="45.8080763" lon="13.8680549"><ele>191.0</ele><time>2026-04-06T14:49:36.967Z</time></trkpt><trkpt lat="45.8079964" lon="13.8679491"><ele>191.0</ele><time>2026-04-06T14:49:37.976Z</time></trkpt><trkpt lat="45.8079198" lon="13.8678279"><ele>191.0</ele><time>2026-04-06T14:49:38.97Z</time></trkpt><trkpt lat="45.8078625" lon="13.8676799"><ele>189.25</ele><time>2026-04-06T14:49:39.966Z</time></trkpt><trkpt lat="45.8078335" lon="13.8674966"><ele>187.5</ele><time>2026-04-06T14:49:40.963Z</time></trkpt><trkpt lat="45.807817" lon="13.8673196"><ele>185.75</ele><time>2026-04-06T14:49:41.965Z</time></trkpt><trkpt lat="45.8077973" lon="13.8671571"><ele>184.0</ele><time>2026-04-06T14:49:42.964Z</time></trkpt><trkpt lat="45.8077731" lon="13.8669965"><ele>184.0</ele><time>2026-04-06T14:49:43.959Z</time></trkpt><trkpt lat="45.8077317" lon="13.8668388"><ele>184.0</ele><time>2026-04-06T14:49:44.964Z</time></trkpt><trkpt lat="45.807676" lon="13.8666859"><ele>184.0</ele><time>2026-04-06T14:49:45.974Z</time></trkpt><trkpt lat="45.8076011" lon="13.8665388"><ele>184.0</ele><time>2026-04-06T14:49:46.96Z</time></trkpt><trkpt lat="45.807521" lon="13.866415"><ele>188.25</ele><time>2026-04-06T14:49:47.955Z</time></trkpt><trkpt lat="45.8074352" lon="13.8663112"><ele>192.5</ele><time>2026-04-06T14:49:48.964Z</time></trkpt><trkpt lat="45.8073343" lon="13.8662346"><ele>196.75</ele><time>2026-04-06T14:49:49.964Z</time></trkpt><trkpt lat="45.8072251" lon="13.8661792"><ele>201.0</ele><time>2026-04-06T14:49:50.972Z</time></trkpt><trkpt lat="45.8071055" lon="13.8661445"><ele>201.0</ele><time>2026-04-06T14:49:51.957Z</time></trkpt><trkpt lat="45.8069882" lon="13.8661175"><ele>201.0</ele><time>2026-04-06T14:49:52.972Z</time></trkpt><trkpt lat="45.8068715" lon="13.8660868"><ele>201.0</ele><time>2026-04-06T14:49:53.974Z</time></trkpt><trkpt lat="45.8067656" lon="13.8660626"><ele>201.0</ele><time>2026-04-06T14:49:54.962Z</time></trkpt><trkpt lat="45.8066584" lon="13.8660424"><ele>205.75</ele><time>2026-04-06T14:49:55.96Z</time></trkpt><trkpt lat="45.8065446" lon="13.8660308"><ele>210.5</ele><time>2026-04-06T14:49:56.986Z</time></trkpt><trkpt lat="45.8064306" lon="13.8660324"><ele>215.25</ele><time>2026-04-06T14:49:57.963Z</time></trkpt><trkpt lat="45.8063162" lon="13.8660304"><ele>220.0</ele><time>2026-04-06T14:49:58.964Z</time></trkpt><trkpt lat="45.8062028" lon="13.8660315"><ele>220.0</ele><time>2026-04-06T14:49:59.963Z</time></trkpt><trkpt lat="45.8060898" lon="13.8660301"><ele>220.0</ele><time>2026-04-06T14:50:00.971Z</time></trkpt><trkpt lat="45.8059796" lon="13.8660295"><ele>220.0</ele><time>2026-04-06T14:50:01.96Z</time></trkpt><trkpt lat="45.8058688" lon="13.8660215"><ele>220.0</ele><time>2026-04-06T14:50:02.97Z</time></trkpt><trkpt lat="45.8057556" lon="13.8660089"><ele>220.0</ele><time>2026-04-06T14:50:03.965Z</time></trkpt><trkpt lat="45.805641" lon="13.865991"><ele>222.2</ele><time>2026-04-06T14:50:04.959Z</time></trkpt><trkpt lat="45.8055304" lon="13.8659524"><ele>224.4</ele><time>2026-04-06T14:50:05.984Z</time></trkpt><trkpt lat="45.8054211" lon="13.8659046"><ele>226.60000000000002</ele><time>2026-04-06T14:50:06.968Z</time></trkpt><trkpt lat="45.8053196" lon="13.8658482"><ele>228.8</ele><time>2026-04-06T14:50:07.963Z</time></trkpt><trkpt lat="45.8052192" lon="13.8657818"><ele>231.0</ele><time>2026-04-06T14:50:08.966Z</time></trkpt><trkpt lat="45.8051163" lon="13.8657146"><ele>223.0</ele><time>2026-04-06T14:50:09.967Z</time></trkpt><trkpt lat="45.8050096" lon="13.8656734"><ele>215.0</ele><time>2026-04-06T14:50:10.989Z</time></trkpt><trkpt lat="45.8049001" lon="13.8656751"><ele>207.0</ele><time>2026-04-06T14:50:11.98Z</time></trkpt><trkpt lat="45.8047901" lon="13.8657121"><ele>199.0</ele><time>2026-04-06T14:50:12.976Z</time></trkpt><trkpt lat="45.8046837" lon="13.8657818"><ele>199.0</ele><time>2026-04-06T14:50:13.968Z</time></trkpt><trkpt lat="45.8045773" lon="13.8658846"><ele>199.0</ele><time>2026-04-06T14:50:14.974Z</time></trkpt><trkpt lat="45.8044674" lon="13.865996"><ele>199.0</ele><time>2026-04-06T14:50:15.965Z</time></trkpt><trkpt lat="45.8043538" lon="13.8661016"><ele>199.0</ele><time>2026-04-06T14:50:16.978Z</time></trkpt><trkpt lat="45.8042457" lon="13.8661943"><ele>202.0</ele><time>2026-04-06T14:50:17.977Z</time></trkpt><trkpt lat="45.80414" lon="13.8662868"><ele>205.0</ele><time>2026-04-06T14:50:18.966Z</time></trkpt><trkpt lat="45.8040383" lon="13.8663851"><ele>208.0</ele><time>2026-04-06T14:50:19.979Z</time></trkpt><trkpt lat="45.8039349" lon="13.8665044"><ele>211.0</ele><time>2026-04-06T14:50:20.975Z</time></trkpt><trkpt lat="45.8038387" lon="13.866631"><ele>211.0</ele><time>2026-04-06T14:50:21.973Z</time></trkpt><trkpt lat="45.8037477" lon="13.8667735"><ele>211.0</ele><time>2026-04-06T14:50:22.979Z</time></trkpt><trkpt lat="45.8036647" lon="13.8669239"><ele>211.0</ele><time>2026-04-06T14:50:23.977Z</time></trkpt><trkpt lat="45.8035852" lon="13.8670683"><ele>211.0</ele><time>2026-04-06T14:50:24.98Z</time></trkpt><trkpt lat="45.8035192" lon="13.8671872"><ele>207.8</ele><time>2026-04-06T14:50:25.971Z</time></trkpt><trkpt lat="45.803442" lon="13.8672558"><ele>204.60000000000002</ele><time>2026-04-06T14:50:26.971Z</time></trkpt><trkpt lat="45.8033507" lon="13.8672743"><ele>201.4</ele><time>2026-04-06T14:50:27.967Z</time></trkpt><trkpt lat="45.803253" lon="13.8672445"><ele>198.2</ele><time>2026-04-06T14:50:28.969Z</time></trkpt><trkpt lat="45.8031705" lon="13.8671561"><ele>195.0</ele><time>2026-04-06T14:50:29.97Z</time></trkpt><trkpt lat="45.8031184" lon="13.867053"><ele>195.0</ele><time>2026-04-06T14:50:30.966Z</time></trkpt><trkpt lat="45.8031217" lon="13.8669334"><ele>195.0</ele><time>2026-04-06T14:50:31.974Z</time></trkpt><trkpt lat="45.8031398" lon="13.8668044"><ele>195.0</ele><time>2026-04-06T14:50:32.969Z</time></trkpt><trkpt lat="45.8031609" lon="13.8666573"><ele>195.0</ele><time>2026-04-06T14:50:33.963Z</time></trkpt><trkpt lat="45.8031822" lon="13.8665148"><ele>195.0</ele><time>2026-04-06T14:50:34.964Z</time></trkpt><trkpt lat="45.8032046" lon="13.8663804"><ele>194.83333333333334</ele><time>2026-04-06T14:50:35.981Z</time></trkpt><trkpt lat="45.8032274" lon="13.866263"><ele>194.66666666666669</ele><time>2026-04-06T14:50:36.975Z</time></trkpt><trkpt lat="45.8032474" lon="13.8661704"><ele>194.5</ele><time>2026-04-06T14:50:37.966Z</time></trkpt><trkpt lat="45.8032911" lon="13.8660563"><ele>194.33333333333334</ele><time>2026-04-06T14:50:39.971Z</time></trkpt><trkpt lat="45.8033465" lon="13.8659345"><ele>194.16666666666669</ele><time>2026-04-06T14:50:41.972Z</time></trkpt><trkpt lat="45.8033793" lon="13.8658421"><ele>194.0</ele><time>2026-04-06T14:50:42.963Z</time></trkpt><trkpt lat="45.8034093" lon="13.8657457"><ele>194.83333333333334</ele><time>2026-04-06T14:50:43.957Z</time></trkpt><trkpt lat="45.8034426" lon="13.865646"><ele>195.66666666666669</ele><time>2026-04-06T14:50:44.972Z</time></trkpt><trkpt lat="45.8034812" lon="13.8655729"><ele>196.5</ele><time>2026-04-06T14:50:45.963Z</time></trkpt><trkpt lat="45.8035377" lon="13.8655116"><ele>197.33333333333331</ele><time>2026-04-06T14:50:46.985Z</time></trkpt><trkpt lat="45.8036061" lon="13.8654805"><ele>198.16666666666666</ele><time>2026-04-06T14:50:47.966Z</time></trkpt><trkpt lat="45.8036909" lon="13.865472"><ele>199.0</ele><time>2026-04-06T14:50:48.965Z</time></trkpt><trkpt lat="45.8037787" lon="13.8654707"><ele>196.6</ele><time>2026-04-06T14:50:49.962Z</time></trkpt><trkpt lat="45.803861" lon="13.8654566"><ele>194.2</ele><time>2026-04-06T14:50:50.97Z</time></trkpt><trkpt lat="45.8039376" lon="13.8654208"><ele>191.79999999999998</ele><time>2026-04-06T14:50:51.97Z</time></trkpt><trkpt lat="45.8040109" lon="13.8653451"><ele>189.39999999999998</ele><time>2026-04-06T14:50:52.968Z</time></trkpt><trkpt lat="45.8040818" lon="13.8652317"><ele>187.0</ele><time>2026-04-06T14:50:53.981Z</time></trkpt><trkpt lat="45.8041648" lon="13.8651079"><ele>186.25</ele><time>2026-04-06T14:50:54.962Z</time></trkpt><trkpt lat="45.8042661" lon="13.8649728"><ele>185.5</ele><time>2026-04-06T14:50:55.968Z</time></trkpt><trkpt lat="45.8043721" lon="13.8648407"><ele>184.75</ele><time>2026-04-06T14:50:56.963Z</time></trkpt><trkpt lat="45.8044784" lon="13.8647065"><ele>184.0</ele><time>2026-04-06T14:50:57.961Z</time></trkpt><trkpt lat="45.804578" lon="13.8645758"><ele>184.0</ele><time>2026-04-06T14:50:58.964Z</time></trkpt><trkpt lat="45.8046695" lon="13.864452"><ele>184.0</ele><time>2026-04-06T14:50:59.964Z</time></trkpt><trkpt lat="45.8047599" lon="13.8643436"><ele>184.0</ele><time>2026-04-06T14:51:00.969Z</time></trkpt><trkpt lat="45.8048566" lon="13.8642472"><ele>184.0</ele><time>2026-04-06T14:51:01.965Z</time></trkpt><trkpt lat="45.8049552" lon="13.8641682"><ele>183.39999999999998</ele><time>2026-04-06T14:51:02.971Z</time></trkpt><trkpt lat="45.8050497" lon="13.8641145"><ele>182.8</ele><time>2026-04-06T14:51:03.968Z</time></trkpt><trkpt lat="45.8051489" lon="13.8640751"><ele>182.2</ele><time>2026-04-06T14:51:04.972Z</time></trkpt><trkpt lat="45.8052454" lon="13.8640457"><ele>181.60000000000002</ele><time>2026-04-06T14:51:05.968Z</time></trkpt><trkpt lat="45.8053364" lon="13.8640382"><ele>181.0</ele><time>2026-04-06T14:51:06.976Z</time></trkpt><trkpt lat="45.8054167" lon="13.8640294"><ele>180.4</ele><time>2026-04-06T14:51:07.968Z</time></trkpt><trkpt lat="45.8054863" lon="13.8639727"><ele>179.8</ele><time>2026-04-06T14:51:08.97Z</time></trkpt><trkpt lat="45.8055384" lon="13.8638779"><ele>179.20000000000002</ele><time>2026-04-06T14:51:09.968Z</time></trkpt><trkpt lat="45.8055771" lon="13.8637518"><ele>178.60000000000002</ele><time>2026-04-06T14:51:10.971Z</time></trkpt><trkpt lat="45.8056099" lon="13.8636253"><ele>178.0</ele><time>2026-04-06T14:51:11.966Z</time></trkpt><trkpt lat="45.80566" lon="13.8635056"><ele>178.4</ele><time>2026-04-06T14:51:12.97Z</time></trkpt><trkpt lat="45.8057223" lon="13.8634021"><ele>178.8</ele><time>2026-04-06T14:51:13.968Z</time></trkpt><trkpt lat="45.8057857" lon="13.8633025"><ele>179.2</ele><time>2026-04-06T14:51:14.968Z</time></trkpt><trkpt lat="45.8058499" lon="13.8631953"><ele>179.6</ele><time>2026-04-06T14:51:15.98Z</time></trkpt><trkpt lat="45.8059172" lon="13.8630845"><ele>180.0</ele><time>2026-04-06T14:51:16.968Z</time></trkpt><trkpt lat="45.8059878" lon="13.8629831"><ele>180.2</ele><time>2026-04-06T14:51:17.965Z</time></trkpt><trkpt lat="45.8060639" lon="13.8628906"><ele>180.4</ele><time>2026-04-06T14:51:18.969Z</time></trkpt><trkpt lat="45.8061388" lon="13.8628058"><ele>180.60000000000002</ele><time>2026-04-06T14:51:19.971Z</time></trkpt><trkpt lat="45.8062055" lon="13.8627037"><ele>180.8</ele><time>2026-04-06T14:51:20.985Z</time></trkpt><trkpt lat="45.8062576" lon="13.8625925"><ele>181.0</ele><time>2026-04-06T14:51:21.967Z</time></trkpt><trkpt lat="45.8063136" lon="13.8624749"><ele>181.0</ele><time>2026-04-06T14:51:22.972Z</time></trkpt><trkpt lat="45.8063741" lon="13.8623707"><ele>181.0</ele><time>2026-04-06T14:51:23.973Z</time></trkpt><trkpt lat="45.8064415" lon="13.8622681"><ele>181.0</ele><time>2026-04-06T14:51:24.97Z</time></trkpt><trkpt lat="45.8065136" lon="13.8621742"><ele>181.0</ele><time>2026-04-06T14:51:25.971Z</time></trkpt><trkpt lat="45.8065902" lon="13.8620822"><ele>181.0</ele><time>2026-04-06T14:51:26.97Z</time></trkpt><trkpt lat="45.8066744" lon="13.8620015"><ele>181.0</ele><time>2026-04-06T14:51:27.969Z</time></trkpt><trkpt lat="45.8067586" lon="13.8619238"><ele>181.0</ele><time>2026-04-06T14:51:28.969Z</time></trkpt><trkpt lat="45.8068329" lon="13.8618449"><ele>181.0</ele><time>2026-04-06T14:51:29.97Z</time></trkpt><trkpt lat="45.8069041" lon="13.8617579"><ele>181.0</ele><time>2026-04-06T14:51:30.967Z</time></trkpt><trkpt lat="45.8069705" lon="13.8616644"><ele>181.0</ele><time>2026-04-06T14:51:31.963Z</time></trkpt><trkpt lat="45.8070337" lon="13.8615627"><ele>182.20000000000002</ele><time>2026-04-06T14:51:32.967Z</time></trkpt><trkpt lat="45.8070967" lon="13.8614618"><ele>183.4</ele><time>2026-04-06T14:51:33.967Z</time></trkpt><trkpt lat="45.8071675" lon="13.861366"><ele>184.6</ele><time>2026-04-06T14:51:34.965Z</time></trkpt><trkpt lat="45.8072373" lon="13.8612754"><ele>185.8</ele><time>2026-04-06T14:51:35.974Z</time></trkpt><trkpt lat="45.8073144" lon="13.8611895"><ele>187.0</ele><time>2026-04-06T14:51:36.973Z</time></trkpt><trkpt lat="45.8073948" lon="13.8611067"><ele>187.0</ele><time>2026-04-06T14:51:37.988Z</time></trkpt><trkpt lat="45.8074722" lon="13.861028"><ele>187.0</ele><time>2026-04-06T14:51:38.973Z</time></trkpt><trkpt lat="45.8075483" lon="13.8609418"><ele>187.0</ele><time>2026-04-06T14:51:39.974Z</time></trkpt><trkpt lat="45.8076211" lon="13.8608563"><ele>187.0</ele><time>2026-04-06T14:51:40.973Z</time></trkpt><trkpt lat="45.8076951" lon="13.8607603"><ele>187.0</ele><time>2026-04-06T14:51:41.97Z</time></trkpt><trkpt lat="45.807766" lon="13.8606731"><ele>187.66666666666669</ele><time>2026-04-06T14:51:42.981Z</time></trkpt><trkpt lat="45.8078339" lon="13.8605846"><ele>188.33333333333334</ele><time>2026-04-06T14:51:43.969Z</time></trkpt><trkpt lat="45.8079005" lon="13.8604938"><ele>189.0</ele><time>2026-04-06T14:51:44.974Z</time></trkpt><trkpt lat="45.8079727" lon="13.8604158"><ele>189.66666666666666</ele><time>2026-04-06T14:51:45.971Z</time></trkpt><trkpt lat="45.8080466" lon="13.8603535"><ele>190.33333333333331</ele><time>2026-04-06T14:51:46.967Z</time></trkpt><trkpt lat="45.8081168" lon="13.8602968"><ele>191.0</ele><time>2026-04-06T14:51:47.966Z</time></trkpt><trkpt lat="45.8081828" lon="13.8602324"><ele>191.0</ele><time>2026-04-06T14:51:48.971Z</time></trkpt><trkpt lat="45.8082481" lon="13.8601694"><ele>191.0</ele><time>2026-04-06T14:51:49.971Z</time></trkpt><trkpt lat="45.8083084" lon="13.8601015"><ele>191.0</ele><time>2026-04-06T14:51:50.975Z</time></trkpt><trkpt lat="45.8083626" lon="13.8600135"><ele>191.0</ele><time>2026-04-06T14:51:51.969Z</time></trkpt><trkpt lat="45.8084089" lon="13.8599133"><ele>191.0</ele><time>2026-04-06T14:51:52.984Z</time></trkpt><trkpt lat="45.8084575" lon="13.8598268"><ele>191.0</ele><time>2026-04-06T14:51:53.97Z</time></trkpt><trkpt lat="45.8085157" lon="13.8597473"><ele>192.4</ele><time>2026-04-06T14:51:54.971Z</time></trkpt><trkpt lat="45.8085847" lon="13.8596064"><ele>193.8</ele><time>2026-04-06T14:51:56.968Z</time></trkpt><trkpt lat="45.8086453" lon="13.8594682"><ele>195.20000000000002</ele><time>2026-04-06T14:51:58.964Z</time></trkpt><trkpt lat="45.8086931" lon="13.8594032"><ele>196.60000000000002</ele><time>2026-04-06T14:51:59.98Z</time></trkpt><trkpt lat="45.8087592" lon="13.8593392"><ele>198.0</ele><time>2026-04-06T14:52:00.964Z</time></trkpt><trkpt lat="45.808832" lon="13.8592539"><ele>199.2</ele><time>2026-04-06T14:52:01.968Z</time></trkpt><trkpt lat="45.8089026" lon="13.8591599"><ele>200.4</ele><time>2026-04-06T14:52:02.958Z</time></trkpt><trkpt lat="45.8089733" lon="13.8590705"><ele>201.6</ele><time>2026-04-06T14:52:03.962Z</time></trkpt><trkpt lat="45.8090376" lon="13.8589737"><ele>202.79999999999998</ele><time>2026-04-06T14:52:04.966Z</time></trkpt><trkpt lat="45.809095" lon="13.858875"><ele>204.0</ele><time>2026-04-06T14:52:05.968Z</time></trkpt><trkpt lat="45.8091534" lon="13.8587799"><ele>204.0</ele><time>2026-04-06T14:52:06.964Z</time></trkpt><trkpt lat="45.8091988" lon="13.8586806"><ele>204.0</ele><time>2026-04-06T14:52:07.979Z</time></trkpt><trkpt lat="45.8092444" lon="13.8585868"><ele>204.0</ele><time>2026-04-06T14:52:08.974Z</time></trkpt><trkpt lat="45.8092793" lon="13.8584759"><ele>204.0</ele><time>2026-04-06T14:52:09.965Z</time></trkpt><trkpt lat="45.8093151" lon="13.8583739"><ele>204.0</ele><time>2026-04-06T14:52:10.97Z</time></trkpt><trkpt lat="45.8093563" lon="13.8582999"><ele>204.0</ele><time>2026-04-06T14:52:11.964Z</time></trkpt><trkpt lat="45.8094187" lon="13.8582522"><ele>205.0</ele><time>2026-04-06T14:52:12.977Z</time></trkpt><trkpt lat="45.8094953" lon="13.8582318"><ele>206.0</ele><time>2026-04-06T14:52:13.968Z</time></trkpt><trkpt lat="45.8095791" lon="13.8582266"><ele>207.0</ele><time>2026-04-06T14:52:14.959Z</time></trkpt><trkpt lat="45.8096583" lon="13.8582137"><ele>208.0</ele><time>2026-04-06T14:52:15.97Z</time></trkpt><trkpt lat="45.8097284" lon="13.8581818"><ele>209.0</ele><time>2026-04-06T14:52:16.969Z</time></trkpt><trkpt lat="45.809796" lon="13.8581371"><ele>210.0</ele><time>2026-04-06T14:52:17.991Z</time></trkpt><trkpt lat="45.8098591" lon="13.8580818"><ele>210.0</ele><time>2026-04-06T14:52:18.969Z</time></trkpt><trkpt lat="45.8099259" lon="13.8580117"><ele>210.0</ele><time>2026-04-06T14:52:19.967Z</time></trkpt><trkpt lat="45.8099898" lon="13.8579366"><ele>210.0</ele><time>2026-04-06T14:52:20.971Z</time></trkpt><trkpt lat="45.8100615" lon="13.8578638"><ele>210.0</ele><time>2026-04-06T14:52:21.975Z</time></trkpt><trkpt lat="45.8101379" lon="13.8577842"><ele>210.0</ele><time>2026-04-06T14:52:22.976Z</time></trkpt><trkpt lat="45.8102166" lon="13.8576865"><ele>212.6</ele><time>2026-04-06T14:52:23.965Z</time></trkpt><trkpt lat="45.8102963" lon="13.8575828"><ele>215.2</ele><time>2026-04-06T14:52:24.975Z</time></trkpt><trkpt lat="45.8103792" lon="13.8574808"><ele>217.8</ele><time>2026-04-06T14:52:25.97Z</time></trkpt><trkpt lat="45.8104566" lon="13.8573818"><ele>220.4</ele><time>2026-04-06T14:52:26.968Z</time></trkpt><trkpt lat="45.8105289" lon="13.8572731"><ele>223.0</ele><time>2026-04-06T14:52:27.982Z</time></trkpt><trkpt lat="45.8106014" lon="13.8571605"><ele>223.0</ele><time>2026-04-06T14:52:28.97Z</time></trkpt><trkpt lat="45.8106729" lon="13.8570489"><ele>223.0</ele><time>2026-04-06T14:52:29.968Z</time></trkpt><trkpt lat="45.8107406" lon="13.8569332"><ele>223.0</ele><time>2026-04-06T14:52:30.972Z</time></trkpt><trkpt lat="45.8108063" lon="13.856813"><ele>223.0</ele><time>2026-04-06T14:52:31.971Z</time></trkpt><trkpt lat="45.8108692" lon="13.8566981"><ele>223.0</ele><time>2026-04-06T14:52:32.981Z</time></trkpt><trkpt lat="45.8109249" lon="13.8565933"><ele>223.99999999999997</ele><time>2026-04-06T14:52:33.968Z</time></trkpt><trkpt lat="45.8109837" lon="13.8564994"><ele>225.0</ele><time>2026-04-06T14:52:34.964Z</time></trkpt><trkpt lat="45.8110422" lon="13.8564281"><ele>226.0</ele><time>2026-04-06T14:52:35.965Z</time></trkpt><trkpt lat="45.8111149" lon="13.8563865"><ele>227.0</ele><time>2026-04-06T14:52:36.974Z</time></trkpt><trkpt lat="45.8111892" lon="13.856361"><ele>227.99999999999997</ele><time>2026-04-06T14:52:37.967Z</time></trkpt><trkpt lat="45.8112615" lon="13.8563317"><ele>229.0</ele><time>2026-04-06T14:52:38.979Z</time></trkpt><trkpt lat="45.8113284" lon="13.8562777"><ele>228.99999999999997</ele><time>2026-04-06T14:52:39.977Z</time></trkpt><trkpt lat="45.8113863" lon="13.8562028"><ele>229.0</ele><time>2026-04-06T14:52:40.97Z</time></trkpt><trkpt lat="45.8114464" lon="13.8561282"><ele>229.0</ele><time>2026-04-06T14:52:41.985Z</time></trkpt><trkpt lat="45.8115045" lon="13.8560435"><ele>229.0</ele><time>2026-04-06T14:52:42.977Z</time></trkpt><trkpt lat="45.811561" lon="13.8559565"><ele>228.99999999999997</ele><time>2026-04-06T14:52:43.976Z</time></trkpt><trkpt lat="45.8116174" lon="13.8558562"><ele>229.0</ele><time>2026-04-06T14:52:44.966Z</time></trkpt><trkpt lat="45.8116657" lon="13.8557515"><ele>231.0</ele><time>2026-04-06T14:52:45.968Z</time></trkpt><trkpt lat="45.8117165" lon="13.8556339"><ele>232.99999999999997</ele><time>2026-04-06T14:52:46.972Z</time></trkpt><trkpt lat="45.8117744" lon="13.8554969"><ele>234.99999999999997</ele><time>2026-04-06T14:52:47.979Z</time></trkpt><trkpt lat="45.8118334" lon="13.8553611"><ele>237.0</ele><time>2026-04-06T14:52:48.978Z</time></trkpt><trkpt lat="45.8118954" lon="13.8552385"><ele>239.0</ele><time>2026-04-06T14:52:49.973Z</time></trkpt><trkpt lat="45.8119646" lon="13.8551201"><ele>240.16666666666669</ele><time>2026-04-06T14:52:50.967Z</time></trkpt><trkpt lat="45.8120237" lon="13.8550038"><ele>241.33333333333334</ele><time>2026-04-06T14:52:51.976Z</time></trkpt><trkpt lat="45.8120815" lon="13.854898"><ele>242.5</ele><time>2026-04-06T14:52:52.977Z</time></trkpt><trkpt lat="45.8121376" lon="13.8547906"><ele>243.66666666666669</ele><time>2026-04-06T14:52:53.985Z</time></trkpt><trkpt lat="45.8121848" lon="13.8546972"><ele>244.83333333333334</ele><time>2026-04-06T14:52:54.991Z</time></trkpt><trkpt lat="45.8122246" lon="13.85462"><ele>246.0</ele><time>2026-04-06T14:52:55.977Z</time></trkpt><trkpt lat="45.8122833" lon="13.8544845"><ele>246.0</ele><time>2026-04-06T14:52:57.98Z</time></trkpt><trkpt lat="45.8123281" lon="13.8544153"><ele>246.00000000000003</ele><time>2026-04-06T14:52:58.984Z</time></trkpt><trkpt lat="45.8123993" lon="13.8543571"><ele>246.00000000000003</ele><time>2026-04-06T14:52:59.973Z</time></trkpt><trkpt lat="45.8124944" lon="13.8543054"><ele>246.0</ele><time>2026-04-06T14:53:00.98Z</time></trkpt><trkpt lat="45.8126038" lon="13.8542745"><ele>246.0</ele><time>2026-04-06T14:53:02.006Z</time></trkpt><trkpt lat="45.8127173" lon="13.8542391"><ele>247.75</ele><time>2026-04-06T14:53:02.986Z</time></trkpt><trkpt lat="45.8128283" lon="13.8541768"><ele>249.5</ele><time>2026-04-06T14:53:03.98Z</time></trkpt><trkpt lat="45.8129304" lon="13.8540733"><ele>251.25</ele><time>2026-04-06T14:53:04.984Z</time></trkpt><trkpt lat="45.8130327" lon="13.8539404"><ele>253.0</ele><time>2026-04-06T14:53:05.984Z</time></trkpt><trkpt lat="45.8131328" lon="13.8537878"><ele>253.0</ele><time>2026-04-06T14:53:06.985Z</time></trkpt><trkpt lat="45.8132351" lon="13.8536372"><ele>253.0</ele><time>2026-04-06T14:53:07.995Z</time></trkpt><trkpt lat="45.8133523" lon="13.8534914"><ele>253.0</ele><time>2026-04-06T14:53:08.984Z</time></trkpt><trkpt lat="45.8134806" lon="13.8533562"><ele>255.5</ele><time>2026-04-06T14:53:09.997Z</time></trkpt><trkpt lat="45.813573" lon="13.853205"><ele>258.0</ele><time>2026-04-06T14:53:10.984Z</time></trkpt><trkpt lat="45.8136287" lon="13.8530428"><ele>260.5</ele><time>2026-04-06T14:53:11.985Z</time></trkpt><trkpt lat="45.8136875" lon="13.852907"><ele>263.0</ele><time>2026-04-06T14:53:12.977Z</time></trkpt><trkpt lat="45.8137701" lon="13.852814"><ele>263.0</ele><time>2026-04-06T14:53:13.99Z</time></trkpt><trkpt lat="45.8138655" lon="13.8527709"><ele>263.0</ele><time>2026-04-06T14:53:14.985Z</time></trkpt><trkpt lat="45.8139742" lon="13.8527706"><ele>263.0</ele><time>2026-04-06T14:53:15.987Z</time></trkpt><trkpt lat="45.8140976" lon="13.8528138"><ele>263.0</ele><time>2026-04-06T14:53:16.98Z</time></trkpt><trkpt lat="45.8142288" lon="13.852874"><ele>264.5</ele><time>2026-04-06T14:53:17.987Z</time></trkpt><trkpt lat="45.8143753" lon="13.8529323"><ele>266.0</ele><time>2026-04-06T14:53:18.981Z</time></trkpt><trkpt lat="45.8145204" lon="13.8529906"><ele>267.5</ele><time>2026-04-06T14:53:19.979Z</time></trkpt><trkpt lat="45.8146608" lon="13.8530383"><ele>269.0</ele><time>2026-04-06T14:53:20.983Z</time></trkpt><trkpt lat="45.8147929" lon="13.8530871"><ele>269.0</ele><time>2026-04-06T14:53:21.979Z</time></trkpt><trkpt lat="45.8149242" lon="13.8531404"><ele>269.0</ele><time>2026-04-06T14:53:22.977Z</time></trkpt><trkpt lat="45.8150496" lon="13.8531885"><ele>269.0</ele><time>2026-04-06T14:53:23.983Z</time></trkpt><trkpt lat="45.8151725" lon="13.8532084"><ele>269.0</ele><time>2026-04-06T14:53:24.986Z</time></trkpt><trkpt lat="45.8152871" lon="13.8531491"><ele>272.8</ele><time>2026-04-06T14:53:25.979Z</time></trkpt><trkpt lat="45.8154014" lon="13.8530614"><ele>276.59999999999997</ele><time>2026-04-06T14:53:26.986Z</time></trkpt><trkpt lat="45.8155055" lon="13.8529898"><ele>280.4</ele><time>2026-04-06T14:53:27.986Z</time></trkpt><trkpt lat="45.8155994" lon="13.8529301"><ele>284.2</ele><time>2026-04-06T14:53:28.977Z</time></trkpt><trkpt lat="45.8156829" lon="13.8528734"><ele>288.0</ele><time>2026-04-06T14:53:29.993Z</time></trkpt><trkpt lat="45.8157621" lon="13.8528048"><ele>288.0</ele><time>2026-04-06T14:53:30.988Z</time></trkpt><trkpt lat="45.8158318" lon="13.8527"><ele>288.0</ele><time>2026-04-06T14:53:31.983Z</time></trkpt><trkpt lat="45.8158771" lon="13.852568"><ele>288.0</ele><time>2026-04-06T14:53:32.985Z</time></trkpt><trkpt lat="45.8159129" lon="13.8524227"><ele>288.0</ele><time>2026-04-06T14:53:33.996Z</time></trkpt><trkpt lat="45.8159336" lon="13.8522973"><ele>288.0</ele><time>2026-04-06T14:53:34.977Z</time></trkpt><trkpt lat="45.8159562" lon="13.8521886"><ele>287.4</ele><time>2026-04-06T14:53:35.982Z</time></trkpt><trkpt lat="45.816029" lon="13.8520672"><ele>286.8</ele><time>2026-04-06T14:53:37.99Z</time></trkpt><trkpt lat="45.8160996" lon="13.8519281"><ele>286.2</ele><time>2026-04-06T14:53:39.976Z</time></trkpt><trkpt lat="45.8160906" lon="13.8518281"><ele>285.6</ele><time>2026-04-06T14:53:40.984Z</time></trkpt><trkpt lat="45.8160566" lon="13.851708"><ele>285.0</ele><time>2026-04-06T14:53:41.981Z</time></trkpt><trkpt lat="45.8159981" lon="13.8515852"><ele>283.2</ele><time>2026-04-06T14:53:42.993Z</time></trkpt><trkpt lat="45.8159389" lon="13.8514615"><ele>281.4</ele><time>2026-04-06T14:53:43.972Z</time></trkpt><trkpt lat="45.8158853" lon="13.8513373"><ele>279.6</ele><time>2026-04-06T14:53:44.979Z</time></trkpt><trkpt lat="45.8158505" lon="13.8512285"><ele>277.8</ele><time>2026-04-06T14:53:45.984Z</time></trkpt><trkpt lat="45.8158072" lon="13.8511206"><ele>276.0</ele><time>2026-04-06T14:53:46.986Z</time></trkpt><trkpt lat="45.8157341" lon="13.8510294"><ele>276.0</ele><time>2026-04-06T14:53:47.99Z</time></trkpt><trkpt lat="45.8156391" lon="13.8509645"><ele>276.0</ele><time>2026-04-06T14:53:48.985Z</time></trkpt><trkpt lat="45.8155255" lon="13.8509121"><ele>276.0</ele><time>2026-04-06T14:53:49.973Z</time></trkpt><trkpt lat="45.8154127" lon="13.8508543"><ele>276.0</ele><time>2026-04-06T14:53:50.983Z</time></trkpt><trkpt lat="45.8153092" lon="13.8507879"><ele>276.0</ele><time>2026-04-06T14:53:51.982Z</time></trkpt><trkpt lat="45.8152289" lon="13.8507069"><ele>276.0</ele><time>2026-04-06T14:53:52.985Z</time></trkpt><trkpt lat="45.8151656" lon="13.8506109"><ele>276.0</ele><time>2026-04-06T14:53:53.983Z</time></trkpt><trkpt lat="45.8151117" lon="13.8505012"><ele>276.0</ele><time>2026-04-06T14:53:54.98Z</time></trkpt><trkpt lat="45.815069" lon="13.8503879"><ele>276.0</ele><time>2026-04-06T14:53:56Z</time></trkpt><trkpt lat="45.8150363" lon="13.8502767"><ele>276.3333333333333</ele><time>2026-04-06T14:53:56.987Z</time></trkpt><trkpt lat="45.815025" lon="13.8501706"><ele>276.6666666666667</ele><time>2026-04-06T14:53:57.985Z</time></trkpt><trkpt lat="45.8150418" lon="13.8500722"><ele>277.0</ele><time>2026-04-06T14:53:58.979Z</time></trkpt><trkpt lat="45.8150694" lon="13.8499789"><ele>277.33333333333337</ele><time>2026-04-06T14:53:59.984Z</time></trkpt><trkpt lat="45.815108" lon="13.8499053"><ele>277.6666666666667</ele><time>2026-04-06T14:54:00.987Z</time></trkpt><trkpt lat="45.8152169" lon="13.8497966"><ele>278.0</ele><time>2026-04-06T14:54:02.993Z</time></trkpt><trkpt lat="45.8152762" lon="13.8497394"><ele>278.0</ele><time>2026-04-06T14:54:03.98Z</time></trkpt><trkpt lat="45.8153596" lon="13.8496766"><ele>278.0</ele><time>2026-04-06T14:54:05.979Z</time></trkpt><trkpt lat="45.8153761" lon="13.8495746"><ele>278.0</ele><time>2026-04-06T14:54:08.983Z</time></trkpt><trkpt lat="45.8153122" lon="13.8494727"><ele>278.0</ele><time>2026-04-06T14:54:10.986Z</time></trkpt><trkpt lat="45.8152953" lon="13.8493818"><ele>278.0</ele><time>2026-04-06T14:54:11.983Z</time></trkpt><trkpt lat="45.8152824" lon="13.8492563"><ele>278.0</ele><time>2026-04-06T14:54:12.983Z</time></trkpt><trkpt lat="45.8152645" lon="13.8491174"><ele>278.6</ele><time>2026-04-06T14:54:13.989Z</time></trkpt><trkpt lat="45.8152599" lon="13.8489693"><ele>279.20000000000005</ele><time>2026-04-06T14:54:14.986Z</time></trkpt><trkpt lat="45.8152661" lon="13.848827"><ele>279.8</ele><time>2026-04-06T14:54:15.975Z</time></trkpt><trkpt lat="45.8152807" lon="13.8486929"><ele>280.40000000000003</ele><time>2026-04-06T14:54:16.98Z</time></trkpt><trkpt lat="45.8152829" lon="13.8485626"><ele>281.0</ele><time>2026-04-06T14:54:17.994Z</time></trkpt><trkpt lat="45.8152564" lon="13.8484345"><ele>281.40000000000003</ele><time>2026-04-06T14:54:18.979Z</time></trkpt><trkpt lat="45.8152181" lon="13.8483114"><ele>281.8</ele><time>2026-04-06T14:54:19.972Z</time></trkpt><trkpt lat="45.8151767" lon="13.8481817"><ele>282.20000000000005</ele><time>2026-04-06T14:54:20.974Z</time></trkpt><trkpt lat="45.8151415" lon="13.8480496"><ele>282.6</ele><time>2026-04-06T14:54:21.988Z</time></trkpt><trkpt lat="45.8151081" lon="13.8479211"><ele>283.0</ele><time>2026-04-06T14:54:22.981Z</time></trkpt><trkpt lat="45.815079" lon="13.8477986"><ele>283.6</ele><time>2026-04-06T14:54:23.999Z</time></trkpt><trkpt lat="45.8150447" lon="13.8476722"><ele>284.20000000000005</ele><time>2026-04-06T14:54:24.991Z</time></trkpt><trkpt lat="45.8150025" lon="13.8475364"><ele>284.8</ele><time>2026-04-06T14:54:25.98Z</time></trkpt><trkpt lat="45.8149533" lon="13.8474136"><ele>285.40000000000003</ele><time>2026-04-06T14:54:26.984Z</time></trkpt><trkpt lat="45.8149032" lon="13.8472974"><ele>286.0</ele><time>2026-04-06T14:54:27.982Z</time></trkpt><trkpt lat="45.8148631" lon="13.847187"><ele>286.0</ele><time>2026-04-06T14:54:28.98Z</time></trkpt><trkpt lat="45.814838" lon="13.8470749"><ele>286.0</ele><time>2026-04-06T14:54:29.985Z</time></trkpt><trkpt lat="45.8148338" lon="13.8469411"><ele>286.0</ele><time>2026-04-06T14:54:30.985Z</time></trkpt><trkpt lat="45.8148339" lon="13.8468119"><ele>286.0</ele><time>2026-04-06T14:54:31.975Z</time></trkpt><trkpt lat="45.8148336" lon="13.8466783"><ele>286.0</ele><time>2026-04-06T14:54:32.98Z</time></trkpt><trkpt lat="45.8148369" lon="13.846544"><ele>285.8333333333333</ele><time>2026-04-06T14:54:33.978Z</time></trkpt><trkpt lat="45.814838" lon="13.8464134"><ele>285.66666666666663</ele><time>2026-04-06T14:54:34.992Z</time></trkpt><trkpt lat="45.814824" lon="13.8463141"><ele>285.5</ele><time>2026-04-06T14:54:35.984Z</time></trkpt><trkpt lat="45.8147939" lon="13.8462047"><ele>285.3333333333333</ele><time>2026-04-06T14:54:37.986Z</time></trkpt><trkpt lat="45.8147428" lon="13.8460687"><ele>285.1666666666667</ele><time>2026-04-06T14:54:39.989Z</time></trkpt><trkpt lat="45.8146943" lon="13.8459751"><ele>285.0</ele><time>2026-04-06T14:54:40.995Z</time></trkpt><trkpt lat="45.8146299" lon="13.8458822"><ele>285.0</ele><time>2026-04-06T14:54:41.984Z</time></trkpt><trkpt lat="45.814567" lon="13.8457963"><ele>285.0</ele><time>2026-04-06T14:54:42.982Z</time></trkpt><trkpt lat="45.8145079" lon="13.8456915"><ele>285.0</ele><time>2026-04-06T14:54:43.983Z</time></trkpt><trkpt lat="45.8144551" lon="13.8455855"><ele>285.0</ele><time>2026-04-06T14:54:44.984Z</time></trkpt><trkpt lat="45.8143996" lon="13.8454755"><ele>285.0</ele><time>2026-04-06T14:54:45.98Z</time></trkpt><trkpt lat="45.8143552" lon="13.8453764"><ele>285.0</ele><time>2026-04-06T14:54:46.987Z</time></trkpt><trkpt lat="45.8143323" lon="13.8452848"><ele>284.8333333333333</ele><time>2026-04-06T14:54:47.973Z</time></trkpt><trkpt lat="45.8143192" lon="13.8451635"><ele>284.6666666666667</ele><time>2026-04-06T14:54:49.984Z</time></trkpt><trkpt lat="45.8142985" lon="13.8450594"><ele>284.5</ele><time>2026-04-06T14:54:51.99Z</time></trkpt><trkpt lat="45.8142748" lon="13.8449669"><ele>284.33333333333337</ele><time>2026-04-06T14:54:53.986Z</time></trkpt><trkpt lat="45.8142548" lon="13.8448586"><ele>284.1666666666667</ele><time>2026-04-06T14:54:55.978Z</time></trkpt><trkpt lat="45.8142251" lon="13.8447649"><ele>284.0</ele><time>2026-04-06T14:54:57.985Z</time></trkpt><trkpt lat="45.8141941" lon="13.8446688"><ele>283.1666666666667</ele><time>2026-04-06T14:54:59.984Z</time></trkpt><trkpt lat="45.8141679" lon="13.8445789"><ele>282.33333333333337</ele><time>2026-04-06T14:55:01.981Z</time></trkpt><trkpt lat="45.8141408" lon="13.8444492"><ele>281.5</ele><time>2026-04-06T14:55:04.985Z</time></trkpt><trkpt lat="45.8141192" lon="13.8443241"><ele>280.6666666666667</ele><time>2026-04-06T14:55:06.988Z</time></trkpt><trkpt lat="45.8141043" lon="13.8441513"><ele>279.8333333333333</ele><time>2026-04-06T14:55:08.98Z</time></trkpt><trkpt lat="45.8141087" lon="13.844059"><ele>279.0</ele><time>2026-04-06T14:55:09.986Z</time></trkpt><trkpt lat="45.8141214" lon="13.8439429"><ele>277.59999999999997</ele><time>2026-04-06T14:55:10.984Z</time></trkpt><trkpt lat="45.8141402" lon="13.8438142"><ele>276.2</ele><time>2026-04-06T14:55:11.971Z</time></trkpt><trkpt lat="45.8141531" lon="13.8436825"><ele>274.79999999999995</ele><time>2026-04-06T14:55:12.993Z</time></trkpt><trkpt lat="45.8141642" lon="13.8435505"><ele>273.4</ele><time>2026-04-06T14:55:13.98Z</time></trkpt><trkpt lat="45.8141662" lon="13.8434121"><ele>272.0</ele><time>2026-04-06T14:55:14.997Z</time></trkpt><trkpt lat="45.8141557" lon="13.8432714"><ele>272.0</ele><time>2026-04-06T14:55:15.996Z</time></trkpt><trkpt lat="45.8141424" lon="13.8431267"><ele>272.0</ele><time>2026-04-06T14:55:16.984Z</time></trkpt><trkpt lat="45.8141314" lon="13.8429709"><ele>272.0</ele><time>2026-04-06T14:55:17.995Z</time></trkpt><trkpt lat="45.8141164" lon="13.842826"><ele>272.0</ele><time>2026-04-06T14:55:18.983Z</time></trkpt><trkpt lat="45.8140993" lon="13.8426952"><ele>272.0</ele><time>2026-04-06T14:55:19.991Z</time></trkpt><trkpt lat="45.8140745" lon="13.8425644"><ele>272.0</ele><time>2026-04-06T14:55:20.982Z</time></trkpt><trkpt lat="45.8140445" lon="13.8424275"><ele>272.0</ele><time>2026-04-06T14:55:21.988Z</time></trkpt><trkpt lat="45.8140174" lon="13.8422829"><ele>272.0</ele><time>2026-04-06T14:55:22.994Z</time></trkpt><trkpt lat="45.8139872" lon="13.8421311"><ele>272.0</ele><time>2026-04-06T14:55:23.991Z</time></trkpt><trkpt lat="45.8139545" lon="13.8419711"><ele>272.0</ele><time>2026-04-06T14:55:24.989Z</time></trkpt><trkpt lat="45.8139251" lon="13.8418031"><ele>271.6</ele><time>2026-04-06T14:55:25.985Z</time></trkpt><trkpt lat="45.8138884" lon="13.8416444"><ele>271.2</ele><time>2026-04-06T14:55:26.991Z</time></trkpt><trkpt lat="45.8138522" lon="13.8415016"><ele>270.8</ele><time>2026-04-06T14:55:27.985Z</time></trkpt><trkpt lat="45.8138253" lon="13.8413665"><ele>270.4</ele><time>2026-04-06T14:55:28.989Z</time></trkpt><trkpt lat="45.8138034" lon="13.8412447"><ele>270.0</ele><time>2026-04-06T14:55:29.997Z</time></trkpt><trkpt lat="45.8138018" lon="13.8411219"><ele>270.0</ele><time>2026-04-06T14:55:30.989Z</time></trkpt><trkpt lat="45.8138128" lon="13.8409944"><ele>270.0</ele><time>2026-04-06T14:55:31.987Z</time></trkpt><trkpt lat="45.8138246" lon="13.8408603"><ele>270.0</ele><time>2026-04-06T14:55:32.98Z</time></trkpt><trkpt lat="45.8138333" lon="13.8407172"><ele>270.0</ele><time>2026-04-06T14:55:33.989Z</time></trkpt><trkpt lat="45.8138418" lon="13.8405681"><ele>270.0</ele><time>2026-04-06T14:55:34.98Z</time></trkpt><trkpt lat="45.8138491" lon="13.8404169"><ele>270.4</ele><time>2026-04-06T14:55:35.984Z</time></trkpt><trkpt lat="45.8138519" lon="13.8402693"><ele>270.8</ele><time>2026-04-06T14:55:36.986Z</time></trkpt><trkpt lat="45.8138586" lon="13.8401269"><ele>271.2</ele><time>2026-04-06T14:55:37.986Z</time></trkpt><trkpt lat="45.8138612" lon="13.8399975"><ele>271.6</ele><time>2026-04-06T14:55:38.98Z</time></trkpt><trkpt lat="45.8138541" lon="13.839871"><ele>272.0</ele><time>2026-04-06T14:55:39.99Z</time></trkpt><trkpt lat="45.8138395" lon="13.8397489"><ele>272.6</ele><time>2026-04-06T14:55:40.984Z</time></trkpt><trkpt lat="45.813825" lon="13.8396213"><ele>273.2</ele><time>2026-04-06T14:55:41.99Z</time></trkpt><trkpt lat="45.813812" lon="13.839474"><ele>273.8</ele><time>2026-04-06T14:55:42.993Z</time></trkpt><trkpt lat="45.8138002" lon="13.8393148"><ele>274.4</ele><time>2026-04-06T14:55:43.984Z</time></trkpt><trkpt lat="45.8137903" lon="13.8391551"><ele>275.0</ele><time>2026-04-06T14:55:44.996Z</time></trkpt><trkpt lat="45.813782" lon="13.8389879"><ele>275.4</ele><time>2026-04-06T14:55:45.986Z</time></trkpt><trkpt lat="45.8137681" lon="13.8388263"><ele>275.8</ele><time>2026-04-06T14:55:46.981Z</time></trkpt><trkpt lat="45.8137499" lon="13.8386677"><ele>276.2</ele><time>2026-04-06T14:55:47.99Z</time></trkpt><trkpt lat="45.8137348" lon="13.8385108"><ele>276.6</ele><time>2026-04-06T14:55:48.98Z</time></trkpt><trkpt lat="45.8137198" lon="13.8383588"><ele>277.0</ele><time>2026-04-06T14:55:49.981Z</time></trkpt><trkpt lat="45.8136921" lon="13.8382092"><ele>277.2</ele><time>2026-04-06T14:55:51.007Z</time></trkpt><trkpt lat="45.8136585" lon="13.8380735"><ele>277.4</ele><time>2026-04-06T14:55:51.988Z</time></trkpt><trkpt lat="45.8136276" lon="13.8379409"><ele>277.6</ele><time>2026-04-06T14:55:52.998Z</time></trkpt><trkpt lat="45.8135951" lon="13.8378077"><ele>277.8</ele><time>2026-04-06T14:55:53.982Z</time></trkpt><trkpt lat="45.8135743" lon="13.8376664"><ele>278.0</ele><time>2026-04-06T14:55:54.997Z</time></trkpt><trkpt lat="45.8135657" lon="13.8375257"><ele>278.4</ele><time>2026-04-06T14:55:55.992Z</time></trkpt><trkpt lat="45.8135807" lon="13.8373818"><ele>278.8</ele><time>2026-04-06T14:55:56.99Z</time></trkpt><trkpt lat="45.8136226" lon="13.837255"><ele>279.2</ele><time>2026-04-06T14:55:57.982Z</time></trkpt><trkpt lat="45.8136628" lon="13.837122"><ele>279.6</ele><time>2026-04-06T14:55:58.991Z</time></trkpt><trkpt lat="45.8136919" lon="13.8369831"><ele>280.0</ele><time>2026-04-06T14:55:59.994Z</time></trkpt><trkpt lat="45.8137293" lon="13.8368393"><ele>280.2</ele><time>2026-04-06T14:56:00.994Z</time></trkpt><trkpt lat="45.8137767" lon="13.8366956"><ele>280.4</ele><time>2026-04-06T14:56:01.997Z</time></trkpt><trkpt lat="45.8138236" lon="13.8365604"><ele>280.6</ele><time>2026-04-06T14:56:02.998Z</time></trkpt><trkpt lat="45.8138638" lon="13.8364186"><ele>280.8</ele><time>2026-04-06T14:56:03.99Z</time></trkpt><trkpt lat="45.813897" lon="13.8362751"><ele>281.0</ele><time>2026-04-06T14:56:04.992Z</time></trkpt><trkpt lat="45.8139217" lon="13.8361409"><ele>281.0</ele><time>2026-04-06T14:56:05.98Z</time></trkpt><trkpt lat="45.8139362" lon="13.8360188"><ele>281.0</ele><time>2026-04-06T14:56:06.989Z</time></trkpt><trkpt lat="45.8139304" lon="13.8359066"><ele>281.0</ele><time>2026-04-06T14:56:07.986Z</time></trkpt><trkpt lat="45.8139011" lon="13.8358028"><ele>281.0</ele><time>2026-04-06T14:56:08.984Z</time></trkpt><trkpt lat="45.8138494" lon="13.8357167"><ele>281.0</ele><time>2026-04-06T14:56:09.984Z</time></trkpt><trkpt lat="45.8137883" lon="13.8356355"><ele>281.0</ele><time>2026-04-06T14:56:10.99Z</time></trkpt><trkpt lat="45.8137305" lon="13.835554"><ele>281.5</ele><time>2026-04-06T14:56:11.991Z</time></trkpt><trkpt lat="45.8136796" lon="13.8354717"><ele>282.0</ele><time>2026-04-06T14:56:12.985Z</time></trkpt><trkpt lat="45.8136463" lon="13.8353866"><ele>282.5</ele><time>2026-04-06T14:56:14.004Z</time></trkpt><trkpt lat="45.8136248" lon="13.8352918"><ele>283.0</ele><time>2026-04-06T14:56:14.984Z</time></trkpt><trkpt lat="45.813602" lon="13.835185"><ele>283.5</ele><time>2026-04-06T14:56:15.992Z</time></trkpt><trkpt lat="45.8135768" lon="13.8350772"><ele>284.0</ele><time>2026-04-06T14:56:16.987Z</time></trkpt><trkpt lat="45.8135537" lon="13.8349682"><ele>284.2</ele><time>2026-04-06T14:56:17.988Z</time></trkpt><trkpt lat="45.8135355" lon="13.8348424"><ele>284.4</ele><time>2026-04-06T14:56:18.989Z</time></trkpt><trkpt lat="45.8135153" lon="13.8347201"><ele>284.6</ele><time>2026-04-06T14:56:19.983Z</time></trkpt><trkpt lat="45.8135042" lon="13.8345918"><ele>284.8</ele><time>2026-04-06T14:56:20.989Z</time></trkpt><trkpt lat="45.8134903" lon="13.8344607"><ele>285.0</ele><time>2026-04-06T14:56:21.993Z</time></trkpt><trkpt lat="45.8134803" lon="13.8343163"><ele>286.2</ele><time>2026-04-06T14:56:23.018Z</time></trkpt><trkpt lat="45.813466" lon="13.8341842"><ele>287.4</ele><time>2026-04-06T14:56:23.988Z</time></trkpt><trkpt lat="45.8134533" lon="13.8340447"><ele>288.6</ele><time>2026-04-06T14:56:24.994Z</time></trkpt><trkpt lat="45.8134399" lon="13.8339073"><ele>289.8</ele><time>2026-04-06T14:56:25.993Z</time></trkpt><trkpt lat="45.8134311" lon="13.833771"><ele>291.0</ele><time>2026-04-06T14:56:26.985Z</time></trkpt><trkpt lat="45.813421" lon="13.8336277"><ele>291.0</ele><time>2026-04-06T14:56:27.99Z</time></trkpt><trkpt lat="45.8134026" lon="13.8334798"><ele>291.0</ele><time>2026-04-06T14:56:28.984Z</time></trkpt><trkpt lat="45.8133836" lon="13.8333326"><ele>291.0</ele><time>2026-04-06T14:56:30.01Z</time></trkpt><trkpt lat="45.8133666" lon="13.8331909"><ele>291.0</ele><time>2026-04-06T14:56:30.991Z</time></trkpt><trkpt lat="45.8133512" lon="13.8330516"><ele>291.0</ele><time>2026-04-06T14:56:31.98Z</time></trkpt><trkpt lat="45.8133432" lon="13.8329115"><ele>291.40000000000003</ele><time>2026-04-06T14:56:32.991Z</time></trkpt><trkpt lat="45.8133329" lon="13.8327676"><ele>291.8</ele><time>2026-04-06T14:56:33.997Z</time></trkpt><trkpt lat="45.8133096" lon="13.8326159"><ele>292.20000000000005</ele><time>2026-04-06T14:56:35Z</time></trkpt><trkpt lat="45.8132871" lon="13.8324572"><ele>292.6</ele><time>2026-04-06T14:56:35.999Z</time></trkpt><trkpt lat="45.8132807" lon="13.8323015"><ele>293.0</ele><time>2026-04-06T14:56:36.978Z</time></trkpt><trkpt lat="45.8132815" lon="13.8321449"><ele>292.8</ele><time>2026-04-06T14:56:37.993Z</time></trkpt><trkpt lat="45.813275" lon="13.8319971"><ele>292.6</ele><time>2026-04-06T14:56:39.003Z</time></trkpt><trkpt lat="45.8132581" lon="13.8318546"><ele>292.4</ele><time>2026-04-06T14:56:39.988Z</time></trkpt><trkpt lat="45.8132395" lon="13.8317134"><ele>292.2</ele><time>2026-04-06T14:56:40.997Z</time></trkpt><trkpt lat="45.8132231" lon="13.8315683"><ele>292.0</ele><time>2026-04-06T14:56:41.985Z</time></trkpt><trkpt lat="45.8132164" lon="13.8314194"><ele>292.0</ele><time>2026-04-06T14:56:42.995Z</time></trkpt><trkpt lat="45.8132044" lon="13.8312617"><ele>292.0</ele><time>2026-04-06T14:56:43.982Z</time></trkpt><trkpt lat="45.8131796" lon="13.831122"><ele>292.0</ele><time>2026-04-06T14:56:44.985Z</time></trkpt><trkpt lat="45.8131484" lon="13.8310066"><ele>292.0</ele><time>2026-04-06T14:56:45.981Z</time></trkpt><trkpt lat="45.813112" lon="13.8308709"><ele>292.0</ele><time>2026-04-06T14:56:47.985Z</time></trkpt><trkpt lat="45.8130514" lon="13.8307608"><ele>292.0</ele><time>2026-04-06T14:56:50.017Z</time></trkpt><trkpt lat="45.812986" lon="13.8306896"><ele>292.0</ele><time>2026-04-06T14:56:50.977Z</time></trkpt><trkpt lat="45.8129009" lon="13.8306227"><ele>292.0</ele><time>2026-04-06T14:56:51.983Z</time></trkpt><trkpt lat="45.812799" lon="13.8305292"><ele>292.0</ele><time>2026-04-06T14:56:52.985Z</time></trkpt><trkpt lat="45.8126924" lon="13.8304142"><ele>292.0</ele><time>2026-04-06T14:56:53.991Z</time></trkpt><trkpt lat="45.8125906" lon="13.8302929"><ele>292.75</ele><time>2026-04-06T14:56:54.989Z</time></trkpt><trkpt lat="45.8124909" lon="13.8301718"><ele>293.5</ele><time>2026-04-06T14:56:56.001Z</time></trkpt><trkpt lat="45.8123989" lon="13.8300688"><ele>294.25</ele><time>2026-04-06T14:56:56.977Z</time></trkpt><trkpt lat="45.812308" lon="13.8299811"><ele>295.0</ele><time>2026-04-06T14:56:57.986Z</time></trkpt><trkpt lat="45.8122108" lon="13.8298859"><ele>295.0</ele><time>2026-04-06T14:56:58.986Z</time></trkpt><trkpt lat="45.8121144" lon="13.8297777"><ele>295.0</ele><time>2026-04-06T14:56:59.987Z</time></trkpt><trkpt lat="45.8120284" lon="13.8296816"><ele>295.0</ele><time>2026-04-06T14:57:00.99Z</time></trkpt><trkpt lat="45.8119428" lon="13.8295953"><ele>295.0</ele><time>2026-04-06T14:57:01.986Z</time></trkpt><trkpt lat="45.8118597" lon="13.8295012"><ele>295.0</ele><time>2026-04-06T14:57:02.987Z</time></trkpt><trkpt lat="45.8117792" lon="13.8293868"><ele>295.0</ele><time>2026-04-06T14:57:03.991Z</time></trkpt><trkpt lat="45.8117061" lon="13.8292487"><ele>295.0</ele><time>2026-04-06T14:57:04.983Z</time></trkpt><trkpt lat="45.8116401" lon="13.8291117"><ele>295.0</ele><time>2026-04-06T14:57:05.986Z</time></trkpt><trkpt lat="45.8115702" lon="13.8289957"><ele>295.0</ele><time>2026-04-06T14:57:06.985Z</time></trkpt><trkpt lat="45.811501" lon="13.8288866"><ele>295.0</ele><time>2026-04-06T14:57:07.987Z</time></trkpt><trkpt lat="45.8114306" lon="13.8287863"><ele>295.0</ele><time>2026-04-06T14:57:08.987Z</time></trkpt><trkpt lat="45.8113548" lon="13.8286952"><ele>295.0</ele><time>2026-04-06T14:57:09.989Z</time></trkpt><trkpt lat="45.8112657" lon="13.8286296"><ele>295.0</ele><time>2026-04-06T14:57:11.02Z</time></trkpt><trkpt lat="45.8111604" lon="13.8285966"><ele>295.0</ele><time>2026-04-06T14:57:11.98Z</time></trkpt><trkpt lat="45.811042" lon="13.8285899"><ele>295.0</ele><time>2026-04-06T14:57:12.98Z</time></trkpt><trkpt lat="45.8109235" lon="13.8285922"><ele>295.6</ele><time>2026-04-06T14:57:13.982Z</time></trkpt><trkpt lat="45.8108043" lon="13.8286154"><ele>296.2</ele><time>2026-04-06T14:57:14.989Z</time></trkpt><trkpt lat="45.810705" lon="13.8286638"><ele>296.8</ele><time>2026-04-06T14:57:15.988Z</time></trkpt><trkpt lat="45.8105996" lon="13.8287211"><ele>297.4</ele><time>2026-04-06T14:57:16.986Z</time></trkpt><trkpt lat="45.8104984" lon="13.8287332"><ele>298.0</ele><time>2026-04-06T14:57:17.993Z</time></trkpt><trkpt lat="45.8104227" lon="13.8287222"><ele>298.0</ele><time>2026-04-06T14:57:18.986Z</time></trkpt><trkpt lat="45.8103562" lon="13.8286133"><ele>298.0</ele><time>2026-04-06T14:57:20.998Z</time></trkpt><trkpt lat="45.8103233" lon="13.8284399"><ele>298.0</ele><time>2026-04-06T14:57:22.985Z</time></trkpt><trkpt lat="45.8102743" lon="13.8283094"><ele>298.0</ele><time>2026-04-06T14:57:24.983Z</time></trkpt><trkpt lat="45.8102324" lon="13.8281944"><ele>298.0</ele><time>2026-04-06T14:57:26.983Z</time></trkpt><trkpt lat="45.8102126" lon="13.8280533"><ele>297.3333333333333</ele><time>2026-04-06T14:57:28.99Z</time></trkpt><trkpt lat="45.8102717" lon="13.8279321"><ele>296.66666666666663</ele><time>2026-04-06T14:57:30.987Z</time></trkpt><trkpt lat="45.8103331" lon="13.8278801"><ele>296.0</ele><time>2026-04-06T14:57:34.983Z</time></trkpt><trkpt lat="45.8103283" lon="13.8277855"><ele>295.3333333333333</ele><time>2026-04-06T14:57:36.979Z</time></trkpt><trkpt lat="45.8102553" lon="13.8277009"><ele>294.6666666666667</ele><time>2026-04-06T14:57:38.991Z</time></trkpt><trkpt lat="45.8101826" lon="13.8276351"><ele>294.0</ele><time>2026-04-06T14:57:40.97Z</time></trkpt><trkpt lat="45.8102111" lon="13.827729"><ele>294.0</ele><time>2026-04-06T14:57:46.974Z</time></trkpt><trkpt lat="45.8102956" lon="13.8277952"><ele>294.0</ele><time>2026-04-06T14:57:48.982Z</time></trkpt><trkpt lat="45.8102983" lon="13.8279117"><ele>294.0</ele><time>2026-04-06T14:57:50.974Z</time></trkpt><trkpt lat="45.8102123" lon="13.8280354"><ele>294.0</ele><time>2026-04-06T14:57:52.975Z</time></trkpt><trkpt lat="45.8102034" lon="13.8281326"><ele>294.0</ele><time>2026-04-06T14:57:53.99Z</time></trkpt><trkpt lat="45.8102237" lon="13.8282303"><ele>294.0</ele><time>2026-04-06T14:57:54.978Z</time></trkpt><trkpt lat="45.8102596" lon="13.8283321"><ele>294.0</ele><time>2026-04-06T14:57:55.986Z</time></trkpt><trkpt lat="45.8102898" lon="13.8284239"><ele>294.0</ele><time>2026-04-06T14:57:56.973Z</time></trkpt><trkpt lat="45.8103129" lon="13.82851"><ele>294.0</ele><time>2026-04-06T14:57:57.981Z</time></trkpt><trkpt lat="45.8103725" lon="13.8286372"><ele>294.0</ele><time>2026-04-06T14:57:59.977Z</time></trkpt><trkpt lat="45.8104471" lon="13.8286607"><ele>294.0</ele><time>2026-04-06T14:58:02.982Z</time></trkpt><trkpt lat="45.810484" lon="13.8285681"><ele>294.0</ele><time>2026-04-06T14:58:04.976Z</time></trkpt><trkpt lat="45.8105435" lon="13.8284423"><ele>294.0</ele><time>2026-04-06T14:58:06.984Z</time></trkpt><trkpt lat="45.8106055" lon="13.8283378"><ele>294.0</ele><time>2026-04-06T14:58:08.989Z</time></trkpt><trkpt lat="45.8106673" lon="13.8282352"><ele>294.0</ele><time>2026-04-06T14:58:10.986Z</time></trkpt><trkpt lat="45.8107469" lon="13.8280884"><ele>294.0</ele><time>2026-04-06T14:58:12.986Z</time></trkpt><trkpt lat="45.8107752" lon="13.8279681"><ele>294.0</ele><time>2026-04-06T14:58:13.983Z</time></trkpt><trkpt lat="45.8107769" lon="13.8278177"><ele>294.0</ele><time>2026-04-06T14:58:14.975Z</time></trkpt><trkpt lat="45.8107683" lon="13.8276806"><ele>294.0</ele><time>2026-04-06T14:58:15.985Z</time></trkpt><trkpt lat="45.8107462" lon="13.8275506"><ele>294.0</ele><time>2026-04-06T14:58:16.983Z</time></trkpt><trkpt lat="45.8107118" lon="13.8274276"><ele>294.0</ele><time>2026-04-06T14:58:17.98Z</time></trkpt><trkpt lat="45.8106695" lon="13.8273359"><ele>294.0</ele><time>2026-04-06T14:58:18.987Z</time></trkpt><trkpt lat="45.8106175" lon="13.8272582"><ele>294.0</ele><time>2026-04-06T14:58:19.975Z</time></trkpt><trkpt lat="45.8105692" lon="13.8271677"><ele>293.0</ele><time>2026-04-06T14:58:21.001Z</time></trkpt><trkpt lat="45.8105265" lon="13.8270757"><ele>292.0</ele><time>2026-04-06T14:58:21.984Z</time></trkpt><trkpt lat="45.8104702" lon="13.8269493"><ele>291.0</ele><time>2026-04-06T14:58:23.989Z</time></trkpt><trkpt lat="45.8104049" lon="13.8268674"><ele>290.0</ele><time>2026-04-06T14:58:25.985Z</time></trkpt><trkpt lat="45.8103176" lon="13.8267254"><ele>289.0</ele><time>2026-04-06T14:58:27.983Z</time></trkpt><trkpt lat="45.8102521" lon="13.8266351"><ele>288.66666666666663</ele><time>2026-04-06T14:58:28.982Z</time></trkpt><trkpt lat="45.810188" lon="13.8265457"><ele>288.3333333333333</ele><time>2026-04-06T14:58:29.982Z</time></trkpt><trkpt lat="45.8101339" lon="13.8264504"><ele>288.0</ele><time>2026-04-06T14:58:30.991Z</time></trkpt><trkpt lat="45.8100832" lon="13.8263681"><ele>287.6666666666667</ele><time>2026-04-06T14:58:31.986Z</time></trkpt><trkpt lat="45.8099864" lon="13.8262827"><ele>287.33333333333337</ele><time>2026-04-06T14:58:33.981Z</time></trkpt><trkpt lat="45.8099236" lon="13.8262667"><ele>287.0</ele><time>2026-04-06T14:58:34.983Z</time></trkpt><trkpt lat="45.8098551" lon="13.8262545"><ele>286.4</ele><time>2026-04-06T14:58:35.99Z</time></trkpt><trkpt lat="45.8097671" lon="13.8262492"><ele>285.79999999999995</ele><time>2026-04-06T14:58:36.985Z</time></trkpt><trkpt lat="45.8096696" lon="13.826255"><ele>285.2</ele><time>2026-04-06T14:58:37.99Z</time></trkpt><trkpt lat="45.8095676" lon="13.8262608"><ele>284.59999999999997</ele><time>2026-04-06T14:58:38.989Z</time></trkpt><trkpt lat="45.8094675" lon="13.826259"><ele>284.0</ele><time>2026-04-06T14:58:39.984Z</time></trkpt><trkpt lat="45.8093791" lon="13.8262623"><ele>283.2</ele><time>2026-04-06T14:58:40.986Z</time></trkpt><trkpt lat="45.8092867" lon="13.8262799"><ele>282.4</ele><time>2026-04-06T14:58:41.979Z</time></trkpt><trkpt lat="45.8091887" lon="13.8263012"><ele>281.6</ele><time>2026-04-06T14:58:43Z</time></trkpt><trkpt lat="45.8090968" lon="13.8263013"><ele>280.8</ele><time>2026-04-06T14:58:43.987Z</time></trkpt><trkpt lat="45.809001" lon="13.8262757"><ele>280.0</ele><time>2026-04-06T14:58:44.986Z</time></trkpt><trkpt lat="45.8089002" lon="13.8262229"><ele>280.0</ele><time>2026-04-06T14:58:45.99Z</time></trkpt><trkpt lat="45.8087999" lon="13.8261706"><ele>280.0</ele><time>2026-04-06T14:58:46.984Z</time></trkpt><trkpt lat="45.8086909" lon="13.8261459"><ele>280.0</ele><time>2026-04-06T14:58:47.991Z</time></trkpt><trkpt lat="45.8085903" lon="13.8261443"><ele>280.0</ele><time>2026-04-06T14:58:48.995Z</time></trkpt><trkpt lat="45.8084981" lon="13.8261513"><ele>280.0</ele><time>2026-04-06T14:58:49.984Z</time></trkpt><trkpt lat="45.8084235" lon="13.8261615"><ele>279.8333333333333</ele><time>2026-04-06T14:58:50.989Z</time></trkpt><trkpt lat="45.8083531" lon="13.8261476"><ele>279.66666666666663</ele><time>2026-04-06T14:58:51.987Z</time></trkpt><trkpt lat="45.8082866" lon="13.8261094"><ele>279.5</ele><time>2026-04-06T14:58:53.002Z</time></trkpt><trkpt lat="45.8082358" lon="13.8260351"><ele>279.3333333333333</ele><time>2026-04-06T14:58:53.982Z</time></trkpt><trkpt lat="45.8081864" lon="13.825928"><ele>279.1666666666667</ele><time>2026-04-06T14:58:54.982Z</time></trkpt><trkpt lat="45.8081369" lon="13.8258054"><ele>279.0</ele><time>2026-04-06T14:58:55.984Z</time></trkpt><trkpt lat="45.8080809" lon="13.8256734"><ele>278.4</ele><time>2026-04-06T14:58:56.99Z</time></trkpt><trkpt lat="45.8080332" lon="13.8255531"><ele>277.79999999999995</ele><time>2026-04-06T14:58:57.987Z</time></trkpt><trkpt lat="45.8079671" lon="13.825432"><ele>277.20000000000005</ele><time>2026-04-06T14:58:59.992Z</time></trkpt><trkpt lat="45.8078528" lon="13.8254015"><ele>276.6</ele><time>2026-04-06T14:59:01.992Z</time></trkpt><trkpt lat="45.8077804" lon="13.8254039"><ele>276.0</ele><time>2026-04-06T14:59:02.983Z</time></trkpt><trkpt lat="45.8077011" lon="13.8253983"><ele>276.2</ele><time>2026-04-06T14:59:03.991Z</time></trkpt><trkpt lat="45.8076105" lon="13.8253576"><ele>276.40000000000003</ele><time>2026-04-06T14:59:04.99Z</time></trkpt><trkpt lat="45.807518" lon="13.8253071"><ele>276.6</ele><time>2026-04-06T14:59:05.981Z</time></trkpt><trkpt lat="45.8074177" lon="13.8252466"><ele>276.8</ele><time>2026-04-06T14:59:06.988Z</time></trkpt><trkpt lat="45.8073193" lon="13.8251718"><ele>277.0</ele><time>2026-04-06T14:59:07.98Z</time></trkpt><trkpt lat="45.807224" lon="13.8251046"><ele>277.0</ele><time>2026-04-06T14:59:09Z</time></trkpt><trkpt lat="45.8071224" lon="13.8250529"><ele>277.0</ele><time>2026-04-06T14:59:09.981Z</time></trkpt><trkpt lat="45.8070068" lon="13.825022"><ele>277.0</ele><time>2026-04-06T14:59:10.989Z</time></trkpt><trkpt lat="45.8068936" lon="13.8249927"><ele>277.0</ele><time>2026-04-06T14:59:11.991Z</time></trkpt><trkpt lat="45.8067783" lon="13.8249742"><ele>276.75</ele><time>2026-04-06T14:59:12.983Z</time></trkpt><trkpt lat="45.8066561" lon="13.8249783"><ele>276.5</ele><time>2026-04-06T14:59:13.986Z</time></trkpt><trkpt lat="45.8065346" lon="13.8249833"><ele>276.25</ele><time>2026-04-06T14:59:14.985Z</time></trkpt><trkpt lat="45.8064187" lon="13.8249861"><ele>276.0</ele><time>2026-04-06T14:59:15.992Z</time></trkpt><trkpt lat="45.8063172" lon="13.8249889"><ele>276.0</ele><time>2026-04-06T14:59:16.996Z</time></trkpt><trkpt lat="45.8062258" lon="13.8249967"><ele>276.0</ele><time>2026-04-06T14:59:17.994Z</time></trkpt><trkpt lat="45.8061366" lon="13.8249718"><ele>276.0</ele><time>2026-04-06T14:59:18.993Z</time></trkpt><trkpt lat="45.8060413" lon="13.8249176"><ele>276.0</ele><time>2026-04-06T14:59:19.976Z</time></trkpt><trkpt lat="45.8059408" lon="13.8248587"><ele>276.0</ele><time>2026-04-06T14:59:20.992Z</time></trkpt><trkpt lat="45.8058364" lon="13.8248084"><ele>276.25</ele><time>2026-04-06T14:59:21.986Z</time></trkpt><trkpt lat="45.805728" lon="13.8247663"><ele>276.5</ele><time>2026-04-06T14:59:22.991Z</time></trkpt><trkpt lat="45.8056134" lon="13.8247204"><ele>276.75</ele><time>2026-04-06T14:59:23.977Z</time></trkpt><trkpt lat="45.8054979" lon="13.8246737"><ele>277.0</ele><time>2026-04-06T14:59:24.986Z</time></trkpt><trkpt lat="45.8053958" lon="13.8246313"><ele>277.0</ele><time>2026-04-06T14:59:25.982Z</time></trkpt><trkpt lat="45.8053041" lon="13.82459"><ele>277.0</ele><time>2026-04-06T14:59:26.983Z</time></trkpt><trkpt lat="45.8052102" lon="13.8245356"><ele>277.0</ele><time>2026-04-06T14:59:27.984Z</time></trkpt><trkpt lat="45.8051081" lon="13.8244675"><ele>277.0</ele><time>2026-04-06T14:59:28.998Z</time></trkpt><trkpt lat="45.8050064" lon="13.8243907"><ele>277.0</ele><time>2026-04-06T14:59:29.988Z</time></trkpt><trkpt lat="45.804902" lon="13.8243183"><ele>277.8</ele><time>2026-04-06T14:59:30.985Z</time></trkpt><trkpt lat="45.8047983" lon="13.8242524"><ele>278.6</ele><time>2026-04-06T14:59:31.987Z</time></trkpt><trkpt lat="45.8046963" lon="13.8241834"><ele>279.40000000000003</ele><time>2026-04-06T14:59:32.982Z</time></trkpt><trkpt lat="45.804598" lon="13.8241113"><ele>280.2</ele><time>2026-04-06T14:59:34.008Z</time></trkpt><trkpt lat="45.8045108" lon="13.8240442"><ele>281.0</ele><time>2026-04-06T14:59:34.984Z</time></trkpt><trkpt lat="45.8044271" lon="13.8239951"><ele>281.0</ele><time>2026-04-06T14:59:35.991Z</time></trkpt><trkpt lat="45.8043533" lon="13.8239685"><ele>281.0</ele><time>2026-04-06T14:59:36.996Z</time></trkpt><trkpt lat="45.8042817" lon="13.8239227"><ele>281.0</ele><time>2026-04-06T14:59:37.986Z</time></trkpt><trkpt lat="45.8042114" lon="13.8238391"><ele>281.0</ele><time>2026-04-06T14:59:39.007Z</time></trkpt><trkpt lat="45.8041418" lon="13.8237526"><ele>281.0</ele><time>2026-04-06T14:59:39.98Z</time></trkpt><trkpt lat="45.8040682" lon="13.8236769"><ele>281.0</ele><time>2026-04-06T14:59:40.993Z</time></trkpt><trkpt lat="45.8039798" lon="13.8236391"><ele>280.0</ele><time>2026-04-06T14:59:42.005Z</time></trkpt><trkpt lat="45.8038795" lon="13.823622"><ele>279.0</ele><time>2026-04-06T14:59:42.981Z</time></trkpt><trkpt lat="45.8037691" lon="13.8236082"><ele>278.0</ele><time>2026-04-06T14:59:44.021Z</time></trkpt><trkpt lat="45.8036491" lon="13.8236065"><ele>277.0</ele><time>2026-04-06T14:59:44.988Z</time></trkpt><trkpt lat="45.8035293" lon="13.8236065"><ele>276.5</ele><time>2026-04-06T14:59:45.991Z</time></trkpt><trkpt lat="45.8034076" lon="13.8236028"><ele>276.0</ele><time>2026-04-06T14:59:46.988Z</time></trkpt><trkpt lat="45.8032855" lon="13.8235898"><ele>275.5</ele><time>2026-04-06T14:59:47.989Z</time></trkpt><trkpt lat="45.8031628" lon="13.8235631"><ele>275.0</ele><time>2026-04-06T14:59:48.977Z</time></trkpt><trkpt lat="45.8030364" lon="13.8235335"><ele>275.0</ele><time>2026-04-06T14:59:49.986Z</time></trkpt><trkpt lat="45.802919" lon="13.8234951"><ele>275.0</ele><time>2026-04-06T14:59:50.979Z</time></trkpt><trkpt lat="45.8028109" lon="13.8234472"><ele>275.0</ele><time>2026-04-06T14:59:51.984Z</time></trkpt><trkpt lat="45.8027041" lon="13.8233962"><ele>275.0</ele><time>2026-04-06T14:59:52.986Z</time></trkpt><trkpt lat="45.8025901" lon="13.8233573"><ele>275.0</ele><time>2026-04-06T14:59:53.988Z</time></trkpt><trkpt lat="45.8024658" lon="13.8233321"><ele>275.0</ele><time>2026-04-06T14:59:54.99Z</time></trkpt><trkpt lat="45.8023426" lon="13.8232992"><ele>275.0</ele><time>2026-04-06T14:59:56.016Z</time></trkpt><trkpt lat="45.8022271" lon="13.8232588"><ele>275.0</ele><time>2026-04-06T14:59:56.987Z</time></trkpt><trkpt lat="45.802117" lon="13.8232175"><ele>275.0</ele><time>2026-04-06T14:59:57.991Z</time></trkpt><trkpt lat="45.8020085" lon="13.8231676"><ele>275.0</ele><time>2026-04-06T14:59:59Z</time></trkpt><trkpt lat="45.8018998" lon="13.8231109"><ele>275.0</ele><time>2026-04-06T14:59:59.986Z</time></trkpt><trkpt lat="45.8017892" lon="13.8230483"><ele>275.0</ele><time>2026-04-06T15:00:00.991Z</time></trkpt><trkpt lat="45.8016832" lon="13.822987"><ele>274.2</ele><time>2026-04-06T15:00:01.992Z</time></trkpt><trkpt lat="45.8015826" lon="13.8229415"><ele>273.4</ele><time>2026-04-06T15:00:03.013Z</time></trkpt><trkpt lat="45.8014746" lon="13.8228994"><ele>272.6</ele><time>2026-04-06T15:00:03.99Z</time></trkpt><trkpt lat="45.8013632" lon="13.822868"><ele>271.8</ele><time>2026-04-06T15:00:04.998Z</time></trkpt><trkpt lat="45.801256" lon="13.8228455"><ele>271.0</ele><time>2026-04-06T15:00:05.986Z</time></trkpt><trkpt lat="45.8011567" lon="13.8228351"><ele>271.0</ele><time>2026-04-06T15:00:07.001Z</time></trkpt><trkpt lat="45.8010574" lon="13.8228426"><ele>271.0</ele><time>2026-04-06T15:00:07.993Z</time></trkpt><trkpt lat="45.8009482" lon="13.8228665"><ele>271.0</ele><time>2026-04-06T15:00:08.983Z</time></trkpt><trkpt lat="45.8008349" lon="13.8229028"><ele>271.0</ele><time>2026-04-06T15:00:10.012Z</time></trkpt><trkpt lat="45.8007186" lon="13.8229387"><ele>271.0</ele><time>2026-04-06T15:00:10.987Z</time></trkpt><trkpt lat="45.8006072" lon="13.8229809"><ele>271.0</ele><time>2026-04-06T15:00:11.987Z</time></trkpt><trkpt lat="45.8005075" lon="13.8230234"><ele>271.0</ele><time>2026-04-06T15:00:12.986Z</time></trkpt><trkpt lat="45.8004115" lon="13.8230668"><ele>271.0</ele><time>2026-04-06T15:00:13.994Z</time></trkpt><trkpt lat="45.8003109" lon="13.8230988"><ele>271.0</ele><time>2026-04-06T15:00:14.991Z</time></trkpt><trkpt lat="45.8002052" lon="13.8231145"><ele>271.0</ele><time>2026-04-06T15:00:15.993Z</time></trkpt><trkpt lat="45.8000982" lon="13.8231119"><ele>270.40000000000003</ele><time>2026-04-06T15:00:16.989Z</time></trkpt><trkpt lat="45.7999908" lon="13.8230884"><ele>269.8</ele><time>2026-04-06T15:00:17.978Z</time></trkpt><trkpt lat="45.7998829" lon="13.8230546"><ele>269.20000000000005</ele><time>2026-04-06T15:00:18.987Z</time></trkpt><trkpt lat="45.799777" lon="13.8230174"><ele>268.6</ele><time>2026-04-06T15:00:19.979Z</time></trkpt><trkpt lat="45.7996773" lon="13.8229679"><ele>268.0</ele><time>2026-04-06T15:00:20.99Z</time></trkpt><trkpt lat="45.7995806" lon="13.8229172"><ele>268.0</ele><time>2026-04-06T15:00:21.979Z</time></trkpt><trkpt lat="45.7994816" lon="13.8228879"><ele>268.0</ele><time>2026-04-06T15:00:22.998Z</time></trkpt><trkpt lat="45.7993854" lon="13.8228863"><ele>268.0</ele><time>2026-04-06T15:00:23.993Z</time></trkpt><trkpt lat="45.7992837" lon="13.8229078"><ele>268.0</ele><time>2026-04-06T15:00:24.978Z</time></trkpt><trkpt lat="45.7991817" lon="13.8229351"><ele>268.0</ele><time>2026-04-06T15:00:25.996Z</time></trkpt><trkpt lat="45.7990862" lon="13.8229693"><ele>267.6</ele><time>2026-04-06T15:00:26.989Z</time></trkpt><trkpt lat="45.7989975" lon="13.8230036"><ele>267.20000000000005</ele><time>2026-04-06T15:00:27.987Z</time></trkpt><trkpt lat="45.7989102" lon="13.8230338"><ele>266.8</ele><time>2026-04-06T15:00:28.995Z</time></trkpt><trkpt lat="45.7988211" lon="13.8230684"><ele>266.40000000000003</ele><time>2026-04-06T15:00:29.993Z</time></trkpt><trkpt lat="45.7987269" lon="13.8231182"><ele>266.0</ele><time>2026-04-06T15:00:30.987Z</time></trkpt><trkpt lat="45.798643" lon="13.8231651"><ele>266.0</ele><time>2026-04-06T15:00:32.013Z</time></trkpt><trkpt lat="45.7985578" lon="13.8231867"><ele>266.0</ele><time>2026-04-06T15:00:32.994Z</time></trkpt><trkpt lat="45.7984739" lon="13.8231668"><ele>266.0</ele><time>2026-04-06T15:00:33.985Z</time></trkpt><trkpt lat="45.7983899" lon="13.8231363"><ele>266.0</ele><time>2026-04-06T15:00:35.987Z</time></trkpt><trkpt lat="45.7983183" lon="13.8231833"><ele>266.0</ele><time>2026-04-06T15:00:38.973Z</time></trkpt><trkpt lat="45.7982576" lon="13.8233351"><ele>266.1666666666667</ele><time>2026-04-06T15:00:40.98Z</time></trkpt><trkpt lat="45.7982039" lon="13.8233994"><ele>266.33333333333337</ele><time>2026-04-06T15:00:41.994Z</time></trkpt><trkpt lat="45.7981345" lon="13.8234488"><ele>266.5</ele><time>2026-04-06T15:00:42.982Z</time></trkpt><trkpt lat="45.7980677" lon="13.8234796"><ele>266.6666666666667</ele><time>2026-04-06T15:00:43.995Z</time></trkpt><trkpt lat="45.7979483" lon="13.8234911"><ele>266.8333333333333</ele><time>2026-04-06T15:00:45.991Z</time></trkpt><trkpt lat="45.7978787" lon="13.8234926"><ele>267.0</ele><time>2026-04-06T15:00:46.988Z</time></trkpt><trkpt lat="45.7977989" lon="13.8234858"><ele>267.0</ele><time>2026-04-06T15:00:47.996Z</time></trkpt><trkpt lat="45.7977218" lon="13.8234646"><ele>267.0</ele><time>2026-04-06T15:00:48.992Z</time></trkpt><trkpt lat="45.7976298" lon="13.8234088"><ele>267.0</ele><time>2026-04-06T15:00:49.98Z</time></trkpt><trkpt lat="45.7975311" lon="13.8233434"><ele>267.0</ele><time>2026-04-06T15:00:50.983Z</time></trkpt><trkpt lat="45.797429" lon="13.8232896"><ele>267.0</ele><time>2026-04-06T15:00:51.981Z</time></trkpt><trkpt lat="45.7973336" lon="13.8232344"><ele>266.6</ele><time>2026-04-06T15:00:52.986Z</time></trkpt><trkpt lat="45.7972332" lon="13.8231746"><ele>266.2</ele><time>2026-04-06T15:00:53.98Z</time></trkpt><trkpt lat="45.7971249" lon="13.8231226"><ele>265.8</ele><time>2026-04-06T15:00:54.986Z</time></trkpt><trkpt lat="45.7970226" lon="13.8230887"><ele>265.4</ele><time>2026-04-06T15:00:55.984Z</time></trkpt><trkpt lat="45.7969279" lon="13.8230674"><ele>265.0</ele><time>2026-04-06T15:00:56.985Z</time></trkpt><trkpt lat="45.7968374" lon="13.8230588"><ele>265.2</ele><time>2026-04-06T15:00:57.989Z</time></trkpt><trkpt lat="45.7967456" lon="13.8230715"><ele>265.4</ele><time>2026-04-06T15:00:58.988Z</time></trkpt><trkpt lat="45.7966473" lon="13.8230994"><ele>265.6</ele><time>2026-04-06T15:01:00.006Z</time></trkpt><trkpt lat="45.7965541" lon="13.8231304"><ele>265.8</ele><time>2026-04-06T15:01:00.988Z</time></trkpt><trkpt lat="45.7964647" lon="13.8231631"><ele>266.0</ele><time>2026-04-06T15:01:01.985Z</time></trkpt><trkpt lat="45.7963889" lon="13.8231927"><ele>266.0</ele><time>2026-04-06T15:01:02.996Z</time></trkpt><trkpt lat="45.7963138" lon="13.8232016"><ele>266.0</ele><time>2026-04-06T15:01:03.987Z</time></trkpt><trkpt lat="45.7962347" lon="13.8231903"><ele>266.0</ele><time>2026-04-06T15:01:05.003Z</time></trkpt><trkpt lat="45.7961527" lon="13.8231636"><ele>266.0</ele><time>2026-04-06T15:01:05.992Z</time></trkpt><trkpt lat="45.7960796" lon="13.8231471"><ele>266.0</ele><time>2026-04-06T15:01:06.989Z</time></trkpt><trkpt lat="45.7960101" lon="13.823149"><ele>266.0</ele><time>2026-04-06T15:01:07.983Z</time></trkpt><trkpt lat="45.7959433" lon="13.8231781"><ele>266.5</ele><time>2026-04-06T15:01:08.988Z</time></trkpt><trkpt lat="45.7958568" lon="13.8232232"><ele>267.0</ele><time>2026-04-06T15:01:09.985Z</time></trkpt><trkpt lat="45.7957673" lon="13.8232676"><ele>267.5</ele><time>2026-04-06T15:01:10.983Z</time></trkpt><trkpt lat="45.7956827" lon="13.8233011"><ele>268.0</ele><time>2026-04-06T15:01:11.992Z</time></trkpt><trkpt lat="45.7956054" lon="13.823334"><ele>268.5</ele><time>2026-04-06T15:01:13.002Z</time></trkpt><trkpt lat="45.7955247" lon="13.8233734"><ele>269.0</ele><time>2026-04-06T15:01:13.995Z</time></trkpt><trkpt lat="45.7954251" lon="13.8233842"><ele>269.0</ele><time>2026-04-06T15:01:15.017Z</time></trkpt><trkpt lat="45.7953262" lon="13.8234091"><ele>269.0</ele><time>2026-04-06T15:01:15.985Z</time></trkpt><trkpt lat="45.7952281" lon="13.8234439"><ele>269.0</ele><time>2026-04-06T15:01:16.991Z</time></trkpt><trkpt lat="45.7951252" lon="13.8234721"><ele>269.0</ele><time>2026-04-06T15:01:17.985Z</time></trkpt><trkpt lat="45.7950292" lon="13.8234852"><ele>269.0</ele><time>2026-04-06T15:01:18.984Z</time></trkpt><trkpt lat="45.7949381" lon="13.8234963"><ele>268.83333333333337</ele><time>2026-04-06T15:01:19.978Z</time></trkpt><trkpt lat="45.7948526" lon="13.8235112"><ele>268.6666666666667</ele><time>2026-04-06T15:01:20.986Z</time></trkpt><trkpt lat="45.7947704" lon="13.8235283"><ele>268.5</ele><time>2026-04-06T15:01:21.997Z</time></trkpt><trkpt lat="45.794693" lon="13.8235428"><ele>268.3333333333333</ele><time>2026-04-06T15:01:22.986Z</time></trkpt><trkpt lat="45.7946186" lon="13.8235565"><ele>268.16666666666663</ele><time>2026-04-06T15:01:23.991Z</time></trkpt><trkpt lat="45.7945481" lon="13.8235697"><ele>268.0</ele><time>2026-04-06T15:01:24.992Z</time></trkpt><trkpt lat="45.7944697" lon="13.8235913"><ele>268.0</ele><time>2026-04-06T15:01:25.985Z</time></trkpt><trkpt lat="45.7943975" lon="13.8236206"><ele>268.0</ele><time>2026-04-06T15:01:26.983Z</time></trkpt><trkpt lat="45.7943251" lon="13.8236587"><ele>268.0</ele><time>2026-04-06T15:01:27.984Z</time></trkpt><trkpt lat="45.7942525" lon="13.8236887"><ele>268.0</ele><time>2026-04-06T15:01:28.988Z</time></trkpt><trkpt lat="45.794188" lon="13.8237089"><ele>268.0</ele><time>2026-04-06T15:01:29.983Z</time></trkpt><trkpt lat="45.7941253" lon="13.8237319"><ele>268.0</ele><time>2026-04-06T15:01:31.987Z</time></trkpt><trkpt lat="45.7940511" lon="13.8238141"><ele>268.5</ele><time>2026-04-06T15:01:33.992Z</time></trkpt><trkpt lat="45.7939905" lon="13.8238781"><ele>269.0</ele><time>2026-04-06T15:01:34.978Z</time></trkpt><trkpt lat="45.7939347" lon="13.8239425"><ele>269.5</ele><time>2026-04-06T15:01:35.997Z</time></trkpt><trkpt lat="45.7938864" lon="13.8240105"><ele>270.0</ele><time>2026-04-06T15:01:36.999Z</time></trkpt><trkpt lat="45.7938364" lon="13.8241103"><ele>270.5</ele><time>2026-04-06T15:01:38.001Z</time></trkpt><trkpt lat="45.7937899" lon="13.8242214"><ele>271.0</ele><time>2026-04-06T15:01:38.989Z</time></trkpt><trkpt lat="45.7937549" lon="13.8243211"><ele>271.16666666666663</ele><time>2026-04-06T15:01:39.981Z</time></trkpt><trkpt lat="45.7937369" lon="13.8244321"><ele>271.3333333333333</ele><time>2026-04-06T15:01:40.993Z</time></trkpt><trkpt lat="45.7937412" lon="13.8245527"><ele>271.5</ele><time>2026-04-06T15:01:41.984Z</time></trkpt><trkpt lat="45.7937468" lon="13.824671"><ele>271.6666666666667</ele><time>2026-04-06T15:01:43.002Z</time></trkpt><trkpt lat="45.7937447" lon="13.8247664"><ele>271.83333333333337</ele><time>2026-04-06T15:01:43.989Z</time></trkpt><trkpt lat="45.7936735" lon="13.8248449"><ele>272.0</ele><time>2026-04-06T15:01:45.982Z</time></trkpt><trkpt lat="45.7935805" lon="13.8249716"><ele>272.0</ele><time>2026-04-06T15:01:48.017Z</time></trkpt><trkpt lat="45.7935328" lon="13.8250366"><ele>272.0</ele><time>2026-04-06T15:01:48.983Z</time></trkpt><trkpt lat="45.7934823" lon="13.8251567"><ele>272.0</ele><time>2026-04-06T15:01:50.98Z</time></trkpt><trkpt lat="45.7934848" lon="13.8252581"><ele>272.0</ele><time>2026-04-06T15:01:56.995Z</time></trkpt><trkpt lat="45.7935537" lon="13.825303"><ele>272.0</ele><time>2026-04-06T15:01:58.989Z</time></trkpt><trkpt lat="45.7936268" lon="13.8253225"><ele>272.0</ele><time>2026-04-06T15:01:59.98Z</time></trkpt><trkpt lat="45.7937176" lon="13.8254199"><ele>272.33333333333337</ele><time>2026-04-06T15:02:02.008Z</time></trkpt><trkpt lat="45.7937611" lon="13.8254946"><ele>272.6666666666667</ele><time>2026-04-06T15:02:02.992Z</time></trkpt><trkpt lat="45.7938081" lon="13.8255771"><ele>273.0</ele><time>2026-04-06T15:02:03.984Z</time></trkpt><trkpt lat="45.793876" lon="13.82566"><ele>273.3333333333333</ele><time>2026-04-06T15:02:04.991Z</time></trkpt><trkpt lat="45.7939545" lon="13.8257433"><ele>273.66666666666663</ele><time>2026-04-06T15:02:05.988Z</time></trkpt><trkpt lat="45.7940373" lon="13.825831"><ele>274.0</ele><time>2026-04-06T15:02:06.989Z</time></trkpt><trkpt lat="45.7941194" lon="13.8259104"><ele>274.4</ele><time>2026-04-06T15:02:07.981Z</time></trkpt><trkpt lat="45.7942043" lon="13.8259861"><ele>274.79999999999995</ele><time>2026-04-06T15:02:08.985Z</time></trkpt><trkpt lat="45.7942874" lon="13.8260656"><ele>275.20000000000005</ele><time>2026-04-06T15:02:09.99Z</time></trkpt><trkpt lat="45.7943653" lon="13.8261493"><ele>275.6</ele><time>2026-04-06T15:02:10.988Z</time></trkpt><trkpt lat="45.7944295" lon="13.8262393"><ele>276.0</ele><time>2026-04-06T15:02:11.992Z</time></trkpt><trkpt lat="45.7944941" lon="13.8263376"><ele>276.3333333333333</ele><time>2026-04-06T15:02:12.977Z</time></trkpt><trkpt lat="45.7945566" lon="13.8264358"><ele>276.6666666666667</ele><time>2026-04-06T15:02:13.989Z</time></trkpt><trkpt lat="45.7946156" lon="13.8265167"><ele>277.0</ele><time>2026-04-06T15:02:14.987Z</time></trkpt><trkpt lat="45.7946724" lon="13.8265648"><ele>277.33333333333337</ele><time>2026-04-06T15:02:15.984Z</time></trkpt><trkpt lat="45.7947759" lon="13.8265594"><ele>277.6666666666667</ele><time>2026-04-06T15:02:17.981Z</time></trkpt><trkpt lat="45.7948755" lon="13.8265249"><ele>278.0</ele><time>2026-04-06T15:02:19.978Z</time></trkpt><trkpt lat="45.7949952" lon="13.826583"><ele>278.0</ele><time>2026-04-06T15:02:21.978Z</time></trkpt><trkpt lat="45.7950652" lon="13.8265989"><ele>278.0</ele><time>2026-04-06T15:02:22.981Z</time></trkpt><trkpt lat="45.7951825" lon="13.8266411"><ele>278.0</ele><time>2026-04-06T15:02:24.984Z</time></trkpt><trkpt lat="45.7952846" lon="13.826694"><ele>278.0</ele><time>2026-04-06T15:02:26.988Z</time></trkpt><trkpt lat="45.7954068" lon="13.8267533"><ele>278.0</ele><time>2026-04-06T15:02:28.984Z</time></trkpt><trkpt lat="45.7954775" lon="13.8267814"><ele>278.0</ele><time>2026-04-06T15:02:29.984Z</time></trkpt><trkpt lat="45.7955592" lon="13.8268136"><ele>278.0</ele><time>2026-04-06T15:02:30.985Z</time></trkpt><trkpt lat="45.7956539" lon="13.8268503"><ele>278.0</ele><time>2026-04-06T15:02:32.003Z</time></trkpt><trkpt lat="45.7957554" lon="13.8268923"><ele>278.0</ele><time>2026-04-06T15:02:32.987Z</time></trkpt><trkpt lat="45.7958575" lon="13.8269503"><ele>278.0</ele><time>2026-04-06T15:02:33.976Z</time></trkpt><trkpt lat="45.7959545" lon="13.8270207"><ele>278.2</ele><time>2026-04-06T15:02:34.979Z</time></trkpt><trkpt lat="45.7960437" lon="13.8270741"><ele>278.4</ele><time>2026-04-06T15:02:35.979Z</time></trkpt><trkpt lat="45.7961357" lon="13.8271064"><ele>278.59999999999997</ele><time>2026-04-06T15:02:36.986Z</time></trkpt><trkpt lat="45.7962286" lon="13.8271276"><ele>278.8</ele><time>2026-04-06T15:02:37.987Z</time></trkpt><trkpt lat="45.79632" lon="13.8271323"><ele>279.0</ele><time>2026-04-06T15:02:38.985Z</time></trkpt><trkpt lat="45.7964137" lon="13.8271113"><ele>279.0</ele><time>2026-04-06T15:02:39.984Z</time></trkpt><trkpt lat="45.7965027" lon="13.8270621"><ele>279.0</ele><time>2026-04-06T15:02:40.978Z</time></trkpt><trkpt lat="45.7965919" lon="13.8270081"><ele>279.0</ele><time>2026-04-06T15:02:41.991Z</time></trkpt><trkpt lat="45.7966838" lon="13.8269667"><ele>279.0</ele><time>2026-04-06T15:02:42.978Z</time></trkpt><trkpt lat="45.7967718" lon="13.8269354"><ele>279.0</ele><time>2026-04-06T15:02:43.987Z</time></trkpt><trkpt lat="45.7968522" lon="13.8269072"><ele>278.8333333333333</ele><time>2026-04-06T15:02:44.98Z</time></trkpt><trkpt lat="45.7969203" lon="13.8268831"><ele>278.6666666666667</ele><time>2026-04-06T15:02:45.987Z</time></trkpt><trkpt lat="45.7970321" lon="13.8268413"><ele>278.5</ele><time>2026-04-06T15:02:47.985Z</time></trkpt><trkpt lat="45.7970859" lon="13.8268966"><ele>278.33333333333337</ele><time>2026-04-06T15:02:50.979Z</time></trkpt><trkpt lat="45.797117" lon="13.8270485"><ele>278.1666666666667</ele><time>2026-04-06T15:02:52.972Z</time></trkpt><trkpt lat="45.7971459" lon="13.8271436"><ele>278.0</ele><time>2026-04-06T15:02:53.986Z</time></trkpt><trkpt lat="45.7972244" lon="13.8272508"><ele>278.0</ele><time>2026-04-06T15:02:55.987Z</time></trkpt><trkpt lat="45.7972848" lon="13.8272798"><ele>278.0</ele><time>2026-04-06T15:02:56.98Z</time></trkpt><trkpt lat="45.7973478" lon="13.8273172"><ele>278.0</ele><time>2026-04-06T15:02:57.984Z</time></trkpt><trkpt lat="45.7974223" lon="13.8273656"><ele>278.0</ele><time>2026-04-06T15:02:58.987Z</time></trkpt><trkpt lat="45.7974933" lon="13.8273921"><ele>278.0</ele><time>2026-04-06T15:02:59.977Z</time></trkpt><trkpt lat="45.7975588" lon="13.8273751"><ele>278.0</ele><time>2026-04-06T15:03:00.982Z</time></trkpt><trkpt lat="45.7976356" lon="13.8273377"><ele>278.0</ele><time>2026-04-06T15:03:01.986Z</time></trkpt><trkpt lat="45.7977163" lon="13.8273073"><ele>277.83333333333337</ele><time>2026-04-06T15:03:02.995Z</time></trkpt><trkpt lat="45.7978013" lon="13.8272806"><ele>277.6666666666667</ele><time>2026-04-06T15:03:03.997Z</time></trkpt><trkpt lat="45.7978909" lon="13.8272757"><ele>277.5</ele><time>2026-04-06T15:03:04.99Z</time></trkpt><trkpt lat="45.7979862" lon="13.8272946"><ele>277.3333333333333</ele><time>2026-04-06T15:03:05.99Z</time></trkpt><trkpt lat="45.7980786" lon="13.8273113"><ele>277.16666666666663</ele><time>2026-04-06T15:03:06.988Z</time></trkpt><trkpt lat="45.7981601" lon="13.8273252"><ele>277.0</ele><time>2026-04-06T15:03:07.993Z</time></trkpt><trkpt lat="45.7982481" lon="13.8273648"><ele>277.0</ele><time>2026-04-06T15:03:08.996Z</time></trkpt><trkpt lat="45.7983339" lon="13.8274367"><ele>277.0</ele><time>2026-04-06T15:03:09.988Z</time></trkpt><trkpt lat="45.7984187" lon="13.8275004"><ele>277.0</ele><time>2026-04-06T15:03:11.001Z</time></trkpt><trkpt lat="45.7985155" lon="13.8275513"><ele>277.0</ele><time>2026-04-06T15:03:11.991Z</time></trkpt><trkpt lat="45.7986059" lon="13.8276044"><ele>277.0</ele><time>2026-04-06T15:03:12.985Z</time></trkpt><trkpt lat="45.7986896" lon="13.8276724"><ele>277.5</ele><time>2026-04-06T15:03:13.979Z</time></trkpt><trkpt lat="45.7987592" lon="13.8277413"><ele>278.0</ele><time>2026-04-06T15:03:14.987Z</time></trkpt><trkpt lat="45.7988161" lon="13.827824"><ele>278.5</ele><time>2026-04-06T15:03:16.009Z</time></trkpt><trkpt lat="45.7988534" lon="13.8279196"><ele>279.0</ele><time>2026-04-06T15:03:16.992Z</time></trkpt><trkpt lat="45.7988823" lon="13.8280209"><ele>279.5</ele><time>2026-04-06T15:03:17.984Z</time></trkpt><trkpt lat="45.7989022" lon="13.8281174"><ele>280.0</ele><time>2026-04-06T15:03:18.987Z</time></trkpt><trkpt lat="45.7989457" lon="13.8282424"><ele>280.0</ele><time>2026-04-06T15:03:20.985Z</time></trkpt><trkpt lat="45.7990715" lon="13.8283246"><ele>280.0</ele><time>2026-04-06T15:03:22.975Z</time></trkpt><trkpt lat="45.7991542" lon="13.8283398"><ele>280.0</ele><time>2026-04-06T15:03:23.976Z</time></trkpt><trkpt lat="45.79923" lon="13.8283741"><ele>280.0</ele><time>2026-04-06T15:03:24.992Z</time></trkpt><trkpt lat="45.7992952" lon="13.8284411"><ele>280.0</ele><time>2026-04-06T15:03:25.985Z</time></trkpt><trkpt lat="45.7993702" lon="13.8285341"><ele>280.6</ele><time>2026-04-06T15:03:26.986Z</time></trkpt><trkpt lat="45.7994602" lon="13.8286445"><ele>281.2</ele><time>2026-04-06T15:03:27.983Z</time></trkpt><trkpt lat="45.7995491" lon="13.8287402"><ele>281.8</ele><time>2026-04-06T15:03:28.991Z</time></trkpt><trkpt lat="45.7996375" lon="13.8288168"><ele>282.4</ele><time>2026-04-06T15:03:29.981Z</time></trkpt><trkpt lat="45.7997177" lon="13.8288715"><ele>283.0</ele><time>2026-04-06T15:03:31.004Z</time></trkpt><trkpt lat="45.7997957" lon="13.8289261"><ele>283.0</ele><time>2026-04-06T15:03:31.981Z</time></trkpt><trkpt lat="45.7998722" lon="13.8289727"><ele>283.0</ele><time>2026-04-06T15:03:32.983Z</time></trkpt><trkpt lat="45.7999551" lon="13.8289892"><ele>283.0</ele><time>2026-04-06T15:03:33.984Z</time></trkpt><trkpt lat="45.8000479" lon="13.8289742"><ele>283.0</ele><time>2026-04-06T15:03:34.975Z</time></trkpt><trkpt lat="45.8001335" lon="13.8289557"><ele>283.0</ele><time>2026-04-06T15:03:35.986Z</time></trkpt><trkpt lat="45.8002157" lon="13.828953"><ele>283.0</ele><time>2026-04-06T15:03:36.993Z</time></trkpt><trkpt lat="45.8002909" lon="13.828979"><ele>282.0</ele><time>2026-04-06T15:03:37.994Z</time></trkpt><trkpt lat="45.8003684" lon="13.829043"><ele>281.0</ele><time>2026-04-06T15:03:39.005Z</time></trkpt><trkpt lat="45.8004492" lon="13.8291272"><ele>280.0</ele><time>2026-04-06T15:03:39.98Z</time></trkpt><trkpt lat="45.8005363" lon="13.8292171"><ele>279.0</ele><time>2026-04-06T15:03:40.979Z</time></trkpt><trkpt lat="45.800612" lon="13.829312"><ele>278.0</ele><time>2026-04-06T15:03:41.983Z</time></trkpt><trkpt lat="45.8006813" lon="13.8294162"><ele>277.6666666666667</ele><time>2026-04-06T15:03:42.987Z</time></trkpt><trkpt lat="45.8007452" lon="13.8295082"><ele>277.33333333333337</ele><time>2026-04-06T15:03:43.985Z</time></trkpt><trkpt lat="45.8008063" lon="13.8296026"><ele>277.0</ele><time>2026-04-06T15:03:44.977Z</time></trkpt><trkpt lat="45.8008587" lon="13.8296924"><ele>276.6666666666667</ele><time>2026-04-06T15:03:45.977Z</time></trkpt><trkpt lat="45.800894" lon="13.8297762"><ele>276.3333333333333</ele><time>2026-04-06T15:03:48.986Z</time></trkpt><trkpt lat="45.800808" lon="13.8298187"><ele>276.0</ele><time>2026-04-06T15:03:52.997Z</time></trkpt><trkpt lat="45.8007717" lon="13.8297406"><ele>276.0</ele><time>2026-04-06T15:04:21.987Z</time></trkpt><trkpt lat="45.8008439" lon="13.829674"><ele>276.0</ele><time>2026-04-06T15:04:33.974Z</time></trkpt><trkpt lat="45.8009379" lon="13.8295728"><ele>276.0</ele><time>2026-04-06T15:04:35.98Z</time></trkpt><trkpt lat="45.800989" lon="13.8295151"><ele>276.0</ele><time>2026-04-06T15:04:36.99Z</time></trkpt><trkpt lat="45.8010291" lon="13.8294398"><ele>276.0</ele><time>2026-04-06T15:04:37.982Z</time></trkpt><trkpt lat="45.8010625" lon="13.8293475"><ele>276.0</ele><time>2026-04-06T15:04:38.982Z</time></trkpt><trkpt lat="45.8010917" lon="13.8292511"><ele>276.0</ele><time>2026-04-06T15:04:39.982Z</time></trkpt><trkpt lat="45.8011241" lon="13.8291517"><ele>276.0</ele><time>2026-04-06T15:04:40.986Z</time></trkpt><trkpt lat="45.8011628" lon="13.8290515"><ele>276.0</ele><time>2026-04-06T15:04:41.987Z</time></trkpt><trkpt lat="45.8011984" lon="13.8289521"><ele>276.0</ele><time>2026-04-06T15:04:42.999Z</time></trkpt><trkpt lat="45.8012289" lon="13.8288448"><ele>276.0</ele><time>2026-04-06T15:04:43.98Z</time></trkpt><trkpt lat="45.8012767" lon="13.8287516"><ele>276.0</ele><time>2026-04-06T15:04:44.983Z</time></trkpt><trkpt lat="45.8013348" lon="13.8286783"><ele>276.0</ele><time>2026-04-06T15:04:45.984Z</time></trkpt><trkpt lat="45.8014045" lon="13.8286244"><ele>276.0</ele><time>2026-04-06T15:04:46.984Z</time></trkpt><trkpt lat="45.8014705" lon="13.8285527"><ele>276.0</ele><time>2026-04-06T15:04:47.97Z</time></trkpt><trkpt lat="45.8015133" lon="13.8284601"><ele>276.0</ele><time>2026-04-06T15:04:48.983Z</time></trkpt><trkpt lat="45.801543" lon="13.8283478"><ele>276.0</ele><time>2026-04-06T15:04:49.986Z</time></trkpt><trkpt lat="45.8015415" lon="13.8282297"><ele>276.0</ele><time>2026-04-06T15:04:50.978Z</time></trkpt><trkpt lat="45.801536" lon="13.8281143"><ele>275.8</ele><time>2026-04-06T15:04:51.987Z</time></trkpt><trkpt lat="45.8015257" lon="13.8279953"><ele>275.6</ele><time>2026-04-06T15:04:52.983Z</time></trkpt><trkpt lat="45.801521" lon="13.8278752"><ele>275.4</ele><time>2026-04-06T15:04:53.984Z</time></trkpt><trkpt lat="45.8015197" lon="13.8277479"><ele>275.2</ele><time>2026-04-06T15:04:54.981Z</time></trkpt><trkpt lat="45.8015361" lon="13.82761"><ele>275.0</ele><time>2026-04-06T15:04:55.98Z</time></trkpt><trkpt lat="45.8015433" lon="13.8274642"><ele>274.2</ele><time>2026-04-06T15:04:56.988Z</time></trkpt><trkpt lat="45.8015492" lon="13.8273198"><ele>273.4</ele><time>2026-04-06T15:04:57.977Z</time></trkpt><trkpt lat="45.801571" lon="13.8271885"><ele>272.6</ele><time>2026-04-06T15:04:58.998Z</time></trkpt><trkpt lat="45.8016034" lon="13.8270658"><ele>271.8</ele><time>2026-04-06T15:04:59.983Z</time></trkpt><trkpt lat="45.8016358" lon="13.8269441"><ele>271.0</ele><time>2026-04-06T15:05:00.98Z</time></trkpt><trkpt lat="45.8016787" lon="13.82683"><ele>270.8</ele><time>2026-04-06T15:05:01.98Z</time></trkpt><trkpt lat="45.8017378" lon="13.826731"><ele>270.6</ele><time>2026-04-06T15:05:02.987Z</time></trkpt><trkpt lat="45.8018046" lon="13.826638"><ele>270.4</ele><time>2026-04-06T15:05:03.993Z</time></trkpt><trkpt lat="45.8018767" lon="13.8265458"><ele>270.2</ele><time>2026-04-06T15:05:04.979Z</time></trkpt><trkpt lat="45.8019467" lon="13.8264496"><ele>270.0</ele><time>2026-04-06T15:05:05.987Z</time></trkpt><trkpt lat="45.8020226" lon="13.8263468"><ele>270.2</ele><time>2026-04-06T15:05:06.973Z</time></trkpt><trkpt lat="45.8020938" lon="13.8262448"><ele>270.4</ele><time>2026-04-06T15:05:07.984Z</time></trkpt><trkpt lat="45.8021733" lon="13.8261577"><ele>270.6</ele><time>2026-04-06T15:05:08.983Z</time></trkpt><trkpt lat="45.802251" lon="13.8260758"><ele>270.8</ele><time>2026-04-06T15:05:09.979Z</time></trkpt><trkpt lat="45.8023239" lon="13.8259944"><ele>271.0</ele><time>2026-04-06T15:05:11.006Z</time></trkpt><trkpt lat="45.8023927" lon="13.8259267"><ele>271.0</ele><time>2026-04-06T15:05:12.992Z</time></trkpt><trkpt lat="45.8023881" lon="13.825823"><ele>271.0</ele><time>2026-04-06T15:05:19.98Z</time></trkpt><trkpt lat="45.8023171" lon="13.8257491"><ele>271.0</ele><time>2026-04-06T15:05:21.98Z</time></trkpt><trkpt lat="45.8022349" lon="13.8256293"><ele>271.0</ele><time>2026-04-06T15:05:24.006Z</time></trkpt><trkpt lat="45.8021657" lon="13.8254907"><ele>271.0</ele><time>2026-04-06T15:05:25.983Z</time></trkpt><trkpt lat="45.8021259" lon="13.8254178"><ele>271.0</ele><time>2026-04-06T15:05:26.98Z</time></trkpt><trkpt lat="45.802032" lon="13.8253076"><ele>271.0</ele><time>2026-04-06T15:05:28.986Z</time></trkpt><trkpt lat="45.8019583" lon="13.8252095"><ele>271.0</ele><time>2026-04-06T15:05:30.998Z</time></trkpt><trkpt lat="45.8018689" lon="13.8250935"><ele>271.0</ele><time>2026-04-06T15:05:32.978Z</time></trkpt><trkpt lat="45.8018193" lon="13.8250241"><ele>271.0</ele><time>2026-04-06T15:05:33.981Z</time></trkpt><trkpt lat="45.8017686" lon="13.8249548"><ele>271.3333333333333</ele><time>2026-04-06T15:05:34.977Z</time></trkpt><trkpt lat="45.8017271" lon="13.8248755"><ele>271.66666666666663</ele><time>2026-04-06T15:05:35.996Z</time></trkpt><trkpt lat="45.8016964" lon="13.8247812"><ele>272.0</ele><time>2026-04-06T15:05:36.98Z</time></trkpt><trkpt lat="45.8016863" lon="13.8246684"><ele>272.3333333333333</ele><time>2026-04-06T15:05:37.978Z</time></trkpt><trkpt lat="45.8016955" lon="13.8245468"><ele>272.6666666666667</ele><time>2026-04-06T15:05:38.982Z</time></trkpt><trkpt lat="45.801705" lon="13.8244382"><ele>273.0</ele><time>2026-04-06T15:05:39.986Z</time></trkpt><trkpt lat="45.8017175" lon="13.8243296"><ele>273.0</ele><time>2026-04-06T15:05:40.977Z</time></trkpt><trkpt lat="45.8017329" lon="13.8242336"><ele>273.0</ele><time>2026-04-06T15:05:41.984Z</time></trkpt><trkpt lat="45.8017455" lon="13.8241347"><ele>273.0</ele><time>2026-04-06T15:05:42.986Z</time></trkpt><trkpt lat="45.8017281" lon="13.8239784"><ele>273.0</ele><time>2026-04-06T15:05:44.983Z</time></trkpt><trkpt lat="45.801756" lon="13.8238438"><ele>273.0</ele><time>2026-04-06T15:05:46.982Z</time></trkpt><trkpt lat="45.8018447" lon="13.8237505"><ele>273.0</ele><time>2026-04-06T15:05:48.981Z</time></trkpt><trkpt lat="45.8019078" lon="13.8237075"><ele>273.0</ele><time>2026-04-06T15:05:49.983Z</time></trkpt><trkpt lat="45.8019738" lon="13.8236527"><ele>273.0</ele><time>2026-04-06T15:05:50.995Z</time></trkpt><trkpt lat="45.8020439" lon="13.8235992"><ele>273.0</ele><time>2026-04-06T15:05:51.985Z</time></trkpt><trkpt lat="45.8021169" lon="13.82355"><ele>273.0</ele><time>2026-04-06T15:05:52.983Z</time></trkpt><trkpt lat="45.8021868" lon="13.8235031"><ele>273.0</ele><time>2026-04-06T15:05:53.985Z</time></trkpt><trkpt lat="45.802256" lon="13.8234604"><ele>273.3333333333333</ele><time>2026-04-06T15:05:54.988Z</time></trkpt><trkpt lat="45.8023294" lon="13.8234172"><ele>273.6666666666667</ele><time>2026-04-06T15:05:55.995Z</time></trkpt><trkpt lat="45.802397" lon="13.8233789"><ele>274.0</ele><time>2026-04-06T15:05:56.991Z</time></trkpt><trkpt lat="45.8024591" lon="13.8233538"><ele>274.33333333333337</ele><time>2026-04-06T15:05:57.986Z</time></trkpt><trkpt lat="45.8025649" lon="13.8233289"><ele>274.6666666666667</ele><time>2026-04-06T15:05:59.991Z</time></trkpt><trkpt lat="45.8026745" lon="13.8233542"><ele>275.0</ele><time>2026-04-06T15:06:02.006Z</time></trkpt><trkpt lat="45.8027911" lon="13.8234257"><ele>275.0</ele><time>2026-04-06T15:06:03.99Z</time></trkpt><trkpt lat="45.8028689" lon="13.8234643"><ele>275.0</ele><time>2026-04-06T15:06:04.988Z</time></trkpt><trkpt lat="45.8029581" lon="13.8235063"><ele>275.0</ele><time>2026-04-06T15:06:05.991Z</time></trkpt><trkpt lat="45.8030381" lon="13.8235388"><ele>275.0</ele><time>2026-04-06T15:06:06.997Z</time></trkpt><trkpt lat="45.8031211" lon="13.823556"><ele>275.0</ele><time>2026-04-06T15:06:08.985Z</time></trkpt><trkpt lat="45.8032018" lon="13.823565"><ele>275.0</ele><time>2026-04-06T15:06:10.983Z</time></trkpt><trkpt lat="45.8032774" lon="13.8235723"><ele>275.0</ele><time>2026-04-06T15:06:12.981Z</time></trkpt><trkpt lat="45.8033592" lon="13.8235654"><ele>275.0</ele><time>2026-04-06T15:06:14.978Z</time></trkpt><trkpt lat="45.8033913" lon="13.823455"><ele>275.0</ele><time>2026-04-06T15:06:16.982Z</time></trkpt><trkpt lat="45.8034051" lon="13.8233529"><ele>275.0</ele><time>2026-04-06T15:06:17.988Z</time></trkpt><trkpt lat="45.8034383" lon="13.8232409"><ele>275.0</ele><time>2026-04-06T15:06:18.98Z</time></trkpt><trkpt lat="45.803485" lon="13.8231335"><ele>275.0</ele><time>2026-04-06T15:06:19.965Z</time></trkpt><trkpt lat="45.8035339" lon="13.8230265"><ele>275.0</ele><time>2026-04-06T15:06:20.983Z</time></trkpt><trkpt lat="45.8035723" lon="13.8228978"><ele>275.0</ele><time>2026-04-06T15:06:21.982Z</time></trkpt><trkpt lat="45.8036016" lon="13.8227656"><ele>275.0</ele><time>2026-04-06T15:06:22.99Z</time></trkpt><trkpt lat="45.8036153" lon="13.8226389"><ele>275.0</ele><time>2026-04-06T15:06:23.983Z</time></trkpt><trkpt lat="45.803637" lon="13.8225227"><ele>275.0</ele><time>2026-04-06T15:06:24.985Z</time></trkpt><trkpt lat="45.8036839" lon="13.8224371"><ele>275.0</ele><time>2026-04-06T15:06:25.99Z</time></trkpt><trkpt lat="45.8037347" lon="13.8223695"><ele>275.0</ele><time>2026-04-06T15:06:26.979Z</time></trkpt><trkpt lat="45.8037828" lon="13.8222949"><ele>275.0</ele><time>2026-04-06T15:06:28.007Z</time></trkpt><trkpt lat="45.803826" lon="13.8222039"><ele>275.0</ele><time>2026-04-06T15:06:28.983Z</time></trkpt><trkpt lat="45.8038401" lon="13.8220967"><ele>275.0</ele><time>2026-04-06T15:06:29.983Z</time></trkpt><trkpt lat="45.8038476" lon="13.8219896"><ele>275.0</ele><time>2026-04-06T15:06:30.982Z</time></trkpt><trkpt lat="45.8038603" lon="13.8218831"><ele>275.0</ele><time>2026-04-06T15:06:31.986Z</time></trkpt><trkpt lat="45.8038805" lon="13.8217769"><ele>274.1666666666667</ele><time>2026-04-06T15:06:32.989Z</time></trkpt><trkpt lat="45.803926" lon="13.8216878"><ele>273.33333333333337</ele><time>2026-04-06T15:06:34.002Z</time></trkpt><trkpt lat="45.8039746" lon="13.8216215"><ele>272.5</ele><time>2026-04-06T15:06:34.979Z</time></trkpt><trkpt lat="45.803954" lon="13.8214951"><ele>271.6666666666667</ele><time>2026-04-06T15:06:36.981Z</time></trkpt><trkpt lat="45.8038743" lon="13.8213836"><ele>270.8333333333333</ele><time>2026-04-06T15:06:38.973Z</time></trkpt><trkpt lat="45.8038787" lon="13.821279"><ele>270.0</ele><time>2026-04-06T15:06:40.98Z</time></trkpt><trkpt lat="45.8039601" lon="13.8212056"><ele>270.0</ele><time>2026-04-06T15:06:43.002Z</time></trkpt><trkpt lat="45.8040159" lon="13.8211525"><ele>270.0</ele><time>2026-04-06T15:06:43.984Z</time></trkpt><trkpt lat="45.8040622" lon="13.8210831"><ele>270.0</ele><time>2026-04-06T15:06:44.979Z</time></trkpt><trkpt lat="45.8040999" lon="13.8209928"><ele>270.0</ele><time>2026-04-06T15:06:45.981Z</time></trkpt><trkpt lat="45.8041333" lon="13.8208903"><ele>270.0</ele><time>2026-04-06T15:06:46.989Z</time></trkpt><trkpt lat="45.8041748" lon="13.8208047"><ele>270.0</ele><time>2026-04-06T15:06:47.991Z</time></trkpt><trkpt lat="45.8042243" lon="13.820733"><ele>270.0</ele><time>2026-04-06T15:06:48.986Z</time></trkpt><trkpt lat="45.8042725" lon="13.8206559"><ele>269.1666666666667</ele><time>2026-04-06T15:06:49.988Z</time></trkpt><trkpt lat="45.80431" lon="13.8205629"><ele>268.3333333333333</ele><time>2026-04-06T15:06:50.983Z</time></trkpt><trkpt lat="45.8043592" lon="13.8204653"><ele>267.5</ele><time>2026-04-06T15:06:51.977Z</time></trkpt><trkpt lat="45.8044086" lon="13.8203715"><ele>266.66666666666663</ele><time>2026-04-06T15:06:52.986Z</time></trkpt><trkpt lat="45.8044604" lon="13.8202839"><ele>265.8333333333333</ele><time>2026-04-06T15:06:53.981Z</time></trkpt><trkpt lat="45.8045242" lon="13.8202054"><ele>265.0</ele><time>2026-04-06T15:06:54.984Z</time></trkpt><trkpt lat="45.8045956" lon="13.8201337"><ele>264.6</ele><time>2026-04-06T15:06:55.994Z</time></trkpt><trkpt lat="45.8046716" lon="13.8200644"><ele>264.2</ele><time>2026-04-06T15:06:56.98Z</time></trkpt><trkpt lat="45.8047551" lon="13.8199904"><ele>263.8</ele><time>2026-04-06T15:06:57.983Z</time></trkpt><trkpt lat="45.8048409" lon="13.8199182"><ele>263.4</ele><time>2026-04-06T15:06:58.976Z</time></trkpt><trkpt lat="45.8049208" lon="13.8198618"><ele>263.0</ele><time>2026-04-06T15:06:59.978Z</time></trkpt><trkpt lat="45.8049957" lon="13.8198035"><ele>263.0</ele><time>2026-04-06T15:07:00.992Z</time></trkpt><trkpt lat="45.8050659" lon="13.8197448"><ele>263.0</ele><time>2026-04-06T15:07:01.979Z</time></trkpt><trkpt lat="45.8051211" lon="13.8196987"><ele>263.0</ele><time>2026-04-06T15:07:02.988Z</time></trkpt><trkpt lat="45.8051933" lon="13.8196309"><ele>263.0</ele><time>2026-04-06T15:07:04.981Z</time></trkpt><trkpt lat="45.8052506" lon="13.8195443"><ele>263.0</ele><time>2026-04-06T15:07:06.988Z</time></trkpt><trkpt lat="45.8052657" lon="13.8193994"><ele>263.0</ele><time>2026-04-06T15:07:08.978Z</time></trkpt><trkpt lat="45.8052561" lon="13.8192703"><ele>264.0</ele><time>2026-04-06T15:07:10.981Z</time></trkpt><trkpt lat="45.805241" lon="13.8191407"><ele>265.0</ele><time>2026-04-06T15:07:12.982Z</time></trkpt><trkpt lat="45.8052087" lon="13.8190357"><ele>266.0</ele><time>2026-04-06T15:07:15.985Z</time></trkpt><trkpt lat="45.8051981" lon="13.8191687"><ele>267.0</ele><time>2026-04-06T15:07:18.98Z</time></trkpt><trkpt lat="45.8052241" lon="13.8192611"><ele>268.0</ele><time>2026-04-06T15:07:19.968Z</time></trkpt><trkpt lat="45.8052403" lon="13.8193537"><ele>269.0</ele><time>2026-04-06T15:07:21.001Z</time></trkpt><trkpt lat="45.8052336" lon="13.8195141"><ele>269.2</ele><time>2026-04-06T15:07:22.988Z</time></trkpt><trkpt lat="45.8051826" lon="13.8196224"><ele>269.4</ele><time>2026-04-06T15:07:24.988Z</time></trkpt><trkpt lat="45.8051161" lon="13.8196109"><ele>269.6</ele><time>2026-04-06T15:07:26.983Z</time></trkpt><trkpt lat="45.8050632" lon="13.8195189"><ele>269.8</ele><time>2026-04-06T15:07:28.977Z</time></trkpt><trkpt lat="45.8049582" lon="13.8194697"><ele>270.0</ele><time>2026-04-06T15:07:30.972Z</time></trkpt><trkpt lat="45.8048693" lon="13.8193935"><ele>269.5</ele><time>2026-04-06T15:07:32.987Z</time></trkpt><trkpt lat="45.804836" lon="13.8193039"><ele>269.0</ele><time>2026-04-06T15:07:34.98Z</time></trkpt><trkpt lat="45.8048626" lon="13.8191655"><ele>268.5</ele><time>2026-04-06T15:07:36.979Z</time></trkpt><trkpt lat="45.8049091" lon="13.8190925"><ele>268.0</ele><time>2026-04-06T15:07:37.984Z</time></trkpt><trkpt lat="45.8049572" lon="13.8190275"><ele>267.5</ele><time>2026-04-06T15:07:38.983Z</time></trkpt><trkpt lat="45.8050114" lon="13.8189736"><ele>267.0</ele><time>2026-04-06T15:07:39.972Z</time></trkpt><trkpt lat="45.8050953" lon="13.8188822"><ele>267.0</ele><time>2026-04-06T15:07:41.981Z</time></trkpt><trkpt lat="45.805161" lon="13.8187866"><ele>267.0</ele><time>2026-04-06T15:07:43.981Z</time></trkpt><trkpt lat="45.8051779" lon="13.8186967"><ele>267.0</ele><time>2026-04-06T15:07:44.978Z</time></trkpt><trkpt lat="45.8051919" lon="13.8185976"><ele>267.0</ele><time>2026-04-06T15:07:45.98Z</time></trkpt><trkpt lat="45.8052201" lon="13.8185014"><ele>267.0</ele><time>2026-04-06T15:07:46.98Z</time></trkpt><trkpt lat="45.8052626" lon="13.818407"><ele>267.0</ele><time>2026-04-06T15:07:47.979Z</time></trkpt><trkpt lat="45.8053098" lon="13.8183166"><ele>266.8333333333333</ele><time>2026-04-06T15:07:48.988Z</time></trkpt><trkpt lat="45.8053661" lon="13.818242"><ele>266.6666666666667</ele><time>2026-04-06T15:07:49.977Z</time></trkpt><trkpt lat="45.8054319" lon="13.8181826"><ele>266.5</ele><time>2026-04-06T15:07:50.981Z</time></trkpt><trkpt lat="45.8055035" lon="13.8181351"><ele>266.33333333333337</ele><time>2026-04-06T15:07:51.986Z</time></trkpt><trkpt lat="45.8055806" lon="13.8180899"><ele>266.1666666666667</ele><time>2026-04-06T15:07:52.987Z</time></trkpt><trkpt lat="45.8056547" lon="13.8180241"><ele>266.0</ele><time>2026-04-06T15:07:53.985Z</time></trkpt><trkpt lat="45.8057168" lon="13.8179383"><ele>266.0</ele><time>2026-04-06T15:07:54.993Z</time></trkpt><trkpt lat="45.8057608" lon="13.8178387"><ele>266.0</ele><time>2026-04-06T15:07:55.975Z</time></trkpt><trkpt lat="45.8057819" lon="13.8177364"><ele>266.0</ele><time>2026-04-06T15:07:56.984Z</time></trkpt><trkpt lat="45.805785" lon="13.8176352"><ele>266.0</ele><time>2026-04-06T15:07:57.978Z</time></trkpt><trkpt lat="45.805776" lon="13.8175364"><ele>266.0</ele><time>2026-04-06T15:07:58.978Z</time></trkpt><trkpt lat="45.8057478" lon="13.8173754"><ele>266.0</ele><time>2026-04-06T15:08:00.975Z</time></trkpt><trkpt lat="45.8057237" lon="13.8172642"><ele>266.1666666666667</ele><time>2026-04-06T15:08:02.979Z</time></trkpt><trkpt lat="45.8056741" lon="13.8171473"><ele>266.33333333333337</ele><time>2026-04-06T15:08:04.978Z</time></trkpt><trkpt lat="45.8056231" lon="13.8170454"><ele>266.5</ele><time>2026-04-06T15:08:06.98Z</time></trkpt><trkpt lat="45.8055796" lon="13.8169693"><ele>266.6666666666667</ele><time>2026-04-06T15:08:08.996Z</time></trkpt><trkpt lat="45.8055486" lon="13.8168661"><ele>266.8333333333333</ele><time>2026-04-06T15:08:11.974Z</time></trkpt><trkpt lat="45.8055467" lon="13.8167665"><ele>267.0</ele><time>2026-04-06T15:08:15.984Z</time></trkpt><trkpt lat="45.8055807" lon="13.8166756"><ele>267.3333333333333</ele><time>2026-04-06T15:08:37.972Z</time></trkpt><trkpt lat="45.8056469" lon="13.8166275"><ele>267.6666666666667</ele><time>2026-04-06T15:09:23.979Z</time></trkpt><trkpt lat="45.8057198" lon="13.8165944"><ele>268.0</ele><time>2026-04-06T15:09:24.986Z</time></trkpt><trkpt lat="45.8057982" lon="13.8165687"><ele>268.33333333333337</ele><time>2026-04-06T15:09:25.992Z</time></trkpt><trkpt lat="45.8058746" lon="13.8165455"><ele>268.6666666666667</ele><time>2026-04-06T15:09:26.988Z</time></trkpt><trkpt lat="45.8059416" lon="13.8165303"><ele>269.0</ele><time>2026-04-06T15:09:27.979Z</time></trkpt><trkpt lat="45.8060403" lon="13.8164958"><ele>269.33333333333337</ele><time>2026-04-06T15:09:29.979Z</time></trkpt><trkpt lat="45.8060804" lon="13.8164141"><ele>269.6666666666667</ele><time>2026-04-06T15:09:31.975Z</time></trkpt><trkpt lat="45.8060829" lon="13.8162868"><ele>270.0</ele><time>2026-04-06T15:09:33.982Z</time></trkpt><trkpt lat="45.8060661" lon="13.816158"><ele>270.3333333333333</ele><time>2026-04-06T15:09:35.984Z</time></trkpt><trkpt lat="45.8060565" lon="13.8160037"><ele>270.66666666666663</ele><time>2026-04-06T15:09:37.984Z</time></trkpt><trkpt lat="45.8060526" lon="13.8159081"><ele>271.0</ele><time>2026-04-06T15:09:38.977Z</time></trkpt><trkpt lat="45.8060479" lon="13.8158089"><ele>271.0</ele><time>2026-04-06T15:09:39.985Z</time></trkpt><trkpt lat="45.8060454" lon="13.8157038"><ele>271.0</ele><time>2026-04-06T15:09:40.984Z</time></trkpt><trkpt lat="45.8060606" lon="13.8156043"><ele>271.0</ele><time>2026-04-06T15:09:41.989Z</time></trkpt><trkpt lat="45.8060961" lon="13.8155084"><ele>271.0</ele><time>2026-04-06T15:09:42.986Z</time></trkpt><trkpt lat="45.8061487" lon="13.8154347"><ele>271.0</ele><time>2026-04-06T15:09:43.983Z</time></trkpt><trkpt lat="45.8062003" lon="13.8153587"><ele>271.0</ele><time>2026-04-06T15:09:44.975Z</time></trkpt><trkpt lat="45.806253" lon="13.8152855"><ele>271.0</ele><time>2026-04-06T15:09:45.988Z</time></trkpt><trkpt lat="45.8062962" lon="13.8152198"><ele>271.0</ele><time>2026-04-06T15:09:46.986Z</time></trkpt><trkpt lat="45.806376" lon="13.8151282"><ele>271.0</ele><time>2026-04-06T15:09:48.983Z</time></trkpt><trkpt lat="45.8064783" lon="13.8150593"><ele>271.0</ele><time>2026-04-06T15:09:50.992Z</time></trkpt><trkpt lat="45.8065665" lon="13.8149485"><ele>271.0</ele><time>2026-04-06T15:09:52.985Z</time></trkpt><trkpt lat="45.8065935" lon="13.8148574"><ele>271.0</ele><time>2026-04-06T15:09:53.977Z</time></trkpt><trkpt lat="45.8066246" lon="13.8147629"><ele>271.0</ele><time>2026-04-06T15:09:54.993Z</time></trkpt><trkpt lat="45.8066594" lon="13.814671"><ele>271.0</ele><time>2026-04-06T15:09:55.989Z</time></trkpt><trkpt lat="45.8066905" lon="13.8145831"><ele>271.0</ele><time>2026-04-06T15:09:56.994Z</time></trkpt><trkpt lat="45.8067161" lon="13.8144854"><ele>271.0</ele><time>2026-04-06T15:09:57.992Z</time></trkpt><trkpt lat="45.8067383" lon="13.8143942"><ele>271.0</ele><time>2026-04-06T15:09:58.98Z</time></trkpt><trkpt lat="45.8067649" lon="13.8143067"><ele>271.0</ele><time>2026-04-06T15:09:59.984Z</time></trkpt><trkpt lat="45.8068469" lon="13.814177"><ele>272.0</ele><time>2026-04-06T15:10:01.983Z</time></trkpt><trkpt lat="45.8069007" lon="13.8141288"><ele>273.0</ele><time>2026-04-06T15:10:02.981Z</time></trkpt><trkpt lat="45.8069434" lon="13.8140487"><ele>274.0</ele><time>2026-04-06T15:10:03.98Z</time></trkpt><trkpt lat="45.8069744" lon="13.8139587"><ele>275.0</ele><time>2026-04-06T15:10:04.984Z</time></trkpt><trkpt lat="45.8070002" lon="13.8138582"><ele>276.0</ele><time>2026-04-06T15:10:05.983Z</time></trkpt><trkpt lat="45.8070054" lon="13.8137641"><ele>277.0</ele><time>2026-04-06T15:10:06.981Z</time></trkpt><trkpt lat="45.8069922" lon="13.8136056"><ele>277.4</ele><time>2026-04-06T15:10:08.992Z</time></trkpt><trkpt lat="45.8069965" lon="13.8134613"><ele>277.79999999999995</ele><time>2026-04-06T15:10:10.983Z</time></trkpt><trkpt lat="45.8070785" lon="13.813368"><ele>278.2</ele><time>2026-04-06T15:10:12.986Z</time></trkpt><trkpt lat="45.807152" lon="13.8132982"><ele>278.59999999999997</ele><time>2026-04-06T15:10:14.978Z</time></trkpt><trkpt lat="45.8072137" lon="13.8131824"><ele>279.0</ele><time>2026-04-06T15:10:16.988Z</time></trkpt><trkpt lat="45.8073" lon="13.8130852"><ele>279.0</ele><time>2026-04-06T15:10:18.987Z</time></trkpt><trkpt lat="45.8074152" lon="13.8130909"><ele>279.0</ele><time>2026-04-06T15:10:20.982Z</time></trkpt><trkpt lat="45.8075067" lon="13.81311"><ele>279.0</ele><time>2026-04-06T15:10:23.007Z</time></trkpt><trkpt lat="45.8076084" lon="13.8130988"><ele>279.0</ele><time>2026-04-06T15:10:24.989Z</time></trkpt><trkpt lat="45.8076941" lon="13.813115"><ele>279.0</ele><time>2026-04-06T15:10:26.986Z</time></trkpt><trkpt lat="45.8077633" lon="13.8131156"><ele>279.8</ele><time>2026-04-06T15:10:28.978Z</time></trkpt><trkpt lat="45.8078376" lon="13.8131217"><ele>280.59999999999997</ele><time>2026-04-06T15:10:30.981Z</time></trkpt><trkpt lat="45.8079126" lon="13.8130991"><ele>281.4</ele><time>2026-04-06T15:10:32.99Z</time></trkpt><trkpt lat="45.8080078" lon="13.8130626"><ele>282.2</ele><time>2026-04-06T15:10:34.987Z</time></trkpt><trkpt lat="45.8081285" lon="13.8130168"><ele>283.0</ele><time>2026-04-06T15:10:36.986Z</time></trkpt><trkpt lat="45.808242" lon="13.812967"><ele>283.0</ele><time>2026-04-06T15:10:38.986Z</time></trkpt><trkpt lat="45.8083556" lon="13.8130149"><ele>283.0</ele><time>2026-04-06T15:10:40.977Z</time></trkpt><trkpt lat="45.8084124" lon="13.8130576"><ele>283.0</ele><time>2026-04-06T15:10:41.972Z</time></trkpt><trkpt lat="45.8085092" lon="13.8131499"><ele>283.0</ele><time>2026-04-06T15:10:44.004Z</time></trkpt><trkpt lat="45.8086129" lon="13.8132518"><ele>283.0</ele><time>2026-04-06T15:10:45.978Z</time></trkpt><trkpt lat="45.8086698" lon="13.8132937"><ele>283.5</ele><time>2026-04-06T15:10:46.99Z</time></trkpt><trkpt lat="45.8087525" lon="13.8133748"><ele>284.0</ele><time>2026-04-06T15:10:48.979Z</time></trkpt><trkpt lat="45.8087902" lon="13.813448"><ele>284.5</ele><time>2026-04-06T15:10:50.983Z</time></trkpt><trkpt lat="45.8088275" lon="13.8135422"><ele>285.0</ele><time>2026-04-06T15:10:53.982Z</time></trkpt><trkpt lat="45.8088274" lon="13.8134508"><ele>285.5</ele><time>2026-04-06T15:10:56.982Z</time></trkpt><trkpt lat="45.8087831" lon="13.8133653"><ele>286.0</ele><time>2026-04-06T15:10:58.992Z</time></trkpt><trkpt lat="45.8088133" lon="13.8132304"><ele>286.0</ele><time>2026-04-06T15:11:00.982Z</time></trkpt><trkpt lat="45.8088558" lon="13.8131319"><ele>286.0</ele><time>2026-04-06T15:11:01.98Z</time></trkpt><trkpt lat="45.8089077" lon="13.8130211"><ele>286.0</ele><time>2026-04-06T15:11:02.981Z</time></trkpt><trkpt lat="45.8089497" lon="13.8129232"><ele>286.0</ele><time>2026-04-06T15:11:03.996Z</time></trkpt><trkpt lat="45.8089803" lon="13.8128357"><ele>286.0</ele><time>2026-04-06T15:11:04.989Z</time></trkpt><trkpt lat="45.8089988" lon="13.8127474"><ele>286.0</ele><time>2026-04-06T15:11:05.988Z</time></trkpt><trkpt lat="45.8090157" lon="13.8126497"><ele>285.8333333333333</ele><time>2026-04-06T15:11:06.981Z</time></trkpt><trkpt lat="45.8090405" lon="13.8125464"><ele>285.66666666666663</ele><time>2026-04-06T15:11:07.988Z</time></trkpt><trkpt lat="45.8090684" lon="13.8124527"><ele>285.5</ele><time>2026-04-06T15:11:08.987Z</time></trkpt><trkpt lat="45.8091066" lon="13.8123663"><ele>285.3333333333333</ele><time>2026-04-06T15:11:09.983Z</time></trkpt><trkpt lat="45.8091617" lon="13.8122874"><ele>285.1666666666667</ele><time>2026-04-06T15:11:10.981Z</time></trkpt><trkpt lat="45.8092244" lon="13.8122226"><ele>285.0</ele><time>2026-04-06T15:11:11.974Z</time></trkpt><trkpt lat="45.8092937" lon="13.8121579"><ele>285.8</ele><time>2026-04-06T15:11:12.991Z</time></trkpt><trkpt lat="45.8093648" lon="13.8120905"><ele>286.6</ele><time>2026-04-06T15:11:13.987Z</time></trkpt><trkpt lat="45.8094396" lon="13.8120236"><ele>287.4</ele><time>2026-04-06T15:11:14.989Z</time></trkpt><trkpt lat="45.8095183" lon="13.8119448"><ele>288.2</ele><time>2026-04-06T15:11:15.977Z</time></trkpt><trkpt lat="45.8095994" lon="13.8118655"><ele>289.0</ele><time>2026-04-06T15:11:16.987Z</time></trkpt><trkpt lat="45.80968" lon="13.8117939"><ele>289.0</ele><time>2026-04-06T15:11:17.979Z</time></trkpt><trkpt lat="45.8097514" lon="13.811723"><ele>289.0</ele><time>2026-04-06T15:11:18.989Z</time></trkpt><trkpt lat="45.8098104" lon="13.8116446"><ele>289.0</ele><time>2026-04-06T15:11:19.982Z</time></trkpt><trkpt lat="45.8098654" lon="13.8115608"><ele>289.0</ele><time>2026-04-06T15:11:20.988Z</time></trkpt><trkpt lat="45.8099276" lon="13.8114954"><ele>289.0</ele><time>2026-04-06T15:11:21.99Z</time></trkpt><trkpt lat="45.8100032" lon="13.811433"><ele>289.0</ele><time>2026-04-06T15:11:22.992Z</time></trkpt><trkpt lat="45.8100844" lon="13.8113587"><ele>290.0</ele><time>2026-04-06T15:11:23.984Z</time></trkpt><trkpt lat="45.8101634" lon="13.8112908"><ele>291.0</ele><time>2026-04-06T15:11:24.991Z</time></trkpt><trkpt lat="45.810238" lon="13.8112406"><ele>292.0</ele><time>2026-04-06T15:11:25.98Z</time></trkpt><trkpt lat="45.8102943" lon="13.8111681"><ele>293.0</ele><time>2026-04-06T15:11:26.99Z</time></trkpt><trkpt lat="45.8103361" lon="13.8110797"><ele>294.0</ele><time>2026-04-06T15:11:27.974Z</time></trkpt><trkpt lat="45.8103903" lon="13.8109649"><ele>295.0</ele><time>2026-04-06T15:11:29.989Z</time></trkpt><trkpt lat="45.8103141" lon="13.8109049"><ele>295.4</ele><time>2026-04-06T15:11:32.978Z</time></trkpt><trkpt lat="45.8102513" lon="13.810858"><ele>295.8</ele><time>2026-04-06T15:11:33.976Z</time></trkpt><trkpt lat="45.8101669" lon="13.8107961"><ele>296.2</ele><time>2026-04-06T15:11:34.989Z</time></trkpt><trkpt lat="45.8100727" lon="13.8107054"><ele>296.6</ele><time>2026-04-06T15:11:35.981Z</time></trkpt><trkpt lat="45.8099831" lon="13.8106013"><ele>297.0</ele><time>2026-04-06T15:11:36.984Z</time></trkpt><trkpt lat="45.809913" lon="13.8105009"><ele>296.0</ele><time>2026-04-06T15:11:37.988Z</time></trkpt><trkpt lat="45.8098597" lon="13.8104008"><ele>295.0</ele><time>2026-04-06T15:11:38.985Z</time></trkpt><trkpt lat="45.8098159" lon="13.8102956"><ele>294.0</ele><time>2026-04-06T15:11:39.986Z</time></trkpt><trkpt lat="45.8097794" lon="13.8101914"><ele>293.0</ele><time>2026-04-06T15:11:40.989Z</time></trkpt><trkpt lat="45.8097431" lon="13.8100693"><ele>292.0</ele><time>2026-04-06T15:11:42.979Z</time></trkpt><trkpt lat="45.8097485" lon="13.8099568"><ele>291.0</ele><time>2026-04-06T15:11:46.998Z</time></trkpt><trkpt lat="45.8098064" lon="13.8099173"><ele>291.0</ele><time>2026-04-06T15:11:47.981Z</time></trkpt><trkpt lat="45.8098804" lon="13.8098735"><ele>291.0</ele><time>2026-04-06T15:11:48.998Z</time></trkpt><trkpt lat="45.8099451" lon="13.8098081"><ele>291.0</ele><time>2026-04-06T15:11:49.983Z</time></trkpt><trkpt lat="45.8100037" lon="13.8097254"><ele>291.0</ele><time>2026-04-06T15:11:50.982Z</time></trkpt><trkpt lat="45.8100563" lon="13.8096508"><ele>291.0</ele><time>2026-04-06T15:11:51.973Z</time></trkpt><trkpt lat="45.8101059" lon="13.8095681"><ele>291.0</ele><time>2026-04-06T15:11:52.984Z</time></trkpt><trkpt lat="45.8101536" lon="13.8094793"><ele>291.8333333333333</ele><time>2026-04-06T15:11:53.982Z</time></trkpt><trkpt lat="45.8101986" lon="13.8093741"><ele>292.6666666666667</ele><time>2026-04-06T15:11:54.984Z</time></trkpt><trkpt lat="45.8102435" lon="13.8092635"><ele>293.5</ele><time>2026-04-06T15:11:55.987Z</time></trkpt><trkpt lat="45.8102868" lon="13.8091562"><ele>294.33333333333337</ele><time>2026-04-06T15:11:56.982Z</time></trkpt><trkpt lat="45.8103386" lon="13.8090525"><ele>295.1666666666667</ele><time>2026-04-06T15:11:57.975Z</time></trkpt><trkpt lat="45.8103953" lon="13.8089623"><ele>296.0</ele><time>2026-04-06T15:11:58.983Z</time></trkpt><trkpt lat="45.8104453" lon="13.8088959"><ele>296.0</ele><time>2026-04-06T15:11:59.978Z</time></trkpt><trkpt lat="45.8105284" lon="13.8087645"><ele>296.0</ele><time>2026-04-06T15:12:01.984Z</time></trkpt><trkpt lat="45.8106001" lon="13.8086591"><ele>296.0</ele><time>2026-04-06T15:12:03.979Z</time></trkpt><trkpt lat="45.8106504" lon="13.8085822"><ele>296.0</ele><time>2026-04-06T15:12:05.983Z</time></trkpt><trkpt lat="45.810639" lon="13.8084913"><ele>296.0</ele><time>2026-04-06T15:12:08.978Z</time></trkpt><trkpt lat="45.8105564" lon="13.8084524"><ele>295.0</ele><time>2026-04-06T15:12:10.989Z</time></trkpt><trkpt lat="45.8104909" lon="13.8084385"><ele>294.0</ele><time>2026-04-06T15:12:11.986Z</time></trkpt><trkpt lat="45.8104098" lon="13.8084177"><ele>293.0</ele><time>2026-04-06T15:12:13.002Z</time></trkpt><trkpt lat="45.8103207" lon="13.8084012"><ele>292.0</ele><time>2026-04-06T15:12:13.975Z</time></trkpt><trkpt lat="45.8102307" lon="13.8083925"><ele>291.0</ele><time>2026-04-06T15:12:14.974Z</time></trkpt><trkpt lat="45.8101401" lon="13.8083891"><ele>290.0</ele><time>2026-04-06T15:12:15.989Z</time></trkpt><trkpt lat="45.8100541" lon="13.8083939"><ele>289.83333333333337</ele><time>2026-04-06T15:12:16.982Z</time></trkpt><trkpt lat="45.8099741" lon="13.8084007"><ele>289.6666666666667</ele><time>2026-04-06T15:12:18.004Z</time></trkpt><trkpt lat="45.8098939" lon="13.8084069"><ele>289.5</ele><time>2026-04-06T15:12:18.983Z</time></trkpt><trkpt lat="45.809818" lon="13.8084122"><ele>289.3333333333333</ele><time>2026-04-06T15:12:19.978Z</time></trkpt><trkpt lat="45.8097406" lon="13.8084158"><ele>289.16666666666663</ele><time>2026-04-06T15:12:20.983Z</time></trkpt><trkpt lat="45.8096665" lon="13.8084065"><ele>289.0</ele><time>2026-04-06T15:12:21.981Z</time></trkpt><trkpt lat="45.8095693" lon="13.8083779"><ele>289.0</ele><time>2026-04-06T15:12:23.985Z</time></trkpt><trkpt lat="45.8094797" lon="13.808357"><ele>289.0</ele><time>2026-04-06T15:12:25.986Z</time></trkpt><trkpt lat="45.8093871" lon="13.8083301"><ele>289.0</ele><time>2026-04-06T15:12:27.991Z</time></trkpt><trkpt lat="45.8092633" lon="13.8082936"><ele>289.0</ele><time>2026-04-06T15:12:29.992Z</time></trkpt><trkpt lat="45.8091904" lon="13.8082729"><ele>289.0</ele><time>2026-04-06T15:12:30.988Z</time></trkpt><trkpt lat="45.809114" lon="13.8082335"><ele>288.5</ele><time>2026-04-06T15:12:31.982Z</time></trkpt><trkpt lat="45.8090354" lon="13.8081889"><ele>288.0</ele><time>2026-04-06T15:12:32.984Z</time></trkpt><trkpt lat="45.8089604" lon="13.8081427"><ele>287.5</ele><time>2026-04-06T15:12:33.976Z</time></trkpt><trkpt lat="45.8088897" lon="13.8081019"><ele>287.0</ele><time>2026-04-06T15:12:35.013Z</time></trkpt><trkpt lat="45.8088182" lon="13.8080577"><ele>286.5</ele><time>2026-04-06T15:12:35.982Z</time></trkpt><trkpt lat="45.8087423" lon="13.808011"><ele>286.0</ele><time>2026-04-06T15:12:36.985Z</time></trkpt><trkpt lat="45.80866" lon="13.8079569"><ele>286.0</ele><time>2026-04-06T15:12:37.98Z</time></trkpt><trkpt lat="45.8085762" lon="13.8079076"><ele>286.0</ele><time>2026-04-06T15:12:38.983Z</time></trkpt><trkpt lat="45.8085001" lon="13.8078621"><ele>286.0</ele><time>2026-04-06T15:12:39.975Z</time></trkpt><trkpt lat="45.8084328" lon="13.807811"><ele>286.0</ele><time>2026-04-06T15:12:40.986Z</time></trkpt><trkpt lat="45.8083784" lon="13.8077565"><ele>286.0</ele><time>2026-04-06T15:12:41.981Z</time></trkpt><trkpt lat="45.8083188" lon="13.8077149"><ele>286.0</ele><time>2026-04-06T15:12:44.996Z</time></trkpt><trkpt lat="45.8082448" lon="13.807675"><ele>285.2</ele><time>2026-04-06T15:12:47.98Z</time></trkpt><trkpt lat="45.8081391" lon="13.80762"><ele>284.40000000000003</ele><time>2026-04-06T15:12:49.981Z</time></trkpt><trkpt lat="45.8080687" lon="13.8075718"><ele>283.6</ele><time>2026-04-06T15:12:51.005Z</time></trkpt><trkpt lat="45.8079973" lon="13.8074943"><ele>282.8</ele><time>2026-04-06T15:12:51.986Z</time></trkpt><trkpt lat="45.8079342" lon="13.8073872"><ele>282.0</ele><time>2026-04-06T15:12:52.979Z</time></trkpt><trkpt lat="45.8078765" lon="13.8072736"><ele>282.0</ele><time>2026-04-06T15:12:53.983Z</time></trkpt><trkpt lat="45.8078198" lon="13.8071744"><ele>282.0</ele><time>2026-04-06T15:12:54.976Z</time></trkpt><trkpt lat="45.8077684" lon="13.8070776"><ele>282.0</ele><time>2026-04-06T15:12:55.971Z</time></trkpt><trkpt lat="45.8077224" lon="13.8069717"><ele>282.0</ele><time>2026-04-06T15:12:56.982Z</time></trkpt><trkpt lat="45.8076882" lon="13.8068619"><ele>282.0</ele><time>2026-04-06T15:12:57.979Z</time></trkpt><trkpt lat="45.8076615" lon="13.806753"><ele>282.0</ele><time>2026-04-06T15:12:58.99Z</time></trkpt><trkpt lat="45.807623" lon="13.8066494"><ele>282.3333333333333</ele><time>2026-04-06T15:12:59.988Z</time></trkpt><trkpt lat="45.8075682" lon="13.8065657"><ele>282.6666666666667</ele><time>2026-04-06T15:13:00.985Z</time></trkpt><trkpt lat="45.8074893" lon="13.8065157"><ele>283.0</ele><time>2026-04-06T15:13:01.986Z</time></trkpt><trkpt lat="45.8074076" lon="13.8064723"><ele>283.33333333333337</ele><time>2026-04-06T15:13:02.98Z</time></trkpt><trkpt lat="45.8073349" lon="13.8064324"><ele>283.6666666666667</ele><time>2026-04-06T15:13:03.983Z</time></trkpt><trkpt lat="45.807264" lon="13.8064003"><ele>284.0</ele><time>2026-04-06T15:13:04.976Z</time></trkpt><trkpt lat="45.8071963" lon="13.8063708"><ele>284.0</ele><time>2026-04-06T15:13:05.976Z</time></trkpt><trkpt lat="45.8071256" lon="13.8063342"><ele>284.0</ele><time>2026-04-06T15:13:06.996Z</time></trkpt><trkpt lat="45.80706" lon="13.806285"><ele>284.0</ele><time>2026-04-06T15:13:07.979Z</time></trkpt><trkpt lat="45.8070004" lon="13.80622"><ele>284.0</ele><time>2026-04-06T15:13:08.976Z</time></trkpt><trkpt lat="45.8069485" lon="13.8061421"><ele>284.0</ele><time>2026-04-06T15:13:09.977Z</time></trkpt><trkpt lat="45.8069025" lon="13.8060477"><ele>284.0</ele><time>2026-04-06T15:13:10.976Z</time></trkpt><trkpt lat="45.8068743" lon="13.805942"><ele>284.0</ele><time>2026-04-06T15:13:11.982Z</time></trkpt><trkpt lat="45.8068526" lon="13.8058394"><ele>284.0</ele><time>2026-04-06T15:13:12.985Z</time></trkpt><trkpt lat="45.8068242" lon="13.8057426"><ele>284.0</ele><time>2026-04-06T15:13:14.008Z</time></trkpt><trkpt lat="45.8067861" lon="13.8056616"><ele>284.0</ele><time>2026-04-06T15:13:14.975Z</time></trkpt><trkpt lat="45.806733" lon="13.8055886"><ele>284.0</ele><time>2026-04-06T15:13:15.967Z</time></trkpt><trkpt lat="45.8066661" lon="13.8055249"><ele>284.0</ele><time>2026-04-06T15:13:16.985Z</time></trkpt><trkpt lat="45.8065871" lon="13.8054646"><ele>284.0</ele><time>2026-04-06T15:13:17.983Z</time></trkpt><trkpt lat="45.8065102" lon="13.805411"><ele>284.0</ele><time>2026-04-06T15:13:18.982Z</time></trkpt><trkpt lat="45.8064302" lon="13.805365"><ele>284.0</ele><time>2026-04-06T15:13:19.973Z</time></trkpt><trkpt lat="45.8063453" lon="13.8053328"><ele>284.0</ele><time>2026-04-06T15:13:20.977Z</time></trkpt><trkpt lat="45.8062649" lon="13.8053104"><ele>284.0</ele><time>2026-04-06T15:13:21.982Z</time></trkpt><trkpt lat="45.8061885" lon="13.8052992"><ele>284.0</ele><time>2026-04-06T15:13:22.981Z</time></trkpt><trkpt lat="45.8061112" lon="13.8052808"><ele>284.0</ele><time>2026-04-06T15:13:23.983Z</time></trkpt><trkpt lat="45.8060367" lon="13.8052669"><ele>284.0</ele><time>2026-04-06T15:13:24.981Z</time></trkpt><trkpt lat="45.8059629" lon="13.8052571"><ele>284.0</ele><time>2026-04-06T15:13:25.974Z</time></trkpt><trkpt lat="45.8058861" lon="13.8052424"><ele>284.0</ele><time>2026-04-06T15:13:26.992Z</time></trkpt><trkpt lat="45.8058119" lon="13.8052182"><ele>284.0</ele><time>2026-04-06T15:13:27.978Z</time></trkpt><trkpt lat="45.8057432" lon="13.8051947"><ele>284.0</ele><time>2026-04-06T15:13:28.976Z</time></trkpt><trkpt lat="45.8056748" lon="13.8051754"><ele>284.0</ele><time>2026-04-06T15:13:29.977Z</time></trkpt><trkpt lat="45.8056033" lon="13.8051554"><ele>283.6666666666667</ele><time>2026-04-06T15:13:30.982Z</time></trkpt><trkpt lat="45.8055297" lon="13.8051393"><ele>283.33333333333337</ele><time>2026-04-06T15:13:31.992Z</time></trkpt><trkpt lat="45.8054539" lon="13.8051265"><ele>283.0</ele><time>2026-04-06T15:13:32.982Z</time></trkpt><trkpt lat="45.8053816" lon="13.80511"><ele>282.6666666666667</ele><time>2026-04-06T15:13:33.993Z</time></trkpt><trkpt lat="45.8052782" lon="13.8050846"><ele>282.3333333333333</ele><time>2026-04-06T15:13:35.988Z</time></trkpt><trkpt lat="45.8051598" lon="13.8050845"><ele>282.0</ele><time>2026-04-06T15:13:37.991Z</time></trkpt><trkpt lat="45.80508" lon="13.8051089"><ele>281.8333333333333</ele><time>2026-04-06T15:13:38.981Z</time></trkpt><trkpt lat="45.8049892" lon="13.8051192"><ele>281.6666666666667</ele><time>2026-04-06T15:13:39.973Z</time></trkpt><trkpt lat="45.8049002" lon="13.8051063"><ele>281.5</ele><time>2026-04-06T15:13:40.988Z</time></trkpt><trkpt lat="45.8048161" lon="13.8050799"><ele>281.33333333333337</ele><time>2026-04-06T15:13:41.986Z</time></trkpt><trkpt lat="45.804738" lon="13.8050509"><ele>281.1666666666667</ele><time>2026-04-06T15:13:42.999Z</time></trkpt><trkpt lat="45.8046603" lon="13.8050198"><ele>281.0</ele><time>2026-04-06T15:13:43.982Z</time></trkpt><trkpt lat="45.8045762" lon="13.804981"><ele>281.0</ele><time>2026-04-06T15:13:44.978Z</time></trkpt><trkpt lat="45.8044905" lon="13.8049401"><ele>281.0</ele><time>2026-04-06T15:13:45.974Z</time></trkpt><trkpt lat="45.8044037" lon="13.8049087"><ele>281.0</ele><time>2026-04-06T15:13:46.974Z</time></trkpt><trkpt lat="45.8043188" lon="13.8048801"><ele>281.0</ele><time>2026-04-06T15:13:47.974Z</time></trkpt><trkpt lat="45.804233" lon="13.8048499"><ele>281.0</ele><time>2026-04-06T15:13:48.983Z</time></trkpt><trkpt lat="45.8041486" lon="13.8048223"><ele>281.0</ele><time>2026-04-06T15:13:49.976Z</time></trkpt><trkpt lat="45.8040678" lon="13.8047913"><ele>280.6666666666667</ele><time>2026-04-06T15:13:50.974Z</time></trkpt><trkpt lat="45.8039953" lon="13.8047669"><ele>280.33333333333337</ele><time>2026-04-06T15:13:51.984Z</time></trkpt><trkpt lat="45.8039251" lon="13.8047468"><ele>280.0</ele><time>2026-04-06T15:13:53.984Z</time></trkpt><trkpt lat="45.803873" lon="13.8046874"><ele>279.6666666666667</ele><time>2026-04-06T15:13:56.974Z</time></trkpt><trkpt lat="45.8038202" lon="13.8045904"><ele>279.3333333333333</ele><time>2026-04-06T15:13:58.992Z</time></trkpt><trkpt lat="45.8037155" lon="13.8045106"><ele>279.0</ele><time>2026-04-06T15:14:00.984Z</time></trkpt><trkpt lat="45.803627" lon="13.8044657"><ele>279.0</ele><time>2026-04-06T15:14:01.987Z</time></trkpt><trkpt lat="45.8035236" lon="13.8044169"><ele>279.0</ele><time>2026-04-06T15:14:02.986Z</time></trkpt><trkpt lat="45.8034236" lon="13.8043659"><ele>279.0</ele><time>2026-04-06T15:14:03.982Z</time></trkpt><trkpt lat="45.8033312" lon="13.8043148"><ele>279.0</ele><time>2026-04-06T15:14:04.989Z</time></trkpt><trkpt lat="45.8032444" lon="13.8042633"><ele>279.0</ele><time>2026-04-06T15:14:05.983Z</time></trkpt><trkpt lat="45.8031639" lon="13.8042064"><ele>278.3333333333333</ele><time>2026-04-06T15:14:06.985Z</time></trkpt><trkpt lat="45.8030798" lon="13.8041503"><ele>277.6666666666667</ele><time>2026-04-06T15:14:07.986Z</time></trkpt><trkpt lat="45.8030001" lon="13.8040935"><ele>277.0</ele><time>2026-04-06T15:14:09.002Z</time></trkpt><trkpt lat="45.802929" lon="13.8040474"><ele>276.33333333333337</ele><time>2026-04-06T15:14:09.984Z</time></trkpt><trkpt lat="45.8028616" lon="13.8040086"><ele>275.6666666666667</ele><time>2026-04-06T15:14:10.974Z</time></trkpt><trkpt lat="45.8027963" lon="13.8039744"><ele>275.0</ele><time>2026-04-06T15:14:11.982Z</time></trkpt><trkpt lat="45.8027357" lon="13.8039428"><ele>275.0</ele><time>2026-04-06T15:14:12.979Z</time></trkpt><trkpt lat="45.802666" lon="13.8039174"><ele>275.0</ele><time>2026-04-06T15:14:14.985Z</time></trkpt><trkpt lat="45.8026003" lon="13.8039215"><ele>275.0</ele><time>2026-04-06T15:14:16.995Z</time></trkpt><trkpt lat="45.8025044" lon="13.8039495"><ele>275.0</ele><time>2026-04-06T15:14:19.981Z</time></trkpt><trkpt lat="45.8024382" lon="13.803995"><ele>275.0</ele><time>2026-04-06T15:14:21.985Z</time></trkpt><trkpt lat="45.8023618" lon="13.804033"><ele>275.0</ele><time>2026-04-06T15:14:25.985Z</time></trkpt><trkpt lat="45.8022895" lon="13.8040588"><ele>274.6666666666667</ele><time>2026-04-06T15:14:28.008Z</time></trkpt><trkpt lat="45.8022151" lon="13.8040713"><ele>274.33333333333337</ele><time>2026-04-06T15:14:29.981Z</time></trkpt><trkpt lat="45.8021428" lon="13.8040611"><ele>274.0</ele><time>2026-04-06T15:14:31.989Z</time></trkpt><trkpt lat="45.8020709" lon="13.8039884"><ele>273.6666666666667</ele><time>2026-04-06T15:14:34.98Z</time></trkpt><trkpt lat="45.8020236" lon="13.8038661"><ele>273.3333333333333</ele><time>2026-04-06T15:14:37.979Z</time></trkpt><trkpt lat="45.8019903" lon="13.8037494"><ele>273.0</ele><time>2026-04-06T15:14:39.993Z</time></trkpt><trkpt lat="45.8019567" lon="13.8036453"><ele>273.0</ele><time>2026-04-06T15:14:41.984Z</time></trkpt><trkpt lat="45.8019256" lon="13.8035376"><ele>273.0</ele><time>2026-04-06T15:14:43.974Z</time></trkpt><trkpt lat="45.8018936" lon="13.8034482"><ele>273.0</ele><time>2026-04-06T15:14:45.985Z</time></trkpt><trkpt lat="45.8018297" lon="13.8033498"><ele>273.0</ele><time>2026-04-06T15:14:48.982Z</time></trkpt><trkpt lat="45.8017595" lon="13.8032824"><ele>273.0</ele><time>2026-04-06T15:14:50.987Z</time></trkpt><trkpt lat="45.8016978" lon="13.8032163"><ele>273.0</ele><time>2026-04-06T15:14:52.984Z</time></trkpt><trkpt lat="45.8016634" lon="13.8031378"><ele>273.0</ele><time>2026-04-06T15:14:54.985Z</time></trkpt><trkpt lat="45.8016142" lon="13.8030074"><ele>273.0</ele><time>2026-04-06T15:14:57.975Z</time></trkpt><trkpt lat="45.8015936" lon="13.8028718"><ele>273.0</ele><time>2026-04-06T15:14:59.97Z</time></trkpt><trkpt lat="45.8015768" lon="13.8027607"><ele>273.0</ele><time>2026-04-06T15:15:01.98Z</time></trkpt><trkpt lat="45.8015615" lon="13.8026668"><ele>273.0</ele><time>2026-04-06T15:15:03.998Z</time></trkpt><trkpt lat="45.8015119" lon="13.8026039"><ele>273.0</ele><time>2026-04-06T15:15:05.978Z</time></trkpt><trkpt lat="45.8014437" lon="13.802577"><ele>273.0</ele><time>2026-04-06T15:15:07.973Z</time></trkpt><trkpt lat="45.8013745" lon="13.8025217"><ele>273.0</ele><time>2026-04-06T15:15:11Z</time></trkpt><trkpt lat="45.8013826" lon="13.802431"><ele>273.0</ele><time>2026-04-06T15:15:14.978Z</time></trkpt><trkpt lat="45.8014598" lon="13.8025123"><ele>273.0</ele><time>2026-04-06T15:15:17.978Z</time></trkpt><trkpt lat="45.801508" lon="13.8026256"><ele>273.0</ele><time>2026-04-06T15:15:19.973Z</time></trkpt><trkpt lat="45.8015505" lon="13.8027001"><ele>273.0</ele><time>2026-04-06T15:15:21.988Z</time></trkpt><trkpt lat="45.801575" lon="13.8028321"><ele>273.1666666666667</ele><time>2026-04-06T15:15:23.979Z</time></trkpt><trkpt lat="45.8016106" lon="13.8029912"><ele>273.3333333333333</ele><time>2026-04-06T15:15:25.989Z</time></trkpt><trkpt lat="45.8016619" lon="13.8031094"><ele>273.5</ele><time>2026-04-06T15:15:27.998Z</time></trkpt><trkpt lat="45.8016895" lon="13.803202"><ele>273.66666666666663</ele><time>2026-04-06T15:15:29.978Z</time></trkpt><trkpt lat="45.8017493" lon="13.8032881"><ele>273.8333333333333</ele><time>2026-04-06T15:15:34.97Z</time></trkpt><trkpt lat="45.8018095" lon="13.8033388"><ele>274.0</ele><time>2026-04-06T15:15:36.986Z</time></trkpt><trkpt lat="45.8018668" lon="13.803415"><ele>273.8333333333333</ele><time>2026-04-06T15:15:38.985Z</time></trkpt><trkpt lat="45.8019092" lon="13.8035084"><ele>273.66666666666663</ele><time>2026-04-06T15:15:40.989Z</time></trkpt><trkpt lat="45.8019451" lon="13.8036217"><ele>273.5</ele><time>2026-04-06T15:15:42.988Z</time></trkpt><trkpt lat="45.801978" lon="13.8037161"><ele>273.3333333333333</ele><time>2026-04-06T15:15:44.981Z</time></trkpt><trkpt lat="45.8020164" lon="13.8038469"><ele>273.1666666666667</ele><time>2026-04-06T15:15:47.988Z</time></trkpt><trkpt lat="45.8020523" lon="13.8039636"><ele>273.0</ele><time>2026-04-06T15:15:49.975Z</time></trkpt><trkpt lat="45.802096" lon="13.8040371"><ele>273.0</ele><time>2026-04-06T15:15:52.981Z</time></trkpt><trkpt lat="45.8021719" lon="13.8040796"><ele>273.0</ele><time>2026-04-06T15:15:55.973Z</time></trkpt><trkpt lat="45.8022565" lon="13.8040774"><ele>273.0</ele><time>2026-04-06T15:15:57.98Z</time></trkpt><trkpt lat="45.8023336" lon="13.8040653"><ele>273.0</ele><time>2026-04-06T15:15:59.983Z</time></trkpt><trkpt lat="45.8023945" lon="13.8040355"><ele>273.0</ele><time>2026-04-06T15:16:01.986Z</time></trkpt><trkpt lat="45.8024588" lon="13.8039946"><ele>273.0</ele><time>2026-04-06T15:16:03.993Z</time></trkpt><trkpt lat="45.8025239" lon="13.8039599"><ele>273.0</ele><time>2026-04-06T15:16:05.985Z</time></trkpt><trkpt lat="45.8025942" lon="13.8039341"><ele>273.4</ele><time>2026-04-06T15:16:07.982Z</time></trkpt><trkpt lat="45.8026774" lon="13.8039293"><ele>273.8</ele><time>2026-04-06T15:16:11.002Z</time></trkpt><trkpt lat="45.8027483" lon="13.8039574"><ele>274.2</ele><time>2026-04-06T15:16:12.974Z</time></trkpt><trkpt lat="45.8028536" lon="13.8040124"><ele>274.6</ele><time>2026-04-06T15:16:14.986Z</time></trkpt><trkpt lat="45.8029672" lon="13.8040806"><ele>275.0</ele><time>2026-04-06T15:16:17.009Z</time></trkpt><trkpt lat="45.8030816" lon="13.8041616"><ele>275.0</ele><time>2026-04-06T15:16:18.987Z</time></trkpt><trkpt lat="45.8031474" lon="13.8042055"><ele>275.0</ele><time>2026-04-06T15:16:19.987Z</time></trkpt><trkpt lat="45.8032187" lon="13.8042515"><ele>275.0</ele><time>2026-04-06T15:16:20.989Z</time></trkpt><trkpt lat="45.8032909" lon="13.8043013"><ele>275.0</ele><time>2026-04-06T15:16:21.997Z</time></trkpt><trkpt lat="45.8033764" lon="13.8043484"><ele>275.0</ele><time>2026-04-06T15:16:22.99Z</time></trkpt><trkpt lat="45.8034629" lon="13.8043935"><ele>275.0</ele><time>2026-04-06T15:16:23.992Z</time></trkpt><trkpt lat="45.8035467" lon="13.8044339"><ele>275.6666666666667</ele><time>2026-04-06T15:16:24.983Z</time></trkpt><trkpt lat="45.8036223" lon="13.8044664"><ele>276.33333333333337</ele><time>2026-04-06T15:16:25.985Z</time></trkpt><trkpt lat="45.8036907" lon="13.8045013"><ele>277.0</ele><time>2026-04-06T15:16:26.981Z</time></trkpt><trkpt lat="45.8037517" lon="13.8045338"><ele>277.6666666666667</ele><time>2026-04-06T15:16:27.979Z</time></trkpt><trkpt lat="45.8038495" lon="13.8046095"><ele>278.3333333333333</ele><time>2026-04-06T15:16:29.992Z</time></trkpt><trkpt lat="45.8038792" lon="13.8047101"><ele>279.0</ele><time>2026-04-06T15:16:31.988Z</time></trkpt><trkpt lat="45.803823" lon="13.8047557"><ele>279.0</ele><time>2026-04-06T15:16:34.971Z</time></trkpt><trkpt lat="45.8036949" lon="13.8047261"><ele>279.0</ele><time>2026-04-06T15:16:36.983Z</time></trkpt><trkpt lat="45.8035898" lon="13.8047233"><ele>279.0</ele><time>2026-04-06T15:16:37.973Z</time></trkpt><trkpt lat="45.8034666" lon="13.8047315"><ele>279.0</ele><time>2026-04-06T15:16:38.982Z</time></trkpt><trkpt lat="45.8033327" lon="13.8047501"><ele>277.5</ele><time>2026-04-06T15:16:39.976Z</time></trkpt><trkpt lat="45.8032013" lon="13.8047899"><ele>276.0</ele><time>2026-04-06T15:16:40.985Z</time></trkpt><trkpt lat="45.8030739" lon="13.8048463"><ele>274.5</ele><time>2026-04-06T15:16:41.974Z</time></trkpt><trkpt lat="45.802943" lon="13.804919"><ele>273.0</ele><time>2026-04-06T15:16:42.981Z</time></trkpt><trkpt lat="45.8028149" lon="13.8049968"><ele>273.0</ele><time>2026-04-06T15:16:43.981Z</time></trkpt><trkpt lat="45.8027008" lon="13.8050665"><ele>273.0</ele><time>2026-04-06T15:16:44.973Z</time></trkpt><trkpt lat="45.8025868" lon="13.8051368"><ele>273.0</ele><time>2026-04-06T15:16:45.979Z</time></trkpt><trkpt lat="45.8024707" lon="13.8052131"><ele>273.0</ele><time>2026-04-06T15:16:46.98Z</time></trkpt><trkpt lat="45.8023594" lon="13.8052821"><ele>272.25</ele><time>2026-04-06T15:16:47.977Z</time></trkpt><trkpt lat="45.8022362" lon="13.8053269"><ele>271.5</ele><time>2026-04-06T15:16:49.003Z</time></trkpt><trkpt lat="45.8021063" lon="13.8053691"><ele>270.75</ele><time>2026-04-06T15:16:49.981Z</time></trkpt><trkpt lat="45.8019815" lon="13.8054051"><ele>270.0</ele><time>2026-04-06T15:16:50.98Z</time></trkpt><trkpt lat="45.8018686" lon="13.8054409"><ele>269.8</ele><time>2026-04-06T15:16:51.975Z</time></trkpt><trkpt lat="45.8017632" lon="13.8054749"><ele>269.6</ele><time>2026-04-06T15:16:52.978Z</time></trkpt><trkpt lat="45.8016613" lon="13.8055092"><ele>269.4</ele><time>2026-04-06T15:16:53.975Z</time></trkpt><trkpt lat="45.8015686" lon="13.8055388"><ele>269.2</ele><time>2026-04-06T15:16:54.978Z</time></trkpt><trkpt lat="45.8014765" lon="13.8055565"><ele>269.0</ele><time>2026-04-06T15:16:55.982Z</time></trkpt><trkpt lat="45.8013877" lon="13.8055556"><ele>269.0</ele><time>2026-04-06T15:16:56.981Z</time></trkpt><trkpt lat="45.8012977" lon="13.8055335"><ele>269.0</ele><time>2026-04-06T15:16:57.995Z</time></trkpt><trkpt lat="45.801212" lon="13.805511"><ele>269.0</ele><time>2026-04-06T15:16:58.979Z</time></trkpt><trkpt lat="45.8011257" lon="13.8054977"><ele>269.0</ele><time>2026-04-06T15:16:59.978Z</time></trkpt><trkpt lat="45.8010387" lon="13.8054876"><ele>269.0</ele><time>2026-04-06T15:17:00.976Z</time></trkpt><trkpt lat="45.8009473" lon="13.8054788"><ele>269.0</ele><time>2026-04-06T15:17:01.976Z</time></trkpt><trkpt lat="45.8008534" lon="13.8054595"><ele>269.2</ele><time>2026-04-06T15:17:02.977Z</time></trkpt><trkpt lat="45.8007644" lon="13.8054119"><ele>269.4</ele><time>2026-04-06T15:17:03.975Z</time></trkpt><trkpt lat="45.8006756" lon="13.8053602"><ele>269.6</ele><time>2026-04-06T15:17:05Z</time></trkpt><trkpt lat="45.8005854" lon="13.8053087"><ele>269.8</ele><time>2026-04-06T15:17:05.968Z</time></trkpt><trkpt lat="45.8004952" lon="13.805259"><ele>270.0</ele><time>2026-04-06T15:17:06.975Z</time></trkpt><trkpt lat="45.8004002" lon="13.8052067"><ele>270.2</ele><time>2026-04-06T15:17:07.976Z</time></trkpt><trkpt lat="45.8003029" lon="13.8051494"><ele>270.4</ele><time>2026-04-06T15:17:08.968Z</time></trkpt><trkpt lat="45.800205" lon="13.8051002"><ele>270.6</ele><time>2026-04-06T15:17:09.989Z</time></trkpt><trkpt lat="45.8001076" lon="13.8050598"><ele>270.8</ele><time>2026-04-06T15:17:10.976Z</time></trkpt><trkpt lat="45.8000077" lon="13.8050277"><ele>271.0</ele><time>2026-04-06T15:17:11.983Z</time></trkpt><trkpt lat="45.7999095" lon="13.8049994"><ele>271.40000000000003</ele><time>2026-04-06T15:17:12.981Z</time></trkpt><trkpt lat="45.7998139" lon="13.8049707"><ele>271.8</ele><time>2026-04-06T15:17:13.975Z</time></trkpt><trkpt lat="45.7997226" lon="13.8049403"><ele>272.20000000000005</ele><time>2026-04-06T15:17:14.977Z</time></trkpt><trkpt lat="45.7996256" lon="13.804921"><ele>272.6</ele><time>2026-04-06T15:17:15.975Z</time></trkpt><trkpt lat="45.7995216" lon="13.8049288"><ele>273.0</ele><time>2026-04-06T15:17:16.986Z</time></trkpt><trkpt lat="45.7994212" lon="13.8049472"><ele>272.6</ele><time>2026-04-06T15:17:17.974Z</time></trkpt><trkpt lat="45.7993259" lon="13.8049634"><ele>272.20000000000005</ele><time>2026-04-06T15:17:18.975Z</time></trkpt><trkpt lat="45.7992222" lon="13.8049627"><ele>271.8</ele><time>2026-04-06T15:17:19.971Z</time></trkpt><trkpt lat="45.7991263" lon="13.8049495"><ele>271.40000000000003</ele><time>2026-04-06T15:17:20.979Z</time></trkpt><trkpt lat="45.7990293" lon="13.8049447"><ele>271.0</ele><time>2026-04-06T15:17:21.978Z</time></trkpt><trkpt lat="45.7989243" lon="13.804951"><ele>271.0</ele><time>2026-04-06T15:17:22.981Z</time></trkpt><trkpt lat="45.7988105" lon="13.8049785"><ele>271.0</ele><time>2026-04-06T15:17:23.967Z</time></trkpt><trkpt lat="45.7986977" lon="13.8050171"><ele>271.0</ele><time>2026-04-06T15:17:24.988Z</time></trkpt><trkpt lat="45.7985912" lon="13.8050581"><ele>271.0</ele><time>2026-04-06T15:17:25.975Z</time></trkpt><trkpt lat="45.7985097" lon="13.8050937"><ele>271.0</ele><time>2026-04-06T15:17:26.979Z</time></trkpt><trkpt lat="45.7984435" lon="13.8051276"><ele>270.2</ele><time>2026-04-06T15:17:27.98Z</time></trkpt><trkpt lat="45.7983705" lon="13.8051731"><ele>269.40000000000003</ele><time>2026-04-06T15:17:28.983Z</time></trkpt><trkpt lat="45.7982839" lon="13.805227"><ele>268.6</ele><time>2026-04-06T15:17:29.986Z</time></trkpt><trkpt lat="45.7981876" lon="13.8052826"><ele>267.8</ele><time>2026-04-06T15:17:30.979Z</time></trkpt><trkpt lat="45.7980843" lon="13.8053363"><ele>267.0</ele><time>2026-04-06T15:17:31.971Z</time></trkpt><trkpt lat="45.7979801" lon="13.8053631"><ele>267.0</ele><time>2026-04-06T15:17:32.976Z</time></trkpt><trkpt lat="45.7978753" lon="13.8053785"><ele>267.0</ele><time>2026-04-06T15:17:33.976Z</time></trkpt><trkpt lat="45.7977728" lon="13.8053904"><ele>267.0</ele><time>2026-04-06T15:17:34.979Z</time></trkpt><trkpt lat="45.7976715" lon="13.8054005"><ele>267.0</ele><time>2026-04-06T15:17:35.986Z</time></trkpt><trkpt lat="45.7975736" lon="13.8054078"><ele>267.0</ele><time>2026-04-06T15:17:36.976Z</time></trkpt><trkpt lat="45.7974775" lon="13.8054119"><ele>266.6</ele><time>2026-04-06T15:17:37.989Z</time></trkpt><trkpt lat="45.7973829" lon="13.8054126"><ele>266.2</ele><time>2026-04-06T15:17:38.975Z</time></trkpt><trkpt lat="45.7972893" lon="13.8054105"><ele>265.8</ele><time>2026-04-06T15:17:39.979Z</time></trkpt><trkpt lat="45.797189" lon="13.8053993"><ele>265.4</ele><time>2026-04-06T15:17:40.988Z</time></trkpt><trkpt lat="45.7970855" lon="13.8053744"><ele>265.0</ele><time>2026-04-06T15:17:41.978Z</time></trkpt><trkpt lat="45.7969844" lon="13.8053452"><ele>265.0</ele><time>2026-04-06T15:17:42.991Z</time></trkpt><trkpt lat="45.7968817" lon="13.8053062"><ele>265.0</ele><time>2026-04-06T15:17:43.983Z</time></trkpt><trkpt lat="45.7967761" lon="13.8052575"><ele>265.0</ele><time>2026-04-06T15:17:44.993Z</time></trkpt><trkpt lat="45.7966628" lon="13.8052146"><ele>265.0</ele><time>2026-04-06T15:17:45.976Z</time></trkpt><trkpt lat="45.796552" lon="13.8051726"><ele>265.0</ele><time>2026-04-06T15:17:46.979Z</time></trkpt><trkpt lat="45.7964513" lon="13.805126"><ele>264.4</ele><time>2026-04-06T15:17:47.985Z</time></trkpt><trkpt lat="45.7963567" lon="13.8050774"><ele>263.8</ele><time>2026-04-06T15:17:48.975Z</time></trkpt><trkpt lat="45.7962658" lon="13.8050346"><ele>263.2</ele><time>2026-04-06T15:17:49.971Z</time></trkpt><trkpt lat="45.7961718" lon="13.8050002"><ele>262.6</ele><time>2026-04-06T15:17:50.982Z</time></trkpt><trkpt lat="45.796071" lon="13.8049566"><ele>262.0</ele><time>2026-04-06T15:17:51.97Z</time></trkpt><trkpt lat="45.7959653" lon="13.804883"><ele>261.6</ele><time>2026-04-06T15:17:52.977Z</time></trkpt><trkpt lat="45.7958624" lon="13.8047954"><ele>261.2</ele><time>2026-04-06T15:17:53.974Z</time></trkpt><trkpt lat="45.7957692" lon="13.8047012"><ele>260.8</ele><time>2026-04-06T15:17:54.977Z</time></trkpt><trkpt lat="45.795688" lon="13.8046126"><ele>260.4</ele><time>2026-04-06T15:17:55.977Z</time></trkpt><trkpt lat="45.7956009" lon="13.8045327"><ele>260.0</ele><time>2026-04-06T15:17:56.976Z</time></trkpt><trkpt lat="45.7955155" lon="13.8044548"><ele>260.0</ele><time>2026-04-06T15:17:57.997Z</time></trkpt><trkpt lat="45.7954352" lon="13.8043759"><ele>260.0</ele><time>2026-04-06T15:17:58.977Z</time></trkpt><trkpt lat="45.7953551" lon="13.8042794"><ele>260.0</ele><time>2026-04-06T15:17:59.988Z</time></trkpt><trkpt lat="45.7952727" lon="13.8041697"><ele>260.0</ele><time>2026-04-06T15:18:00.975Z</time></trkpt><trkpt lat="45.7951932" lon="13.8040562"><ele>260.0</ele><time>2026-04-06T15:18:01.977Z</time></trkpt><trkpt lat="45.7951116" lon="13.8039429"><ele>259.75</ele><time>2026-04-06T15:18:02.976Z</time></trkpt><trkpt lat="45.7950305" lon="13.8038258"><ele>259.5</ele><time>2026-04-06T15:18:03.986Z</time></trkpt><trkpt lat="45.7949478" lon="13.8037035"><ele>259.25</ele><time>2026-04-06T15:18:04.983Z</time></trkpt><trkpt lat="45.7948748" lon="13.8035735"><ele>259.0</ele><time>2026-04-06T15:18:05.98Z</time></trkpt><trkpt lat="45.794812" lon="13.8034373"><ele>259.0</ele><time>2026-04-06T15:18:06.98Z</time></trkpt><trkpt lat="45.7947599" lon="13.8032924"><ele>259.0</ele><time>2026-04-06T15:18:07.972Z</time></trkpt><trkpt lat="45.7947182" lon="13.8031505"><ele>259.0</ele><time>2026-04-06T15:18:08.979Z</time></trkpt><trkpt lat="45.7946835" lon="13.8030169"><ele>259.0</ele><time>2026-04-06T15:18:09.972Z</time></trkpt><trkpt lat="45.7946607" lon="13.8028985"><ele>259.0</ele><time>2026-04-06T15:18:10.989Z</time></trkpt><trkpt lat="45.7946292" lon="13.8028174"><ele>259.0</ele><time>2026-04-06T15:18:12.982Z</time></trkpt><trkpt lat="45.7946241" lon="13.8027098"><ele>259.0</ele><time>2026-04-06T15:18:15.989Z</time></trkpt><trkpt lat="45.7946558" lon="13.8026113"><ele>259.0</ele><time>2026-04-06T15:18:16.972Z</time></trkpt><trkpt lat="45.7947017" lon="13.8024859"><ele>259.0</ele><time>2026-04-06T15:18:17.988Z</time></trkpt><trkpt lat="45.7947307" lon="13.8023536"><ele>259.0</ele><time>2026-04-06T15:18:18.984Z</time></trkpt><trkpt lat="45.794758" lon="13.8022165"><ele>259.0</ele><time>2026-04-06T15:18:19.987Z</time></trkpt><trkpt lat="45.7947899" lon="13.8020625"><ele>259.25</ele><time>2026-04-06T15:18:20.982Z</time></trkpt><trkpt lat="45.7948286" lon="13.8019081"><ele>259.5</ele><time>2026-04-06T15:18:21.979Z</time></trkpt><trkpt lat="45.7948781" lon="13.8017651"><ele>259.75</ele><time>2026-04-06T15:18:22.975Z</time></trkpt><trkpt lat="45.7949495" lon="13.801639"><ele>260.0</ele><time>2026-04-06T15:18:23.974Z</time></trkpt><trkpt lat="45.7950293" lon="13.8015125"><ele>260.25</ele><time>2026-04-06T15:18:24.991Z</time></trkpt><trkpt lat="45.7951167" lon="13.8013751"><ele>260.5</ele><time>2026-04-06T15:18:25.981Z</time></trkpt><trkpt lat="45.7952064" lon="13.8012223"><ele>260.75</ele><time>2026-04-06T15:18:26.994Z</time></trkpt><trkpt lat="45.7953015" lon="13.8010556"><ele>261.0</ele><time>2026-04-06T15:18:27.972Z</time></trkpt><trkpt lat="45.795402" lon="13.8008759"><ele>262.6666666666667</ele><time>2026-04-06T15:18:28.984Z</time></trkpt><trkpt lat="45.7955046" lon="13.8006914"><ele>264.33333333333337</ele><time>2026-04-06T15:18:29.982Z</time></trkpt><trkpt lat="45.7956134" lon="13.8005091"><ele>266.0</ele><time>2026-04-06T15:18:30.972Z</time></trkpt><trkpt lat="45.7957278" lon="13.8003304"><ele>266.0</ele><time>2026-04-06T15:18:31.983Z</time></trkpt><trkpt lat="45.7958373" lon="13.8001474"><ele>266.0</ele><time>2026-04-06T15:18:32.988Z</time></trkpt><trkpt lat="45.7959466" lon="13.7999606"><ele>266.0</ele><time>2026-04-06T15:18:33.983Z</time></trkpt><trkpt lat="45.7960559" lon="13.7997704"><ele>266.0</ele><time>2026-04-06T15:18:34.983Z</time></trkpt><trkpt lat="45.7961696" lon="13.7995807"><ele>266.0</ele><time>2026-04-06T15:18:35.975Z</time></trkpt><trkpt lat="45.7962829" lon="13.7993979"><ele>266.0</ele><time>2026-04-06T15:18:36.981Z</time></trkpt><trkpt lat="45.7963933" lon="13.7992153"><ele>266.0</ele><time>2026-04-06T15:18:37.972Z</time></trkpt><trkpt lat="45.7965021" lon="13.7990345"><ele>266.0</ele><time>2026-04-06T15:18:38.979Z</time></trkpt><trkpt lat="45.7966072" lon="13.7988577"><ele>266.0</ele><time>2026-04-06T15:18:39.977Z</time></trkpt><trkpt lat="45.7967034" lon="13.7986942"><ele>266.0</ele><time>2026-04-06T15:18:40.97Z</time></trkpt><trkpt lat="45.7967973" lon="13.7985385"><ele>266.0</ele><time>2026-04-06T15:18:41.974Z</time></trkpt><trkpt lat="45.7968885" lon="13.7983859"><ele>266.0</ele><time>2026-04-06T15:18:42.979Z</time></trkpt><trkpt lat="45.7969825" lon="13.7982306"><ele>266.0</ele><time>2026-04-06T15:18:43.973Z</time></trkpt><trkpt lat="45.7970798" lon="13.7980653"><ele>267.0</ele><time>2026-04-06T15:18:44.973Z</time></trkpt><trkpt lat="45.7971819" lon="13.7978937"><ele>268.0</ele><time>2026-04-06T15:18:45.984Z</time></trkpt><trkpt lat="45.7972885" lon="13.7977172"><ele>269.0</ele><time>2026-04-06T15:18:46.972Z</time></trkpt><trkpt lat="45.7974006" lon="13.7975352"><ele>269.0</ele><time>2026-04-06T15:18:47.972Z</time></trkpt><trkpt lat="45.7975181" lon="13.7973491"><ele>269.0</ele><time>2026-04-06T15:18:48.979Z</time></trkpt><trkpt lat="45.7976316" lon="13.7971598"><ele>269.0</ele><time>2026-04-06T15:18:49.983Z</time></trkpt><trkpt lat="45.7977394" lon="13.7969787"><ele>270.0</ele><time>2026-04-06T15:18:50.98Z</time></trkpt><trkpt lat="45.797847" lon="13.7968026"><ele>271.0</ele><time>2026-04-06T15:18:51.98Z</time></trkpt><trkpt lat="45.7979481" lon="13.7966313"><ele>272.0</ele><time>2026-04-06T15:18:52.973Z</time></trkpt><trkpt lat="45.7980496" lon="13.7964594"><ele>272.0</ele><time>2026-04-06T15:18:53.977Z</time></trkpt><trkpt lat="45.7981495" lon="13.7962913"><ele>272.0</ele><time>2026-04-06T15:18:54.976Z</time></trkpt><trkpt lat="45.7982502" lon="13.7961289"><ele>272.0</ele><time>2026-04-06T15:18:55.974Z</time></trkpt><trkpt lat="45.7983497" lon="13.7959635"><ele>271.33333333333337</ele><time>2026-04-06T15:18:56.978Z</time></trkpt><trkpt lat="45.7984479" lon="13.7957922"><ele>270.6666666666667</ele><time>2026-04-06T15:18:57.968Z</time></trkpt><trkpt lat="45.7985494" lon="13.7956203"><ele>270.0</ele><time>2026-04-06T15:18:58.981Z</time></trkpt><trkpt lat="45.7986481" lon="13.7954543"><ele>271.75</ele><time>2026-04-06T15:18:59.973Z</time></trkpt><trkpt lat="45.7987474" lon="13.7952862"><ele>273.5</ele><time>2026-04-06T15:19:00.977Z</time></trkpt><trkpt lat="45.7988446" lon="13.7951222"><ele>275.25</ele><time>2026-04-06T15:19:01.976Z</time></trkpt><trkpt lat="45.7989401" lon="13.7949643"><ele>277.0</ele><time>2026-04-06T15:19:02.98Z</time></trkpt><trkpt lat="45.7990336" lon="13.7947972"><ele>277.0</ele><time>2026-04-06T15:19:03.975Z</time></trkpt><trkpt lat="45.7991251" lon="13.7946414"><ele>277.0</ele><time>2026-04-06T15:19:04.985Z</time></trkpt><trkpt lat="45.79922" lon="13.7944777"><ele>277.0</ele><time>2026-04-06T15:19:05.98Z</time></trkpt><trkpt lat="45.7993167" lon="13.79432"><ele>277.0</ele><time>2026-04-06T15:19:06.972Z</time></trkpt><trkpt lat="45.7994129" lon="13.7941609"><ele>277.75</ele><time>2026-04-06T15:19:07.984Z</time></trkpt><trkpt lat="45.7995035" lon="13.7940007"><ele>278.5</ele><time>2026-04-06T15:19:08.986Z</time></trkpt><trkpt lat="45.7995956" lon="13.7938442"><ele>279.25</ele><time>2026-04-06T15:19:09.977Z</time></trkpt><trkpt lat="45.7996865" lon="13.7936902"><ele>280.0</ele><time>2026-04-06T15:19:10.984Z</time></trkpt><trkpt lat="45.7997794" lon="13.7935386"><ele>280.0</ele><time>2026-04-06T15:19:11.975Z</time></trkpt><trkpt lat="45.7998757" lon="13.7933856"><ele>280.0</ele><time>2026-04-06T15:19:12.976Z</time></trkpt><trkpt lat="45.7999777" lon="13.7932283"><ele>280.0</ele><time>2026-04-06T15:19:13.971Z</time></trkpt><trkpt lat="45.8000884" lon="13.7930789"><ele>280.0</ele><time>2026-04-06T15:19:14.976Z</time></trkpt><trkpt lat="45.8002117" lon="13.7929418"><ele>280.0</ele><time>2026-04-06T15:19:15.979Z</time></trkpt><trkpt lat="45.8003417" lon="13.792815"><ele>280.0</ele><time>2026-04-06T15:19:16.977Z</time></trkpt><trkpt lat="45.8004765" lon="13.7926859"><ele>280.0</ele><time>2026-04-06T15:19:17.985Z</time></trkpt><trkpt lat="45.8006053" lon="13.7925649"><ele>280.25</ele><time>2026-04-06T15:19:18.977Z</time></trkpt><trkpt lat="45.8007247" lon="13.7924496"><ele>280.5</ele><time>2026-04-06T15:19:19.982Z</time></trkpt><trkpt lat="45.8008327" lon="13.7923333"><ele>280.75</ele><time>2026-04-06T15:19:20.979Z</time></trkpt><trkpt lat="45.8009332" lon="13.7922293"><ele>281.0</ele><time>2026-04-06T15:19:21.982Z</time></trkpt><trkpt lat="45.801034" lon="13.7921229"><ele>281.0</ele><time>2026-04-06T15:19:22.981Z</time></trkpt><trkpt lat="45.8011374" lon="13.7920188"><ele>281.0</ele><time>2026-04-06T15:19:23.979Z</time></trkpt><trkpt lat="45.8012457" lon="13.7919199"><ele>281.0</ele><time>2026-04-06T15:19:24.979Z</time></trkpt><trkpt lat="45.8013586" lon="13.7918238"><ele>281.0</ele><time>2026-04-06T15:19:25.969Z</time></trkpt><trkpt lat="45.8014692" lon="13.7917182"><ele>281.25</ele><time>2026-04-06T15:19:26.98Z</time></trkpt><trkpt lat="45.8015703" lon="13.7916031"><ele>281.5</ele><time>2026-04-06T15:19:27.976Z</time></trkpt><trkpt lat="45.8016562" lon="13.7914802"><ele>281.75</ele><time>2026-04-06T15:19:28.976Z</time></trkpt><trkpt lat="45.8017331" lon="13.7913503"><ele>282.0</ele><time>2026-04-06T15:19:29.985Z</time></trkpt><trkpt lat="45.8017973" lon="13.7912152"><ele>282.25</ele><time>2026-04-06T15:19:30.979Z</time></trkpt><trkpt lat="45.801852" lon="13.7910766"><ele>282.5</ele><time>2026-04-06T15:19:31.975Z</time></trkpt><trkpt lat="45.801908" lon="13.7909377"><ele>282.75</ele><time>2026-04-06T15:19:32.977Z</time></trkpt><trkpt lat="45.8019714" lon="13.7907872"><ele>283.0</ele><time>2026-04-06T15:19:33.975Z</time></trkpt><trkpt lat="45.8020435" lon="13.79063"><ele>282.4</ele><time>2026-04-06T15:19:34.989Z</time></trkpt><trkpt lat="45.8021122" lon="13.7904921"><ele>281.8</ele><time>2026-04-06T15:19:35.975Z</time></trkpt><trkpt lat="45.8021864" lon="13.7903729"><ele>281.2</ele><time>2026-04-06T15:19:36.98Z</time></trkpt><trkpt lat="45.8022638" lon="13.7902676"><ele>280.6</ele><time>2026-04-06T15:19:37.973Z</time></trkpt><trkpt lat="45.8023404" lon="13.7901783"><ele>280.0</ele><time>2026-04-06T15:19:38.987Z</time></trkpt><trkpt lat="45.8024176" lon="13.7900942"><ele>279.6</ele><time>2026-04-06T15:19:39.976Z</time></trkpt><trkpt lat="45.8024952" lon="13.7900094"><ele>279.2</ele><time>2026-04-06T15:19:40.984Z</time></trkpt><trkpt lat="45.802571" lon="13.7899257"><ele>278.8</ele><time>2026-04-06T15:19:41.98Z</time></trkpt><trkpt lat="45.802644" lon="13.7898531"><ele>278.4</ele><time>2026-04-06T15:19:42.982Z</time></trkpt><trkpt lat="45.8027132" lon="13.7897813"><ele>278.0</ele><time>2026-04-06T15:19:43.976Z</time></trkpt><trkpt lat="45.8027819" lon="13.7897072"><ele>277.8</ele><time>2026-04-06T15:19:44.971Z</time></trkpt><trkpt lat="45.8028448" lon="13.7896334"><ele>277.6</ele><time>2026-04-06T15:19:45.988Z</time></trkpt><trkpt lat="45.8029008" lon="13.7895487"><ele>277.4</ele><time>2026-04-06T15:19:46.983Z</time></trkpt><trkpt lat="45.8029529" lon="13.7894414"><ele>277.2</ele><time>2026-04-06T15:19:47.992Z</time></trkpt><trkpt lat="45.802999" lon="13.7893137"><ele>277.0</ele><time>2026-04-06T15:19:48.975Z</time></trkpt><trkpt lat="45.8030458" lon="13.7891687"><ele>276.8</ele><time>2026-04-06T15:19:49.974Z</time></trkpt><trkpt lat="45.8030907" lon="13.7890236"><ele>276.6</ele><time>2026-04-06T15:19:50.977Z</time></trkpt><trkpt lat="45.8031319" lon="13.7888874"><ele>276.40000000000003</ele><time>2026-04-06T15:19:51.972Z</time></trkpt><trkpt lat="45.803173" lon="13.7887543"><ele>276.2</ele><time>2026-04-06T15:19:52.972Z</time></trkpt><trkpt lat="45.8032128" lon="13.7886204"><ele>276.0</ele><time>2026-04-06T15:19:53.978Z</time></trkpt><trkpt lat="45.8032483" lon="13.7884921"><ele>276.40000000000003</ele><time>2026-04-06T15:19:54.977Z</time></trkpt><trkpt lat="45.8032883" lon="13.7883675"><ele>276.8</ele><time>2026-04-06T15:19:55.986Z</time></trkpt><trkpt lat="45.8033271" lon="13.788241"><ele>277.20000000000005</ele><time>2026-04-06T15:19:56.979Z</time></trkpt><trkpt lat="45.8033709" lon="13.7881047"><ele>277.6</ele><time>2026-04-06T15:19:57.975Z</time></trkpt><trkpt lat="45.8034175" lon="13.7879658"><ele>278.0</ele><time>2026-04-06T15:19:58.974Z</time></trkpt><trkpt lat="45.8034692" lon="13.7878303"><ele>277.6</ele><time>2026-04-06T15:19:59.989Z</time></trkpt><trkpt lat="45.8035298" lon="13.7876932"><ele>277.20000000000005</ele><time>2026-04-06T15:20:00.978Z</time></trkpt><trkpt lat="45.8036053" lon="13.7875676"><ele>276.8</ele><time>2026-04-06T15:20:01.975Z</time></trkpt><trkpt lat="45.8036843" lon="13.7874619"><ele>276.40000000000003</ele><time>2026-04-06T15:20:02.981Z</time></trkpt><trkpt lat="45.803759" lon="13.7873588"><ele>276.0</ele><time>2026-04-06T15:20:03.981Z</time></trkpt><trkpt lat="45.80383" lon="13.7872524"><ele>275.8</ele><time>2026-04-06T15:20:04.973Z</time></trkpt><trkpt lat="45.8038899" lon="13.787156"><ele>275.6</ele><time>2026-04-06T15:20:05.986Z</time></trkpt><trkpt lat="45.8039473" lon="13.7870602"><ele>275.4</ele><time>2026-04-06T15:20:06.971Z</time></trkpt><trkpt lat="45.8040018" lon="13.7869699"><ele>275.2</ele><time>2026-04-06T15:20:07.978Z</time></trkpt><trkpt lat="45.8040731" lon="13.7868717"><ele>275.0</ele><time>2026-04-06T15:20:08.98Z</time></trkpt><trkpt lat="45.8041599" lon="13.7867616"><ele>274.6</ele><time>2026-04-06T15:20:09.977Z</time></trkpt><trkpt lat="45.8042455" lon="13.786641"><ele>274.2</ele><time>2026-04-06T15:20:10.979Z</time></trkpt><trkpt lat="45.8043254" lon="13.7865275"><ele>273.8</ele><time>2026-04-06T15:20:11.969Z</time></trkpt><trkpt lat="45.8043925" lon="13.7864119"><ele>273.4</ele><time>2026-04-06T15:20:12.988Z</time></trkpt><trkpt lat="45.8044519" lon="13.7862946"><ele>273.0</ele><time>2026-04-06T15:20:13.976Z</time></trkpt><trkpt lat="45.804503" lon="13.7861819"><ele>273.0</ele><time>2026-04-06T15:20:14.973Z</time></trkpt><trkpt lat="45.804549" lon="13.7860868"><ele>273.0</ele><time>2026-04-06T15:20:15.976Z</time></trkpt><trkpt lat="45.8045934" lon="13.786"><ele>273.0</ele><time>2026-04-06T15:20:16.971Z</time></trkpt><trkpt lat="45.8046389" lon="13.7859093"><ele>273.0</ele><time>2026-04-06T15:20:17.978Z</time></trkpt><trkpt lat="45.8046894" lon="13.7858136"><ele>273.0</ele><time>2026-04-06T15:20:18.982Z</time></trkpt><trkpt lat="45.8047438" lon="13.7857014"><ele>273.0</ele><time>2026-04-06T15:20:19.978Z</time></trkpt><trkpt lat="45.8047976" lon="13.7855913"><ele>273.75</ele><time>2026-04-06T15:20:20.979Z</time></trkpt><trkpt lat="45.8048505" lon="13.7854795"><ele>274.5</ele><time>2026-04-06T15:20:21.98Z</time></trkpt><trkpt lat="45.8049084" lon="13.7853492"><ele>275.25</ele><time>2026-04-06T15:20:22.973Z</time></trkpt><trkpt lat="45.8049649" lon="13.7851907"><ele>276.0</ele><time>2026-04-06T15:20:23.976Z</time></trkpt><trkpt lat="45.8050156" lon="13.785016"><ele>276.0</ele><time>2026-04-06T15:20:24.976Z</time></trkpt><trkpt lat="45.8050763" lon="13.7848469"><ele>276.0</ele><time>2026-04-06T15:20:25.992Z</time></trkpt><trkpt lat="45.8051494" lon="13.7847022"><ele>276.0</ele><time>2026-04-06T15:20:26.973Z</time></trkpt><trkpt lat="45.8052299" lon="13.784589"><ele>276.0</ele><time>2026-04-06T15:20:27.971Z</time></trkpt><trkpt lat="45.8053145" lon="13.7844847"><ele>275.40000000000003</ele><time>2026-04-06T15:20:28.977Z</time></trkpt><trkpt lat="45.8054053" lon="13.7843731"><ele>274.8</ele><time>2026-04-06T15:20:29.974Z</time></trkpt><trkpt lat="45.8054965" lon="13.7842776"><ele>274.20000000000005</ele><time>2026-04-06T15:20:30.985Z</time></trkpt><trkpt lat="45.8055831" lon="13.7841967"><ele>273.6</ele><time>2026-04-06T15:20:31.973Z</time></trkpt><trkpt lat="45.8056689" lon="13.7841175"><ele>273.0</ele><time>2026-04-06T15:20:32.984Z</time></trkpt><trkpt lat="45.8057514" lon="13.7840355"><ele>272.5</ele><time>2026-04-06T15:20:33.979Z</time></trkpt><trkpt lat="45.8058343" lon="13.7839334"><ele>272.0</ele><time>2026-04-06T15:20:34.975Z</time></trkpt><trkpt lat="45.8059158" lon="13.7838185"><ele>271.5</ele><time>2026-04-06T15:20:35.981Z</time></trkpt><trkpt lat="45.805994" lon="13.7836967"><ele>271.0</ele><time>2026-04-06T15:20:36.979Z</time></trkpt><trkpt lat="45.8060771" lon="13.7835887"><ele>271.0</ele><time>2026-04-06T15:20:37.97Z</time></trkpt><trkpt lat="45.8061739" lon="13.7834792"><ele>271.0</ele><time>2026-04-06T15:20:38.981Z</time></trkpt><trkpt lat="45.806266" lon="13.7833711"><ele>271.0</ele><time>2026-04-06T15:20:39.977Z</time></trkpt><trkpt lat="45.806339" lon="13.7832566"><ele>271.0</ele><time>2026-04-06T15:20:40.984Z</time></trkpt><trkpt lat="45.8063983" lon="13.7831509"><ele>271.0</ele><time>2026-04-06T15:20:41.974Z</time></trkpt><trkpt lat="45.8064543" lon="13.7830515"><ele>271.0</ele><time>2026-04-06T15:20:42.969Z</time></trkpt><trkpt lat="45.8065067" lon="13.782956"><ele>271.0</ele><time>2026-04-06T15:20:43.987Z</time></trkpt><trkpt lat="45.8065618" lon="13.7828479"><ele>271.0</ele><time>2026-04-06T15:20:45.98Z</time></trkpt><trkpt lat="45.806606" lon="13.782747"><ele>271.0</ele><time>2026-04-06T15:20:47.972Z</time></trkpt><trkpt lat="45.806626" lon="13.7826581"><ele>271.0</ele><time>2026-04-06T15:20:48.975Z</time></trkpt><trkpt lat="45.8066398" lon="13.7825454"><ele>271.0</ele><time>2026-04-06T15:20:49.973Z</time></trkpt><trkpt lat="45.8066455" lon="13.7824065"><ele>271.40000000000003</ele><time>2026-04-06T15:20:50.972Z</time></trkpt><trkpt lat="45.8066456" lon="13.7822642"><ele>271.8</ele><time>2026-04-06T15:20:51.969Z</time></trkpt><trkpt lat="45.8066429" lon="13.7821211"><ele>272.20000000000005</ele><time>2026-04-06T15:20:52.976Z</time></trkpt><trkpt lat="45.8066471" lon="13.7819645"><ele>272.6</ele><time>2026-04-06T15:20:53.972Z</time></trkpt><trkpt lat="45.8066558" lon="13.7818126"><ele>273.0</ele><time>2026-04-06T15:20:54.983Z</time></trkpt><trkpt lat="45.8066704" lon="13.7816704"><ele>273.8333333333333</ele><time>2026-04-06T15:20:55.972Z</time></trkpt><trkpt lat="45.8066989" lon="13.7815587"><ele>274.6666666666667</ele><time>2026-04-06T15:20:56.968Z</time></trkpt><trkpt lat="45.8067363" lon="13.7814536"><ele>275.5</ele><time>2026-04-06T15:20:57.97Z</time></trkpt><trkpt lat="45.8067824" lon="13.7813629"><ele>276.33333333333337</ele><time>2026-04-06T15:20:58.967Z</time></trkpt><trkpt lat="45.8068329" lon="13.7813016"><ele>277.1666666666667</ele><time>2026-04-06T15:20:59.971Z</time></trkpt><trkpt lat="45.8069313" lon="13.7812254"><ele>278.0</ele><time>2026-04-06T15:21:01.973Z</time></trkpt><trkpt lat="45.8070136" lon="13.7811689"><ele>278.0</ele><time>2026-04-06T15:21:03.968Z</time></trkpt><trkpt lat="45.8071001" lon="13.7810884"><ele>278.0</ele><time>2026-04-06T15:21:05.97Z</time></trkpt><trkpt lat="45.8071545" lon="13.7810329"><ele>278.0</ele><time>2026-04-06T15:21:06.973Z</time></trkpt><trkpt lat="45.8072072" lon="13.7809748"><ele>278.0</ele><time>2026-04-06T15:21:07.968Z</time></trkpt><trkpt lat="45.8072688" lon="13.7809145"><ele>278.0</ele><time>2026-04-06T15:21:08.973Z</time></trkpt><trkpt lat="45.8073432" lon="13.7808419"><ele>278.0</ele><time>2026-04-06T15:21:09.979Z</time></trkpt><trkpt lat="45.8074342" lon="13.7807556"><ele>278.6</ele><time>2026-04-06T15:21:10.968Z</time></trkpt><trkpt lat="45.8075215" lon="13.7806589"><ele>279.20000000000005</ele><time>2026-04-06T15:21:11.972Z</time></trkpt><trkpt lat="45.8076042" lon="13.7805528"><ele>279.8</ele><time>2026-04-06T15:21:12.972Z</time></trkpt><trkpt lat="45.8076756" lon="13.7804474"><ele>280.40000000000003</ele><time>2026-04-06T15:21:13.969Z</time></trkpt><trkpt lat="45.8077381" lon="13.7803432"><ele>281.0</ele><time>2026-04-06T15:21:14.965Z</time></trkpt><trkpt lat="45.8078009" lon="13.7802451"><ele>279.2</ele><time>2026-04-06T15:21:15.967Z</time></trkpt><trkpt lat="45.8078636" lon="13.7801506"><ele>277.40000000000003</ele><time>2026-04-06T15:21:16.967Z</time></trkpt><trkpt lat="45.8079311" lon="13.780067"><ele>275.6</ele><time>2026-04-06T15:21:17.975Z</time></trkpt><trkpt lat="45.8080171" lon="13.7800351"><ele>273.8</ele><time>2026-04-06T15:21:18.975Z</time></trkpt><trkpt lat="45.8081203" lon="13.780065"><ele>272.0</ele><time>2026-04-06T15:21:19.97Z</time></trkpt><trkpt lat="45.8082268" lon="13.7801273"><ele>272.2</ele><time>2026-04-06T15:21:20.966Z</time></trkpt><trkpt lat="45.8083224" lon="13.7802096"><ele>272.4</ele><time>2026-04-06T15:21:21.968Z</time></trkpt><trkpt lat="45.8084082" lon="13.780306"><ele>272.6</ele><time>2026-04-06T15:21:22.991Z</time></trkpt><trkpt lat="45.8084911" lon="13.7804096"><ele>272.8</ele><time>2026-04-06T15:21:23.973Z</time></trkpt><trkpt lat="45.8085653" lon="13.7805177"><ele>273.0</ele><time>2026-04-06T15:21:24.968Z</time></trkpt><trkpt lat="45.8086275" lon="13.780624"><ele>270.8</ele><time>2026-04-06T15:21:25.965Z</time></trkpt><trkpt lat="45.808696" lon="13.7807031"><ele>268.6</ele><time>2026-04-06T15:21:26.963Z</time></trkpt><trkpt lat="45.8087965" lon="13.780739"><ele>266.4</ele><time>2026-04-06T15:21:27.966Z</time></trkpt><trkpt lat="45.8089045" lon="13.7807222"><ele>264.2</ele><time>2026-04-06T15:21:28.965Z</time></trkpt><trkpt lat="45.8090204" lon="13.7806825"><ele>262.0</ele><time>2026-04-06T15:21:29.971Z</time></trkpt><trkpt lat="45.8091307" lon="13.780638"><ele>262.0</ele><time>2026-04-06T15:21:30.98Z</time></trkpt><trkpt lat="45.8092392" lon="13.7805935"><ele>262.0</ele><time>2026-04-06T15:21:31.968Z</time></trkpt><trkpt lat="45.8093455" lon="13.7805488"><ele>262.0</ele><time>2026-04-06T15:21:32.97Z</time></trkpt><trkpt lat="45.8094489" lon="13.7805003"><ele>262.0</ele><time>2026-04-06T15:21:33.961Z</time></trkpt><trkpt lat="45.8095555" lon="13.7804572"><ele>262.0</ele><time>2026-04-06T15:21:34.978Z</time></trkpt><trkpt lat="45.8096659" lon="13.7804379"><ele>261.6</ele><time>2026-04-06T15:21:35.974Z</time></trkpt><trkpt lat="45.8097792" lon="13.7804497"><ele>261.2</ele><time>2026-04-06T15:21:36.97Z</time></trkpt><trkpt lat="45.8098861" lon="13.7804635"><ele>260.8</ele><time>2026-04-06T15:21:37.97Z</time></trkpt><trkpt lat="45.8099913" lon="13.7804643"><ele>260.4</ele><time>2026-04-06T15:21:38.965Z</time></trkpt><trkpt lat="45.8101002" lon="13.7804506"><ele>260.0</ele><time>2026-04-06T15:21:39.967Z</time></trkpt><trkpt lat="45.8102136" lon="13.7804193"><ele>259.8</ele><time>2026-04-06T15:21:40.965Z</time></trkpt><trkpt lat="45.8103184" lon="13.7803727"><ele>259.6</ele><time>2026-04-06T15:21:41.959Z</time></trkpt><trkpt lat="45.8104154" lon="13.7803194"><ele>259.4</ele><time>2026-04-06T15:21:42.973Z</time></trkpt><trkpt lat="45.8105137" lon="13.780249"><ele>259.2</ele><time>2026-04-06T15:21:43.96Z</time></trkpt><trkpt lat="45.810609" lon="13.7801642"><ele>259.0</ele><time>2026-04-06T15:21:44.969Z</time></trkpt><trkpt lat="45.8106994" lon="13.7800691"><ele>259.0</ele><time>2026-04-06T15:21:45.978Z</time></trkpt><trkpt lat="45.8107869" lon="13.7799724"><ele>259.0</ele><time>2026-04-06T15:21:46.962Z</time></trkpt><trkpt lat="45.8108781" lon="13.779878"><ele>259.0</ele><time>2026-04-06T15:21:47.967Z</time></trkpt><trkpt lat="45.8109759" lon="13.7797956"><ele>259.0</ele><time>2026-04-06T15:21:48.966Z</time></trkpt><trkpt lat="45.8110612" lon="13.7796906"><ele>259.0</ele><time>2026-04-06T15:21:49.976Z</time></trkpt><trkpt lat="45.8111332" lon="13.7795636"><ele>259.0</ele><time>2026-04-06T15:21:50.97Z</time></trkpt><trkpt lat="45.8111912" lon="13.7794057"><ele>259.0</ele><time>2026-04-06T15:21:51.974Z</time></trkpt><trkpt lat="45.8112514" lon="13.779241"><ele>259.0</ele><time>2026-04-06T15:21:52.969Z</time></trkpt><trkpt lat="45.8113207" lon="13.7790791"><ele>259.0</ele><time>2026-04-06T15:21:53.971Z</time></trkpt><trkpt lat="45.8114011" lon="13.7789383"><ele>258.5</ele><time>2026-04-06T15:21:54.973Z</time></trkpt><trkpt lat="45.8114946" lon="13.7788139"><ele>258.0</ele><time>2026-04-06T15:21:55.97Z</time></trkpt><trkpt lat="45.8115865" lon="13.7786862"><ele>257.5</ele><time>2026-04-06T15:21:56.974Z</time></trkpt><trkpt lat="45.8116852" lon="13.7785531"><ele>257.0</ele><time>2026-04-06T15:21:57.966Z</time></trkpt><trkpt lat="45.8117932" lon="13.7784236"><ele>257.75</ele><time>2026-04-06T15:21:58.966Z</time></trkpt><trkpt lat="45.8119154" lon="13.7783262"><ele>258.5</ele><time>2026-04-06T15:21:59.965Z</time></trkpt><trkpt lat="45.8120394" lon="13.7782438"><ele>259.25</ele><time>2026-04-06T15:22:00.97Z</time></trkpt><trkpt lat="45.8121436" lon="13.7781586"><ele>260.0</ele><time>2026-04-06T15:22:01.961Z</time></trkpt><trkpt lat="45.8122379" lon="13.7780726"><ele>260.0</ele><time>2026-04-06T15:22:02.978Z</time></trkpt><trkpt lat="45.8123353" lon="13.7779733"><ele>260.0</ele><time>2026-04-06T15:22:03.964Z</time></trkpt><trkpt lat="45.8124351" lon="13.77786"><ele>260.0</ele><time>2026-04-06T15:22:04.967Z</time></trkpt><trkpt lat="45.8125328" lon="13.7777386"><ele>260.0</ele><time>2026-04-06T15:22:05.97Z</time></trkpt><trkpt lat="45.8126251" lon="13.7776203"><ele>261.75</ele><time>2026-04-06T15:22:06.972Z</time></trkpt><trkpt lat="45.8127111" lon="13.7775058"><ele>263.5</ele><time>2026-04-06T15:22:07.972Z</time></trkpt><trkpt lat="45.8127994" lon="13.7773925"><ele>265.25</ele><time>2026-04-06T15:22:08.966Z</time></trkpt><trkpt lat="45.8128926" lon="13.7772825"><ele>267.0</ele><time>2026-04-06T15:22:09.975Z</time></trkpt><trkpt lat="45.8129937" lon="13.7771696"><ele>267.0</ele><time>2026-04-06T15:22:10.971Z</time></trkpt><trkpt lat="45.8131033" lon="13.7770598"><ele>267.0</ele><time>2026-04-06T15:22:11.967Z</time></trkpt><trkpt lat="45.8132162" lon="13.7769556"><ele>267.0</ele><time>2026-04-06T15:22:12.971Z</time></trkpt><trkpt lat="45.813327" lon="13.7768637"><ele>267.0</ele><time>2026-04-06T15:22:13.964Z</time></trkpt><trkpt lat="45.8134437" lon="13.7767905"><ele>268.5</ele><time>2026-04-06T15:22:14.966Z</time></trkpt><trkpt lat="45.813569" lon="13.7767467"><ele>270.0</ele><time>2026-04-06T15:22:15.97Z</time></trkpt><trkpt lat="45.8136918" lon="13.7767212"><ele>271.5</ele><time>2026-04-06T15:22:16.976Z</time></trkpt><trkpt lat="45.8138109" lon="13.7766769"><ele>273.0</ele><time>2026-04-06T15:22:17.968Z</time></trkpt><trkpt lat="45.8139204" lon="13.7766055"><ele>273.0</ele><time>2026-04-06T15:22:18.977Z</time></trkpt><trkpt lat="45.8140118" lon="13.7765017"><ele>273.0</ele><time>2026-04-06T15:22:19.97Z</time></trkpt><trkpt lat="45.8140935" lon="13.7763621"><ele>273.0</ele><time>2026-04-06T15:22:20.967Z</time></trkpt><trkpt lat="45.814161" lon="13.7761882"><ele>273.0</ele><time>2026-04-06T15:22:21.973Z</time></trkpt><trkpt lat="45.8142286" lon="13.7760085"><ele>272.5</ele><time>2026-04-06T15:22:22.972Z</time></trkpt><trkpt lat="45.8142951" lon="13.7758292"><ele>272.0</ele><time>2026-04-06T15:22:23.989Z</time></trkpt><trkpt lat="45.8143556" lon="13.7756529"><ele>271.5</ele><time>2026-04-06T15:22:24.971Z</time></trkpt><trkpt lat="45.8144091" lon="13.7754863"><ele>271.0</ele><time>2026-04-06T15:22:25.967Z</time></trkpt><trkpt lat="45.8144651" lon="13.7753275"><ele>270.25</ele><time>2026-04-06T15:22:26.97Z</time></trkpt><trkpt lat="45.8145226" lon="13.7751763"><ele>269.5</ele><time>2026-04-06T15:22:27.971Z</time></trkpt><trkpt lat="45.8145837" lon="13.7750365"><ele>268.75</ele><time>2026-04-06T15:22:28.976Z</time></trkpt><trkpt lat="45.8146648" lon="13.7749096"><ele>268.0</ele><time>2026-04-06T15:22:29.974Z</time></trkpt><trkpt lat="45.8147724" lon="13.7748054"><ele>268.0</ele><time>2026-04-06T15:22:30.969Z</time></trkpt><trkpt lat="45.8148931" lon="13.7747249"><ele>268.0</ele><time>2026-04-06T15:22:31.982Z</time></trkpt><trkpt lat="45.8150196" lon="13.7746472"><ele>268.0</ele><time>2026-04-06T15:22:32.97Z</time></trkpt><trkpt lat="45.8151353" lon="13.7745652"><ele>268.0</ele><time>2026-04-06T15:22:33.973Z</time></trkpt><trkpt lat="45.8152497" lon="13.7745086"><ele>268.5</ele><time>2026-04-06T15:22:34.977Z</time></trkpt><trkpt lat="45.815365" lon="13.7745058"><ele>269.0</ele><time>2026-04-06T15:22:35.977Z</time></trkpt><trkpt lat="45.8154805" lon="13.774527"><ele>269.5</ele><time>2026-04-06T15:22:36.965Z</time></trkpt><trkpt lat="45.8155941" lon="13.7745382"><ele>270.0</ele><time>2026-04-06T15:22:37.991Z</time></trkpt><trkpt lat="45.8156987" lon="13.7745247"><ele>270.0</ele><time>2026-04-06T15:22:38.964Z</time></trkpt><trkpt lat="45.8157828" lon="13.7744681"><ele>270.0</ele><time>2026-04-06T15:22:39.968Z</time></trkpt><trkpt lat="45.8158605" lon="13.7743793"><ele>270.0</ele><time>2026-04-06T15:22:40.974Z</time></trkpt><trkpt lat="45.8159202" lon="13.7742556"><ele>270.0</ele><time>2026-04-06T15:22:41.97Z</time></trkpt><trkpt lat="45.8159823" lon="13.7741139"><ele>270.0</ele><time>2026-04-06T15:22:42.972Z</time></trkpt><trkpt lat="45.8160769" lon="13.7740132"><ele>269.5</ele><time>2026-04-06T15:22:43.982Z</time></trkpt><trkpt lat="45.8161853" lon="13.7739217"><ele>269.0</ele><time>2026-04-06T15:22:44.97Z</time></trkpt><trkpt lat="45.8162941" lon="13.773841"><ele>268.5</ele><time>2026-04-06T15:22:45.973Z</time></trkpt><trkpt lat="45.816393" lon="13.7737678"><ele>268.0</ele><time>2026-04-06T15:22:46.972Z</time></trkpt><trkpt lat="45.8164778" lon="13.7736869"><ele>268.0</ele><time>2026-04-06T15:22:47.974Z</time></trkpt><trkpt lat="45.8165483" lon="13.7736018"><ele>268.0</ele><time>2026-04-06T15:22:48.987Z</time></trkpt><trkpt lat="45.8165975" lon="13.7735174"><ele>268.0</ele><time>2026-04-06T15:22:50.975Z</time></trkpt><trkpt lat="45.816664" lon="13.7734256"><ele>268.0</ele><time>2026-04-06T15:22:54.972Z</time></trkpt><trkpt lat="45.8167026" lon="13.7733504"><ele>268.0</ele><time>2026-04-06T15:22:55.992Z</time></trkpt><trkpt lat="45.8167419" lon="13.7732692"><ele>268.0</ele><time>2026-04-06T15:22:56.973Z</time></trkpt><trkpt lat="45.8167875" lon="13.7731789"><ele>268.8</ele><time>2026-04-06T15:22:57.971Z</time></trkpt><trkpt lat="45.8168434" lon="13.7730929"><ele>269.6</ele><time>2026-04-06T15:22:58.977Z</time></trkpt><trkpt lat="45.8169128" lon="13.7730063"><ele>270.4</ele><time>2026-04-06T15:22:59.971Z</time></trkpt><trkpt lat="45.8169829" lon="13.7729114"><ele>271.2</ele><time>2026-04-06T15:23:00.982Z</time></trkpt><trkpt lat="45.8170437" lon="13.7728023"><ele>272.0</ele><time>2026-04-06T15:23:01.972Z</time></trkpt><trkpt lat="45.8171139" lon="13.7726879"><ele>272.4</ele><time>2026-04-06T15:23:02.967Z</time></trkpt><trkpt lat="45.8171853" lon="13.7725723"><ele>272.79999999999995</ele><time>2026-04-06T15:23:03.97Z</time></trkpt><trkpt lat="45.817259" lon="13.7724544"><ele>273.2</ele><time>2026-04-06T15:23:04.973Z</time></trkpt><trkpt lat="45.8173308" lon="13.7723319"><ele>273.59999999999997</ele><time>2026-04-06T15:23:05.974Z</time></trkpt><trkpt lat="45.8173936" lon="13.7722158"><ele>274.0</ele><time>2026-04-06T15:23:06.976Z</time></trkpt><trkpt lat="45.817457" lon="13.7721172"><ele>274.0</ele><time>2026-04-06T15:23:07.974Z</time></trkpt><trkpt lat="45.8175291" lon="13.7720291"><ele>274.0</ele><time>2026-04-06T15:23:08.981Z</time></trkpt><trkpt lat="45.8176106" lon="13.7719342"><ele>274.0</ele><time>2026-04-06T15:23:09.971Z</time></trkpt><trkpt lat="45.8176988" lon="13.7718359"><ele>274.0</ele><time>2026-04-06T15:23:10.983Z</time></trkpt><trkpt lat="45.8177837" lon="13.7717433"><ele>274.0</ele><time>2026-04-06T15:23:11.97Z</time></trkpt><trkpt lat="45.8178572" lon="13.7716529"><ele>273.59999999999997</ele><time>2026-04-06T15:23:12.967Z</time></trkpt><trkpt lat="45.8179186" lon="13.7715618"><ele>273.2</ele><time>2026-04-06T15:23:13.972Z</time></trkpt><trkpt lat="45.8179791" lon="13.7714635"><ele>272.79999999999995</ele><time>2026-04-06T15:23:14.975Z</time></trkpt><trkpt lat="45.818046" lon="13.7713724"><ele>272.4</ele><time>2026-04-06T15:23:15.966Z</time></trkpt><trkpt lat="45.8181156" lon="13.7712747"><ele>272.0</ele><time>2026-04-06T15:23:16.973Z</time></trkpt><trkpt lat="45.8181873" lon="13.7711514"><ele>270.6</ele><time>2026-04-06T15:23:17.972Z</time></trkpt><trkpt lat="45.8182568" lon="13.7710092"><ele>269.2</ele><time>2026-04-06T15:23:18.97Z</time></trkpt><trkpt lat="45.8183165" lon="13.7708673"><ele>267.8</ele><time>2026-04-06T15:23:19.97Z</time></trkpt><trkpt lat="45.8183686" lon="13.7707367"><ele>266.4</ele><time>2026-04-06T15:23:20.974Z</time></trkpt><trkpt lat="45.8184211" lon="13.7706183"><ele>265.0</ele><time>2026-04-06T15:23:21.977Z</time></trkpt><trkpt lat="45.8184745" lon="13.7705123"><ele>265.0</ele><time>2026-04-06T15:23:22.986Z</time></trkpt><trkpt lat="45.8185342" lon="13.7704058"><ele>265.0</ele><time>2026-04-06T15:23:23.973Z</time></trkpt><trkpt lat="45.8186016" lon="13.7703011"><ele>265.0</ele><time>2026-04-06T15:23:24.973Z</time></trkpt><trkpt lat="45.8186722" lon="13.7702043"><ele>265.0</ele><time>2026-04-06T15:23:25.973Z</time></trkpt><trkpt lat="45.8187373" lon="13.7701083"><ele>265.0</ele><time>2026-04-06T15:23:26.976Z</time></trkpt><trkpt lat="45.8187977" lon="13.7700135"><ele>265.0</ele><time>2026-04-06T15:23:28.004Z</time></trkpt><trkpt lat="45.8188391" lon="13.7699145"><ele>265.0</ele><time>2026-04-06T15:23:28.975Z</time></trkpt><trkpt lat="45.8188571" lon="13.769798"><ele>265.0</ele><time>2026-04-06T15:23:29.971Z</time></trkpt><trkpt lat="45.8188674" lon="13.7696546"><ele>265.0</ele><time>2026-04-06T15:23:30.97Z</time></trkpt><trkpt lat="45.8188863" lon="13.7695125"><ele>265.0</ele><time>2026-04-06T15:23:31.973Z</time></trkpt><trkpt lat="45.818915" lon="13.7693828"><ele>264.0</ele><time>2026-04-06T15:23:32.999Z</time></trkpt><trkpt lat="45.818952" lon="13.769287"><ele>263.0</ele><time>2026-04-06T15:23:33.975Z</time></trkpt><trkpt lat="45.8190062" lon="13.7692166"><ele>262.0</ele><time>2026-04-06T15:23:34.964Z</time></trkpt><trkpt lat="45.8190751" lon="13.7691529"><ele>261.0</ele><time>2026-04-06T15:23:35.974Z</time></trkpt><trkpt lat="45.8191466" lon="13.7690937"><ele>260.0</ele><time>2026-04-06T15:23:36.975Z</time></trkpt><trkpt lat="45.8192206" lon="13.7690389"><ele>259.0</ele><time>2026-04-06T15:23:37.988Z</time></trkpt><trkpt lat="45.8192975" lon="13.7689821"><ele>260.2</ele><time>2026-04-06T15:23:38.975Z</time></trkpt><trkpt lat="45.8193839" lon="13.768931"><ele>261.4</ele><time>2026-04-06T15:23:39.972Z</time></trkpt><trkpt lat="45.8194839" lon="13.7688905"><ele>262.6</ele><time>2026-04-06T15:23:40.985Z</time></trkpt><trkpt lat="45.8195853" lon="13.7688625"><ele>263.8</ele><time>2026-04-06T15:23:41.971Z</time></trkpt><trkpt lat="45.8196896" lon="13.7688359"><ele>265.0</ele><time>2026-04-06T15:23:42.989Z</time></trkpt><trkpt lat="45.8197991" lon="13.768814"><ele>265.0</ele><time>2026-04-06T15:23:43.983Z</time></trkpt><trkpt lat="45.8199101" lon="13.768807"><ele>265.0</ele><time>2026-04-06T15:23:44.977Z</time></trkpt><trkpt lat="45.8200191" lon="13.7688163"><ele>265.0</ele><time>2026-04-06T15:23:45.992Z</time></trkpt><trkpt lat="45.8201246" lon="13.7688536"><ele>265.0</ele><time>2026-04-06T15:23:46.967Z</time></trkpt><trkpt lat="45.820233" lon="13.768903"><ele>265.0</ele><time>2026-04-06T15:23:47.977Z</time></trkpt><trkpt lat="45.8203471" lon="13.7689448"><ele>263.2</ele><time>2026-04-06T15:23:48.967Z</time></trkpt><trkpt lat="45.8204649" lon="13.7689779"><ele>261.4</ele><time>2026-04-06T15:23:49.964Z</time></trkpt><trkpt lat="45.8205686" lon="13.7690178"><ele>259.6</ele><time>2026-04-06T15:23:50.978Z</time></trkpt><trkpt lat="45.8206593" lon="13.7690737"><ele>257.8</ele><time>2026-04-06T15:23:51.974Z</time></trkpt><trkpt lat="45.8207507" lon="13.7691569"><ele>256.0</ele><time>2026-04-06T15:23:52.975Z</time></trkpt><trkpt lat="45.8208428" lon="13.7692587"><ele>256.5</ele><time>2026-04-06T15:23:53.969Z</time></trkpt><trkpt lat="45.8209379" lon="13.7693688"><ele>257.0</ele><time>2026-04-06T15:23:54.976Z</time></trkpt><trkpt lat="45.8210374" lon="13.7694779"><ele>257.5</ele><time>2026-04-06T15:23:55.978Z</time></trkpt><trkpt lat="45.8211471" lon="13.7695962"><ele>258.0</ele><time>2026-04-06T15:23:56.976Z</time></trkpt><trkpt lat="45.8212577" lon="13.7697246"><ele>258.0</ele><time>2026-04-06T15:23:57.973Z</time></trkpt><trkpt lat="45.8213644" lon="13.7698619"><ele>258.0</ele><time>2026-04-06T15:23:58.974Z</time></trkpt><trkpt lat="45.8214564" lon="13.7699866"><ele>258.0</ele><time>2026-04-06T15:23:59.973Z</time></trkpt><trkpt lat="45.8215417" lon="13.7700935"><ele>258.0</ele><time>2026-04-06T15:24:00.973Z</time></trkpt><trkpt lat="45.8216312" lon="13.7701763"><ele>256.25</ele><time>2026-04-06T15:24:01.978Z</time></trkpt><trkpt lat="45.8217218" lon="13.7702509"><ele>254.5</ele><time>2026-04-06T15:24:02.97Z</time></trkpt><trkpt lat="45.8218248" lon="13.7703328"><ele>252.75</ele><time>2026-04-06T15:24:03.983Z</time></trkpt><trkpt lat="45.8219252" lon="13.7704157"><ele>251.0</ele><time>2026-04-06T15:24:04.975Z</time></trkpt><trkpt lat="45.8220205" lon="13.7705093"><ele>251.0</ele><time>2026-04-06T15:24:05.97Z</time></trkpt><trkpt lat="45.8221073" lon="13.7705965"><ele>251.00000000000003</ele><time>2026-04-06T15:24:06.972Z</time></trkpt><trkpt lat="45.8221943" lon="13.7706797"><ele>251.00000000000003</ele><time>2026-04-06T15:24:07.973Z</time></trkpt><trkpt lat="45.822267" lon="13.7707619"><ele>251.0</ele><time>2026-04-06T15:24:08.967Z</time></trkpt><trkpt lat="45.8223428" lon="13.7708461"><ele>251.0</ele><time>2026-04-06T15:24:09.971Z</time></trkpt><trkpt lat="45.8224224" lon="13.7709137"><ele>251.0</ele><time>2026-04-06T15:24:10.983Z</time></trkpt><trkpt lat="45.8225198" lon="13.7709702"><ele>251.00000000000003</ele><time>2026-04-06T15:24:11.974Z</time></trkpt><trkpt lat="45.822618" lon="13.7710187"><ele>251.00000000000003</ele><time>2026-04-06T15:24:12.973Z</time></trkpt><trkpt lat="45.8227108" lon="13.771059"><ele>251.0</ele><time>2026-04-06T15:24:13.974Z</time></trkpt><trkpt lat="45.8227821" lon="13.7710771"><ele>251.0</ele><time>2026-04-06T15:24:14.975Z</time></trkpt><trkpt lat="45.8228806" lon="13.7710103"><ele>248.20000000000002</ele><time>2026-04-06T15:24:16.959Z</time></trkpt><trkpt lat="45.8229262" lon="13.7709301"><ele>245.40000000000003</ele><time>2026-04-06T15:24:17.971Z</time></trkpt><trkpt lat="45.822977" lon="13.7708192"><ele>242.6</ele><time>2026-04-06T15:24:18.971Z</time></trkpt><trkpt lat="45.8230257" lon="13.7706871"><ele>239.8</ele><time>2026-04-06T15:24:19.981Z</time></trkpt><trkpt lat="45.8230762" lon="13.7705472"><ele>237.0</ele><time>2026-04-06T15:24:20.988Z</time></trkpt><trkpt lat="45.8231088" lon="13.7704037"><ele>237.0</ele><time>2026-04-06T15:24:21.974Z</time></trkpt><trkpt lat="45.8231302" lon="13.7702417"><ele>237.0</ele><time>2026-04-06T15:24:22.983Z</time></trkpt><trkpt lat="45.823146" lon="13.7700831"><ele>237.0</ele><time>2026-04-06T15:24:23.975Z</time></trkpt><trkpt lat="45.8231752" lon="13.7699287"><ele>237.0</ele><time>2026-04-06T15:24:24.97Z</time></trkpt><trkpt lat="45.8232253" lon="13.7697542"><ele>237.0</ele><time>2026-04-06T15:24:25.979Z</time></trkpt><trkpt lat="45.8232729" lon="13.7695773"><ele>237.0</ele><time>2026-04-06T15:24:26.976Z</time></trkpt><trkpt lat="45.8233186" lon="13.7693976"><ele>237.0</ele><time>2026-04-06T15:24:27.971Z</time></trkpt><trkpt lat="45.8233667" lon="13.7692255"><ele>237.0</ele><time>2026-04-06T15:24:28.971Z</time></trkpt><trkpt lat="45.8234312" lon="13.7690569"><ele>236.39999999999998</ele><time>2026-04-06T15:24:29.994Z</time></trkpt><trkpt lat="45.8234998" lon="13.768901"><ele>235.79999999999998</ele><time>2026-04-06T15:24:30.967Z</time></trkpt><trkpt lat="45.8235638" lon="13.7687664"><ele>235.2</ele><time>2026-04-06T15:24:31.965Z</time></trkpt><trkpt lat="45.8236228" lon="13.7686521"><ele>234.6</ele><time>2026-04-06T15:24:32.985Z</time></trkpt><trkpt lat="45.8236885" lon="13.7685756"><ele>234.0</ele><time>2026-04-06T15:24:33.974Z</time></trkpt><trkpt lat="45.8237607" lon="13.7685203"><ele>234.0</ele><time>2026-04-06T15:24:34.976Z</time></trkpt><trkpt lat="45.8238289" lon="13.7684805"><ele>233.99999999999997</ele><time>2026-04-06T15:24:35.966Z</time></trkpt><trkpt lat="45.8239328" lon="13.7684617"><ele>233.99999999999997</ele><time>2026-04-06T15:24:37.97Z</time></trkpt><trkpt lat="45.8240062" lon="13.7684985"><ele>234.0</ele><time>2026-04-06T15:24:38.97Z</time></trkpt><trkpt lat="45.824092" lon="13.7685767"><ele>234.0</ele><time>2026-04-06T15:24:39.983Z</time></trkpt><trkpt lat="45.8241854" lon="13.7686828"><ele>234.0</ele><time>2026-04-06T15:24:40.966Z</time></trkpt><trkpt lat="45.8242851" lon="13.7687992"><ele>234.0</ele><time>2026-04-06T15:24:41.97Z</time></trkpt><trkpt lat="45.8243931" lon="13.7689045"><ele>234.0</ele><time>2026-04-06T15:24:42.967Z</time></trkpt><trkpt lat="45.8245108" lon="13.768987"><ele>234.0</ele><time>2026-04-06T15:24:43.976Z</time></trkpt><trkpt lat="45.824638" lon="13.7690534"><ele>234.0</ele><time>2026-04-06T15:24:44.967Z</time></trkpt><trkpt lat="45.8247708" lon="13.7691163"><ele>234.0</ele><time>2026-04-06T15:24:45.973Z</time></trkpt><trkpt lat="45.8248997" lon="13.7691748"><ele>234.0</ele><time>2026-04-06T15:24:46.969Z</time></trkpt><trkpt lat="45.8250274" lon="13.7692394"><ele>234.0</ele><time>2026-04-06T15:24:47.96Z</time></trkpt><trkpt lat="45.8251535" lon="13.7693128"><ele>232.25</ele><time>2026-04-06T15:24:48.97Z</time></trkpt><trkpt lat="45.825276" lon="13.769386"><ele>230.5</ele><time>2026-04-06T15:24:49.969Z</time></trkpt><trkpt lat="45.8254029" lon="13.7694475"><ele>228.75</ele><time>2026-04-06T15:24:50.983Z</time></trkpt><trkpt lat="45.8255443" lon="13.7694662"><ele>227.0</ele><time>2026-04-06T15:24:51.973Z</time></trkpt><trkpt lat="45.8256994" lon="13.7694586"><ele>227.0</ele><time>2026-04-06T15:24:52.985Z</time></trkpt><trkpt lat="45.8258539" lon="13.7694368"><ele>227.0</ele><time>2026-04-06T15:24:53.98Z</time></trkpt><trkpt lat="45.8259988" lon="13.7693983"><ele>227.0</ele><time>2026-04-06T15:24:54.974Z</time></trkpt><trkpt lat="45.8261294" lon="13.7693548"><ele>227.0</ele><time>2026-04-06T15:24:55.971Z</time></trkpt><trkpt lat="45.8262573" lon="13.769317"><ele>227.8</ele><time>2026-04-06T15:24:56.986Z</time></trkpt><trkpt lat="45.8263808" lon="13.7692807"><ele>228.6</ele><time>2026-04-06T15:24:57.973Z</time></trkpt><trkpt lat="45.8264921" lon="13.7692461"><ele>229.40000000000003</ele><time>2026-04-06T15:24:58.969Z</time></trkpt><trkpt lat="45.8265939" lon="13.7692268"><ele>230.20000000000002</ele><time>2026-04-06T15:24:59.977Z</time></trkpt><trkpt lat="45.8266698" lon="13.769233"><ele>231.0</ele><time>2026-04-06T15:25:00.974Z</time></trkpt><trkpt lat="45.826742" lon="13.7692574"><ele>230.5</ele><time>2026-04-06T15:25:01.984Z</time></trkpt><trkpt lat="45.8268129" lon="13.7692835"><ele>230.0</ele><time>2026-04-06T15:25:02.965Z</time></trkpt><trkpt lat="45.8268934" lon="13.7692839"><ele>229.5</ele><time>2026-04-06T15:25:03.973Z</time></trkpt><trkpt lat="45.8269808" lon="13.7692561"><ele>229.0</ele><time>2026-04-06T15:25:04.973Z</time></trkpt><trkpt lat="45.8270736" lon="13.7692185"><ele>228.5</ele><time>2026-04-06T15:25:05.969Z</time></trkpt><trkpt lat="45.8271703" lon="13.769195"><ele>228.0</ele><time>2026-04-06T15:25:06.97Z</time></trkpt><trkpt lat="45.8272714" lon="13.7691964"><ele>228.0</ele><time>2026-04-06T15:25:07.972Z</time></trkpt><trkpt lat="45.8273673" lon="13.7692277"><ele>228.0</ele><time>2026-04-06T15:25:09Z</time></trkpt><trkpt lat="45.8274694" lon="13.769278"><ele>228.0</ele><time>2026-04-06T15:25:09.971Z</time></trkpt><trkpt lat="45.827569" lon="13.7693534"><ele>228.0</ele><time>2026-04-06T15:25:10.973Z</time></trkpt><trkpt lat="45.8276659" lon="13.7694263"><ele>228.0</ele><time>2026-04-06T15:25:11.969Z</time></trkpt><trkpt lat="45.8277673" lon="13.7694787"><ele>228.0</ele><time>2026-04-06T15:25:12.97Z</time></trkpt><trkpt lat="45.8278632" lon="13.7695149"><ele>228.0</ele><time>2026-04-06T15:25:13.965Z</time></trkpt><trkpt lat="45.8279494" lon="13.7695433"><ele>228.0</ele><time>2026-04-06T15:25:14.973Z</time></trkpt><trkpt lat="45.8280379" lon="13.7695573"><ele>228.0</ele><time>2026-04-06T15:25:15.976Z</time></trkpt><trkpt lat="45.8281299" lon="13.7695515"><ele>228.0</ele><time>2026-04-06T15:25:16.976Z</time></trkpt><trkpt lat="45.8282217" lon="13.7695247"><ele>228.0</ele><time>2026-04-06T15:25:17.972Z</time></trkpt><trkpt lat="45.8283094" lon="13.7695107"><ele>228.0</ele><time>2026-04-06T15:25:18.967Z</time></trkpt><trkpt lat="45.8283956" lon="13.7695199"><ele>228.0</ele><time>2026-04-06T15:25:19.968Z</time></trkpt><trkpt lat="45.8284746" lon="13.7695651"><ele>228.0</ele><time>2026-04-06T15:25:20.97Z</time></trkpt><trkpt lat="45.8285537" lon="13.7696271"><ele>228.0</ele><time>2026-04-06T15:25:21.969Z</time></trkpt><trkpt lat="45.8286392" lon="13.7696853"><ele>228.0</ele><time>2026-04-06T15:25:22.979Z</time></trkpt><trkpt lat="45.8287324" lon="13.7697412"><ele>230.0</ele><time>2026-04-06T15:25:23.97Z</time></trkpt><trkpt lat="45.8288361" lon="13.7697941"><ele>232.0</ele><time>2026-04-06T15:25:24.968Z</time></trkpt><trkpt lat="45.8289377" lon="13.7698388"><ele>234.0</ele><time>2026-04-06T15:25:25.969Z</time></trkpt><trkpt lat="45.8290486" lon="13.7698702"><ele>236.0</ele><time>2026-04-06T15:25:26.969Z</time></trkpt><trkpt lat="45.8291732" lon="13.7698879"><ele>236.0</ele><time>2026-04-06T15:25:27.967Z</time></trkpt><trkpt lat="45.8292994" lon="13.7699174"><ele>236.0</ele><time>2026-04-06T15:25:28.975Z</time></trkpt><trkpt lat="45.8294136" lon="13.7699533"><ele>236.0</ele><time>2026-04-06T15:25:29.969Z</time></trkpt><trkpt lat="45.8295187" lon="13.7699831"><ele>236.0</ele><time>2026-04-06T15:25:30.971Z</time></trkpt><trkpt lat="45.8296239" lon="13.7699901"><ele>237.0</ele><time>2026-04-06T15:25:31.967Z</time></trkpt><trkpt lat="45.8297372" lon="13.7699783"><ele>238.0</ele><time>2026-04-06T15:25:32.972Z</time></trkpt><trkpt lat="45.8298594" lon="13.7699528"><ele>239.0</ele><time>2026-04-06T15:25:33.967Z</time></trkpt><trkpt lat="45.8299942" lon="13.7699264"><ele>240.0</ele><time>2026-04-06T15:25:34.984Z</time></trkpt><trkpt lat="45.8301285" lon="13.7698983"><ele>240.25</ele><time>2026-04-06T15:25:35.967Z</time></trkpt><trkpt lat="45.830272" lon="13.7698787"><ele>240.5</ele><time>2026-04-06T15:25:36.978Z</time></trkpt><trkpt lat="45.8304119" lon="13.7698687"><ele>240.75</ele><time>2026-04-06T15:25:37.973Z</time></trkpt><trkpt lat="45.8305415" lon="13.7698673"><ele>241.0</ele><time>2026-04-06T15:25:38.97Z</time></trkpt><trkpt lat="45.8306565" lon="13.769868"><ele>241.0</ele><time>2026-04-06T15:25:39.989Z</time></trkpt><trkpt lat="45.8307617" lon="13.7698592"><ele>241.00000000000003</ele><time>2026-04-06T15:25:40.97Z</time></trkpt><trkpt lat="45.8308619" lon="13.769826"><ele>241.00000000000003</ele><time>2026-04-06T15:25:41.966Z</time></trkpt><trkpt lat="45.8309593" lon="13.7697646"><ele>241.0</ele><time>2026-04-06T15:25:42.98Z</time></trkpt><trkpt lat="45.8310622" lon="13.7696968"><ele>241.0</ele><time>2026-04-06T15:25:43.971Z</time></trkpt><trkpt lat="45.831178" lon="13.7696197"><ele>241.25</ele><time>2026-04-06T15:25:44.981Z</time></trkpt><trkpt lat="45.8313065" lon="13.7695275"><ele>241.5</ele><time>2026-04-06T15:25:45.97Z</time></trkpt><trkpt lat="45.8314282" lon="13.769435"><ele>241.75</ele><time>2026-04-06T15:25:46.977Z</time></trkpt><trkpt lat="45.8315454" lon="13.7693481"><ele>242.0</ele><time>2026-04-06T15:25:47.97Z</time></trkpt><trkpt lat="45.831666" lon="13.7692651"><ele>241.75</ele><time>2026-04-06T15:25:48.976Z</time></trkpt><trkpt lat="45.831787" lon="13.7691822"><ele>241.5</ele><time>2026-04-06T15:25:49.978Z</time></trkpt><trkpt lat="45.8319041" lon="13.7690935"><ele>241.25</ele><time>2026-04-06T15:25:50.975Z</time></trkpt><trkpt lat="45.8320196" lon="13.7689994"><ele>241.0</ele><time>2026-04-06T15:25:51.988Z</time></trkpt><trkpt lat="45.8321326" lon="13.7689042"><ele>241.0</ele><time>2026-04-06T15:25:52.97Z</time></trkpt><trkpt lat="45.8322448" lon="13.7687999"><ele>241.0</ele><time>2026-04-06T15:25:53.978Z</time></trkpt><trkpt lat="45.8323554" lon="13.7686818"><ele>241.0</ele><time>2026-04-06T15:25:54.978Z</time></trkpt><trkpt lat="45.8324788" lon="13.7685579"><ele>241.0</ele><time>2026-04-06T15:25:55.97Z</time></trkpt><trkpt lat="45.8325989" lon="13.7684412"><ele>241.25</ele><time>2026-04-06T15:25:56.974Z</time></trkpt><trkpt lat="45.8327181" lon="13.7683397"><ele>241.5</ele><time>2026-04-06T15:25:57.964Z</time></trkpt><trkpt lat="45.8328432" lon="13.7682449"><ele>241.75</ele><time>2026-04-06T15:25:58.979Z</time></trkpt><trkpt lat="45.8329694" lon="13.7681547"><ele>242.0</ele><time>2026-04-06T15:25:59.971Z</time></trkpt><trkpt lat="45.8331009" lon="13.7680774"><ele>242.0</ele><time>2026-04-06T15:26:00.982Z</time></trkpt><trkpt lat="45.833238" lon="13.768007"><ele>242.0</ele><time>2026-04-06T15:26:01.968Z</time></trkpt><trkpt lat="45.8333791" lon="13.7679341"><ele>242.0</ele><time>2026-04-06T15:26:02.971Z</time></trkpt><trkpt lat="45.8335156" lon="13.7678568"><ele>242.0</ele><time>2026-04-06T15:26:03.971Z</time></trkpt><trkpt lat="45.8336516" lon="13.7677834"><ele>242.25</ele><time>2026-04-06T15:26:04.969Z</time></trkpt><trkpt lat="45.8337881" lon="13.7677124"><ele>242.5</ele><time>2026-04-06T15:26:05.985Z</time></trkpt><trkpt lat="45.8339203" lon="13.7676512"><ele>242.75</ele><time>2026-04-06T15:26:06.978Z</time></trkpt><trkpt lat="45.8340514" lon="13.7675904"><ele>243.0</ele><time>2026-04-06T15:26:07.968Z</time></trkpt><trkpt lat="45.8341753" lon="13.7675356"><ele>244.75</ele><time>2026-04-06T15:26:08.968Z</time></trkpt><trkpt lat="45.8343046" lon="13.7674822"><ele>246.5</ele><time>2026-04-06T15:26:09.972Z</time></trkpt><trkpt lat="45.8344301" lon="13.7674317"><ele>248.25</ele><time>2026-04-06T15:26:10.972Z</time></trkpt><trkpt lat="45.8345495" lon="13.767377"><ele>250.0</ele><time>2026-04-06T15:26:11.97Z</time></trkpt><trkpt lat="45.8346769" lon="13.7673233"><ele>250.25</ele><time>2026-04-06T15:26:12.974Z</time></trkpt><trkpt lat="45.8348099" lon="13.7672855"><ele>250.5</ele><time>2026-04-06T15:26:13.972Z</time></trkpt><trkpt lat="45.8349504" lon="13.7672667"><ele>250.75</ele><time>2026-04-06T15:26:14.97Z</time></trkpt><trkpt lat="45.8350873" lon="13.7672555"><ele>251.0</ele><time>2026-04-06T15:26:15.971Z</time></trkpt><trkpt lat="45.8352306" lon="13.7672457"><ele>252.0</ele><time>2026-04-06T15:26:16.972Z</time></trkpt><trkpt lat="45.8353749" lon="13.7672398"><ele>253.0</ele><time>2026-04-06T15:26:17.969Z</time></trkpt><trkpt lat="45.8355215" lon="13.7672417"><ele>254.0</ele><time>2026-04-06T15:26:18.971Z</time></trkpt><trkpt lat="45.8356759" lon="13.7672382"><ele>255.0</ele><time>2026-04-06T15:26:19.992Z</time></trkpt><trkpt lat="45.8358325" lon="13.7672236"><ele>256.3333333333333</ele><time>2026-04-06T15:26:20.969Z</time></trkpt><trkpt lat="45.8359878" lon="13.7672164"><ele>257.66666666666663</ele><time>2026-04-06T15:26:21.973Z</time></trkpt><trkpt lat="45.8361371" lon="13.7672202"><ele>259.0</ele><time>2026-04-06T15:26:22.979Z</time></trkpt><trkpt lat="45.8362852" lon="13.7672234"><ele>259.0</ele><time>2026-04-06T15:26:23.969Z</time></trkpt><trkpt lat="45.8364284" lon="13.7672242"><ele>259.0</ele><time>2026-04-06T15:26:24.985Z</time></trkpt><trkpt lat="45.8365599" lon="13.7672241"><ele>259.0</ele><time>2026-04-06T15:26:25.973Z</time></trkpt><trkpt lat="45.8366892" lon="13.767232"><ele>259.0</ele><time>2026-04-06T15:26:26.973Z</time></trkpt><trkpt lat="45.8368248" lon="13.7672524"><ele>261.25</ele><time>2026-04-06T15:26:27.975Z</time></trkpt><trkpt lat="45.8369686" lon="13.7672843"><ele>263.5</ele><time>2026-04-06T15:26:28.971Z</time></trkpt><trkpt lat="45.8371096" lon="13.7673249"><ele>265.75</ele><time>2026-04-06T15:26:29.975Z</time></trkpt><trkpt lat="45.8372489" lon="13.7673661"><ele>268.0</ele><time>2026-04-06T15:26:30.97Z</time></trkpt><trkpt lat="45.8373916" lon="13.7673983"><ele>268.0</ele><time>2026-04-06T15:26:31.974Z</time></trkpt><trkpt lat="45.837518" lon="13.7674206"><ele>268.0</ele><time>2026-04-06T15:26:32.97Z</time></trkpt><trkpt lat="45.8376276" lon="13.7674452"><ele>268.0</ele><time>2026-04-06T15:26:33.979Z</time></trkpt><trkpt lat="45.8377291" lon="13.7674787"><ele>268.0</ele><time>2026-04-06T15:26:34.971Z</time></trkpt><trkpt lat="45.8378229" lon="13.7675257"><ele>268.0</ele><time>2026-04-06T15:26:35.99Z</time></trkpt><trkpt lat="45.837905" lon="13.7675964"><ele>268.5</ele><time>2026-04-06T15:26:36.99Z</time></trkpt><trkpt lat="45.8379868" lon="13.7676807"><ele>269.0</ele><time>2026-04-06T15:26:37.976Z</time></trkpt><trkpt lat="45.8380765" lon="13.7677779"><ele>269.5</ele><time>2026-04-06T15:26:38.995Z</time></trkpt><trkpt lat="45.8381744" lon="13.7678829"><ele>270.0</ele><time>2026-04-06T15:26:39.975Z</time></trkpt><trkpt lat="45.8382629" lon="13.7680013"><ele>270.0</ele><time>2026-04-06T15:26:40.978Z</time></trkpt><trkpt lat="45.8383409" lon="13.7681195"><ele>270.0</ele><time>2026-04-06T15:26:41.973Z</time></trkpt><trkpt lat="45.8384265" lon="13.7682288"><ele>270.0</ele><time>2026-04-06T15:26:42.983Z</time></trkpt><trkpt lat="45.8385192" lon="13.7683307"><ele>270.0</ele><time>2026-04-06T15:26:43.983Z</time></trkpt><trkpt lat="45.8386075" lon="13.7684239"><ele>270.8</ele><time>2026-04-06T15:26:44.983Z</time></trkpt><trkpt lat="45.8386905" lon="13.7685316"><ele>271.6</ele><time>2026-04-06T15:26:45.985Z</time></trkpt><trkpt lat="45.8387566" lon="13.768641"><ele>272.4</ele><time>2026-04-06T15:26:46.989Z</time></trkpt><trkpt lat="45.8388115" lon="13.7687518"><ele>273.2</ele><time>2026-04-06T15:26:47.979Z</time></trkpt><trkpt lat="45.8388632" lon="13.7688684"><ele>274.0</ele><time>2026-04-06T15:26:48.986Z</time></trkpt><trkpt lat="45.8389089" lon="13.768979"><ele>274.0</ele><time>2026-04-06T15:26:49.976Z</time></trkpt><trkpt lat="45.8389439" lon="13.769106"><ele>274.0</ele><time>2026-04-06T15:26:50.981Z</time></trkpt><trkpt lat="45.838969" lon="13.7692429"><ele>274.0</ele><time>2026-04-06T15:26:51.976Z</time></trkpt><trkpt lat="45.8389806" lon="13.7694163"><ele>274.0</ele><time>2026-04-06T15:26:52.98Z</time></trkpt><trkpt lat="45.8389947" lon="13.7696099"><ele>274.0</ele><time>2026-04-06T15:26:53.982Z</time></trkpt><trkpt lat="45.8390124" lon="13.7698044"><ele>274.0</ele><time>2026-04-06T15:26:54.98Z</time></trkpt><trkpt lat="45.8390394" lon="13.7699783"><ele>274.0</ele><time>2026-04-06T15:26:55.978Z</time></trkpt><trkpt lat="45.8390713" lon="13.7701345"><ele>274.0</ele><time>2026-04-06T15:26:56.98Z</time></trkpt><trkpt lat="45.8390978" lon="13.7702753"><ele>275.4</ele><time>2026-04-06T15:26:57.98Z</time></trkpt><trkpt lat="45.8391253" lon="13.7704118"><ele>276.79999999999995</ele><time>2026-04-06T15:26:58.979Z</time></trkpt><trkpt lat="45.8391604" lon="13.7705314"><ele>278.20000000000005</ele><time>2026-04-06T15:26:59.976Z</time></trkpt><trkpt lat="45.8392207" lon="13.7706394"><ele>279.6</ele><time>2026-04-06T15:27:00.986Z</time></trkpt><trkpt lat="45.839288" lon="13.770741"><ele>281.0</ele><time>2026-04-06T15:27:01.966Z</time></trkpt><trkpt lat="45.8393749" lon="13.7708264"><ele>282.0</ele><time>2026-04-06T15:27:02.975Z</time></trkpt><trkpt lat="45.839481" lon="13.7709044"><ele>283.0</ele><time>2026-04-06T15:27:03.963Z</time></trkpt><trkpt lat="45.8395967" lon="13.7709617"><ele>284.0</ele><time>2026-04-06T15:27:04.974Z</time></trkpt><trkpt lat="45.8397215" lon="13.7710067"><ele>285.0</ele><time>2026-04-06T15:27:05.968Z</time></trkpt><trkpt lat="45.8398442" lon="13.7710539"><ele>286.75</ele><time>2026-04-06T15:27:06.976Z</time></trkpt><trkpt lat="45.8399761" lon="13.7711077"><ele>288.5</ele><time>2026-04-06T15:27:07.965Z</time></trkpt><trkpt lat="45.8401154" lon="13.7711698"><ele>290.25</ele><time>2026-04-06T15:27:08.981Z</time></trkpt><trkpt lat="45.8402541" lon="13.7712238"><ele>292.0</ele><time>2026-04-06T15:27:09.968Z</time></trkpt><trkpt lat="45.8403904" lon="13.7712806"><ele>292.0</ele><time>2026-04-06T15:27:10.968Z</time></trkpt><trkpt lat="45.8405183" lon="13.7713338"><ele>292.0</ele><time>2026-04-06T15:27:11.974Z</time></trkpt><trkpt lat="45.8406327" lon="13.7713989"><ele>292.0</ele><time>2026-04-06T15:27:12.974Z</time></trkpt><trkpt lat="45.840746" lon="13.771464"><ele>292.0</ele><time>2026-04-06T15:27:13.974Z</time></trkpt><trkpt lat="45.8408607" lon="13.7715149"><ele>292.0</ele><time>2026-04-06T15:27:14.982Z</time></trkpt><trkpt lat="45.8409643" lon="13.7715597"><ele>292.0</ele><time>2026-04-06T15:27:15.968Z</time></trkpt><trkpt lat="45.8410604" lon="13.7716085"><ele>292.0</ele><time>2026-04-06T15:27:16.973Z</time></trkpt><trkpt lat="45.8411389" lon="13.7716596"><ele>292.0</ele><time>2026-04-06T15:27:17.966Z</time></trkpt><trkpt lat="45.8412267" lon="13.771674"><ele>292.0</ele><time>2026-04-06T15:27:19.965Z</time></trkpt><trkpt lat="45.8412632" lon="13.7715584"><ele>291.6</ele><time>2026-04-06T15:27:22.966Z</time></trkpt><trkpt lat="45.8412466" lon="13.7714666"><ele>291.2</ele><time>2026-04-06T15:27:23.965Z</time></trkpt><trkpt lat="45.8412114" lon="13.7713466"><ele>290.8</ele><time>2026-04-06T15:27:24.965Z</time></trkpt><trkpt lat="45.8411768" lon="13.7711921"><ele>290.4</ele><time>2026-04-06T15:27:25.963Z</time></trkpt><trkpt lat="45.8411366" lon="13.7710198"><ele>290.0</ele><time>2026-04-06T15:27:26.963Z</time></trkpt><trkpt lat="45.8410969" lon="13.7708303"><ele>288.75</ele><time>2026-04-06T15:27:27.972Z</time></trkpt><trkpt lat="45.8410589" lon="13.7706363"><ele>287.5</ele><time>2026-04-06T15:27:28.969Z</time></trkpt><trkpt lat="45.8410182" lon="13.7704376"><ele>286.25</ele><time>2026-04-06T15:27:29.974Z</time></trkpt><trkpt lat="45.8409745" lon="13.7702372"><ele>285.0</ele><time>2026-04-06T15:27:30.966Z</time></trkpt><trkpt lat="45.8409276" lon="13.7700355"><ele>285.0</ele><time>2026-04-06T15:27:31.965Z</time></trkpt><trkpt lat="45.8408812" lon="13.7698329"><ele>285.0</ele><time>2026-04-06T15:27:32.968Z</time></trkpt><trkpt lat="45.8408368" lon="13.7696501"><ele>285.0</ele><time>2026-04-06T15:27:33.979Z</time></trkpt><trkpt lat="45.840799" lon="13.7694892"><ele>285.0</ele><time>2026-04-06T15:27:34.981Z</time></trkpt><trkpt lat="45.8407644" lon="13.7693481"><ele>286.3333333333333</ele><time>2026-04-06T15:27:35.971Z</time></trkpt><trkpt lat="45.8407374" lon="13.769231"><ele>287.6666666666667</ele><time>2026-04-06T15:27:36.962Z</time></trkpt><trkpt lat="45.8407149" lon="13.7691157"><ele>289.0</ele><time>2026-04-06T15:27:37.974Z</time></trkpt><trkpt lat="45.8406947" lon="13.7690018"><ele>290.33333333333337</ele><time>2026-04-06T15:27:38.972Z</time></trkpt><trkpt lat="45.8406654" lon="13.7688836"><ele>291.6666666666667</ele><time>2026-04-06T15:27:39.977Z</time></trkpt><trkpt lat="45.8406289" lon="13.7687446"><ele>293.0</ele><time>2026-04-06T15:27:40.983Z</time></trkpt><trkpt lat="45.8405792" lon="13.768596"><ele>294.75</ele><time>2026-04-06T15:27:41.976Z</time></trkpt><trkpt lat="45.8405105" lon="13.7684334"><ele>296.5</ele><time>2026-04-06T15:27:42.989Z</time></trkpt><trkpt lat="45.8404356" lon="13.7682646"><ele>298.25</ele><time>2026-04-06T15:27:43.968Z</time></trkpt><trkpt lat="45.8403588" lon="13.7680858"><ele>300.0</ele><time>2026-04-06T15:27:44.964Z</time></trkpt><trkpt lat="45.840274" lon="13.7679151"><ele>300.0</ele><time>2026-04-06T15:27:45.968Z</time></trkpt><trkpt lat="45.840188" lon="13.7677491"><ele>300.0</ele><time>2026-04-06T15:27:46.962Z</time></trkpt><trkpt lat="45.8400954" lon="13.7675967"><ele>300.0</ele><time>2026-04-06T15:27:47.978Z</time></trkpt><trkpt lat="45.8400012" lon="13.7674526"><ele>300.0</ele><time>2026-04-06T15:27:48.969Z</time></trkpt><trkpt lat="45.8399053" lon="13.7673146"><ele>299.0</ele><time>2026-04-06T15:27:49.964Z</time></trkpt><trkpt lat="45.8398144" lon="13.7671702"><ele>298.0</ele><time>2026-04-06T15:27:50.971Z</time></trkpt><trkpt lat="45.8397272" lon="13.767018"><ele>297.0</ele><time>2026-04-06T15:27:51.972Z</time></trkpt><trkpt lat="45.8396483" lon="13.7668771"><ele>296.0</ele><time>2026-04-06T15:27:52.977Z</time></trkpt><trkpt lat="45.8395694" lon="13.7667359"><ele>296.0</ele><time>2026-04-06T15:27:53.976Z</time></trkpt><trkpt lat="45.8394937" lon="13.7666"><ele>296.0</ele><time>2026-04-06T15:27:54.978Z</time></trkpt><trkpt lat="45.8394106" lon="13.7664748"><ele>296.0</ele><time>2026-04-06T15:27:55.975Z</time></trkpt><trkpt lat="45.8392955" lon="13.7663773"><ele>296.0</ele><time>2026-04-06T15:27:56.985Z</time></trkpt><trkpt lat="45.8391576" lon="13.7663186"><ele>294.25</ele><time>2026-04-06T15:27:57.966Z</time></trkpt><trkpt lat="45.839015" lon="13.7662824"><ele>292.5</ele><time>2026-04-06T15:27:58.97Z</time></trkpt><trkpt lat="45.8388748" lon="13.766259"><ele>290.75</ele><time>2026-04-06T15:27:59.974Z</time></trkpt><trkpt lat="45.8387532" lon="13.7662317"><ele>289.0</ele><time>2026-04-06T15:28:00.979Z</time></trkpt><trkpt lat="45.8386561" lon="13.7661979"><ele>289.0</ele><time>2026-04-06T15:28:01.988Z</time></trkpt><trkpt lat="45.8385686" lon="13.766166"><ele>289.0</ele><time>2026-04-06T15:28:02.98Z</time></trkpt><trkpt lat="45.8384829" lon="13.7661477"><ele>289.0</ele><time>2026-04-06T15:28:03.975Z</time></trkpt><trkpt lat="45.8384008" lon="13.7661323"><ele>289.0</ele><time>2026-04-06T15:28:04.978Z</time></trkpt><trkpt lat="45.8383173" lon="13.7661177"><ele>289.0</ele><time>2026-04-06T15:28:05.983Z</time></trkpt><trkpt lat="45.8382368" lon="13.7661018"><ele>289.0</ele><time>2026-04-06T15:28:06.982Z</time></trkpt><trkpt lat="45.8381553" lon="13.7660828"><ele>289.5</ele><time>2026-04-06T15:28:07.966Z</time></trkpt><trkpt lat="45.8380788" lon="13.7660635"><ele>290.0</ele><time>2026-04-06T15:28:08.994Z</time></trkpt><trkpt lat="45.838008" lon="13.7660447"><ele>290.5</ele><time>2026-04-06T15:28:09.974Z</time></trkpt><trkpt lat="45.8379451" lon="13.7660282"><ele>291.0</ele><time>2026-04-06T15:28:10.974Z</time></trkpt><trkpt lat="45.8378421" lon="13.7659821"><ele>291.5</ele><time>2026-04-06T15:28:12.978Z</time></trkpt><trkpt lat="45.8377688" lon="13.7659165"><ele>292.0</ele><time>2026-04-06T15:28:14.984Z</time></trkpt><trkpt lat="45.8376953" lon="13.7658152"><ele>292.0</ele><time>2026-04-06T15:28:16.974Z</time></trkpt><trkpt lat="45.8376265" lon="13.7657035"><ele>292.0</ele><time>2026-04-06T15:28:18.979Z</time></trkpt><trkpt lat="45.8376038" lon="13.7655785"><ele>292.0</ele><time>2026-04-06T15:28:20.975Z</time></trkpt><trkpt lat="45.8376439" lon="13.7654447"><ele>292.0</ele><time>2026-04-06T15:28:22.983Z</time></trkpt><trkpt lat="45.8376948" lon="13.765368"><ele>292.0</ele><time>2026-04-06T15:28:23.971Z</time></trkpt><trkpt lat="45.8377533" lon="13.7652786"><ele>294.25</ele><time>2026-04-06T15:28:24.972Z</time></trkpt><trkpt lat="45.8378187" lon="13.7651727"><ele>296.5</ele><time>2026-04-06T15:28:25.969Z</time></trkpt><trkpt lat="45.8378938" lon="13.7650568"><ele>298.75</ele><time>2026-04-06T15:28:26.971Z</time></trkpt><trkpt lat="45.8379778" lon="13.764933"><ele>301.0</ele><time>2026-04-06T15:28:27.979Z</time></trkpt><trkpt lat="45.8380656" lon="13.7648005"><ele>301.0</ele><time>2026-04-06T15:28:28.977Z</time></trkpt><trkpt lat="45.8381484" lon="13.7646709"><ele>301.0</ele><time>2026-04-06T15:28:29.975Z</time></trkpt><trkpt lat="45.8382219" lon="13.7645481"><ele>301.0</ele><time>2026-04-06T15:28:30.986Z</time></trkpt><trkpt lat="45.8382858" lon="13.7644244"><ele>301.0</ele><time>2026-04-06T15:28:31.983Z</time></trkpt><trkpt lat="45.8383357" lon="13.764298"><ele>301.0</ele><time>2026-04-06T15:28:32.977Z</time></trkpt><trkpt lat="45.8383858" lon="13.7641706"><ele>302.40000000000003</ele><time>2026-04-06T15:28:33.989Z</time></trkpt><trkpt lat="45.8384441" lon="13.7640454"><ele>303.8</ele><time>2026-04-06T15:28:34.984Z</time></trkpt><trkpt lat="45.838512" lon="13.7639256"><ele>305.20000000000005</ele><time>2026-04-06T15:28:35.979Z</time></trkpt><trkpt lat="45.8385886" lon="13.7638146"><ele>306.6</ele><time>2026-04-06T15:28:36.979Z</time></trkpt><trkpt lat="45.8386673" lon="13.7637191"><ele>308.0</ele><time>2026-04-06T15:28:37.971Z</time></trkpt><trkpt lat="45.8387519" lon="13.7636265"><ele>310.6</ele><time>2026-04-06T15:28:38.967Z</time></trkpt><trkpt lat="45.8388314" lon="13.7635241"><ele>313.20000000000005</ele><time>2026-04-06T15:28:39.977Z</time></trkpt><trkpt lat="45.838904" lon="13.7634162"><ele>315.8</ele><time>2026-04-06T15:28:40.977Z</time></trkpt><trkpt lat="45.8389789" lon="13.7633116"><ele>318.40000000000003</ele><time>2026-04-06T15:28:41.988Z</time></trkpt><trkpt lat="45.8390487" lon="13.76321"><ele>321.0</ele><time>2026-04-06T15:28:42.981Z</time></trkpt><trkpt lat="45.8391104" lon="13.7631162"><ele>321.0</ele><time>2026-04-06T15:28:43.976Z</time></trkpt><trkpt lat="45.8391592" lon="13.7630077"><ele>321.0</ele><time>2026-04-06T15:28:44.985Z</time></trkpt><trkpt lat="45.8391865" lon="13.7628684"><ele>321.0</ele><time>2026-04-06T15:28:45.974Z</time></trkpt><trkpt lat="45.8392107" lon="13.7627206"><ele>321.0</ele><time>2026-04-06T15:28:46.985Z</time></trkpt><trkpt lat="45.8392429" lon="13.7625696"><ele>321.0</ele><time>2026-04-06T15:28:47.977Z</time></trkpt><trkpt lat="45.839282" lon="13.7624235"><ele>324.75</ele><time>2026-04-06T15:28:48.978Z</time></trkpt><trkpt lat="45.8393246" lon="13.7622771"><ele>328.5</ele><time>2026-04-06T15:28:49.984Z</time></trkpt><trkpt lat="45.8393713" lon="13.7621257"><ele>332.25</ele><time>2026-04-06T15:28:50.978Z</time></trkpt><trkpt lat="45.8394151" lon="13.761965"><ele>336.0</ele><time>2026-04-06T15:28:51.985Z</time></trkpt><trkpt lat="45.8394487" lon="13.7617926"><ele>337.5</ele><time>2026-04-06T15:28:52.997Z</time></trkpt><trkpt lat="45.839479" lon="13.7616202"><ele>339.0</ele><time>2026-04-06T15:28:53.969Z</time></trkpt><trkpt lat="45.8395122" lon="13.7614522"><ele>340.5</ele><time>2026-04-06T15:28:54.98Z</time></trkpt><trkpt lat="45.8395476" lon="13.7613043"><ele>342.0</ele><time>2026-04-06T15:28:55.98Z</time></trkpt><trkpt lat="45.8395754" lon="13.7611498"><ele>343.20000000000005</ele><time>2026-04-06T15:28:56.985Z</time></trkpt><trkpt lat="45.8395862" lon="13.7609818"><ele>344.4</ele><time>2026-04-06T15:28:57.985Z</time></trkpt><trkpt lat="45.8395973" lon="13.7608283"><ele>345.6</ele><time>2026-04-06T15:28:58.978Z</time></trkpt><trkpt lat="45.8396143" lon="13.760699"><ele>346.79999999999995</ele><time>2026-04-06T15:28:59.975Z</time></trkpt><trkpt lat="45.8396312" lon="13.7605686"><ele>348.0</ele><time>2026-04-06T15:29:00.983Z</time></trkpt><trkpt lat="45.8396466" lon="13.7604263"><ele>348.0</ele><time>2026-04-06T15:29:01.987Z</time></trkpt><trkpt lat="45.8396625" lon="13.7602805"><ele>348.0</ele><time>2026-04-06T15:29:02.989Z</time></trkpt><trkpt lat="45.8396774" lon="13.7601267"><ele>348.0</ele><time>2026-04-06T15:29:03.983Z</time></trkpt><trkpt lat="45.8396928" lon="13.7599632"><ele>348.0</ele><time>2026-04-06T15:29:04.988Z</time></trkpt><trkpt lat="45.8397052" lon="13.7597937"><ele>348.0</ele><time>2026-04-06T15:29:05.985Z</time></trkpt><trkpt lat="45.8397194" lon="13.7596265"><ele>349.0</ele><time>2026-04-06T15:29:06.984Z</time></trkpt><trkpt lat="45.8397331" lon="13.7594531"><ele>350.0</ele><time>2026-04-06T15:29:07.981Z</time></trkpt><trkpt lat="45.8397361" lon="13.7592752"><ele>351.0</ele><time>2026-04-06T15:29:08.983Z</time></trkpt><trkpt lat="45.8397304" lon="13.7591006"><ele>352.0</ele><time>2026-04-06T15:29:09.98Z</time></trkpt><trkpt lat="45.8397299" lon="13.7589513"><ele>352.3333333333333</ele><time>2026-04-06T15:29:10.984Z</time></trkpt><trkpt lat="45.8397424" lon="13.7588391"><ele>352.66666666666663</ele><time>2026-04-06T15:29:12.978Z</time></trkpt><trkpt lat="45.8398196" lon="13.7588761"><ele>353.0</ele><time>2026-04-06T15:29:19.978Z</time></trkpt><trkpt lat="45.8398602" lon="13.7589853"><ele>353.3333333333333</ele><time>2026-04-06T15:29:21.97Z</time></trkpt><trkpt lat="45.8398802" lon="13.7590759"><ele>353.6666666666667</ele><time>2026-04-06T15:29:22.967Z</time></trkpt><trkpt lat="45.8399051" lon="13.7591722"><ele>354.0</ele><time>2026-04-06T15:29:23.991Z</time></trkpt><trkpt lat="45.8399525" lon="13.7592749"><ele>353.5</ele><time>2026-04-06T15:29:24.98Z</time></trkpt><trkpt lat="45.8400207" lon="13.7593875"><ele>353.0</ele><time>2026-04-06T15:29:25.976Z</time></trkpt><trkpt lat="45.8401021" lon="13.7595154"><ele>352.5</ele><time>2026-04-06T15:29:26.976Z</time></trkpt><trkpt lat="45.8401985" lon="13.7596759"><ele>352.0</ele><time>2026-04-06T15:29:27.976Z</time></trkpt><trkpt lat="45.8403025" lon="13.7598339"><ele>354.5</ele><time>2026-04-06T15:29:28.981Z</time></trkpt><trkpt lat="45.840404" lon="13.7599897"><ele>357.0</ele><time>2026-04-06T15:29:29.972Z</time></trkpt><trkpt lat="45.8404956" lon="13.7601388"><ele>359.5</ele><time>2026-04-06T15:29:30.98Z</time></trkpt><trkpt lat="45.8405733" lon="13.7602686"><ele>362.0</ele><time>2026-04-06T15:29:31.966Z</time></trkpt><trkpt lat="45.8406489" lon="13.760375"><ele>362.0</ele><time>2026-04-06T15:29:32.977Z</time></trkpt><trkpt lat="45.8407345" lon="13.7604598"><ele>362.0</ele><time>2026-04-06T15:29:33.972Z</time></trkpt><trkpt lat="45.8408341" lon="13.7605424"><ele>362.0</ele><time>2026-04-06T15:29:34.976Z</time></trkpt><trkpt lat="45.8409457" lon="13.7606404"><ele>362.0</ele><time>2026-04-06T15:29:35.974Z</time></trkpt><trkpt lat="45.8410689" lon="13.7607533"><ele>362.75</ele><time>2026-04-06T15:29:36.976Z</time></trkpt><trkpt lat="45.8411962" lon="13.7608703"><ele>363.5</ele><time>2026-04-06T15:29:37.977Z</time></trkpt><trkpt lat="45.8413207" lon="13.760977"><ele>364.25</ele><time>2026-04-06T15:29:38.976Z</time></trkpt><trkpt lat="45.8414299" lon="13.761077"><ele>365.0</ele><time>2026-04-06T15:29:39.987Z</time></trkpt><trkpt lat="45.8415286" lon="13.761183"><ele>365.0</ele><time>2026-04-06T15:29:40.979Z</time></trkpt><trkpt lat="45.8416194" lon="13.7612884"><ele>365.0</ele><time>2026-04-06T15:29:41.973Z</time></trkpt><trkpt lat="45.8417212" lon="13.7613857"><ele>365.0</ele><time>2026-04-06T15:29:42.971Z</time></trkpt><trkpt lat="45.8418309" lon="13.7614756"><ele>365.0</ele><time>2026-04-06T15:29:43.967Z</time></trkpt><trkpt lat="45.8419416" lon="13.7615431"><ele>367.2</ele><time>2026-04-06T15:29:44.98Z</time></trkpt><trkpt lat="45.8420553" lon="13.7615814"><ele>369.4</ele><time>2026-04-06T15:29:45.981Z</time></trkpt><trkpt lat="45.8421627" lon="13.7616059"><ele>371.6</ele><time>2026-04-06T15:29:47.004Z</time></trkpt><trkpt lat="45.8422655" lon="13.7616142"><ele>373.8</ele><time>2026-04-06T15:29:47.974Z</time></trkpt><trkpt lat="45.8423662" lon="13.7616298"><ele>376.0</ele><time>2026-04-06T15:29:48.974Z</time></trkpt><trkpt lat="45.8424646" lon="13.7616594"><ele>376.0</ele><time>2026-04-06T15:29:49.98Z</time></trkpt><trkpt lat="45.8425643" lon="13.7617112"><ele>376.0</ele><time>2026-04-06T15:29:50.978Z</time></trkpt><trkpt lat="45.8426799" lon="13.7617742"><ele>376.0</ele><time>2026-04-06T15:29:51.979Z</time></trkpt><trkpt lat="45.8428156" lon="13.7618437"><ele>376.0</ele><time>2026-04-06T15:29:52.977Z</time></trkpt><trkpt lat="45.8429578" lon="13.761913"><ele>376.0</ele><time>2026-04-06T15:29:53.983Z</time></trkpt><trkpt lat="45.8430884" lon="13.7619715"><ele>376.0</ele><time>2026-04-06T15:29:54.981Z</time></trkpt><trkpt lat="45.8432056" lon="13.7620155"><ele>376.0</ele><time>2026-04-06T15:29:55.981Z</time></trkpt><trkpt lat="45.8433055" lon="13.7620337"><ele>376.0</ele><time>2026-04-06T15:29:56.983Z</time></trkpt><trkpt lat="45.843397" lon="13.7620448"><ele>378.5</ele><time>2026-04-06T15:29:57.972Z</time></trkpt><trkpt lat="45.8434674" lon="13.7620551"><ele>381.0</ele><time>2026-04-06T15:29:58.98Z</time></trkpt><trkpt lat="45.8435483" lon="13.7621073"><ele>383.5</ele><time>2026-04-06T15:30:00.978Z</time></trkpt><trkpt lat="45.8435845" lon="13.7622786"><ele>386.0</ele><time>2026-04-06T15:30:02.966Z</time></trkpt><trkpt lat="45.8435891" lon="13.7623875"><ele>388.50000000000006</ele><time>2026-04-06T15:30:03.968Z</time></trkpt><trkpt lat="45.8435884" lon="13.7625087"><ele>391.0</ele><time>2026-04-06T15:30:04.964Z</time></trkpt><trkpt lat="45.8435882" lon="13.7626273"><ele>391.33333333333337</ele><time>2026-04-06T15:30:05.98Z</time></trkpt><trkpt lat="45.8435863" lon="13.7627345"><ele>391.6666666666667</ele><time>2026-04-06T15:30:06.977Z</time></trkpt><trkpt lat="45.8435878" lon="13.7628322"><ele>392.0</ele><time>2026-04-06T15:30:08.001Z</time></trkpt><trkpt lat="45.8435932" lon="13.7629309"><ele>392.33333333333337</ele><time>2026-04-06T15:30:08.979Z</time></trkpt><trkpt lat="45.8436129" lon="13.7630468"><ele>392.6666666666667</ele><time>2026-04-06T15:30:09.972Z</time></trkpt><trkpt lat="45.8436458" lon="13.7631643"><ele>393.0</ele><time>2026-04-06T15:30:10.984Z</time></trkpt><trkpt lat="45.8436768" lon="13.7632941"><ele>393.0</ele><time>2026-04-06T15:30:11.97Z</time></trkpt><trkpt lat="45.8437059" lon="13.7634251"><ele>393.0</ele><time>2026-04-06T15:30:12.983Z</time></trkpt><trkpt lat="45.8437336" lon="13.7635458"><ele>393.0</ele><time>2026-04-06T15:30:13.975Z</time></trkpt><trkpt lat="45.8437598" lon="13.7636525"><ele>393.0</ele><time>2026-04-06T15:30:14.979Z</time></trkpt><trkpt lat="45.843781" lon="13.7637605"><ele>393.0</ele><time>2026-04-06T15:30:15.977Z</time></trkpt><trkpt lat="45.8438041" lon="13.7638711"><ele>393.0</ele><time>2026-04-06T15:30:16.978Z</time></trkpt><trkpt lat="45.84383" lon="13.7639711"><ele>392.8333333333333</ele><time>2026-04-06T15:30:17.989Z</time></trkpt><trkpt lat="45.843856" lon="13.7640576"><ele>392.66666666666663</ele><time>2026-04-06T15:30:18.973Z</time></trkpt><trkpt lat="45.843912" lon="13.7642104"><ele>392.5</ele><time>2026-04-06T15:30:20.976Z</time></trkpt><trkpt lat="45.8439714" lon="13.7643414"><ele>392.3333333333333</ele><time>2026-04-06T15:30:22.976Z</time></trkpt><trkpt lat="45.8440035" lon="13.7644405"><ele>392.16666666666663</ele><time>2026-04-06T15:30:25.974Z</time></trkpt><trkpt lat="45.8440695" lon="13.7644676"><ele>392.0</ele><time>2026-04-06T15:30:28.966Z</time></trkpt><trkpt lat="45.8440835" lon="13.7643472"><ele>392.0</ele><time>2026-04-06T15:30:31.97Z</time></trkpt><trkpt lat="45.8440618" lon="13.7641799"><ele>392.0</ele><time>2026-04-06T15:30:33.978Z</time></trkpt><trkpt lat="45.8440814" lon="13.7640179"><ele>392.0</ele><time>2026-04-06T15:30:35.978Z</time></trkpt><trkpt lat="45.8441109" lon="13.7638794"><ele>392.0</ele><time>2026-04-06T15:30:37.975Z</time></trkpt><trkpt lat="45.8441292" lon="13.7637889"><ele>392.0</ele><time>2026-04-06T15:30:41.981Z</time></trkpt><trkpt lat="45.8441933" lon="13.7637734"><ele>392.0</ele><time>2026-04-06T15:31:55.978Z</time></trkpt><trkpt lat="45.8441861" lon="13.7636836"><ele>392.0</ele><time>2026-04-06T15:32:02.97Z</time></trkpt><trkpt lat="45.8441453" lon="13.7635679"><ele>392.0</ele><time>2026-04-06T15:32:07.977Z</time></trkpt><trkpt lat="45.8441881" lon="13.7633994"><ele>392.0</ele><time>2026-04-06T15:32:09.976Z</time></trkpt><trkpt lat="45.8442153" lon="13.763247"><ele>392.0</ele><time>2026-04-06T15:32:11.98Z</time></trkpt><trkpt lat="45.8442447" lon="13.7630869"><ele>392.25</ele><time>2026-04-06T15:32:13.991Z</time></trkpt><trkpt lat="45.8442869" lon="13.7629189"><ele>392.5</ele><time>2026-04-06T15:32:15.988Z</time></trkpt><trkpt lat="45.8443271" lon="13.7627688"><ele>392.75</ele><time>2026-04-06T15:32:17.983Z</time></trkpt><trkpt lat="45.8443638" lon="13.7626382"><ele>393.0</ele><time>2026-04-06T15:32:19.991Z</time></trkpt><trkpt lat="45.8444043" lon="13.7624833"><ele>395.79999999999995</ele><time>2026-04-06T15:32:21.991Z</time></trkpt><trkpt lat="45.8444313" lon="13.7623961"><ele>398.6</ele><time>2026-04-06T15:32:22.979Z</time></trkpt><trkpt lat="45.8444669" lon="13.7622276"><ele>401.4</ele><time>2026-04-06T15:32:24.984Z</time></trkpt><trkpt lat="45.8445157" lon="13.7620619"><ele>404.20000000000005</ele><time>2026-04-06T15:32:26.989Z</time></trkpt><trkpt lat="45.8445413" lon="13.7619745"><ele>407.0</ele><time>2026-04-06T15:32:27.986Z</time></trkpt><trkpt lat="45.8445856" lon="13.7618711"><ele>406.8333333333333</ele><time>2026-04-06T15:32:28.978Z</time></trkpt><trkpt lat="45.844626" lon="13.7617795"><ele>406.66666666666663</ele><time>2026-04-06T15:32:29.982Z</time></trkpt><trkpt lat="45.8446671" lon="13.7616891"><ele>406.5</ele><time>2026-04-06T15:32:30.992Z</time></trkpt><trkpt lat="45.8446977" lon="13.7616094"><ele>406.33333333333337</ele><time>2026-04-06T15:32:31.986Z</time></trkpt><trkpt lat="45.8447346" lon="13.7614682"><ele>406.1666666666667</ele><time>2026-04-06T15:32:33.982Z</time></trkpt><trkpt lat="45.8447412" lon="13.7613406"><ele>406.0</ele><time>2026-04-06T15:32:35.979Z</time></trkpt><trkpt lat="45.8447397" lon="13.7612098"><ele>406.00000000000006</ele><time>2026-04-06T15:32:38.982Z</time></trkpt><trkpt lat="45.8447309" lon="13.7610841"><ele>406.0</ele><time>2026-04-06T15:32:41.989Z</time></trkpt><trkpt lat="45.844765" lon="13.7609569"><ele>406.0</ele><time>2026-04-06T15:32:43.988Z</time></trkpt><trkpt lat="45.8448229" lon="13.7608615"><ele>406.0</ele><time>2026-04-06T15:32:45.981Z</time></trkpt><trkpt lat="45.8448622" lon="13.7607515"><ele>406.00000000000006</ele><time>2026-04-06T15:32:47.979Z</time></trkpt><trkpt lat="45.844883" lon="13.7606627"><ele>406.0</ele><time>2026-04-06T15:32:48.994Z</time></trkpt><trkpt lat="45.8449263" lon="13.7604992"><ele>405.8</ele><time>2026-04-06T15:32:50.981Z</time></trkpt><trkpt lat="45.8450039" lon="13.7603497"><ele>405.6</ele><time>2026-04-06T15:32:52.979Z</time></trkpt><trkpt lat="45.8450892" lon="13.760208"><ele>405.4</ele><time>2026-04-06T15:32:54.978Z</time></trkpt><trkpt lat="45.8451239" lon="13.7601283"><ele>405.2</ele><time>2026-04-06T15:32:55.999Z</time></trkpt><trkpt lat="45.8451499" lon="13.760033"><ele>405.0</ele><time>2026-04-06T15:32:56.982Z</time></trkpt><trkpt lat="45.8451876" lon="13.7599537"><ele>407.6</ele><time>2026-04-06T15:32:57.978Z</time></trkpt><trkpt lat="45.8452685" lon="13.7598099"><ele>410.2</ele><time>2026-04-06T15:32:59.981Z</time></trkpt><trkpt lat="45.845357" lon="13.7596904"><ele>412.79999999999995</ele><time>2026-04-06T15:33:01.974Z</time></trkpt><trkpt lat="45.8454133" lon="13.7596355"><ele>415.4</ele><time>2026-04-06T15:33:02.982Z</time></trkpt><trkpt lat="45.8454677" lon="13.759581"><ele>418.0</ele><time>2026-04-06T15:33:03.984Z</time></trkpt><trkpt lat="45.8455156" lon="13.759516"><ele>418.4</ele><time>2026-04-06T15:33:04.986Z</time></trkpt><trkpt lat="45.8455747" lon="13.7593594"><ele>418.79999999999995</ele><time>2026-04-06T15:33:06.983Z</time></trkpt><trkpt lat="45.8456012" lon="13.7592025"><ele>419.2</ele><time>2026-04-06T15:33:08.973Z</time></trkpt><trkpt lat="45.8455998" lon="13.7590746"><ele>419.6</ele><time>2026-04-06T15:33:10.979Z</time></trkpt><trkpt lat="45.845598" lon="13.7589705"><ele>420.0</ele><time>2026-04-06T15:33:12.983Z</time></trkpt><trkpt lat="45.845595" lon="13.7588595"><ele>420.0</ele><time>2026-04-06T15:33:14.993Z</time></trkpt><trkpt lat="45.845572" lon="13.7587653"><ele>420.0</ele><time>2026-04-06T15:33:16.977Z</time></trkpt><trkpt lat="45.8455116" lon="13.7586915"><ele>420.0</ele><time>2026-04-06T15:33:18.968Z</time></trkpt><trkpt lat="45.8454602" lon="13.7586084"><ele>420.0</ele><time>2026-04-06T15:33:20.975Z</time></trkpt><trkpt lat="45.8454649" lon="13.7584994"><ele>420.0</ele><time>2026-04-06T15:33:23.959Z</time></trkpt><trkpt lat="45.8455147" lon="13.7584284"><ele>420.0</ele><time>2026-04-06T15:33:25.971Z</time></trkpt><trkpt lat="45.8455889" lon="13.7583878"><ele>420.5</ele><time>2026-04-06T15:33:27.973Z</time></trkpt><trkpt lat="45.8456858" lon="13.7583589"><ele>421.0</ele><time>2026-04-06T15:33:29.977Z</time></trkpt><trkpt lat="45.845754" lon="13.7583493"><ele>421.5</ele><time>2026-04-06T15:33:30.986Z</time></trkpt><trkpt lat="45.8458161" lon="13.7583287"><ele>422.0</ele><time>2026-04-06T15:33:31.978Z</time></trkpt><trkpt lat="45.8458329" lon="13.7582114"><ele>422.5</ele><time>2026-04-06T15:33:34.968Z</time></trkpt><trkpt lat="45.84587" lon="13.7581181"><ele>423.0</ele><time>2026-04-06T15:33:36.972Z</time></trkpt><trkpt lat="45.8458717" lon="13.757997"><ele>423.0</ele><time>2026-04-06T15:33:38.963Z</time></trkpt><trkpt lat="45.8458657" lon="13.7578788"><ele>423.0</ele><time>2026-04-06T15:33:40.97Z</time></trkpt><trkpt lat="45.8458946" lon="13.7577641"><ele>423.0</ele><time>2026-04-06T15:33:42.967Z</time></trkpt><trkpt lat="45.8459431" lon="13.7576785"><ele>423.0</ele><time>2026-04-06T15:33:44.931Z</time></trkpt><trkpt lat="45.8459962" lon="13.7575951"><ele>423.0</ele><time>2026-04-06T15:33:47.976Z</time></trkpt><trkpt lat="45.8460595" lon="13.757524"><ele>423.0</ele><time>2026-04-06T15:33:50.975Z</time></trkpt><trkpt lat="45.8461013" lon="13.7574014"><ele>425.0</ele><time>2026-04-06T15:33:52.974Z</time></trkpt><trkpt lat="45.8461487" lon="13.7572865"><ele>427.0</ele><time>2026-04-06T15:33:54.976Z</time></trkpt><trkpt lat="45.8461783" lon="13.7572036"><ele>429.0</ele><time>2026-04-06T15:33:56.972Z</time></trkpt><trkpt lat="45.8462221" lon="13.7570734"><ele>431.0</ele><time>2026-04-06T15:33:59.979Z</time></trkpt><trkpt lat="45.8462927" lon="13.7570468"><ele>433.0</ele><time>2026-04-06T15:34:03.963Z</time></trkpt><trkpt lat="45.8463831" lon="13.7571196"><ele>435.0</ele><time>2026-04-06T15:34:05.974Z</time></trkpt><trkpt lat="45.8464832" lon="13.7572292"><ele>435.00000000000006</ele><time>2026-04-06T15:34:07.983Z</time></trkpt><trkpt lat="45.8465319" lon="13.7572945"><ele>435.0</ele><time>2026-04-06T15:34:08.975Z</time></trkpt><trkpt lat="45.8465832" lon="13.7573541"><ele>435.0</ele><time>2026-04-06T15:34:09.975Z</time></trkpt><trkpt lat="45.8466426" lon="13.7574056"><ele>435.0</ele><time>2026-04-06T15:34:10.976Z</time></trkpt><trkpt lat="45.8467005" lon="13.75745"><ele>435.0</ele><time>2026-04-06T15:34:11.979Z</time></trkpt><trkpt lat="45.8467682" lon="13.7575494"><ele>435.00000000000006</ele><time>2026-04-06T15:34:13.986Z</time></trkpt><trkpt lat="45.8468199" lon="13.7576431"><ele>435.0</ele><time>2026-04-06T15:34:15.981Z</time></trkpt><trkpt lat="45.8468958" lon="13.7576212"><ele>437.1666666666667</ele><time>2026-04-06T15:34:18.984Z</time></trkpt><trkpt lat="45.8469465" lon="13.7575109"><ele>439.33333333333337</ele><time>2026-04-06T15:34:20.976Z</time></trkpt><trkpt lat="45.8469639" lon="13.7573908"><ele>441.5</ele><time>2026-04-06T15:34:22.974Z</time></trkpt><trkpt lat="45.8470075" lon="13.7573039"><ele>443.6666666666667</ele><time>2026-04-06T15:34:25.974Z</time></trkpt><trkpt lat="45.8470636" lon="13.7574001"><ele>445.83333333333337</ele><time>2026-04-06T15:34:29.973Z</time></trkpt><trkpt lat="45.8471657" lon="13.7574387"><ele>448.0</ele><time>2026-04-06T15:34:32.973Z</time></trkpt><trkpt lat="45.8472631" lon="13.7574827"><ele>448.0</ele><time>2026-04-06T15:34:34.981Z</time></trkpt><trkpt lat="45.8473605" lon="13.7574451"><ele>448.0</ele><time>2026-04-06T15:34:36.968Z</time></trkpt><trkpt lat="45.8474058" lon="13.7573817"><ele>448.0</ele><time>2026-04-06T15:34:37.978Z</time></trkpt><trkpt lat="45.8474453" lon="13.7572985"><ele>448.0</ele><time>2026-04-06T15:34:38.975Z</time></trkpt><trkpt lat="45.8474961" lon="13.7572157"><ele>448.0</ele><time>2026-04-06T15:34:39.975Z</time></trkpt><trkpt lat="45.8475574" lon="13.7571701"><ele>448.0</ele><time>2026-04-06T15:34:40.976Z</time></trkpt><trkpt lat="45.8476202" lon="13.7571297"><ele>448.0</ele><time>2026-04-06T15:34:41.975Z</time></trkpt><trkpt lat="45.8476834" lon="13.7570706"><ele>448.83333333333337</ele><time>2026-04-06T15:34:42.976Z</time></trkpt><trkpt lat="45.847723" lon="13.7569785"><ele>449.6666666666667</ele><time>2026-04-06T15:34:43.981Z</time></trkpt><trkpt lat="45.8477485" lon="13.7568717"><ele>450.5</ele><time>2026-04-06T15:34:44.973Z</time></trkpt><trkpt lat="45.8477789" lon="13.7567552"><ele>451.33333333333337</ele><time>2026-04-06T15:34:45.971Z</time></trkpt><trkpt lat="45.8478219" lon="13.7566598"><ele>452.1666666666667</ele><time>2026-04-06T15:34:46.978Z</time></trkpt><trkpt lat="45.8478834" lon="13.7565807"><ele>453.0</ele><time>2026-04-06T15:34:47.981Z</time></trkpt><trkpt lat="45.8479523" lon="13.7565234"><ele>453.0</ele><time>2026-04-06T15:34:48.976Z</time></trkpt><trkpt lat="45.8480157" lon="13.7564808"><ele>453.0</ele><time>2026-04-06T15:34:49.97Z</time></trkpt><trkpt lat="45.8481089" lon="13.756353"><ele>453.0</ele><time>2026-04-06T15:34:51.976Z</time></trkpt><trkpt lat="45.8481492" lon="13.7562652"><ele>453.0</ele><time>2026-04-06T15:34:52.967Z</time></trkpt><trkpt lat="45.8481918" lon="13.7561789"><ele>453.0</ele><time>2026-04-06T15:34:53.976Z</time></trkpt><trkpt lat="45.8482398" lon="13.7560894"><ele>453.0</ele><time>2026-04-06T15:34:54.977Z</time></trkpt><trkpt lat="45.8482916" lon="13.756008"><ele>453.1666666666667</ele><time>2026-04-06T15:34:55.987Z</time></trkpt><trkpt lat="45.8483436" lon="13.7559219"><ele>453.33333333333337</ele><time>2026-04-06T15:34:56.973Z</time></trkpt><trkpt lat="45.8483936" lon="13.7558264"><ele>453.5</ele><time>2026-04-06T15:34:57.972Z</time></trkpt><trkpt lat="45.848432" lon="13.7557353"><ele>453.6666666666667</ele><time>2026-04-06T15:34:58.978Z</time></trkpt><trkpt lat="45.848462" lon="13.7556394"><ele>453.83333333333337</ele><time>2026-04-06T15:34:59.969Z</time></trkpt><trkpt lat="45.8484824" lon="13.7555508"><ele>454.0</ele><time>2026-04-06T15:35:00.979Z</time></trkpt><trkpt lat="45.848533" lon="13.7554033"><ele>454.8571428571429</ele><time>2026-04-06T15:35:02.972Z</time></trkpt><trkpt lat="45.8485733" lon="13.7552454"><ele>455.7142857142858</ele><time>2026-04-06T15:35:04.992Z</time></trkpt><trkpt lat="45.8485805" lon="13.7551523"><ele>456.57142857142856</ele><time>2026-04-06T15:35:05.972Z</time></trkpt><trkpt lat="45.8485805" lon="13.7550595"><ele>457.42857142857144</ele><time>2026-04-06T15:35:06.985Z</time></trkpt><trkpt lat="45.8485859" lon="13.7549617"><ele>458.2857142857143</ele><time>2026-04-06T15:35:07.983Z</time></trkpt><trkpt lat="45.848594" lon="13.7548647"><ele>459.1428571428571</ele><time>2026-04-06T15:35:08.983Z</time></trkpt><trkpt lat="45.8486081" lon="13.7547725"><ele>459.99999999999994</ele><time>2026-04-06T15:35:09.983Z</time></trkpt><trkpt lat="45.8486198" lon="13.7546785"><ele>460.00000000000006</ele><time>2026-04-06T15:35:10.978Z</time></trkpt><trkpt lat="45.848621" lon="13.7545828"><ele>460.0</ele><time>2026-04-06T15:35:11.989Z</time></trkpt><trkpt lat="45.8486229" lon="13.7544862"><ele>460.0</ele><time>2026-04-06T15:35:12.984Z</time></trkpt><trkpt lat="45.8486473" lon="13.7543195"><ele>460.0</ele><time>2026-04-06T15:35:14.989Z</time></trkpt><trkpt lat="45.8486747" lon="13.7542349"><ele>460.00000000000006</ele><time>2026-04-06T15:35:15.974Z</time></trkpt><trkpt lat="45.8486881" lon="13.7541395"><ele>460.0</ele><time>2026-04-06T15:35:16.983Z</time></trkpt><trkpt lat="45.8487428" lon="13.7539914"><ele>459.2</ele><time>2026-04-06T15:35:18.995Z</time></trkpt><trkpt lat="45.848819" lon="13.7539023"><ele>458.4</ele><time>2026-04-06T15:35:20.982Z</time></trkpt><trkpt lat="45.8489106" lon="13.7538321"><ele>457.6</ele><time>2026-04-06T15:35:22.981Z</time></trkpt><trkpt lat="45.849037" lon="13.7537798"><ele>456.8</ele><time>2026-04-06T15:35:24.98Z</time></trkpt><trkpt lat="45.8491206" lon="13.7537622"><ele>456.0</ele><time>2026-04-06T15:35:25.979Z</time></trkpt><trkpt lat="45.8492017" lon="13.7537285"><ele>456.0</ele><time>2026-04-06T15:35:26.979Z</time></trkpt><trkpt lat="45.849266" lon="13.7536791"><ele>456.0</ele><time>2026-04-06T15:35:27.993Z</time></trkpt><trkpt lat="45.8493302" lon="13.7535967"><ele>456.0</ele><time>2026-04-06T15:35:28.977Z</time></trkpt><trkpt lat="45.8493696" lon="13.7535043"><ele>456.0</ele><time>2026-04-06T15:35:29.961Z</time></trkpt><trkpt lat="45.8493981" lon="13.7534021"><ele>456.0</ele><time>2026-04-06T15:35:30.966Z</time></trkpt><trkpt lat="45.8494242" lon="13.7532835"><ele>456.0</ele><time>2026-04-06T15:35:31.98Z</time></trkpt><trkpt lat="45.8494595" lon="13.7531608"><ele>456.20000000000005</ele><time>2026-04-06T15:35:32.983Z</time></trkpt><trkpt lat="45.8494974" lon="13.7530314"><ele>456.40000000000003</ele><time>2026-04-06T15:35:33.999Z</time></trkpt><trkpt lat="45.8495356" lon="13.7528951"><ele>456.6</ele><time>2026-04-06T15:35:34.975Z</time></trkpt><trkpt lat="45.8495633" lon="13.7527526"><ele>456.8</ele><time>2026-04-06T15:35:35.972Z</time></trkpt><trkpt lat="45.8495851" lon="13.7526162"><ele>457.0</ele><time>2026-04-06T15:35:36.978Z</time></trkpt><trkpt lat="45.8495997" lon="13.7524991"><ele>457.0</ele><time>2026-04-06T15:35:37.979Z</time></trkpt><trkpt lat="45.8496446" lon="13.7523571"><ele>457.00000000000006</ele><time>2026-04-06T15:35:39.98Z</time></trkpt><trkpt lat="45.8497039" lon="13.752306"><ele>457.00000000000006</ele><time>2026-04-06T15:35:41.97Z</time></trkpt><trkpt lat="45.8498243" lon="13.7522845"><ele>457.0</ele><time>2026-04-06T15:35:43.965Z</time></trkpt><trkpt lat="45.8499066" lon="13.7522698"><ele>457.0</ele><time>2026-04-06T15:35:44.98Z</time></trkpt><trkpt lat="45.8499953" lon="13.7522409"><ele>457.0</ele><time>2026-04-06T15:35:45.974Z</time></trkpt><trkpt lat="45.8500909" lon="13.7522002"><ele>457.00000000000006</ele><time>2026-04-06T15:35:46.977Z</time></trkpt><trkpt lat="45.8501831" lon="13.7521413"><ele>457.00000000000006</ele><time>2026-04-06T15:35:47.97Z</time></trkpt><trkpt lat="45.8502626" lon="13.7520579"><ele>457.0</ele><time>2026-04-06T15:35:48.98Z</time></trkpt><trkpt lat="45.8503311" lon="13.7519583"><ele>457.0</ele><time>2026-04-06T15:35:49.969Z</time></trkpt><trkpt lat="45.8503904" lon="13.7518826"><ele>458.6666666666667</ele><time>2026-04-06T15:35:50.99Z</time></trkpt><trkpt lat="45.8504639" lon="13.7518459"><ele>460.33333333333337</ele><time>2026-04-06T15:35:52.976Z</time></trkpt><trkpt lat="45.8504966" lon="13.7519258"><ele>462.0</ele><time>2026-04-06T15:36:06.993Z</time></trkpt><trkpt lat="45.8504378" lon="13.7518234"><ele>463.66666666666663</ele><time>2026-04-06T15:36:19.969Z</time></trkpt><trkpt lat="45.8503562" lon="13.7518783"><ele>465.3333333333333</ele><time>2026-04-06T15:36:21.973Z</time></trkpt><trkpt lat="45.8503086" lon="13.7519491"><ele>467.0</ele><time>2026-04-06T15:36:22.971Z</time></trkpt><trkpt lat="45.8502569" lon="13.7520273"><ele>468.16666666666663</ele><time>2026-04-06T15:36:23.978Z</time></trkpt><trkpt lat="45.8502018" lon="13.752099"><ele>469.3333333333333</ele><time>2026-04-06T15:36:24.983Z</time></trkpt><trkpt lat="45.8501359" lon="13.7521716"><ele>470.5</ele><time>2026-04-06T15:36:25.99Z</time></trkpt><trkpt lat="45.8500662" lon="13.7522218"><ele>471.66666666666663</ele><time>2026-04-06T15:36:26.983Z</time></trkpt><trkpt lat="45.8499905" lon="13.7522577"><ele>472.8333333333333</ele><time>2026-04-06T15:36:27.981Z</time></trkpt><trkpt lat="45.8499133" lon="13.7522813"><ele>474.0</ele><time>2026-04-06T15:36:28.997Z</time></trkpt><trkpt lat="45.8498348" lon="13.7522994"><ele>470.6</ele><time>2026-04-06T15:36:29.976Z</time></trkpt><trkpt lat="45.8497553" lon="13.7523146"><ele>467.2</ele><time>2026-04-06T15:36:30.999Z</time></trkpt><trkpt lat="45.8496841" lon="13.7523227"><ele>463.80000000000007</ele><time>2026-04-06T15:36:31.971Z</time></trkpt><trkpt lat="45.8496017" lon="13.7522942"><ele>460.40000000000003</ele><time>2026-04-06T15:36:33.981Z</time></trkpt><trkpt lat="45.8494906" lon="13.7521544"><ele>457.0</ele><time>2026-04-06T15:36:35.974Z</time></trkpt><trkpt lat="45.849418" lon="13.7520377"><ele>457.0</ele><time>2026-04-06T15:36:36.964Z</time></trkpt><trkpt lat="45.8493424" lon="13.7519244"><ele>457.0</ele><time>2026-04-06T15:36:37.977Z</time></trkpt><trkpt lat="45.8492546" lon="13.7518335"><ele>457.0</ele><time>2026-04-06T15:36:38.972Z</time></trkpt><trkpt lat="45.8491516" lon="13.7517538"><ele>457.0</ele><time>2026-04-06T15:36:39.978Z</time></trkpt><trkpt lat="45.8490428" lon="13.75168"><ele>454.8</ele><time>2026-04-06T15:36:40.984Z</time></trkpt><trkpt lat="45.8489467" lon="13.7516205"><ele>452.6</ele><time>2026-04-06T15:36:41.974Z</time></trkpt><trkpt lat="45.8488751" lon="13.7515682"><ele>450.40000000000003</ele><time>2026-04-06T15:36:42.979Z</time></trkpt><trkpt lat="45.8488171" lon="13.7514896"><ele>448.20000000000005</ele><time>2026-04-06T15:36:43.979Z</time></trkpt><trkpt lat="45.8487532" lon="13.751395"><ele>446.0</ele><time>2026-04-06T15:36:44.964Z</time></trkpt><trkpt lat="45.8486926" lon="13.751267"><ele>446.0</ele><time>2026-04-06T15:36:45.976Z</time></trkpt><trkpt lat="45.8486393" lon="13.7511207"><ele>446.0</ele><time>2026-04-06T15:36:46.962Z</time></trkpt><trkpt lat="45.8485922" lon="13.7509725"><ele>446.0</ele><time>2026-04-06T15:36:47.978Z</time></trkpt><trkpt lat="45.8485511" lon="13.7508204"><ele>446.0</ele><time>2026-04-06T15:36:48.982Z</time></trkpt><trkpt lat="45.848517" lon="13.7506661"><ele>446.20000000000005</ele><time>2026-04-06T15:36:49.99Z</time></trkpt><trkpt lat="45.8484904" lon="13.7505202"><ele>446.40000000000003</ele><time>2026-04-06T15:36:50.97Z</time></trkpt><trkpt lat="45.8484686" lon="13.7503983"><ele>446.6</ele><time>2026-04-06T15:36:51.973Z</time></trkpt><trkpt lat="45.848432" lon="13.7502983"><ele>446.8</ele><time>2026-04-06T15:36:52.979Z</time></trkpt><trkpt lat="45.8483649" lon="13.7502236"><ele>447.0</ele><time>2026-04-06T15:36:53.962Z</time></trkpt><trkpt lat="45.8482732" lon="13.7501485"><ele>443.5</ele><time>2026-04-06T15:36:54.978Z</time></trkpt><trkpt lat="45.84817" lon="13.7500558"><ele>440.0</ele><time>2026-04-06T15:36:55.976Z</time></trkpt><trkpt lat="45.8480548" lon="13.7499508"><ele>436.5</ele><time>2026-04-06T15:36:56.983Z</time></trkpt><trkpt lat="45.8479393" lon="13.7498338"><ele>433.0</ele><time>2026-04-06T15:36:57.972Z</time></trkpt><trkpt lat="45.8478284" lon="13.7497236"><ele>433.0</ele><time>2026-04-06T15:36:58.983Z</time></trkpt><trkpt lat="45.847724" lon="13.7496101"><ele>433.0</ele><time>2026-04-06T15:36:59.97Z</time></trkpt><trkpt lat="45.8476367" lon="13.7495005"><ele>433.0</ele><time>2026-04-06T15:37:00.986Z</time></trkpt><trkpt lat="45.8475646" lon="13.7493867"><ele>433.0</ele><time>2026-04-06T15:37:01.981Z</time></trkpt><trkpt lat="45.847505" lon="13.7492493"><ele>430.25</ele><time>2026-04-06T15:37:02.979Z</time></trkpt><trkpt lat="45.8474599" lon="13.7490882"><ele>427.5</ele><time>2026-04-06T15:37:03.964Z</time></trkpt><trkpt lat="45.8474278" lon="13.7489177"><ele>424.75</ele><time>2026-04-06T15:37:04.979Z</time></trkpt><trkpt lat="45.8474074" lon="13.7487531"><ele>422.0</ele><time>2026-04-06T15:37:05.981Z</time></trkpt><trkpt lat="45.8473897" lon="13.7485913"><ele>421.6</ele><time>2026-04-06T15:37:06.985Z</time></trkpt><trkpt lat="45.8473706" lon="13.7484327"><ele>421.20000000000005</ele><time>2026-04-06T15:37:07.984Z</time></trkpt><trkpt lat="45.8473455" lon="13.7482787"><ele>420.8</ele><time>2026-04-06T15:37:08.984Z</time></trkpt><trkpt lat="45.8473181" lon="13.7481324"><ele>420.4</ele><time>2026-04-06T15:37:09.973Z</time></trkpt><trkpt lat="45.8472902" lon="13.7479895"><ele>420.0</ele><time>2026-04-06T15:37:10.978Z</time></trkpt><trkpt lat="45.8472607" lon="13.7478529"><ele>420.0</ele><time>2026-04-06T15:37:11.973Z</time></trkpt><trkpt lat="45.8472425" lon="13.7477338"><ele>420.0</ele><time>2026-04-06T15:37:12.979Z</time></trkpt><trkpt lat="45.8472234" lon="13.7475956"><ele>420.0</ele><time>2026-04-06T15:37:14.997Z</time></trkpt><trkpt lat="45.8472225" lon="13.747478"><ele>420.0</ele><time>2026-04-06T15:37:16.981Z</time></trkpt><trkpt lat="45.8472123" lon="13.747364"><ele>420.0</ele><time>2026-04-06T15:37:18.977Z</time></trkpt><trkpt lat="45.847197" lon="13.747252"><ele>420.0</ele><time>2026-04-06T15:37:20.98Z</time></trkpt><trkpt lat="45.8471907" lon="13.7471315"><ele>419.1666666666667</ele><time>2026-04-06T15:37:23.018Z</time></trkpt><trkpt lat="45.8471776" lon="13.7469844"><ele>418.33333333333337</ele><time>2026-04-06T15:37:24.981Z</time></trkpt><trkpt lat="45.8471604" lon="13.7468"><ele>417.5</ele><time>2026-04-06T15:37:26.982Z</time></trkpt><trkpt lat="45.8471522" lon="13.7467047"><ele>416.6666666666667</ele><time>2026-04-06T15:37:27.982Z</time></trkpt><trkpt lat="45.8471385" lon="13.7466007"><ele>415.83333333333337</ele><time>2026-04-06T15:37:28.989Z</time></trkpt><trkpt lat="45.8471237" lon="13.7465037"><ele>415.0</ele><time>2026-04-06T15:37:29.99Z</time></trkpt><trkpt lat="45.8471131" lon="13.7464018"><ele>414.6</ele><time>2026-04-06T15:37:30.983Z</time></trkpt><trkpt lat="45.8471121" lon="13.7463021"><ele>414.2</ele><time>2026-04-06T15:37:31.999Z</time></trkpt><trkpt lat="45.8471305" lon="13.7461728"><ele>413.79999999999995</ele><time>2026-04-06T15:37:32.993Z</time></trkpt><trkpt lat="45.8471657" lon="13.7460336"><ele>413.4</ele><time>2026-04-06T15:37:33.979Z</time></trkpt><trkpt lat="45.8472116" lon="13.7458814"><ele>413.0</ele><time>2026-04-06T15:37:34.967Z</time></trkpt><trkpt lat="45.8472596" lon="13.7457315"><ele>412.2</ele><time>2026-04-06T15:37:35.969Z</time></trkpt><trkpt lat="45.8473032" lon="13.7455938"><ele>411.4</ele><time>2026-04-06T15:37:36.988Z</time></trkpt><trkpt lat="45.8473439" lon="13.7454595"><ele>410.59999999999997</ele><time>2026-04-06T15:37:37.972Z</time></trkpt><trkpt lat="45.8473739" lon="13.7453181"><ele>409.79999999999995</ele><time>2026-04-06T15:37:38.971Z</time></trkpt><trkpt lat="45.8473787" lon="13.7451745"><ele>409.0</ele><time>2026-04-06T15:37:39.979Z</time></trkpt><trkpt lat="45.8473768" lon="13.7450342"><ele>407.6</ele><time>2026-04-06T15:37:40.976Z</time></trkpt><trkpt lat="45.8473606" lon="13.744898"><ele>406.2</ele><time>2026-04-06T15:37:41.987Z</time></trkpt><trkpt lat="45.8473445" lon="13.7447581"><ele>404.8</ele><time>2026-04-06T15:37:42.967Z</time></trkpt><trkpt lat="45.8473278" lon="13.7446155"><ele>403.40000000000003</ele><time>2026-04-06T15:37:43.979Z</time></trkpt><trkpt lat="45.8473212" lon="13.7444773"><ele>402.0</ele><time>2026-04-06T15:37:44.976Z</time></trkpt><trkpt lat="45.847331" lon="13.7443357"><ele>400.5</ele><time>2026-04-06T15:37:45.977Z</time></trkpt><trkpt lat="45.8473533" lon="13.7441848"><ele>399.0</ele><time>2026-04-06T15:37:46.973Z</time></trkpt><trkpt lat="45.8473864" lon="13.7440251"><ele>397.5</ele><time>2026-04-06T15:37:47.986Z</time></trkpt><trkpt lat="45.8474263" lon="13.7438515"><ele>396.0</ele><time>2026-04-06T15:37:48.975Z</time></trkpt><trkpt lat="45.8474582" lon="13.7436832"><ele>394.4</ele><time>2026-04-06T15:37:49.972Z</time></trkpt><trkpt lat="45.8474843" lon="13.7435202"><ele>392.8</ele><time>2026-04-06T15:37:50.983Z</time></trkpt><trkpt lat="45.8475063" lon="13.7433598"><ele>391.2</ele><time>2026-04-06T15:37:51.972Z</time></trkpt><trkpt lat="45.8475297" lon="13.7432019"><ele>389.59999999999997</ele><time>2026-04-06T15:37:52.973Z</time></trkpt><trkpt lat="45.8475527" lon="13.7430634"><ele>388.0</ele><time>2026-04-06T15:37:53.975Z</time></trkpt><trkpt lat="45.8475674" lon="13.7429484"><ele>388.00000000000006</ele><time>2026-04-06T15:37:54.978Z</time></trkpt><trkpt lat="45.8475584" lon="13.7427702"><ele>388.0</ele><time>2026-04-06T15:37:56.99Z</time></trkpt><trkpt lat="45.847518" lon="13.7426964"><ele>388.0</ele><time>2026-04-06T15:37:57.972Z</time></trkpt><trkpt lat="45.847414" lon="13.7426428"><ele>388.0</ele><time>2026-04-06T15:37:59.967Z</time></trkpt><trkpt lat="45.847353" lon="13.7426674"><ele>388.00000000000006</ele><time>2026-04-06T15:38:00.967Z</time></trkpt><trkpt lat="45.847281" lon="13.7427233"><ele>388.0</ele><time>2026-04-06T15:38:01.973Z</time></trkpt><trkpt lat="45.8471933" lon="13.7428255"><ele>388.0</ele><time>2026-04-06T15:38:02.972Z</time></trkpt><trkpt lat="45.8470999" lon="13.7429398"><ele>388.0</ele><time>2026-04-06T15:38:03.964Z</time></trkpt><trkpt lat="45.8470086" lon="13.7430278"><ele>388.0</ele><time>2026-04-06T15:38:04.974Z</time></trkpt><trkpt lat="45.8469197" lon="13.7431081"><ele>388.0</ele><time>2026-04-06T15:38:05.976Z</time></trkpt><trkpt lat="45.8468426" lon="13.7431631"><ele>388.0</ele><time>2026-04-06T15:38:06.98Z</time></trkpt><trkpt lat="45.8467426" lon="13.7431905"><ele>386.1666666666667</ele><time>2026-04-06T15:38:08.976Z</time></trkpt><trkpt lat="45.8466984" lon="13.7430646"><ele>384.33333333333337</ele><time>2026-04-06T15:38:11.966Z</time></trkpt><trkpt lat="45.8467205" lon="13.7429768"><ele>382.5</ele><time>2026-04-06T15:38:12.971Z</time></trkpt><trkpt lat="45.8467455" lon="13.7428747"><ele>380.6666666666667</ele><time>2026-04-06T15:38:13.988Z</time></trkpt><trkpt lat="45.8467553" lon="13.7427548"><ele>378.83333333333337</ele><time>2026-04-06T15:38:14.981Z</time></trkpt><trkpt lat="45.8467358" lon="13.7426292"><ele>377.0</ele><time>2026-04-06T15:38:15.964Z</time></trkpt><trkpt lat="45.8467037" lon="13.7425081"><ele>376.0</ele><time>2026-04-06T15:38:16.968Z</time></trkpt><trkpt lat="45.8466573" lon="13.7423946"><ele>375.0</ele><time>2026-04-06T15:38:17.958Z</time></trkpt><trkpt lat="45.8466293" lon="13.7423097"><ele>374.0</ele><time>2026-04-06T15:38:18.982Z</time></trkpt><trkpt lat="45.8465927" lon="13.7422042"><ele>373.0</ele><time>2026-04-06T15:38:20.997Z</time></trkpt><trkpt lat="45.8464874" lon="13.7422295"><ele>372.0</ele><time>2026-04-06T15:38:22.968Z</time></trkpt><trkpt lat="45.8464269" lon="13.742282"><ele>371.0</ele><time>2026-04-06T15:38:23.967Z</time></trkpt><trkpt lat="45.8463663" lon="13.7423305"><ele>371.0</ele><time>2026-04-06T15:38:24.964Z</time></trkpt><trkpt lat="45.8462973" lon="13.7423347"><ele>371.0</ele><time>2026-04-06T15:38:25.978Z</time></trkpt><trkpt lat="45.846228" lon="13.7423139"><ele>371.0</ele><time>2026-04-06T15:38:26.976Z</time></trkpt><trkpt lat="45.8461625" lon="13.7422651"><ele>371.0</ele><time>2026-04-06T15:38:27.974Z</time></trkpt><trkpt lat="45.8460882" lon="13.7421972"><ele>371.0</ele><time>2026-04-06T15:38:28.979Z</time></trkpt><trkpt lat="45.8460217" lon="13.7421019"><ele>371.0</ele><time>2026-04-06T15:38:29.977Z</time></trkpt><trkpt lat="45.8459578" lon="13.7419945"><ele>369.20000000000005</ele><time>2026-04-06T15:38:30.966Z</time></trkpt><trkpt lat="45.8458821" lon="13.7419164"><ele>367.40000000000003</ele><time>2026-04-06T15:38:31.972Z</time></trkpt><trkpt lat="45.8457879" lon="13.7418608"><ele>365.6</ele><time>2026-04-06T15:38:32.974Z</time></trkpt><trkpt lat="45.8456863" lon="13.7418296"><ele>363.8</ele><time>2026-04-06T15:38:33.971Z</time></trkpt><trkpt lat="45.845579" lon="13.741806"><ele>362.0</ele><time>2026-04-06T15:38:34.965Z</time></trkpt><trkpt lat="45.8454897" lon="13.7417652"><ele>361.40000000000003</ele><time>2026-04-06T15:38:35.971Z</time></trkpt><trkpt lat="45.8454055" lon="13.7416941"><ele>360.8</ele><time>2026-04-06T15:38:36.978Z</time></trkpt><trkpt lat="45.8453359" lon="13.7416081"><ele>360.2</ele><time>2026-04-06T15:38:37.968Z</time></trkpt><trkpt lat="45.845278" lon="13.7415116"><ele>359.6</ele><time>2026-04-06T15:38:38.977Z</time></trkpt><trkpt lat="45.8452455" lon="13.7413905"><ele>359.0</ele><time>2026-04-06T15:38:39.971Z</time></trkpt><trkpt lat="45.845223" lon="13.7412462"><ele>359.0</ele><time>2026-04-06T15:38:40.965Z</time></trkpt><trkpt lat="45.8452029" lon="13.7410946"><ele>359.0</ele><time>2026-04-06T15:38:41.975Z</time></trkpt><trkpt lat="45.8451739" lon="13.7409362"><ele>359.0</ele><time>2026-04-06T15:38:42.968Z</time></trkpt><trkpt lat="45.8451344" lon="13.7407922"><ele>359.0</ele><time>2026-04-06T15:38:43.982Z</time></trkpt><trkpt lat="45.8450771" lon="13.7406537"><ele>359.0</ele><time>2026-04-06T15:38:44.976Z</time></trkpt><trkpt lat="45.8450033" lon="13.7404968"><ele>358.5</ele><time>2026-04-06T15:38:45.972Z</time></trkpt><trkpt lat="45.8449262" lon="13.7403364"><ele>358.0</ele><time>2026-04-06T15:38:46.971Z</time></trkpt><trkpt lat="45.8448571" lon="13.7401891"><ele>357.5</ele><time>2026-04-06T15:38:47.967Z</time></trkpt><trkpt lat="45.8447854" lon="13.7400609"><ele>357.0</ele><time>2026-04-06T15:38:48.983Z</time></trkpt><trkpt lat="45.8447052" lon="13.7399552"><ele>356.40000000000003</ele><time>2026-04-06T15:38:49.972Z</time></trkpt><trkpt lat="45.844621" lon="13.7398646"><ele>355.8</ele><time>2026-04-06T15:38:50.977Z</time></trkpt><trkpt lat="45.8445168" lon="13.7397833"><ele>355.2</ele><time>2026-04-06T15:38:51.972Z</time></trkpt><trkpt lat="45.84441" lon="13.7397111"><ele>354.6</ele><time>2026-04-06T15:38:52.977Z</time></trkpt><trkpt lat="45.8443238" lon="13.7396386"><ele>354.0</ele><time>2026-04-06T15:38:53.977Z</time></trkpt><trkpt lat="45.8442603" lon="13.7395475"><ele>354.0</ele><time>2026-04-06T15:38:54.977Z</time></trkpt><trkpt lat="45.8441925" lon="13.7394269"><ele>354.0</ele><time>2026-04-06T15:38:55.981Z</time></trkpt><trkpt lat="45.8441188" lon="13.7392664"><ele>354.0</ele><time>2026-04-06T15:38:56.973Z</time></trkpt><trkpt lat="45.8440387" lon="13.7390792"><ele>354.0</ele><time>2026-04-06T15:38:57.975Z</time></trkpt><trkpt lat="45.8439562" lon="13.7388828"><ele>354.0</ele><time>2026-04-06T15:38:58.978Z</time></trkpt><trkpt lat="45.8438851" lon="13.7386938"><ele>354.0</ele><time>2026-04-06T15:38:59.968Z</time></trkpt><trkpt lat="45.8438232" lon="13.7385196"><ele>354.0</ele><time>2026-04-06T15:39:00.979Z</time></trkpt><trkpt lat="45.8437649" lon="13.7383576"><ele>354.0</ele><time>2026-04-06T15:39:01.974Z</time></trkpt><trkpt lat="45.8437087" lon="13.7382049"><ele>353.75</ele><time>2026-04-06T15:39:02.986Z</time></trkpt><trkpt lat="45.8436531" lon="13.7380582"><ele>353.5</ele><time>2026-04-06T15:39:03.977Z</time></trkpt><trkpt lat="45.8436005" lon="13.7379181"><ele>353.25</ele><time>2026-04-06T15:39:04.973Z</time></trkpt><trkpt lat="45.8435515" lon="13.7377744"><ele>353.0</ele><time>2026-04-06T15:39:05.971Z</time></trkpt><trkpt lat="45.8435065" lon="13.7376196"><ele>351.5</ele><time>2026-04-06T15:39:06.986Z</time></trkpt><trkpt lat="45.8434629" lon="13.7374575"><ele>350.0</ele><time>2026-04-06T15:39:07.97Z</time></trkpt><trkpt lat="45.8434156" lon="13.7373059"><ele>348.5</ele><time>2026-04-06T15:39:08.98Z</time></trkpt><trkpt lat="45.8433669" lon="13.7371631"><ele>347.0</ele><time>2026-04-06T15:39:09.972Z</time></trkpt><trkpt lat="45.8433182" lon="13.737028"><ele>347.0</ele><time>2026-04-06T15:39:10.975Z</time></trkpt><trkpt lat="45.843271" lon="13.7368933"><ele>347.0</ele><time>2026-04-06T15:39:11.973Z</time></trkpt><trkpt lat="45.8432286" lon="13.7367628"><ele>347.0</ele><time>2026-04-06T15:39:12.971Z</time></trkpt><trkpt lat="45.8431874" lon="13.7366362"><ele>347.0</ele><time>2026-04-06T15:39:13.969Z</time></trkpt><trkpt lat="45.8431456" lon="13.7365342"><ele>347.0</ele><time>2026-04-06T15:39:14.97Z</time></trkpt><trkpt lat="45.8430984" lon="13.7364555"><ele>346.83333333333337</ele><time>2026-04-06T15:39:15.969Z</time></trkpt><trkpt lat="45.8430259" lon="13.7363493"><ele>346.6666666666667</ele><time>2026-04-06T15:39:17.978Z</time></trkpt><trkpt lat="45.8429663" lon="13.7362678"><ele>346.5</ele><time>2026-04-06T15:39:19.972Z</time></trkpt><trkpt lat="45.8428729" lon="13.7361755"><ele>346.3333333333333</ele><time>2026-04-06T15:39:21.99Z</time></trkpt><trkpt lat="45.8428069" lon="13.7361361"><ele>346.16666666666663</ele><time>2026-04-06T15:39:22.97Z</time></trkpt><trkpt lat="45.8427428" lon="13.7361035"><ele>346.0</ele><time>2026-04-06T15:39:23.974Z</time></trkpt><trkpt lat="45.8426472" lon="13.7360399"><ele>346.0</ele><time>2026-04-06T15:39:25.976Z</time></trkpt><trkpt lat="45.8426064" lon="13.7359443"><ele>346.0</ele><time>2026-04-06T15:39:28.981Z</time></trkpt><trkpt lat="45.8425708" lon="13.7358389"><ele>346.0</ele><time>2026-04-06T15:39:31.966Z</time></trkpt><trkpt lat="45.8425202" lon="13.735714"><ele>346.0</ele><time>2026-04-06T15:39:33.973Z</time></trkpt><trkpt lat="45.842476" lon="13.7356125"><ele>346.0</ele><time>2026-04-06T15:39:35.971Z</time></trkpt><trkpt lat="45.8424096" lon="13.7355714"><ele>346.0</ele><time>2026-04-06T15:39:37.963Z</time></trkpt><trkpt lat="45.8422943" lon="13.7355189"><ele>346.0</ele><time>2026-04-06T15:39:39.967Z</time></trkpt><trkpt lat="45.8422387" lon="13.7354763"><ele>346.0</ele><time>2026-04-06T15:39:40.996Z</time></trkpt><trkpt lat="45.8422003" lon="13.7353562"><ele>346.0</ele><time>2026-04-06T15:39:42.969Z</time></trkpt><trkpt lat="45.8422647" lon="13.7352076"><ele>346.0</ele><time>2026-04-06T15:39:44.968Z</time></trkpt><trkpt lat="45.8423114" lon="13.7351339"><ele>346.0</ele><time>2026-04-06T15:39:45.969Z</time></trkpt><trkpt lat="45.8423707" lon="13.7350968"><ele>346.0</ele><time>2026-04-06T15:39:46.989Z</time></trkpt><trkpt lat="45.8424343" lon="13.7350687"><ele>345.66666666666663</ele><time>2026-04-06T15:39:47.97Z</time></trkpt><trkpt lat="45.8424644" lon="13.7349514"><ele>345.3333333333333</ele><time>2026-04-06T15:39:49.963Z</time></trkpt><trkpt lat="45.8424398" lon="13.7348564"><ele>345.0</ele><time>2026-04-06T15:39:50.967Z</time></trkpt><trkpt lat="45.8424082" lon="13.7347425"><ele>344.6666666666667</ele><time>2026-04-06T15:39:51.965Z</time></trkpt><trkpt lat="45.8423758" lon="13.7346247"><ele>344.33333333333337</ele><time>2026-04-06T15:39:52.982Z</time></trkpt><trkpt lat="45.8423509" lon="13.7345104"><ele>344.0</ele><time>2026-04-06T15:39:53.983Z</time></trkpt><trkpt lat="45.8423184" lon="13.7343965"><ele>342.83333333333337</ele><time>2026-04-06T15:39:54.976Z</time></trkpt><trkpt lat="45.8422873" lon="13.7342941"><ele>341.6666666666667</ele><time>2026-04-06T15:39:55.982Z</time></trkpt><trkpt lat="45.842258" lon="13.7341886"><ele>340.5</ele><time>2026-04-06T15:39:56.967Z</time></trkpt><trkpt lat="45.8422306" lon="13.7340887"><ele>339.3333333333333</ele><time>2026-04-06T15:39:57.966Z</time></trkpt><trkpt lat="45.8422119" lon="13.7339847"><ele>338.16666666666663</ele><time>2026-04-06T15:39:58.96Z</time></trkpt><trkpt lat="45.8421984" lon="13.7338855"><ele>337.0</ele><time>2026-04-06T15:39:59.97Z</time></trkpt><trkpt lat="45.8421978" lon="13.7337789"><ele>337.0</ele><time>2026-04-06T15:40:00.973Z</time></trkpt><trkpt lat="45.8422059" lon="13.7336592"><ele>337.0</ele><time>2026-04-06T15:40:01.978Z</time></trkpt><trkpt lat="45.8422104" lon="13.7335235"><ele>337.0</ele><time>2026-04-06T15:40:02.972Z</time></trkpt><trkpt lat="45.8422024" lon="13.7334034"><ele>337.0</ele><time>2026-04-06T15:40:03.977Z</time></trkpt><trkpt lat="45.842184" lon="13.733299"><ele>337.0</ele><time>2026-04-06T15:40:04.967Z</time></trkpt><trkpt lat="45.8421642" lon="13.73317"><ele>337.0</ele><time>2026-04-06T15:40:06.978Z</time></trkpt><trkpt lat="45.8421084" lon="13.733107"><ele>336.8333333333333</ele><time>2026-04-06T15:40:09.976Z</time></trkpt><trkpt lat="45.8420402" lon="13.7330999"><ele>336.66666666666663</ele><time>2026-04-06T15:40:10.963Z</time></trkpt><trkpt lat="45.8419369" lon="13.7330634"><ele>336.5</ele><time>2026-04-06T15:40:11.971Z</time></trkpt><trkpt lat="45.8418596" lon="13.7330249"><ele>336.3333333333333</ele><time>2026-04-06T15:40:12.968Z</time></trkpt><trkpt lat="45.8417991" lon="13.7329927"><ele>336.1666666666667</ele><time>2026-04-06T15:40:13.961Z</time></trkpt><trkpt lat="45.8417424" lon="13.7329416"><ele>336.0</ele><time>2026-04-06T15:40:14.97Z</time></trkpt><trkpt lat="45.8416889" lon="13.7328395"><ele>336.0</ele><time>2026-04-06T15:40:15.968Z</time></trkpt><trkpt lat="45.8416468" lon="13.7327242"><ele>336.0</ele><time>2026-04-06T15:40:16.969Z</time></trkpt><trkpt lat="45.841598" lon="13.7326325"><ele>336.0</ele><time>2026-04-06T15:40:17.997Z</time></trkpt><trkpt lat="45.8415357" lon="13.732582"><ele>336.0</ele><time>2026-04-06T15:40:18.971Z</time></trkpt><trkpt lat="45.8414545" lon="13.7325726"><ele>336.0</ele><time>2026-04-06T15:40:19.967Z</time></trkpt><trkpt lat="45.8413707" lon="13.7326087"><ele>336.0</ele><time>2026-04-06T15:40:20.961Z</time></trkpt><trkpt lat="45.8413004" lon="13.7326415"><ele>335.6</ele><time>2026-04-06T15:40:21.971Z</time></trkpt><trkpt lat="45.8412351" lon="13.7326566"><ele>335.20000000000005</ele><time>2026-04-06T15:40:22.966Z</time></trkpt><trkpt lat="45.841118" lon="13.7326201"><ele>334.79999999999995</ele><time>2026-04-06T15:40:24.974Z</time></trkpt><trkpt lat="45.8410188" lon="13.7324973"><ele>334.4</ele><time>2026-04-06T15:40:26.962Z</time></trkpt><trkpt lat="45.8409704" lon="13.7324018"><ele>334.0</ele><time>2026-04-06T15:40:27.97Z</time></trkpt><trkpt lat="45.8409206" lon="13.7323076"><ele>334.0</ele><time>2026-04-06T15:40:28.97Z</time></trkpt><trkpt lat="45.8408675" lon="13.7322075"><ele>334.0</ele><time>2026-04-06T15:40:29.97Z</time></trkpt><trkpt lat="45.8408125" lon="13.7321107"><ele>334.0</ele><time>2026-04-06T15:40:30.975Z</time></trkpt><trkpt lat="45.840761" lon="13.7320145"><ele>334.0</ele><time>2026-04-06T15:40:31.975Z</time></trkpt><trkpt lat="45.840714" lon="13.731928"><ele>334.0</ele><time>2026-04-06T15:40:32.963Z</time></trkpt><trkpt lat="45.8406702" lon="13.731842"><ele>334.0</ele><time>2026-04-06T15:40:33.968Z</time></trkpt><trkpt lat="45.8406375" lon="13.7317532"><ele>334.0</ele><time>2026-04-06T15:40:34.978Z</time></trkpt><trkpt lat="45.840603" lon="13.7316582"><ele>334.0</ele><time>2026-04-06T15:40:35.978Z</time></trkpt><trkpt lat="45.8405627" lon="13.7315692"><ele>334.0</ele><time>2026-04-06T15:40:36.977Z</time></trkpt><trkpt lat="45.8405113" lon="13.7314871"><ele>334.0</ele><time>2026-04-06T15:40:37.98Z</time></trkpt><trkpt lat="45.840469" lon="13.7314118"><ele>334.0</ele><time>2026-04-06T15:40:38.964Z</time></trkpt><trkpt lat="45.8404072" lon="13.7312581"><ele>334.0</ele><time>2026-04-06T15:40:40.973Z</time></trkpt><trkpt lat="45.8403801" lon="13.7311682"><ele>334.0</ele><time>2026-04-06T15:40:41.973Z</time></trkpt><trkpt lat="45.8403431" lon="13.7310787"><ele>334.0</ele><time>2026-04-06T15:40:42.972Z</time></trkpt><trkpt lat="45.8402917" lon="13.730991"><ele>334.0</ele><time>2026-04-06T15:40:43.967Z</time></trkpt><trkpt lat="45.8402307" lon="13.7309067"><ele>334.0</ele><time>2026-04-06T15:40:44.981Z</time></trkpt><trkpt lat="45.840151" lon="13.7308457"><ele>334.0</ele><time>2026-04-06T15:40:45.97Z</time></trkpt><trkpt lat="45.8400648" lon="13.7308021"><ele>334.0</ele><time>2026-04-06T15:40:46.974Z</time></trkpt><trkpt lat="45.8399935" lon="13.7307441"><ele>334.0</ele><time>2026-04-06T15:40:47.976Z</time></trkpt><trkpt lat="45.8399307" lon="13.7306678"><ele>334.0</ele><time>2026-04-06T15:40:48.978Z</time></trkpt><trkpt lat="45.8398752" lon="13.7305888"><ele>334.0</ele><time>2026-04-06T15:40:49.987Z</time></trkpt><trkpt lat="45.8398234" lon="13.7305077"><ele>334.0</ele><time>2026-04-06T15:40:50.974Z</time></trkpt><trkpt lat="45.8397823" lon="13.7304243"><ele>334.0</ele><time>2026-04-06T15:40:51.973Z</time></trkpt><trkpt lat="45.839735" lon="13.7302547"><ele>334.0</ele><time>2026-04-06T15:40:53.977Z</time></trkpt><trkpt lat="45.8397141" lon="13.7301536"><ele>334.8333333333333</ele><time>2026-04-06T15:40:54.977Z</time></trkpt><trkpt lat="45.839688" lon="13.7300371"><ele>335.66666666666663</ele><time>2026-04-06T15:40:55.977Z</time></trkpt><trkpt lat="45.8396649" lon="13.7299202"><ele>336.5</ele><time>2026-04-06T15:40:56.973Z</time></trkpt><trkpt lat="45.8396419" lon="13.729792"><ele>337.3333333333333</ele><time>2026-04-06T15:40:57.978Z</time></trkpt><trkpt lat="45.8396198" lon="13.7296699"><ele>338.1666666666667</ele><time>2026-04-06T15:40:58.983Z</time></trkpt><trkpt lat="45.8395978" lon="13.729563"><ele>339.0</ele><time>2026-04-06T15:40:59.98Z</time></trkpt><trkpt lat="45.8395613" lon="13.7294719"><ele>339.0</ele><time>2026-04-06T15:41:00.98Z</time></trkpt><trkpt lat="45.8395206" lon="13.7293957"><ele>339.0</ele><time>2026-04-06T15:41:01.984Z</time></trkpt><trkpt lat="45.8394678" lon="13.7293172"><ele>339.0</ele><time>2026-04-06T15:41:03.979Z</time></trkpt><trkpt lat="45.8394152" lon="13.7292243"><ele>339.0</ele><time>2026-04-06T15:41:05.977Z</time></trkpt><trkpt lat="45.8394046" lon="13.7290785"><ele>339.0</ele><time>2026-04-06T15:41:07.966Z</time></trkpt><trkpt lat="45.8394216" lon="13.728924"><ele>339.0</ele><time>2026-04-06T15:41:09.973Z</time></trkpt><trkpt lat="45.8394488" lon="13.728763"><ele>339.8333333333333</ele><time>2026-04-06T15:41:11.972Z</time></trkpt><trkpt lat="45.8394925" lon="13.7285815"><ele>340.6666666666667</ele><time>2026-04-06T15:41:13.987Z</time></trkpt><trkpt lat="45.8395226" lon="13.728483"><ele>341.5</ele><time>2026-04-06T15:41:14.966Z</time></trkpt><trkpt lat="45.8395551" lon="13.7283883"><ele>342.33333333333337</ele><time>2026-04-06T15:41:15.971Z</time></trkpt><trkpt lat="45.8395937" lon="13.7282993"><ele>343.1666666666667</ele><time>2026-04-06T15:41:16.968Z</time></trkpt><trkpt lat="45.8396341" lon="13.7282063"><ele>344.0</ele><time>2026-04-06T15:41:17.984Z</time></trkpt><trkpt lat="45.8396821" lon="13.7281147"><ele>344.6666666666667</ele><time>2026-04-06T15:41:18.971Z</time></trkpt><trkpt lat="45.8397397" lon="13.7280181"><ele>345.33333333333337</ele><time>2026-04-06T15:41:19.978Z</time></trkpt><trkpt lat="45.8397974" lon="13.7279179"><ele>346.0</ele><time>2026-04-06T15:41:20.97Z</time></trkpt><trkpt lat="45.8398466" lon="13.7278197"><ele>346.6666666666667</ele><time>2026-04-06T15:41:21.968Z</time></trkpt><trkpt lat="45.8398889" lon="13.7277148"><ele>347.3333333333333</ele><time>2026-04-06T15:41:22.976Z</time></trkpt><trkpt lat="45.8399289" lon="13.7276198"><ele>348.0</ele><time>2026-04-06T15:41:23.975Z</time></trkpt><trkpt lat="45.8399653" lon="13.7275151"><ele>348.8333333333333</ele><time>2026-04-06T15:41:24.982Z</time></trkpt><trkpt lat="45.8399933" lon="13.7273968"><ele>349.6666666666667</ele><time>2026-04-06T15:41:25.972Z</time></trkpt><trkpt lat="45.8400239" lon="13.7272851"><ele>350.5</ele><time>2026-04-06T15:41:26.974Z</time></trkpt><trkpt lat="45.8400557" lon="13.7271793"><ele>351.33333333333337</ele><time>2026-04-06T15:41:27.975Z</time></trkpt><trkpt lat="45.8400935" lon="13.7270808"><ele>352.1666666666667</ele><time>2026-04-06T15:41:28.975Z</time></trkpt><trkpt lat="45.8401468" lon="13.7269923"><ele>353.0</ele><time>2026-04-06T15:41:29.973Z</time></trkpt><trkpt lat="45.8402075" lon="13.7269048"><ele>354.1666666666667</ele><time>2026-04-06T15:41:30.974Z</time></trkpt><trkpt lat="45.8402591" lon="13.7268214"><ele>355.33333333333337</ele><time>2026-04-06T15:41:31.973Z</time></trkpt><trkpt lat="45.8403074" lon="13.7267324"><ele>356.5</ele><time>2026-04-06T15:41:32.976Z</time></trkpt><trkpt lat="45.8403576" lon="13.7266441"><ele>357.6666666666667</ele><time>2026-04-06T15:41:33.984Z</time></trkpt><trkpt lat="45.840413" lon="13.7265669"><ele>358.8333333333333</ele><time>2026-04-06T15:41:34.971Z</time></trkpt><trkpt lat="45.8404712" lon="13.7264976"><ele>360.0</ele><time>2026-04-06T15:41:35.971Z</time></trkpt><trkpt lat="45.8405307" lon="13.7264474"><ele>360.0</ele><time>2026-04-06T15:41:36.976Z</time></trkpt><trkpt lat="45.8406005" lon="13.7264045"><ele>360.0</ele><time>2026-04-06T15:41:37.973Z</time></trkpt><trkpt lat="45.8406748" lon="13.7263491"><ele>360.0</ele><time>2026-04-06T15:41:38.994Z</time></trkpt><trkpt lat="45.8407459" lon="13.7262875"><ele>360.0</ele><time>2026-04-06T15:41:39.975Z</time></trkpt><trkpt lat="45.8408045" lon="13.7262045"><ele>360.0</ele><time>2026-04-06T15:41:40.98Z</time></trkpt><trkpt lat="45.8408605" lon="13.7261152"><ele>360.0</ele><time>2026-04-06T15:41:41.977Z</time></trkpt><trkpt lat="45.8409215" lon="13.7260144"><ele>360.6666666666667</ele><time>2026-04-06T15:41:42.975Z</time></trkpt><trkpt lat="45.84098" lon="13.725925"><ele>361.3333333333333</ele><time>2026-04-06T15:41:43.973Z</time></trkpt><trkpt lat="45.8410335" lon="13.7258396"><ele>362.0</ele><time>2026-04-06T15:41:44.975Z</time></trkpt><trkpt lat="45.8410844" lon="13.7257431"><ele>362.66666666666663</ele><time>2026-04-06T15:41:45.974Z</time></trkpt><trkpt lat="45.841138" lon="13.7256495"><ele>363.3333333333333</ele><time>2026-04-06T15:41:46.979Z</time></trkpt><trkpt lat="45.8411967" lon="13.7255633"><ele>364.0</ele><time>2026-04-06T15:41:47.971Z</time></trkpt><trkpt lat="45.8412552" lon="13.7255062"><ele>364.0</ele><time>2026-04-06T15:41:48.984Z</time></trkpt><trkpt lat="45.8413177" lon="13.7254478"><ele>364.0</ele><time>2026-04-06T15:41:49.979Z</time></trkpt><trkpt lat="45.8413855" lon="13.7253922"><ele>364.0</ele><time>2026-04-06T15:41:50.979Z</time></trkpt><trkpt lat="45.8414572" lon="13.7253281"><ele>364.0</ele><time>2026-04-06T15:41:51.98Z</time></trkpt><trkpt lat="45.8415264" lon="13.7252706"><ele>364.0</ele><time>2026-04-06T15:41:52.974Z</time></trkpt><trkpt lat="45.8415977" lon="13.725216"><ele>364.0</ele><time>2026-04-06T15:41:53.982Z</time></trkpt><trkpt lat="45.8416564" lon="13.7251551"><ele>364.57142857142856</ele><time>2026-04-06T15:41:54.97Z</time></trkpt><trkpt lat="45.8417062" lon="13.7250879"><ele>365.1428571428571</ele><time>2026-04-06T15:41:55.979Z</time></trkpt><trkpt lat="45.8417554" lon="13.7250111"><ele>365.7142857142857</ele><time>2026-04-06T15:41:56.977Z</time></trkpt><trkpt lat="45.8417977" lon="13.724925"><ele>366.2857142857143</ele><time>2026-04-06T15:41:57.972Z</time></trkpt><trkpt lat="45.8418323" lon="13.7248365"><ele>366.85714285714283</ele><time>2026-04-06T15:41:58.975Z</time></trkpt><trkpt lat="45.841863" lon="13.7247444"><ele>367.42857142857144</ele><time>2026-04-06T15:41:59.976Z</time></trkpt><trkpt lat="45.841893" lon="13.7246412"><ele>368.0</ele><time>2026-04-06T15:42:00.974Z</time></trkpt><trkpt lat="45.8419277" lon="13.7245333"><ele>368.33333333333337</ele><time>2026-04-06T15:42:01.979Z</time></trkpt><trkpt lat="45.8419629" lon="13.724434"><ele>368.6666666666667</ele><time>2026-04-06T15:42:02.983Z</time></trkpt><trkpt lat="45.8419895" lon="13.7243366"><ele>369.0</ele><time>2026-04-06T15:42:03.987Z</time></trkpt><trkpt lat="45.8420155" lon="13.7242406"><ele>369.3333333333333</ele><time>2026-04-06T15:42:04.979Z</time></trkpt><trkpt lat="45.8420398" lon="13.724154"><ele>369.66666666666663</ele><time>2026-04-06T15:42:05.973Z</time></trkpt><trkpt lat="45.8421024" lon="13.7239995"><ele>370.0</ele><time>2026-04-06T15:42:07.978Z</time></trkpt><trkpt lat="45.842149" lon="13.7239067"><ele>370.16666666666663</ele><time>2026-04-06T15:42:08.981Z</time></trkpt><trkpt lat="45.8421934" lon="13.7237891"><ele>370.3333333333333</ele><time>2026-04-06T15:42:09.976Z</time></trkpt><trkpt lat="45.8422351" lon="13.7236699"><ele>370.5</ele><time>2026-04-06T15:42:10.976Z</time></trkpt><trkpt lat="45.8422691" lon="13.7235559"><ele>370.6666666666667</ele><time>2026-04-06T15:42:11.978Z</time></trkpt><trkpt lat="45.8423107" lon="13.7234566"><ele>370.83333333333337</ele><time>2026-04-06T15:42:12.976Z</time></trkpt><trkpt lat="45.8423638" lon="13.7233891"><ele>371.0</ele><time>2026-04-06T15:42:13.98Z</time></trkpt><trkpt lat="45.8424595" lon="13.7233045"><ele>371.0</ele><time>2026-04-06T15:42:15.973Z</time></trkpt><trkpt lat="45.8425466" lon="13.7231879"><ele>371.0</ele><time>2026-04-06T15:42:17.967Z</time></trkpt><trkpt lat="45.8426382" lon="13.7230804"><ele>371.0</ele><time>2026-04-06T15:42:19.968Z</time></trkpt><trkpt lat="45.8427187" lon="13.7229452"><ele>371.0</ele><time>2026-04-06T15:42:21.972Z</time></trkpt><trkpt lat="45.8427699" lon="13.7228687"><ele>371.0</ele><time>2026-04-06T15:42:22.972Z</time></trkpt><trkpt lat="45.8428254" lon="13.7227882"><ele>370.6666666666667</ele><time>2026-04-06T15:42:23.976Z</time></trkpt><trkpt lat="45.8428802" lon="13.7227108"><ele>370.33333333333337</ele><time>2026-04-06T15:42:24.976Z</time></trkpt><trkpt lat="45.8429319" lon="13.7226339"><ele>370.0</ele><time>2026-04-06T15:42:25.976Z</time></trkpt><trkpt lat="45.8429822" lon="13.7225481"><ele>369.6666666666667</ele><time>2026-04-06T15:42:26.976Z</time></trkpt><trkpt lat="45.8430303" lon="13.7224673"><ele>369.3333333333333</ele><time>2026-04-06T15:42:27.984Z</time></trkpt><trkpt lat="45.8430697" lon="13.7223512"><ele>369.0</ele><time>2026-04-06T15:42:28.971Z</time></trkpt><trkpt lat="45.8431058" lon="13.7222413"><ele>369.0</ele><time>2026-04-06T15:42:29.971Z</time></trkpt><trkpt lat="45.8431435" lon="13.7221463"><ele>369.0</ele><time>2026-04-06T15:42:30.975Z</time></trkpt><trkpt lat="45.8431936" lon="13.7220641"><ele>369.0</ele><time>2026-04-06T15:42:31.982Z</time></trkpt><trkpt lat="45.8432551" lon="13.7220103"><ele>369.0</ele><time>2026-04-06T15:42:32.985Z</time></trkpt><trkpt lat="45.8433293" lon="13.7219622"><ele>369.0</ele><time>2026-04-06T15:42:33.962Z</time></trkpt><trkpt lat="45.8433949" lon="13.7219071"><ele>369.0</ele><time>2026-04-06T15:42:34.974Z</time></trkpt><trkpt lat="45.8434498" lon="13.721837"><ele>368.7142857142857</ele><time>2026-04-06T15:42:35.972Z</time></trkpt><trkpt lat="45.843492" lon="13.7217526"><ele>368.42857142857144</ele><time>2026-04-06T15:42:36.975Z</time></trkpt><trkpt lat="45.8435365" lon="13.7216683"><ele>368.1428571428571</ele><time>2026-04-06T15:42:37.977Z</time></trkpt><trkpt lat="45.8435876" lon="13.7215964"><ele>367.8571428571429</ele><time>2026-04-06T15:42:38.97Z</time></trkpt><trkpt lat="45.8436442" lon="13.7215446"><ele>367.5714285714286</ele><time>2026-04-06T15:42:39.974Z</time></trkpt><trkpt lat="45.8437019" lon="13.7215007"><ele>367.2857142857143</ele><time>2026-04-06T15:42:40.981Z</time></trkpt><trkpt lat="45.8437642" lon="13.7214425"><ele>367.0</ele><time>2026-04-06T15:42:41.98Z</time></trkpt><trkpt lat="45.8438175" lon="13.7213577"><ele>367.0</ele><time>2026-04-06T15:42:42.978Z</time></trkpt><trkpt lat="45.8438815" lon="13.7212733"><ele>367.0</ele><time>2026-04-06T15:42:43.98Z</time></trkpt><trkpt lat="45.8439478" lon="13.7211697"><ele>367.0</ele><time>2026-04-06T15:42:44.97Z</time></trkpt><trkpt lat="45.8440026" lon="13.721066"><ele>367.0</ele><time>2026-04-06T15:42:45.971Z</time></trkpt><trkpt lat="45.8440464" lon="13.7209534"><ele>367.0</ele><time>2026-04-06T15:42:46.976Z</time></trkpt><trkpt lat="45.8440727" lon="13.7208448"><ele>367.0</ele><time>2026-04-06T15:42:47.972Z</time></trkpt><trkpt lat="45.8440693" lon="13.7206629"><ele>366.20000000000005</ele><time>2026-04-06T15:42:49.96Z</time></trkpt><trkpt lat="45.8440861" lon="13.7204732"><ele>365.4</ele><time>2026-04-06T15:42:51.977Z</time></trkpt><trkpt lat="45.8441023" lon="13.7203578"><ele>364.6</ele><time>2026-04-06T15:42:52.963Z</time></trkpt><trkpt lat="45.8441066" lon="13.7202371"><ele>363.79999999999995</ele><time>2026-04-06T15:42:53.975Z</time></trkpt><trkpt lat="45.8441061" lon="13.7201236"><ele>363.0</ele><time>2026-04-06T15:42:54.973Z</time></trkpt><trkpt lat="45.8441137" lon="13.7200173"><ele>363.3333333333333</ele><time>2026-04-06T15:42:55.983Z</time></trkpt><trkpt lat="45.8441426" lon="13.7199122"><ele>363.6666666666667</ele><time>2026-04-06T15:42:56.974Z</time></trkpt><trkpt lat="45.8441838" lon="13.7198236"><ele>364.0</ele><time>2026-04-06T15:42:57.959Z</time></trkpt><trkpt lat="45.8442292" lon="13.7197381"><ele>364.33333333333337</ele><time>2026-04-06T15:42:58.969Z</time></trkpt><trkpt lat="45.8442784" lon="13.7196585"><ele>364.6666666666667</ele><time>2026-04-06T15:42:59.971Z</time></trkpt><trkpt lat="45.8443354" lon="13.719585"><ele>365.0</ele><time>2026-04-06T15:43:00.987Z</time></trkpt><trkpt lat="45.8443966" lon="13.7195212"><ele>365.0</ele><time>2026-04-06T15:43:01.966Z</time></trkpt><trkpt lat="45.8444596" lon="13.7194744"><ele>365.0</ele><time>2026-04-06T15:43:02.975Z</time></trkpt><trkpt lat="45.8445687" lon="13.7194773"><ele>365.0</ele><time>2026-04-06T15:43:04.963Z</time></trkpt><trkpt lat="45.8446779" lon="13.7195165"><ele>365.0</ele><time>2026-04-06T15:43:06.964Z</time></trkpt><trkpt lat="45.8447697" lon="13.719619"><ele>365.0</ele><time>2026-04-06T15:43:08.964Z</time></trkpt><trkpt lat="45.844867" lon="13.7197226"><ele>365.0</ele><time>2026-04-06T15:43:10.976Z</time></trkpt><trkpt lat="45.844975" lon="13.7197798"><ele>365.0</ele><time>2026-04-06T15:43:12.975Z</time></trkpt><trkpt lat="45.8450784" lon="13.7198664"><ele>365.0</ele><time>2026-04-06T15:43:14.976Z</time></trkpt><trkpt lat="45.8451375" lon="13.7199233"><ele>365.0</ele><time>2026-04-06T15:43:15.971Z</time></trkpt><trkpt lat="45.8451948" lon="13.7199675"><ele>365.0</ele><time>2026-04-06T15:43:16.973Z</time></trkpt><trkpt lat="45.8452558" lon="13.7200014"><ele>365.0</ele><time>2026-04-06T15:43:17.964Z</time></trkpt><trkpt lat="45.8453382" lon="13.7200637"><ele>366.0</ele><time>2026-04-06T15:43:19.969Z</time></trkpt><trkpt lat="45.8453818" lon="13.7201667"><ele>367.0</ele><time>2026-04-06T15:43:21.965Z</time></trkpt><trkpt lat="45.8453749" lon="13.7203023"><ele>368.0</ele><time>2026-04-06T15:43:23.963Z</time></trkpt><trkpt lat="45.8453602" lon="13.7204044"><ele>369.0</ele><time>2026-04-06T15:43:24.965Z</time></trkpt><trkpt lat="45.8453555" lon="13.7205189"><ele>370.0</ele><time>2026-04-06T15:43:25.981Z</time></trkpt><trkpt lat="45.8453635" lon="13.720636"><ele>371.0</ele><time>2026-04-06T15:43:26.976Z</time></trkpt><trkpt lat="45.8453829" lon="13.7207491"><ele>371.0</ele><time>2026-04-06T15:43:27.974Z</time></trkpt><trkpt lat="45.845409" lon="13.7208644"><ele>371.0</ele><time>2026-04-06T15:43:28.974Z</time></trkpt><trkpt lat="45.8454339" lon="13.7209756"><ele>371.0</ele><time>2026-04-06T15:43:29.977Z</time></trkpt><trkpt lat="45.8454611" lon="13.7210792"><ele>371.0</ele><time>2026-04-06T15:43:30.976Z</time></trkpt><trkpt lat="45.8454974" lon="13.7211699"><ele>371.0</ele><time>2026-04-06T15:43:31.978Z</time></trkpt><trkpt lat="45.8455379" lon="13.7212579"><ele>371.0</ele><time>2026-04-06T15:43:32.971Z</time></trkpt><trkpt lat="45.8455764" lon="13.7213448"><ele>371.0</ele><time>2026-04-06T15:43:33.971Z</time></trkpt><trkpt lat="45.8456558" lon="13.7214625"><ele>371.0</ele><time>2026-04-06T15:43:35.973Z</time></trkpt><trkpt lat="45.8457577" lon="13.7215513"><ele>371.0</ele><time>2026-04-06T15:43:37.965Z</time></trkpt><trkpt lat="45.8458132" lon="13.7216001"><ele>371.0</ele><time>2026-04-06T15:43:39.002Z</time></trkpt><trkpt lat="45.8458669" lon="13.7216901"><ele>371.0</ele><time>2026-04-06T15:43:39.973Z</time></trkpt><trkpt lat="45.8459231" lon="13.7217798"><ele>370.6666666666667</ele><time>2026-04-06T15:43:40.983Z</time></trkpt><trkpt lat="45.8459704" lon="13.7218615"><ele>370.33333333333337</ele><time>2026-04-06T15:43:41.967Z</time></trkpt><trkpt lat="45.8460319" lon="13.7219602"><ele>370.0</ele><time>2026-04-06T15:43:43.985Z</time></trkpt><trkpt lat="45.8461015" lon="13.7219493"><ele>369.6666666666667</ele><time>2026-04-06T15:43:47.966Z</time></trkpt><trkpt lat="45.8461211" lon="13.7218316"><ele>369.3333333333333</ele><time>2026-04-06T15:43:49.967Z</time></trkpt><trkpt lat="45.8461226" lon="13.7217302"><ele>369.0</ele><time>2026-04-06T15:43:50.969Z</time></trkpt><trkpt lat="45.8461231" lon="13.7216074"><ele>369.0</ele><time>2026-04-06T15:43:51.973Z</time></trkpt><trkpt lat="45.8461264" lon="13.7214683"><ele>369.0</ele><time>2026-04-06T15:43:52.975Z</time></trkpt><trkpt lat="45.846125" lon="13.72132"><ele>369.0</ele><time>2026-04-06T15:43:53.97Z</time></trkpt><trkpt lat="45.8461156" lon="13.7211626"><ele>369.0</ele><time>2026-04-06T15:43:54.971Z</time></trkpt><trkpt lat="45.8461062" lon="13.7210006"><ele>369.0</ele><time>2026-04-06T15:43:55.981Z</time></trkpt><trkpt lat="45.8460935" lon="13.7208301"><ele>370.25</ele><time>2026-04-06T15:43:56.972Z</time></trkpt><trkpt lat="45.8460842" lon="13.7206572"><ele>371.5</ele><time>2026-04-06T15:43:57.973Z</time></trkpt><trkpt lat="45.8460777" lon="13.7204753"><ele>372.75</ele><time>2026-04-06T15:43:58.974Z</time></trkpt><trkpt lat="45.846079" lon="13.7203153"><ele>374.0</ele><time>2026-04-06T15:43:59.962Z</time></trkpt><trkpt lat="45.8460846" lon="13.7201612"><ele>374.25</ele><time>2026-04-06T15:44:00.977Z</time></trkpt><trkpt lat="45.8461003" lon="13.7200078"><ele>374.5</ele><time>2026-04-06T15:44:01.987Z</time></trkpt><trkpt lat="45.8461237" lon="13.7198405"><ele>374.75</ele><time>2026-04-06T15:44:02.972Z</time></trkpt><trkpt lat="45.8461545" lon="13.7196605"><ele>375.0</ele><time>2026-04-06T15:44:03.983Z</time></trkpt><trkpt lat="45.8461902" lon="13.7194824"><ele>375.75</ele><time>2026-04-06T15:44:04.975Z</time></trkpt><trkpt lat="45.8462253" lon="13.7193042"><ele>376.5</ele><time>2026-04-06T15:44:05.969Z</time></trkpt><trkpt lat="45.8462616" lon="13.7191344"><ele>377.25</ele><time>2026-04-06T15:44:06.973Z</time></trkpt><trkpt lat="45.8462928" lon="13.7189695"><ele>378.0</ele><time>2026-04-06T15:44:07.972Z</time></trkpt><trkpt lat="45.8463139" lon="13.7188006"><ele>378.0</ele><time>2026-04-06T15:44:08.984Z</time></trkpt><trkpt lat="45.8463125" lon="13.7186192"><ele>378.0</ele><time>2026-04-06T15:44:09.974Z</time></trkpt><trkpt lat="45.8462985" lon="13.718437"><ele>378.0</ele><time>2026-04-06T15:44:10.968Z</time></trkpt><trkpt lat="45.8462711" lon="13.7182695"><ele>378.0</ele><time>2026-04-06T15:44:11.972Z</time></trkpt><trkpt lat="45.8462369" lon="13.7181213"><ele>377.79999999999995</ele><time>2026-04-06T15:44:12.972Z</time></trkpt><trkpt lat="45.8461988" lon="13.7179737"><ele>377.6</ele><time>2026-04-06T15:44:13.972Z</time></trkpt><trkpt lat="45.846163" lon="13.7178205"><ele>377.4</ele><time>2026-04-06T15:44:14.983Z</time></trkpt><trkpt lat="45.846132" lon="13.7176704"><ele>377.20000000000005</ele><time>2026-04-06T15:44:15.969Z</time></trkpt><trkpt lat="45.8461035" lon="13.7175282"><ele>377.0</ele><time>2026-04-06T15:44:16.97Z</time></trkpt><trkpt lat="45.8460753" lon="13.7173974"><ele>377.0</ele><time>2026-04-06T15:44:17.983Z</time></trkpt><trkpt lat="45.8460517" lon="13.7172653"><ele>377.0</ele><time>2026-04-06T15:44:18.974Z</time></trkpt><trkpt lat="45.8460295" lon="13.7171279"><ele>377.0</ele><time>2026-04-06T15:44:19.973Z</time></trkpt><trkpt lat="45.846015" lon="13.7169859"><ele>377.0</ele><time>2026-04-06T15:44:20.974Z</time></trkpt><trkpt lat="45.8460064" lon="13.7168358"><ele>377.0</ele><time>2026-04-06T15:44:21.969Z</time></trkpt><trkpt lat="45.8460098" lon="13.7166778"><ele>376.75</ele><time>2026-04-06T15:44:22.986Z</time></trkpt><trkpt lat="45.8460204" lon="13.7165067"><ele>376.5</ele><time>2026-04-06T15:44:23.97Z</time></trkpt><trkpt lat="45.8460468" lon="13.7163258"><ele>376.25</ele><time>2026-04-06T15:44:24.97Z</time></trkpt><trkpt lat="45.846073" lon="13.7161494"><ele>376.0</ele><time>2026-04-06T15:44:25.966Z</time></trkpt><trkpt lat="45.8461012" lon="13.7159752"><ele>375.75</ele><time>2026-04-06T15:44:26.968Z</time></trkpt><trkpt lat="45.8461257" lon="13.7158083"><ele>375.5</ele><time>2026-04-06T15:44:27.973Z</time></trkpt><trkpt lat="45.8461465" lon="13.7156531"><ele>375.25</ele><time>2026-04-06T15:44:28.977Z</time></trkpt><trkpt lat="45.8461476" lon="13.7154772"><ele>375.0</ele><time>2026-04-06T15:44:29.974Z</time></trkpt><trkpt lat="45.8461343" lon="13.7152981"><ele>374.75</ele><time>2026-04-06T15:44:30.974Z</time></trkpt><trkpt lat="45.8461175" lon="13.7151253"><ele>374.5</ele><time>2026-04-06T15:44:31.973Z</time></trkpt><trkpt lat="45.8461022" lon="13.7149569"><ele>374.25</ele><time>2026-04-06T15:44:32.973Z</time></trkpt><trkpt lat="45.8460999" lon="13.7147804"><ele>374.0</ele><time>2026-04-06T15:44:33.982Z</time></trkpt><trkpt lat="45.8461193" lon="13.7145997"><ele>374.0</ele><time>2026-04-06T15:44:34.974Z</time></trkpt><trkpt lat="45.8461537" lon="13.7144253"><ele>374.0</ele><time>2026-04-06T15:44:35.975Z</time></trkpt><trkpt lat="45.8461984" lon="13.7142576"><ele>374.0</ele><time>2026-04-06T15:44:36.972Z</time></trkpt><trkpt lat="45.8462407" lon="13.7141113"><ele>374.0</ele><time>2026-04-06T15:44:37.973Z</time></trkpt><trkpt lat="45.8462789" lon="13.7139644"><ele>373.4</ele><time>2026-04-06T15:44:38.984Z</time></trkpt><trkpt lat="45.8463011" lon="13.7138061"><ele>372.79999999999995</ele><time>2026-04-06T15:44:39.975Z</time></trkpt><trkpt lat="45.846304" lon="13.7136415"><ele>372.20000000000005</ele><time>2026-04-06T15:44:40.977Z</time></trkpt><trkpt lat="45.8462962" lon="13.7134808"><ele>371.6</ele><time>2026-04-06T15:44:41.974Z</time></trkpt><trkpt lat="45.8462859" lon="13.7133282"><ele>371.0</ele><time>2026-04-06T15:44:42.978Z</time></trkpt><trkpt lat="45.8462754" lon="13.7131719"><ele>371.0</ele><time>2026-04-06T15:44:43.994Z</time></trkpt><trkpt lat="45.84626" lon="13.7130036"><ele>371.0</ele><time>2026-04-06T15:44:44.976Z</time></trkpt><trkpt lat="45.8462399" lon="13.7128279"><ele>371.0</ele><time>2026-04-06T15:44:45.985Z</time></trkpt><trkpt lat="45.8462047" lon="13.7126582"><ele>371.0</ele><time>2026-04-06T15:44:46.978Z</time></trkpt><trkpt lat="45.8461678" lon="13.7124947"><ele>370.5</ele><time>2026-04-06T15:44:47.976Z</time></trkpt><trkpt lat="45.846139" lon="13.7123465"><ele>370.0</ele><time>2026-04-06T15:44:48.97Z</time></trkpt><trkpt lat="45.8461127" lon="13.7121924"><ele>369.5</ele><time>2026-04-06T15:44:49.971Z</time></trkpt><trkpt lat="45.8460875" lon="13.7120292"><ele>369.0</ele><time>2026-04-06T15:44:50.981Z</time></trkpt><trkpt lat="45.8460579" lon="13.7118634"><ele>370.5</ele><time>2026-04-06T15:44:51.969Z</time></trkpt><trkpt lat="45.8460306" lon="13.7116909"><ele>372.0</ele><time>2026-04-06T15:44:52.976Z</time></trkpt><trkpt lat="45.8460091" lon="13.7115207"><ele>373.5</ele><time>2026-04-06T15:44:53.968Z</time></trkpt><trkpt lat="45.8460036" lon="13.7113568"><ele>375.0</ele><time>2026-04-06T15:44:54.974Z</time></trkpt><trkpt lat="45.8460149" lon="13.7111884"><ele>374.25</ele><time>2026-04-06T15:44:55.96Z</time></trkpt><trkpt lat="45.8460356" lon="13.7110161"><ele>373.5</ele><time>2026-04-06T15:44:56.974Z</time></trkpt><trkpt lat="45.8460618" lon="13.7108404"><ele>372.75</ele><time>2026-04-06T15:44:57.975Z</time></trkpt><trkpt lat="45.8460937" lon="13.7106662"><ele>372.0</ele><time>2026-04-06T15:44:58.971Z</time></trkpt><trkpt lat="45.8461296" lon="13.7105044"><ele>372.0</ele><time>2026-04-06T15:44:59.989Z</time></trkpt><trkpt lat="45.8461667" lon="13.7103542"><ele>372.0</ele><time>2026-04-06T15:45:00.971Z</time></trkpt><trkpt lat="45.8462029" lon="13.7102012"><ele>372.0</ele><time>2026-04-06T15:45:01.967Z</time></trkpt><trkpt lat="45.8462383" lon="13.7100529"><ele>372.0</ele><time>2026-04-06T15:45:02.969Z</time></trkpt><trkpt lat="45.8462736" lon="13.7098985"><ele>372.0</ele><time>2026-04-06T15:45:03.969Z</time></trkpt><trkpt lat="45.8463119" lon="13.7097418"><ele>372.75</ele><time>2026-04-06T15:45:04.967Z</time></trkpt><trkpt lat="45.8463651" lon="13.7095989"><ele>373.5</ele><time>2026-04-06T15:45:05.971Z</time></trkpt><trkpt lat="45.8464354" lon="13.709475"><ele>374.25</ele><time>2026-04-06T15:45:06.975Z</time></trkpt><trkpt lat="45.8465206" lon="13.7093737"><ele>375.0</ele><time>2026-04-06T15:45:07.966Z</time></trkpt><trkpt lat="45.846626" lon="13.7092841"><ele>375.25</ele><time>2026-04-06T15:45:08.968Z</time></trkpt><trkpt lat="45.8467329" lon="13.7091912"><ele>375.5</ele><time>2026-04-06T15:45:09.97Z</time></trkpt><trkpt lat="45.8468364" lon="13.7090874"><ele>375.75</ele><time>2026-04-06T15:45:10.976Z</time></trkpt><trkpt lat="45.8469333" lon="13.7089786"><ele>376.0</ele><time>2026-04-06T15:45:11.975Z</time></trkpt><trkpt lat="45.8470179" lon="13.7088684"><ele>376.75</ele><time>2026-04-06T15:45:12.979Z</time></trkpt><trkpt lat="45.8470925" lon="13.7087549"><ele>377.5</ele><time>2026-04-06T15:45:13.993Z</time></trkpt><trkpt lat="45.8471621" lon="13.7086328"><ele>378.25</ele><time>2026-04-06T15:45:14.974Z</time></trkpt><trkpt lat="45.8472271" lon="13.7084901"><ele>379.0</ele><time>2026-04-06T15:45:15.972Z</time></trkpt><trkpt lat="45.8472765" lon="13.7083334"><ele>379.25</ele><time>2026-04-06T15:45:16.973Z</time></trkpt><trkpt lat="45.8473126" lon="13.7081558"><ele>379.5</ele><time>2026-04-06T15:45:17.969Z</time></trkpt><trkpt lat="45.8473423" lon="13.7079686"><ele>379.75</ele><time>2026-04-06T15:45:18.974Z</time></trkpt><trkpt lat="45.8473783" lon="13.7077853"><ele>380.0</ele><time>2026-04-06T15:45:19.976Z</time></trkpt><trkpt lat="45.8474266" lon="13.7076073"><ele>380.25</ele><time>2026-04-06T15:45:20.997Z</time></trkpt><trkpt lat="45.8474844" lon="13.7074324"><ele>380.5</ele><time>2026-04-06T15:45:21.965Z</time></trkpt><trkpt lat="45.8475647" lon="13.7072642"><ele>380.75</ele><time>2026-04-06T15:45:22.969Z</time></trkpt><trkpt lat="45.8476539" lon="13.7071158"><ele>381.0</ele><time>2026-04-06T15:45:23.966Z</time></trkpt><trkpt lat="45.8477361" lon="13.706983"><ele>381.20000000000005</ele><time>2026-04-06T15:45:24.968Z</time></trkpt><trkpt lat="45.8478155" lon="13.7068606"><ele>381.40000000000003</ele><time>2026-04-06T15:45:25.972Z</time></trkpt><trkpt lat="45.8478906" lon="13.7067405"><ele>381.6</ele><time>2026-04-06T15:45:26.969Z</time></trkpt><trkpt lat="45.847958" lon="13.7066217"><ele>381.8</ele><time>2026-04-06T15:45:27.972Z</time></trkpt><trkpt lat="45.84801" lon="13.7064956"><ele>382.0</ele><time>2026-04-06T15:45:28.97Z</time></trkpt><trkpt lat="45.8480266" lon="13.7063849"><ele>382.0</ele><time>2026-04-06T15:45:29.972Z</time></trkpt><trkpt lat="45.8480038" lon="13.7062836"><ele>382.0</ele><time>2026-04-06T15:45:30.963Z</time></trkpt><trkpt lat="45.8479483" lon="13.7062019"><ele>382.0</ele><time>2026-04-06T15:45:31.96Z</time></trkpt><trkpt lat="45.8478689" lon="13.7061543"><ele>382.0</ele><time>2026-04-06T15:45:32.967Z</time></trkpt><trkpt lat="45.8477643" lon="13.7061491"><ele>382.0</ele><time>2026-04-06T15:45:33.968Z</time></trkpt><trkpt lat="45.8476441" lon="13.7061665"><ele>381.20000000000005</ele><time>2026-04-06T15:45:34.964Z</time></trkpt><trkpt lat="45.84753" lon="13.7061847"><ele>380.4</ele><time>2026-04-06T15:45:35.996Z</time></trkpt><trkpt lat="45.8474286" lon="13.7061882"><ele>379.6</ele><time>2026-04-06T15:45:36.973Z</time></trkpt><trkpt lat="45.8473289" lon="13.7061644"><ele>378.79999999999995</ele><time>2026-04-06T15:45:37.97Z</time></trkpt><trkpt lat="45.847228" lon="13.7061008"><ele>378.0</ele><time>2026-04-06T15:45:38.967Z</time></trkpt><trkpt lat="45.8471274" lon="13.7060084"><ele>377.0</ele><time>2026-04-06T15:45:39.971Z</time></trkpt><trkpt lat="45.847026" lon="13.705908"><ele>376.0</ele><time>2026-04-06T15:45:40.964Z</time></trkpt><trkpt lat="45.8469224" lon="13.7058102"><ele>375.0</ele><time>2026-04-06T15:45:41.973Z</time></trkpt><trkpt lat="45.8468161" lon="13.7057176"><ele>374.0</ele><time>2026-04-06T15:45:42.972Z</time></trkpt><trkpt lat="45.8467174" lon="13.7056266"><ele>373.75</ele><time>2026-04-06T15:45:43.973Z</time></trkpt><trkpt lat="45.8466249" lon="13.7055359"><ele>373.5</ele><time>2026-04-06T15:45:44.978Z</time></trkpt><trkpt lat="45.8465295" lon="13.7054343"><ele>373.25</ele><time>2026-04-06T15:45:45.973Z</time></trkpt><trkpt lat="45.8464375" lon="13.705331"><ele>373.0</ele><time>2026-04-06T15:45:46.986Z</time></trkpt><trkpt lat="45.8463479" lon="13.7052219"><ele>371.79999999999995</ele><time>2026-04-06T15:45:47.976Z</time></trkpt><trkpt lat="45.8462558" lon="13.7051112"><ele>370.6</ele><time>2026-04-06T15:45:48.965Z</time></trkpt><trkpt lat="45.8461656" lon="13.7050068"><ele>369.4</ele><time>2026-04-06T15:45:49.961Z</time></trkpt><trkpt lat="45.8460808" lon="13.7049105"><ele>368.20000000000005</ele><time>2026-04-06T15:45:50.973Z</time></trkpt><trkpt lat="45.8460113" lon="13.7048144"><ele>367.0</ele><time>2026-04-06T15:45:51.964Z</time></trkpt><trkpt lat="45.8459644" lon="13.7046983"><ele>367.8</ele><time>2026-04-06T15:45:52.976Z</time></trkpt><trkpt lat="45.8459505" lon="13.7045603"><ele>368.6</ele><time>2026-04-06T15:45:53.979Z</time></trkpt><trkpt lat="45.84596" lon="13.7044185"><ele>369.40000000000003</ele><time>2026-04-06T15:45:54.969Z</time></trkpt><trkpt lat="45.8459924" lon="13.7042642"><ele>370.20000000000005</ele><time>2026-04-06T15:45:55.974Z</time></trkpt><trkpt lat="45.8460405" lon="13.7041047"><ele>371.0</ele><time>2026-04-06T15:45:56.964Z</time></trkpt><trkpt lat="45.846087" lon="13.7039343"><ele>371.0</ele><time>2026-04-06T15:45:57.967Z</time></trkpt><trkpt lat="45.8461319" lon="13.703759"><ele>371.0</ele><time>2026-04-06T15:45:58.977Z</time></trkpt><trkpt lat="45.8461799" lon="13.7035876"><ele>371.0</ele><time>2026-04-06T15:45:59.964Z</time></trkpt><trkpt lat="45.8462296" lon="13.7034297"><ele>371.0</ele><time>2026-04-06T15:46:00.976Z</time></trkpt><trkpt lat="45.8462743" lon="13.7032873"><ele>371.0</ele><time>2026-04-06T15:46:01.967Z</time></trkpt><trkpt lat="45.8463221" lon="13.7031393"><ele>371.0</ele><time>2026-04-06T15:46:02.969Z</time></trkpt><trkpt lat="45.8463725" lon="13.7029866"><ele>371.0</ele><time>2026-04-06T15:46:03.987Z</time></trkpt><trkpt lat="45.8464212" lon="13.7028423"><ele>371.0</ele><time>2026-04-06T15:46:04.967Z</time></trkpt><trkpt lat="45.846467" lon="13.7027108"><ele>371.0</ele><time>2026-04-06T15:46:05.978Z</time></trkpt><trkpt lat="45.8465159" lon="13.7025942"><ele>371.4</ele><time>2026-04-06T15:46:06.977Z</time></trkpt><trkpt lat="45.8465709" lon="13.7024776"><ele>371.8</ele><time>2026-04-06T15:46:07.962Z</time></trkpt><trkpt lat="45.84663" lon="13.7023585"><ele>372.2</ele><time>2026-04-06T15:46:08.97Z</time></trkpt><trkpt lat="45.8466931" lon="13.7022331"><ele>372.59999999999997</ele><time>2026-04-06T15:46:09.973Z</time></trkpt><trkpt lat="45.846756" lon="13.7021166"><ele>373.0</ele><time>2026-04-06T15:46:10.976Z</time></trkpt><trkpt lat="45.8468177" lon="13.7020172"><ele>373.0</ele><time>2026-04-06T15:46:11.969Z</time></trkpt><trkpt lat="45.846882" lon="13.7019378"><ele>373.0</ele><time>2026-04-06T15:46:12.971Z</time></trkpt><trkpt lat="45.8469458" lon="13.7018762"><ele>373.0</ele><time>2026-04-06T15:46:13.983Z</time></trkpt><trkpt lat="45.846996" lon="13.7018182"><ele>373.0</ele><time>2026-04-06T15:46:14.976Z</time></trkpt><trkpt lat="45.8470443" lon="13.7016961"><ele>373.0</ele><time>2026-04-06T15:46:16.984Z</time></trkpt><trkpt lat="45.8470047" lon="13.7016075"><ele>373.0</ele><time>2026-04-06T15:46:18.964Z</time></trkpt><trkpt lat="45.8468852" lon="13.7015864"><ele>373.2</ele><time>2026-04-06T15:46:20.973Z</time></trkpt><trkpt lat="45.8467904" lon="13.7016055"><ele>373.4</ele><time>2026-04-06T15:46:21.983Z</time></trkpt><trkpt lat="45.8466884" lon="13.7016259"><ele>373.59999999999997</ele><time>2026-04-06T15:46:22.958Z</time></trkpt><trkpt lat="45.8465862" lon="13.7016186"><ele>373.79999999999995</ele><time>2026-04-06T15:46:23.976Z</time></trkpt><trkpt lat="45.8464866" lon="13.7015923"><ele>374.0</ele><time>2026-04-06T15:46:24.967Z</time></trkpt><trkpt lat="45.8464045" lon="13.7015604"><ele>374.0</ele><time>2026-04-06T15:46:25.967Z</time></trkpt><trkpt lat="45.8463451" lon="13.7015259"><ele>374.0</ele><time>2026-04-06T15:46:26.971Z</time></trkpt><trkpt lat="45.8462481" lon="13.7013666"><ele>374.0</ele><time>2026-04-06T15:46:28.975Z</time></trkpt><trkpt lat="45.8461882" lon="13.7012389"><ele>374.0</ele><time>2026-04-06T15:46:29.964Z</time></trkpt><trkpt lat="45.8461214" lon="13.701103"><ele>374.0</ele><time>2026-04-06T15:46:30.962Z</time></trkpt><trkpt lat="45.8460486" lon="13.7009489"><ele>374.25</ele><time>2026-04-06T15:46:31.962Z</time></trkpt><trkpt lat="45.8459769" lon="13.7007803"><ele>374.5</ele><time>2026-04-06T15:46:32.971Z</time></trkpt><trkpt lat="45.8459086" lon="13.7006125"><ele>374.75</ele><time>2026-04-06T15:46:33.969Z</time></trkpt><trkpt lat="45.8458436" lon="13.7004618"><ele>375.0</ele><time>2026-04-06T15:46:34.967Z</time></trkpt><trkpt lat="45.8457885" lon="13.700323"><ele>374.8</ele><time>2026-04-06T15:46:35.977Z</time></trkpt><trkpt lat="45.8457477" lon="13.7001823"><ele>374.6</ele><time>2026-04-06T15:46:36.962Z</time></trkpt><trkpt lat="45.8457134" lon="13.7000605"><ele>374.4</ele><time>2026-04-06T15:46:37.958Z</time></trkpt><trkpt lat="45.8456745" lon="13.6999658"><ele>374.2</ele><time>2026-04-06T15:46:38.974Z</time></trkpt><trkpt lat="45.8455557" lon="13.6998677"><ele>374.0</ele><time>2026-04-06T15:46:40.973Z</time></trkpt><trkpt lat="45.845465" lon="13.69984"><ele>374.0</ele><time>2026-04-06T15:46:41.965Z</time></trkpt><trkpt lat="45.845351" lon="13.6998333"><ele>374.0</ele><time>2026-04-06T15:46:42.968Z</time></trkpt><trkpt lat="45.8452391" lon="13.6998275"><ele>374.0</ele><time>2026-04-06T15:46:43.98Z</time></trkpt><trkpt lat="45.8451401" lon="13.6997819"><ele>374.0</ele><time>2026-04-06T15:46:44.971Z</time></trkpt><trkpt lat="45.8450452" lon="13.6997175"><ele>374.0</ele><time>2026-04-06T15:46:45.97Z</time></trkpt><trkpt lat="45.8449657" lon="13.6996348"><ele>374.0</ele><time>2026-04-06T15:46:46.968Z</time></trkpt><trkpt lat="45.8449025" lon="13.6995358"><ele>374.0</ele><time>2026-04-06T15:46:47.971Z</time></trkpt><trkpt lat="45.844854" lon="13.6994167"><ele>374.0</ele><time>2026-04-06T15:46:48.964Z</time></trkpt><trkpt lat="45.844816" lon="13.699294"><ele>374.0</ele><time>2026-04-06T15:46:49.969Z</time></trkpt><trkpt lat="45.8447811" lon="13.699195"><ele>374.0</ele><time>2026-04-06T15:46:50.969Z</time></trkpt><trkpt lat="45.844684" lon="13.6991311"><ele>374.0</ele><time>2026-04-06T15:46:52.965Z</time></trkpt><trkpt lat="45.8445951" lon="13.6991418"><ele>374.0</ele><time>2026-04-06T15:46:53.966Z</time></trkpt><trkpt lat="45.8444969" lon="13.6991517"><ele>374.0</ele><time>2026-04-06T15:46:54.965Z</time></trkpt><trkpt lat="45.8443775" lon="13.6991551"><ele>374.0</ele><time>2026-04-06T15:46:55.966Z</time></trkpt><trkpt lat="45.8442668" lon="13.6991431"><ele>374.0</ele><time>2026-04-06T15:46:56.973Z</time></trkpt><trkpt lat="45.8441611" lon="13.6991071"><ele>373.4</ele><time>2026-04-06T15:46:57.977Z</time></trkpt><trkpt lat="45.8440587" lon="13.6990485"><ele>372.79999999999995</ele><time>2026-04-06T15:46:58.977Z</time></trkpt><trkpt lat="45.8439668" lon="13.6989735"><ele>372.20000000000005</ele><time>2026-04-06T15:46:59.965Z</time></trkpt><trkpt lat="45.8438827" lon="13.6988933"><ele>371.6</ele><time>2026-04-06T15:47:00.973Z</time></trkpt><trkpt lat="45.8438194" lon="13.698804"><ele>371.0</ele><time>2026-04-06T15:47:01.97Z</time></trkpt><trkpt lat="45.8437581" lon="13.6986998"><ele>371.0</ele><time>2026-04-06T15:47:02.968Z</time></trkpt><trkpt lat="45.8436996" lon="13.6985865"><ele>371.0</ele><time>2026-04-06T15:47:03.973Z</time></trkpt><trkpt lat="45.8436406" lon="13.6984837"><ele>371.0</ele><time>2026-04-06T15:47:04.966Z</time></trkpt><trkpt lat="45.8435804" lon="13.6983847"><ele>371.0</ele><time>2026-04-06T15:47:05.98Z</time></trkpt><trkpt lat="45.8435236" lon="13.6982907"><ele>371.0</ele><time>2026-04-06T15:47:06.97Z</time></trkpt><trkpt lat="45.8434718" lon="13.6981841"><ele>371.0</ele><time>2026-04-06T15:47:07.97Z</time></trkpt><trkpt lat="45.8434253" lon="13.6980768"><ele>371.0</ele><time>2026-04-06T15:47:08.967Z</time></trkpt><trkpt lat="45.8433888" lon="13.6979573"><ele>371.0</ele><time>2026-04-06T15:47:09.966Z</time></trkpt><trkpt lat="45.8433577" lon="13.6978259"><ele>371.0</ele><time>2026-04-06T15:47:10.987Z</time></trkpt><trkpt lat="45.8433292" lon="13.6976828"><ele>371.0</ele><time>2026-04-06T15:47:11.979Z</time></trkpt><trkpt lat="45.8433058" lon="13.6975316"><ele>371.0</ele><time>2026-04-06T15:47:12.968Z</time></trkpt><trkpt lat="45.8432871" lon="13.6973724"><ele>371.0</ele><time>2026-04-06T15:47:13.972Z</time></trkpt><trkpt lat="45.8432669" lon="13.6972156"><ele>371.0</ele><time>2026-04-06T15:47:14.973Z</time></trkpt><trkpt lat="45.8432531" lon="13.6970551"><ele>371.0</ele><time>2026-04-06T15:47:15.977Z</time></trkpt><trkpt lat="45.8432436" lon="13.6968957"><ele>371.0</ele><time>2026-04-06T15:47:16.979Z</time></trkpt><trkpt lat="45.8432367" lon="13.6967381"><ele>371.4</ele><time>2026-04-06T15:47:17.971Z</time></trkpt><trkpt lat="45.8432294" lon="13.6965752"><ele>371.8</ele><time>2026-04-06T15:47:18.966Z</time></trkpt><trkpt lat="45.8432158" lon="13.6964243"><ele>372.2</ele><time>2026-04-06T15:47:19.977Z</time></trkpt><trkpt lat="45.8431924" lon="13.696283"><ele>372.59999999999997</ele><time>2026-04-06T15:47:20.968Z</time></trkpt><trkpt lat="45.8431695" lon="13.6961618"><ele>373.0</ele><time>2026-04-06T15:47:21.971Z</time></trkpt><trkpt lat="45.8431249" lon="13.6960627"><ele>373.5</ele><time>2026-04-06T15:47:22.971Z</time></trkpt><trkpt lat="45.8430811" lon="13.6959738"><ele>374.0</ele><time>2026-04-06T15:47:23.962Z</time></trkpt><trkpt lat="45.8430318" lon="13.6959111"><ele>374.5</ele><time>2026-04-06T15:47:24.984Z</time></trkpt><trkpt lat="45.8429677" lon="13.6958894"><ele>375.0</ele><time>2026-04-06T15:47:25.963Z</time></trkpt><trkpt lat="45.8428829" lon="13.6959009"><ele>375.5</ele><time>2026-04-06T15:47:26.96Z</time></trkpt><trkpt lat="45.8427982" lon="13.6959081"><ele>376.0</ele><time>2026-04-06T15:47:27.961Z</time></trkpt><trkpt lat="45.8427101" lon="13.6959061"><ele>374.8333333333333</ele><time>2026-04-06T15:47:28.972Z</time></trkpt><trkpt lat="45.8426232" lon="13.6959036"><ele>373.66666666666663</ele><time>2026-04-06T15:47:29.973Z</time></trkpt><trkpt lat="45.8425444" lon="13.6959072"><ele>372.5</ele><time>2026-04-06T15:47:30.974Z</time></trkpt><trkpt lat="45.8424771" lon="13.6958902"><ele>371.3333333333333</ele><time>2026-04-06T15:47:31.985Z</time></trkpt><trkpt lat="45.8424261" lon="13.6957768"><ele>370.1666666666667</ele><time>2026-04-06T15:47:33.993Z</time></trkpt><trkpt lat="45.8424226" lon="13.69562"><ele>369.0</ele><time>2026-04-06T15:47:35.97Z</time></trkpt><trkpt lat="45.8423331" lon="13.6955422"><ele>369.0</ele><time>2026-04-06T15:47:37.96Z</time></trkpt><trkpt lat="45.8422041" lon="13.6955272"><ele>369.0</ele><time>2026-04-06T15:47:39.965Z</time></trkpt><trkpt lat="45.8421352" lon="13.6955358"><ele>369.0</ele><time>2026-04-06T15:47:40.977Z</time></trkpt><trkpt lat="45.8420662" lon="13.6955658"><ele>369.0</ele><time>2026-04-06T15:47:41.966Z</time></trkpt><trkpt lat="45.8420025" lon="13.6956056"><ele>369.0</ele><time>2026-04-06T15:47:42.964Z</time></trkpt><trkpt lat="45.8419393" lon="13.6956483"><ele>369.0</ele><time>2026-04-06T15:47:43.974Z</time></trkpt><trkpt lat="45.8418732" lon="13.6956901"><ele>369.0</ele><time>2026-04-06T15:47:44.981Z</time></trkpt><trkpt lat="45.8418075" lon="13.6957333"><ele>369.0</ele><time>2026-04-06T15:47:45.967Z</time></trkpt><trkpt lat="45.8417414" lon="13.6957725"><ele>369.0</ele><time>2026-04-06T15:47:46.984Z</time></trkpt><trkpt lat="45.841671" lon="13.6958023"><ele>369.0</ele><time>2026-04-06T15:47:47.976Z</time></trkpt><trkpt lat="45.8416096" lon="13.6958357"><ele>369.0</ele><time>2026-04-06T15:47:48.971Z</time></trkpt><trkpt lat="45.8415043" lon="13.6959141"><ele>369.0</ele><time>2026-04-06T15:47:50.974Z</time></trkpt><trkpt lat="45.8414091" lon="13.695931"><ele>369.0</ele><time>2026-04-06T15:47:52.974Z</time></trkpt><trkpt lat="45.8413166" lon="13.6959303"><ele>369.0</ele><time>2026-04-06T15:47:54.981Z</time></trkpt><trkpt lat="45.8411944" lon="13.6959792"><ele>369.0</ele><time>2026-04-06T15:47:56.972Z</time></trkpt><trkpt lat="45.8411296" lon="13.6960018"><ele>369.0</ele><time>2026-04-06T15:47:57.971Z</time></trkpt><trkpt lat="45.8410662" lon="13.6960234"><ele>369.0</ele><time>2026-04-06T15:47:58.969Z</time></trkpt><trkpt lat="45.8409555" lon="13.6960522"><ele>369.0</ele><time>2026-04-06T15:48:00.989Z</time></trkpt><trkpt lat="45.8408563" lon="13.6960501"><ele>369.0</ele><time>2026-04-06T15:48:02.967Z</time></trkpt><trkpt lat="45.8407638" lon="13.6960554"><ele>369.0</ele><time>2026-04-06T15:48:04.979Z</time></trkpt><trkpt lat="45.8406967" lon="13.6960089"><ele>369.0</ele><time>2026-04-06T15:48:09.973Z</time></trkpt><trkpt lat="45.8406563" lon="13.6959129"><ele>369.0</ele><time>2026-04-06T15:48:11.975Z</time></trkpt><trkpt lat="45.8405677" lon="13.6958958"><ele>369.0</ele><time>2026-04-06T15:48:14.964Z</time></trkpt><trkpt lat="45.8404911" lon="13.6959273"><ele>369.0</ele><time>2026-04-06T15:48:16.962Z</time></trkpt><trkpt lat="45.8403743" lon="13.6959432"><ele>369.0</ele><time>2026-04-06T15:48:18.969Z</time></trkpt><trkpt lat="45.8402992" lon="13.6959263"><ele>369.0</ele><time>2026-04-06T15:48:19.963Z</time></trkpt><trkpt lat="45.8402223" lon="13.695922"><ele>369.0</ele><time>2026-04-06T15:48:20.981Z</time></trkpt><trkpt lat="45.8401567" lon="13.6959447"><ele>369.0</ele><time>2026-04-06T15:48:21.974Z</time></trkpt><trkpt lat="45.8400524" lon="13.6960325"><ele>369.4</ele><time>2026-04-06T15:48:23.973Z</time></trkpt><trkpt lat="45.839955" lon="13.6961268"><ele>369.79999999999995</ele><time>2026-04-06T15:48:25.973Z</time></trkpt><trkpt lat="45.8398632" lon="13.6962584"><ele>370.20000000000005</ele><time>2026-04-06T15:48:27.981Z</time></trkpt><trkpt lat="45.8398062" lon="13.6963123"><ele>370.6</ele><time>2026-04-06T15:48:28.977Z</time></trkpt><trkpt lat="45.839749" lon="13.696363"><ele>371.0</ele><time>2026-04-06T15:48:29.963Z</time></trkpt><trkpt lat="45.8396923" lon="13.6964171"><ele>371.0</ele><time>2026-04-06T15:48:30.969Z</time></trkpt><trkpt lat="45.8396336" lon="13.6964884"><ele>371.0</ele><time>2026-04-06T15:48:31.968Z</time></trkpt><trkpt lat="45.839589" lon="13.696555"><ele>371.0</ele><time>2026-04-06T15:48:32.975Z</time></trkpt><trkpt lat="45.8395287" lon="13.6966415"><ele>371.0</ele><time>2026-04-06T15:48:34.971Z</time></trkpt><trkpt lat="45.8394345" lon="13.6966871"><ele>371.0</ele><time>2026-04-06T15:48:36.968Z</time></trkpt><trkpt lat="45.8393147" lon="13.6967221"><ele>371.0</ele><time>2026-04-06T15:48:38.97Z</time></trkpt><trkpt lat="45.8392162" lon="13.6968091"><ele>370.8</ele><time>2026-04-06T15:48:40.971Z</time></trkpt><trkpt lat="45.8391148" lon="13.6968729"><ele>370.6</ele><time>2026-04-06T15:48:42.995Z</time></trkpt><trkpt lat="45.8390107" lon="13.6969"><ele>370.4</ele><time>2026-04-06T15:48:44.966Z</time></trkpt><trkpt lat="45.8389416" lon="13.6970095"><ele>370.2</ele><time>2026-04-06T15:48:46.96Z</time></trkpt><trkpt lat="45.8388795" lon="13.6971059"><ele>370.0</ele><time>2026-04-06T15:48:48.973Z</time></trkpt><trkpt lat="45.8388154" lon="13.6971399"><ele>370.0</ele><time>2026-04-06T15:48:50.987Z</time></trkpt><trkpt lat="45.8387537" lon="13.6971106"><ele>370.0</ele><time>2026-04-06T15:48:53.969Z</time></trkpt><trkpt lat="45.8387565" lon="13.6969988"><ele>370.0</ele><time>2026-04-06T15:48:56.97Z</time></trkpt><trkpt lat="45.8387946" lon="13.6969178"><ele>370.0</ele><time>2026-04-06T15:48:57.963Z</time></trkpt><trkpt lat="45.8388294" lon="13.6968133"><ele>370.0</ele><time>2026-04-06T15:48:58.965Z</time></trkpt><trkpt lat="45.8388711" lon="13.6966661"><ele>370.0</ele><time>2026-04-06T15:48:59.968Z</time></trkpt><trkpt lat="45.8389183" lon="13.6965086"><ele>369.75</ele><time>2026-04-06T15:49:00.971Z</time></trkpt><trkpt lat="45.8389629" lon="13.696334"><ele>369.5</ele><time>2026-04-06T15:49:01.975Z</time></trkpt><trkpt lat="45.8390072" lon="13.6961749"><ele>369.25</ele><time>2026-04-06T15:49:02.968Z</time></trkpt><trkpt lat="45.8390466" lon="13.6960302"><ele>369.0</ele><time>2026-04-06T15:49:03.97Z</time></trkpt><trkpt lat="45.8390933" lon="13.6958766"><ele>369.5</ele><time>2026-04-06T15:49:04.969Z</time></trkpt><trkpt lat="45.839144" lon="13.6957097"><ele>370.0</ele><time>2026-04-06T15:49:05.972Z</time></trkpt><trkpt lat="45.8392031" lon="13.6955604"><ele>370.5</ele><time>2026-04-06T15:49:06.967Z</time></trkpt><trkpt lat="45.839271" lon="13.695439"><ele>371.0</ele><time>2026-04-06T15:49:07.987Z</time></trkpt><trkpt lat="45.8393516" lon="13.6953317"><ele>370.75</ele><time>2026-04-06T15:49:08.972Z</time></trkpt><trkpt lat="45.8394334" lon="13.6952299"><ele>370.5</ele><time>2026-04-06T15:49:09.967Z</time></trkpt><trkpt lat="45.8395223" lon="13.6951278"><ele>370.25</ele><time>2026-04-06T15:49:10.973Z</time></trkpt><trkpt lat="45.8396178" lon="13.6950231"><ele>370.0</ele><time>2026-04-06T15:49:11.966Z</time></trkpt><trkpt lat="45.8397149" lon="13.6949222"><ele>370.0</ele><time>2026-04-06T15:49:12.984Z</time></trkpt><trkpt lat="45.8398089" lon="13.694827"><ele>370.0</ele><time>2026-04-06T15:49:13.971Z</time></trkpt><trkpt lat="45.8399009" lon="13.69473"><ele>370.0</ele><time>2026-04-06T15:49:14.968Z</time></trkpt><trkpt lat="45.8399931" lon="13.6946306"><ele>370.0</ele><time>2026-04-06T15:49:15.968Z</time></trkpt><trkpt lat="45.8400774" lon="13.6945327"><ele>369.8</ele><time>2026-04-06T15:49:16.966Z</time></trkpt><trkpt lat="45.8401531" lon="13.6944257"><ele>369.6</ele><time>2026-04-06T15:49:17.97Z</time></trkpt><trkpt lat="45.8402179" lon="13.6943041"><ele>369.4</ele><time>2026-04-06T15:49:18.97Z</time></trkpt><trkpt lat="45.8402824" lon="13.6941746"><ele>369.2</ele><time>2026-04-06T15:49:19.967Z</time></trkpt><trkpt lat="45.840346" lon="13.6940364"><ele>369.0</ele><time>2026-04-06T15:49:20.981Z</time></trkpt><trkpt lat="45.8404075" lon="13.6938908"><ele>368.75</ele><time>2026-04-06T15:49:21.968Z</time></trkpt><trkpt lat="45.8404687" lon="13.6937455"><ele>368.5</ele><time>2026-04-06T15:49:22.971Z</time></trkpt><trkpt lat="45.8405346" lon="13.6936002"><ele>368.25</ele><time>2026-04-06T15:49:23.972Z</time></trkpt><trkpt lat="45.8405982" lon="13.693457"><ele>368.0</ele><time>2026-04-06T15:49:24.972Z</time></trkpt><trkpt lat="45.8406619" lon="13.6933133"><ele>368.0</ele><time>2026-04-06T15:49:25.963Z</time></trkpt><trkpt lat="45.8407239" lon="13.6931747"><ele>368.0</ele><time>2026-04-06T15:49:26.969Z</time></trkpt><trkpt lat="45.8407813" lon="13.6930335"><ele>368.0</ele><time>2026-04-06T15:49:27.97Z</time></trkpt><trkpt lat="45.8408278" lon="13.692881"><ele>368.0</ele><time>2026-04-06T15:49:28.965Z</time></trkpt><trkpt lat="45.8408585" lon="13.6927266"><ele>369.0</ele><time>2026-04-06T15:49:29.975Z</time></trkpt><trkpt lat="45.8408843" lon="13.6925717"><ele>370.0</ele><time>2026-04-06T15:49:30.965Z</time></trkpt><trkpt lat="45.8409133" lon="13.692419"><ele>371.0</ele><time>2026-04-06T15:49:31.969Z</time></trkpt><trkpt lat="45.8409377" lon="13.6922697"><ele>372.0</ele><time>2026-04-06T15:49:32.977Z</time></trkpt><trkpt lat="45.8409675" lon="13.6921162"><ele>373.0</ele><time>2026-04-06T15:49:33.97Z</time></trkpt><trkpt lat="45.8410017" lon="13.6919585"><ele>373.59999999999997</ele><time>2026-04-06T15:49:34.966Z</time></trkpt><trkpt lat="45.8410302" lon="13.6917988"><ele>374.2</ele><time>2026-04-06T15:49:35.975Z</time></trkpt><trkpt lat="45.841058" lon="13.6916413"><ele>374.8</ele><time>2026-04-06T15:49:36.966Z</time></trkpt><trkpt lat="45.8410864" lon="13.6914887"><ele>375.4</ele><time>2026-04-06T15:49:37.986Z</time></trkpt><trkpt lat="45.8411167" lon="13.6913366"><ele>376.0</ele><time>2026-04-06T15:49:38.975Z</time></trkpt><trkpt lat="45.8411468" lon="13.6911813"><ele>376.5</ele><time>2026-04-06T15:49:39.976Z</time></trkpt><trkpt lat="45.8411776" lon="13.6910296"><ele>377.0</ele><time>2026-04-06T15:49:40.972Z</time></trkpt><trkpt lat="45.8412175" lon="13.6908851"><ele>377.5</ele><time>2026-04-06T15:49:41.979Z</time></trkpt><trkpt lat="45.8412722" lon="13.6907426"><ele>378.0</ele><time>2026-04-06T15:49:42.975Z</time></trkpt><trkpt lat="45.8413251" lon="13.6905851"><ele>378.0</ele><time>2026-04-06T15:49:43.967Z</time></trkpt><trkpt lat="45.8413792" lon="13.690429"><ele>378.0</ele><time>2026-04-06T15:49:44.97Z</time></trkpt><trkpt lat="45.8414355" lon="13.6902731"><ele>378.0</ele><time>2026-04-06T15:49:45.97Z</time></trkpt><trkpt lat="45.8414842" lon="13.6901261"><ele>378.0</ele><time>2026-04-06T15:49:46.982Z</time></trkpt><trkpt lat="45.8415288" lon="13.6899938"><ele>378.2</ele><time>2026-04-06T15:49:47.975Z</time></trkpt><trkpt lat="45.8415691" lon="13.6898693"><ele>378.4</ele><time>2026-04-06T15:49:48.973Z</time></trkpt><trkpt lat="45.8416118" lon="13.6897499"><ele>378.59999999999997</ele><time>2026-04-06T15:49:49.973Z</time></trkpt><trkpt lat="45.8416542" lon="13.6896274"><ele>378.79999999999995</ele><time>2026-04-06T15:49:50.969Z</time></trkpt><trkpt lat="45.8416971" lon="13.6895017"><ele>379.0</ele><time>2026-04-06T15:49:51.972Z</time></trkpt><trkpt lat="45.8417424" lon="13.6893771"><ele>379.0</ele><time>2026-04-06T15:49:52.976Z</time></trkpt><trkpt lat="45.8417838" lon="13.6892478"><ele>379.0</ele><time>2026-04-06T15:49:53.973Z</time></trkpt><trkpt lat="45.8418327" lon="13.6891083"><ele>379.0</ele><time>2026-04-06T15:49:54.983Z</time></trkpt><trkpt lat="45.8418833" lon="13.6889555"><ele>379.0</ele><time>2026-04-06T15:49:55.971Z</time></trkpt><trkpt lat="45.841935" lon="13.6888035"><ele>379.0</ele><time>2026-04-06T15:49:56.971Z</time></trkpt><trkpt lat="45.8419855" lon="13.6886574"><ele>379.6</ele><time>2026-04-06T15:49:57.975Z</time></trkpt><trkpt lat="45.8420348" lon="13.6885122"><ele>380.2</ele><time>2026-04-06T15:49:58.975Z</time></trkpt><trkpt lat="45.842073" lon="13.6883686"><ele>380.8</ele><time>2026-04-06T15:49:59.976Z</time></trkpt><trkpt lat="45.8420973" lon="13.6882179"><ele>381.40000000000003</ele><time>2026-04-06T15:50:00.972Z</time></trkpt><trkpt lat="45.8421139" lon="13.6880546"><ele>382.0</ele><time>2026-04-06T15:50:01.972Z</time></trkpt><trkpt lat="45.8421272" lon="13.6878851"><ele>381.5</ele><time>2026-04-06T15:50:02.976Z</time></trkpt><trkpt lat="45.8421362" lon="13.6877164"><ele>381.0</ele><time>2026-04-06T15:50:03.966Z</time></trkpt><trkpt lat="45.8421371" lon="13.687548"><ele>380.5</ele><time>2026-04-06T15:50:04.964Z</time></trkpt><trkpt lat="45.8421415" lon="13.6873865"><ele>380.0</ele><time>2026-04-06T15:50:05.986Z</time></trkpt><trkpt lat="45.8421518" lon="13.6872289"><ele>380.0</ele><time>2026-04-06T15:50:06.971Z</time></trkpt><trkpt lat="45.8421686" lon="13.6870718"><ele>380.0</ele><time>2026-04-06T15:50:07.973Z</time></trkpt><trkpt lat="45.8421878" lon="13.6869143"><ele>380.0</ele><time>2026-04-06T15:50:08.973Z</time></trkpt><trkpt lat="45.8422152" lon="13.6867542"><ele>380.0</ele><time>2026-04-06T15:50:09.971Z</time></trkpt><trkpt lat="45.8422454" lon="13.6865919"><ele>379.0</ele><time>2026-04-06T15:50:10.971Z</time></trkpt><trkpt lat="45.842271" lon="13.6864423"><ele>378.0</ele><time>2026-04-06T15:50:11.971Z</time></trkpt><trkpt lat="45.8422856" lon="13.6862825"><ele>377.0</ele><time>2026-04-06T15:50:12.978Z</time></trkpt><trkpt lat="45.842281" lon="13.6861114"><ele>376.0</ele><time>2026-04-06T15:50:13.976Z</time></trkpt><trkpt lat="45.8422656" lon="13.6859427"><ele>374.75</ele><time>2026-04-06T15:50:14.973Z</time></trkpt><trkpt lat="45.8422443" lon="13.6857604"><ele>373.5</ele><time>2026-04-06T15:50:15.966Z</time></trkpt><trkpt lat="45.8422212" lon="13.6855785"><ele>372.25</ele><time>2026-04-06T15:50:16.97Z</time></trkpt><trkpt lat="45.8421984" lon="13.6854011"><ele>371.0</ele><time>2026-04-06T15:50:17.972Z</time></trkpt><trkpt lat="45.8421808" lon="13.6852324"><ele>371.0</ele><time>2026-04-06T15:50:18.98Z</time></trkpt><trkpt lat="45.8421799" lon="13.6850808"><ele>371.0</ele><time>2026-04-06T15:50:19.974Z</time></trkpt><trkpt lat="45.8421941" lon="13.6849418"><ele>371.0</ele><time>2026-04-06T15:50:20.976Z</time></trkpt><trkpt lat="45.8422307" lon="13.6848007"><ele>371.0</ele><time>2026-04-06T15:50:21.969Z</time></trkpt><trkpt lat="45.8422671" lon="13.6846589"><ele>371.0</ele><time>2026-04-06T15:50:22.969Z</time></trkpt><trkpt lat="45.8422888" lon="13.6845115"><ele>371.0</ele><time>2026-04-06T15:50:23.975Z</time></trkpt><trkpt lat="45.8422944" lon="13.6843611"><ele>371.0</ele><time>2026-04-06T15:50:24.968Z</time></trkpt><trkpt lat="45.8422832" lon="13.684219"><ele>371.0</ele><time>2026-04-06T15:50:25.968Z</time></trkpt><trkpt lat="45.8422672" lon="13.684081"><ele>371.0</ele><time>2026-04-06T15:50:26.973Z</time></trkpt><trkpt lat="45.8422455" lon="13.6839382"><ele>371.0</ele><time>2026-04-06T15:50:27.985Z</time></trkpt><trkpt lat="45.8422195" lon="13.6837986"><ele>371.0</ele><time>2026-04-06T15:50:28.969Z</time></trkpt><trkpt lat="45.8422099" lon="13.6836685"><ele>371.0</ele><time>2026-04-06T15:50:29.973Z</time></trkpt><trkpt lat="45.8422015" lon="13.6835718"><ele>371.0</ele><time>2026-04-06T15:50:30.97Z</time></trkpt><trkpt lat="45.8421694" lon="13.683479"><ele>371.0</ele><time>2026-04-06T15:50:37.973Z</time></trkpt><trkpt lat="45.8421073" lon="13.6835034"><ele>371.0</ele><time>2026-04-06T15:50:39.973Z</time></trkpt><trkpt lat="45.8420283" lon="13.683631"><ele>371.0</ele><time>2026-04-06T15:50:41.962Z</time></trkpt><trkpt lat="45.8419667" lon="13.6837159"><ele>371.0</ele><time>2026-04-06T15:50:42.971Z</time></trkpt><trkpt lat="45.8418955" lon="13.6838095"><ele>371.0</ele><time>2026-04-06T15:50:43.968Z</time></trkpt><trkpt lat="45.8418143" lon="13.6839078"><ele>371.0</ele><time>2026-04-06T15:50:44.973Z</time></trkpt><trkpt lat="45.8417352" lon="13.6840224"><ele>371.0</ele><time>2026-04-06T15:50:45.964Z</time></trkpt><trkpt lat="45.8416591" lon="13.6841511"><ele>371.0</ele><time>2026-04-06T15:50:46.965Z</time></trkpt><trkpt lat="45.8415866" lon="13.6842779"><ele>369.0</ele><time>2026-04-06T15:50:47.975Z</time></trkpt><trkpt lat="45.8415172" lon="13.6844001"><ele>367.0</ele><time>2026-04-06T15:50:48.97Z</time></trkpt><trkpt lat="45.8414339" lon="13.6845198"><ele>365.0</ele><time>2026-04-06T15:50:49.978Z</time></trkpt><trkpt lat="45.8413326" lon="13.6846198"><ele>363.0</ele><time>2026-04-06T15:50:50.969Z</time></trkpt><trkpt lat="45.8412157" lon="13.6847038"><ele>362.75</ele><time>2026-04-06T15:50:51.972Z</time></trkpt><trkpt lat="45.8410909" lon="13.6847891"><ele>362.5</ele><time>2026-04-06T15:50:52.967Z</time></trkpt><trkpt lat="45.8409597" lon="13.6848899"><ele>362.25</ele><time>2026-04-06T15:50:53.967Z</time></trkpt><trkpt lat="45.8408277" lon="13.6849979"><ele>362.0</ele><time>2026-04-06T15:50:54.959Z</time></trkpt><trkpt lat="45.8406961" lon="13.6851063"><ele>360.6666666666667</ele><time>2026-04-06T15:50:55.977Z</time></trkpt><trkpt lat="45.8405663" lon="13.6852111"><ele>359.3333333333333</ele><time>2026-04-06T15:50:56.966Z</time></trkpt><trkpt lat="45.840431" lon="13.6853108"><ele>358.0</ele><time>2026-04-06T15:50:57.972Z</time></trkpt><trkpt lat="45.8402959" lon="13.6854129"><ele>358.0</ele><time>2026-04-06T15:50:58.965Z</time></trkpt><trkpt lat="45.8401605" lon="13.6855149"><ele>358.0</ele><time>2026-04-06T15:50:59.965Z</time></trkpt><trkpt lat="45.8400259" lon="13.685622"><ele>358.0</ele><time>2026-04-06T15:51:00.971Z</time></trkpt><trkpt lat="45.8398914" lon="13.6857264"><ele>357.0</ele><time>2026-04-06T15:51:01.966Z</time></trkpt><trkpt lat="45.8397538" lon="13.6858224"><ele>356.0</ele><time>2026-04-06T15:51:02.985Z</time></trkpt><trkpt lat="45.8396214" lon="13.6859211"><ele>355.0</ele><time>2026-04-06T15:51:03.964Z</time></trkpt><trkpt lat="45.8394906" lon="13.6860218"><ele>355.0</ele><time>2026-04-06T15:51:04.97Z</time></trkpt><trkpt lat="45.8393659" lon="13.6861259"><ele>355.0</ele><time>2026-04-06T15:51:05.963Z</time></trkpt><trkpt lat="45.8392397" lon="13.6862262"><ele>355.0</ele><time>2026-04-06T15:51:06.963Z</time></trkpt><trkpt lat="45.8391091" lon="13.6863229"><ele>355.0</ele><time>2026-04-06T15:51:07.965Z</time></trkpt><trkpt lat="45.8389791" lon="13.6864281"><ele>354.5</ele><time>2026-04-06T15:51:08.968Z</time></trkpt><trkpt lat="45.8388532" lon="13.6865358"><ele>354.0</ele><time>2026-04-06T15:51:09.975Z</time></trkpt><trkpt lat="45.838724" lon="13.6866364"><ele>353.5</ele><time>2026-04-06T15:51:10.968Z</time></trkpt><trkpt lat="45.8385927" lon="13.6867392"><ele>353.0</ele><time>2026-04-06T15:51:11.963Z</time></trkpt><trkpt lat="45.8384592" lon="13.6868389"><ele>352.75</ele><time>2026-04-06T15:51:12.972Z</time></trkpt><trkpt lat="45.838328" lon="13.6869399"><ele>352.5</ele><time>2026-04-06T15:51:13.968Z</time></trkpt><trkpt lat="45.8382007" lon="13.6870372"><ele>352.25</ele><time>2026-04-06T15:51:14.977Z</time></trkpt><trkpt lat="45.8380776" lon="13.6871146"><ele>352.0</ele><time>2026-04-06T15:51:15.966Z</time></trkpt><trkpt lat="45.8379524" lon="13.6871777"><ele>352.0</ele><time>2026-04-06T15:51:16.967Z</time></trkpt><trkpt lat="45.8378304" lon="13.6872421"><ele>352.0</ele><time>2026-04-06T15:51:17.969Z</time></trkpt><trkpt lat="45.8377086" lon="13.6873012"><ele>352.0</ele><time>2026-04-06T15:51:18.969Z</time></trkpt><trkpt lat="45.8375843" lon="13.6873587"><ele>352.0</ele><time>2026-04-06T15:51:19.982Z</time></trkpt><trkpt lat="45.8374593" lon="13.6874145"><ele>350.75</ele><time>2026-04-06T15:51:20.963Z</time></trkpt><trkpt lat="45.8373318" lon="13.6874702"><ele>349.5</ele><time>2026-04-06T15:51:21.968Z</time></trkpt><trkpt lat="45.8372052" lon="13.6875357"><ele>348.25</ele><time>2026-04-06T15:51:22.967Z</time></trkpt><trkpt lat="45.837078" lon="13.6876077"><ele>347.0</ele><time>2026-04-06T15:51:23.965Z</time></trkpt><trkpt lat="45.8369493" lon="13.6876934"><ele>348.25</ele><time>2026-04-06T15:51:24.969Z</time></trkpt><trkpt lat="45.8368182" lon="13.6877709"><ele>349.5</ele><time>2026-04-06T15:51:25.972Z</time></trkpt><trkpt lat="45.8366862" lon="13.6878504"><ele>350.75</ele><time>2026-04-06T15:51:26.979Z</time></trkpt><trkpt lat="45.8365545" lon="13.6879338"><ele>352.0</ele><time>2026-04-06T15:51:27.96Z</time></trkpt><trkpt lat="45.8364209" lon="13.6880113"><ele>352.5</ele><time>2026-04-06T15:51:28.968Z</time></trkpt><trkpt lat="45.8362852" lon="13.6880846"><ele>353.0</ele><time>2026-04-06T15:51:29.975Z</time></trkpt><trkpt lat="45.8361454" lon="13.6881662"><ele>353.5</ele><time>2026-04-06T15:51:30.972Z</time></trkpt><trkpt lat="45.836008" lon="13.6882472"><ele>354.0</ele><time>2026-04-06T15:51:31.983Z</time></trkpt><trkpt lat="45.8358736" lon="13.6883195"><ele>354.25</ele><time>2026-04-06T15:51:32.966Z</time></trkpt><trkpt lat="45.8357374" lon="13.6883955"><ele>354.5</ele><time>2026-04-06T15:51:33.959Z</time></trkpt><trkpt lat="45.8355965" lon="13.6884717"><ele>354.75</ele><time>2026-04-06T15:51:34.965Z</time></trkpt><trkpt lat="45.8354565" lon="13.6885497"><ele>355.0</ele><time>2026-04-06T15:51:35.97Z</time></trkpt><trkpt lat="45.8353095" lon="13.6886286"><ele>355.0</ele><time>2026-04-06T15:51:36.969Z</time></trkpt><trkpt lat="45.8351667" lon="13.6887079"><ele>355.0</ele><time>2026-04-06T15:51:37.966Z</time></trkpt><trkpt lat="45.8350228" lon="13.6887858"><ele>355.0</ele><time>2026-04-06T15:51:38.96Z</time></trkpt><trkpt lat="45.8348798" lon="13.6888602"><ele>354.0</ele><time>2026-04-06T15:51:39.967Z</time></trkpt><trkpt lat="45.8347346" lon="13.6889363"><ele>353.0</ele><time>2026-04-06T15:51:40.965Z</time></trkpt><trkpt lat="45.834591" lon="13.6890125"><ele>352.0</ele><time>2026-04-06T15:51:41.962Z</time></trkpt><trkpt lat="45.8344533" lon="13.6890824"><ele>352.0</ele><time>2026-04-06T15:51:42.971Z</time></trkpt><trkpt lat="45.8343238" lon="13.6891474"><ele>352.0</ele><time>2026-04-06T15:51:43.966Z</time></trkpt><trkpt lat="45.8342042" lon="13.6892083"><ele>352.0</ele><time>2026-04-06T15:51:44.965Z</time></trkpt><trkpt lat="45.834096" lon="13.689262"><ele>352.0</ele><time>2026-04-06T15:51:45.978Z</time></trkpt><trkpt lat="45.8339833" lon="13.6893168"><ele>351.75</ele><time>2026-04-06T15:51:46.963Z</time></trkpt><trkpt lat="45.8338656" lon="13.6893673"><ele>351.5</ele><time>2026-04-06T15:51:47.984Z</time></trkpt><trkpt lat="45.8337415" lon="13.6894167"><ele>351.25</ele><time>2026-04-06T15:51:48.961Z</time></trkpt><trkpt lat="45.8336146" lon="13.6894714"><ele>351.0</ele><time>2026-04-06T15:51:49.967Z</time></trkpt><trkpt lat="45.8334885" lon="13.6895227"><ele>351.75</ele><time>2026-04-06T15:51:50.966Z</time></trkpt><trkpt lat="45.833363" lon="13.6895731"><ele>352.5</ele><time>2026-04-06T15:51:51.965Z</time></trkpt><trkpt lat="45.8332271" lon="13.6896218"><ele>353.25</ele><time>2026-04-06T15:51:52.974Z</time></trkpt><trkpt lat="45.8330929" lon="13.6896768"><ele>354.0</ele><time>2026-04-06T15:51:53.97Z</time></trkpt><trkpt lat="45.8329557" lon="13.6897362"><ele>354.0</ele><time>2026-04-06T15:51:54.978Z</time></trkpt><trkpt lat="45.8328249" lon="13.6897903"><ele>354.0</ele><time>2026-04-06T15:51:55.961Z</time></trkpt><trkpt lat="45.8327004" lon="13.6898423"><ele>354.0</ele><time>2026-04-06T15:51:56.968Z</time></trkpt><trkpt lat="45.8325803" lon="13.6898903"><ele>354.0</ele><time>2026-04-06T15:51:57.968Z</time></trkpt><trkpt lat="45.8324676" lon="13.6899361"><ele>352.75</ele><time>2026-04-06T15:51:58.974Z</time></trkpt><trkpt lat="45.8323553" lon="13.6899765"><ele>351.5</ele><time>2026-04-06T15:51:59.969Z</time></trkpt><trkpt lat="45.8322411" lon="13.6900132"><ele>350.25</ele><time>2026-04-06T15:52:00.967Z</time></trkpt><trkpt lat="45.8321234" lon="13.6900478"><ele>349.0</ele><time>2026-04-06T15:52:01.993Z</time></trkpt><trkpt lat="45.8320021" lon="13.6901006"><ele>349.0</ele><time>2026-04-06T15:52:02.968Z</time></trkpt><trkpt lat="45.8318807" lon="13.6901562"><ele>349.0</ele><time>2026-04-06T15:52:03.963Z</time></trkpt><trkpt lat="45.8317502" lon="13.6902127"><ele>349.0</ele><time>2026-04-06T15:52:04.973Z</time></trkpt><trkpt lat="45.8316145" lon="13.6902666"><ele>349.0</ele><time>2026-04-06T15:52:05.965Z</time></trkpt><trkpt lat="45.831471" lon="13.6903168"><ele>351.0</ele><time>2026-04-06T15:52:06.974Z</time></trkpt><trkpt lat="45.831321" lon="13.6903795"><ele>353.0</ele><time>2026-04-06T15:52:07.967Z</time></trkpt><trkpt lat="45.8311735" lon="13.690435"><ele>355.0</ele><time>2026-04-06T15:52:08.966Z</time></trkpt><trkpt lat="45.8310331" lon="13.6904819"><ele>355.0</ele><time>2026-04-06T15:52:09.963Z</time></trkpt><trkpt lat="45.8308946" lon="13.6905304"><ele>355.0</ele><time>2026-04-06T15:52:10.972Z</time></trkpt><trkpt lat="45.8307565" lon="13.6905919"><ele>355.0</ele><time>2026-04-06T15:52:11.963Z</time></trkpt><trkpt lat="45.8306221" lon="13.6906518"><ele>355.0</ele><time>2026-04-06T15:52:12.977Z</time></trkpt><trkpt lat="45.8304852" lon="13.6907103"><ele>355.0</ele><time>2026-04-06T15:52:13.966Z</time></trkpt><trkpt lat="45.8303485" lon="13.6907711"><ele>355.0</ele><time>2026-04-06T15:52:14.973Z</time></trkpt><trkpt lat="45.83021" lon="13.6908317"><ele>355.0</ele><time>2026-04-06T15:52:15.969Z</time></trkpt><trkpt lat="45.8300673" lon="13.6908871"><ele>355.0</ele><time>2026-04-06T15:52:16.968Z</time></trkpt><trkpt lat="45.8299296" lon="13.690936"><ele>353.5</ele><time>2026-04-06T15:52:17.968Z</time></trkpt><trkpt lat="45.8297954" lon="13.6909843"><ele>352.0</ele><time>2026-04-06T15:52:18.964Z</time></trkpt><trkpt lat="45.8296626" lon="13.6910373"><ele>350.5</ele><time>2026-04-06T15:52:19.967Z</time></trkpt><trkpt lat="45.8295261" lon="13.6910971"><ele>349.0</ele><time>2026-04-06T15:52:20.966Z</time></trkpt><trkpt lat="45.8293923" lon="13.6911514"><ele>349.5</ele><time>2026-04-06T15:52:21.966Z</time></trkpt><trkpt lat="45.8292555" lon="13.6912088"><ele>350.0</ele><time>2026-04-06T15:52:22.972Z</time></trkpt><trkpt lat="45.8291142" lon="13.6912679"><ele>350.5</ele><time>2026-04-06T15:52:23.975Z</time></trkpt><trkpt lat="45.8289731" lon="13.691321"><ele>351.0</ele><time>2026-04-06T15:52:24.977Z</time></trkpt><trkpt lat="45.8288364" lon="13.691373"><ele>351.0</ele><time>2026-04-06T15:52:25.971Z</time></trkpt><trkpt lat="45.828702" lon="13.6914202"><ele>351.0</ele><time>2026-04-06T15:52:26.971Z</time></trkpt><trkpt lat="45.8285624" lon="13.691473"><ele>351.0</ele><time>2026-04-06T15:52:27.966Z</time></trkpt><trkpt lat="45.8284252" lon="13.6915214"><ele>351.0</ele><time>2026-04-06T15:52:28.968Z</time></trkpt><trkpt lat="45.8282901" lon="13.691578"><ele>351.0</ele><time>2026-04-06T15:52:29.968Z</time></trkpt><trkpt lat="45.828159" lon="13.6916338"><ele>351.0</ele><time>2026-04-06T15:52:30.964Z</time></trkpt><trkpt lat="45.8280311" lon="13.6916927"><ele>351.0</ele><time>2026-04-06T15:52:31.972Z</time></trkpt><trkpt lat="45.8279094" lon="13.6917476"><ele>351.0</ele><time>2026-04-06T15:52:32.972Z</time></trkpt><trkpt lat="45.8277845" lon="13.6917984"><ele>351.0</ele><time>2026-04-06T15:52:33.973Z</time></trkpt><trkpt lat="45.827659" lon="13.6918457"><ele>351.0</ele><time>2026-04-06T15:52:34.976Z</time></trkpt><trkpt lat="45.8275348" lon="13.6918899"><ele>351.0</ele><time>2026-04-06T15:52:35.973Z</time></trkpt><trkpt lat="45.8274093" lon="13.6919375"><ele>351.0</ele><time>2026-04-06T15:52:36.979Z</time></trkpt><trkpt lat="45.8272871" lon="13.6919825"><ele>350.5</ele><time>2026-04-06T15:52:37.961Z</time></trkpt><trkpt lat="45.827164" lon="13.6920334"><ele>350.0</ele><time>2026-04-06T15:52:38.973Z</time></trkpt><trkpt lat="45.8270478" lon="13.6920826"><ele>349.5</ele><time>2026-04-06T15:52:39.975Z</time></trkpt><trkpt lat="45.8269344" lon="13.6921213"><ele>349.0</ele><time>2026-04-06T15:52:40.981Z</time></trkpt><trkpt lat="45.8268273" lon="13.6921594"><ele>348.8333333333333</ele><time>2026-04-06T15:52:41.968Z</time></trkpt><trkpt lat="45.8267379" lon="13.692196"><ele>348.66666666666663</ele><time>2026-04-06T15:52:42.98Z</time></trkpt><trkpt lat="45.8266564" lon="13.6922392"><ele>348.5</ele><time>2026-04-06T15:52:43.975Z</time></trkpt><trkpt lat="45.8265781" lon="13.692279"><ele>348.3333333333333</ele><time>2026-04-06T15:52:44.973Z</time></trkpt><trkpt lat="45.8264991" lon="13.6923196"><ele>348.1666666666667</ele><time>2026-04-06T15:52:45.977Z</time></trkpt><trkpt lat="45.8264083" lon="13.6923584"><ele>348.0</ele><time>2026-04-06T15:52:46.974Z</time></trkpt><trkpt lat="45.8262967" lon="13.6924018"><ele>348.0</ele><time>2026-04-06T15:52:47.971Z</time></trkpt><trkpt lat="45.8261693" lon="13.6924428"><ele>348.0</ele><time>2026-04-06T15:52:48.972Z</time></trkpt><trkpt lat="45.8260435" lon="13.6924912"><ele>348.0</ele><time>2026-04-06T15:52:49.979Z</time></trkpt><trkpt lat="45.8259166" lon="13.6925329"><ele>348.0</ele><time>2026-04-06T15:52:50.977Z</time></trkpt><trkpt lat="45.8257922" lon="13.6925844"><ele>347.25</ele><time>2026-04-06T15:52:51.975Z</time></trkpt><trkpt lat="45.8256705" lon="13.6926355"><ele>346.5</ele><time>2026-04-06T15:52:52.971Z</time></trkpt><trkpt lat="45.8255582" lon="13.6926761"><ele>345.75</ele><time>2026-04-06T15:52:53.97Z</time></trkpt><trkpt lat="45.8254453" lon="13.6927139"><ele>345.0</ele><time>2026-04-06T15:52:54.979Z</time></trkpt><trkpt lat="45.8253254" lon="13.6927526"><ele>345.0</ele><time>2026-04-06T15:52:55.974Z</time></trkpt><trkpt lat="45.8251964" lon="13.6928015"><ele>345.0</ele><time>2026-04-06T15:52:56.967Z</time></trkpt><trkpt lat="45.8250721" lon="13.6928443"><ele>345.0</ele><time>2026-04-06T15:52:57.964Z</time></trkpt><trkpt lat="45.8249542" lon="13.6928842"><ele>345.0</ele><time>2026-04-06T15:52:58.964Z</time></trkpt><trkpt lat="45.8248377" lon="13.692924"><ele>343.75</ele><time>2026-04-06T15:52:59.969Z</time></trkpt><trkpt lat="45.8247148" lon="13.6929749"><ele>342.5</ele><time>2026-04-06T15:53:00.98Z</time></trkpt><trkpt lat="45.8245914" lon="13.693025"><ele>341.25</ele><time>2026-04-06T15:53:01.971Z</time></trkpt><trkpt lat="45.8244689" lon="13.6930695"><ele>340.0</ele><time>2026-04-06T15:53:02.975Z</time></trkpt><trkpt lat="45.824345" lon="13.69312"><ele>338.75</ele><time>2026-04-06T15:53:03.973Z</time></trkpt><trkpt lat="45.8242258" lon="13.6931651"><ele>337.5</ele><time>2026-04-06T15:53:04.97Z</time></trkpt><trkpt lat="45.8241104" lon="13.6932015"><ele>336.25</ele><time>2026-04-06T15:53:05.973Z</time></trkpt><trkpt lat="45.8239979" lon="13.6932372"><ele>335.0</ele><time>2026-04-06T15:53:06.972Z</time></trkpt><trkpt lat="45.8238883" lon="13.6932841"><ele>335.0</ele><time>2026-04-06T15:53:07.965Z</time></trkpt><trkpt lat="45.8237777" lon="13.693328"><ele>335.0</ele><time>2026-04-06T15:53:08.982Z</time></trkpt><trkpt lat="45.8236739" lon="13.6933721"><ele>335.0</ele><time>2026-04-06T15:53:09.97Z</time></trkpt><trkpt lat="45.8235703" lon="13.6934039"><ele>335.0</ele><time>2026-04-06T15:53:10.974Z</time></trkpt><trkpt lat="45.8234828" lon="13.6934166"><ele>335.0</ele><time>2026-04-06T15:53:11.96Z</time></trkpt><trkpt lat="45.8234073" lon="13.6934269"><ele>334.8</ele><time>2026-04-06T15:53:12.977Z</time></trkpt><trkpt lat="45.8233414" lon="13.693438"><ele>334.6</ele><time>2026-04-06T15:53:13.971Z</time></trkpt><trkpt lat="45.8232472" lon="13.6934621"><ele>334.4</ele><time>2026-04-06T15:53:15.983Z</time></trkpt><trkpt lat="45.8231646" lon="13.6933794"><ele>334.2</ele><time>2026-04-06T15:53:18.972Z</time></trkpt><trkpt lat="45.8231158" lon="13.6932136"><ele>334.0</ele><time>2026-04-06T15:53:20.971Z</time></trkpt><trkpt lat="45.8230848" lon="13.6931283"><ele>334.0</ele><time>2026-04-06T15:53:21.959Z</time></trkpt><trkpt lat="45.8230536" lon="13.6930415"><ele>334.0</ele><time>2026-04-06T15:53:22.968Z</time></trkpt><trkpt lat="45.8230345" lon="13.6929535"><ele>334.0</ele><time>2026-04-06T15:53:23.966Z</time></trkpt><trkpt lat="45.8230308" lon="13.6927623"><ele>334.0</ele><time>2026-04-06T15:53:25.962Z</time></trkpt><trkpt lat="45.8230586" lon="13.6926404"><ele>334.0</ele><time>2026-04-06T15:53:26.957Z</time></trkpt><trkpt lat="45.8230928" lon="13.6925127"><ele>335.0</ele><time>2026-04-06T15:53:27.96Z</time></trkpt><trkpt lat="45.823143" lon="13.692396"><ele>336.0</ele><time>2026-04-06T15:53:28.956Z</time></trkpt><trkpt lat="45.8232059" lon="13.6922916"><ele>337.0</ele><time>2026-04-06T15:53:29.958Z</time></trkpt><trkpt lat="45.823274" lon="13.6921795"><ele>338.0</ele><time>2026-04-06T15:53:30.981Z</time></trkpt><trkpt lat="45.8233364" lon="13.6920659"><ele>339.0</ele><time>2026-04-06T15:53:31.961Z</time></trkpt><trkpt lat="45.8233856" lon="13.6919616"><ele>340.0</ele><time>2026-04-06T15:53:32.963Z</time></trkpt><trkpt lat="45.8234168" lon="13.6918423"><ele>341.0</ele><time>2026-04-06T15:53:33.964Z</time></trkpt><trkpt lat="45.8234274" lon="13.6917093"><ele>342.0</ele><time>2026-04-06T15:53:34.965Z</time></trkpt><trkpt lat="45.8234269" lon="13.6915611"><ele>343.0</ele><time>2026-04-06T15:53:35.974Z</time></trkpt><trkpt lat="45.8234274" lon="13.6914037"><ele>344.0</ele><time>2026-04-06T15:53:36.965Z</time></trkpt><trkpt lat="45.8234279" lon="13.6912569"><ele>344.0</ele><time>2026-04-06T15:53:37.96Z</time></trkpt><trkpt lat="45.82342" lon="13.6911111"><ele>344.0</ele><time>2026-04-06T15:53:38.968Z</time></trkpt><trkpt lat="45.8234045" lon="13.6909593"><ele>344.0</ele><time>2026-04-06T15:53:39.957Z</time></trkpt><trkpt lat="45.8233805" lon="13.6908047"><ele>344.0</ele><time>2026-04-06T15:53:40.965Z</time></trkpt><trkpt lat="45.8233646" lon="13.6906534"><ele>344.0</ele><time>2026-04-06T15:53:41.959Z</time></trkpt><trkpt lat="45.8233451" lon="13.6904953"><ele>343.79999999999995</ele><time>2026-04-06T15:53:42.98Z</time></trkpt><trkpt lat="45.8233326" lon="13.6903471"><ele>343.59999999999997</ele><time>2026-04-06T15:53:43.962Z</time></trkpt><trkpt lat="45.8233267" lon="13.6902067"><ele>343.4</ele><time>2026-04-06T15:53:44.974Z</time></trkpt><trkpt lat="45.8233344" lon="13.6900696"><ele>343.2</ele><time>2026-04-06T15:53:45.962Z</time></trkpt><trkpt lat="45.8233741" lon="13.6899345"><ele>343.0</ele><time>2026-04-06T15:53:46.966Z</time></trkpt><trkpt lat="45.823439" lon="13.6897919"><ele>340.5</ele><time>2026-04-06T15:53:47.96Z</time></trkpt><trkpt lat="45.8235152" lon="13.6896652"><ele>338.0</ele><time>2026-04-06T15:53:48.964Z</time></trkpt><trkpt lat="45.8235966" lon="13.6895391"><ele>335.5</ele><time>2026-04-06T15:53:49.961Z</time></trkpt><trkpt lat="45.8236703" lon="13.6894098"><ele>333.0</ele><time>2026-04-06T15:53:50.963Z</time></trkpt><trkpt lat="45.823724" lon="13.6892721"><ele>333.0</ele><time>2026-04-06T15:53:51.962Z</time></trkpt><trkpt lat="45.8237576" lon="13.6891343"><ele>333.0</ele><time>2026-04-06T15:53:52.972Z</time></trkpt><trkpt lat="45.8237765" lon="13.6890087"><ele>333.0</ele><time>2026-04-06T15:53:53.967Z</time></trkpt><trkpt lat="45.8237752" lon="13.6888916"><ele>333.0</ele><time>2026-04-06T15:53:54.971Z</time></trkpt><trkpt lat="45.8237645" lon="13.6887619"><ele>333.0</ele><time>2026-04-06T15:53:55.962Z</time></trkpt><trkpt lat="45.8237408" lon="13.6886264"><ele>332.2</ele><time>2026-04-06T15:53:56.982Z</time></trkpt><trkpt lat="45.8237194" lon="13.6885026"><ele>331.4</ele><time>2026-04-06T15:53:57.966Z</time></trkpt><trkpt lat="45.8236874" lon="13.6883691"><ele>330.59999999999997</ele><time>2026-04-06T15:53:58.975Z</time></trkpt><trkpt lat="45.8236473" lon="13.6882415"><ele>329.79999999999995</ele><time>2026-04-06T15:53:59.97Z</time></trkpt><trkpt lat="45.8236109" lon="13.68812"><ele>329.0</ele><time>2026-04-06T15:54:00.973Z</time></trkpt><trkpt lat="45.8235735" lon="13.6880075"><ele>329.0</ele><time>2026-04-06T15:54:01.97Z</time></trkpt><trkpt lat="45.8235378" lon="13.687869"><ele>329.0</ele><time>2026-04-06T15:54:02.976Z</time></trkpt><trkpt lat="45.8235155" lon="13.6877406"><ele>329.0</ele><time>2026-04-06T15:54:03.968Z</time></trkpt><trkpt lat="45.823508" lon="13.6875965"><ele>329.0</ele><time>2026-04-06T15:54:04.973Z</time></trkpt><trkpt lat="45.8235061" lon="13.6874643"><ele>329.0</ele><time>2026-04-06T15:54:05.968Z</time></trkpt><trkpt lat="45.823524" lon="13.6873297"><ele>328.0</ele><time>2026-04-06T15:54:06.972Z</time></trkpt><trkpt lat="45.8235495" lon="13.6872145"><ele>327.0</ele><time>2026-04-06T15:54:07.963Z</time></trkpt><trkpt lat="45.8235839" lon="13.687106"><ele>326.0</ele><time>2026-04-06T15:54:09.965Z</time></trkpt><trkpt lat="45.8235963" lon="13.68697"><ele>325.0</ele><time>2026-04-06T15:54:13.971Z</time></trkpt><trkpt lat="45.8236052" lon="13.6868772"><ele>324.0</ele><time>2026-04-06T15:54:14.972Z</time></trkpt><trkpt lat="45.8236131" lon="13.686758"><ele>323.0</ele><time>2026-04-06T15:54:15.967Z</time></trkpt><trkpt lat="45.8236141" lon="13.686636"><ele>323.0</ele><time>2026-04-06T15:54:16.98Z</time></trkpt><trkpt lat="45.8235989" lon="13.686481"><ele>323.0</ele><time>2026-04-06T15:54:17.967Z</time></trkpt><trkpt lat="45.823578" lon="13.6863374"><ele>323.0</ele><time>2026-04-06T15:54:18.967Z</time></trkpt><trkpt lat="45.8235677" lon="13.6861779"><ele>323.0</ele><time>2026-04-06T15:54:19.969Z</time></trkpt><trkpt lat="45.8235504" lon="13.6860158"><ele>323.0</ele><time>2026-04-06T15:54:20.974Z</time></trkpt><trkpt lat="45.8235284" lon="13.6858576"><ele>323.0</ele><time>2026-04-06T15:54:21.966Z</time></trkpt><trkpt lat="45.8234924" lon="13.6856879"><ele>323.0</ele><time>2026-04-06T15:54:22.966Z</time></trkpt><trkpt lat="45.8234546" lon="13.6855166"><ele>323.0</ele><time>2026-04-06T15:54:23.971Z</time></trkpt><trkpt lat="45.8234126" lon="13.6853459"><ele>323.0</ele><time>2026-04-06T15:54:24.971Z</time></trkpt><trkpt lat="45.8233686" lon="13.6851886"><ele>322.4</ele><time>2026-04-06T15:54:25.984Z</time></trkpt><trkpt lat="45.823321" lon="13.6850364"><ele>321.79999999999995</ele><time>2026-04-06T15:54:26.967Z</time></trkpt><trkpt lat="45.8232797" lon="13.6849084"><ele>321.2</ele><time>2026-04-06T15:54:27.965Z</time></trkpt><trkpt lat="45.8232384" lon="13.684798"><ele>320.6</ele><time>2026-04-06T15:54:28.962Z</time></trkpt><trkpt lat="45.8232052" lon="13.6846956"><ele>320.0</ele><time>2026-04-06T15:54:29.968Z</time></trkpt><trkpt lat="45.8231774" lon="13.6846005"><ele>320.0</ele><time>2026-04-06T15:54:30.982Z</time></trkpt><trkpt lat="45.8231555" lon="13.6845073"><ele>320.0</ele><time>2026-04-06T15:54:31.973Z</time></trkpt><trkpt lat="45.8231313" lon="13.6843349"><ele>320.0</ele><time>2026-04-06T15:54:33.97Z</time></trkpt><trkpt lat="45.8231293" lon="13.6842395"><ele>320.0</ele><time>2026-04-06T15:54:34.97Z</time></trkpt><trkpt lat="45.823124" lon="13.6841392"><ele>320.0</ele><time>2026-04-06T15:54:35.984Z</time></trkpt><trkpt lat="45.823115" lon="13.6840448"><ele>320.0</ele><time>2026-04-06T15:54:36.967Z</time></trkpt><trkpt lat="45.8230969" lon="13.6839553"><ele>319.4</ele><time>2026-04-06T15:54:37.971Z</time></trkpt><trkpt lat="45.8230685" lon="13.6838023"><ele>318.8</ele><time>2026-04-06T15:54:39.959Z</time></trkpt><trkpt lat="45.8230706" lon="13.6836697"><ele>318.2</ele><time>2026-04-06T15:54:41.966Z</time></trkpt><trkpt lat="45.8231144" lon="13.6835884"><ele>317.6</ele><time>2026-04-06T15:54:45.967Z</time></trkpt><trkpt lat="45.8232142" lon="13.6836312"><ele>317.0</ele><time>2026-04-06T15:54:47.968Z</time></trkpt><trkpt lat="45.8232883" lon="13.683679"><ele>317.0</ele><time>2026-04-06T15:54:48.961Z</time></trkpt><trkpt lat="45.8233668" lon="13.683718"><ele>317.0</ele><time>2026-04-06T15:54:49.969Z</time></trkpt><trkpt lat="45.8234601" lon="13.6837665"><ele>317.0</ele><time>2026-04-06T15:54:50.963Z</time></trkpt><trkpt lat="45.8235479" lon="13.6838145"><ele>317.0</ele><time>2026-04-06T15:54:51.967Z</time></trkpt><trkpt lat="45.8236297" lon="13.6838622"><ele>317.0</ele><time>2026-04-06T15:54:52.975Z</time></trkpt><trkpt lat="45.8237074" lon="13.6839192"><ele>316.6666666666667</ele><time>2026-04-06T15:54:53.974Z</time></trkpt><trkpt lat="45.8237916" lon="13.6839794"><ele>316.33333333333337</ele><time>2026-04-06T15:54:54.971Z</time></trkpt><trkpt lat="45.8238734" lon="13.6840273"><ele>316.0</ele><time>2026-04-06T15:54:55.97Z</time></trkpt><trkpt lat="45.8239508" lon="13.6840746"><ele>315.6666666666667</ele><time>2026-04-06T15:54:56.977Z</time></trkpt><trkpt lat="45.8240221" lon="13.684124"><ele>315.3333333333333</ele><time>2026-04-06T15:54:57.968Z</time></trkpt><trkpt lat="45.8240889" lon="13.684168"><ele>315.0</ele><time>2026-04-06T15:54:58.968Z</time></trkpt><trkpt lat="45.8241718" lon="13.6842038"><ele>315.0</ele><time>2026-04-06T15:54:59.972Z</time></trkpt><trkpt lat="45.8242608" lon="13.6842377"><ele>315.0</ele><time>2026-04-06T15:55:00.967Z</time></trkpt><trkpt lat="45.8243373" lon="13.6842851"><ele>315.0</ele><time>2026-04-06T15:55:01.996Z</time></trkpt><trkpt lat="45.8244053" lon="13.6843446"><ele>315.0</ele><time>2026-04-06T15:55:02.969Z</time></trkpt><trkpt lat="45.8244871" lon="13.6844115"><ele>315.0</ele><time>2026-04-06T15:55:03.968Z</time></trkpt><trkpt lat="45.8245786" lon="13.6844741"><ele>315.6666666666667</ele><time>2026-04-06T15:55:04.973Z</time></trkpt><trkpt lat="45.8246699" lon="13.6845397"><ele>316.3333333333333</ele><time>2026-04-06T15:55:05.96Z</time></trkpt><trkpt lat="45.8247464" lon="13.6846055"><ele>317.0</ele><time>2026-04-06T15:55:06.979Z</time></trkpt><trkpt lat="45.8248196" lon="13.6846703"><ele>317.66666666666663</ele><time>2026-04-06T15:55:07.965Z</time></trkpt><trkpt lat="45.8248899" lon="13.6847265"><ele>318.3333333333333</ele><time>2026-04-06T15:55:08.969Z</time></trkpt><trkpt lat="45.8249643" lon="13.6847601"><ele>319.0</ele><time>2026-04-06T15:55:09.964Z</time></trkpt><trkpt lat="45.8250457" lon="13.6847791"><ele>319.0</ele><time>2026-04-06T15:55:10.971Z</time></trkpt><trkpt lat="45.8251367" lon="13.6847819"><ele>319.0</ele><time>2026-04-06T15:55:11.972Z</time></trkpt><trkpt lat="45.8252286" lon="13.6847744"><ele>319.0</ele><time>2026-04-06T15:55:12.972Z</time></trkpt><trkpt lat="45.8253218" lon="13.6847521"><ele>319.0</ele><time>2026-04-06T15:55:13.967Z</time></trkpt><trkpt lat="45.8254125" lon="13.6847393"><ele>319.0</ele><time>2026-04-06T15:55:14.973Z</time></trkpt><trkpt lat="45.8254943" lon="13.6847363"><ele>318.5</ele><time>2026-04-06T15:55:15.962Z</time></trkpt><trkpt lat="45.8255641" lon="13.6847483"><ele>318.0</ele><time>2026-04-06T15:55:16.973Z</time></trkpt><trkpt lat="45.8256366" lon="13.6847979"><ele>317.5</ele><time>2026-04-06T15:55:17.958Z</time></trkpt><trkpt lat="45.8257078" lon="13.6848728"><ele>317.0</ele><time>2026-04-06T15:55:18.961Z</time></trkpt><trkpt lat="45.8257884" lon="13.6849578"><ele>316.5</ele><time>2026-04-06T15:55:19.97Z</time></trkpt><trkpt lat="45.8258653" lon="13.6850412"><ele>316.0</ele><time>2026-04-06T15:55:20.965Z</time></trkpt><trkpt lat="45.8259465" lon="13.6851116"><ele>315.8333333333333</ele><time>2026-04-06T15:55:21.967Z</time></trkpt><trkpt lat="45.8260211" lon="13.685158"><ele>315.66666666666663</ele><time>2026-04-06T15:55:22.964Z</time></trkpt><trkpt lat="45.8260931" lon="13.6851816"><ele>315.5</ele><time>2026-04-06T15:55:23.983Z</time></trkpt><trkpt lat="45.8261656" lon="13.6851792"><ele>315.3333333333333</ele><time>2026-04-06T15:55:24.964Z</time></trkpt><trkpt lat="45.8262394" lon="13.6851862"><ele>315.1666666666667</ele><time>2026-04-06T15:55:25.964Z</time></trkpt><trkpt lat="45.8263298" lon="13.6852014"><ele>315.0</ele><time>2026-04-06T15:55:26.969Z</time></trkpt><trkpt lat="45.8264209" lon="13.6852241"><ele>315.0</ele><time>2026-04-06T15:55:27.968Z</time></trkpt><trkpt lat="45.8265088" lon="13.6852542"><ele>315.0</ele><time>2026-04-06T15:55:28.976Z</time></trkpt><trkpt lat="45.8265911" lon="13.685284"><ele>315.0</ele><time>2026-04-06T15:55:29.967Z</time></trkpt><trkpt lat="45.8266712" lon="13.6852984"><ele>315.0</ele><time>2026-04-06T15:55:30.969Z</time></trkpt><trkpt lat="45.8267443" lon="13.685299"><ele>315.0</ele><time>2026-04-06T15:55:31.975Z</time></trkpt><trkpt lat="45.8268091" lon="13.6852885"><ele>315.0</ele><time>2026-04-06T15:55:32.968Z</time></trkpt><trkpt lat="45.8268791" lon="13.6853045"><ele>316.1666666666667</ele><time>2026-04-06T15:55:33.983Z</time></trkpt><trkpt lat="45.8269382" lon="13.685372"><ele>317.3333333333333</ele><time>2026-04-06T15:55:34.971Z</time></trkpt><trkpt lat="45.8269998" lon="13.6854427"><ele>318.5</ele><time>2026-04-06T15:55:35.967Z</time></trkpt><trkpt lat="45.8270748" lon="13.6855191"><ele>319.66666666666663</ele><time>2026-04-06T15:55:36.969Z</time></trkpt><trkpt lat="45.8271525" lon="13.6855822"><ele>320.8333333333333</ele><time>2026-04-06T15:55:37.972Z</time></trkpt><trkpt lat="45.8272277" lon="13.685637"><ele>322.0</ele><time>2026-04-06T15:55:38.969Z</time></trkpt><trkpt lat="45.8273075" lon="13.6857004"><ele>322.0</ele><time>2026-04-06T15:55:39.969Z</time></trkpt><trkpt lat="45.8273857" lon="13.685775"><ele>322.0</ele><time>2026-04-06T15:55:40.982Z</time></trkpt><trkpt lat="45.8274551" lon="13.6858447"><ele>322.0</ele><time>2026-04-06T15:55:41.965Z</time></trkpt><trkpt lat="45.8275302" lon="13.6858915"><ele>322.0</ele><time>2026-04-06T15:55:42.976Z</time></trkpt><trkpt lat="45.8276129" lon="13.6859236"><ele>322.0</ele><time>2026-04-06T15:55:43.966Z</time></trkpt><trkpt lat="45.8276808" lon="13.6859458"><ele>322.0</ele><time>2026-04-06T15:55:44.966Z</time></trkpt><trkpt lat="45.8277915" lon="13.6860311"><ele>322.40000000000003</ele><time>2026-04-06T15:55:46.971Z</time></trkpt><trkpt lat="45.8278521" lon="13.6860897"><ele>322.8</ele><time>2026-04-06T15:55:47.978Z</time></trkpt><trkpt lat="45.8279203" lon="13.686142"><ele>323.2</ele><time>2026-04-06T15:55:48.973Z</time></trkpt><trkpt lat="45.8280163" lon="13.686194"><ele>323.6</ele><time>2026-04-06T15:55:49.976Z</time></trkpt><trkpt lat="45.8281335" lon="13.6862294"><ele>324.0</ele><time>2026-04-06T15:55:50.968Z</time></trkpt><trkpt lat="45.8282441" lon="13.6862574"><ele>325.0</ele><time>2026-04-06T15:55:51.971Z</time></trkpt><trkpt lat="45.8283428" lon="13.6862875"><ele>326.0</ele><time>2026-04-06T15:55:52.966Z</time></trkpt><trkpt lat="45.8284495" lon="13.6863125"><ele>327.0</ele><time>2026-04-06T15:55:53.968Z</time></trkpt><trkpt lat="45.8285559" lon="13.686334"><ele>328.0</ele><time>2026-04-06T15:55:54.976Z</time></trkpt><trkpt lat="45.8286583" lon="13.6863442"><ele>329.0</ele><time>2026-04-06T15:55:55.975Z</time></trkpt><trkpt lat="45.8287659" lon="13.6863528"><ele>329.1666666666667</ele><time>2026-04-06T15:55:56.97Z</time></trkpt><trkpt lat="45.828867" lon="13.6863482"><ele>329.33333333333337</ele><time>2026-04-06T15:55:57.978Z</time></trkpt><trkpt lat="45.828959" lon="13.6863592"><ele>329.5</ele><time>2026-04-06T15:55:58.967Z</time></trkpt><trkpt lat="45.8290392" lon="13.6863609"><ele>329.6666666666667</ele><time>2026-04-06T15:55:59.974Z</time></trkpt><trkpt lat="45.8291135" lon="13.6863462"><ele>329.8333333333333</ele><time>2026-04-06T15:56:00.972Z</time></trkpt><trkpt lat="45.829182" lon="13.6863336"><ele>330.0</ele><time>2026-04-06T15:56:01.966Z</time></trkpt><trkpt lat="45.8292767" lon="13.6862976"><ele>329.8</ele><time>2026-04-06T15:56:03.972Z</time></trkpt><trkpt lat="45.8293889" lon="13.6862282"><ele>329.6</ele><time>2026-04-06T15:56:05.979Z</time></trkpt><trkpt lat="45.8295139" lon="13.6862243"><ele>329.4</ele><time>2026-04-06T15:56:07.97Z</time></trkpt><trkpt lat="45.829592" lon="13.6862431"><ele>329.2</ele><time>2026-04-06T15:56:08.976Z</time></trkpt><trkpt lat="45.8296722" lon="13.6862712"><ele>329.0</ele><time>2026-04-06T15:56:09.963Z</time></trkpt><trkpt lat="45.8297459" lon="13.6863199"><ele>329.0</ele><time>2026-04-06T15:56:10.976Z</time></trkpt><trkpt lat="45.8298151" lon="13.6863862"><ele>329.0</ele><time>2026-04-06T15:56:11.973Z</time></trkpt><trkpt lat="45.8298892" lon="13.6864772"><ele>329.0</ele><time>2026-04-06T15:56:12.961Z</time></trkpt><trkpt lat="45.829957" lon="13.6865561"><ele>329.0</ele><time>2026-04-06T15:56:13.971Z</time></trkpt><trkpt lat="45.8300248" lon="13.6866292"><ele>329.0</ele><time>2026-04-06T15:56:14.976Z</time></trkpt><trkpt lat="45.8300834" lon="13.6867056"><ele>329.0</ele><time>2026-04-06T15:56:15.971Z</time></trkpt><trkpt lat="45.8301285" lon="13.6867878"><ele>328.83333333333337</ele><time>2026-04-06T15:56:16.977Z</time></trkpt><trkpt lat="45.8301706" lon="13.686867"><ele>328.6666666666667</ele><time>2026-04-06T15:56:17.969Z</time></trkpt><trkpt lat="45.8302159" lon="13.6869424"><ele>328.5</ele><time>2026-04-06T15:56:18.972Z</time></trkpt><trkpt lat="45.8302637" lon="13.6870253"><ele>328.3333333333333</ele><time>2026-04-06T15:56:19.968Z</time></trkpt><trkpt lat="45.8303077" lon="13.6870969"><ele>328.16666666666663</ele><time>2026-04-06T15:56:20.969Z</time></trkpt><trkpt lat="45.830377" lon="13.6872108"><ele>328.0</ele><time>2026-04-06T15:56:22.967Z</time></trkpt><trkpt lat="45.8304669" lon="13.6872495"><ele>330.0</ele><time>2026-04-06T15:56:24.972Z</time></trkpt><trkpt lat="45.8305613" lon="13.6872842"><ele>332.0</ele><time>2026-04-06T15:56:26.972Z</time></trkpt><trkpt lat="45.8306577" lon="13.6873029"><ele>334.0</ele><time>2026-04-06T15:56:29.976Z</time></trkpt><trkpt lat="45.8307797" lon="13.6872958"><ele>336.0</ele><time>2026-04-06T15:56:31.971Z</time></trkpt><trkpt lat="45.8308561" lon="13.6872887"><ele>338.0</ele><time>2026-04-06T15:56:32.978Z</time></trkpt><trkpt lat="45.8309384" lon="13.6872865"><ele>337.42857142857144</ele><time>2026-04-06T15:56:33.966Z</time></trkpt><trkpt lat="45.8310167" lon="13.6872839"><ele>336.85714285714283</ele><time>2026-04-06T15:56:34.967Z</time></trkpt><trkpt lat="45.8310905" lon="13.6872792"><ele>336.2857142857143</ele><time>2026-04-06T15:56:35.97Z</time></trkpt><trkpt lat="45.8311559" lon="13.6872821"><ele>335.7142857142857</ele><time>2026-04-06T15:56:36.97Z</time></trkpt><trkpt lat="45.8312259" lon="13.6872822"><ele>335.14285714285717</ele><time>2026-04-06T15:56:37.975Z</time></trkpt><trkpt lat="45.8312932" lon="13.6872859"><ele>334.57142857142856</ele><time>2026-04-06T15:56:38.973Z</time></trkpt><trkpt lat="45.8313688" lon="13.6872864"><ele>334.0</ele><time>2026-04-06T15:56:39.969Z</time></trkpt><trkpt lat="45.8314371" lon="13.6872902"><ele>334.0</ele><time>2026-04-06T15:56:40.976Z</time></trkpt><trkpt lat="45.8315058" lon="13.6873021"><ele>334.0</ele><time>2026-04-06T15:56:41.97Z</time></trkpt><trkpt lat="45.8316306" lon="13.6872869"><ele>334.0</ele><time>2026-04-06T15:56:43.976Z</time></trkpt><trkpt lat="45.8316946" lon="13.6872704"><ele>334.0</ele><time>2026-04-06T15:56:44.965Z</time></trkpt><trkpt lat="45.8317621" lon="13.6872481"><ele>334.0</ele><time>2026-04-06T15:56:45.973Z</time></trkpt><trkpt lat="45.8318316" lon="13.687228"><ele>334.0</ele><time>2026-04-06T15:56:46.972Z</time></trkpt><trkpt lat="45.8319118" lon="13.6871936"><ele>334.66666666666663</ele><time>2026-04-06T15:56:47.966Z</time></trkpt><trkpt lat="45.8319822" lon="13.6871626"><ele>335.3333333333333</ele><time>2026-04-06T15:56:48.977Z</time></trkpt><trkpt lat="45.832053" lon="13.6871393"><ele>336.0</ele><time>2026-04-06T15:56:49.962Z</time></trkpt><trkpt lat="45.8321241" lon="13.6871103"><ele>336.6666666666667</ele><time>2026-04-06T15:56:50.964Z</time></trkpt><trkpt lat="45.8321889" lon="13.6870731"><ele>337.33333333333337</ele><time>2026-04-06T15:56:51.968Z</time></trkpt><trkpt lat="45.832242" lon="13.6870243"><ele>338.0</ele><time>2026-04-06T15:56:52.963Z</time></trkpt><trkpt lat="45.8323375" lon="13.686963"><ele>337.0</ele><time>2026-04-06T15:56:54.983Z</time></trkpt><trkpt lat="45.832399" lon="13.6868779"><ele>336.0</ele><time>2026-04-06T15:56:56.968Z</time></trkpt><trkpt lat="45.8324242" lon="13.6867933"><ele>335.0</ele><time>2026-04-06T15:56:58.971Z</time></trkpt><trkpt lat="45.8324466" lon="13.6866652"><ele>334.0</ele><time>2026-04-06T15:57:00.97Z</time></trkpt><trkpt lat="45.8324612" lon="13.6865617"><ele>333.0</ele><time>2026-04-06T15:57:01.966Z</time></trkpt><trkpt lat="45.8324653" lon="13.6864375"><ele>332.0</ele><time>2026-04-06T15:57:03.964Z</time></trkpt><trkpt lat="45.8324198" lon="13.6863072"><ele>332.0</ele><time>2026-04-06T15:57:06.968Z</time></trkpt><trkpt lat="45.8324216" lon="13.686151"><ele>332.0</ele><time>2026-04-06T15:57:08.971Z</time></trkpt><trkpt lat="45.8324207" lon="13.6860158"><ele>332.0</ele><time>2026-04-06T15:57:10.968Z</time></trkpt><trkpt lat="45.8324206" lon="13.685874"><ele>332.0</ele><time>2026-04-06T15:57:12.976Z</time></trkpt><trkpt lat="45.8323956" lon="13.6857353"><ele>332.0</ele><time>2026-04-06T15:57:14.98Z</time></trkpt><trkpt lat="45.8324152" lon="13.6855924"><ele>330.83333333333337</ele><time>2026-04-06T15:57:16.96Z</time></trkpt><trkpt lat="45.832441" lon="13.685461"><ele>329.6666666666667</ele><time>2026-04-06T15:57:18.977Z</time></trkpt><trkpt lat="45.8324969" lon="13.6853699"><ele>328.5</ele><time>2026-04-06T15:57:20.979Z</time></trkpt><trkpt lat="45.8325328" lon="13.6852553"><ele>327.3333333333333</ele><time>2026-04-06T15:57:22.975Z</time></trkpt><trkpt lat="45.8325609" lon="13.6851536"><ele>326.16666666666663</ele><time>2026-04-06T15:57:23.972Z</time></trkpt><trkpt lat="45.8325816" lon="13.6850647"><ele>325.0</ele><time>2026-04-06T15:57:24.968Z</time></trkpt><trkpt lat="45.8326018" lon="13.6848953"><ele>323.16666666666663</ele><time>2026-04-06T15:57:26.979Z</time></trkpt><trkpt lat="45.8326493" lon="13.6847622"><ele>321.3333333333333</ele><time>2026-04-06T15:57:28.967Z</time></trkpt><trkpt lat="45.8327075" lon="13.6846772"><ele>319.5</ele><time>2026-04-06T15:57:30.969Z</time></trkpt><trkpt lat="45.8327395" lon="13.6845882"><ele>317.6666666666667</ele><time>2026-04-06T15:57:31.964Z</time></trkpt><trkpt lat="45.8327836" lon="13.6844321"><ele>315.83333333333337</ele><time>2026-04-06T15:57:33.968Z</time></trkpt><trkpt lat="45.8327906" lon="13.68433"><ele>314.0</ele><time>2026-04-06T15:57:34.978Z</time></trkpt><trkpt lat="45.8327965" lon="13.6842261"><ele>313.83333333333337</ele><time>2026-04-06T15:57:35.968Z</time></trkpt><trkpt lat="45.8328016" lon="13.6841235"><ele>313.6666666666667</ele><time>2026-04-06T15:57:36.971Z</time></trkpt><trkpt lat="45.8327993" lon="13.6840184"><ele>313.5</ele><time>2026-04-06T15:57:37.965Z</time></trkpt><trkpt lat="45.8327969" lon="13.6839266"><ele>313.3333333333333</ele><time>2026-04-06T15:57:38.973Z</time></trkpt><trkpt lat="45.8327777" lon="13.6837687"><ele>313.16666666666663</ele><time>2026-04-06T15:57:40.974Z</time></trkpt><trkpt lat="45.8326998" lon="13.6836313"><ele>313.0</ele><time>2026-04-06T15:57:42.968Z</time></trkpt><trkpt lat="45.8326363" lon="13.6835581"><ele>312.16666666666663</ele><time>2026-04-06T15:57:43.963Z</time></trkpt><trkpt lat="45.832561" lon="13.6834988"><ele>311.3333333333333</ele><time>2026-04-06T15:57:44.964Z</time></trkpt><trkpt lat="45.8324762" lon="13.6834612"><ele>310.5</ele><time>2026-04-06T15:57:45.959Z</time></trkpt><trkpt lat="45.8323932" lon="13.6834428"><ele>309.6666666666667</ele><time>2026-04-06T15:57:46.96Z</time></trkpt><trkpt lat="45.8323091" lon="13.6834206"><ele>308.83333333333337</ele><time>2026-04-06T15:57:47.965Z</time></trkpt><trkpt lat="45.8322205" lon="13.6833949"><ele>308.0</ele><time>2026-04-06T15:57:48.966Z</time></trkpt><trkpt lat="45.8321272" lon="13.6833667"><ele>308.0</ele><time>2026-04-06T15:57:49.963Z</time></trkpt><trkpt lat="45.8320348" lon="13.6833406"><ele>308.0</ele><time>2026-04-06T15:57:50.964Z</time></trkpt><trkpt lat="45.8319469" lon="13.6833246"><ele>308.0</ele><time>2026-04-06T15:57:51.967Z</time></trkpt><trkpt lat="45.8318622" lon="13.683319"><ele>308.0</ele><time>2026-04-06T15:57:52.958Z</time></trkpt><trkpt lat="45.8317749" lon="13.6833102"><ele>308.0</ele><time>2026-04-06T15:57:53.976Z</time></trkpt><trkpt lat="45.8317028" lon="13.6832939"><ele>308.0</ele><time>2026-04-06T15:57:54.971Z</time></trkpt><trkpt lat="45.8316435" lon="13.6832522"><ele>307.6666666666667</ele><time>2026-04-06T15:57:55.972Z</time></trkpt><trkpt lat="45.8315868" lon="13.6831978"><ele>307.33333333333337</ele><time>2026-04-06T15:57:56.965Z</time></trkpt><trkpt lat="45.8315195" lon="13.6831343"><ele>307.0</ele><time>2026-04-06T15:57:57.966Z</time></trkpt><trkpt lat="45.8314404" lon="13.6830878"><ele>306.6666666666667</ele><time>2026-04-06T15:57:58.966Z</time></trkpt><trkpt lat="45.8313591" lon="13.6830642"><ele>306.3333333333333</ele><time>2026-04-06T15:57:59.967Z</time></trkpt><trkpt lat="45.8312882" lon="13.683035"><ele>306.0</ele><time>2026-04-06T15:58:00.978Z</time></trkpt><trkpt lat="45.8312224" lon="13.6830146"><ele>306.0</ele><time>2026-04-06T15:58:01.974Z</time></trkpt><trkpt lat="45.8311566" lon="13.6830195"><ele>306.0</ele><time>2026-04-06T15:58:02.966Z</time></trkpt><trkpt lat="45.8310875" lon="13.6830382"><ele>306.0</ele><time>2026-04-06T15:58:03.964Z</time></trkpt><trkpt lat="45.8310125" lon="13.6830473"><ele>306.0</ele><time>2026-04-06T15:58:04.963Z</time></trkpt><trkpt lat="45.8309294" lon="13.6830473"><ele>306.0</ele><time>2026-04-06T15:58:05.971Z</time></trkpt><trkpt lat="45.8308436" lon="13.6830388"><ele>306.0</ele><time>2026-04-06T15:58:06.962Z</time></trkpt><trkpt lat="45.830761" lon="13.6830208"><ele>305.1666666666667</ele><time>2026-04-06T15:58:07.955Z</time></trkpt><trkpt lat="45.8306903" lon="13.6829926"><ele>304.3333333333333</ele><time>2026-04-06T15:58:08.961Z</time></trkpt><trkpt lat="45.8306147" lon="13.6829427"><ele>303.5</ele><time>2026-04-06T15:58:09.961Z</time></trkpt><trkpt lat="45.8305374" lon="13.6828782"><ele>302.66666666666663</ele><time>2026-04-06T15:58:10.974Z</time></trkpt><trkpt lat="45.8304633" lon="13.682819"><ele>301.8333333333333</ele><time>2026-04-06T15:58:11.966Z</time></trkpt><trkpt lat="45.8303824" lon="13.6827664"><ele>301.0</ele><time>2026-04-06T15:58:13.975Z</time></trkpt><trkpt lat="45.8303121" lon="13.6827536"><ele>300.5</ele><time>2026-04-06T15:58:20.962Z</time></trkpt><trkpt lat="45.8302263" lon="13.6826762"><ele>300.0</ele><time>2026-04-06T15:58:22.964Z</time></trkpt><trkpt lat="45.8301621" lon="13.6826228"><ele>299.5</ele><time>2026-04-06T15:58:23.971Z</time></trkpt><trkpt lat="45.8300899" lon="13.6825693"><ele>299.0</ele><time>2026-04-06T15:58:24.974Z</time></trkpt><trkpt lat="45.83001" lon="13.682511"><ele>298.5</ele><time>2026-04-06T15:58:25.965Z</time></trkpt><trkpt lat="45.8299291" lon="13.682446"><ele>298.0</ele><time>2026-04-06T15:58:26.964Z</time></trkpt><trkpt lat="45.8298591" lon="13.6823781"><ele>298.0</ele><time>2026-04-06T15:58:27.965Z</time></trkpt><trkpt lat="45.8297922" lon="13.6823079"><ele>298.0</ele><time>2026-04-06T15:58:28.966Z</time></trkpt><trkpt lat="45.8297353" lon="13.682212"><ele>298.0</ele><time>2026-04-06T15:58:29.977Z</time></trkpt><trkpt lat="45.8296828" lon="13.6821088"><ele>298.0</ele><time>2026-04-06T15:58:30.96Z</time></trkpt><trkpt lat="45.8296278" lon="13.6820108"><ele>298.0</ele><time>2026-04-06T15:58:31.977Z</time></trkpt><trkpt lat="45.8295653" lon="13.6819242"><ele>298.0</ele><time>2026-04-06T15:58:32.969Z</time></trkpt><trkpt lat="45.8294959" lon="13.6818541"><ele>298.0</ele><time>2026-04-06T15:58:33.969Z</time></trkpt><trkpt lat="45.8294297" lon="13.6817862"><ele>298.0</ele><time>2026-04-06T15:58:34.968Z</time></trkpt><trkpt lat="45.8293755" lon="13.6816945"><ele>298.0</ele><time>2026-04-06T15:58:35.966Z</time></trkpt><trkpt lat="45.8293286" lon="13.6815878"><ele>298.0</ele><time>2026-04-06T15:58:36.967Z</time></trkpt><trkpt lat="45.82928" lon="13.6814932"><ele>298.0</ele><time>2026-04-06T15:58:37.967Z</time></trkpt><trkpt lat="45.8292163" lon="13.6814245"><ele>298.0</ele><time>2026-04-06T15:58:38.968Z</time></trkpt><trkpt lat="45.8291527" lon="13.6813751"><ele>298.16666666666663</ele><time>2026-04-06T15:58:39.96Z</time></trkpt><trkpt lat="45.8290973" lon="13.6813223"><ele>298.3333333333333</ele><time>2026-04-06T15:58:40.971Z</time></trkpt><trkpt lat="45.8290513" lon="13.6812328"><ele>298.5</ele><time>2026-04-06T15:58:41.971Z</time></trkpt><trkpt lat="45.8290111" lon="13.6811309"><ele>298.6666666666667</ele><time>2026-04-06T15:58:42.974Z</time></trkpt><trkpt lat="45.8289968" lon="13.6810202"><ele>298.83333333333337</ele><time>2026-04-06T15:58:43.965Z</time></trkpt><trkpt lat="45.8289855" lon="13.6808986"><ele>299.0</ele><time>2026-04-06T15:58:44.967Z</time></trkpt><trkpt lat="45.8289693" lon="13.6807608"><ele>299.0</ele><time>2026-04-06T15:58:45.971Z</time></trkpt><trkpt lat="45.8289742" lon="13.6806135"><ele>299.0</ele><time>2026-04-06T15:58:46.968Z</time></trkpt><trkpt lat="45.8289903" lon="13.6804663"><ele>299.0</ele><time>2026-04-06T15:58:47.978Z</time></trkpt><trkpt lat="45.8290135" lon="13.6803118"><ele>299.0</ele><time>2026-04-06T15:58:48.966Z</time></trkpt><trkpt lat="45.82904" lon="13.6801632"><ele>299.0</ele><time>2026-04-06T15:58:49.964Z</time></trkpt><trkpt lat="45.82906" lon="13.680027"><ele>299.0</ele><time>2026-04-06T15:58:50.969Z</time></trkpt><trkpt lat="45.8290781" lon="13.679895"><ele>299.0</ele><time>2026-04-06T15:58:51.972Z</time></trkpt><trkpt lat="45.829105" lon="13.6797604"><ele>299.0</ele><time>2026-04-06T15:58:52.98Z</time></trkpt><trkpt lat="45.829144" lon="13.6796422"><ele>299.0</ele><time>2026-04-06T15:58:53.966Z</time></trkpt><trkpt lat="45.8291841" lon="13.6795182"><ele>299.0</ele><time>2026-04-06T15:58:54.982Z</time></trkpt><trkpt lat="45.8292117" lon="13.6793902"><ele>299.5</ele><time>2026-04-06T15:58:55.977Z</time></trkpt><trkpt lat="45.8292254" lon="13.6792714"><ele>300.0</ele><time>2026-04-06T15:58:56.982Z</time></trkpt><trkpt lat="45.8292231" lon="13.6791749"><ele>300.5</ele><time>2026-04-06T15:58:57.976Z</time></trkpt><trkpt lat="45.8291856" lon="13.6789972"><ele>301.0</ele><time>2026-04-06T15:58:59.97Z</time></trkpt><trkpt lat="45.829134" lon="13.6789337"><ele>301.5</ele><time>2026-04-06T15:59:00.961Z</time></trkpt><trkpt lat="45.82908" lon="13.6788601"><ele>302.0</ele><time>2026-04-06T15:59:01.962Z</time></trkpt><trkpt lat="45.8290229" lon="13.678779"><ele>302.0</ele><time>2026-04-06T15:59:02.98Z</time></trkpt><trkpt lat="45.8289592" lon="13.6786965"><ele>302.0</ele><time>2026-04-06T15:59:03.972Z</time></trkpt><trkpt lat="45.8288874" lon="13.6786305"><ele>302.0</ele><time>2026-04-06T15:59:04.97Z</time></trkpt><trkpt lat="45.8288007" lon="13.6785852"><ele>302.0</ele><time>2026-04-06T15:59:05.964Z</time></trkpt><trkpt lat="45.8287193" lon="13.6785539"><ele>302.0</ele><time>2026-04-06T15:59:06.971Z</time></trkpt><trkpt lat="45.8286467" lon="13.678513"><ele>302.0</ele><time>2026-04-06T15:59:07.965Z</time></trkpt><trkpt lat="45.8285828" lon="13.6784424"><ele>302.0</ele><time>2026-04-06T15:59:08.969Z</time></trkpt><trkpt lat="45.8285324" lon="13.678337"><ele>302.0</ele><time>2026-04-06T15:59:09.969Z</time></trkpt><trkpt lat="45.8284846" lon="13.678209"><ele>302.0</ele><time>2026-04-06T15:59:10.963Z</time></trkpt><trkpt lat="45.8284339" lon="13.678076"><ele>302.0</ele><time>2026-04-06T15:59:11.979Z</time></trkpt><trkpt lat="45.8283792" lon="13.6779427"><ele>302.0</ele><time>2026-04-06T15:59:12.968Z</time></trkpt><trkpt lat="45.8283193" lon="13.6778068"><ele>303.2</ele><time>2026-04-06T15:59:13.964Z</time></trkpt><trkpt lat="45.8282632" lon="13.677663"><ele>304.4</ele><time>2026-04-06T15:59:14.966Z</time></trkpt><trkpt lat="45.8282159" lon="13.6775173"><ele>305.6</ele><time>2026-04-06T15:59:15.969Z</time></trkpt><trkpt lat="45.8281758" lon="13.6773904"><ele>306.8</ele><time>2026-04-06T15:59:16.977Z</time></trkpt><trkpt lat="45.8281241" lon="13.6772902"><ele>308.0</ele><time>2026-04-06T15:59:17.963Z</time></trkpt><trkpt lat="45.8280686" lon="13.6771954"><ele>308.0</ele><time>2026-04-06T15:59:18.974Z</time></trkpt><trkpt lat="45.8280221" lon="13.6770972"><ele>308.0</ele><time>2026-04-06T15:59:19.976Z</time></trkpt><trkpt lat="45.8279855" lon="13.6769856"><ele>308.0</ele><time>2026-04-06T15:59:20.969Z</time></trkpt><trkpt lat="45.827955" lon="13.6768715"><ele>308.0</ele><time>2026-04-06T15:59:21.973Z</time></trkpt><trkpt lat="45.8279217" lon="13.6767652"><ele>308.0</ele><time>2026-04-06T15:59:22.976Z</time></trkpt><trkpt lat="45.8278961" lon="13.6766543"><ele>308.0</ele><time>2026-04-06T15:59:23.973Z</time></trkpt><trkpt lat="45.8278789" lon="13.6765432"><ele>309.0</ele><time>2026-04-06T15:59:24.972Z</time></trkpt><trkpt lat="45.8278719" lon="13.6764263"><ele>310.0</ele><time>2026-04-06T15:59:25.979Z</time></trkpt><trkpt lat="45.8278691" lon="13.6762953"><ele>311.0</ele><time>2026-04-06T15:59:26.962Z</time></trkpt><trkpt lat="45.8278628" lon="13.6761661"><ele>312.0</ele><time>2026-04-06T15:59:27.965Z</time></trkpt><trkpt lat="45.8278623" lon="13.6760231"><ele>313.0</ele><time>2026-04-06T15:59:28.969Z</time></trkpt><trkpt lat="45.8278697" lon="13.6758847"><ele>313.16666666666663</ele><time>2026-04-06T15:59:29.965Z</time></trkpt><trkpt lat="45.827885" lon="13.6757625"><ele>313.3333333333333</ele><time>2026-04-06T15:59:30.992Z</time></trkpt><trkpt lat="45.827902" lon="13.6756569"><ele>313.5</ele><time>2026-04-06T15:59:31.961Z</time></trkpt><trkpt lat="45.827921" lon="13.6755587"><ele>313.6666666666667</ele><time>2026-04-06T15:59:32.971Z</time></trkpt><trkpt lat="45.8279618" lon="13.6754493"><ele>313.83333333333337</ele><time>2026-04-06T15:59:33.97Z</time></trkpt><trkpt lat="45.8280276" lon="13.6753353"><ele>314.0</ele><time>2026-04-06T15:59:34.96Z</time></trkpt><trkpt lat="45.8281003" lon="13.6752185"><ele>313.5</ele><time>2026-04-06T15:59:35.965Z</time></trkpt><trkpt lat="45.8281791" lon="13.6750921"><ele>313.0</ele><time>2026-04-06T15:59:36.959Z</time></trkpt><trkpt lat="45.8282709" lon="13.6749666"><ele>312.5</ele><time>2026-04-06T15:59:37.97Z</time></trkpt><trkpt lat="45.8283776" lon="13.6748433"><ele>312.0</ele><time>2026-04-06T15:59:38.96Z</time></trkpt><trkpt lat="45.828487" lon="13.674727"><ele>313.0</ele><time>2026-04-06T15:59:39.962Z</time></trkpt><trkpt lat="45.8285819" lon="13.6746084"><ele>314.0</ele><time>2026-04-06T15:59:40.961Z</time></trkpt><trkpt lat="45.8286532" lon="13.6744822"><ele>315.0</ele><time>2026-04-06T15:59:41.964Z</time></trkpt><trkpt lat="45.8287139" lon="13.6743403"><ele>316.0</ele><time>2026-04-06T15:59:42.962Z</time></trkpt><trkpt lat="45.8287639" lon="13.6742017"><ele>316.0</ele><time>2026-04-06T15:59:43.974Z</time></trkpt><trkpt lat="45.8288088" lon="13.6740671"><ele>316.0</ele><time>2026-04-06T15:59:44.964Z</time></trkpt><trkpt lat="45.8288452" lon="13.6739312"><ele>316.0</ele><time>2026-04-06T15:59:45.975Z</time></trkpt><trkpt lat="45.8288573" lon="13.6737913"><ele>316.0</ele><time>2026-04-06T15:59:46.966Z</time></trkpt><trkpt lat="45.8288342" lon="13.6736544"><ele>316.0</ele><time>2026-04-06T15:59:47.96Z</time></trkpt><trkpt lat="45.8287957" lon="13.6735196"><ele>314.5</ele><time>2026-04-06T15:59:48.967Z</time></trkpt><trkpt lat="45.828758" lon="13.6733664"><ele>313.0</ele><time>2026-04-06T15:59:49.969Z</time></trkpt><trkpt lat="45.8287196" lon="13.6732066"><ele>311.5</ele><time>2026-04-06T15:59:50.976Z</time></trkpt><trkpt lat="45.8286832" lon="13.6730463"><ele>310.0</ele><time>2026-04-06T15:59:51.969Z</time></trkpt><trkpt lat="45.8286551" lon="13.6728881"><ele>309.0</ele><time>2026-04-06T15:59:52.966Z</time></trkpt><trkpt lat="45.8286267" lon="13.6727322"><ele>308.0</ele><time>2026-04-06T15:59:53.975Z</time></trkpt><trkpt lat="45.8286071" lon="13.6725738"><ele>307.0</ele><time>2026-04-06T15:59:55Z</time></trkpt><trkpt lat="45.8285947" lon="13.6724179"><ele>306.0</ele><time>2026-04-06T15:59:55.977Z</time></trkpt><trkpt lat="45.8285901" lon="13.6722608"><ele>305.0</ele><time>2026-04-06T15:59:56.975Z</time></trkpt><trkpt lat="45.8285802" lon="13.6721107"><ele>305.0</ele><time>2026-04-06T15:59:57.969Z</time></trkpt><trkpt lat="45.8285649" lon="13.6719603"><ele>305.0</ele><time>2026-04-06T15:59:58.966Z</time></trkpt><trkpt lat="45.8285467" lon="13.6718127"><ele>305.0</ele><time>2026-04-06T15:59:59.969Z</time></trkpt><trkpt lat="45.8285167" lon="13.6716585"><ele>305.0</ele><time>2026-04-06T16:00:00.967Z</time></trkpt><trkpt lat="45.828465" lon="13.6715147"><ele>305.0</ele><time>2026-04-06T16:00:02Z</time></trkpt><trkpt lat="45.8283983" lon="13.671374"><ele>303.4</ele><time>2026-04-06T16:00:02.967Z</time></trkpt><trkpt lat="45.8283328" lon="13.6712301"><ele>301.8</ele><time>2026-04-06T16:00:03.962Z</time></trkpt><trkpt lat="45.8282767" lon="13.6710845"><ele>300.2</ele><time>2026-04-06T16:00:04.967Z</time></trkpt><trkpt lat="45.8282488" lon="13.6709367"><ele>298.6</ele><time>2026-04-06T16:00:05.979Z</time></trkpt><trkpt lat="45.8282479" lon="13.6707929"><ele>297.0</ele><time>2026-04-06T16:00:06.976Z</time></trkpt><trkpt lat="45.8282817" lon="13.6706435"><ele>296.5</ele><time>2026-04-06T16:00:07.969Z</time></trkpt><trkpt lat="45.8283309" lon="13.6704874"><ele>296.0</ele><time>2026-04-06T16:00:08.968Z</time></trkpt><trkpt lat="45.828382" lon="13.6703325"><ele>295.5</ele><time>2026-04-06T16:00:09.968Z</time></trkpt><trkpt lat="45.8284213" lon="13.6701588"><ele>295.0</ele><time>2026-04-06T16:00:10.965Z</time></trkpt><trkpt lat="45.8284383" lon="13.6699648"><ele>294.0</ele><time>2026-04-06T16:00:11.957Z</time></trkpt><trkpt lat="45.8284523" lon="13.6697544"><ele>293.0</ele><time>2026-04-06T16:00:12.965Z</time></trkpt><trkpt lat="45.8284631" lon="13.6695366"><ele>292.0</ele><time>2026-04-06T16:00:13.963Z</time></trkpt><trkpt lat="45.828466" lon="13.6693224"><ele>291.0</ele><time>2026-04-06T16:00:14.965Z</time></trkpt><trkpt lat="45.8284638" lon="13.6691165"><ele>291.0</ele><time>2026-04-06T16:00:15.97Z</time></trkpt><trkpt lat="45.8284554" lon="13.6689234"><ele>291.0</ele><time>2026-04-06T16:00:16.99Z</time></trkpt><trkpt lat="45.8284427" lon="13.6687484"><ele>291.0</ele><time>2026-04-06T16:00:17.963Z</time></trkpt><trkpt lat="45.8284209" lon="13.6685956"><ele>291.0</ele><time>2026-04-06T16:00:18.966Z</time></trkpt><trkpt lat="45.8283936" lon="13.6684794"><ele>291.0</ele><time>2026-04-06T16:00:19.965Z</time></trkpt><trkpt lat="45.8283533" lon="13.6683117"><ele>291.0</ele><time>2026-04-06T16:00:21.975Z</time></trkpt><trkpt lat="45.8283024" lon="13.6682264"><ele>291.0</ele><time>2026-04-06T16:00:22.983Z</time></trkpt><trkpt lat="45.8282134" lon="13.6681549"><ele>291.0</ele><time>2026-04-06T16:00:23.962Z</time></trkpt><trkpt lat="45.828111" lon="13.6680672"><ele>291.0</ele><time>2026-04-06T16:00:24.96Z</time></trkpt><trkpt lat="45.8280113" lon="13.6679471"><ele>291.0</ele><time>2026-04-06T16:00:25.971Z</time></trkpt><trkpt lat="45.8279005" lon="13.667806"><ele>291.0</ele><time>2026-04-06T16:00:26.975Z</time></trkpt><trkpt lat="45.8277846" lon="13.6676741"><ele>291.0</ele><time>2026-04-06T16:00:27.967Z</time></trkpt><trkpt lat="45.8276595" lon="13.6675472"><ele>291.0</ele><time>2026-04-06T16:00:28.987Z</time></trkpt><trkpt lat="45.8275232" lon="13.6674279"><ele>290.75</ele><time>2026-04-06T16:00:29.972Z</time></trkpt><trkpt lat="45.8273902" lon="13.6673156"><ele>290.5</ele><time>2026-04-06T16:00:30.969Z</time></trkpt><trkpt lat="45.8272649" lon="13.6672077"><ele>290.25</ele><time>2026-04-06T16:00:31.974Z</time></trkpt><trkpt lat="45.8271384" lon="13.6671092"><ele>290.0</ele><time>2026-04-06T16:00:32.966Z</time></trkpt><trkpt lat="45.8270148" lon="13.6670124"><ele>290.25</ele><time>2026-04-06T16:00:33.971Z</time></trkpt><trkpt lat="45.8268914" lon="13.66691"><ele>290.5</ele><time>2026-04-06T16:00:35.007Z</time></trkpt><trkpt lat="45.8267723" lon="13.6668073"><ele>290.75</ele><time>2026-04-06T16:00:35.972Z</time></trkpt><trkpt lat="45.8266565" lon="13.6667112"><ele>291.0</ele><time>2026-04-06T16:00:36.97Z</time></trkpt><trkpt lat="45.826543" lon="13.6666213"><ele>291.0</ele><time>2026-04-06T16:00:37.972Z</time></trkpt><trkpt lat="45.8264369" lon="13.6665402"><ele>291.0</ele><time>2026-04-06T16:00:38.967Z</time></trkpt><trkpt lat="45.8263329" lon="13.6664739"><ele>291.0</ele><time>2026-04-06T16:00:39.976Z</time></trkpt><trkpt lat="45.826239" lon="13.6664068"><ele>291.0</ele><time>2026-04-06T16:00:40.963Z</time></trkpt><trkpt lat="45.8261645" lon="13.6663426"><ele>291.0</ele><time>2026-04-06T16:00:41.963Z</time></trkpt><trkpt lat="45.8260978" lon="13.6662779"><ele>291.0</ele><time>2026-04-06T16:00:42.966Z</time></trkpt><trkpt lat="45.8260366" lon="13.6662128"><ele>291.0</ele><time>2026-04-06T16:00:43.963Z</time></trkpt><trkpt lat="45.8259776" lon="13.6661432"><ele>291.0</ele><time>2026-04-06T16:00:44.97Z</time></trkpt><trkpt lat="45.8259149" lon="13.6660491"><ele>291.0</ele><time>2026-04-06T16:00:45.965Z</time></trkpt><trkpt lat="45.8258579" lon="13.6659306"><ele>291.0</ele><time>2026-04-06T16:00:46.987Z</time></trkpt><trkpt lat="45.825814" lon="13.6658119"><ele>291.0</ele><time>2026-04-06T16:00:47.964Z</time></trkpt><trkpt lat="45.8257802" lon="13.6657011"><ele>291.5</ele><time>2026-04-06T16:00:48.961Z</time></trkpt><trkpt lat="45.8257448" lon="13.6655953"><ele>292.0</ele><time>2026-04-06T16:00:49.969Z</time></trkpt><trkpt lat="45.8257112" lon="13.6655025"><ele>292.5</ele><time>2026-04-06T16:00:50.972Z</time></trkpt><trkpt lat="45.8256747" lon="13.6654073"><ele>293.0</ele><time>2026-04-06T16:00:51.975Z</time></trkpt><trkpt lat="45.8256301" lon="13.665306"><ele>293.5</ele><time>2026-04-06T16:00:52.971Z</time></trkpt><trkpt lat="45.8255761" lon="13.6651975"><ele>294.0</ele><time>2026-04-06T16:00:53.968Z</time></trkpt><trkpt lat="45.825519" lon="13.6650999"><ele>294.6666666666667</ele><time>2026-04-06T16:00:54.983Z</time></trkpt><trkpt lat="45.825461" lon="13.6650236"><ele>295.3333333333333</ele><time>2026-04-06T16:00:55.973Z</time></trkpt><trkpt lat="45.8253966" lon="13.6649552"><ele>296.0</ele><time>2026-04-06T16:00:56.968Z</time></trkpt><trkpt lat="45.8253136" lon="13.664903"><ele>296.66666666666663</ele><time>2026-04-06T16:00:57.975Z</time></trkpt><trkpt lat="45.8252492" lon="13.6648702"><ele>297.3333333333333</ele><time>2026-04-06T16:00:58.968Z</time></trkpt><trkpt lat="45.8251327" lon="13.6648141"><ele>298.0</ele><time>2026-04-06T16:01:00.976Z</time></trkpt><trkpt lat="45.8250159" lon="13.6647619"><ele>298.66666666666663</ele><time>2026-04-06T16:01:02.972Z</time></trkpt><trkpt lat="45.8249446" lon="13.6647346"><ele>299.3333333333333</ele><time>2026-04-06T16:01:03.966Z</time></trkpt><trkpt lat="45.824876" lon="13.6647011"><ele>300.0</ele><time>2026-04-06T16:01:04.97Z</time></trkpt><trkpt lat="45.8248089" lon="13.6646582"><ele>300.6666666666667</ele><time>2026-04-06T16:01:05.983Z</time></trkpt><trkpt lat="45.8247406" lon="13.6646106"><ele>301.33333333333337</ele><time>2026-04-06T16:01:06.967Z</time></trkpt><trkpt lat="45.8246787" lon="13.6645795"><ele>302.0</ele><time>2026-04-06T16:01:07.976Z</time></trkpt><trkpt lat="45.8245887" lon="13.6645778"><ele>302.0</ele><time>2026-04-06T16:01:08.974Z</time></trkpt><trkpt lat="45.8244903" lon="13.6645929"><ele>302.0</ele><time>2026-04-06T16:01:09.969Z</time></trkpt><trkpt lat="45.8244056" lon="13.6646084"><ele>302.0</ele><time>2026-04-06T16:01:10.962Z</time></trkpt><trkpt lat="45.8243302" lon="13.66464"><ele>302.0</ele><time>2026-04-06T16:01:11.972Z</time></trkpt><trkpt lat="45.8242716" lon="13.6647041"><ele>302.0</ele><time>2026-04-06T16:01:12.973Z</time></trkpt><trkpt lat="45.8242207" lon="13.6647893"><ele>302.0</ele><time>2026-04-06T16:01:13.971Z</time></trkpt><trkpt lat="45.8241715" lon="13.6649099"><ele>302.6</ele><time>2026-04-06T16:01:14.976Z</time></trkpt><trkpt lat="45.8241199" lon="13.6650283"><ele>303.2</ele><time>2026-04-06T16:01:15.968Z</time></trkpt><trkpt lat="45.8240596" lon="13.6651419"><ele>303.8</ele><time>2026-04-06T16:01:16.975Z</time></trkpt><trkpt lat="45.8239933" lon="13.6652565"><ele>304.4</ele><time>2026-04-06T16:01:17.97Z</time></trkpt><trkpt lat="45.8239249" lon="13.6653727"><ele>305.0</ele><time>2026-04-06T16:01:18.971Z</time></trkpt><trkpt lat="45.823851" lon="13.6654979"><ele>305.0</ele><time>2026-04-06T16:01:19.983Z</time></trkpt><trkpt lat="45.8237838" lon="13.6656225"><ele>305.0</ele><time>2026-04-06T16:01:20.983Z</time></trkpt><trkpt lat="45.8237131" lon="13.6657558"><ele>305.0</ele><time>2026-04-06T16:01:21.975Z</time></trkpt><trkpt lat="45.8236437" lon="13.6658844"><ele>305.0</ele><time>2026-04-06T16:01:22.982Z</time></trkpt><trkpt lat="45.8235786" lon="13.666014"><ele>304.75</ele><time>2026-04-06T16:01:23.966Z</time></trkpt><trkpt lat="45.8235124" lon="13.6661428"><ele>304.5</ele><time>2026-04-06T16:01:24.973Z</time></trkpt><trkpt lat="45.8234422" lon="13.6662708"><ele>304.25</ele><time>2026-04-06T16:01:25.976Z</time></trkpt><trkpt lat="45.8233722" lon="13.6664058"><ele>304.0</ele><time>2026-04-06T16:01:26.971Z</time></trkpt><trkpt lat="45.8232985" lon="13.666544"><ele>304.0</ele><time>2026-04-06T16:01:27.976Z</time></trkpt><trkpt lat="45.8232274" lon="13.6666742"><ele>304.0</ele><time>2026-04-06T16:01:28.981Z</time></trkpt><trkpt lat="45.8231628" lon="13.6667986"><ele>304.0</ele><time>2026-04-06T16:01:29.982Z</time></trkpt><trkpt lat="45.8230946" lon="13.666924"><ele>304.0</ele><time>2026-04-06T16:01:30.983Z</time></trkpt><trkpt lat="45.8230277" lon="13.6670421"><ele>304.0</ele><time>2026-04-06T16:01:31.982Z</time></trkpt><trkpt lat="45.8229632" lon="13.6671616"><ele>303.8</ele><time>2026-04-06T16:01:32.974Z</time></trkpt><trkpt lat="45.8229011" lon="13.6672627"><ele>303.59999999999997</ele><time>2026-04-06T16:01:33.98Z</time></trkpt><trkpt lat="45.8228345" lon="13.6673394"><ele>303.4</ele><time>2026-04-06T16:01:34.986Z</time></trkpt><trkpt lat="45.8227589" lon="13.6674008"><ele>303.2</ele><time>2026-04-06T16:01:35.984Z</time></trkpt><trkpt lat="45.8226647" lon="13.6674671"><ele>303.0</ele><time>2026-04-06T16:01:36.99Z</time></trkpt><trkpt lat="45.8225627" lon="13.6675494"><ele>303.0</ele><time>2026-04-06T16:01:37.983Z</time></trkpt><trkpt lat="45.8224503" lon="13.6676363"><ele>303.0</ele><time>2026-04-06T16:01:38.99Z</time></trkpt><trkpt lat="45.8223326" lon="13.6677212"><ele>303.0</ele><time>2026-04-06T16:01:39.988Z</time></trkpt><trkpt lat="45.8222167" lon="13.6678046"><ele>303.0</ele><time>2026-04-06T16:01:40.979Z</time></trkpt><trkpt lat="45.8221059" lon="13.6678824"><ele>301.0</ele><time>2026-04-06T16:01:41.975Z</time></trkpt><trkpt lat="45.8219922" lon="13.6679662"><ele>299.0</ele><time>2026-04-06T16:01:42.984Z</time></trkpt><trkpt lat="45.8218865" lon="13.6680664"><ele>297.0</ele><time>2026-04-06T16:01:43.973Z</time></trkpt><trkpt lat="45.8217867" lon="13.6681847"><ele>295.0</ele><time>2026-04-06T16:01:44.996Z</time></trkpt><trkpt lat="45.8217023" lon="13.6682999"><ele>294.8</ele><time>2026-04-06T16:01:45.978Z</time></trkpt><trkpt lat="45.8216332" lon="13.6684189"><ele>294.6</ele><time>2026-04-06T16:01:46.968Z</time></trkpt><trkpt lat="45.8215812" lon="13.6685592"><ele>294.4</ele><time>2026-04-06T16:01:47.973Z</time></trkpt><trkpt lat="45.8215307" lon="13.6686966"><ele>294.2</ele><time>2026-04-06T16:01:48.983Z</time></trkpt><trkpt lat="45.8214647" lon="13.6688222"><ele>294.0</ele><time>2026-04-06T16:01:49.991Z</time></trkpt><trkpt lat="45.8214002" lon="13.668926"><ele>293.8333333333333</ele><time>2026-04-06T16:01:50.98Z</time></trkpt><trkpt lat="45.821342" lon="13.6690172"><ele>293.6666666666667</ele><time>2026-04-06T16:01:51.976Z</time></trkpt><trkpt lat="45.8212814" lon="13.6690749"><ele>293.5</ele><time>2026-04-06T16:01:52.976Z</time></trkpt><trkpt lat="45.8212073" lon="13.6691083"><ele>293.33333333333337</ele><time>2026-04-06T16:01:53.972Z</time></trkpt><trkpt lat="45.8211281" lon="13.6691313"><ele>293.1666666666667</ele><time>2026-04-06T16:01:54.973Z</time></trkpt><trkpt lat="45.8210501" lon="13.6691404"><ele>293.0</ele><time>2026-04-06T16:01:55.987Z</time></trkpt><trkpt lat="45.8209666" lon="13.669156"><ele>292.2</ele><time>2026-04-06T16:01:56.984Z</time></trkpt><trkpt lat="45.8208777" lon="13.6691796"><ele>291.4</ele><time>2026-04-06T16:01:57.982Z</time></trkpt><trkpt lat="45.8207888" lon="13.6692103"><ele>290.59999999999997</ele><time>2026-04-06T16:01:58.981Z</time></trkpt><trkpt lat="45.8206993" lon="13.6692514"><ele>289.8</ele><time>2026-04-06T16:01:59.977Z</time></trkpt><trkpt lat="45.8206064" lon="13.66932"><ele>289.0</ele><time>2026-04-06T16:02:00.974Z</time></trkpt><trkpt lat="45.8205212" lon="13.6694111"><ele>288.16666666666663</ele><time>2026-04-06T16:02:01.969Z</time></trkpt><trkpt lat="45.8204412" lon="13.669496"><ele>287.3333333333333</ele><time>2026-04-06T16:02:02.973Z</time></trkpt><trkpt lat="45.8203666" lon="13.669571"><ele>286.5</ele><time>2026-04-06T16:02:03.982Z</time></trkpt><trkpt lat="45.8202925" lon="13.6696197"><ele>285.6666666666667</ele><time>2026-04-06T16:02:04.98Z</time></trkpt><trkpt lat="45.8202142" lon="13.6696504"><ele>284.83333333333337</ele><time>2026-04-06T16:02:05.984Z</time></trkpt><trkpt lat="45.8201326" lon="13.6696684"><ele>284.0</ele><time>2026-04-06T16:02:06.99Z</time></trkpt><trkpt lat="45.8200463" lon="13.6696626"><ele>283.8</ele><time>2026-04-06T16:02:07.985Z</time></trkpt><trkpt lat="45.8199611" lon="13.6696167"><ele>283.59999999999997</ele><time>2026-04-06T16:02:08.987Z</time></trkpt><trkpt lat="45.8198732" lon="13.6695578"><ele>283.4</ele><time>2026-04-06T16:02:09.992Z</time></trkpt><trkpt lat="45.8197773" lon="13.6695086"><ele>283.2</ele><time>2026-04-06T16:02:10.986Z</time></trkpt><trkpt lat="45.8196745" lon="13.6694701"><ele>283.0</ele><time>2026-04-06T16:02:11.98Z</time></trkpt><trkpt lat="45.8195733" lon="13.6694455"><ele>283.16666666666663</ele><time>2026-04-06T16:02:12.984Z</time></trkpt><trkpt lat="45.8194796" lon="13.6694109"><ele>283.3333333333333</ele><time>2026-04-06T16:02:13.975Z</time></trkpt><trkpt lat="45.8193955" lon="13.6693804"><ele>283.5</ele><time>2026-04-06T16:02:14.992Z</time></trkpt><trkpt lat="45.819316" lon="13.6693483"><ele>283.6666666666667</ele><time>2026-04-06T16:02:15.966Z</time></trkpt><trkpt lat="45.8192434" lon="13.669302"><ele>283.83333333333337</ele><time>2026-04-06T16:02:16.968Z</time></trkpt><trkpt lat="45.8191787" lon="13.6692406"><ele>284.0</ele><time>2026-04-06T16:02:17.963Z</time></trkpt><trkpt lat="45.8191246" lon="13.6691747"><ele>282.6666666666667</ele><time>2026-04-06T16:02:18.965Z</time></trkpt><trkpt lat="45.8190614" lon="13.6690619"><ele>281.33333333333337</ele><time>2026-04-06T16:02:20.966Z</time></trkpt><trkpt lat="45.8190398" lon="13.6689582"><ele>280.0</ele><time>2026-04-06T16:02:22.96Z</time></trkpt><trkpt lat="45.8189684" lon="13.6688811"><ele>278.6666666666667</ele><time>2026-04-06T16:02:25.962Z</time></trkpt><trkpt lat="45.8188969" lon="13.6688987"><ele>277.3333333333333</ele><time>2026-04-06T16:02:27.964Z</time></trkpt><trkpt lat="45.8188164" lon="13.6689037"><ele>276.0</ele><time>2026-04-06T16:02:29.969Z</time></trkpt><trkpt lat="45.8187769" lon="13.6688075"><ele>276.0</ele><time>2026-04-06T16:02:31.968Z</time></trkpt><trkpt lat="45.8187664" lon="13.6687173"><ele>276.0</ele><time>2026-04-06T16:02:32.957Z</time></trkpt><trkpt lat="45.8187463" lon="13.6686195"><ele>276.0</ele><time>2026-04-06T16:02:33.97Z</time></trkpt><trkpt lat="45.8187203" lon="13.6685214"><ele>276.0</ele><time>2026-04-06T16:02:34.97Z</time></trkpt><trkpt lat="45.8186947" lon="13.6684248"><ele>276.0</ele><time>2026-04-06T16:02:35.963Z</time></trkpt><trkpt lat="45.8186803" lon="13.6683325"><ele>276.0</ele><time>2026-04-06T16:02:36.98Z</time></trkpt><trkpt lat="45.8186794" lon="13.6681664"><ele>276.0</ele><time>2026-04-06T16:02:38.967Z</time></trkpt><trkpt lat="45.818685" lon="13.6680702"><ele>276.0</ele><time>2026-04-06T16:02:39.962Z</time></trkpt><trkpt lat="45.818704" lon="13.6679638"><ele>276.0</ele><time>2026-04-06T16:02:40.969Z</time></trkpt><trkpt lat="45.818728" lon="13.6678487"><ele>276.0</ele><time>2026-04-06T16:02:41.967Z</time></trkpt><trkpt lat="45.8187493" lon="13.6677287"><ele>276.0</ele><time>2026-04-06T16:02:42.962Z</time></trkpt><trkpt lat="45.8187616" lon="13.6676161"><ele>276.0</ele><time>2026-04-06T16:02:43.962Z</time></trkpt><trkpt lat="45.8187657" lon="13.667499"><ele>274.1666666666667</ele><time>2026-04-06T16:02:44.961Z</time></trkpt><trkpt lat="45.8187569" lon="13.6673857"><ele>272.3333333333333</ele><time>2026-04-06T16:02:45.959Z</time></trkpt><trkpt lat="45.8187446" lon="13.6672685"><ele>270.5</ele><time>2026-04-06T16:02:46.953Z</time></trkpt><trkpt lat="45.8187286" lon="13.6671557"><ele>268.66666666666663</ele><time>2026-04-06T16:02:47.953Z</time></trkpt><trkpt lat="45.8186961" lon="13.667041"><ele>266.8333333333333</ele><time>2026-04-06T16:02:48.969Z</time></trkpt><trkpt lat="45.8186521" lon="13.6669262"><ele>265.0</ele><time>2026-04-06T16:02:49.961Z</time></trkpt><trkpt lat="45.8186128" lon="13.6668163"><ele>264.0</ele><time>2026-04-06T16:02:50.965Z</time></trkpt><trkpt lat="45.8185817" lon="13.6667029"><ele>263.0</ele><time>2026-04-06T16:02:51.959Z</time></trkpt><trkpt lat="45.8185554" lon="13.6665863"><ele>262.0</ele><time>2026-04-06T16:02:52.961Z</time></trkpt><trkpt lat="45.8185216" lon="13.6664645"><ele>261.0</ele><time>2026-04-06T16:02:53.958Z</time></trkpt><trkpt lat="45.8184918" lon="13.6663481"><ele>260.0</ele><time>2026-04-06T16:02:54.959Z</time></trkpt><trkpt lat="45.8184637" lon="13.6662347"><ele>259.0</ele><time>2026-04-06T16:02:55.963Z</time></trkpt><trkpt lat="45.8184361" lon="13.6661179"><ele>253.49999999999997</ele><time>2026-04-06T16:02:56.953Z</time></trkpt><trkpt lat="45.8184124" lon="13.666004"><ele>248.0</ele><time>2026-04-06T16:02:57.952Z</time></trkpt><trkpt lat="45.8183835" lon="13.6658927"><ele>242.5</ele><time>2026-04-06T16:02:58.959Z</time></trkpt><trkpt lat="45.8183438" lon="13.6657768"><ele>237.0</ele><time>2026-04-06T16:02:59.964Z</time></trkpt><trkpt lat="45.818294" lon="13.6656642"><ele>231.49999999999997</ele><time>2026-04-06T16:03:00.954Z</time></trkpt><trkpt lat="45.8182402" lon="13.6655635"><ele>226.0</ele><time>2026-04-06T16:03:01.966Z</time></trkpt><trkpt lat="45.818184" lon="13.6654615"><ele>226.0</ele><time>2026-04-06T16:03:02.962Z</time></trkpt><trkpt lat="45.8181258" lon="13.6653508"><ele>226.00000000000003</ele><time>2026-04-06T16:03:03.962Z</time></trkpt><trkpt lat="45.8180631" lon="13.6652309"><ele>226.00000000000003</ele><time>2026-04-06T16:03:04.958Z</time></trkpt><trkpt lat="45.8180085" lon="13.6651141"><ele>226.0</ele><time>2026-04-06T16:03:05.96Z</time></trkpt><trkpt lat="45.8179541" lon="13.6649981"><ele>226.0</ele><time>2026-04-06T16:03:06.96Z</time></trkpt><trkpt lat="45.8178995" lon="13.6648754"><ele>225.8</ele><time>2026-04-06T16:03:07.958Z</time></trkpt><trkpt lat="45.8178507" lon="13.664752"><ele>225.60000000000002</ele><time>2026-04-06T16:03:08.982Z</time></trkpt><trkpt lat="45.8178045" lon="13.6646249"><ele>225.4</ele><time>2026-04-06T16:03:09.96Z</time></trkpt><trkpt lat="45.8177563" lon="13.6644961"><ele>225.2</ele><time>2026-04-06T16:03:10.964Z</time></trkpt><trkpt lat="45.817707" lon="13.6643698"><ele>225.0</ele><time>2026-04-06T16:03:11.966Z</time></trkpt><trkpt lat="45.8176625" lon="13.6642473"><ele>221.4</ele><time>2026-04-06T16:03:12.97Z</time></trkpt><trkpt lat="45.8176189" lon="13.6641306"><ele>217.8</ele><time>2026-04-06T16:03:13.968Z</time></trkpt><trkpt lat="45.8175765" lon="13.6640068"><ele>214.2</ele><time>2026-04-06T16:03:14.965Z</time></trkpt><trkpt lat="45.8175332" lon="13.6638785"><ele>210.6</ele><time>2026-04-06T16:03:15.969Z</time></trkpt><trkpt lat="45.8174829" lon="13.663744"><ele>207.0</ele><time>2026-04-06T16:03:16.971Z</time></trkpt><trkpt lat="45.8174382" lon="13.6636027"><ele>207.0</ele><time>2026-04-06T16:03:17.973Z</time></trkpt><trkpt lat="45.8174067" lon="13.663457"><ele>207.0</ele><time>2026-04-06T16:03:18.971Z</time></trkpt><trkpt lat="45.8173788" lon="13.6633043"><ele>207.0</ele><time>2026-04-06T16:03:19.959Z</time></trkpt><trkpt lat="45.8173558" lon="13.663153"><ele>207.0</ele><time>2026-04-06T16:03:20.968Z</time></trkpt><trkpt lat="45.8173325" lon="13.6630112"><ele>207.0</ele><time>2026-04-06T16:03:21.965Z</time></trkpt><trkpt lat="45.8173198" lon="13.6628768"><ele>207.2</ele><time>2026-04-06T16:03:22.969Z</time></trkpt><trkpt lat="45.8173224" lon="13.6627502"><ele>207.39999999999998</ele><time>2026-04-06T16:03:23.964Z</time></trkpt><trkpt lat="45.817347" lon="13.6626156"><ele>207.60000000000002</ele><time>2026-04-06T16:03:24.967Z</time></trkpt><trkpt lat="45.8174007" lon="13.6624818"><ele>207.8</ele><time>2026-04-06T16:03:25.963Z</time></trkpt><trkpt lat="45.817466" lon="13.6623712"><ele>208.0</ele><time>2026-04-06T16:03:26.975Z</time></trkpt><trkpt lat="45.8175128" lon="13.6622834"><ele>208.0</ele><time>2026-04-06T16:03:27.965Z</time></trkpt><trkpt lat="45.8175069" lon="13.6621744"><ele>208.0</ele><time>2026-04-06T16:03:29.966Z</time></trkpt><trkpt lat="45.8173729" lon="13.6621428"><ele>208.0</ele><time>2026-04-06T16:03:31.964Z</time></trkpt><trkpt lat="45.8172791" lon="13.6621423"><ele>208.0</ele><time>2026-04-06T16:03:32.954Z</time></trkpt><trkpt lat="45.8171778" lon="13.6621153"><ele>208.0</ele><time>2026-04-06T16:03:33.958Z</time></trkpt><trkpt lat="45.8170667" lon="13.6620627"><ele>208.0</ele><time>2026-04-06T16:03:34.959Z</time></trkpt><trkpt lat="45.816957" lon="13.6620015"><ele>208.0</ele><time>2026-04-06T16:03:35.962Z</time></trkpt><trkpt lat="45.8168559" lon="13.6619443"><ele>208.0</ele><time>2026-04-06T16:03:36.969Z</time></trkpt><trkpt lat="45.8167544" lon="13.661902"><ele>208.0</ele><time>2026-04-06T16:03:37.969Z</time></trkpt><trkpt lat="45.8166518" lon="13.661863"><ele>208.0</ele><time>2026-04-06T16:03:38.964Z</time></trkpt><trkpt lat="45.8165513" lon="13.6618174"><ele>205.60000000000002</ele><time>2026-04-06T16:03:39.972Z</time></trkpt><trkpt lat="45.8164563" lon="13.6617632"><ele>203.20000000000002</ele><time>2026-04-06T16:03:40.969Z</time></trkpt><trkpt lat="45.8163674" lon="13.6616857"><ele>200.8</ele><time>2026-04-06T16:03:41.982Z</time></trkpt><trkpt lat="45.8162761" lon="13.6615952"><ele>198.4</ele><time>2026-04-06T16:03:42.968Z</time></trkpt><trkpt lat="45.8161848" lon="13.6615126"><ele>196.0</ele><time>2026-04-06T16:03:43.967Z</time></trkpt><trkpt lat="45.8160888" lon="13.6614362"><ele>196.0</ele><time>2026-04-06T16:03:44.969Z</time></trkpt><trkpt lat="45.8159965" lon="13.6613734"><ele>196.0</ele><time>2026-04-06T16:03:45.971Z</time></trkpt><trkpt lat="45.8159011" lon="13.6613121"><ele>196.0</ele><time>2026-04-06T16:03:46.975Z</time></trkpt><trkpt lat="45.815807" lon="13.6612414"><ele>196.0</ele><time>2026-04-06T16:03:47.97Z</time></trkpt><trkpt lat="45.8157248" lon="13.6611518"><ele>196.0</ele><time>2026-04-06T16:03:48.974Z</time></trkpt><trkpt lat="45.8156579" lon="13.6610536"><ele>194.4</ele><time>2026-04-06T16:03:49.963Z</time></trkpt><trkpt lat="45.8156053" lon="13.6609666"><ele>192.8</ele><time>2026-04-06T16:03:50.973Z</time></trkpt><trkpt lat="45.8155515" lon="13.6609094"><ele>191.20000000000002</ele><time>2026-04-06T16:03:51.974Z</time></trkpt><trkpt lat="45.8154407" lon="13.660877"><ele>189.60000000000002</ele><time>2026-04-06T16:03:53.971Z</time></trkpt><trkpt lat="45.8153456" lon="13.6609753"><ele>188.0</ele><time>2026-04-06T16:03:55.971Z</time></trkpt><trkpt lat="45.8153084" lon="13.6611213"><ele>186.66666666666666</ele><time>2026-04-06T16:03:57.972Z</time></trkpt><trkpt lat="45.815296" lon="13.661242"><ele>185.33333333333331</ele><time>2026-04-06T16:03:58.967Z</time></trkpt><trkpt lat="45.8152851" lon="13.6613747"><ele>184.0</ele><time>2026-04-06T16:03:59.982Z</time></trkpt><trkpt lat="45.8152729" lon="13.661499"><ele>182.66666666666666</ele><time>2026-04-06T16:04:00.973Z</time></trkpt><trkpt lat="45.8152615" lon="13.6616229"><ele>181.33333333333334</ele><time>2026-04-06T16:04:01.972Z</time></trkpt><trkpt lat="45.8152428" lon="13.6617423"><ele>180.0</ele><time>2026-04-06T16:04:02.969Z</time></trkpt><trkpt lat="45.8152237" lon="13.6618361"><ele>178.4</ele><time>2026-04-06T16:04:03.976Z</time></trkpt><trkpt lat="45.8151756" lon="13.6619575"><ele>176.8</ele><time>2026-04-06T16:04:05.975Z</time></trkpt><trkpt lat="45.8151034" lon="13.6620067"><ele>175.2</ele><time>2026-04-06T16:04:07.974Z</time></trkpt><trkpt lat="45.8149975" lon="13.6619666"><ele>173.6</ele><time>2026-04-06T16:04:09.966Z</time></trkpt><trkpt lat="45.8148934" lon="13.661908"><ele>172.0</ele><time>2026-04-06T16:04:10.973Z</time></trkpt><trkpt lat="45.8147704" lon="13.6618453"><ele>169.5</ele><time>2026-04-06T16:04:11.969Z</time></trkpt><trkpt lat="45.8146409" lon="13.6617848"><ele>167.0</ele><time>2026-04-06T16:04:12.973Z</time></trkpt><trkpt lat="45.8145158" lon="13.6617336"><ele>164.5</ele><time>2026-04-06T16:04:13.97Z</time></trkpt><trkpt lat="45.8144137" lon="13.6616986"><ele>162.0</ele><time>2026-04-06T16:04:14.975Z</time></trkpt><trkpt lat="45.8143303" lon="13.6616846"><ele>158.79999999999998</ele><time>2026-04-06T16:04:15.966Z</time></trkpt><trkpt lat="45.814257" lon="13.6616993"><ele>155.6</ele><time>2026-04-06T16:04:16.971Z</time></trkpt><trkpt lat="45.8141865" lon="13.6617538"><ele>152.39999999999998</ele><time>2026-04-06T16:04:17.973Z</time></trkpt><trkpt lat="45.8141126" lon="13.6618517"><ele>149.2</ele><time>2026-04-06T16:04:18.969Z</time></trkpt><trkpt lat="45.8140172" lon="13.6619625"><ele>146.0</ele><time>2026-04-06T16:04:19.966Z</time></trkpt><trkpt lat="45.8139042" lon="13.6620516"><ele>144.75</ele><time>2026-04-06T16:04:20.986Z</time></trkpt><trkpt lat="45.8137771" lon="13.6621176"><ele>143.5</ele><time>2026-04-06T16:04:21.967Z</time></trkpt><trkpt lat="45.8136697" lon="13.6621802"><ele>142.25</ele><time>2026-04-06T16:04:22.976Z</time></trkpt><trkpt lat="45.8135807" lon="13.6622425"><ele>141.0</ele><time>2026-04-06T16:04:23.969Z</time></trkpt><trkpt lat="45.8135135" lon="13.6623588"><ele>138.4</ele><time>2026-04-06T16:04:24.976Z</time></trkpt><trkpt lat="45.8134581" lon="13.6624898"><ele>135.8</ele><time>2026-04-06T16:04:25.961Z</time></trkpt><trkpt lat="45.8134057" lon="13.6626219"><ele>133.20000000000002</ele><time>2026-04-06T16:04:26.976Z</time></trkpt><trkpt lat="45.8133523" lon="13.6627537"><ele>130.6</ele><time>2026-04-06T16:04:27.962Z</time></trkpt><trkpt lat="45.8133062" lon="13.6628835"><ele>128.0</ele><time>2026-04-06T16:04:28.972Z</time></trkpt><trkpt lat="45.8132695" lon="13.6630053"><ele>127.49999999999999</ele><time>2026-04-06T16:04:29.973Z</time></trkpt><trkpt lat="45.8132352" lon="13.663094"><ele>127.0</ele><time>2026-04-06T16:04:30.97Z</time></trkpt><trkpt lat="45.8131796" lon="13.6631893"><ele>126.5</ele><time>2026-04-06T16:04:32.992Z</time></trkpt><trkpt lat="45.8131516" lon="13.6633229"><ele>126.0</ele><time>2026-04-06T16:04:34.973Z</time></trkpt><trkpt lat="45.813156" lon="13.663445"><ele>125.49999999999999</ele><time>2026-04-06T16:04:35.973Z</time></trkpt><trkpt lat="45.8131567" lon="13.6636005"><ele>125.0</ele><time>2026-04-06T16:04:36.968Z</time></trkpt><trkpt lat="45.8131543" lon="13.6637807"><ele>125.0</ele><time>2026-04-06T16:04:37.969Z</time></trkpt><trkpt lat="45.8131487" lon="13.6639767"><ele>125.0</ele><time>2026-04-06T16:04:38.966Z</time></trkpt><trkpt lat="45.8131442" lon="13.6641941"><ele>125.0</ele><time>2026-04-06T16:04:39.965Z</time></trkpt><trkpt lat="45.813133" lon="13.6644244"><ele>125.0</ele><time>2026-04-06T16:04:40.972Z</time></trkpt><trkpt lat="45.8131073" lon="13.6646685"><ele>125.0</ele><time>2026-04-06T16:04:41.968Z</time></trkpt><trkpt lat="45.8130741" lon="13.6649171"><ele>125.0</ele><time>2026-04-06T16:04:42.974Z</time></trkpt><trkpt lat="45.8130416" lon="13.6651509"><ele>125.0</ele><time>2026-04-06T16:04:43.971Z</time></trkpt><trkpt lat="45.8130175" lon="13.6653736"><ele>125.0</ele><time>2026-04-06T16:04:44.971Z</time></trkpt><trkpt lat="45.8130021" lon="13.6655835"><ele>125.0</ele><time>2026-04-06T16:04:45.972Z</time></trkpt><trkpt lat="45.8129883" lon="13.6657835"><ele>125.0</ele><time>2026-04-06T16:04:46.977Z</time></trkpt><trkpt lat="45.8129769" lon="13.6659858"><ele>125.0</ele><time>2026-04-06T16:04:47.97Z</time></trkpt><trkpt lat="45.8129755" lon="13.6662022"><ele>123.0</ele><time>2026-04-06T16:04:48.984Z</time></trkpt><trkpt lat="45.8129829" lon="13.666431"><ele>121.0</ele><time>2026-04-06T16:04:49.971Z</time></trkpt><trkpt lat="45.8130011" lon="13.6666678"><ele>119.0</ele><time>2026-04-06T16:04:50.98Z</time></trkpt><trkpt lat="45.8130188" lon="13.6668914"><ele>118.0</ele><time>2026-04-06T16:04:51.979Z</time></trkpt><trkpt lat="45.8130353" lon="13.6670988"><ele>117.0</ele><time>2026-04-06T16:04:52.98Z</time></trkpt><trkpt lat="45.8130504" lon="13.6673094"><ele>116.0</ele><time>2026-04-06T16:04:53.974Z</time></trkpt><trkpt lat="45.8130672" lon="13.6675238"><ele>115.0</ele><time>2026-04-06T16:04:54.995Z</time></trkpt><trkpt lat="45.8130742" lon="13.6677517"><ele>115.33333333333334</ele><time>2026-04-06T16:04:55.975Z</time></trkpt><trkpt lat="45.8130767" lon="13.6679893"><ele>115.66666666666666</ele><time>2026-04-06T16:04:56.979Z</time></trkpt><trkpt lat="45.8130755" lon="13.6682144"><ele>116.0</ele><time>2026-04-06T16:04:57.978Z</time></trkpt><trkpt lat="45.8130656" lon="13.6684339"><ele>116.0</ele><time>2026-04-06T16:04:58.972Z</time></trkpt><trkpt lat="45.8130405" lon="13.668634"><ele>116.0</ele><time>2026-04-06T16:04:59.972Z</time></trkpt><trkpt lat="45.8130007" lon="13.6688113"><ele>116.0</ele><time>2026-04-06T16:05:00.976Z</time></trkpt><trkpt lat="45.812959" lon="13.6689702"><ele>116.0</ele><time>2026-04-06T16:05:01.983Z</time></trkpt><trkpt lat="45.8129249" lon="13.6690966"><ele>116.0</ele><time>2026-04-06T16:05:02.978Z</time></trkpt><trkpt lat="45.8128938" lon="13.6692106"><ele>116.0</ele><time>2026-04-06T16:05:03.977Z</time></trkpt><trkpt lat="45.8128698" lon="13.6693128"><ele>116.0</ele><time>2026-04-06T16:05:04.978Z</time></trkpt><trkpt lat="45.8128403" lon="13.6694573"><ele>116.0</ele><time>2026-04-06T16:05:06.983Z</time></trkpt><trkpt lat="45.8127062" lon="13.669425"><ele>116.0</ele><time>2026-04-06T16:05:09.966Z</time></trkpt><trkpt lat="45.8126127" lon="13.6693883"><ele>114.75</ele><time>2026-04-06T16:05:10.97Z</time></trkpt><trkpt lat="45.8125122" lon="13.6693492"><ele>113.5</ele><time>2026-04-06T16:05:11.977Z</time></trkpt><trkpt lat="45.812393" lon="13.6693005"><ele>112.25</ele><time>2026-04-06T16:05:12.977Z</time></trkpt><trkpt lat="45.8122686" lon="13.6692471"><ele>111.0</ele><time>2026-04-06T16:05:13.967Z</time></trkpt><trkpt lat="45.812143" lon="13.6691897"><ele>111.0</ele><time>2026-04-06T16:05:14.972Z</time></trkpt><trkpt lat="45.8120207" lon="13.6691299"><ele>111.0</ele><time>2026-04-06T16:05:15.974Z</time></trkpt><trkpt lat="45.8118921" lon="13.6690725"><ele>111.0</ele><time>2026-04-06T16:05:16.976Z</time></trkpt><trkpt lat="45.8117665" lon="13.6690223"><ele>111.0</ele><time>2026-04-06T16:05:17.97Z</time></trkpt><trkpt lat="45.8116524" lon="13.6689792"><ele>110.4</ele><time>2026-04-06T16:05:18.974Z</time></trkpt><trkpt lat="45.8115426" lon="13.6689442"><ele>109.8</ele><time>2026-04-06T16:05:19.971Z</time></trkpt><trkpt lat="45.8114324" lon="13.6689156"><ele>109.20000000000002</ele><time>2026-04-06T16:05:20.999Z</time></trkpt><trkpt lat="45.8113264" lon="13.6689022"><ele>108.60000000000001</ele><time>2026-04-06T16:05:21.968Z</time></trkpt><trkpt lat="45.8112313" lon="13.668886"><ele>108.0</ele><time>2026-04-06T16:05:22.985Z</time></trkpt><trkpt lat="45.8111306" lon="13.6688532"><ele>108.0</ele><time>2026-04-06T16:05:23.971Z</time></trkpt><trkpt lat="45.8110265" lon="13.6688157"><ele>108.00000000000001</ele><time>2026-04-06T16:05:24.979Z</time></trkpt><trkpt lat="45.8109184" lon="13.6687859"><ele>108.00000000000001</ele><time>2026-04-06T16:05:25.973Z</time></trkpt><trkpt lat="45.8107981" lon="13.6687598"><ele>108.0</ele><time>2026-04-06T16:05:26.975Z</time></trkpt><trkpt lat="45.8106887" lon="13.6687422"><ele>108.0</ele><time>2026-04-06T16:05:27.974Z</time></trkpt><trkpt lat="45.8105827" lon="13.6687241"><ele>108.0</ele><time>2026-04-06T16:05:28.974Z</time></trkpt><trkpt lat="45.8104748" lon="13.6687"><ele>108.00000000000001</ele><time>2026-04-06T16:05:29.974Z</time></trkpt><trkpt lat="45.8103617" lon="13.6686877"><ele>108.00000000000001</ele><time>2026-04-06T16:05:30.98Z</time></trkpt><trkpt lat="45.8102483" lon="13.6686819"><ele>108.0</ele><time>2026-04-06T16:05:31.987Z</time></trkpt><trkpt lat="45.8101447" lon="13.6686798"><ele>108.0</ele><time>2026-04-06T16:05:32.972Z</time></trkpt><trkpt lat="45.8100493" lon="13.6686952"><ele>108.0</ele><time>2026-04-06T16:05:33.978Z</time></trkpt><trkpt lat="45.8099559" lon="13.6687189"><ele>108.00000000000001</ele><time>2026-04-06T16:05:34.983Z</time></trkpt><trkpt lat="45.809872" lon="13.668743"><ele>108.00000000000001</ele><time>2026-04-06T16:05:35.973Z</time></trkpt><trkpt lat="45.809807" lon="13.668773"><ele>108.0</ele><time>2026-04-06T16:05:36.977Z</time></trkpt><trkpt lat="45.8097317" lon="13.6688613"><ele>108.0</ele><time>2026-04-06T16:05:38.982Z</time></trkpt><trkpt lat="45.8097137" lon="13.6690332"><ele>108.0</ele><time>2026-04-06T16:05:40.978Z</time></trkpt><trkpt lat="45.8097013" lon="13.6691792"><ele>108.00000000000001</ele><time>2026-04-06T16:05:41.969Z</time></trkpt><trkpt lat="45.8096807" lon="13.6693508"><ele>108.00000000000001</ele><time>2026-04-06T16:05:42.978Z</time></trkpt><trkpt lat="45.8096607" lon="13.6695099"><ele>108.0</ele><time>2026-04-06T16:05:43.969Z</time></trkpt><trkpt lat="45.8096273" lon="13.6696498"><ele>108.0</ele><time>2026-04-06T16:05:44.973Z</time></trkpt><trkpt lat="45.8095854" lon="13.6697705"><ele>108.0</ele><time>2026-04-06T16:05:45.97Z</time></trkpt><trkpt lat="45.809542" lon="13.6698433"><ele>108.0</ele><time>2026-04-06T16:05:46.976Z</time></trkpt><trkpt lat="45.8094419" lon="13.6699165"><ele>108.0</ele><time>2026-04-06T16:05:48.969Z</time></trkpt><trkpt lat="45.8093821" lon="13.6699719"><ele>108.0</ele><time>2026-04-06T16:05:49.974Z</time></trkpt><trkpt lat="45.8093184" lon="13.670027"><ele>108.0</ele><time>2026-04-06T16:05:50.977Z</time></trkpt><trkpt lat="45.8092552" lon="13.6700509"><ele>108.0</ele><time>2026-04-06T16:05:51.972Z</time></trkpt><trkpt lat="45.8091288" lon="13.6700419"><ele>106.80000000000001</ele><time>2026-04-06T16:05:53.968Z</time></trkpt><trkpt lat="45.8090514" lon="13.6700499"><ele>105.60000000000001</ele><time>2026-04-06T16:05:54.977Z</time></trkpt><trkpt lat="45.8089698" lon="13.670057"><ele>104.4</ele><time>2026-04-06T16:05:55.986Z</time></trkpt><trkpt lat="45.8088723" lon="13.6700556"><ele>103.19999999999999</ele><time>2026-04-06T16:05:56.986Z</time></trkpt><trkpt lat="45.8087623" lon="13.6700537"><ele>102.0</ele><time>2026-04-06T16:05:57.985Z</time></trkpt><trkpt lat="45.8086524" lon="13.6700552"><ele>102.0</ele><time>2026-04-06T16:05:58.982Z</time></trkpt><trkpt lat="45.8085568" lon="13.6700631"><ele>102.0</ele><time>2026-04-06T16:05:59.974Z</time></trkpt><trkpt lat="45.8084763" lon="13.6700735"><ele>102.0</ele><time>2026-04-06T16:06:00.982Z</time></trkpt><trkpt lat="45.8083985" lon="13.6701071"><ele>102.0</ele><time>2026-04-06T16:06:01.978Z</time></trkpt><trkpt lat="45.8083217" lon="13.6701532"><ele>102.0</ele><time>2026-04-06T16:06:02.97Z</time></trkpt><trkpt lat="45.8082572" lon="13.6701718"><ele>102.0</ele><time>2026-04-06T16:06:03.986Z</time></trkpt><trkpt lat="45.8081376" lon="13.6701183"><ele>100.83333333333333</ele><time>2026-04-06T16:06:05.975Z</time></trkpt><trkpt lat="45.8080658" lon="13.6700968"><ele>99.66666666666667</ele><time>2026-04-06T16:06:06.974Z</time></trkpt><trkpt lat="45.8079846" lon="13.6700909"><ele>98.5</ele><time>2026-04-06T16:06:07.967Z</time></trkpt><trkpt lat="45.8079122" lon="13.6700745"><ele>97.33333333333334</ele><time>2026-04-06T16:06:08.983Z</time></trkpt><trkpt lat="45.807835" lon="13.6700673"><ele>96.16666666666667</ele><time>2026-04-06T16:06:09.973Z</time></trkpt><trkpt lat="45.8077418" lon="13.6700776"><ele>95.0</ele><time>2026-04-06T16:06:10.984Z</time></trkpt><trkpt lat="45.8076435" lon="13.6700881"><ele>93.4</ele><time>2026-04-06T16:06:11.981Z</time></trkpt><trkpt lat="45.807546" lon="13.6700885"><ele>91.8</ele><time>2026-04-06T16:06:12.993Z</time></trkpt><trkpt lat="45.8074595" lon="13.670047"><ele>90.19999999999999</ele><time>2026-04-06T16:06:13.975Z</time></trkpt><trkpt lat="45.807368" lon="13.6699989"><ele>88.6</ele><time>2026-04-06T16:06:14.967Z</time></trkpt><trkpt lat="45.8072681" lon="13.6699596"><ele>87.0</ele><time>2026-04-06T16:06:15.97Z</time></trkpt><trkpt lat="45.8071869" lon="13.6699377"><ele>87.0</ele><time>2026-04-06T16:06:16.977Z</time></trkpt><trkpt lat="45.8071214" lon="13.6699502"><ele>87.0</ele><time>2026-04-06T16:06:17.984Z</time></trkpt><trkpt lat="45.807064" lon="13.6700019"><ele>87.0</ele><time>2026-04-06T16:06:18.976Z</time></trkpt><trkpt lat="45.8069927" lon="13.6700636"><ele>87.0</ele><time>2026-04-06T16:06:19.981Z</time></trkpt><trkpt lat="45.8069067" lon="13.6701335"><ele>87.0</ele><time>2026-04-06T16:06:20.984Z</time></trkpt><trkpt lat="45.8068119" lon="13.6701936"><ele>87.0</ele><time>2026-04-06T16:06:21.98Z</time></trkpt><trkpt lat="45.8067136" lon="13.6702388"><ele>87.0</ele><time>2026-04-06T16:06:22.983Z</time></trkpt><trkpt lat="45.8066213" lon="13.670273"><ele>87.0</ele><time>2026-04-06T16:06:23.975Z</time></trkpt><trkpt lat="45.8065364" lon="13.6703035"><ele>87.0</ele><time>2026-04-06T16:06:24.984Z</time></trkpt><trkpt lat="45.8064693" lon="13.6703707"><ele>87.0</ele><time>2026-04-06T16:06:25.982Z</time></trkpt><trkpt lat="45.8064133" lon="13.6704661"><ele>87.0</ele><time>2026-04-06T16:06:26.97Z</time></trkpt><trkpt lat="45.8063771" lon="13.6705831"><ele>87.0</ele><time>2026-04-06T16:06:27.966Z</time></trkpt><trkpt lat="45.8063421" lon="13.670719"><ele>87.8</ele><time>2026-04-06T16:06:28.973Z</time></trkpt><trkpt lat="45.8063057" lon="13.6708615"><ele>88.6</ele><time>2026-04-06T16:06:29.979Z</time></trkpt><trkpt lat="45.8062666" lon="13.6709861"><ele>89.39999999999999</ele><time>2026-04-06T16:06:30.978Z</time></trkpt><trkpt lat="45.8062308" lon="13.671083"><ele>90.19999999999999</ele><time>2026-04-06T16:06:31.972Z</time></trkpt><trkpt lat="45.8061394" lon="13.6711867"><ele>91.0</ele><time>2026-04-06T16:06:33.977Z</time></trkpt><trkpt lat="45.806051" lon="13.6713074"><ele>91.33333333333333</ele><time>2026-04-06T16:06:35.971Z</time></trkpt><trkpt lat="45.8060118" lon="13.6714131"><ele>91.66666666666666</ele><time>2026-04-06T16:06:36.976Z</time></trkpt><trkpt lat="45.8059469" lon="13.6714958"><ele>92.0</ele><time>2026-04-06T16:06:37.991Z</time></trkpt><trkpt lat="45.8058829" lon="13.671577"><ele>92.33333333333333</ele><time>2026-04-06T16:06:38.97Z</time></trkpt><trkpt lat="45.8058327" lon="13.671685"><ele>92.66666666666667</ele><time>2026-04-06T16:06:39.994Z</time></trkpt><trkpt lat="45.8057856" lon="13.6718107"><ele>93.0</ele><time>2026-04-06T16:06:40.978Z</time></trkpt><trkpt lat="45.8057511" lon="13.6719296"><ele>93.2</ele><time>2026-04-06T16:06:41.984Z</time></trkpt><trkpt lat="45.8057307" lon="13.6720485"><ele>93.4</ele><time>2026-04-06T16:06:42.973Z</time></trkpt><trkpt lat="45.8057412" lon="13.6721843"><ele>93.60000000000001</ele><time>2026-04-06T16:06:43.97Z</time></trkpt><trkpt lat="45.8057632" lon="13.6723006"><ele>93.80000000000001</ele><time>2026-04-06T16:06:44.964Z</time></trkpt><trkpt lat="45.80577" lon="13.6723934"><ele>94.0</ele><time>2026-04-06T16:06:45.973Z</time></trkpt><trkpt lat="45.805695" lon="13.6725475"><ele>94.0</ele><time>2026-04-06T16:06:47.972Z</time></trkpt><trkpt lat="45.8056409" lon="13.6725995"><ele>94.0</ele><time>2026-04-06T16:06:48.978Z</time></trkpt><trkpt lat="45.8055824" lon="13.67265"><ele>94.0</ele><time>2026-04-06T16:06:49.968Z</time></trkpt><trkpt lat="45.8055273" lon="13.67272"><ele>94.0</ele><time>2026-04-06T16:06:50.985Z</time></trkpt><trkpt lat="45.8055166" lon="13.6729184"><ele>94.0</ele><time>2026-04-06T16:06:52.967Z</time></trkpt><trkpt lat="45.8055247" lon="13.6730403"><ele>94.0</ele><time>2026-04-06T16:06:53.974Z</time></trkpt><trkpt lat="45.8055114" lon="13.6731533"><ele>94.0</ele><time>2026-04-06T16:06:54.988Z</time></trkpt><trkpt lat="45.805477" lon="13.6732635"><ele>94.0</ele><time>2026-04-06T16:06:55.975Z</time></trkpt><trkpt lat="45.8054307" lon="13.673396"><ele>94.0</ele><time>2026-04-06T16:06:56.973Z</time></trkpt><trkpt lat="45.8053901" lon="13.6735235"><ele>94.0</ele><time>2026-04-06T16:06:57.987Z</time></trkpt><trkpt lat="45.8053675" lon="13.6736286"><ele>94.0</ele><time>2026-04-06T16:06:58.98Z</time></trkpt><trkpt lat="45.8053518" lon="13.6737789"><ele>94.0</ele><time>2026-04-06T16:07:00.994Z</time></trkpt><trkpt lat="45.8052525" lon="13.6738995"><ele>94.0</ele><time>2026-04-06T16:07:02.971Z</time></trkpt><trkpt lat="45.805207" lon="13.6739788"><ele>94.0</ele><time>2026-04-06T16:07:03.972Z</time></trkpt><trkpt lat="45.8051676" lon="13.6740702"><ele>94.0</ele><time>2026-04-06T16:07:04.987Z</time></trkpt><trkpt lat="45.8051243" lon="13.6741522"><ele>94.0</ele><time>2026-04-06T16:07:05.985Z</time></trkpt><trkpt lat="45.8050737" lon="13.6742311"><ele>94.0</ele><time>2026-04-06T16:07:06.982Z</time></trkpt><trkpt lat="45.8050101" lon="13.6743012"><ele>94.16666666666666</ele><time>2026-04-06T16:07:07.973Z</time></trkpt><trkpt lat="45.8049378" lon="13.6743756"><ele>94.33333333333333</ele><time>2026-04-06T16:07:08.98Z</time></trkpt><trkpt lat="45.8048608" lon="13.6744491"><ele>94.5</ele><time>2026-04-06T16:07:09.972Z</time></trkpt><trkpt lat="45.8047926" lon="13.6745202"><ele>94.66666666666667</ele><time>2026-04-06T16:07:10.99Z</time></trkpt><trkpt lat="45.8047378" lon="13.6746049"><ele>94.83333333333334</ele><time>2026-04-06T16:07:11.973Z</time></trkpt><trkpt lat="45.8046885" lon="13.6746958"><ele>95.0</ele><time>2026-04-06T16:07:12.986Z</time></trkpt><trkpt lat="45.8046226" lon="13.6747948"><ele>94.6</ele><time>2026-04-06T16:07:13.989Z</time></trkpt><trkpt lat="45.8045469" lon="13.6749018"><ele>94.2</ele><time>2026-04-06T16:07:14.978Z</time></trkpt><trkpt lat="45.8044734" lon="13.6750044"><ele>93.80000000000001</ele><time>2026-04-06T16:07:15.977Z</time></trkpt><trkpt lat="45.8044029" lon="13.6751199"><ele>93.4</ele><time>2026-04-06T16:07:16.973Z</time></trkpt><trkpt lat="45.8043428" lon="13.6752237"><ele>93.0</ele><time>2026-04-06T16:07:17.969Z</time></trkpt><trkpt lat="45.8042915" lon="13.6753197"><ele>95.2</ele><time>2026-04-06T16:07:18.973Z</time></trkpt><trkpt lat="45.8042392" lon="13.6754227"><ele>97.4</ele><time>2026-04-06T16:07:19.979Z</time></trkpt><trkpt lat="45.8041787" lon="13.6755621"><ele>99.60000000000001</ele><time>2026-04-06T16:07:20.981Z</time></trkpt><trkpt lat="45.8041099" lon="13.6757173"><ele>101.80000000000001</ele><time>2026-04-06T16:07:21.971Z</time></trkpt><trkpt lat="45.8040559" lon="13.6758514"><ele>104.0</ele><time>2026-04-06T16:07:22.968Z</time></trkpt><trkpt lat="45.8040134" lon="13.6759772"><ele>104.0</ele><time>2026-04-06T16:07:23.986Z</time></trkpt><trkpt lat="45.8039748" lon="13.6760979"><ele>104.0</ele><time>2026-04-06T16:07:24.982Z</time></trkpt><trkpt lat="45.8039277" lon="13.6762256"><ele>104.0</ele><time>2026-04-06T16:07:25.983Z</time></trkpt><trkpt lat="45.803873" lon="13.6763621"><ele>104.0</ele><time>2026-04-06T16:07:26.979Z</time></trkpt><trkpt lat="45.8038211" lon="13.6764914"><ele>104.0</ele><time>2026-04-06T16:07:27.971Z</time></trkpt><trkpt lat="45.8037738" lon="13.6766173"><ele>103.6</ele><time>2026-04-06T16:07:28.973Z</time></trkpt><trkpt lat="45.8037311" lon="13.6767565"><ele>103.2</ele><time>2026-04-06T16:07:29.975Z</time></trkpt><trkpt lat="45.8036951" lon="13.6769006"><ele>102.8</ele><time>2026-04-06T16:07:30.984Z</time></trkpt><trkpt lat="45.8036633" lon="13.6770324"><ele>102.39999999999999</ele><time>2026-04-06T16:07:31.971Z</time></trkpt><trkpt lat="45.803649" lon="13.6771645"><ele>102.0</ele><time>2026-04-06T16:07:32.981Z</time></trkpt><trkpt lat="45.8036484" lon="13.6773074"><ele>101.39999999999999</ele><time>2026-04-06T16:07:33.978Z</time></trkpt><trkpt lat="45.8036452" lon="13.6774504"><ele>100.8</ele><time>2026-04-06T16:07:34.982Z</time></trkpt><trkpt lat="45.8036262" lon="13.6775802"><ele>100.2</ele><time>2026-04-06T16:07:35.973Z</time></trkpt><trkpt lat="45.8035775" lon="13.6777117"><ele>99.6</ele><time>2026-04-06T16:07:36.988Z</time></trkpt><trkpt lat="45.8035196" lon="13.6778814"><ele>99.0</ele><time>2026-04-06T16:07:37.963Z</time></trkpt><trkpt lat="45.803467" lon="13.6780677"><ele>100.25</ele><time>2026-04-06T16:07:38.976Z</time></trkpt><trkpt lat="45.803416" lon="13.6782526"><ele>101.5</ele><time>2026-04-06T16:07:39.976Z</time></trkpt><trkpt lat="45.8033656" lon="13.678416"><ele>102.75</ele><time>2026-04-06T16:07:40.974Z</time></trkpt><trkpt lat="45.8033129" lon="13.67855"><ele>104.0</ele><time>2026-04-06T16:07:41.973Z</time></trkpt><trkpt lat="45.8032695" lon="13.6786598"><ele>103.99999999999999</ele><time>2026-04-06T16:07:42.983Z</time></trkpt><trkpt lat="45.8032464" lon="13.6787787"><ele>104.0</ele><time>2026-04-06T16:07:43.972Z</time></trkpt><trkpt lat="45.8032252" lon="13.678906"><ele>104.0</ele><time>2026-04-06T16:07:44.969Z</time></trkpt><trkpt lat="45.8031845" lon="13.679017"><ele>104.0</ele><time>2026-04-06T16:07:45.971Z</time></trkpt><trkpt lat="45.803133" lon="13.679122"><ele>103.99999999999999</ele><time>2026-04-06T16:07:46.977Z</time></trkpt><trkpt lat="45.8030846" lon="13.6792351"><ele>104.0</ele><time>2026-04-06T16:07:47.975Z</time></trkpt><trkpt lat="45.8030426" lon="13.6793842"><ele>103.6</ele><time>2026-04-06T16:07:48.973Z</time></trkpt><trkpt lat="45.8030065" lon="13.6795404"><ele>103.2</ele><time>2026-04-06T16:07:49.968Z</time></trkpt><trkpt lat="45.8029646" lon="13.6796596"><ele>102.8</ele><time>2026-04-06T16:07:50.981Z</time></trkpt><trkpt lat="45.8029197" lon="13.6797473"><ele>102.39999999999999</ele><time>2026-04-06T16:07:51.974Z</time></trkpt><trkpt lat="45.802855" lon="13.6798496"><ele>102.0</ele><time>2026-04-06T16:07:52.982Z</time></trkpt><trkpt lat="45.8027906" lon="13.6799566"><ele>102.0</ele><time>2026-04-06T16:07:53.984Z</time></trkpt><trkpt lat="45.8027403" lon="13.6800548"><ele>102.0</ele><time>2026-04-06T16:07:54.981Z</time></trkpt><trkpt lat="45.8026783" lon="13.6801421"><ele>102.0</ele><time>2026-04-06T16:07:55.996Z</time></trkpt><trkpt lat="45.8025992" lon="13.6802355"><ele>102.0</ele><time>2026-04-06T16:07:56.979Z</time></trkpt><trkpt lat="45.8025376" lon="13.6803232"><ele>102.0</ele><time>2026-04-06T16:07:57.975Z</time></trkpt><trkpt lat="45.8024932" lon="13.6804285"><ele>102.0</ele><time>2026-04-06T16:07:59.979Z</time></trkpt><trkpt lat="45.8024465" lon="13.6803606"><ele>103.28571428571429</ele><time>2026-04-06T16:08:03.971Z</time></trkpt><trkpt lat="45.8023988" lon="13.6802814"><ele>104.57142857142858</ele><time>2026-04-06T16:08:04.967Z</time></trkpt><trkpt lat="45.8023439" lon="13.6802196"><ele>105.85714285714286</ele><time>2026-04-06T16:08:05.975Z</time></trkpt><trkpt lat="45.8022869" lon="13.6801564"><ele>107.14285714285714</ele><time>2026-04-06T16:08:06.982Z</time></trkpt><trkpt lat="45.8022263" lon="13.6800884"><ele>108.42857142857143</ele><time>2026-04-06T16:08:08.029Z</time></trkpt><trkpt lat="45.8021706" lon="13.6800182"><ele>109.71428571428571</ele><time>2026-04-06T16:08:08.987Z</time></trkpt><trkpt lat="45.8021162" lon="13.6799281"><ele>111.0</ele><time>2026-04-06T16:08:09.988Z</time></trkpt><trkpt lat="45.8020653" lon="13.6798354"><ele>111.6</ele><time>2026-04-06T16:08:10.98Z</time></trkpt><trkpt lat="45.8020153" lon="13.6797445"><ele>112.19999999999999</ele><time>2026-04-06T16:08:11.971Z</time></trkpt><trkpt lat="45.8019627" lon="13.6796614"><ele>112.80000000000001</ele><time>2026-04-06T16:08:12.979Z</time></trkpt><trkpt lat="45.8019142" lon="13.6795837"><ele>113.4</ele><time>2026-04-06T16:08:13.972Z</time></trkpt><trkpt lat="45.8018727" lon="13.6794276"><ele>114.0</ele><time>2026-04-06T16:08:15.98Z</time></trkpt><trkpt lat="45.8018419" lon="13.6792542"><ele>116.5</ele><time>2026-04-06T16:08:17.979Z</time></trkpt><trkpt lat="45.8018137" lon="13.679159"><ele>119.0</ele><time>2026-04-06T16:08:18.974Z</time></trkpt><trkpt lat="45.8017784" lon="13.6790509"><ele>121.5</ele><time>2026-04-06T16:08:19.977Z</time></trkpt><trkpt lat="45.8017446" lon="13.6789455"><ele>124.0</ele><time>2026-04-06T16:08:20.987Z</time></trkpt><trkpt lat="45.8017194" lon="13.6788433"><ele>126.5</ele><time>2026-04-06T16:08:21.982Z</time></trkpt><trkpt lat="45.8017048" lon="13.6787418"><ele>129.0</ele><time>2026-04-06T16:08:22.992Z</time></trkpt><trkpt lat="45.8016946" lon="13.6786461"><ele>129.66666666666666</ele><time>2026-04-06T16:08:23.975Z</time></trkpt><trkpt lat="45.8017007" lon="13.6785451"><ele>130.33333333333334</ele><time>2026-04-06T16:08:24.974Z</time></trkpt><trkpt lat="45.8017091" lon="13.6784434"><ele>131.0</ele><time>2026-04-06T16:08:25.976Z</time></trkpt><trkpt lat="45.8017168" lon="13.6783418"><ele>131.66666666666669</ele><time>2026-04-06T16:08:26.981Z</time></trkpt><trkpt lat="45.8017275" lon="13.6782364"><ele>132.33333333333334</ele><time>2026-04-06T16:08:27.982Z</time></trkpt><trkpt lat="45.8017453" lon="13.6781214"><ele>133.0</ele><time>2026-04-06T16:08:28.981Z</time></trkpt><trkpt lat="45.8017619" lon="13.6780064"><ele>133.0</ele><time>2026-04-06T16:08:29.989Z</time></trkpt><trkpt lat="45.8017879" lon="13.6778986"><ele>133.0</ele><time>2026-04-06T16:08:30.98Z</time></trkpt><trkpt lat="45.8018071" lon="13.6778034"><ele>133.0</ele><time>2026-04-06T16:08:31.987Z</time></trkpt><trkpt lat="45.8018096" lon="13.6777107"><ele>133.0</ele><time>2026-04-06T16:08:32.98Z</time></trkpt><trkpt lat="45.8018053" lon="13.6775394"><ele>133.0</ele><time>2026-04-06T16:08:34.988Z</time></trkpt><trkpt lat="45.801805" lon="13.6774438"><ele>133.0</ele><time>2026-04-06T16:08:35.981Z</time></trkpt><trkpt lat="45.8018062" lon="13.677352"><ele>133.42857142857142</ele><time>2026-04-06T16:08:36.993Z</time></trkpt><trkpt lat="45.8018062" lon="13.6772541"><ele>133.85714285714286</ele><time>2026-04-06T16:08:37.976Z</time></trkpt><trkpt lat="45.8018062" lon="13.6771585"><ele>134.28571428571428</ele><time>2026-04-06T16:08:38.986Z</time></trkpt><trkpt lat="45.8018095" lon="13.6770566"><ele>134.71428571428572</ele><time>2026-04-06T16:08:39.979Z</time></trkpt><trkpt lat="45.8018178" lon="13.6769539"><ele>135.14285714285714</ele><time>2026-04-06T16:08:40.985Z</time></trkpt><trkpt lat="45.8018219" lon="13.6768537"><ele>135.57142857142856</ele><time>2026-04-06T16:08:41.979Z</time></trkpt><trkpt lat="45.8018332" lon="13.6767545"><ele>136.0</ele><time>2026-04-06T16:08:42.983Z</time></trkpt><trkpt lat="45.8018463" lon="13.6766496"><ele>134.66666666666669</ele><time>2026-04-06T16:08:43.977Z</time></trkpt><trkpt lat="45.8018655" lon="13.6765402"><ele>133.33333333333334</ele><time>2026-04-06T16:08:44.991Z</time></trkpt><trkpt lat="45.8018851" lon="13.67643"><ele>132.0</ele><time>2026-04-06T16:08:45.982Z</time></trkpt><trkpt lat="45.8018947" lon="13.6763197"><ele>130.66666666666666</ele><time>2026-04-06T16:08:46.974Z</time></trkpt><trkpt lat="45.8019009" lon="13.676204"><ele>129.33333333333331</ele><time>2026-04-06T16:08:47.974Z</time></trkpt><trkpt lat="45.8019065" lon="13.6760938"><ele>128.0</ele><time>2026-04-06T16:08:48.981Z</time></trkpt><trkpt lat="45.8019184" lon="13.6759861"><ele>128.0</ele><time>2026-04-06T16:08:49.974Z</time></trkpt><trkpt lat="45.8019279" lon="13.6758819"><ele>128.0</ele><time>2026-04-06T16:08:50.98Z</time></trkpt><trkpt lat="45.801932" lon="13.6757835"><ele>128.0</ele><time>2026-04-06T16:08:51.972Z</time></trkpt><trkpt lat="45.8018996" lon="13.6756301"><ele>128.0</ele><time>2026-04-06T16:08:53.965Z</time></trkpt><trkpt lat="45.8018732" lon="13.675482"><ele>128.0</ele><time>2026-04-06T16:08:55.983Z</time></trkpt><trkpt lat="45.8018786" lon="13.6753137"><ele>128.83333333333331</ele><time>2026-04-06T16:08:57.993Z</time></trkpt><trkpt lat="45.8019002" lon="13.6752264"><ele>129.66666666666666</ele><time>2026-04-06T16:08:58.968Z</time></trkpt><trkpt lat="45.8019717" lon="13.6750739"><ele>130.5</ele><time>2026-04-06T16:09:00.97Z</time></trkpt><trkpt lat="45.8020188" lon="13.6749783"><ele>131.33333333333334</ele><time>2026-04-06T16:09:01.979Z</time></trkpt><trkpt lat="45.8020633" lon="13.6748863"><ele>132.16666666666669</ele><time>2026-04-06T16:09:02.977Z</time></trkpt><trkpt lat="45.8021048" lon="13.6747946"><ele>133.0</ele><time>2026-04-06T16:09:03.977Z</time></trkpt><trkpt lat="45.8021409" lon="13.6746978"><ele>133.0</ele><time>2026-04-06T16:09:04.98Z</time></trkpt><trkpt lat="45.8021741" lon="13.6745957"><ele>133.0</ele><time>2026-04-06T16:09:05.98Z</time></trkpt><trkpt lat="45.8022032" lon="13.6744963"><ele>133.0</ele><time>2026-04-06T16:09:06.973Z</time></trkpt><trkpt lat="45.8022328" lon="13.6744032"><ele>133.0</ele><time>2026-04-06T16:09:07.988Z</time></trkpt><trkpt lat="45.8022542" lon="13.6743051"><ele>133.0</ele><time>2026-04-06T16:09:08.982Z</time></trkpt><trkpt lat="45.8022675" lon="13.6742147"><ele>133.0</ele><time>2026-04-06T16:09:09.982Z</time></trkpt><trkpt lat="45.8022698" lon="13.6741241"><ele>133.0</ele><time>2026-04-06T16:09:10.992Z</time></trkpt><trkpt lat="45.8022698" lon="13.6740215"><ele>133.0</ele><time>2026-04-06T16:09:11.987Z</time></trkpt><trkpt lat="45.8022651" lon="13.6739241"><ele>133.0</ele><time>2026-04-06T16:09:12.997Z</time></trkpt><trkpt lat="45.8022589" lon="13.673827"><ele>133.0</ele><time>2026-04-06T16:09:13.986Z</time></trkpt><trkpt lat="45.8022491" lon="13.6737273"><ele>133.0</ele><time>2026-04-06T16:09:14.983Z</time></trkpt><trkpt lat="45.8022325" lon="13.6736237"><ele>133.0</ele><time>2026-04-06T16:09:15.989Z</time></trkpt><trkpt lat="45.8022181" lon="13.6735175"><ele>133.0</ele><time>2026-04-06T16:09:16.993Z</time></trkpt><trkpt lat="45.8022062" lon="13.6734062"><ele>133.0</ele><time>2026-04-06T16:09:17.981Z</time></trkpt><trkpt lat="45.8021805" lon="13.6733076"><ele>133.5</ele><time>2026-04-06T16:09:18.993Z</time></trkpt><trkpt lat="45.8021465" lon="13.6732208"><ele>134.0</ele><time>2026-04-06T16:09:19.981Z</time></trkpt><trkpt lat="45.8021095" lon="13.6731477"><ele>134.5</ele><time>2026-04-06T16:09:20.98Z</time></trkpt><trkpt lat="45.8020779" lon="13.6730258"><ele>135.0</ele><time>2026-04-06T16:09:22.993Z</time></trkpt><trkpt lat="45.802062" lon="13.6728343"><ele>135.5</ele><time>2026-04-06T16:09:24.992Z</time></trkpt><trkpt lat="45.8020451" lon="13.6727139"><ele>136.0</ele><time>2026-04-06T16:09:25.974Z</time></trkpt><trkpt lat="45.8020347" lon="13.6725908"><ele>137.16666666666669</ele><time>2026-04-06T16:09:26.978Z</time></trkpt><trkpt lat="45.8020159" lon="13.6724678"><ele>138.33333333333334</ele><time>2026-04-06T16:09:27.991Z</time></trkpt><trkpt lat="45.8019942" lon="13.672353"><ele>139.5</ele><time>2026-04-06T16:09:28.984Z</time></trkpt><trkpt lat="45.8019802" lon="13.6722354"><ele>140.66666666666666</ele><time>2026-04-06T16:09:29.994Z</time></trkpt><trkpt lat="45.8019672" lon="13.6721241"><ele>141.83333333333331</ele><time>2026-04-06T16:09:30.98Z</time></trkpt><trkpt lat="45.8019551" lon="13.672009"><ele>143.0</ele><time>2026-04-06T16:09:31.978Z</time></trkpt><trkpt lat="45.8019342" lon="13.6719069"><ele>143.33333333333331</ele><time>2026-04-06T16:09:32.978Z</time></trkpt><trkpt lat="45.8019071" lon="13.6718043"><ele>143.66666666666666</ele><time>2026-04-06T16:09:33.975Z</time></trkpt><trkpt lat="45.8018789" lon="13.6716919"><ele>144.0</ele><time>2026-04-06T16:09:34.975Z</time></trkpt><trkpt lat="45.801854" lon="13.6715831"><ele>144.33333333333334</ele><time>2026-04-06T16:09:35.97Z</time></trkpt><trkpt lat="45.8018221" lon="13.6714822"><ele>144.66666666666669</ele><time>2026-04-06T16:09:36.987Z</time></trkpt><trkpt lat="45.8018014" lon="13.6713912"><ele>145.0</ele><time>2026-04-06T16:09:37.985Z</time></trkpt><trkpt lat="45.8018186" lon="13.6712174"><ele>145.75</ele><time>2026-04-06T16:09:39.988Z</time></trkpt><trkpt lat="45.8018686" lon="13.6710634"><ele>146.5</ele><time>2026-04-06T16:09:41.987Z</time></trkpt><trkpt lat="45.8019265" lon="13.6708999"><ele>147.25</ele><time>2026-04-06T16:09:43.986Z</time></trkpt><trkpt lat="45.8019647" lon="13.6707397"><ele>148.0</ele><time>2026-04-06T16:09:45.989Z</time></trkpt><trkpt lat="45.8019965" lon="13.6705849"><ele>148.0</ele><time>2026-04-06T16:09:47.99Z</time></trkpt><trkpt lat="45.8020105" lon="13.6704138"><ele>148.0</ele><time>2026-04-06T16:09:49.979Z</time></trkpt><trkpt lat="45.8020364" lon="13.6702609"><ele>148.0</ele><time>2026-04-06T16:09:51.982Z</time></trkpt><trkpt lat="45.8020443" lon="13.6701396"><ele>148.0</ele><time>2026-04-06T16:09:53.984Z</time></trkpt><trkpt lat="45.8020196" lon="13.6700124"><ele>148.0</ele><time>2026-04-06T16:09:55.967Z</time></trkpt><trkpt lat="45.8019978" lon="13.6698752"><ele>148.16666666666669</ele><time>2026-04-06T16:09:57.981Z</time></trkpt><trkpt lat="45.8019904" lon="13.6697819"><ele>148.33333333333334</ele><time>2026-04-06T16:09:58.975Z</time></trkpt><trkpt lat="45.8019895" lon="13.669677"><ele>148.5</ele><time>2026-04-06T16:09:59.984Z</time></trkpt><trkpt lat="45.8019868" lon="13.6695705"><ele>148.66666666666666</ele><time>2026-04-06T16:10:00.973Z</time></trkpt><trkpt lat="45.8019846" lon="13.6694707"><ele>148.83333333333331</ele><time>2026-04-06T16:10:01.978Z</time></trkpt><trkpt lat="45.8019797" lon="13.6693749"><ele>149.0</ele><time>2026-04-06T16:10:02.98Z</time></trkpt><trkpt lat="45.8019581" lon="13.6692179"><ele>148.6</ele><time>2026-04-06T16:10:04.971Z</time></trkpt><trkpt lat="45.8019338" lon="13.6690717"><ele>148.2</ele><time>2026-04-06T16:10:06.98Z</time></trkpt><trkpt lat="45.8019411" lon="13.6689109"><ele>147.79999999999998</ele><time>2026-04-06T16:10:08.985Z</time></trkpt><trkpt lat="45.8019493" lon="13.6687667"><ele>147.4</ele><time>2026-04-06T16:10:10.984Z</time></trkpt><trkpt lat="45.8019317" lon="13.6686291"><ele>147.0</ele><time>2026-04-06T16:10:12.985Z</time></trkpt><trkpt lat="45.8019211" lon="13.6685197"><ele>146.79999999999998</ele><time>2026-04-06T16:10:14.989Z</time></trkpt><trkpt lat="45.8019513" lon="13.668321"><ele>146.6</ele><time>2026-04-06T16:10:16.977Z</time></trkpt><trkpt lat="45.8019674" lon="13.6681955"><ele>146.39999999999998</ele><time>2026-04-06T16:10:18.002Z</time></trkpt><trkpt lat="45.8019834" lon="13.6680571"><ele>146.2</ele><time>2026-04-06T16:10:18.973Z</time></trkpt><trkpt lat="45.802008" lon="13.6679351"><ele>146.0</ele><time>2026-04-06T16:10:19.969Z</time></trkpt><trkpt lat="45.8020392" lon="13.6678201"><ele>146.66666666666666</ele><time>2026-04-06T16:10:20.972Z</time></trkpt><trkpt lat="45.8020668" lon="13.6677015"><ele>147.33333333333331</ele><time>2026-04-06T16:10:21.973Z</time></trkpt><trkpt lat="45.802081" lon="13.6675791"><ele>148.0</ele><time>2026-04-06T16:10:22.98Z</time></trkpt><trkpt lat="45.8020815" lon="13.6674512"><ele>148.66666666666666</ele><time>2026-04-06T16:10:23.983Z</time></trkpt><trkpt lat="45.8020807" lon="13.6673197"><ele>149.33333333333334</ele><time>2026-04-06T16:10:24.974Z</time></trkpt><trkpt lat="45.8020837" lon="13.6671989"><ele>150.0</ele><time>2026-04-06T16:10:25.976Z</time></trkpt><trkpt lat="45.8020753" lon="13.6671081"><ele>150.0</ele><time>2026-04-06T16:10:26.971Z</time></trkpt><trkpt lat="45.8020786" lon="13.6669796"><ele>150.0</ele><time>2026-04-06T16:19:59.98Z</time></trkpt><trkpt lat="45.8020711" lon="13.6668027"><ele>150.0</ele><time>2026-04-06T16:20:01.958Z</time></trkpt><trkpt lat="45.8020577" lon="13.6666157"><ele>150.0</ele><time>2026-04-06T16:20:03.984Z</time></trkpt><trkpt lat="45.8020566" lon="13.6664879"><ele>150.0</ele><time>2026-04-06T16:20:04.992Z</time></trkpt><trkpt lat="45.8020548" lon="13.666353"><ele>150.6</ele><time>2026-04-06T16:20:05.972Z</time></trkpt><trkpt lat="45.802058" lon="13.6662309"><ele>151.2</ele><time>2026-04-06T16:20:06.989Z</time></trkpt><trkpt lat="45.8020605" lon="13.6661042"><ele>151.8</ele><time>2026-04-06T16:20:07.982Z</time></trkpt><trkpt lat="45.8020715" lon="13.665972"><ele>152.4</ele><time>2026-04-06T16:20:08.979Z</time></trkpt><trkpt lat="45.8020794" lon="13.6658355"><ele>153.0</ele><time>2026-04-06T16:20:09.988Z</time></trkpt><trkpt lat="45.8020859" lon="13.6657041"><ele>153.4</ele><time>2026-04-06T16:20:10.983Z</time></trkpt><trkpt lat="45.8020838" lon="13.6655654"><ele>153.8</ele><time>2026-04-06T16:20:11.989Z</time></trkpt><trkpt lat="45.8020808" lon="13.6654275"><ele>154.2</ele><time>2026-04-06T16:20:12.983Z</time></trkpt><trkpt lat="45.8020799" lon="13.6652858"><ele>154.6</ele><time>2026-04-06T16:20:13.979Z</time></trkpt><trkpt lat="45.8020786" lon="13.6651403"><ele>155.0</ele><time>2026-04-06T16:20:14.992Z</time></trkpt><trkpt lat="45.8020805" lon="13.6649944"><ele>155.2</ele><time>2026-04-06T16:20:15.98Z</time></trkpt><trkpt lat="45.8020691" lon="13.6648498"><ele>155.4</ele><time>2026-04-06T16:20:16.972Z</time></trkpt><trkpt lat="45.8020598" lon="13.6647069"><ele>155.6</ele><time>2026-04-06T16:20:17.979Z</time></trkpt><trkpt lat="45.8020484" lon="13.6645604"><ele>155.8</ele><time>2026-04-06T16:20:18.985Z</time></trkpt><trkpt lat="45.8020327" lon="13.6644151"><ele>156.0</ele><time>2026-04-06T16:20:19.991Z</time></trkpt><trkpt lat="45.8020048" lon="13.6642981"><ele>156.33333333333334</ele><time>2026-04-06T16:20:20.983Z</time></trkpt><trkpt lat="45.8019794" lon="13.6641876"><ele>156.66666666666666</ele><time>2026-04-06T16:20:21.975Z</time></trkpt><trkpt lat="45.8019663" lon="13.6640749"><ele>157.0</ele><time>2026-04-06T16:20:22.978Z</time></trkpt><trkpt lat="45.8019593" lon="13.6639604"><ele>157.33333333333331</ele><time>2026-04-06T16:20:23.983Z</time></trkpt><trkpt lat="45.8019733" lon="13.6638336"><ele>157.66666666666666</ele><time>2026-04-06T16:20:24.986Z</time></trkpt><trkpt lat="45.8020043" lon="13.6636778"><ele>158.0</ele><time>2026-04-06T16:20:25.967Z</time></trkpt><trkpt lat="45.8020389" lon="13.6635127"><ele>158.0</ele><time>2026-04-06T16:20:26.976Z</time></trkpt><trkpt lat="45.8020585" lon="13.663349"><ele>158.0</ele><time>2026-04-06T16:20:27.973Z</time></trkpt><trkpt lat="45.8020799" lon="13.6631843"><ele>158.0</ele><time>2026-04-06T16:20:28.972Z</time></trkpt><trkpt lat="45.8021056" lon="13.6630343"><ele>158.0</ele><time>2026-04-06T16:20:29.978Z</time></trkpt><trkpt lat="45.8021286" lon="13.6629053"><ele>158.0</ele><time>2026-04-06T16:20:30.972Z</time></trkpt><trkpt lat="45.8021569" lon="13.6627917"><ele>158.0</ele><time>2026-04-06T16:20:31.97Z</time></trkpt><trkpt lat="45.802201" lon="13.6627021"><ele>158.0</ele><time>2026-04-06T16:20:32.967Z</time></trkpt><trkpt lat="45.8022633" lon="13.6626152"><ele>158.0</ele><time>2026-04-06T16:20:33.969Z</time></trkpt><trkpt lat="45.8023183" lon="13.6625286"><ele>158.0</ele><time>2026-04-06T16:20:34.976Z</time></trkpt><trkpt lat="45.802369" lon="13.6624412"><ele>158.0</ele><time>2026-04-06T16:20:35.974Z</time></trkpt><trkpt lat="45.8024197" lon="13.6623707"><ele>158.0</ele><time>2026-04-06T16:20:36.978Z</time></trkpt><trkpt lat="45.8024832" lon="13.662315"><ele>158.0</ele><time>2026-04-06T16:20:37.973Z</time></trkpt><trkpt lat="45.8025515" lon="13.662272"><ele>158.0</ele><time>2026-04-06T16:20:38.972Z</time></trkpt><trkpt lat="45.8026218" lon="13.6622342"><ele>158.0</ele><time>2026-04-06T16:20:39.988Z</time></trkpt><trkpt lat="45.802683" lon="13.6621852"><ele>158.0</ele><time>2026-04-06T16:20:40.983Z</time></trkpt><trkpt lat="45.802736" lon="13.6621133"><ele>158.0</ele><time>2026-04-06T16:20:41.992Z</time></trkpt><trkpt lat="45.8027771" lon="13.6620195"><ele>158.0</ele><time>2026-04-06T16:20:42.991Z</time></trkpt><trkpt lat="45.8027927" lon="13.661904"><ele>156.6</ele><time>2026-04-06T16:20:43.968Z</time></trkpt><trkpt lat="45.8027975" lon="13.6617636"><ele>155.20000000000002</ele><time>2026-04-06T16:20:44.971Z</time></trkpt><trkpt lat="45.8028139" lon="13.6616326"><ele>153.8</ele><time>2026-04-06T16:20:45.982Z</time></trkpt><trkpt lat="45.8028562" lon="13.6615085"><ele>152.4</ele><time>2026-04-06T16:20:46.982Z</time></trkpt><trkpt lat="45.8028995" lon="13.6614015"><ele>151.0</ele><time>2026-04-06T16:20:47.981Z</time></trkpt><trkpt lat="45.8029188" lon="13.6612891"><ele>151.0</ele><time>2026-04-06T16:20:48.981Z</time></trkpt><trkpt lat="45.8029167" lon="13.6611731"><ele>151.0</ele><time>2026-04-06T16:20:49.972Z</time></trkpt><trkpt lat="45.8029106" lon="13.6610541"><ele>151.0</ele><time>2026-04-06T16:20:50.972Z</time></trkpt><trkpt lat="45.8029137" lon="13.6609191"><ele>151.0</ele><time>2026-04-06T16:20:51.98Z</time></trkpt><trkpt lat="45.8029125" lon="13.6607851"><ele>151.0</ele><time>2026-04-06T16:20:52.984Z</time></trkpt><trkpt lat="45.8029111" lon="13.6606681"><ele>151.0</ele><time>2026-04-06T16:20:53.982Z</time></trkpt><trkpt lat="45.8028463" lon="13.6605126"><ele>151.16666666666669</ele><time>2026-04-06T16:20:55.966Z</time></trkpt><trkpt lat="45.8027888" lon="13.6604443"><ele>151.33333333333334</ele><time>2026-04-06T16:20:56.97Z</time></trkpt><trkpt lat="45.8027118" lon="13.6603837"><ele>151.5</ele><time>2026-04-06T16:20:57.964Z</time></trkpt><trkpt lat="45.802631" lon="13.6603374"><ele>151.66666666666666</ele><time>2026-04-06T16:20:58.969Z</time></trkpt><trkpt lat="45.802557" lon="13.6602779"><ele>151.83333333333331</ele><time>2026-04-06T16:20:59.972Z</time></trkpt><trkpt lat="45.8024992" lon="13.6601979"><ele>152.0</ele><time>2026-04-06T16:21:00.981Z</time></trkpt><trkpt lat="45.8024438" lon="13.6601132"><ele>153.16666666666666</ele><time>2026-04-06T16:21:02.009Z</time></trkpt><trkpt lat="45.8024039" lon="13.6600223"><ele>154.33333333333331</ele><time>2026-04-06T16:21:02.982Z</time></trkpt><trkpt lat="45.802389" lon="13.6599158"><ele>155.5</ele><time>2026-04-06T16:21:03.959Z</time></trkpt><trkpt lat="45.8023838" lon="13.6597895"><ele>156.66666666666666</ele><time>2026-04-06T16:21:04.968Z</time></trkpt><trkpt lat="45.8023706" lon="13.6596587"><ele>157.83333333333334</ele><time>2026-04-06T16:21:05.986Z</time></trkpt><trkpt lat="45.8023503" lon="13.6595232"><ele>159.0</ele><time>2026-04-06T16:21:06.985Z</time></trkpt><trkpt lat="45.8023339" lon="13.6593809"><ele>159.8</ele><time>2026-04-06T16:21:07.976Z</time></trkpt><trkpt lat="45.8023108" lon="13.6592414"><ele>160.60000000000002</ele><time>2026-04-06T16:21:08.98Z</time></trkpt><trkpt lat="45.8022818" lon="13.6591087"><ele>161.4</ele><time>2026-04-06T16:21:09.968Z</time></trkpt><trkpt lat="45.8022478" lon="13.6589854"><ele>162.20000000000002</ele><time>2026-04-06T16:21:10.972Z</time></trkpt><trkpt lat="45.8022032" lon="13.6588663"><ele>163.0</ele><time>2026-04-06T16:21:11.974Z</time></trkpt><trkpt lat="45.8021508" lon="13.6587549"><ele>163.0</ele><time>2026-04-06T16:21:12.983Z</time></trkpt><trkpt lat="45.802095" lon="13.6586568"><ele>163.0</ele><time>2026-04-06T16:21:13.978Z</time></trkpt><trkpt lat="45.8020452" lon="13.6585644"><ele>163.0</ele><time>2026-04-06T16:21:14.978Z</time></trkpt><trkpt lat="45.8020067" lon="13.6584673"><ele>163.0</ele><time>2026-04-06T16:21:15.975Z</time></trkpt><trkpt lat="45.8019932" lon="13.6583714"><ele>163.0</ele><time>2026-04-06T16:21:16.979Z</time></trkpt><trkpt lat="45.8020074" lon="13.6582801"><ele>163.0</ele><time>2026-04-06T16:21:17.966Z</time></trkpt><trkpt lat="45.8020343" lon="13.6581901"><ele>163.0</ele><time>2026-04-06T16:21:18.98Z</time></trkpt><trkpt lat="45.8020668" lon="13.658083"><ele>163.16666666666669</ele><time>2026-04-06T16:21:19.968Z</time></trkpt><trkpt lat="45.8020958" lon="13.6579788"><ele>163.33333333333334</ele><time>2026-04-06T16:21:20.969Z</time></trkpt><trkpt lat="45.8021234" lon="13.6578691"><ele>163.5</ele><time>2026-04-06T16:21:21.975Z</time></trkpt><trkpt lat="45.802156" lon="13.6577546"><ele>163.66666666666666</ele><time>2026-04-06T16:21:22.98Z</time></trkpt><trkpt lat="45.8021915" lon="13.6576433"><ele>163.83333333333331</ele><time>2026-04-06T16:21:23.976Z</time></trkpt><trkpt lat="45.8022217" lon="13.6575216"><ele>164.0</ele><time>2026-04-06T16:21:24.981Z</time></trkpt><trkpt lat="45.8022475" lon="13.6574001"><ele>163.66666666666666</ele><time>2026-04-06T16:21:25.977Z</time></trkpt><trkpt lat="45.8022651" lon="13.6572714"><ele>163.33333333333331</ele><time>2026-04-06T16:21:26.98Z</time></trkpt><trkpt lat="45.8022797" lon="13.6571365"><ele>163.0</ele><time>2026-04-06T16:21:27.969Z</time></trkpt><trkpt lat="45.8022966" lon="13.6570135"><ele>162.66666666666666</ele><time>2026-04-06T16:21:28.981Z</time></trkpt><trkpt lat="45.8023064" lon="13.6568918"><ele>162.33333333333334</ele><time>2026-04-06T16:21:29.981Z</time></trkpt><trkpt lat="45.802305" lon="13.6567674"><ele>162.0</ele><time>2026-04-06T16:21:30.997Z</time></trkpt><trkpt lat="45.8022916" lon="13.6566429"><ele>162.0</ele><time>2026-04-06T16:21:31.978Z</time></trkpt><trkpt lat="45.8022851" lon="13.6565174"><ele>162.0</ele><time>2026-04-06T16:21:32.981Z</time></trkpt><trkpt lat="45.8022885" lon="13.6563828"><ele>162.0</ele><time>2026-04-06T16:21:33.979Z</time></trkpt><trkpt lat="45.8022988" lon="13.6562449"><ele>162.0</ele><time>2026-04-06T16:21:34.98Z</time></trkpt><trkpt lat="45.8023087" lon="13.6561111"><ele>162.0</ele><time>2026-04-06T16:21:35.968Z</time></trkpt><trkpt lat="45.8023073" lon="13.6559655"><ele>162.6</ele><time>2026-04-06T16:21:36.984Z</time></trkpt><trkpt lat="45.8023" lon="13.6558189"><ele>163.2</ele><time>2026-04-06T16:21:37.974Z</time></trkpt><trkpt lat="45.8022906" lon="13.6556706"><ele>163.8</ele><time>2026-04-06T16:21:38.976Z</time></trkpt><trkpt lat="45.8022765" lon="13.6555201"><ele>164.4</ele><time>2026-04-06T16:21:39.981Z</time></trkpt><trkpt lat="45.8022674" lon="13.6553672"><ele>165.0</ele><time>2026-04-06T16:21:40.98Z</time></trkpt><trkpt lat="45.8022637" lon="13.6552215"><ele>165.4</ele><time>2026-04-06T16:21:41.973Z</time></trkpt><trkpt lat="45.8022615" lon="13.6550785"><ele>165.8</ele><time>2026-04-06T16:21:42.984Z</time></trkpt><trkpt lat="45.8022607" lon="13.65494"><ele>166.2</ele><time>2026-04-06T16:21:43.971Z</time></trkpt><trkpt lat="45.8022695" lon="13.6548024"><ele>166.6</ele><time>2026-04-06T16:21:44.985Z</time></trkpt><trkpt lat="45.8022846" lon="13.6546609"><ele>167.0</ele><time>2026-04-06T16:21:45.974Z</time></trkpt><trkpt lat="45.8023024" lon="13.6545179"><ele>167.0</ele><time>2026-04-06T16:21:46.975Z</time></trkpt><trkpt lat="45.8023198" lon="13.6543752"><ele>167.0</ele><time>2026-04-06T16:21:47.976Z</time></trkpt><trkpt lat="45.8023395" lon="13.6542412"><ele>167.0</ele><time>2026-04-06T16:21:48.978Z</time></trkpt><trkpt lat="45.8023474" lon="13.6541159"><ele>167.0</ele><time>2026-04-06T16:21:49.977Z</time></trkpt><trkpt lat="45.8023511" lon="13.6539908"><ele>167.0</ele><time>2026-04-06T16:21:50.972Z</time></trkpt><trkpt lat="45.8023603" lon="13.6538775"><ele>167.0</ele><time>2026-04-06T16:21:51.976Z</time></trkpt><trkpt lat="45.8023784" lon="13.6537712"><ele>167.0</ele><time>2026-04-06T16:21:52.976Z</time></trkpt><trkpt lat="45.8024074" lon="13.6536684"><ele>167.0</ele><time>2026-04-06T16:21:53.976Z</time></trkpt><trkpt lat="45.802447" lon="13.6535686"><ele>167.0</ele><time>2026-04-06T16:21:54.978Z</time></trkpt><trkpt lat="45.8024884" lon="13.6534753"><ele>167.0</ele><time>2026-04-06T16:21:55.972Z</time></trkpt><trkpt lat="45.8025227" lon="13.6533884"><ele>167.0</ele><time>2026-04-06T16:21:56.974Z</time></trkpt><trkpt lat="45.8025305" lon="13.6532971"><ele>167.0</ele><time>2026-04-06T16:21:57.967Z</time></trkpt><trkpt lat="45.8025175" lon="13.6531998"><ele>167.33333333333331</ele><time>2026-04-06T16:21:58.972Z</time></trkpt><trkpt lat="45.8025017" lon="13.653087"><ele>167.66666666666666</ele><time>2026-04-06T16:21:59.992Z</time></trkpt><trkpt lat="45.8024926" lon="13.6529727"><ele>168.0</ele><time>2026-04-06T16:22:00.977Z</time></trkpt><trkpt lat="45.8024977" lon="13.6528532"><ele>168.33333333333334</ele><time>2026-04-06T16:22:01.975Z</time></trkpt><trkpt lat="45.8025149" lon="13.6527321"><ele>168.66666666666669</ele><time>2026-04-06T16:22:02.968Z</time></trkpt><trkpt lat="45.8025361" lon="13.6526191"><ele>169.0</ele><time>2026-04-06T16:22:03.973Z</time></trkpt><trkpt lat="45.8025618" lon="13.652496"><ele>168.2</ele><time>2026-04-06T16:22:04.965Z</time></trkpt><trkpt lat="45.8025842" lon="13.6523653"><ele>167.39999999999998</ele><time>2026-04-06T16:22:05.966Z</time></trkpt><trkpt lat="45.8025976" lon="13.6522265"><ele>166.6</ele><time>2026-04-06T16:22:06.97Z</time></trkpt><trkpt lat="45.8025999" lon="13.6520766"><ele>165.8</ele><time>2026-04-06T16:22:07.979Z</time></trkpt><trkpt lat="45.8026029" lon="13.6519187"><ele>165.0</ele><time>2026-04-06T16:22:08.968Z</time></trkpt><trkpt lat="45.8026021" lon="13.6517582"><ele>164.6</ele><time>2026-04-06T16:22:09.977Z</time></trkpt><trkpt lat="45.8026016" lon="13.6515974"><ele>164.2</ele><time>2026-04-06T16:22:10.968Z</time></trkpt><trkpt lat="45.8026006" lon="13.6514405"><ele>163.8</ele><time>2026-04-06T16:22:11.958Z</time></trkpt><trkpt lat="45.8025982" lon="13.6512904"><ele>163.4</ele><time>2026-04-06T16:22:12.976Z</time></trkpt><trkpt lat="45.802588" lon="13.6511467"><ele>163.0</ele><time>2026-04-06T16:22:13.968Z</time></trkpt><trkpt lat="45.8025723" lon="13.6510007"><ele>162.8</ele><time>2026-04-06T16:22:14.986Z</time></trkpt><trkpt lat="45.8025634" lon="13.6508534"><ele>162.60000000000002</ele><time>2026-04-06T16:22:15.965Z</time></trkpt><trkpt lat="45.8025532" lon="13.6507124"><ele>162.39999999999998</ele><time>2026-04-06T16:22:16.962Z</time></trkpt><trkpt lat="45.8025466" lon="13.650575"><ele>162.2</ele><time>2026-04-06T16:22:17.976Z</time></trkpt><trkpt lat="45.8025498" lon="13.6504379"><ele>162.0</ele><time>2026-04-06T16:22:18.975Z</time></trkpt><trkpt lat="45.8025603" lon="13.6503031"><ele>161.6</ele><time>2026-04-06T16:22:19.978Z</time></trkpt><trkpt lat="45.8025641" lon="13.6501648"><ele>161.2</ele><time>2026-04-06T16:22:20.972Z</time></trkpt><trkpt lat="45.8025651" lon="13.6500247"><ele>160.8</ele><time>2026-04-06T16:22:21.971Z</time></trkpt><trkpt lat="45.8025547" lon="13.6498844"><ele>160.4</ele><time>2026-04-06T16:22:22.978Z</time></trkpt><trkpt lat="45.8025317" lon="13.649746"><ele>160.0</ele><time>2026-04-06T16:22:23.97Z</time></trkpt><trkpt lat="45.8025093" lon="13.6496088"><ele>160.0</ele><time>2026-04-06T16:22:24.977Z</time></trkpt><trkpt lat="45.802484" lon="13.6494707"><ele>160.0</ele><time>2026-04-06T16:22:25.967Z</time></trkpt><trkpt lat="45.8024553" lon="13.649346"><ele>160.0</ele><time>2026-04-06T16:22:26.972Z</time></trkpt><trkpt lat="45.8024366" lon="13.6492336"><ele>160.0</ele><time>2026-04-06T16:22:27.973Z</time></trkpt><trkpt lat="45.8024326" lon="13.6491288"><ele>160.0</ele><time>2026-04-06T16:22:28.974Z</time></trkpt><trkpt lat="45.8024403" lon="13.6490181"><ele>160.0</ele><time>2026-04-06T16:22:29.979Z</time></trkpt><trkpt lat="45.802474" lon="13.6489057"><ele>160.0</ele><time>2026-04-06T16:22:30.98Z</time></trkpt><trkpt lat="45.8025223" lon="13.6487871"><ele>160.0</ele><time>2026-04-06T16:22:31.966Z</time></trkpt><trkpt lat="45.8025718" lon="13.6486501"><ele>160.0</ele><time>2026-04-06T16:22:32.964Z</time></trkpt><trkpt lat="45.8026143" lon="13.6485217"><ele>160.0</ele><time>2026-04-06T16:22:33.973Z</time></trkpt><trkpt lat="45.8026492" lon="13.6483945"><ele>160.0</ele><time>2026-04-06T16:22:34.964Z</time></trkpt><trkpt lat="45.8026622" lon="13.6482683"><ele>159.0</ele><time>2026-04-06T16:22:35.98Z</time></trkpt><trkpt lat="45.8026704" lon="13.6481418"><ele>158.0</ele><time>2026-04-06T16:22:36.968Z</time></trkpt><trkpt lat="45.8026767" lon="13.6480169"><ele>157.0</ele><time>2026-04-06T16:22:37.963Z</time></trkpt><trkpt lat="45.8026706" lon="13.6479053"><ele>156.0</ele><time>2026-04-06T16:22:38.973Z</time></trkpt><trkpt lat="45.8026613" lon="13.6477894"><ele>155.0</ele><time>2026-04-06T16:22:39.978Z</time></trkpt><trkpt lat="45.8026583" lon="13.6476691"><ele>154.0</ele><time>2026-04-06T16:22:40.97Z</time></trkpt><trkpt lat="45.8026672" lon="13.6475369"><ele>152.8</ele><time>2026-04-06T16:22:41.973Z</time></trkpt><trkpt lat="45.8026809" lon="13.6473978"><ele>151.60000000000002</ele><time>2026-04-06T16:22:42.977Z</time></trkpt><trkpt lat="45.8027033" lon="13.6472586"><ele>150.4</ele><time>2026-04-06T16:22:43.988Z</time></trkpt><trkpt lat="45.8027298" lon="13.6471257"><ele>149.20000000000002</ele><time>2026-04-06T16:22:44.984Z</time></trkpt><trkpt lat="45.8027603" lon="13.6470039"><ele>148.0</ele><time>2026-04-06T16:22:45.99Z</time></trkpt><trkpt lat="45.802788" lon="13.6468866"><ele>148.0</ele><time>2026-04-06T16:22:46.976Z</time></trkpt><trkpt lat="45.802826" lon="13.6467763"><ele>148.0</ele><time>2026-04-06T16:22:47.973Z</time></trkpt><trkpt lat="45.8028629" lon="13.6466823"><ele>148.0</ele><time>2026-04-06T16:22:48.988Z</time></trkpt><trkpt lat="45.8028938" lon="13.6465809"><ele>148.0</ele><time>2026-04-06T16:22:49.982Z</time></trkpt><trkpt lat="45.8029041" lon="13.6464618"><ele>148.0</ele><time>2026-04-06T16:22:50.996Z</time></trkpt><trkpt lat="45.802899" lon="13.6463432"><ele>148.0</ele><time>2026-04-06T16:22:51.967Z</time></trkpt><trkpt lat="45.8028753" lon="13.6462349"><ele>148.16666666666669</ele><time>2026-04-06T16:22:52.976Z</time></trkpt><trkpt lat="45.8028512" lon="13.6461197"><ele>148.33333333333334</ele><time>2026-04-06T16:22:53.96Z</time></trkpt><trkpt lat="45.8028328" lon="13.6460049"><ele>148.5</ele><time>2026-04-06T16:22:54.977Z</time></trkpt><trkpt lat="45.8028311" lon="13.6458887"><ele>148.66666666666666</ele><time>2026-04-06T16:22:55.966Z</time></trkpt><trkpt lat="45.8028313" lon="13.645767"><ele>148.83333333333331</ele><time>2026-04-06T16:22:56.966Z</time></trkpt><trkpt lat="45.8028314" lon="13.6456467"><ele>149.0</ele><time>2026-04-06T16:22:57.972Z</time></trkpt><trkpt lat="45.8028286" lon="13.6455198"><ele>149.0</ele><time>2026-04-06T16:22:58.972Z</time></trkpt><trkpt lat="45.8028193" lon="13.6453922"><ele>149.0</ele><time>2026-04-06T16:22:59.971Z</time></trkpt><trkpt lat="45.8028088" lon="13.6452764"><ele>149.0</ele><time>2026-04-06T16:23:00.985Z</time></trkpt><trkpt lat="45.8027989" lon="13.6451681"><ele>149.0</ele><time>2026-04-06T16:23:01.979Z</time></trkpt><trkpt lat="45.8027964" lon="13.6450647"><ele>149.0</ele><time>2026-04-06T16:23:02.985Z</time></trkpt><trkpt lat="45.8028635" lon="13.6449186"><ele>149.0</ele><time>2026-04-06T16:23:04.987Z</time></trkpt><trkpt lat="45.8029498" lon="13.6448418"><ele>149.2</ele><time>2026-04-06T16:23:06.962Z</time></trkpt><trkpt lat="45.8030789" lon="13.6447762"><ele>149.4</ele><time>2026-04-06T16:23:08.972Z</time></trkpt><trkpt lat="45.8031596" lon="13.6447243"><ele>149.6</ele><time>2026-04-06T16:23:09.96Z</time></trkpt><trkpt lat="45.8032356" lon="13.6446619"><ele>149.8</ele><time>2026-04-06T16:23:10.966Z</time></trkpt><trkpt lat="45.8033128" lon="13.6445893"><ele>150.0</ele><time>2026-04-06T16:23:11.963Z</time></trkpt><trkpt lat="45.8033858" lon="13.6445004"><ele>148.8</ele><time>2026-04-06T16:23:12.965Z</time></trkpt><trkpt lat="45.8034532" lon="13.6444043"><ele>147.6</ele><time>2026-04-06T16:23:13.969Z</time></trkpt><trkpt lat="45.8035216" lon="13.6443045"><ele>146.4</ele><time>2026-04-06T16:23:14.981Z</time></trkpt><trkpt lat="45.8035959" lon="13.644228"><ele>145.2</ele><time>2026-04-06T16:23:15.979Z</time></trkpt><trkpt lat="45.8036705" lon="13.6441686"><ele>144.0</ele><time>2026-04-06T16:23:16.984Z</time></trkpt><trkpt lat="45.8037398" lon="13.6440989"><ele>143.66666666666666</ele><time>2026-04-06T16:23:17.984Z</time></trkpt><trkpt lat="45.8037955" lon="13.6440244"><ele>143.33333333333334</ele><time>2026-04-06T16:23:18.994Z</time></trkpt><trkpt lat="45.8038335" lon="13.6439114"><ele>143.0</ele><time>2026-04-06T16:23:19.968Z</time></trkpt><trkpt lat="45.8038593" lon="13.6438019"><ele>142.66666666666669</ele><time>2026-04-06T16:23:20.971Z</time></trkpt><trkpt lat="45.8038799" lon="13.6436962"><ele>142.33333333333334</ele><time>2026-04-06T16:23:21.967Z</time></trkpt><trkpt lat="45.8038853" lon="13.6436037"><ele>142.0</ele><time>2026-04-06T16:23:22.976Z</time></trkpt><trkpt lat="45.8038436" lon="13.6434659"><ele>140.79999999999998</ele><time>2026-04-06T16:23:24.964Z</time></trkpt><trkpt lat="45.8038029" lon="13.6433913"><ele>139.6</ele><time>2026-04-06T16:23:25.968Z</time></trkpt><trkpt lat="45.8037583" lon="13.6433183"><ele>138.39999999999998</ele><time>2026-04-06T16:23:26.974Z</time></trkpt><trkpt lat="45.8036908" lon="13.6431937"><ele>137.2</ele><time>2026-04-06T16:23:28.972Z</time></trkpt><trkpt lat="45.803665" lon="13.6429885"><ele>136.0</ele><time>2026-04-06T16:23:30.961Z</time></trkpt><trkpt lat="45.8036572" lon="13.6428605"><ele>136.0</ele><time>2026-04-06T16:23:31.972Z</time></trkpt><trkpt lat="45.8036192" lon="13.6427328"><ele>136.0</ele><time>2026-04-06T16:23:32.967Z</time></trkpt><trkpt lat="45.8035731" lon="13.6426142"><ele>136.0</ele><time>2026-04-06T16:23:33.964Z</time></trkpt><trkpt lat="45.8035327" lon="13.6425128"><ele>136.0</ele><time>2026-04-06T16:23:34.975Z</time></trkpt><trkpt lat="45.8034923" lon="13.6424309"><ele>136.0</ele><time>2026-04-06T16:23:35.964Z</time></trkpt><trkpt lat="45.8034382" lon="13.6423672"><ele>136.0</ele><time>2026-04-06T16:23:36.992Z</time></trkpt><trkpt lat="45.8033703" lon="13.6423045"><ele>136.0</ele><time>2026-04-06T16:23:37.964Z</time></trkpt><trkpt lat="45.8032961" lon="13.6422372"><ele>136.0</ele><time>2026-04-06T16:23:38.969Z</time></trkpt><trkpt lat="45.8032341" lon="13.6421402"><ele>136.0</ele><time>2026-04-06T16:23:39.969Z</time></trkpt><trkpt lat="45.8031783" lon="13.6420253"><ele>136.0</ele><time>2026-04-06T16:23:40.962Z</time></trkpt><trkpt lat="45.8031216" lon="13.6419164"><ele>136.0</ele><time>2026-04-06T16:23:41.97Z</time></trkpt><trkpt lat="45.8030528" lon="13.6418339"><ele>135.75</ele><time>2026-04-06T16:23:42.969Z</time></trkpt><trkpt lat="45.8029742" lon="13.641756"><ele>135.5</ele><time>2026-04-06T16:23:43.968Z</time></trkpt><trkpt lat="45.8028822" lon="13.641675"><ele>135.25</ele><time>2026-04-06T16:23:44.978Z</time></trkpt><trkpt lat="45.8027759" lon="13.6415881"><ele>135.0</ele><time>2026-04-06T16:23:45.967Z</time></trkpt><trkpt lat="45.8026674" lon="13.6414963"><ele>136.8</ele><time>2026-04-06T16:23:46.979Z</time></trkpt><trkpt lat="45.802571" lon="13.6414211"><ele>138.6</ele><time>2026-04-06T16:23:47.968Z</time></trkpt><trkpt lat="45.8024712" lon="13.641375"><ele>140.4</ele><time>2026-04-06T16:23:48.982Z</time></trkpt><trkpt lat="45.8023752" lon="13.6413546"><ele>142.2</ele><time>2026-04-06T16:23:49.974Z</time></trkpt><trkpt lat="45.802288" lon="13.641326"><ele>144.0</ele><time>2026-04-06T16:23:50.978Z</time></trkpt><trkpt lat="45.8022236" lon="13.641254"><ele>144.0</ele><time>2026-04-06T16:23:51.986Z</time></trkpt><trkpt lat="45.8021812" lon="13.6411548"><ele>144.0</ele><time>2026-04-06T16:23:52.979Z</time></trkpt><trkpt lat="45.8021452" lon="13.641035"><ele>144.0</ele><time>2026-04-06T16:23:53.977Z</time></trkpt><trkpt lat="45.8020958" lon="13.6408977"><ele>144.0</ele><time>2026-04-06T16:23:54.971Z</time></trkpt><trkpt lat="45.8020307" lon="13.6407681"><ele>144.0</ele><time>2026-04-06T16:23:55.972Z</time></trkpt><trkpt lat="45.8019588" lon="13.6406501"><ele>143.66666666666666</ele><time>2026-04-06T16:23:56.977Z</time></trkpt><trkpt lat="45.8018915" lon="13.6405471"><ele>143.33333333333334</ele><time>2026-04-06T16:23:57.98Z</time></trkpt><trkpt lat="45.8018397" lon="13.6404682"><ele>143.0</ele><time>2026-04-06T16:23:58.978Z</time></trkpt><trkpt lat="45.8018011" lon="13.6403842"><ele>142.66666666666669</ele><time>2026-04-06T16:23:59.987Z</time></trkpt><trkpt lat="45.8017724" lon="13.6402741"><ele>142.33333333333334</ele><time>2026-04-06T16:24:00.978Z</time></trkpt><trkpt lat="45.8017524" lon="13.640142"><ele>142.0</ele><time>2026-04-06T16:24:01.962Z</time></trkpt><trkpt lat="45.8017329" lon="13.6400098"><ele>143.6</ele><time>2026-04-06T16:24:02.97Z</time></trkpt><trkpt lat="45.8017" lon="13.639872"><ele>145.2</ele><time>2026-04-06T16:24:03.969Z</time></trkpt><trkpt lat="45.8016587" lon="13.6397396"><ele>146.8</ele><time>2026-04-06T16:24:04.984Z</time></trkpt><trkpt lat="45.8016124" lon="13.6396202"><ele>148.4</ele><time>2026-04-06T16:24:05.976Z</time></trkpt><trkpt lat="45.8015645" lon="13.6395197"><ele>150.0</ele><time>2026-04-06T16:24:06.995Z</time></trkpt><trkpt lat="45.8015155" lon="13.6394398"><ele>150.0</ele><time>2026-04-06T16:24:07.991Z</time></trkpt><trkpt lat="45.8014593" lon="13.6393853"><ele>150.0</ele><time>2026-04-06T16:24:08.993Z</time></trkpt><trkpt lat="45.801379" lon="13.6393451"><ele>150.0</ele><time>2026-04-06T16:24:09.979Z</time></trkpt><trkpt lat="45.8012998" lon="13.6393092"><ele>150.0</ele><time>2026-04-06T16:24:10.968Z</time></trkpt><trkpt lat="45.8012268" lon="13.6392441"><ele>150.0</ele><time>2026-04-06T16:24:11.981Z</time></trkpt><trkpt lat="45.8011682" lon="13.6391437"><ele>150.0</ele><time>2026-04-06T16:24:12.97Z</time></trkpt><trkpt lat="45.8011142" lon="13.6390193"><ele>150.0</ele><time>2026-04-06T16:24:13.972Z</time></trkpt><trkpt lat="45.801067" lon="13.6388774"><ele>150.0</ele><time>2026-04-06T16:24:14.983Z</time></trkpt><trkpt lat="45.8010077" lon="13.6387336"><ele>150.0</ele><time>2026-04-06T16:24:15.988Z</time></trkpt><trkpt lat="45.8009584" lon="13.6386213"><ele>150.0</ele><time>2026-04-06T16:24:16.988Z</time></trkpt><trkpt lat="45.8009362" lon="13.6385193"><ele>150.0</ele><time>2026-04-06T16:24:17.992Z</time></trkpt><trkpt lat="45.8009495" lon="13.6384046"><ele>150.2</ele><time>2026-04-06T16:24:18.971Z</time></trkpt><trkpt lat="45.8009796" lon="13.6382936"><ele>150.4</ele><time>2026-04-06T16:24:19.968Z</time></trkpt><trkpt lat="45.8010385" lon="13.6381805"><ele>150.6</ele><time>2026-04-06T16:24:20.976Z</time></trkpt><trkpt lat="45.8011151" lon="13.6380662"><ele>150.8</ele><time>2026-04-06T16:24:21.963Z</time></trkpt><trkpt lat="45.8012011" lon="13.6379439"><ele>151.0</ele><time>2026-04-06T16:24:22.992Z</time></trkpt><trkpt lat="45.8012763" lon="13.6378231"><ele>151.66666666666669</ele><time>2026-04-06T16:24:23.977Z</time></trkpt><trkpt lat="45.8013379" lon="13.6377077"><ele>152.33333333333334</ele><time>2026-04-06T16:24:24.99Z</time></trkpt><trkpt lat="45.8013826" lon="13.6375911"><ele>153.0</ele><time>2026-04-06T16:24:25.99Z</time></trkpt><trkpt lat="45.8014077" lon="13.6374808"><ele>153.66666666666666</ele><time>2026-04-06T16:24:26.983Z</time></trkpt><trkpt lat="45.8014104" lon="13.6373561"><ele>154.33333333333331</ele><time>2026-04-06T16:24:27.984Z</time></trkpt><trkpt lat="45.8014055" lon="13.6372311"><ele>155.0</ele><time>2026-04-06T16:24:28.979Z</time></trkpt><trkpt lat="45.8013934" lon="13.6370871"><ele>155.0</ele><time>2026-04-06T16:24:29.982Z</time></trkpt><trkpt lat="45.8013833" lon="13.6369439"><ele>155.0</ele><time>2026-04-06T16:24:30.991Z</time></trkpt><trkpt lat="45.8013967" lon="13.6368021"><ele>155.0</ele><time>2026-04-06T16:24:31.989Z</time></trkpt><trkpt lat="45.8014369" lon="13.6366566"><ele>155.0</ele><time>2026-04-06T16:24:32.974Z</time></trkpt><trkpt lat="45.8014811" lon="13.6364968"><ele>155.0</ele><time>2026-04-06T16:24:33.991Z</time></trkpt><trkpt lat="45.8014993" lon="13.6363403"><ele>155.0</ele><time>2026-04-06T16:24:34.985Z</time></trkpt><trkpt lat="45.8015013" lon="13.6361967"><ele>155.0</ele><time>2026-04-06T16:24:35.987Z</time></trkpt><trkpt lat="45.8014852" lon="13.6360535"><ele>155.0</ele><time>2026-04-06T16:24:36.991Z</time></trkpt><trkpt lat="45.80144" lon="13.63592"><ele>155.0</ele><time>2026-04-06T16:24:37.979Z</time></trkpt><trkpt lat="45.8013914" lon="13.6357864"><ele>155.0</ele><time>2026-04-06T16:24:39.002Z</time></trkpt><trkpt lat="45.8013483" lon="13.6356488"><ele>155.6</ele><time>2026-04-06T16:24:39.979Z</time></trkpt><trkpt lat="45.8012932" lon="13.6355198"><ele>156.2</ele><time>2026-04-06T16:24:40.994Z</time></trkpt><trkpt lat="45.8012112" lon="13.6354047"><ele>156.8</ele><time>2026-04-06T16:24:41.98Z</time></trkpt><trkpt lat="45.8011228" lon="13.6353288"><ele>157.4</ele><time>2026-04-06T16:24:42.978Z</time></trkpt><trkpt lat="45.8010217" lon="13.6352694"><ele>158.0</ele><time>2026-04-06T16:24:43.965Z</time></trkpt><trkpt lat="45.8009271" lon="13.6351953"><ele>158.60000000000002</ele><time>2026-04-06T16:24:44.987Z</time></trkpt><trkpt lat="45.8008323" lon="13.6351137"><ele>159.20000000000002</ele><time>2026-04-06T16:24:45.969Z</time></trkpt><trkpt lat="45.8007468" lon="13.6350444"><ele>159.8</ele><time>2026-04-06T16:24:46.971Z</time></trkpt><trkpt lat="45.8006797" lon="13.6349666"><ele>160.4</ele><time>2026-04-06T16:24:47.982Z</time></trkpt><trkpt lat="45.8006299" lon="13.6348638"><ele>161.0</ele><time>2026-04-06T16:24:48.978Z</time></trkpt><trkpt lat="45.8005816" lon="13.6347508"><ele>161.0</ele><time>2026-04-06T16:24:49.977Z</time></trkpt><trkpt lat="45.8005144" lon="13.6346479"><ele>161.0</ele><time>2026-04-06T16:24:50.978Z</time></trkpt><trkpt lat="45.8004336" lon="13.6345521"><ele>161.0</ele><time>2026-04-06T16:24:51.977Z</time></trkpt><trkpt lat="45.8003664" lon="13.6344569"><ele>161.0</ele><time>2026-04-06T16:24:52.981Z</time></trkpt><trkpt lat="45.800313" lon="13.6343593"><ele>161.0</ele><time>2026-04-06T16:24:53.982Z</time></trkpt><trkpt lat="45.800281" lon="13.634279"><ele>161.0</ele><time>2026-04-06T16:24:54.987Z</time></trkpt><trkpt lat="45.800295" lon="13.6341531"><ele>163.8</ele><time>2026-04-06T16:24:56.97Z</time></trkpt><trkpt lat="45.800398" lon="13.634091"><ele>166.60000000000002</ele><time>2026-04-06T16:24:58.975Z</time></trkpt><trkpt lat="45.8004866" lon="13.634078"><ele>169.4</ele><time>2026-04-06T16:24:59.976Z</time></trkpt><trkpt lat="45.8005968" lon="13.6340408"><ele>172.2</ele><time>2026-04-06T16:25:00.969Z</time></trkpt><trkpt lat="45.8006989" lon="13.6339634"><ele>175.0</ele><time>2026-04-06T16:25:01.966Z</time></trkpt><trkpt lat="45.8007992" lon="13.633878"><ele>175.0</ele><time>2026-04-06T16:25:02.973Z</time></trkpt><trkpt lat="45.8008958" lon="13.6337984"><ele>175.0</ele><time>2026-04-06T16:25:03.97Z</time></trkpt><trkpt lat="45.8009716" lon="13.633733"><ele>175.0</ele><time>2026-04-06T16:25:04.986Z</time></trkpt><trkpt lat="45.8010316" lon="13.6336417"><ele>175.0</ele><time>2026-04-06T16:25:05.988Z</time></trkpt><trkpt lat="45.801065" lon="13.6335331"><ele>175.0</ele><time>2026-04-06T16:25:06.967Z</time></trkpt><trkpt lat="45.8010806" lon="13.6334314"><ele>175.0</ele><time>2026-04-06T16:25:07.974Z</time></trkpt><trkpt lat="45.8010844" lon="13.6333331"><ele>174.66666666666669</ele><time>2026-04-06T16:25:08.977Z</time></trkpt><trkpt lat="45.8010783" lon="13.6332387"><ele>174.33333333333334</ele><time>2026-04-06T16:25:09.973Z</time></trkpt><trkpt lat="45.8010706" lon="13.6331386"><ele>174.0</ele><time>2026-04-06T16:25:10.987Z</time></trkpt><trkpt lat="45.8010653" lon="13.6330289"><ele>173.66666666666666</ele><time>2026-04-06T16:25:11.978Z</time></trkpt><trkpt lat="45.8010494" lon="13.6329414"><ele>173.33333333333331</ele><time>2026-04-06T16:25:12.995Z</time></trkpt><trkpt lat="45.8009801" lon="13.6328582"><ele>173.0</ele><time>2026-04-06T16:25:14.975Z</time></trkpt><trkpt lat="45.8008786" lon="13.6328524"><ele>175.33333333333331</ele><time>2026-04-06T16:25:16.979Z</time></trkpt><trkpt lat="45.8008043" lon="13.6328623"><ele>177.66666666666666</ele><time>2026-04-06T16:25:17.981Z</time></trkpt><trkpt lat="45.8007217" lon="13.6328742"><ele>180.0</ele><time>2026-04-06T16:25:18.981Z</time></trkpt><trkpt lat="45.8006307" lon="13.6328851"><ele>182.33333333333334</ele><time>2026-04-06T16:25:19.972Z</time></trkpt><trkpt lat="45.8005337" lon="13.6328894"><ele>184.66666666666669</ele><time>2026-04-06T16:25:20.976Z</time></trkpt><trkpt lat="45.8004446" lon="13.6328624"><ele>187.0</ele><time>2026-04-06T16:25:21.987Z</time></trkpt><trkpt lat="45.8003632" lon="13.6328141"><ele>188.33333333333334</ele><time>2026-04-06T16:25:22.98Z</time></trkpt><trkpt lat="45.8002861" lon="13.6327496"><ele>189.66666666666669</ele><time>2026-04-06T16:25:23.977Z</time></trkpt><trkpt lat="45.8002097" lon="13.6326628"><ele>191.0</ele><time>2026-04-06T16:25:24.991Z</time></trkpt><trkpt lat="45.8001356" lon="13.6325733"><ele>192.33333333333334</ele><time>2026-04-06T16:25:25.992Z</time></trkpt><trkpt lat="45.8000737" lon="13.632505"><ele>193.66666666666666</ele><time>2026-04-06T16:25:26.988Z</time></trkpt><trkpt lat="45.8000309" lon="13.6324001"><ele>195.0</ele><time>2026-04-06T16:25:28.98Z</time></trkpt><trkpt lat="45.8000775" lon="13.6323324"><ele>195.0</ele><time>2026-04-06T16:25:30.972Z</time></trkpt><trkpt lat="45.8001432" lon="13.6323192"><ele>195.0</ele><time>2026-04-06T16:25:31.968Z</time></trkpt><trkpt lat="45.8002157" lon="13.6323079"><ele>195.0</ele><time>2026-04-06T16:25:32.977Z</time></trkpt><trkpt lat="45.8003002" lon="13.6322455"><ele>195.0</ele><time>2026-04-06T16:25:33.997Z</time></trkpt><trkpt lat="45.8003862" lon="13.6321434"><ele>195.0</ele><time>2026-04-06T16:25:34.974Z</time></trkpt><trkpt lat="45.8004804" lon="13.6320374"><ele>196.66666666666666</ele><time>2026-04-06T16:25:35.978Z</time></trkpt><trkpt lat="45.8005553" lon="13.6319377"><ele>198.33333333333331</ele><time>2026-04-06T16:25:36.988Z</time></trkpt><trkpt lat="45.8006028" lon="13.6318492"><ele>200.0</ele><time>2026-04-06T16:25:37.981Z</time></trkpt><trkpt lat="45.8006279" lon="13.6317663"><ele>201.66666666666666</ele><time>2026-04-06T16:25:38.99Z</time></trkpt><trkpt lat="45.8006242" lon="13.631633"><ele>203.33333333333331</ele><time>2026-04-06T16:25:40.98Z</time></trkpt><trkpt lat="45.8006035" lon="13.6315074"><ele>205.0</ele><time>2026-04-06T16:25:42.975Z</time></trkpt><trkpt lat="45.8005788" lon="13.6313801"><ele>204.99999999999997</ele><time>2026-04-06T16:25:44.975Z</time></trkpt><trkpt lat="45.8005709" lon="13.6312505"><ele>205.0</ele><time>2026-04-06T16:25:46.987Z</time></trkpt><trkpt lat="45.8005334" lon="13.6311204"><ele>205.0</ele><time>2026-04-06T16:25:48.996Z</time></trkpt><trkpt lat="45.8004997" lon="13.6310396"><ele>205.0</ele><time>2026-04-06T16:25:49.968Z</time></trkpt><trkpt lat="45.8004692" lon="13.6309498"><ele>204.99999999999997</ele><time>2026-04-06T16:25:50.988Z</time></trkpt><trkpt lat="45.8004371" lon="13.6308599"><ele>205.0</ele><time>2026-04-06T16:25:51.991Z</time></trkpt><trkpt lat="45.8004049" lon="13.6307655"><ele>206.16666666666666</ele><time>2026-04-06T16:25:52.983Z</time></trkpt><trkpt lat="45.8003686" lon="13.6306581"><ele>207.33333333333331</ele><time>2026-04-06T16:25:53.99Z</time></trkpt><trkpt lat="45.8003332" lon="13.6305558"><ele>208.5</ele><time>2026-04-06T16:25:54.975Z</time></trkpt><trkpt lat="45.8003035" lon="13.6304493"><ele>209.66666666666669</ele><time>2026-04-06T16:25:55.982Z</time></trkpt><trkpt lat="45.8002962" lon="13.6303309"><ele>210.83333333333334</ele><time>2026-04-06T16:25:56.984Z</time></trkpt><trkpt lat="45.8003094" lon="13.6302147"><ele>212.0</ele><time>2026-04-06T16:25:57.983Z</time></trkpt><trkpt lat="45.800353" lon="13.6301002"><ele>212.00000000000003</ele><time>2026-04-06T16:25:58.969Z</time></trkpt><trkpt lat="45.8004009" lon="13.629981"><ele>212.0</ele><time>2026-04-06T16:25:59.969Z</time></trkpt><trkpt lat="45.800452" lon="13.629867"><ele>212.0</ele><time>2026-04-06T16:26:00.98Z</time></trkpt><trkpt lat="45.8004987" lon="13.6297527"><ele>212.0</ele><time>2026-04-06T16:26:01.967Z</time></trkpt><trkpt lat="45.8005311" lon="13.6296415"><ele>212.00000000000003</ele><time>2026-04-06T16:26:02.982Z</time></trkpt><trkpt lat="45.8005493" lon="13.6295408"><ele>212.0</ele><time>2026-04-06T16:26:03.97Z</time></trkpt><trkpt lat="45.8005611" lon="13.6294315"><ele>212.0</ele><time>2026-04-06T16:26:04.97Z</time></trkpt><trkpt lat="45.8005577" lon="13.629318"><ele>212.0</ele><time>2026-04-06T16:26:05.969Z</time></trkpt><trkpt lat="45.8005466" lon="13.6291823"><ele>212.0</ele><time>2026-04-06T16:26:06.965Z</time></trkpt><trkpt lat="45.8005244" lon="13.6290237"><ele>212.0</ele><time>2026-04-06T16:26:07.963Z</time></trkpt><trkpt lat="45.800506" lon="13.6288725"><ele>212.0</ele><time>2026-04-06T16:26:08.977Z</time></trkpt><trkpt lat="45.8004899" lon="13.6287399"><ele>211.2</ele><time>2026-04-06T16:26:09.971Z</time></trkpt><trkpt lat="45.800468" lon="13.6286112"><ele>210.39999999999998</ele><time>2026-04-06T16:26:10.971Z</time></trkpt><trkpt lat="45.8004384" lon="13.6284882"><ele>209.60000000000002</ele><time>2026-04-06T16:26:11.981Z</time></trkpt><trkpt lat="45.8003925" lon="13.6283742"><ele>208.8</ele><time>2026-04-06T16:26:12.99Z</time></trkpt><trkpt lat="45.8003291" lon="13.6282694"><ele>208.0</ele><time>2026-04-06T16:26:13.977Z</time></trkpt><trkpt lat="45.8002511" lon="13.6281743"><ele>209.8</ele><time>2026-04-06T16:26:14.972Z</time></trkpt><trkpt lat="45.8001665" lon="13.6280761"><ele>211.60000000000002</ele><time>2026-04-06T16:26:15.97Z</time></trkpt><trkpt lat="45.8000912" lon="13.6279745"><ele>213.39999999999998</ele><time>2026-04-06T16:26:16.972Z</time></trkpt><trkpt lat="45.8000252" lon="13.6278717"><ele>215.2</ele><time>2026-04-06T16:26:17.971Z</time></trkpt><trkpt lat="45.7999641" lon="13.6277624"><ele>217.0</ele><time>2026-04-06T16:26:18.977Z</time></trkpt><trkpt lat="45.7999092" lon="13.6276481"><ele>217.0</ele><time>2026-04-06T16:26:19.972Z</time></trkpt><trkpt lat="45.7998667" lon="13.6275262"><ele>217.0</ele><time>2026-04-06T16:26:20.973Z</time></trkpt><trkpt lat="45.7998298" lon="13.6274014"><ele>217.0</ele><time>2026-04-06T16:26:21.983Z</time></trkpt><trkpt lat="45.7997914" lon="13.6272729"><ele>217.0</ele><time>2026-04-06T16:26:22.975Z</time></trkpt><trkpt lat="45.7997602" lon="13.6271537"><ele>217.0</ele><time>2026-04-06T16:26:23.97Z</time></trkpt><trkpt lat="45.7997462" lon="13.6270403"><ele>215.39999999999998</ele><time>2026-04-06T16:26:24.975Z</time></trkpt><trkpt lat="45.7997459" lon="13.6269199"><ele>213.79999999999998</ele><time>2026-04-06T16:26:25.976Z</time></trkpt><trkpt lat="45.799766" lon="13.6267907"><ele>212.2</ele><time>2026-04-06T16:26:26.969Z</time></trkpt><trkpt lat="45.7998088" lon="13.6266518"><ele>210.6</ele><time>2026-04-06T16:26:27.963Z</time></trkpt><trkpt lat="45.7998553" lon="13.6265117"><ele>209.0</ele><time>2026-04-06T16:26:28.966Z</time></trkpt><trkpt lat="45.799902" lon="13.6263781"><ele>209.0</ele><time>2026-04-06T16:26:29.965Z</time></trkpt><trkpt lat="45.7999452" lon="13.6262481"><ele>209.0</ele><time>2026-04-06T16:26:30.963Z</time></trkpt><trkpt lat="45.7999856" lon="13.6261167"><ele>209.0</ele><time>2026-04-06T16:26:31.963Z</time></trkpt><trkpt lat="45.8000253" lon="13.6259903"><ele>209.0</ele><time>2026-04-06T16:26:32.974Z</time></trkpt><trkpt lat="45.8000703" lon="13.625863"><ele>209.0</ele><time>2026-04-06T16:26:33.969Z</time></trkpt><trkpt lat="45.8001109" lon="13.6257339"><ele>209.39999999999998</ele><time>2026-04-06T16:26:34.969Z</time></trkpt><trkpt lat="45.8001511" lon="13.6256028"><ele>209.8</ele><time>2026-04-06T16:26:35.979Z</time></trkpt><trkpt lat="45.8001874" lon="13.6254754"><ele>210.2</ele><time>2026-04-06T16:26:36.965Z</time></trkpt><trkpt lat="45.8002195" lon="13.6253521"><ele>210.60000000000002</ele><time>2026-04-06T16:26:37.965Z</time></trkpt><trkpt lat="45.8002397" lon="13.6252306"><ele>211.0</ele><time>2026-04-06T16:26:38.962Z</time></trkpt><trkpt lat="45.8002529" lon="13.6251217"><ele>210.49999999999997</ele><time>2026-04-06T16:26:39.969Z</time></trkpt><trkpt lat="45.8002579" lon="13.6250193"><ele>210.0</ele><time>2026-04-06T16:26:40.976Z</time></trkpt><trkpt lat="45.8002468" lon="13.6249169"><ele>209.5</ele><time>2026-04-06T16:26:41.97Z</time></trkpt><trkpt lat="45.8002128" lon="13.6248092"><ele>209.0</ele><time>2026-04-06T16:26:42.995Z</time></trkpt><trkpt lat="45.8001673" lon="13.624692"><ele>208.49999999999997</ele><time>2026-04-06T16:26:43.965Z</time></trkpt><trkpt lat="45.8001102" lon="13.6245803"><ele>208.0</ele><time>2026-04-06T16:26:44.979Z</time></trkpt><trkpt lat="45.8000579" lon="13.6244774"><ele>206.16666666666666</ele><time>2026-04-06T16:26:45.972Z</time></trkpt><trkpt lat="45.8000204" lon="13.6243796"><ele>204.33333333333331</ele><time>2026-04-06T16:26:46.982Z</time></trkpt><trkpt lat="45.7999973" lon="13.6242788"><ele>202.5</ele><time>2026-04-06T16:26:47.985Z</time></trkpt><trkpt lat="45.7999886" lon="13.6241803"><ele>200.66666666666669</ele><time>2026-04-06T16:26:48.982Z</time></trkpt><trkpt lat="45.8000055" lon="13.6240762"><ele>198.83333333333334</ele><time>2026-04-06T16:26:49.967Z</time></trkpt><trkpt lat="45.8000348" lon="13.6239883"><ele>197.0</ele><time>2026-04-06T16:26:50.969Z</time></trkpt><trkpt lat="45.8001012" lon="13.623861"><ele>197.0</ele><time>2026-04-06T16:26:52.983Z</time></trkpt><trkpt lat="45.8001832" lon="13.6238156"><ele>197.0</ele><time>2026-04-06T16:26:54.976Z</time></trkpt><trkpt lat="45.8002155" lon="13.6237301"><ele>197.0</ele><time>2026-04-06T16:26:56.968Z</time></trkpt><trkpt lat="45.8001772" lon="13.6235676"><ele>197.0</ele><time>2026-04-06T16:26:58.97Z</time></trkpt><trkpt lat="45.8001435" lon="13.6234453"><ele>197.0</ele><time>2026-04-06T16:26:59.969Z</time></trkpt><trkpt lat="45.8001142" lon="13.6233192"><ele>196.0</ele><time>2026-04-06T16:27:00.966Z</time></trkpt><trkpt lat="45.8000765" lon="13.6231859"><ele>195.0</ele><time>2026-04-06T16:27:01.982Z</time></trkpt><trkpt lat="45.8000091" lon="13.6230362"><ele>194.0</ele><time>2026-04-06T16:27:02.983Z</time></trkpt><trkpt lat="45.7999174" lon="13.6228807"><ele>193.0</ele><time>2026-04-06T16:27:03.969Z</time></trkpt><trkpt lat="45.7998126" lon="13.6227102"><ele>190.33333333333331</ele><time>2026-04-06T16:27:04.968Z</time></trkpt><trkpt lat="45.7997072" lon="13.6225318"><ele>187.66666666666666</ele><time>2026-04-06T16:27:05.965Z</time></trkpt><trkpt lat="45.7996015" lon="13.622353"><ele>185.0</ele><time>2026-04-06T16:27:06.968Z</time></trkpt><trkpt lat="45.7995047" lon="13.6221767"><ele>185.0</ele><time>2026-04-06T16:27:07.966Z</time></trkpt><trkpt lat="45.7994092" lon="13.622008"><ele>185.0</ele><time>2026-04-06T16:27:08.975Z</time></trkpt><trkpt lat="45.7993157" lon="13.6218297"><ele>185.0</ele><time>2026-04-06T16:27:09.973Z</time></trkpt><trkpt lat="45.7992159" lon="13.6216485"><ele>182.66666666666666</ele><time>2026-04-06T16:27:10.964Z</time></trkpt><trkpt lat="45.7991106" lon="13.6214612"><ele>180.33333333333334</ele><time>2026-04-06T16:27:11.969Z</time></trkpt><trkpt lat="45.7990066" lon="13.6212857"><ele>178.0</ele><time>2026-04-06T16:27:12.976Z</time></trkpt><trkpt lat="45.7989089" lon="13.6211132"><ele>175.66666666666669</ele><time>2026-04-06T16:27:13.976Z</time></trkpt><trkpt lat="45.79881" lon="13.6209421"><ele>173.33333333333334</ele><time>2026-04-06T16:27:14.973Z</time></trkpt><trkpt lat="45.798712" lon="13.6207701"><ele>171.0</ele><time>2026-04-06T16:27:15.972Z</time></trkpt><trkpt lat="45.7986138" lon="13.6206024"><ele>171.0</ele><time>2026-04-06T16:27:16.964Z</time></trkpt><trkpt lat="45.7985208" lon="13.6204411"><ele>171.0</ele><time>2026-04-06T16:27:17.98Z</time></trkpt><trkpt lat="45.798435" lon="13.620292"><ele>171.0</ele><time>2026-04-06T16:27:18.968Z</time></trkpt><trkpt lat="45.7983576" lon="13.6201509"><ele>171.0</ele><time>2026-04-06T16:27:19.967Z</time></trkpt><trkpt lat="45.7982842" lon="13.6200124"><ele>170.75</ele><time>2026-04-06T16:27:20.971Z</time></trkpt><trkpt lat="45.7982086" lon="13.6198738"><ele>170.5</ele><time>2026-04-06T16:27:21.969Z</time></trkpt><trkpt lat="45.7981325" lon="13.6197259"><ele>170.25</ele><time>2026-04-06T16:27:22.968Z</time></trkpt><trkpt lat="45.7980524" lon="13.6195657"><ele>170.0</ele><time>2026-04-06T16:27:23.965Z</time></trkpt><trkpt lat="45.7979664" lon="13.619393"><ele>169.0</ele><time>2026-04-06T16:27:24.968Z</time></trkpt><trkpt lat="45.797879" lon="13.6192147"><ele>168.0</ele><time>2026-04-06T16:27:25.977Z</time></trkpt><trkpt lat="45.797787" lon="13.6190324"><ele>167.0</ele><time>2026-04-06T16:27:26.968Z</time></trkpt><trkpt lat="45.7976974" lon="13.6188531"><ele>168.0</ele><time>2026-04-06T16:27:27.969Z</time></trkpt><trkpt lat="45.7976127" lon="13.6186725"><ele>169.0</ele><time>2026-04-06T16:27:28.97Z</time></trkpt><trkpt lat="45.7975323" lon="13.6184984"><ele>170.0</ele><time>2026-04-06T16:27:29.97Z</time></trkpt><trkpt lat="45.7974537" lon="13.6183291"><ele>171.0</ele><time>2026-04-06T16:27:30.97Z</time></trkpt><trkpt lat="45.7973743" lon="13.6181613"><ele>168.75</ele><time>2026-04-06T16:27:31.97Z</time></trkpt><trkpt lat="45.7972956" lon="13.6179949"><ele>166.5</ele><time>2026-04-06T16:27:32.981Z</time></trkpt><trkpt lat="45.7972231" lon="13.6178373"><ele>164.25</ele><time>2026-04-06T16:27:33.966Z</time></trkpt><trkpt lat="45.7971593" lon="13.6176857"><ele>162.0</ele><time>2026-04-06T16:27:34.966Z</time></trkpt><trkpt lat="45.7971128" lon="13.6175378"><ele>161.0</ele><time>2026-04-06T16:27:35.968Z</time></trkpt><trkpt lat="45.7970867" lon="13.6173904"><ele>160.0</ele><time>2026-04-06T16:27:36.971Z</time></trkpt><trkpt lat="45.7970749" lon="13.6172429"><ele>159.0</ele><time>2026-04-06T16:27:37.973Z</time></trkpt><trkpt lat="45.7970786" lon="13.6170824"><ele>158.0</ele><time>2026-04-06T16:27:38.977Z</time></trkpt><trkpt lat="45.7971015" lon="13.6169147"><ele>157.0</ele><time>2026-04-06T16:27:39.966Z</time></trkpt><trkpt lat="45.7971315" lon="13.6167274"><ele>157.0</ele><time>2026-04-06T16:27:40.994Z</time></trkpt><trkpt lat="45.7971686" lon="13.6165282"><ele>157.0</ele><time>2026-04-06T16:27:41.98Z</time></trkpt><trkpt lat="45.7972038" lon="13.6163202"><ele>157.0</ele><time>2026-04-06T16:27:42.981Z</time></trkpt><trkpt lat="45.7972361" lon="13.6161208"><ele>157.0</ele><time>2026-04-06T16:27:43.978Z</time></trkpt><trkpt lat="45.7972681" lon="13.615925"><ele>157.0</ele><time>2026-04-06T16:27:44.976Z</time></trkpt><trkpt lat="45.7973012" lon="13.6157294"><ele>157.0</ele><time>2026-04-06T16:27:45.976Z</time></trkpt><trkpt lat="45.797331" lon="13.6155367"><ele>157.0</ele><time>2026-04-06T16:27:46.976Z</time></trkpt><trkpt lat="45.7973604" lon="13.6153411"><ele>157.0</ele><time>2026-04-06T16:27:47.96Z</time></trkpt><trkpt lat="45.7973905" lon="13.615146"><ele>157.0</ele><time>2026-04-06T16:27:48.972Z</time></trkpt><trkpt lat="45.7974261" lon="13.6149567"><ele>157.0</ele><time>2026-04-06T16:27:49.964Z</time></trkpt><trkpt lat="45.7974626" lon="13.6147739"><ele>157.0</ele><time>2026-04-06T16:27:50.978Z</time></trkpt><trkpt lat="45.797491" lon="13.614604"><ele>157.0</ele><time>2026-04-06T16:27:51.986Z</time></trkpt><trkpt lat="45.7975004" lon="13.6144437"><ele>157.4</ele><time>2026-04-06T16:27:52.969Z</time></trkpt><trkpt lat="45.7974975" lon="13.6142904"><ele>157.79999999999998</ele><time>2026-04-06T16:27:53.99Z</time></trkpt><trkpt lat="45.7974845" lon="13.6141513"><ele>158.2</ele><time>2026-04-06T16:27:54.988Z</time></trkpt><trkpt lat="45.7974569" lon="13.6140136"><ele>158.6</ele><time>2026-04-06T16:27:55.987Z</time></trkpt><trkpt lat="45.7974121" lon="13.613867"><ele>159.0</ele><time>2026-04-06T16:27:56.987Z</time></trkpt><trkpt lat="45.7973598" lon="13.6137109"><ele>159.5</ele><time>2026-04-06T16:27:57.992Z</time></trkpt><trkpt lat="45.7973017" lon="13.6135484"><ele>160.0</ele><time>2026-04-06T16:27:58.996Z</time></trkpt><trkpt lat="45.7972471" lon="13.6133877"><ele>160.5</ele><time>2026-04-06T16:27:59.973Z</time></trkpt><trkpt lat="45.7971853" lon="13.6132302"><ele>161.0</ele><time>2026-04-06T16:28:00.985Z</time></trkpt><trkpt lat="45.7971256" lon="13.6130722"><ele>161.0</ele><time>2026-04-06T16:28:01.978Z</time></trkpt><trkpt lat="45.7970613" lon="13.612901"><ele>161.0</ele><time>2026-04-06T16:28:02.979Z</time></trkpt><trkpt lat="45.7969954" lon="13.6127269"><ele>161.0</ele><time>2026-04-06T16:28:03.984Z</time></trkpt><trkpt lat="45.7969319" lon="13.6125529"><ele>161.0</ele><time>2026-04-06T16:28:04.979Z</time></trkpt><trkpt lat="45.7968703" lon="13.6123778"><ele>160.25</ele><time>2026-04-06T16:28:05.989Z</time></trkpt><trkpt lat="45.7968059" lon="13.6122025"><ele>159.5</ele><time>2026-04-06T16:28:06.99Z</time></trkpt><trkpt lat="45.7967404" lon="13.612022"><ele>158.75</ele><time>2026-04-06T16:28:07.981Z</time></trkpt><trkpt lat="45.796676" lon="13.6118409"><ele>158.0</ele><time>2026-04-06T16:28:08.987Z</time></trkpt><trkpt lat="45.7966165" lon="13.6116735"><ele>157.8</ele><time>2026-04-06T16:28:09.984Z</time></trkpt><trkpt lat="45.7965649" lon="13.6115189"><ele>157.60000000000002</ele><time>2026-04-06T16:28:10.987Z</time></trkpt><trkpt lat="45.7965229" lon="13.6113742"><ele>157.39999999999998</ele><time>2026-04-06T16:28:11.993Z</time></trkpt><trkpt lat="45.7964902" lon="13.6112346"><ele>157.2</ele><time>2026-04-06T16:28:12.984Z</time></trkpt><trkpt lat="45.7964635" lon="13.6110924"><ele>157.0</ele><time>2026-04-06T16:28:13.993Z</time></trkpt><trkpt lat="45.7964462" lon="13.6109478"><ele>157.5</ele><time>2026-04-06T16:28:14.981Z</time></trkpt><trkpt lat="45.7964382" lon="13.6107883"><ele>158.0</ele><time>2026-04-06T16:28:15.982Z</time></trkpt><trkpt lat="45.7964397" lon="13.6106111"><ele>158.5</ele><time>2026-04-06T16:28:16.988Z</time></trkpt><trkpt lat="45.796445" lon="13.6104364"><ele>159.0</ele><time>2026-04-06T16:28:17.985Z</time></trkpt><trkpt lat="45.7964469" lon="13.610269"><ele>159.4</ele><time>2026-04-06T16:28:18.998Z</time></trkpt><trkpt lat="45.7964473" lon="13.6101139"><ele>159.8</ele><time>2026-04-06T16:28:19.988Z</time></trkpt><trkpt lat="45.7964475" lon="13.6099635"><ele>160.20000000000002</ele><time>2026-04-06T16:28:20.987Z</time></trkpt><trkpt lat="45.7964483" lon="13.6098109"><ele>160.60000000000002</ele><time>2026-04-06T16:28:21.996Z</time></trkpt><trkpt lat="45.7964536" lon="13.6096515"><ele>161.0</ele><time>2026-04-06T16:28:22.979Z</time></trkpt><trkpt lat="45.7964561" lon="13.6094922"><ele>161.0</ele><time>2026-04-06T16:28:23.988Z</time></trkpt><trkpt lat="45.7964584" lon="13.6093432"><ele>161.0</ele><time>2026-04-06T16:28:24.98Z</time></trkpt><trkpt lat="45.7964574" lon="13.6092112"><ele>161.0</ele><time>2026-04-06T16:28:25.987Z</time></trkpt><trkpt lat="45.7964589" lon="13.6090919"><ele>161.0</ele><time>2026-04-06T16:28:26.989Z</time></trkpt><trkpt lat="45.796472" lon="13.6089785"><ele>161.0</ele><time>2026-04-06T16:28:27.989Z</time></trkpt><trkpt lat="45.7965027" lon="13.6088705"><ele>161.0</ele><time>2026-04-06T16:28:28.992Z</time></trkpt><trkpt lat="45.7965439" lon="13.6087603"><ele>161.75</ele><time>2026-04-06T16:28:30Z</time></trkpt><trkpt lat="45.7965999" lon="13.6086338"><ele>162.5</ele><time>2026-04-06T16:28:31Z</time></trkpt><trkpt lat="45.7966721" lon="13.608502"><ele>163.25</ele><time>2026-04-06T16:28:31.99Z</time></trkpt><trkpt lat="45.7967524" lon="13.6083679"><ele>164.0</ele><time>2026-04-06T16:28:32.992Z</time></trkpt><trkpt lat="45.7968357" lon="13.6082198"><ele>164.5</ele><time>2026-04-06T16:28:33.975Z</time></trkpt><trkpt lat="45.7969198" lon="13.6080493"><ele>165.0</ele><time>2026-04-06T16:28:34.988Z</time></trkpt><trkpt lat="45.7970053" lon="13.6078698"><ele>165.5</ele><time>2026-04-06T16:28:35.99Z</time></trkpt><trkpt lat="45.7970858" lon="13.6077239"><ele>166.0</ele><time>2026-04-06T16:28:37.001Z</time></trkpt><trkpt lat="45.797159" lon="13.6076045"><ele>166.0</ele><time>2026-04-06T16:28:37.995Z</time></trkpt><trkpt lat="45.7972321" lon="13.6074952"><ele>166.0</ele><time>2026-04-06T16:28:38.992Z</time></trkpt><trkpt lat="45.7973012" lon="13.6073801"><ele>166.0</ele><time>2026-04-06T16:28:40Z</time></trkpt><trkpt lat="45.7973743" lon="13.6072591"><ele>166.0</ele><time>2026-04-06T16:28:41.001Z</time></trkpt><trkpt lat="45.7974583" lon="13.6071463"><ele>166.0</ele><time>2026-04-06T16:28:41.992Z</time></trkpt><trkpt lat="45.7975577" lon="13.6070372"><ele>166.0</ele><time>2026-04-06T16:28:42.995Z</time></trkpt><trkpt lat="45.797664" lon="13.6069292"><ele>166.0</ele><time>2026-04-06T16:28:43.992Z</time></trkpt><trkpt lat="45.797776" lon="13.6068304"><ele>166.0</ele><time>2026-04-06T16:28:44.997Z</time></trkpt><trkpt lat="45.7978869" lon="13.6067392"><ele>166.0</ele><time>2026-04-06T16:28:45.994Z</time></trkpt><trkpt lat="45.7979956" lon="13.6066611"><ele>166.0</ele><time>2026-04-06T16:28:46.993Z</time></trkpt><trkpt lat="45.7980993" lon="13.6065839"><ele>166.0</ele><time>2026-04-06T16:28:47.992Z</time></trkpt><trkpt lat="45.7981926" lon="13.6065058"><ele>166.0</ele><time>2026-04-06T16:28:49.007Z</time></trkpt><trkpt lat="45.7982836" lon="13.6064235"><ele>166.0</ele><time>2026-04-06T16:28:49.997Z</time></trkpt><trkpt lat="45.7983743" lon="13.6063302"><ele>166.0</ele><time>2026-04-06T16:28:50.993Z</time></trkpt><trkpt lat="45.798475" lon="13.6062285"><ele>164.5</ele><time>2026-04-06T16:28:51.995Z</time></trkpt><trkpt lat="45.7985795" lon="13.6061225"><ele>163.0</ele><time>2026-04-06T16:28:52.996Z</time></trkpt><trkpt lat="45.7986828" lon="13.6060157"><ele>161.5</ele><time>2026-04-06T16:28:54.007Z</time></trkpt><trkpt lat="45.7987801" lon="13.6059092"><ele>160.0</ele><time>2026-04-06T16:28:54.989Z</time></trkpt><trkpt lat="45.7988653" lon="13.6058022"><ele>160.0</ele><time>2026-04-06T16:28:55.986Z</time></trkpt><trkpt lat="45.7989462" lon="13.6056906"><ele>160.0</ele><time>2026-04-06T16:28:56.997Z</time></trkpt><trkpt lat="45.7990241" lon="13.6055762"><ele>160.0</ele><time>2026-04-06T16:28:57.988Z</time></trkpt><trkpt lat="45.7991004" lon="13.6054541"><ele>160.0</ele><time>2026-04-06T16:28:59.001Z</time></trkpt><trkpt lat="45.7991814" lon="13.6053198"><ele>159.75</ele><time>2026-04-06T16:28:59.987Z</time></trkpt><trkpt lat="45.7992663" lon="13.6051824"><ele>159.5</ele><time>2026-04-06T16:29:00.996Z</time></trkpt><trkpt lat="45.7993472" lon="13.6050538"><ele>159.25</ele><time>2026-04-06T16:29:01.985Z</time></trkpt><trkpt lat="45.7994194" lon="13.6049349"><ele>159.0</ele><time>2026-04-06T16:29:02.981Z</time></trkpt><trkpt lat="45.7994887" lon="13.6048144"><ele>159.4</ele><time>2026-04-06T16:29:04.022Z</time></trkpt><trkpt lat="45.7995598" lon="13.6046887"><ele>159.8</ele><time>2026-04-06T16:29:04.99Z</time></trkpt><trkpt lat="45.7996311" lon="13.6045824"><ele>160.20000000000002</ele><time>2026-04-06T16:29:05.98Z</time></trkpt><trkpt lat="45.7996918" lon="13.6044915"><ele>160.60000000000002</ele><time>2026-04-06T16:29:06.976Z</time></trkpt><trkpt lat="45.7997469" lon="13.6044096"><ele>161.0</ele><time>2026-04-06T16:29:07.986Z</time></trkpt><trkpt lat="45.7998044" lon="13.6042888"><ele>161.5</ele><time>2026-04-06T16:29:10.007Z</time></trkpt><trkpt lat="45.7998573" lon="13.6041904"><ele>162.0</ele><time>2026-04-06T16:29:12.02Z</time></trkpt><trkpt lat="45.799894" lon="13.604087"><ele>162.5</ele><time>2026-04-06T16:29:14.027Z</time></trkpt><trkpt lat="45.7999175" lon="13.6039438"><ele>163.0</ele><time>2026-04-06T16:29:15.989Z</time></trkpt><trkpt lat="45.7999477" lon="13.6037865"><ele>163.5</ele><time>2026-04-06T16:29:17.978Z</time></trkpt><trkpt lat="45.7999659" lon="13.6036976"><ele>164.0</ele><time>2026-04-06T16:29:18.985Z</time></trkpt><trkpt lat="45.7999843" lon="13.6035978"><ele>164.33333333333331</ele><time>2026-04-06T16:29:20.03Z</time></trkpt><trkpt lat="45.800005" lon="13.6034844"><ele>164.66666666666666</ele><time>2026-04-06T16:29:20.987Z</time></trkpt><trkpt lat="45.8000287" lon="13.6033667"><ele>165.0</ele><time>2026-04-06T16:29:21.981Z</time></trkpt><trkpt lat="45.8000546" lon="13.6032432"><ele>165.33333333333334</ele><time>2026-04-06T16:29:22.998Z</time></trkpt><trkpt lat="45.8000802" lon="13.6031198"><ele>165.66666666666669</ele><time>2026-04-06T16:29:23.982Z</time></trkpt><trkpt lat="45.8001032" lon="13.6029817"><ele>166.0</ele><time>2026-04-06T16:29:24.978Z</time></trkpt><trkpt lat="45.8001276" lon="13.6028395"><ele>165.8</ele><time>2026-04-06T16:29:25.995Z</time></trkpt><trkpt lat="45.8001526" lon="13.6026927"><ele>165.60000000000002</ele><time>2026-04-06T16:29:26.987Z</time></trkpt><trkpt lat="45.8001814" lon="13.6025437"><ele>165.4</ele><time>2026-04-06T16:29:27.988Z</time></trkpt><trkpt lat="45.8002136" lon="13.602412"><ele>165.2</ele><time>2026-04-06T16:29:28.99Z</time></trkpt><trkpt lat="45.8002564" lon="13.6022846"><ele>165.0</ele><time>2026-04-06T16:29:30.005Z</time></trkpt><trkpt lat="45.8003176" lon="13.6021653"><ele>165.0</ele><time>2026-04-06T16:29:30.997Z</time></trkpt><trkpt lat="45.8003899" lon="13.6020479"><ele>165.0</ele><time>2026-04-06T16:29:31.994Z</time></trkpt><trkpt lat="45.8004603" lon="13.6019358"><ele>165.0</ele><time>2026-04-06T16:29:32.991Z</time></trkpt><trkpt lat="45.8005255" lon="13.6018263"><ele>165.0</ele><time>2026-04-06T16:29:34.002Z</time></trkpt><trkpt lat="45.8005889" lon="13.6017227"><ele>165.0</ele><time>2026-04-06T16:29:35.006Z</time></trkpt><trkpt lat="45.8006513" lon="13.6016239"><ele>164.8</ele><time>2026-04-06T16:29:35.993Z</time></trkpt><trkpt lat="45.8007183" lon="13.6015335"><ele>164.6</ele><time>2026-04-06T16:29:37.004Z</time></trkpt><trkpt lat="45.800792" lon="13.6014405"><ele>164.39999999999998</ele><time>2026-04-06T16:29:37.992Z</time></trkpt><trkpt lat="45.8008714" lon="13.6013451"><ele>164.2</ele><time>2026-04-06T16:29:38.991Z</time></trkpt><trkpt lat="45.8009512" lon="13.6012553"><ele>164.0</ele><time>2026-04-06T16:29:39.995Z</time></trkpt><trkpt lat="45.8010308" lon="13.6011616"><ele>161.39999999999998</ele><time>2026-04-06T16:29:40.992Z</time></trkpt><trkpt lat="45.8011237" lon="13.6010698"><ele>158.79999999999998</ele><time>2026-04-06T16:29:41.993Z</time></trkpt><trkpt lat="45.8012185" lon="13.6009813"><ele>156.2</ele><time>2026-04-06T16:29:42.994Z</time></trkpt><trkpt lat="45.8013078" lon="13.6009002"><ele>153.6</ele><time>2026-04-06T16:29:43.99Z</time></trkpt><trkpt lat="45.8013861" lon="13.6008171"><ele>151.0</ele><time>2026-04-06T16:29:45.001Z</time></trkpt><trkpt lat="45.8014557" lon="13.6007321"><ele>151.0</ele><time>2026-04-06T16:29:45.991Z</time></trkpt><trkpt lat="45.801522" lon="13.6006446"><ele>151.0</ele><time>2026-04-06T16:29:46.995Z</time></trkpt><trkpt lat="45.801591" lon="13.6005588"><ele>151.0</ele><time>2026-04-06T16:29:47.991Z</time></trkpt><trkpt lat="45.8016481" lon="13.6004707"><ele>151.0</ele><time>2026-04-06T16:29:48.987Z</time></trkpt><trkpt lat="45.8016829" lon="13.6003851"><ele>151.0</ele><time>2026-04-06T16:29:49.981Z</time></trkpt><trkpt lat="45.801695" lon="13.6002929"><ele>151.0</ele><time>2026-04-06T16:29:50.988Z</time></trkpt><trkpt lat="45.8016922" lon="13.6002003"><ele>150.0</ele><time>2026-04-06T16:29:51.974Z</time></trkpt><trkpt lat="45.8016907" lon="13.6001055"><ele>149.0</ele><time>2026-04-06T16:29:52.98Z</time></trkpt><trkpt lat="45.8016864" lon="13.5999971"><ele>148.0</ele><time>2026-04-06T16:29:53.997Z</time></trkpt><trkpt lat="45.8016884" lon="13.5998666"><ele>147.0</ele><time>2026-04-06T16:29:54.994Z</time></trkpt><trkpt lat="45.8016925" lon="13.5997329"><ele>146.0</ele><time>2026-04-06T16:29:55.998Z</time></trkpt><trkpt lat="45.8016996" lon="13.5995967"><ele>145.0</ele><time>2026-04-06T16:29:57.002Z</time></trkpt><trkpt lat="45.8017008" lon="13.5994752"><ele>144.5</ele><time>2026-04-06T16:29:57.991Z</time></trkpt><trkpt lat="45.8017104" lon="13.5993695"><ele>144.0</ele><time>2026-04-06T16:29:58.994Z</time></trkpt><trkpt lat="45.8017301" lon="13.5992422"><ele>143.5</ele><time>2026-04-06T16:30:00.988Z</time></trkpt><trkpt lat="45.8017314" lon="13.5991496"><ele>143.0</ele><time>2026-04-06T16:30:02.99Z</time></trkpt><trkpt lat="45.801677" lon="13.5990349"><ele>142.5</ele><time>2026-04-06T16:30:04.99Z</time></trkpt><trkpt lat="45.8016285" lon="13.5989664"><ele>142.0</ele><time>2026-04-06T16:30:05.972Z</time></trkpt><trkpt lat="45.8015594" lon="13.5989121"><ele>142.0</ele><time>2026-04-06T16:30:06.993Z</time></trkpt><trkpt lat="45.8014814" lon="13.5988737"><ele>142.0</ele><time>2026-04-06T16:30:07.977Z</time></trkpt><trkpt lat="45.8013967" lon="13.5988294"><ele>142.0</ele><time>2026-04-06T16:30:08.999Z</time></trkpt><trkpt lat="45.8013173" lon="13.598782"><ele>142.0</ele><time>2026-04-06T16:30:09.992Z</time></trkpt><trkpt lat="45.8012414" lon="13.598732"><ele>142.0</ele><time>2026-04-06T16:30:10.992Z</time></trkpt><trkpt lat="45.8011732" lon="13.5986529"><ele>142.0</ele><time>2026-04-06T16:30:11.987Z</time></trkpt><trkpt lat="45.8011032" lon="13.5985598"><ele>142.0</ele><time>2026-04-06T16:30:12.99Z</time></trkpt><trkpt lat="45.8010359" lon="13.5984607"><ele>142.0</ele><time>2026-04-06T16:30:13.991Z</time></trkpt><trkpt lat="45.8009734" lon="13.5983637"><ele>142.0</ele><time>2026-04-06T16:30:14.994Z</time></trkpt><trkpt lat="45.8009071" lon="13.5982757"><ele>142.0</ele><time>2026-04-06T16:30:15.989Z</time></trkpt><trkpt lat="45.8008355" lon="13.5981638"><ele>142.0</ele><time>2026-04-06T16:30:16.997Z</time></trkpt><trkpt lat="45.800765" lon="13.5980447"><ele>142.0</ele><time>2026-04-06T16:30:17.999Z</time></trkpt><trkpt lat="45.8006924" lon="13.5979203"><ele>142.0</ele><time>2026-04-06T16:30:18.996Z</time></trkpt><trkpt lat="45.8006154" lon="13.5977992"><ele>142.0</ele><time>2026-04-06T16:30:19.977Z</time></trkpt><trkpt lat="45.8005414" lon="13.597683"><ele>142.0</ele><time>2026-04-06T16:30:20.993Z</time></trkpt><trkpt lat="45.8004633" lon="13.5975576"><ele>141.75</ele><time>2026-04-06T16:30:21.988Z</time></trkpt><trkpt lat="45.8003806" lon="13.5974369"><ele>141.5</ele><time>2026-04-06T16:30:22.983Z</time></trkpt><trkpt lat="45.800297" lon="13.5973193"><ele>141.25</ele><time>2026-04-06T16:30:23.981Z</time></trkpt><trkpt lat="45.8002137" lon="13.5972066"><ele>141.0</ele><time>2026-04-06T16:30:24.993Z</time></trkpt><trkpt lat="45.800135" lon="13.5970951"><ele>141.0</ele><time>2026-04-06T16:30:25.983Z</time></trkpt><trkpt lat="45.8000515" lon="13.5969958"><ele>141.0</ele><time>2026-04-06T16:30:26.989Z</time></trkpt><trkpt lat="45.7999594" lon="13.5969123"><ele>141.0</ele><time>2026-04-06T16:30:27.985Z</time></trkpt><trkpt lat="45.7998649" lon="13.5968331"><ele>141.0</ele><time>2026-04-06T16:30:28.982Z</time></trkpt><trkpt lat="45.7997702" lon="13.5967606"><ele>141.0</ele><time>2026-04-06T16:30:29.99Z</time></trkpt><trkpt lat="45.7996801" lon="13.5966947"><ele>141.0</ele><time>2026-04-06T16:30:30.989Z</time></trkpt><trkpt lat="45.7995973" lon="13.5966209"><ele>141.0</ele><time>2026-04-06T16:30:31.995Z</time></trkpt><trkpt lat="45.7995225" lon="13.5965479"><ele>141.0</ele><time>2026-04-06T16:30:32.989Z</time></trkpt><trkpt lat="45.7994407" lon="13.596457"><ele>141.0</ele><time>2026-04-06T16:30:33.981Z</time></trkpt><trkpt lat="45.7993583" lon="13.5963651"><ele>141.0</ele><time>2026-04-06T16:30:34.987Z</time></trkpt><trkpt lat="45.7992728" lon="13.5962787"><ele>140.66666666666666</ele><time>2026-04-06T16:30:35.99Z</time></trkpt><trkpt lat="45.7991961" lon="13.5961973"><ele>140.33333333333334</ele><time>2026-04-06T16:30:36.993Z</time></trkpt><trkpt lat="45.7991265" lon="13.5961241"><ele>140.0</ele><time>2026-04-06T16:30:37.991Z</time></trkpt><trkpt lat="45.7990558" lon="13.5960523"><ele>139.66666666666669</ele><time>2026-04-06T16:30:38.989Z</time></trkpt><trkpt lat="45.7989928" lon="13.5959633"><ele>139.33333333333334</ele><time>2026-04-06T16:30:39.994Z</time></trkpt><trkpt lat="45.7989392" lon="13.595862"><ele>139.0</ele><time>2026-04-06T16:30:40.992Z</time></trkpt><trkpt lat="45.7988873" lon="13.5957469"><ele>139.0</ele><time>2026-04-06T16:30:41.99Z</time></trkpt><trkpt lat="45.7988399" lon="13.5956265"><ele>139.0</ele><time>2026-04-06T16:30:42.982Z</time></trkpt><trkpt lat="45.7988001" lon="13.5955132"><ele>139.0</ele><time>2026-04-06T16:30:43.998Z</time></trkpt><trkpt lat="45.7987674" lon="13.5954016"><ele>139.0</ele><time>2026-04-06T16:30:44.985Z</time></trkpt><trkpt lat="45.7987349" lon="13.5953019"><ele>139.0</ele><time>2026-04-06T16:30:45.991Z</time></trkpt><trkpt lat="45.7987156" lon="13.5952009"><ele>139.0</ele><time>2026-04-06T16:30:46.989Z</time></trkpt><trkpt lat="45.7987015" lon="13.5951059"><ele>137.8</ele><time>2026-04-06T16:30:47.987Z</time></trkpt><trkpt lat="45.7986828" lon="13.5950145"><ele>136.60000000000002</ele><time>2026-04-06T16:30:48.992Z</time></trkpt><trkpt lat="45.7986215" lon="13.5948576"><ele>135.4</ele><time>2026-04-06T16:30:50.995Z</time></trkpt><trkpt lat="45.7985549" lon="13.5947155"><ele>134.20000000000002</ele><time>2026-04-06T16:30:52.992Z</time></trkpt><trkpt lat="45.7985308" lon="13.5946312"><ele>133.0</ele><time>2026-04-06T16:30:53.995Z</time></trkpt><trkpt lat="45.7984806" lon="13.594476"><ele>129.20000000000002</ele><time>2026-04-06T16:30:55.982Z</time></trkpt><trkpt lat="45.7984246" lon="13.594322"><ele>125.4</ele><time>2026-04-06T16:30:57.99Z</time></trkpt><trkpt lat="45.7983962" lon="13.5941543"><ele>121.60000000000001</ele><time>2026-04-06T16:30:59.988Z</time></trkpt><trkpt lat="45.7983657" lon="13.5939905"><ele>117.80000000000001</ele><time>2026-04-06T16:31:01.977Z</time></trkpt><trkpt lat="45.7983427" lon="13.5939003"><ele>114.0</ele><time>2026-04-06T16:31:02.984Z</time></trkpt><trkpt lat="45.7983173" lon="13.5938075"><ele>114.0</ele><time>2026-04-06T16:31:03.972Z</time></trkpt><trkpt lat="45.7982916" lon="13.5937082"><ele>113.99999999999999</ele><time>2026-04-06T16:31:04.973Z</time></trkpt><trkpt lat="45.7982652" lon="13.5936133"><ele>114.0</ele><time>2026-04-06T16:31:05.965Z</time></trkpt><trkpt lat="45.7982465" lon="13.593517"><ele>114.0</ele><time>2026-04-06T16:31:06.978Z</time></trkpt><trkpt lat="45.7982326" lon="13.5934149"><ele>113.99999999999999</ele><time>2026-04-06T16:31:07.976Z</time></trkpt><trkpt lat="45.798215" lon="13.5933217"><ele>114.0</ele><time>2026-04-06T16:31:08.977Z</time></trkpt><trkpt lat="45.7981923" lon="13.5932368"><ele>114.0</ele><time>2026-04-06T16:31:09.978Z</time></trkpt><trkpt lat="45.7981446" lon="13.5930803"><ele>111.0</ele><time>2026-04-06T16:31:11.972Z</time></trkpt><trkpt lat="45.7980994" lon="13.5929439"><ele>108.0</ele><time>2026-04-06T16:31:13.972Z</time></trkpt><trkpt lat="45.7980774" lon="13.5927985"><ele>105.0</ele><time>2026-04-06T16:31:15.988Z</time></trkpt><trkpt lat="45.7980692" lon="13.5926297"><ele>102.0</ele><time>2026-04-06T16:31:17.965Z</time></trkpt><trkpt lat="45.798085" lon="13.5924462"><ele>100.42857142857143</ele><time>2026-04-06T16:31:19.97Z</time></trkpt><trkpt lat="45.7980905" lon="13.5923508"><ele>98.85714285714286</ele><time>2026-04-06T16:31:20.975Z</time></trkpt><trkpt lat="45.79809" lon="13.5922508"><ele>97.28571428571428</ele><time>2026-04-06T16:31:21.973Z</time></trkpt><trkpt lat="45.7980869" lon="13.5921496"><ele>95.71428571428572</ele><time>2026-04-06T16:31:22.965Z</time></trkpt><trkpt lat="45.7980818" lon="13.5920509"><ele>94.14285714285714</ele><time>2026-04-06T16:31:23.976Z</time></trkpt><trkpt lat="45.7980696" lon="13.591956"><ele>92.57142857142857</ele><time>2026-04-06T16:31:24.985Z</time></trkpt><trkpt lat="45.7980443" lon="13.5918695"><ele>91.0</ele><time>2026-04-06T16:31:25.967Z</time></trkpt><trkpt lat="45.7979833" lon="13.5917109"><ele>89.19999999999999</ele><time>2026-04-06T16:31:27.964Z</time></trkpt><trkpt lat="45.7979314" lon="13.5915536"><ele>87.39999999999999</ele><time>2026-04-06T16:31:29.979Z</time></trkpt><trkpt lat="45.797879" lon="13.5913983"><ele>85.6</ele><time>2026-04-06T16:31:31.966Z</time></trkpt><trkpt lat="45.7977947" lon="13.5912692"><ele>83.8</ele><time>2026-04-06T16:31:33.978Z</time></trkpt><trkpt lat="45.797745" lon="13.5911922"><ele>82.0</ele><time>2026-04-06T16:31:34.97Z</time></trkpt><trkpt lat="45.7976911" lon="13.5911117"><ele>80.0</ele><time>2026-04-06T16:31:35.963Z</time></trkpt><trkpt lat="45.7976306" lon="13.5910376"><ele>78.0</ele><time>2026-04-06T16:31:36.967Z</time></trkpt><trkpt lat="45.7975583" lon="13.5909684"><ele>76.0</ele><time>2026-04-06T16:31:37.977Z</time></trkpt><trkpt lat="45.7974787" lon="13.5909045"><ele>74.0</ele><time>2026-04-06T16:31:38.967Z</time></trkpt><trkpt lat="45.7973913" lon="13.5908527"><ele>72.0</ele><time>2026-04-06T16:31:39.974Z</time></trkpt><trkpt lat="45.7973053" lon="13.5907921"><ele>70.0</ele><time>2026-04-06T16:31:40.962Z</time></trkpt><trkpt lat="45.797232" lon="13.5907328"><ele>70.0</ele><time>2026-04-06T16:31:41.967Z</time></trkpt><trkpt lat="45.7971602" lon="13.5906666"><ele>70.0</ele><time>2026-04-06T16:31:42.972Z</time></trkpt><trkpt lat="45.7970881" lon="13.5905969"><ele>70.0</ele><time>2026-04-06T16:31:43.963Z</time></trkpt><trkpt lat="45.7970089" lon="13.5905288"><ele>70.0</ele><time>2026-04-06T16:31:44.968Z</time></trkpt><trkpt lat="45.7969231" lon="13.5904714"><ele>70.0</ele><time>2026-04-06T16:31:45.96Z</time></trkpt><trkpt lat="45.7968276" lon="13.5904165"><ele>71.4</ele><time>2026-04-06T16:31:46.967Z</time></trkpt><trkpt lat="45.796725" lon="13.5903673"><ele>72.8</ele><time>2026-04-06T16:31:47.961Z</time></trkpt><trkpt lat="45.7966298" lon="13.5903092"><ele>74.2</ele><time>2026-04-06T16:31:48.959Z</time></trkpt><trkpt lat="45.796539" lon="13.5902361"><ele>75.6</ele><time>2026-04-06T16:31:49.965Z</time></trkpt><trkpt lat="45.7964485" lon="13.5901446"><ele>77.0</ele><time>2026-04-06T16:31:50.963Z</time></trkpt><trkpt lat="45.796361" lon="13.5900513"><ele>74.66666666666667</ele><time>2026-04-06T16:31:51.961Z</time></trkpt><trkpt lat="45.7962828" lon="13.5899652"><ele>72.33333333333334</ele><time>2026-04-06T16:31:52.973Z</time></trkpt><trkpt lat="45.796214" lon="13.5899012"><ele>70.0</ele><time>2026-04-06T16:31:53.967Z</time></trkpt><trkpt lat="45.796145" lon="13.5898574"><ele>67.66666666666667</ele><time>2026-04-06T16:31:54.968Z</time></trkpt><trkpt lat="45.7960885" lon="13.589811"><ele>65.33333333333333</ele><time>2026-04-06T16:31:55.977Z</time></trkpt><trkpt lat="45.7960362" lon="13.5897406"><ele>63.0</ele><time>2026-04-06T16:31:56.978Z</time></trkpt><trkpt lat="45.7959843" lon="13.5896635"><ele>63.0</ele><time>2026-04-06T16:31:57.968Z</time></trkpt><trkpt lat="45.7959318" lon="13.5895978"><ele>63.0</ele><time>2026-04-06T16:31:58.964Z</time></trkpt><trkpt lat="45.7958756" lon="13.5895481"><ele>63.0</ele><time>2026-04-06T16:31:59.967Z</time></trkpt><trkpt lat="45.7957686" lon="13.589547"><ele>63.0</ele><time>2026-04-06T16:32:01.958Z</time></trkpt><trkpt lat="45.7956773" lon="13.5896202"><ele>63.0</ele><time>2026-04-06T16:32:03.958Z</time></trkpt><trkpt lat="45.7956245" lon="13.5896749"><ele>63.0</ele><time>2026-04-06T16:32:04.963Z</time></trkpt><trkpt lat="45.7955605" lon="13.5897234"><ele>63.0</ele><time>2026-04-06T16:32:05.958Z</time></trkpt><trkpt lat="45.7954911" lon="13.5897515"><ele>63.0</ele><time>2026-04-06T16:32:06.966Z</time></trkpt><trkpt lat="45.7954111" lon="13.5897713"><ele>63.0</ele><time>2026-04-06T16:32:07.963Z</time></trkpt><trkpt lat="45.7953339" lon="13.5897735"><ele>63.0</ele><time>2026-04-06T16:32:08.958Z</time></trkpt><trkpt lat="45.7952579" lon="13.5897741"><ele>63.0</ele><time>2026-04-06T16:32:09.975Z</time></trkpt><trkpt lat="45.795193" lon="13.5897815"><ele>63.0</ele><time>2026-04-06T16:32:10.962Z</time></trkpt><trkpt lat="45.7951047" lon="13.5897577"><ele>60.8</ele><time>2026-04-06T16:32:12.967Z</time></trkpt><trkpt lat="45.7950032" lon="13.589734"><ele>58.599999999999994</ele><time>2026-04-06T16:32:14.965Z</time></trkpt><trkpt lat="45.7948809" lon="13.5897602"><ele>56.400000000000006</ele><time>2026-04-06T16:32:16.979Z</time></trkpt><trkpt lat="45.7948202" lon="13.5897868"><ele>54.2</ele><time>2026-04-06T16:32:17.981Z</time></trkpt><trkpt lat="45.7947473" lon="13.5898356"><ele>52.0</ele><time>2026-04-06T16:32:18.974Z</time></trkpt><trkpt lat="45.7946795" lon="13.5898943"><ele>52.0</ele><time>2026-04-06T16:32:19.975Z</time></trkpt><trkpt lat="45.7946179" lon="13.5899581"><ele>52.0</ele><time>2026-04-06T16:32:20.963Z</time></trkpt><trkpt lat="45.7945695" lon="13.5900301"><ele>52.0</ele><time>2026-04-06T16:32:21.977Z</time></trkpt><trkpt lat="45.7945259" lon="13.5900955"><ele>52.0</ele><time>2026-04-06T16:32:22.97Z</time></trkpt><trkpt lat="45.7944804" lon="13.5901579"><ele>52.0</ele><time>2026-04-06T16:32:23.975Z</time></trkpt><trkpt lat="45.7944328" lon="13.5902274"><ele>52.0</ele><time>2026-04-06T16:32:24.968Z</time></trkpt><trkpt lat="45.7943825" lon="13.5902958"><ele>52.0</ele><time>2026-04-06T16:32:25.978Z</time></trkpt><trkpt lat="45.7943339" lon="13.5903607"><ele>50.33333333333333</ele><time>2026-04-06T16:32:26.978Z</time></trkpt><trkpt lat="45.7942788" lon="13.5904139"><ele>48.666666666666664</ele><time>2026-04-06T16:32:27.977Z</time></trkpt><trkpt lat="45.7942122" lon="13.5904623"><ele>47.0</ele><time>2026-04-06T16:32:28.972Z</time></trkpt><trkpt lat="45.7941449" lon="13.590525"><ele>45.33333333333333</ele><time>2026-04-06T16:32:29.985Z</time></trkpt><trkpt lat="45.7940837" lon="13.5905993"><ele>43.666666666666664</ele><time>2026-04-06T16:32:30.984Z</time></trkpt><trkpt lat="45.7940303" lon="13.59068"><ele>42.0</ele><time>2026-04-06T16:32:31.979Z</time></trkpt><trkpt lat="45.7939729" lon="13.5907567"><ele>42.0</ele><time>2026-04-06T16:32:32.98Z</time></trkpt><trkpt lat="45.7939075" lon="13.5908054"><ele>42.0</ele><time>2026-04-06T16:32:33.986Z</time></trkpt><trkpt lat="45.7938356" lon="13.590831"><ele>42.0</ele><time>2026-04-06T16:32:34.97Z</time></trkpt><trkpt lat="45.7937633" lon="13.5908492"><ele>42.0</ele><time>2026-04-06T16:32:35.968Z</time></trkpt><trkpt lat="45.7936799" lon="13.5908571"><ele>42.0</ele><time>2026-04-06T16:32:36.971Z</time></trkpt><trkpt lat="45.7935968" lon="13.5908698"><ele>42.0</ele><time>2026-04-06T16:32:37.971Z</time></trkpt><trkpt lat="45.793514" lon="13.5908883"><ele>40.0</ele><time>2026-04-06T16:32:38.965Z</time></trkpt><trkpt lat="45.7934378" lon="13.5908972"><ele>38.0</ele><time>2026-04-06T16:32:39.972Z</time></trkpt><trkpt lat="45.7933626" lon="13.590926"><ele>36.0</ele><time>2026-04-06T16:32:40.981Z</time></trkpt><trkpt lat="45.7932929" lon="13.5909699"><ele>34.0</ele><time>2026-04-06T16:32:41.969Z</time></trkpt><trkpt lat="45.7932263" lon="13.5910172"><ele>32.0</ele><time>2026-04-06T16:32:42.973Z</time></trkpt><trkpt lat="45.7931596" lon="13.5910461"><ele>30.0</ele><time>2026-04-06T16:32:43.976Z</time></trkpt><trkpt lat="45.7930753" lon="13.5910241"><ele>30.0</ele><time>2026-04-06T16:32:45.968Z</time></trkpt><trkpt lat="45.7930207" lon="13.5908827"><ele>30.0</ele><time>2026-04-06T16:32:47.976Z</time></trkpt><trkpt lat="45.7930069" lon="13.5907931"><ele>30.0</ele><time>2026-04-06T16:32:48.972Z</time></trkpt><trkpt lat="45.7929699" lon="13.5906276"><ele>30.0</ele><time>2026-04-06T16:32:50.983Z</time></trkpt><trkpt lat="45.7929295" lon="13.5904631"><ele>30.0</ele><time>2026-04-06T16:32:52.974Z</time></trkpt><trkpt lat="45.7928927" lon="13.590356"><ele>29.8</ele><time>2026-04-06T16:32:54.992Z</time></trkpt><trkpt lat="45.7927949" lon="13.5903146"><ele>29.6</ele><time>2026-04-06T16:32:57.968Z</time></trkpt><trkpt lat="45.7927153" lon="13.5903387"><ele>29.4</ele><time>2026-04-06T16:32:58.972Z</time></trkpt><trkpt lat="45.7926247" lon="13.5903857"><ele>29.2</ele><time>2026-04-06T16:32:59.971Z</time></trkpt><trkpt lat="45.7925209" lon="13.5904297"><ele>29.0</ele><time>2026-04-06T16:33:00.979Z</time></trkpt><trkpt lat="45.7924146" lon="13.5904657"><ele>28.4</ele><time>2026-04-06T16:33:01.985Z</time></trkpt><trkpt lat="45.7923112" lon="13.5904978"><ele>27.799999999999997</ele><time>2026-04-06T16:33:02.978Z</time></trkpt><trkpt lat="45.7922045" lon="13.590528"><ele>27.200000000000003</ele><time>2026-04-06T16:33:03.977Z</time></trkpt><trkpt lat="45.7920956" lon="13.5905631"><ele>26.6</ele><time>2026-04-06T16:33:04.978Z</time></trkpt><trkpt lat="45.7919871" lon="13.5906006"><ele>26.0</ele><time>2026-04-06T16:33:05.981Z</time></trkpt><trkpt lat="45.7918775" lon="13.5906364"><ele>25.25</ele><time>2026-04-06T16:33:06.97Z</time></trkpt><trkpt lat="45.7917674" lon="13.5906711"><ele>24.5</ele><time>2026-04-06T16:33:07.977Z</time></trkpt><trkpt lat="45.7916566" lon="13.5907032"><ele>23.75</ele><time>2026-04-06T16:33:08.979Z</time></trkpt><trkpt lat="45.791547" lon="13.5907283"><ele>23.0</ele><time>2026-04-06T16:33:09.97Z</time></trkpt><trkpt lat="45.7914331" lon="13.5907604"><ele>23.0</ele><time>2026-04-06T16:33:10.982Z</time></trkpt><trkpt lat="45.7913166" lon="13.5907979"><ele>23.0</ele><time>2026-04-06T16:33:11.979Z</time></trkpt><trkpt lat="45.7911981" lon="13.5908337"><ele>23.0</ele><time>2026-04-06T16:33:12.978Z</time></trkpt><trkpt lat="45.791082" lon="13.5908684"><ele>23.0</ele><time>2026-04-06T16:33:13.983Z</time></trkpt><trkpt lat="45.7909639" lon="13.5909029"><ele>21.5</ele><time>2026-04-06T16:33:14.979Z</time></trkpt><trkpt lat="45.7908424" lon="13.5909464"><ele>20.0</ele><time>2026-04-06T16:33:15.979Z</time></trkpt><trkpt lat="45.7907155" lon="13.5909881"><ele>18.5</ele><time>2026-04-06T16:33:16.974Z</time></trkpt><trkpt lat="45.7905856" lon="13.5910241"><ele>17.0</ele><time>2026-04-06T16:33:17.978Z</time></trkpt><trkpt lat="45.7904593" lon="13.5910567"><ele>17.0</ele><time>2026-04-06T16:33:18.98Z</time></trkpt><trkpt lat="45.7903389" lon="13.5910961"><ele>17.0</ele><time>2026-04-06T16:33:19.98Z</time></trkpt><trkpt lat="45.7902211" lon="13.591128"><ele>17.0</ele><time>2026-04-06T16:33:20.983Z</time></trkpt><trkpt lat="45.7900996" lon="13.5911638"><ele>17.0</ele><time>2026-04-06T16:33:21.984Z</time></trkpt><trkpt lat="45.7899661" lon="13.5912015"><ele>17.5</ele><time>2026-04-06T16:33:22.978Z</time></trkpt><trkpt lat="45.7898289" lon="13.5912549"><ele>18.0</ele><time>2026-04-06T16:33:23.982Z</time></trkpt><trkpt lat="45.7896863" lon="13.5913107"><ele>18.5</ele><time>2026-04-06T16:33:24.985Z</time></trkpt><trkpt lat="45.7895386" lon="13.5913582"><ele>19.0</ele><time>2026-04-06T16:33:25.977Z</time></trkpt><trkpt lat="45.7893937" lon="13.5914044"><ele>18.0</ele><time>2026-04-06T16:33:26.988Z</time></trkpt><trkpt lat="45.7892595" lon="13.5914544"><ele>17.0</ele><time>2026-04-06T16:33:27.98Z</time></trkpt><trkpt lat="45.7891381" lon="13.5915042"><ele>16.0</ele><time>2026-04-06T16:33:28.98Z</time></trkpt><trkpt lat="45.7890227" lon="13.591549"><ele>15.0</ele><time>2026-04-06T16:33:29.977Z</time></trkpt><trkpt lat="45.7889132" lon="13.5915876"><ele>15.0</ele><time>2026-04-06T16:33:30.973Z</time></trkpt><trkpt lat="45.7888104" lon="13.591627"><ele>15.0</ele><time>2026-04-06T16:33:31.978Z</time></trkpt><trkpt lat="45.7887063" lon="13.5916608"><ele>15.0</ele><time>2026-04-06T16:33:32.978Z</time></trkpt><trkpt lat="45.7886065" lon="13.5916948"><ele>15.0</ele><time>2026-04-06T16:33:33.982Z</time></trkpt><trkpt lat="45.7885092" lon="13.5917278"><ele>15.0</ele><time>2026-04-06T16:33:34.979Z</time></trkpt><trkpt lat="45.7884149" lon="13.5917646"><ele>13.2</ele><time>2026-04-06T16:33:35.98Z</time></trkpt><trkpt lat="45.788322" lon="13.5917975"><ele>11.4</ele><time>2026-04-06T16:33:36.979Z</time></trkpt><trkpt lat="45.7882309" lon="13.5918301"><ele>9.6</ele><time>2026-04-06T16:33:37.981Z</time></trkpt><trkpt lat="45.7881527" lon="13.5918523"><ele>7.8</ele><time>2026-04-06T16:33:38.976Z</time></trkpt><trkpt lat="45.7880775" lon="13.5918535"><ele>6.0</ele><time>2026-04-06T16:33:40.979Z</time></trkpt><trkpt lat="45.7879546" lon="13.591868"><ele>6.0</ele><time>2026-04-06T16:33:57.974Z</time></trkpt><trkpt lat="45.7878905" lon="13.5919198"><ele>6.0</ele><time>2026-04-06T16:33:58.976Z</time></trkpt><trkpt lat="45.7878217" lon="13.5920025"><ele>6.0</ele><time>2026-04-06T16:33:59.97Z</time></trkpt><trkpt lat="45.7877537" lon="13.5920949"><ele>6.0</ele><time>2026-04-06T16:34:00.96Z</time></trkpt><trkpt lat="45.7876815" lon="13.5921903"><ele>6.0</ele><time>2026-04-06T16:34:01.986Z</time></trkpt><trkpt lat="45.787591" lon="13.592293"><ele>6.75</ele><time>2026-04-06T16:34:02.964Z</time></trkpt><trkpt lat="45.7874977" lon="13.5924027"><ele>7.5</ele><time>2026-04-06T16:34:03.964Z</time></trkpt><trkpt lat="45.7873965" lon="13.5925186"><ele>8.25</ele><time>2026-04-06T16:34:04.97Z</time></trkpt><trkpt lat="45.7872894" lon="13.5926449"><ele>9.0</ele><time>2026-04-06T16:34:05.975Z</time></trkpt><trkpt lat="45.7871877" lon="13.5927779"><ele>9.5</ele><time>2026-04-06T16:34:06.976Z</time></trkpt><trkpt lat="45.7870894" lon="13.5929178"><ele>10.0</ele><time>2026-04-06T16:34:07.966Z</time></trkpt><trkpt lat="45.7869779" lon="13.5930688"><ele>10.5</ele><time>2026-04-06T16:34:08.983Z</time></trkpt><trkpt lat="45.7868616" lon="13.5932174"><ele>11.0</ele><time>2026-04-06T16:34:09.983Z</time></trkpt><trkpt lat="45.7867434" lon="13.5933543"><ele>11.0</ele><time>2026-04-06T16:34:10.984Z</time></trkpt><trkpt lat="45.7866145" lon="13.5934872"><ele>11.0</ele><time>2026-04-06T16:34:11.969Z</time></trkpt><trkpt lat="45.7864717" lon="13.5936018"><ele>11.0</ele><time>2026-04-06T16:34:12.982Z</time></trkpt><trkpt lat="45.7863092" lon="13.5936925"><ele>13.666666666666666</ele><time>2026-04-06T16:34:13.982Z</time></trkpt><trkpt lat="45.7861361" lon="13.5937572"><ele>16.333333333333332</ele><time>2026-04-06T16:34:14.974Z</time></trkpt><trkpt lat="45.7859611" lon="13.5938011"><ele>19.0</ele><time>2026-04-06T16:34:15.986Z</time></trkpt><trkpt lat="45.7857927" lon="13.5938302"><ele>19.0</ele><time>2026-04-06T16:34:16.977Z</time></trkpt><trkpt lat="45.7856327" lon="13.5938458"><ele>19.0</ele><time>2026-04-06T16:34:17.976Z</time></trkpt><trkpt lat="45.78548" lon="13.5938769"><ele>19.0</ele><time>2026-04-06T16:34:18.985Z</time></trkpt><trkpt lat="45.7853311" lon="13.593938"><ele>19.0</ele><time>2026-04-06T16:34:19.981Z</time></trkpt><trkpt lat="45.7851932" lon="13.5940429"><ele>19.0</ele><time>2026-04-06T16:34:20.973Z</time></trkpt><trkpt lat="45.785063" lon="13.5941891"><ele>19.0</ele><time>2026-04-06T16:34:21.977Z</time></trkpt><trkpt lat="45.784961" lon="13.5943682"><ele>19.666666666666664</ele><time>2026-04-06T16:34:22.973Z</time></trkpt><trkpt lat="45.7848765" lon="13.5945762"><ele>20.333333333333332</ele><time>2026-04-06T16:34:23.972Z</time></trkpt><trkpt lat="45.7847904" lon="13.594784"><ele>21.0</ele><time>2026-04-06T16:34:24.987Z</time></trkpt><trkpt lat="45.7847129" lon="13.5949843"><ele>21.0</ele><time>2026-04-06T16:34:25.988Z</time></trkpt><trkpt lat="45.7846331" lon="13.5951813"><ele>21.0</ele><time>2026-04-06T16:34:26.979Z</time></trkpt><trkpt lat="45.7845534" lon="13.5953766"><ele>21.0</ele><time>2026-04-06T16:34:27.976Z</time></trkpt><trkpt lat="45.7844757" lon="13.5955732"><ele>22.0</ele><time>2026-04-06T16:34:28.975Z</time></trkpt><trkpt lat="45.7843963" lon="13.5957695"><ele>23.0</ele><time>2026-04-06T16:34:29.979Z</time></trkpt><trkpt lat="45.7843075" lon="13.5959647"><ele>24.0</ele><time>2026-04-06T16:34:30.974Z</time></trkpt><trkpt lat="45.7842029" lon="13.5961423"><ele>23.666666666666668</ele><time>2026-04-06T16:34:31.976Z</time></trkpt><trkpt lat="45.7840776" lon="13.5963115"><ele>23.333333333333336</ele><time>2026-04-06T16:34:32.978Z</time></trkpt><trkpt lat="45.7839475" lon="13.5964586"><ele>23.0</ele><time>2026-04-06T16:34:33.983Z</time></trkpt><trkpt lat="45.7838058" lon="13.5965876"><ele>23.0</ele><time>2026-04-06T16:34:34.986Z</time></trkpt><trkpt lat="45.783659" lon="13.5966811"><ele>23.0</ele><time>2026-04-06T16:34:35.983Z</time></trkpt><trkpt lat="45.7835068" lon="13.5967603"><ele>23.0</ele><time>2026-04-06T16:34:36.985Z</time></trkpt><trkpt lat="45.7833539" lon="13.5968236"><ele>23.0</ele><time>2026-04-06T16:34:37.983Z</time></trkpt><trkpt lat="45.7831928" lon="13.5968657"><ele>23.0</ele><time>2026-04-06T16:34:38.965Z</time></trkpt><trkpt lat="45.7830247" lon="13.5968839"><ele>23.0</ele><time>2026-04-06T16:34:39.984Z</time></trkpt><trkpt lat="45.7828568" lon="13.5968902"><ele>23.0</ele><time>2026-04-06T16:34:40.982Z</time></trkpt><trkpt lat="45.782686" lon="13.5968933"><ele>23.0</ele><time>2026-04-06T16:34:41.972Z</time></trkpt><trkpt lat="45.7825164" lon="13.5968994"><ele>23.0</ele><time>2026-04-06T16:34:42.969Z</time></trkpt><trkpt lat="45.7823456" lon="13.5969067"><ele>22.666666666666668</ele><time>2026-04-06T16:34:43.977Z</time></trkpt><trkpt lat="45.7821784" lon="13.5969147"><ele>22.333333333333332</ele><time>2026-04-06T16:34:44.981Z</time></trkpt><trkpt lat="45.7820108" lon="13.5969251"><ele>22.0</ele><time>2026-04-06T16:34:45.984Z</time></trkpt><trkpt lat="45.7818448" lon="13.5969342"><ele>22.0</ele><time>2026-04-06T16:34:46.975Z</time></trkpt><trkpt lat="45.7816871" lon="13.5969429"><ele>22.0</ele><time>2026-04-06T16:34:47.96Z</time></trkpt><trkpt lat="45.781536" lon="13.5969532"><ele>22.0</ele><time>2026-04-06T16:34:48.966Z</time></trkpt><trkpt lat="45.781392" lon="13.5969597"><ele>22.0</ele><time>2026-04-06T16:34:49.962Z</time></trkpt><trkpt lat="45.7812416" lon="13.5969652"><ele>22.0</ele><time>2026-04-06T16:34:50.983Z</time></trkpt><trkpt lat="45.7810894" lon="13.5969714"><ele>22.0</ele><time>2026-04-06T16:34:51.969Z</time></trkpt><trkpt lat="45.7809368" lon="13.5969793"><ele>23.0</ele><time>2026-04-06T16:34:52.967Z</time></trkpt><trkpt lat="45.7807837" lon="13.5969942"><ele>24.0</ele><time>2026-04-06T16:34:53.97Z</time></trkpt><trkpt lat="45.7806328" lon="13.597018"><ele>25.0</ele><time>2026-04-06T16:34:54.98Z</time></trkpt><trkpt lat="45.7804904" lon="13.5970723"><ele>26.5</ele><time>2026-04-06T16:34:55.978Z</time></trkpt><trkpt lat="45.7803657" lon="13.5971529"><ele>28.0</ele><time>2026-04-06T16:34:56.975Z</time></trkpt><trkpt lat="45.7802461" lon="13.5972518"><ele>29.5</ele><time>2026-04-06T16:34:57.985Z</time></trkpt><trkpt lat="45.7801359" lon="13.5973652"><ele>31.0</ele><time>2026-04-06T16:34:58.987Z</time></trkpt><trkpt lat="45.7800215" lon="13.5974853"><ele>31.0</ele><time>2026-04-06T16:34:59.981Z</time></trkpt><trkpt lat="45.7798972" lon="13.5976074"><ele>31.0</ele><time>2026-04-06T16:35:00.993Z</time></trkpt><trkpt lat="45.7797713" lon="13.5977388"><ele>31.0</ele><time>2026-04-06T16:35:01.981Z</time></trkpt><trkpt lat="45.7796475" lon="13.597886"><ele>30.666666666666668</ele><time>2026-04-06T16:35:02.993Z</time></trkpt><trkpt lat="45.7795221" lon="13.5980345"><ele>30.333333333333336</ele><time>2026-04-06T16:35:03.978Z</time></trkpt><trkpt lat="45.7793929" lon="13.5981862"><ele>30.0</ele><time>2026-04-06T16:35:04.992Z</time></trkpt><trkpt lat="45.7792657" lon="13.5983405"><ele>30.0</ele><time>2026-04-06T16:35:05.985Z</time></trkpt><trkpt lat="45.7791388" lon="13.5984916"><ele>30.0</ele><time>2026-04-06T16:35:06.989Z</time></trkpt><trkpt lat="45.7790121" lon="13.5986445"><ele>30.0</ele><time>2026-04-06T16:35:07.986Z</time></trkpt><trkpt lat="45.7788817" lon="13.5987925"><ele>31.333333333333336</ele><time>2026-04-06T16:35:08.987Z</time></trkpt><trkpt lat="45.7787548" lon="13.5989365"><ele>32.66666666666667</ele><time>2026-04-06T16:35:09.988Z</time></trkpt><trkpt lat="45.7786327" lon="13.5990766"><ele>34.0</ele><time>2026-04-06T16:35:10.98Z</time></trkpt><trkpt lat="45.7785155" lon="13.5992177"><ele>35.333333333333336</ele><time>2026-04-06T16:35:11.983Z</time></trkpt><trkpt lat="45.7783978" lon="13.599347"><ele>36.666666666666664</ele><time>2026-04-06T16:35:12.976Z</time></trkpt><trkpt lat="45.7782744" lon="13.5994767"><ele>38.0</ele><time>2026-04-06T16:35:13.987Z</time></trkpt><trkpt lat="45.7781505" lon="13.5996173"><ele>38.33333333333333</ele><time>2026-04-06T16:35:14.984Z</time></trkpt><trkpt lat="45.7780244" lon="13.5997657"><ele>38.666666666666664</ele><time>2026-04-06T16:35:15.972Z</time></trkpt><trkpt lat="45.7778976" lon="13.5999104"><ele>39.0</ele><time>2026-04-06T16:35:16.979Z</time></trkpt><trkpt lat="45.7777757" lon="13.6000531"><ele>39.0</ele><time>2026-04-06T16:35:17.981Z</time></trkpt><trkpt lat="45.7776648" lon="13.6001807"><ele>39.0</ele><time>2026-04-06T16:35:18.991Z</time></trkpt><trkpt lat="45.7775664" lon="13.600303"><ele>39.0</ele><time>2026-04-06T16:35:19.983Z</time></trkpt><trkpt lat="45.77748" lon="13.600414"><ele>39.0</ele><time>2026-04-06T16:35:20.982Z</time></trkpt><trkpt lat="45.7774028" lon="13.6004979"><ele>39.0</ele><time>2026-04-06T16:35:21.988Z</time></trkpt><trkpt lat="45.777325" lon="13.6005698"><ele>39.0</ele><time>2026-04-06T16:35:22.987Z</time></trkpt><trkpt lat="45.7772585" lon="13.6006398"><ele>39.0</ele><time>2026-04-06T16:35:23.98Z</time></trkpt><trkpt lat="45.7772022" lon="13.6007016"><ele>39.0</ele><time>2026-04-06T16:35:24.983Z</time></trkpt><trkpt lat="45.7771491" lon="13.600763"><ele>39.0</ele><time>2026-04-06T16:35:26.975Z</time></trkpt><trkpt lat="45.7770845" lon="13.6008959"><ele>39.0</ele><time>2026-04-06T16:38:16.001Z</time></trkpt><trkpt lat="45.7770499" lon="13.6009915"><ele>39.0</ele><time>2026-04-06T16:38:16.991Z</time></trkpt><trkpt lat="45.7770057" lon="13.6011028"><ele>39.0</ele><time>2026-04-06T16:38:18.01Z</time></trkpt><trkpt lat="45.7769517" lon="13.6012341"><ele>39.0</ele><time>2026-04-06T16:38:18.996Z</time></trkpt><trkpt lat="45.7768963" lon="13.6013808"><ele>39.0</ele><time>2026-04-06T16:38:19.989Z</time></trkpt><trkpt lat="45.7768384" lon="13.6015325"><ele>39.0</ele><time>2026-04-06T16:38:20.983Z</time></trkpt><trkpt lat="45.7767803" lon="13.6017109"><ele>37.75</ele><time>2026-04-06T16:38:21.983Z</time></trkpt><trkpt lat="45.7767188" lon="13.6018986"><ele>36.5</ele><time>2026-04-06T16:38:22.993Z</time></trkpt><trkpt lat="45.7766515" lon="13.6020947"><ele>35.25</ele><time>2026-04-06T16:38:23.989Z</time></trkpt><trkpt lat="45.7765853" lon="13.6022894"><ele>34.0</ele><time>2026-04-06T16:38:24.99Z</time></trkpt><trkpt lat="45.77652" lon="13.6024973"><ele>34.0</ele><time>2026-04-06T16:38:25.986Z</time></trkpt><trkpt lat="45.7764508" lon="13.6027094"><ele>34.0</ele><time>2026-04-06T16:38:26.984Z</time></trkpt><trkpt lat="45.7763809" lon="13.6029202"><ele>34.0</ele><time>2026-04-06T16:38:27.989Z</time></trkpt><trkpt lat="45.7763113" lon="13.6031377"><ele>35.333333333333336</ele><time>2026-04-06T16:38:28.984Z</time></trkpt><trkpt lat="45.7762409" lon="13.6033523"><ele>36.666666666666664</ele><time>2026-04-06T16:38:29.982Z</time></trkpt><trkpt lat="45.7761755" lon="13.6035659"><ele>38.0</ele><time>2026-04-06T16:38:30.993Z</time></trkpt><trkpt lat="45.7761087" lon="13.6037769"><ele>38.0</ele><time>2026-04-06T16:38:31.972Z</time></trkpt><trkpt lat="45.7760377" lon="13.6040022"><ele>38.0</ele><time>2026-04-06T16:38:32.989Z</time></trkpt><trkpt lat="45.7759645" lon="13.6042344"><ele>38.0</ele><time>2026-04-06T16:38:33.977Z</time></trkpt><trkpt lat="45.7758811" lon="13.6044727"><ele>39.0</ele><time>2026-04-06T16:38:34.979Z</time></trkpt><trkpt lat="45.775808" lon="13.6047013"><ele>40.0</ele><time>2026-04-06T16:38:35.971Z</time></trkpt><trkpt lat="45.7757399" lon="13.6049146"><ele>41.0</ele><time>2026-04-06T16:38:36.982Z</time></trkpt><trkpt lat="45.7756741" lon="13.6051192"><ele>41.0</ele><time>2026-04-06T16:38:37.982Z</time></trkpt><trkpt lat="45.7756079" lon="13.6053215"><ele>41.0</ele><time>2026-04-06T16:38:38.974Z</time></trkpt><trkpt lat="45.7755429" lon="13.6055284"><ele>41.0</ele><time>2026-04-06T16:38:39.983Z</time></trkpt><trkpt lat="45.7754809" lon="13.6057294"><ele>41.75</ele><time>2026-04-06T16:38:40.981Z</time></trkpt><trkpt lat="45.7754242" lon="13.6059221"><ele>42.5</ele><time>2026-04-06T16:38:41.981Z</time></trkpt><trkpt lat="45.7753602" lon="13.6061121"><ele>43.25</ele><time>2026-04-06T16:38:42.97Z</time></trkpt><trkpt lat="45.7752973" lon="13.6063014"><ele>44.0</ele><time>2026-04-06T16:38:43.966Z</time></trkpt><trkpt lat="45.7752344" lon="13.6064914"><ele>44.5</ele><time>2026-04-06T16:38:44.977Z</time></trkpt><trkpt lat="45.7751721" lon="13.606675"><ele>45.0</ele><time>2026-04-06T16:38:45.969Z</time></trkpt><trkpt lat="45.7751121" lon="13.6068621"><ele>45.5</ele><time>2026-04-06T16:38:46.981Z</time></trkpt><trkpt lat="45.7750521" lon="13.6070477"><ele>46.0</ele><time>2026-04-06T16:38:47.981Z</time></trkpt><trkpt lat="45.7749921" lon="13.6072364"><ele>46.5</ele><time>2026-04-06T16:38:48.981Z</time></trkpt><trkpt lat="45.7749336" lon="13.607426"><ele>47.0</ele><time>2026-04-06T16:38:49.967Z</time></trkpt><trkpt lat="45.7748733" lon="13.6076156"><ele>47.5</ele><time>2026-04-06T16:38:50.993Z</time></trkpt><trkpt lat="45.7748169" lon="13.6078084"><ele>48.0</ele><time>2026-04-06T16:38:51.978Z</time></trkpt><trkpt lat="45.7747603" lon="13.6079995"><ele>48.0</ele><time>2026-04-06T16:38:52.979Z</time></trkpt><trkpt lat="45.7747003" lon="13.608194"><ele>48.0</ele><time>2026-04-06T16:38:53.985Z</time></trkpt><trkpt lat="45.774643" lon="13.6083886"><ele>48.0</ele><time>2026-04-06T16:38:54.981Z</time></trkpt><trkpt lat="45.7745873" lon="13.6085821"><ele>48.0</ele><time>2026-04-06T16:38:55.979Z</time></trkpt><trkpt lat="45.7745391" lon="13.6087795"><ele>48.5</ele><time>2026-04-06T16:38:56.983Z</time></trkpt><trkpt lat="45.7745067" lon="13.6089814"><ele>49.0</ele><time>2026-04-06T16:38:57.984Z</time></trkpt><trkpt lat="45.7744969" lon="13.6091899"><ele>49.5</ele><time>2026-04-06T16:38:58.979Z</time></trkpt><trkpt lat="45.7744977" lon="13.6093992"><ele>50.0</ele><time>2026-04-06T16:38:59.973Z</time></trkpt><trkpt lat="45.7745075" lon="13.6095981"><ele>50.5</ele><time>2026-04-06T16:39:00.973Z</time></trkpt><trkpt lat="45.7745205" lon="13.6097864"><ele>51.0</ele><time>2026-04-06T16:39:01.979Z</time></trkpt><trkpt lat="45.7745436" lon="13.6099641"><ele>51.5</ele><time>2026-04-06T16:39:02.981Z</time></trkpt><trkpt lat="45.7745778" lon="13.6101377"><ele>52.0</ele><time>2026-04-06T16:39:03.965Z</time></trkpt><trkpt lat="45.7746177" lon="13.6103138"><ele>53.25</ele><time>2026-04-06T16:39:04.978Z</time></trkpt><trkpt lat="45.7746538" lon="13.6104904"><ele>54.5</ele><time>2026-04-06T16:39:05.976Z</time></trkpt><trkpt lat="45.7746857" lon="13.6106735"><ele>55.75</ele><time>2026-04-06T16:39:06.974Z</time></trkpt><trkpt lat="45.7747156" lon="13.6108644"><ele>57.0</ele><time>2026-04-06T16:39:07.972Z</time></trkpt><trkpt lat="45.7747467" lon="13.6110489"><ele>56.75</ele><time>2026-04-06T16:39:08.979Z</time></trkpt><trkpt lat="45.7747762" lon="13.6112395"><ele>56.5</ele><time>2026-04-06T16:39:09.975Z</time></trkpt><trkpt lat="45.7747942" lon="13.6114226"><ele>56.25</ele><time>2026-04-06T16:39:10.977Z</time></trkpt><trkpt lat="45.7748037" lon="13.6116111"><ele>56.0</ele><time>2026-04-06T16:39:11.975Z</time></trkpt><trkpt lat="45.774807" lon="13.6117966"><ele>56.0</ele><time>2026-04-06T16:39:12.981Z</time></trkpt><trkpt lat="45.7748045" lon="13.6119818"><ele>56.0</ele><time>2026-04-06T16:39:13.976Z</time></trkpt><trkpt lat="45.7747916" lon="13.6121615"><ele>56.0</ele><time>2026-04-06T16:39:14.978Z</time></trkpt><trkpt lat="45.7747819" lon="13.6123295"><ele>56.0</ele><time>2026-04-06T16:39:15.964Z</time></trkpt><trkpt lat="45.774771" lon="13.6124955"><ele>56.25</ele><time>2026-04-06T16:39:16.981Z</time></trkpt><trkpt lat="45.7747581" lon="13.6126638"><ele>56.5</ele><time>2026-04-06T16:39:17.967Z</time></trkpt><trkpt lat="45.7747429" lon="13.6128308"><ele>56.75</ele><time>2026-04-06T16:39:18.968Z</time></trkpt><trkpt lat="45.7747266" lon="13.6129988"><ele>57.0</ele><time>2026-04-06T16:39:19.962Z</time></trkpt><trkpt lat="45.7747154" lon="13.6131839"><ele>57.25</ele><time>2026-04-06T16:39:20.967Z</time></trkpt><trkpt lat="45.7747026" lon="13.6133647"><ele>57.5</ele><time>2026-04-06T16:39:21.975Z</time></trkpt><trkpt lat="45.7746897" lon="13.6135389"><ele>57.75</ele><time>2026-04-06T16:39:22.976Z</time></trkpt><trkpt lat="45.7746736" lon="13.6137167"><ele>58.0</ele><time>2026-04-06T16:39:23.966Z</time></trkpt><trkpt lat="45.7746569" lon="13.6139032"><ele>58.5</ele><time>2026-04-06T16:39:24.988Z</time></trkpt><trkpt lat="45.774636" lon="13.614087"><ele>59.0</ele><time>2026-04-06T16:39:25.978Z</time></trkpt><trkpt lat="45.7745974" lon="13.614277"><ele>59.5</ele><time>2026-04-06T16:39:26.977Z</time></trkpt><trkpt lat="45.7745512" lon="13.6144603"><ele>60.0</ele><time>2026-04-06T16:39:27.98Z</time></trkpt><trkpt lat="45.7744976" lon="13.6146427"><ele>60.0</ele><time>2026-04-06T16:39:28.977Z</time></trkpt><trkpt lat="45.7744407" lon="13.6148279"><ele>60.0</ele><time>2026-04-06T16:39:29.975Z</time></trkpt><trkpt lat="45.774384" lon="13.6150049"><ele>60.0</ele><time>2026-04-06T16:39:30.976Z</time></trkpt><trkpt lat="45.7743249" lon="13.6151757"><ele>60.0</ele><time>2026-04-06T16:39:31.969Z</time></trkpt><trkpt lat="45.774264" lon="13.6153521"><ele>60.5</ele><time>2026-04-06T16:39:32.976Z</time></trkpt><trkpt lat="45.7742031" lon="13.6155277"><ele>61.0</ele><time>2026-04-06T16:39:33.979Z</time></trkpt><trkpt lat="45.7741406" lon="13.6157014"><ele>61.5</ele><time>2026-04-06T16:39:34.973Z</time></trkpt><trkpt lat="45.7740731" lon="13.6158772"><ele>62.0</ele><time>2026-04-06T16:39:35.963Z</time></trkpt><trkpt lat="45.7740025" lon="13.6160517"><ele>61.5</ele><time>2026-04-06T16:39:36.966Z</time></trkpt><trkpt lat="45.7739319" lon="13.6162274"><ele>61.0</ele><time>2026-04-06T16:39:37.965Z</time></trkpt><trkpt lat="45.7738652" lon="13.6164085"><ele>60.5</ele><time>2026-04-06T16:39:38.967Z</time></trkpt><trkpt lat="45.7737917" lon="13.6165977"><ele>60.0</ele><time>2026-04-06T16:39:39.966Z</time></trkpt><trkpt lat="45.7737174" lon="13.6167894"><ele>59.0</ele><time>2026-04-06T16:39:40.988Z</time></trkpt><trkpt lat="45.773647" lon="13.6169889"><ele>58.0</ele><time>2026-04-06T16:39:41.964Z</time></trkpt><trkpt lat="45.7735882" lon="13.6171992"><ele>57.0</ele><time>2026-04-06T16:39:42.969Z</time></trkpt><trkpt lat="45.7735507" lon="13.6174204"><ele>57.0</ele><time>2026-04-06T16:39:43.968Z</time></trkpt><trkpt lat="45.7735276" lon="13.6176457"><ele>57.0</ele><time>2026-04-06T16:39:44.962Z</time></trkpt><trkpt lat="45.7735143" lon="13.6178706"><ele>57.0</ele><time>2026-04-06T16:39:45.958Z</time></trkpt><trkpt lat="45.7735016" lon="13.6180943"><ele>57.0</ele><time>2026-04-06T16:39:46.97Z</time></trkpt><trkpt lat="45.7734908" lon="13.618321"><ele>57.0</ele><time>2026-04-06T16:39:47.961Z</time></trkpt><trkpt lat="45.7734747" lon="13.6185452"><ele>57.0</ele><time>2026-04-06T16:39:48.965Z</time></trkpt><trkpt lat="45.7734546" lon="13.6187698"><ele>57.0</ele><time>2026-04-06T16:39:49.961Z</time></trkpt><trkpt lat="45.7734359" lon="13.6189962"><ele>57.0</ele><time>2026-04-06T16:39:50.973Z</time></trkpt><trkpt lat="45.7734196" lon="13.6192262"><ele>57.0</ele><time>2026-04-06T16:39:51.97Z</time></trkpt><trkpt lat="45.7734068" lon="13.6194635"><ele>58.66666666666667</ele><time>2026-04-06T16:39:52.983Z</time></trkpt><trkpt lat="45.7733933" lon="13.619702"><ele>60.333333333333336</ele><time>2026-04-06T16:39:53.968Z</time></trkpt><trkpt lat="45.7733794" lon="13.6199401"><ele>62.0</ele><time>2026-04-06T16:39:54.964Z</time></trkpt><trkpt lat="45.7733643" lon="13.6201652"><ele>61.66666666666667</ele><time>2026-04-06T16:39:55.972Z</time></trkpt><trkpt lat="45.7733454" lon="13.6203786"><ele>61.33333333333333</ele><time>2026-04-06T16:39:56.969Z</time></trkpt><trkpt lat="45.7733251" lon="13.6205906"><ele>61.0</ele><time>2026-04-06T16:39:57.966Z</time></trkpt><trkpt lat="45.7733098" lon="13.620813"><ele>61.0</ele><time>2026-04-06T16:39:58.971Z</time></trkpt><trkpt lat="45.7732936" lon="13.6210431"><ele>61.0</ele><time>2026-04-06T16:39:59.971Z</time></trkpt><trkpt lat="45.7732773" lon="13.6212721"><ele>61.0</ele><time>2026-04-06T16:40:00.97Z</time></trkpt><trkpt lat="45.7732565" lon="13.6214987"><ele>61.0</ele><time>2026-04-06T16:40:01.969Z</time></trkpt><trkpt lat="45.7732319" lon="13.6217264"><ele>61.0</ele><time>2026-04-06T16:40:02.965Z</time></trkpt><trkpt lat="45.7732065" lon="13.6219513"><ele>61.0</ele><time>2026-04-06T16:40:03.967Z</time></trkpt><trkpt lat="45.7731815" lon="13.6221617"><ele>61.0</ele><time>2026-04-06T16:40:04.962Z</time></trkpt><trkpt lat="45.7731606" lon="13.6223675"><ele>61.0</ele><time>2026-04-06T16:40:05.968Z</time></trkpt><trkpt lat="45.773143" lon="13.622564"><ele>61.0</ele><time>2026-04-06T16:40:06.966Z</time></trkpt><trkpt lat="45.7731262" lon="13.6227558"><ele>61.0</ele><time>2026-04-06T16:40:07.961Z</time></trkpt><trkpt lat="45.7731177" lon="13.6229488"><ele>61.0</ele><time>2026-04-06T16:40:08.967Z</time></trkpt><trkpt lat="45.7731089" lon="13.62314"><ele>61.0</ele><time>2026-04-06T16:40:09.965Z</time></trkpt><trkpt lat="45.7730995" lon="13.6233223"><ele>61.0</ele><time>2026-04-06T16:40:10.968Z</time></trkpt><trkpt lat="45.7730898" lon="13.6234928"><ele>61.0</ele><time>2026-04-06T16:40:11.961Z</time></trkpt><trkpt lat="45.7730801" lon="13.6236665"><ele>61.25</ele><time>2026-04-06T16:40:12.962Z</time></trkpt><trkpt lat="45.7730701" lon="13.6238437"><ele>61.5</ele><time>2026-04-06T16:40:13.965Z</time></trkpt><trkpt lat="45.7730499" lon="13.6240272"><ele>61.75</ele><time>2026-04-06T16:40:14.972Z</time></trkpt><trkpt lat="45.7730232" lon="13.6242156"><ele>62.0</ele><time>2026-04-06T16:40:15.969Z</time></trkpt><trkpt lat="45.772998" lon="13.6244042"><ele>62.0</ele><time>2026-04-06T16:40:16.968Z</time></trkpt><trkpt lat="45.772975" lon="13.6245968"><ele>62.0</ele><time>2026-04-06T16:40:17.966Z</time></trkpt><trkpt lat="45.7729528" lon="13.6247969"><ele>62.0</ele><time>2026-04-06T16:40:18.973Z</time></trkpt><trkpt lat="45.7729319" lon="13.6249929"><ele>62.0</ele><time>2026-04-06T16:40:19.972Z</time></trkpt><trkpt lat="45.7729071" lon="13.6251897"><ele>61.75</ele><time>2026-04-06T16:40:20.974Z</time></trkpt><trkpt lat="45.772881" lon="13.6253839"><ele>61.5</ele><time>2026-04-06T16:40:21.978Z</time></trkpt><trkpt lat="45.7728579" lon="13.6255821"><ele>61.25</ele><time>2026-04-06T16:40:22.985Z</time></trkpt><trkpt lat="45.7728339" lon="13.6257795"><ele>61.0</ele><time>2026-04-06T16:40:23.978Z</time></trkpt><trkpt lat="45.7728152" lon="13.6259862"><ele>60.0</ele><time>2026-04-06T16:40:24.979Z</time></trkpt><trkpt lat="45.7727958" lon="13.6261948"><ele>59.0</ele><time>2026-04-06T16:40:25.971Z</time></trkpt><trkpt lat="45.772778" lon="13.6264016"><ele>58.0</ele><time>2026-04-06T16:40:26.979Z</time></trkpt><trkpt lat="45.7727631" lon="13.6266015"><ele>57.0</ele><time>2026-04-06T16:40:27.984Z</time></trkpt><trkpt lat="45.7727563" lon="13.6268036"><ele>56.5</ele><time>2026-04-06T16:40:28.983Z</time></trkpt><trkpt lat="45.7727599" lon="13.6270041"><ele>56.0</ele><time>2026-04-06T16:40:29.983Z</time></trkpt><trkpt lat="45.7727735" lon="13.6272075"><ele>55.5</ele><time>2026-04-06T16:40:30.987Z</time></trkpt><trkpt lat="45.7727965" lon="13.6274154"><ele>55.0</ele><time>2026-04-06T16:40:31.975Z</time></trkpt><trkpt lat="45.7728214" lon="13.6276228"><ele>56.0</ele><time>2026-04-06T16:40:32.977Z</time></trkpt><trkpt lat="45.772849" lon="13.6278315"><ele>57.0</ele><time>2026-04-06T16:40:33.973Z</time></trkpt><trkpt lat="45.7728787" lon="13.6280383"><ele>58.0</ele><time>2026-04-06T16:40:34.983Z</time></trkpt><trkpt lat="45.7729118" lon="13.6282368"><ele>59.0</ele><time>2026-04-06T16:40:35.979Z</time></trkpt><trkpt lat="45.772946" lon="13.6284279"><ele>59.0</ele><time>2026-04-06T16:40:36.997Z</time></trkpt><trkpt lat="45.772978" lon="13.6286188"><ele>59.0</ele><time>2026-04-06T16:40:37.984Z</time></trkpt><trkpt lat="45.7730118" lon="13.6288093"><ele>59.0</ele><time>2026-04-06T16:40:38.985Z</time></trkpt><trkpt lat="45.773042" lon="13.6290009"><ele>59.0</ele><time>2026-04-06T16:40:39.978Z</time></trkpt><trkpt lat="45.7730693" lon="13.629191"><ele>60.0</ele><time>2026-04-06T16:40:40.982Z</time></trkpt><trkpt lat="45.773096" lon="13.6293865"><ele>61.0</ele><time>2026-04-06T16:40:41.981Z</time></trkpt><trkpt lat="45.7731238" lon="13.6295868"><ele>62.0</ele><time>2026-04-06T16:40:42.965Z</time></trkpt><trkpt lat="45.7731555" lon="13.6297908"><ele>63.0</ele><time>2026-04-06T16:40:43.979Z</time></trkpt><trkpt lat="45.7731862" lon="13.6299966"><ele>63.5</ele><time>2026-04-06T16:40:44.982Z</time></trkpt><trkpt lat="45.7732182" lon="13.6302059"><ele>64.0</ele><time>2026-04-06T16:40:45.98Z</time></trkpt><trkpt lat="45.7732485" lon="13.6304152"><ele>64.5</ele><time>2026-04-06T16:40:46.983Z</time></trkpt><trkpt lat="45.7732821" lon="13.6306208"><ele>65.0</ele><time>2026-04-06T16:40:47.984Z</time></trkpt><trkpt lat="45.7733108" lon="13.6308311"><ele>65.5</ele><time>2026-04-06T16:40:48.987Z</time></trkpt><trkpt lat="45.7733401" lon="13.6310414"><ele>66.0</ele><time>2026-04-06T16:40:49.987Z</time></trkpt><trkpt lat="45.7733708" lon="13.6312477"><ele>66.5</ele><time>2026-04-06T16:40:50.985Z</time></trkpt><trkpt lat="45.773397" lon="13.631443"><ele>67.0</ele><time>2026-04-06T16:40:51.98Z</time></trkpt><trkpt lat="45.7734277" lon="13.6316396"><ele>67.0</ele><time>2026-04-06T16:40:52.984Z</time></trkpt><trkpt lat="45.7734616" lon="13.6318366"><ele>67.0</ele><time>2026-04-06T16:40:53.981Z</time></trkpt><trkpt lat="45.7734891" lon="13.6320273"><ele>67.0</ele><time>2026-04-06T16:40:54.99Z</time></trkpt><trkpt lat="45.7735154" lon="13.6322119"><ele>67.0</ele><time>2026-04-06T16:40:55.985Z</time></trkpt><trkpt lat="45.7735412" lon="13.6323969"><ele>68.25</ele><time>2026-04-06T16:40:56.985Z</time></trkpt><trkpt lat="45.7735712" lon="13.6325877"><ele>69.5</ele><time>2026-04-06T16:40:57.999Z</time></trkpt><trkpt lat="45.7736005" lon="13.6327653"><ele>70.75</ele><time>2026-04-06T16:40:58.989Z</time></trkpt><trkpt lat="45.7736266" lon="13.6329389"><ele>72.0</ele><time>2026-04-06T16:40:59.987Z</time></trkpt><trkpt lat="45.7736458" lon="13.6331134"><ele>72.5</ele><time>2026-04-06T16:41:00.981Z</time></trkpt><trkpt lat="45.7736663" lon="13.6332807"><ele>73.0</ele><time>2026-04-06T16:41:01.981Z</time></trkpt><trkpt lat="45.7736846" lon="13.633439"><ele>73.5</ele><time>2026-04-06T16:41:02.994Z</time></trkpt><trkpt lat="45.7736852" lon="13.6336133"><ele>74.0</ele><time>2026-04-06T16:41:03.988Z</time></trkpt><trkpt lat="45.7736655" lon="13.6337817"><ele>74.25</ele><time>2026-04-06T16:41:04.991Z</time></trkpt><trkpt lat="45.7736205" lon="13.6339527"><ele>74.5</ele><time>2026-04-06T16:41:05.978Z</time></trkpt><trkpt lat="45.7735542" lon="13.6341149"><ele>74.75</ele><time>2026-04-06T16:41:06.976Z</time></trkpt><trkpt lat="45.7734797" lon="13.6342569"><ele>75.0</ele><time>2026-04-06T16:41:07.976Z</time></trkpt><trkpt lat="45.7734054" lon="13.634379"><ele>75.6</ele><time>2026-04-06T16:41:08.973Z</time></trkpt><trkpt lat="45.7733223" lon="13.6344878"><ele>76.2</ele><time>2026-04-06T16:41:09.971Z</time></trkpt><trkpt lat="45.7732413" lon="13.6345943"><ele>76.8</ele><time>2026-04-06T16:41:10.969Z</time></trkpt><trkpt lat="45.7731593" lon="13.6346922"><ele>77.4</ele><time>2026-04-06T16:41:11.963Z</time></trkpt><trkpt lat="45.7730784" lon="13.6347821"><ele>78.0</ele><time>2026-04-06T16:41:12.966Z</time></trkpt><trkpt lat="45.7729943" lon="13.6348704"><ele>78.0</ele><time>2026-04-06T16:41:13.966Z</time></trkpt><trkpt lat="45.7729047" lon="13.6349589"><ele>78.0</ele><time>2026-04-06T16:41:14.964Z</time></trkpt><trkpt lat="45.7728128" lon="13.635045"><ele>78.0</ele><time>2026-04-06T16:41:15.968Z</time></trkpt><trkpt lat="45.772725" lon="13.6351309"><ele>78.0</ele><time>2026-04-06T16:41:16.974Z</time></trkpt><trkpt lat="45.7726409" lon="13.6352217"><ele>78.0</ele><time>2026-04-06T16:41:17.965Z</time></trkpt><trkpt lat="45.7725621" lon="13.6353183"><ele>77.2</ele><time>2026-04-06T16:41:18.982Z</time></trkpt><trkpt lat="45.7724898" lon="13.6354239"><ele>76.4</ele><time>2026-04-06T16:41:19.978Z</time></trkpt><trkpt lat="45.7724287" lon="13.6355453"><ele>75.60000000000001</ele><time>2026-04-06T16:41:20.983Z</time></trkpt><trkpt lat="45.7723687" lon="13.6356666"><ele>74.8</ele><time>2026-04-06T16:41:21.977Z</time></trkpt><trkpt lat="45.7723129" lon="13.6357963"><ele>74.0</ele><time>2026-04-06T16:41:22.979Z</time></trkpt><trkpt lat="45.772264" lon="13.6359156"><ele>74.0</ele><time>2026-04-06T16:41:23.971Z</time></trkpt><trkpt lat="45.772219" lon="13.636026"><ele>74.0</ele><time>2026-04-06T16:41:24.978Z</time></trkpt><trkpt lat="45.7721726" lon="13.63614"><ele>74.0</ele><time>2026-04-06T16:41:25.98Z</time></trkpt><trkpt lat="45.7721229" lon="13.6362495"><ele>74.0</ele><time>2026-04-06T16:41:26.977Z</time></trkpt><trkpt lat="45.7720633" lon="13.6363638"><ele>74.0</ele><time>2026-04-06T16:41:27.977Z</time></trkpt><trkpt lat="45.7720017" lon="13.636482"><ele>74.0</ele><time>2026-04-06T16:41:28.977Z</time></trkpt><trkpt lat="45.7719387" lon="13.6365889"><ele>74.0</ele><time>2026-04-06T16:41:29.98Z</time></trkpt><trkpt lat="45.7718786" lon="13.6366826"><ele>74.0</ele><time>2026-04-06T16:41:30.976Z</time></trkpt><trkpt lat="45.7718185" lon="13.6367683"><ele>74.0</ele><time>2026-04-06T16:41:31.989Z</time></trkpt><trkpt lat="45.7717616" lon="13.6368493"><ele>74.0</ele><time>2026-04-06T16:41:32.973Z</time></trkpt><trkpt lat="45.7717106" lon="13.6369307"><ele>74.0</ele><time>2026-04-06T16:41:33.968Z</time></trkpt><trkpt lat="45.7716604" lon="13.6370084"><ele>74.16666666666667</ele><time>2026-04-06T16:41:34.974Z</time></trkpt><trkpt lat="45.7716177" lon="13.6370817"><ele>74.33333333333334</ele><time>2026-04-06T16:41:35.981Z</time></trkpt><trkpt lat="45.7715731" lon="13.6371492"><ele>74.5</ele><time>2026-04-06T16:41:36.98Z</time></trkpt><trkpt lat="45.7715035" lon="13.6372768"><ele>74.66666666666667</ele><time>2026-04-06T16:41:38.998Z</time></trkpt><trkpt lat="45.7714286" lon="13.6373981"><ele>74.83333333333333</ele><time>2026-04-06T16:41:40.987Z</time></trkpt><trkpt lat="45.771379" lon="13.6374757"><ele>75.0</ele><time>2026-04-06T16:41:41.984Z</time></trkpt><trkpt lat="45.7713217" lon="13.6375616"><ele>75.0</ele><time>2026-04-06T16:41:42.989Z</time></trkpt><trkpt lat="45.7712688" lon="13.6376447"><ele>75.0</ele><time>2026-04-06T16:41:43.988Z</time></trkpt><trkpt lat="45.7712225" lon="13.6377161"><ele>75.0</ele><time>2026-04-06T16:41:44.988Z</time></trkpt><trkpt lat="45.7711504" lon="13.6378217"><ele>75.0</ele><time>2026-04-06T16:41:46.991Z</time></trkpt><trkpt lat="45.7711001" lon="13.6379135"><ele>75.0</ele><time>2026-04-06T16:41:50.984Z</time></trkpt><trkpt lat="45.7710549" lon="13.6380001"><ele>75.0</ele><time>2026-04-06T16:41:52.991Z</time></trkpt><trkpt lat="45.7709977" lon="13.6380904"><ele>75.8</ele><time>2026-04-06T16:41:54.981Z</time></trkpt><trkpt lat="45.7709275" lon="13.6381751"><ele>76.6</ele><time>2026-04-06T16:41:56.983Z</time></trkpt><trkpt lat="45.7708381" lon="13.6382765"><ele>77.4</ele><time>2026-04-06T16:41:58.998Z</time></trkpt><trkpt lat="45.7707842" lon="13.6383367"><ele>78.2</ele><time>2026-04-06T16:41:59.993Z</time></trkpt><trkpt lat="45.7707308" lon="13.6383922"><ele>79.0</ele><time>2026-04-06T16:42:00.988Z</time></trkpt><trkpt lat="45.7706277" lon="13.6384888"><ele>79.0</ele><time>2026-04-06T16:42:02.987Z</time></trkpt><trkpt lat="45.7705642" lon="13.6385112"><ele>79.0</ele><time>2026-04-06T16:42:03.999Z</time></trkpt><trkpt lat="45.7704955" lon="13.6385194"><ele>79.0</ele><time>2026-04-06T16:42:04.975Z</time></trkpt><trkpt lat="45.770426" lon="13.6385151"><ele>79.0</ele><time>2026-04-06T16:42:05.982Z</time></trkpt><trkpt lat="45.7703607" lon="13.6385101"><ele>79.0</ele><time>2026-04-06T16:42:06.986Z</time></trkpt><trkpt lat="45.7702572" lon="13.6385502"><ele>79.0</ele><time>2026-04-06T16:42:08.992Z</time></trkpt><trkpt lat="45.770174" lon="13.6386883"><ele>79.14285714285715</ele><time>2026-04-06T16:42:10.966Z</time></trkpt><trkpt lat="45.7701476" lon="13.6387732"><ele>79.28571428571429</ele><time>2026-04-06T16:42:11.976Z</time></trkpt><trkpt lat="45.7701424" lon="13.6388726"><ele>79.42857142857143</ele><time>2026-04-06T16:42:12.979Z</time></trkpt><trkpt lat="45.7701594" lon="13.6389711"><ele>79.57142857142858</ele><time>2026-04-06T16:42:13.979Z</time></trkpt><trkpt lat="45.7701761" lon="13.6390682"><ele>79.71428571428572</ele><time>2026-04-06T16:42:14.989Z</time></trkpt><trkpt lat="45.7701799" lon="13.6391632"><ele>79.85714285714286</ele><time>2026-04-06T16:42:15.99Z</time></trkpt><trkpt lat="45.7701612" lon="13.6392625"><ele>80.0</ele><time>2026-04-06T16:42:16.985Z</time></trkpt><trkpt lat="45.7701184" lon="13.6393747"><ele>80.2</ele><time>2026-04-06T16:42:17.988Z</time></trkpt><trkpt lat="45.7700623" lon="13.6394804"><ele>80.4</ele><time>2026-04-06T16:42:18.99Z</time></trkpt><trkpt lat="45.7699966" lon="13.6395907"><ele>80.6</ele><time>2026-04-06T16:42:19.988Z</time></trkpt><trkpt lat="45.769918" lon="13.6397094"><ele>80.8</ele><time>2026-04-06T16:42:20.991Z</time></trkpt><trkpt lat="45.769835" lon="13.6398328"><ele>81.0</ele><time>2026-04-06T16:42:21.985Z</time></trkpt><trkpt lat="45.7697477" lon="13.6399576"><ele>81.0</ele><time>2026-04-06T16:42:22.987Z</time></trkpt><trkpt lat="45.7696541" lon="13.6400978"><ele>81.0</ele><time>2026-04-06T16:42:23.982Z</time></trkpt><trkpt lat="45.7695592" lon="13.6402295"><ele>81.0</ele><time>2026-04-06T16:42:24.989Z</time></trkpt><trkpt lat="45.76947" lon="13.6403712"><ele>81.0</ele><time>2026-04-06T16:42:25.983Z</time></trkpt><trkpt lat="45.7693816" lon="13.640512"><ele>81.75</ele><time>2026-04-06T16:42:26.995Z</time></trkpt><trkpt lat="45.7692947" lon="13.6406528"><ele>82.5</ele><time>2026-04-06T16:42:27.991Z</time></trkpt><trkpt lat="45.7692043" lon="13.6407901"><ele>83.25</ele><time>2026-04-06T16:42:28.982Z</time></trkpt><trkpt lat="45.7691098" lon="13.6409257"><ele>84.0</ele><time>2026-04-06T16:42:30.006Z</time></trkpt><trkpt lat="45.7690132" lon="13.6410658"><ele>84.5</ele><time>2026-04-06T16:42:30.989Z</time></trkpt><trkpt lat="45.7689168" lon="13.6412043"><ele>85.0</ele><time>2026-04-06T16:42:31.99Z</time></trkpt><trkpt lat="45.7688245" lon="13.6413456"><ele>85.5</ele><time>2026-04-06T16:42:32.987Z</time></trkpt><trkpt lat="45.7687291" lon="13.6414873"><ele>86.0</ele><time>2026-04-06T16:42:33.987Z</time></trkpt><trkpt lat="45.7686336" lon="13.6416284"><ele>86.0</ele><time>2026-04-06T16:42:34.993Z</time></trkpt><trkpt lat="45.7685393" lon="13.6417746"><ele>86.0</ele><time>2026-04-06T16:42:35.986Z</time></trkpt><trkpt lat="45.7684434" lon="13.6419173"><ele>86.0</ele><time>2026-04-06T16:42:36.989Z</time></trkpt><trkpt lat="45.7683507" lon="13.6420612"><ele>86.0</ele><time>2026-04-06T16:42:37.987Z</time></trkpt><trkpt lat="45.7682559" lon="13.6422056"><ele>87.0</ele><time>2026-04-06T16:42:38.988Z</time></trkpt><trkpt lat="45.7681591" lon="13.6423537"><ele>88.0</ele><time>2026-04-06T16:42:39.992Z</time></trkpt><trkpt lat="45.7680589" lon="13.6425002"><ele>89.0</ele><time>2026-04-06T16:42:40.982Z</time></trkpt><trkpt lat="45.7679606" lon="13.6426514"><ele>90.0</ele><time>2026-04-06T16:42:41.981Z</time></trkpt><trkpt lat="45.7678532" lon="13.6428033"><ele>90.66666666666667</ele><time>2026-04-06T16:42:42.989Z</time></trkpt><trkpt lat="45.7677428" lon="13.6429707"><ele>91.33333333333334</ele><time>2026-04-06T16:42:43.991Z</time></trkpt><trkpt lat="45.7676353" lon="13.6431369"><ele>92.0</ele><time>2026-04-06T16:42:44.993Z</time></trkpt><trkpt lat="45.7675243" lon="13.6433096"><ele>91.66666666666667</ele><time>2026-04-06T16:42:45.999Z</time></trkpt><trkpt lat="45.7674128" lon="13.6434788"><ele>91.33333333333333</ele><time>2026-04-06T16:42:46.997Z</time></trkpt><trkpt lat="45.7672971" lon="13.643656"><ele>91.0</ele><time>2026-04-06T16:42:47.986Z</time></trkpt><trkpt lat="45.7671813" lon="13.6438247"><ele>91.0</ele><time>2026-04-06T16:42:48.983Z</time></trkpt><trkpt lat="45.7670657" lon="13.6439969"><ele>91.0</ele><time>2026-04-06T16:42:49.977Z</time></trkpt><trkpt lat="45.7669491" lon="13.644171"><ele>91.0</ele><time>2026-04-06T16:42:50.992Z</time></trkpt><trkpt lat="45.7668374" lon="13.6443477"><ele>91.66666666666666</ele><time>2026-04-06T16:42:51.983Z</time></trkpt><trkpt lat="45.766724" lon="13.6445159"><ele>92.33333333333333</ele><time>2026-04-06T16:42:52.98Z</time></trkpt><trkpt lat="45.7666092" lon="13.6446836"><ele>93.0</ele><time>2026-04-06T16:42:53.996Z</time></trkpt><trkpt lat="45.7664967" lon="13.64485"><ele>93.0</ele><time>2026-04-06T16:42:54.989Z</time></trkpt><trkpt lat="45.766383" lon="13.6450153"><ele>93.0</ele><time>2026-04-06T16:42:55.992Z</time></trkpt><trkpt lat="45.7662761" lon="13.6451752"><ele>93.0</ele><time>2026-04-06T16:42:56.991Z</time></trkpt><trkpt lat="45.7661697" lon="13.6453342"><ele>92.75</ele><time>2026-04-06T16:42:57.989Z</time></trkpt><trkpt lat="45.7660697" lon="13.6454879"><ele>92.5</ele><time>2026-04-06T16:42:58.992Z</time></trkpt><trkpt lat="45.7659716" lon="13.6456338"><ele>92.25</ele><time>2026-04-06T16:42:59.983Z</time></trkpt><trkpt lat="45.7658654" lon="13.6457922"><ele>92.0</ele><time>2026-04-06T16:43:01Z</time></trkpt><trkpt lat="45.7657588" lon="13.6459561"><ele>93.0</ele><time>2026-04-06T16:43:01.988Z</time></trkpt><trkpt lat="45.7656483" lon="13.6461176"><ele>94.0</ele><time>2026-04-06T16:43:02.987Z</time></trkpt><trkpt lat="45.7655376" lon="13.6462803"><ele>95.0</ele><time>2026-04-06T16:43:03.988Z</time></trkpt><trkpt lat="45.7654267" lon="13.6464434"><ele>96.33333333333334</ele><time>2026-04-06T16:43:04.981Z</time></trkpt><trkpt lat="45.7653144" lon="13.6466094"><ele>97.66666666666667</ele><time>2026-04-06T16:43:05.985Z</time></trkpt><trkpt lat="45.7652044" lon="13.6467771"><ele>99.0</ele><time>2026-04-06T16:43:06.986Z</time></trkpt><trkpt lat="45.7650929" lon="13.6469441"><ele>99.66666666666666</ele><time>2026-04-06T16:43:07.987Z</time></trkpt><trkpt lat="45.7649778" lon="13.6471117"><ele>100.33333333333333</ele><time>2026-04-06T16:43:08.987Z</time></trkpt><trkpt lat="45.7648611" lon="13.6472822"><ele>101.0</ele><time>2026-04-06T16:43:09.996Z</time></trkpt><trkpt lat="45.7647466" lon="13.6474535"><ele>101.0</ele><time>2026-04-06T16:43:10.988Z</time></trkpt><trkpt lat="45.7646293" lon="13.6476319"><ele>101.0</ele><time>2026-04-06T16:43:11.989Z</time></trkpt><trkpt lat="45.764505" lon="13.6478099"><ele>101.0</ele><time>2026-04-06T16:43:12.983Z</time></trkpt><trkpt lat="45.7643828" lon="13.6479897"><ele>101.66666666666666</ele><time>2026-04-06T16:43:13.993Z</time></trkpt><trkpt lat="45.7642597" lon="13.6481684"><ele>102.33333333333334</ele><time>2026-04-06T16:43:14.986Z</time></trkpt><trkpt lat="45.7641354" lon="13.6483424"><ele>103.0</ele><time>2026-04-06T16:43:15.983Z</time></trkpt><trkpt lat="45.764012" lon="13.6485196"><ele>103.66666666666667</ele><time>2026-04-06T16:43:16.994Z</time></trkpt><trkpt lat="45.7638896" lon="13.6486975"><ele>104.33333333333334</ele><time>2026-04-06T16:43:17.99Z</time></trkpt><trkpt lat="45.7637679" lon="13.648876"><ele>105.0</ele><time>2026-04-06T16:43:18.987Z</time></trkpt><trkpt lat="45.7636475" lon="13.6490592"><ele>105.66666666666666</ele><time>2026-04-06T16:43:19.987Z</time></trkpt><trkpt lat="45.7635301" lon="13.6492405"><ele>106.33333333333333</ele><time>2026-04-06T16:43:20.983Z</time></trkpt><trkpt lat="45.7634109" lon="13.649419"><ele>107.0</ele><time>2026-04-06T16:43:22Z</time></trkpt><trkpt lat="45.7632881" lon="13.6496059"><ele>108.33333333333333</ele><time>2026-04-06T16:43:22.983Z</time></trkpt><trkpt lat="45.7631647" lon="13.6497794"><ele>109.66666666666666</ele><time>2026-04-06T16:43:23.992Z</time></trkpt><trkpt lat="45.7630453" lon="13.649955"><ele>111.0</ele><time>2026-04-06T16:43:24.987Z</time></trkpt><trkpt lat="45.7629305" lon="13.6501294"><ele>112.66666666666666</ele><time>2026-04-06T16:43:25.979Z</time></trkpt><trkpt lat="45.7628136" lon="13.6503096"><ele>114.33333333333333</ele><time>2026-04-06T16:43:26.992Z</time></trkpt><trkpt lat="45.7627002" lon="13.6504831"><ele>116.0</ele><time>2026-04-06T16:43:27.985Z</time></trkpt><trkpt lat="45.76259" lon="13.6506608"><ele>116.0</ele><time>2026-04-06T16:43:29.003Z</time></trkpt><trkpt lat="45.7624866" lon="13.6508403"><ele>116.0</ele><time>2026-04-06T16:43:29.992Z</time></trkpt><trkpt lat="45.7623796" lon="13.651025"><ele>116.0</ele><time>2026-04-06T16:43:30.983Z</time></trkpt><trkpt lat="45.7622747" lon="13.6512003"><ele>116.66666666666666</ele><time>2026-04-06T16:43:31.984Z</time></trkpt><trkpt lat="45.7621652" lon="13.6513717"><ele>117.33333333333334</ele><time>2026-04-06T16:43:32.99Z</time></trkpt><trkpt lat="45.7620473" lon="13.6515447"><ele>118.0</ele><time>2026-04-06T16:43:33.984Z</time></trkpt><trkpt lat="45.7619168" lon="13.6517257"><ele>117.33333333333334</ele><time>2026-04-06T16:43:34.976Z</time></trkpt><trkpt lat="45.761792" lon="13.6519096"><ele>116.66666666666666</ele><time>2026-04-06T16:43:35.99Z</time></trkpt><trkpt lat="45.7616665" lon="13.6520996"><ele>116.0</ele><time>2026-04-06T16:43:36.982Z</time></trkpt><trkpt lat="45.7615338" lon="13.6522908"><ele>116.0</ele><time>2026-04-06T16:43:37.985Z</time></trkpt><trkpt lat="45.7614048" lon="13.6524794"><ele>116.0</ele><time>2026-04-06T16:43:38.996Z</time></trkpt><trkpt lat="45.7612772" lon="13.6526577"><ele>116.0</ele><time>2026-04-06T16:43:39.966Z</time></trkpt><trkpt lat="45.7611606" lon="13.6528211"><ele>116.0</ele><time>2026-04-06T16:43:40.99Z</time></trkpt><trkpt lat="45.7610413" lon="13.6529807"><ele>116.0</ele><time>2026-04-06T16:43:41.98Z</time></trkpt><trkpt lat="45.7609196" lon="13.6531445"><ele>116.0</ele><time>2026-04-06T16:43:42.983Z</time></trkpt><trkpt lat="45.7607966" lon="13.653313"><ele>116.0</ele><time>2026-04-06T16:43:43.977Z</time></trkpt><trkpt lat="45.7606832" lon="13.6534933"><ele>116.0</ele><time>2026-04-06T16:43:44.986Z</time></trkpt><trkpt lat="45.7605729" lon="13.6536868"><ele>116.0</ele><time>2026-04-06T16:43:45.987Z</time></trkpt><trkpt lat="45.7604708" lon="13.6538867"><ele>116.33333333333333</ele><time>2026-04-06T16:43:46.981Z</time></trkpt><trkpt lat="45.7603783" lon="13.6540939"><ele>116.66666666666666</ele><time>2026-04-06T16:43:47.973Z</time></trkpt><trkpt lat="45.7602876" lon="13.6543079"><ele>117.0</ele><time>2026-04-06T16:43:48.991Z</time></trkpt><trkpt lat="45.7602035" lon="13.6545253"><ele>116.33333333333334</ele><time>2026-04-06T16:43:49.983Z</time></trkpt><trkpt lat="45.7601195" lon="13.6547347"><ele>115.66666666666667</ele><time>2026-04-06T16:43:50.974Z</time></trkpt><trkpt lat="45.7600413" lon="13.6549414"><ele>115.0</ele><time>2026-04-06T16:43:51.98Z</time></trkpt><trkpt lat="45.7599647" lon="13.6551553"><ele>114.0</ele><time>2026-04-06T16:43:52.975Z</time></trkpt><trkpt lat="45.7598906" lon="13.6553694"><ele>113.0</ele><time>2026-04-06T16:43:53.969Z</time></trkpt><trkpt lat="45.7598097" lon="13.6555867"><ele>112.0</ele><time>2026-04-06T16:43:54.979Z</time></trkpt><trkpt lat="45.7597284" lon="13.6557997"><ele>112.0</ele><time>2026-04-06T16:43:55.981Z</time></trkpt><trkpt lat="45.759649" lon="13.6560129"><ele>112.0</ele><time>2026-04-06T16:43:56.987Z</time></trkpt><trkpt lat="45.7595736" lon="13.6562224"><ele>112.0</ele><time>2026-04-06T16:43:57.994Z</time></trkpt><trkpt lat="45.7595016" lon="13.6564293"><ele>114.33333333333334</ele><time>2026-04-06T16:43:58.989Z</time></trkpt><trkpt lat="45.7594301" lon="13.6566343"><ele>116.66666666666666</ele><time>2026-04-06T16:43:59.979Z</time></trkpt><trkpt lat="45.7593566" lon="13.6568391"><ele>119.0</ele><time>2026-04-06T16:44:00.977Z</time></trkpt><trkpt lat="45.7592797" lon="13.6570399"><ele>119.0</ele><time>2026-04-06T16:44:01.978Z</time></trkpt><trkpt lat="45.7591893" lon="13.6572327"><ele>119.0</ele><time>2026-04-06T16:44:02.983Z</time></trkpt><trkpt lat="45.7590864" lon="13.6574084"><ele>119.0</ele><time>2026-04-06T16:44:03.99Z</time></trkpt><trkpt lat="45.7589773" lon="13.6575734"><ele>119.0</ele><time>2026-04-06T16:44:04.985Z</time></trkpt><trkpt lat="45.7588649" lon="13.6577313"><ele>119.0</ele><time>2026-04-06T16:44:05.971Z</time></trkpt><trkpt lat="45.7587443" lon="13.65788"><ele>119.0</ele><time>2026-04-06T16:44:06.994Z</time></trkpt><trkpt lat="45.7586166" lon="13.658006"><ele>119.0</ele><time>2026-04-06T16:44:07.983Z</time></trkpt><trkpt lat="45.7584796" lon="13.6581241"><ele>119.0</ele><time>2026-04-06T16:44:08.984Z</time></trkpt><trkpt lat="45.7583379" lon="13.6582297"><ele>119.0</ele><time>2026-04-06T16:44:09.978Z</time></trkpt><trkpt lat="45.7581974" lon="13.6583395"><ele>119.0</ele><time>2026-04-06T16:44:10.986Z</time></trkpt><trkpt lat="45.7580553" lon="13.6584517"><ele>119.0</ele><time>2026-04-06T16:44:11.987Z</time></trkpt><trkpt lat="45.7579169" lon="13.6585584"><ele>119.0</ele><time>2026-04-06T16:44:12.973Z</time></trkpt><trkpt lat="45.7577863" lon="13.6586605"><ele>119.33333333333333</ele><time>2026-04-06T16:44:13.988Z</time></trkpt><trkpt lat="45.7576518" lon="13.6587646"><ele>119.66666666666666</ele><time>2026-04-06T16:44:14.979Z</time></trkpt><trkpt lat="45.757516" lon="13.6588782"><ele>120.0</ele><time>2026-04-06T16:44:15.979Z</time></trkpt><trkpt lat="45.7573772" lon="13.6589925"><ele>120.0</ele><time>2026-04-06T16:44:16.989Z</time></trkpt><trkpt lat="45.7572399" lon="13.6591137"><ele>120.0</ele><time>2026-04-06T16:44:17.991Z</time></trkpt><trkpt lat="45.7570985" lon="13.6592272"><ele>120.0</ele><time>2026-04-06T16:44:18.993Z</time></trkpt><trkpt lat="45.7569555" lon="13.6593372"><ele>120.0</ele><time>2026-04-06T16:44:19.977Z</time></trkpt><trkpt lat="45.7568082" lon="13.6594489"><ele>120.0</ele><time>2026-04-06T16:44:20.991Z</time></trkpt><trkpt lat="45.75666" lon="13.6595645"><ele>120.0</ele><time>2026-04-06T16:44:21.982Z</time></trkpt><trkpt lat="45.7565155" lon="13.6596745"><ele>120.0</ele><time>2026-04-06T16:44:22.983Z</time></trkpt><trkpt lat="45.7563751" lon="13.659781"><ele>120.0</ele><time>2026-04-06T16:44:23.979Z</time></trkpt><trkpt lat="45.7562455" lon="13.6598822"><ele>120.0</ele><time>2026-04-06T16:44:24.983Z</time></trkpt><trkpt lat="45.7561199" lon="13.6599899"><ele>120.5</ele><time>2026-04-06T16:44:25.985Z</time></trkpt><trkpt lat="45.7559968" lon="13.6601129"><ele>121.0</ele><time>2026-04-06T16:44:26.981Z</time></trkpt><trkpt lat="45.755891" lon="13.6602515"><ele>121.5</ele><time>2026-04-06T16:44:27.969Z</time></trkpt><trkpt lat="45.7557933" lon="13.6604042"><ele>122.0</ele><time>2026-04-06T16:44:28.977Z</time></trkpt><trkpt lat="45.7556996" lon="13.6605638"><ele>122.0</ele><time>2026-04-06T16:44:29.986Z</time></trkpt><trkpt lat="45.7556027" lon="13.6607232"><ele>122.0</ele><time>2026-04-06T16:44:30.991Z</time></trkpt><trkpt lat="45.7555056" lon="13.6608845"><ele>122.0</ele><time>2026-04-06T16:44:31.981Z</time></trkpt><trkpt lat="45.755415" lon="13.6610381"><ele>122.0</ele><time>2026-04-06T16:44:32.989Z</time></trkpt><trkpt lat="45.7553209" lon="13.6611856"><ele>121.5</ele><time>2026-04-06T16:44:33.984Z</time></trkpt><trkpt lat="45.7552375" lon="13.6613213"><ele>121.0</ele><time>2026-04-06T16:44:34.999Z</time></trkpt><trkpt lat="45.7551474" lon="13.6614671"><ele>120.5</ele><time>2026-04-06T16:44:35.998Z</time></trkpt><trkpt lat="45.755047" lon="13.6616156"><ele>120.0</ele><time>2026-04-06T16:44:36.985Z</time></trkpt><trkpt lat="45.7549399" lon="13.6617672"><ele>121.0</ele><time>2026-04-06T16:44:37.982Z</time></trkpt><trkpt lat="45.7548227" lon="13.6619048"><ele>122.0</ele><time>2026-04-06T16:44:38.991Z</time></trkpt><trkpt lat="45.7547063" lon="13.6620369"><ele>123.0</ele><time>2026-04-06T16:44:39.983Z</time></trkpt><trkpt lat="45.7545783" lon="13.662169"><ele>123.0</ele><time>2026-04-06T16:44:40.996Z</time></trkpt><trkpt lat="45.7544529" lon="13.6622828"><ele>123.0</ele><time>2026-04-06T16:44:41.984Z</time></trkpt><trkpt lat="45.7543461" lon="13.6623854"><ele>123.0</ele><time>2026-04-06T16:44:42.98Z</time></trkpt><trkpt lat="45.754248" lon="13.6624847"><ele>123.0</ele><time>2026-04-06T16:44:43.98Z</time></trkpt><trkpt lat="45.7541676" lon="13.6625839"><ele>124.16666666666667</ele><time>2026-04-06T16:44:44.976Z</time></trkpt><trkpt lat="45.7541032" lon="13.6626815"><ele>125.33333333333334</ele><time>2026-04-06T16:44:45.988Z</time></trkpt><trkpt lat="45.7540542" lon="13.662782"><ele>126.5</ele><time>2026-04-06T16:44:46.998Z</time></trkpt><trkpt lat="45.7540315" lon="13.6628835"><ele>127.66666666666667</ele><time>2026-04-06T16:44:47.995Z</time></trkpt><trkpt lat="45.7540339" lon="13.6629875"><ele>128.83333333333334</ele><time>2026-04-06T16:44:48.971Z</time></trkpt><trkpt lat="45.7540503" lon="13.6630809"><ele>130.0</ele><time>2026-04-06T16:44:49.992Z</time></trkpt><trkpt lat="45.7540579" lon="13.6631742"><ele>130.0</ele><time>2026-04-06T16:44:50.987Z</time></trkpt><trkpt lat="45.7540976" lon="13.6633363"><ele>130.0</ele><time>2026-04-06T16:44:52.984Z</time></trkpt><trkpt lat="45.7541175" lon="13.6634284"><ele>130.0</ele><time>2026-04-06T16:44:53.98Z</time></trkpt><trkpt lat="45.7541345" lon="13.6635405"><ele>130.0</ele><time>2026-04-06T16:44:54.982Z</time></trkpt><trkpt lat="45.7541594" lon="13.6636704"><ele>130.0</ele><time>2026-04-06T16:44:55.988Z</time></trkpt><trkpt lat="45.7541911" lon="13.6638131"><ele>130.16666666666669</ele><time>2026-04-06T16:44:56.978Z</time></trkpt><trkpt lat="45.7542209" lon="13.6639479"><ele>130.33333333333334</ele><time>2026-04-06T16:44:57.996Z</time></trkpt><trkpt lat="45.7542446" lon="13.6640713"><ele>130.5</ele><time>2026-04-06T16:44:58.967Z</time></trkpt><trkpt lat="45.7542651" lon="13.6641853"><ele>130.66666666666666</ele><time>2026-04-06T16:44:59.979Z</time></trkpt><trkpt lat="45.7542874" lon="13.6642923"><ele>130.83333333333331</ele><time>2026-04-06T16:45:00.973Z</time></trkpt><trkpt lat="45.7542987" lon="13.6644198"><ele>131.0</ele><time>2026-04-06T16:45:02.988Z</time></trkpt><trkpt lat="45.7543222" lon="13.6645225"><ele>131.0</ele><time>2026-04-06T16:45:14.973Z</time></trkpt><trkpt lat="45.7543515" lon="13.6647121"><ele>131.0</ele><time>2026-04-06T16:45:16.976Z</time></trkpt><trkpt lat="45.7543575" lon="13.6648266"><ele>131.0</ele><time>2026-04-06T16:45:17.99Z</time></trkpt><trkpt lat="45.7543527" lon="13.6649487"><ele>131.0</ele><time>2026-04-06T16:45:18.988Z</time></trkpt><trkpt lat="45.7543479" lon="13.6650731"><ele>131.0</ele><time>2026-04-06T16:45:19.979Z</time></trkpt><trkpt lat="45.7543403" lon="13.6652107"><ele>131.0</ele><time>2026-04-06T16:45:20.991Z</time></trkpt><trkpt lat="45.7543327" lon="13.6653759"><ele>131.0</ele><time>2026-04-06T16:45:21.977Z</time></trkpt><trkpt lat="45.7543251" lon="13.6655556"><ele>131.0</ele><time>2026-04-06T16:45:22.997Z</time></trkpt><trkpt lat="45.754307" lon="13.665745"><ele>131.0</ele><time>2026-04-06T16:45:23.991Z</time></trkpt><trkpt lat="45.7542689" lon="13.6659524"><ele>130.66666666666666</ele><time>2026-04-06T16:45:24.993Z</time></trkpt><trkpt lat="45.7542152" lon="13.6661636"><ele>130.33333333333334</ele><time>2026-04-06T16:45:25.969Z</time></trkpt><trkpt lat="45.7541628" lon="13.6663754"><ele>130.0</ele><time>2026-04-06T16:45:26.975Z</time></trkpt><trkpt lat="45.7541137" lon="13.6665914"><ele>130.0</ele><time>2026-04-06T16:45:27.975Z</time></trkpt><trkpt lat="45.754069" lon="13.66681"><ele>130.0</ele><time>2026-04-06T16:45:28.988Z</time></trkpt><trkpt lat="45.7540266" lon="13.6670279"><ele>130.0</ele><time>2026-04-06T16:45:29.968Z</time></trkpt><trkpt lat="45.7539784" lon="13.6672475"><ele>130.0</ele><time>2026-04-06T16:45:30.972Z</time></trkpt><trkpt lat="45.7539327" lon="13.6674498"><ele>130.0</ele><time>2026-04-06T16:45:31.966Z</time></trkpt><trkpt lat="45.7538864" lon="13.6676386"><ele>130.0</ele><time>2026-04-06T16:45:32.979Z</time></trkpt><trkpt lat="45.753827" lon="13.6678179"><ele>130.0</ele><time>2026-04-06T16:45:33.975Z</time></trkpt><trkpt lat="45.7537385" lon="13.6679816"><ele>130.66666666666669</ele><time>2026-04-06T16:45:34.986Z</time></trkpt><trkpt lat="45.7536258" lon="13.6681119"><ele>131.33333333333334</ele><time>2026-04-06T16:45:35.96Z</time></trkpt><trkpt lat="45.7534965" lon="13.668231"><ele>132.0</ele><time>2026-04-06T16:45:36.968Z</time></trkpt><trkpt lat="45.7533785" lon="13.668373"><ele>134.33333333333334</ele><time>2026-04-06T16:45:37.982Z</time></trkpt><trkpt lat="45.7532916" lon="13.6685524"><ele>136.66666666666669</ele><time>2026-04-06T16:45:38.986Z</time></trkpt><trkpt lat="45.7532287" lon="13.6687703"><ele>139.0</ele><time>2026-04-06T16:45:39.981Z</time></trkpt><trkpt lat="45.7531688" lon="13.668989"><ele>139.0</ele><time>2026-04-06T16:45:40.975Z</time></trkpt><trkpt lat="45.7531093" lon="13.6691939"><ele>139.0</ele><time>2026-04-06T16:45:41.974Z</time></trkpt><trkpt lat="45.753039" lon="13.6693748"><ele>139.0</ele><time>2026-04-06T16:45:42.973Z</time></trkpt><trkpt lat="45.7529589" lon="13.6695231"><ele>139.0</ele><time>2026-04-06T16:45:43.964Z</time></trkpt><trkpt lat="45.7528625" lon="13.6696371"><ele>138.75</ele><time>2026-04-06T16:45:44.967Z</time></trkpt><trkpt lat="45.7527516" lon="13.6696996"><ele>138.5</ele><time>2026-04-06T16:45:45.957Z</time></trkpt><trkpt lat="45.7526269" lon="13.6697176"><ele>138.25</ele><time>2026-04-06T16:45:46.978Z</time></trkpt><trkpt lat="45.7525102" lon="13.669689"><ele>138.0</ele><time>2026-04-06T16:45:47.96Z</time></trkpt><trkpt lat="45.7523821" lon="13.6696127"><ele>138.0</ele><time>2026-04-06T16:45:48.967Z</time></trkpt><trkpt lat="45.7522534" lon="13.6695168"><ele>138.0</ele><time>2026-04-06T16:45:49.965Z</time></trkpt><trkpt lat="45.7521148" lon="13.6694246"><ele>138.0</ele><time>2026-04-06T16:45:50.962Z</time></trkpt><trkpt lat="45.7519728" lon="13.6693379"><ele>139.0</ele><time>2026-04-06T16:45:51.975Z</time></trkpt><trkpt lat="45.7518304" lon="13.6692615"><ele>140.0</ele><time>2026-04-06T16:45:52.968Z</time></trkpt><trkpt lat="45.7516857" lon="13.6691936"><ele>141.0</ele><time>2026-04-06T16:45:53.978Z</time></trkpt><trkpt lat="45.7515312" lon="13.6691458"><ele>141.0</ele><time>2026-04-06T16:45:54.967Z</time></trkpt><trkpt lat="45.7513757" lon="13.6691288"><ele>141.0</ele><time>2026-04-06T16:45:55.957Z</time></trkpt><trkpt lat="45.7512161" lon="13.6691354"><ele>141.0</ele><time>2026-04-06T16:45:56.969Z</time></trkpt><trkpt lat="45.7510678" lon="13.6691619"><ele>140.5</ele><time>2026-04-06T16:45:57.976Z</time></trkpt><trkpt lat="45.7509378" lon="13.6692089"><ele>140.0</ele><time>2026-04-06T16:45:58.98Z</time></trkpt><trkpt lat="45.750821" lon="13.669291"><ele>139.5</ele><time>2026-04-06T16:45:59.968Z</time></trkpt><trkpt lat="45.7507237" lon="13.6694106"><ele>139.0</ele><time>2026-04-06T16:46:00.965Z</time></trkpt><trkpt lat="45.7506402" lon="13.6695559"><ele>138.66666666666669</ele><time>2026-04-06T16:46:01.961Z</time></trkpt><trkpt lat="45.7505708" lon="13.6697476"><ele>138.33333333333334</ele><time>2026-04-06T16:46:02.984Z</time></trkpt><trkpt lat="45.7505084" lon="13.6699647"><ele>138.0</ele><time>2026-04-06T16:46:03.958Z</time></trkpt><trkpt lat="45.7504418" lon="13.6701878"><ele>138.33333333333334</ele><time>2026-04-06T16:46:04.968Z</time></trkpt><trkpt lat="45.750367" lon="13.6704147"><ele>138.66666666666669</ele><time>2026-04-06T16:46:05.977Z</time></trkpt><trkpt lat="45.7502839" lon="13.6706277"><ele>139.0</ele><time>2026-04-06T16:46:06.973Z</time></trkpt><trkpt lat="45.7502032" lon="13.6708428"><ele>140.66666666666669</ele><time>2026-04-06T16:46:07.974Z</time></trkpt><trkpt lat="45.7501279" lon="13.6710542"><ele>142.33333333333334</ele><time>2026-04-06T16:46:08.968Z</time></trkpt><trkpt lat="45.7500601" lon="13.6712737"><ele>144.0</ele><time>2026-04-06T16:46:09.975Z</time></trkpt><trkpt lat="45.7499982" lon="13.6714957"><ele>144.0</ele><time>2026-04-06T16:46:10.978Z</time></trkpt><trkpt lat="45.7499385" lon="13.6717082"><ele>144.0</ele><time>2026-04-06T16:46:11.981Z</time></trkpt><trkpt lat="45.749879" lon="13.6719095"><ele>144.0</ele><time>2026-04-06T16:46:12.978Z</time></trkpt><trkpt lat="45.7498033" lon="13.6720991"><ele>144.0</ele><time>2026-04-06T16:46:13.974Z</time></trkpt><trkpt lat="45.7497171" lon="13.6722797"><ele>144.0</ele><time>2026-04-06T16:46:14.974Z</time></trkpt><trkpt lat="45.7496234" lon="13.6724582"><ele>144.0</ele><time>2026-04-06T16:46:15.968Z</time></trkpt><trkpt lat="45.7495158" lon="13.6726349"><ele>143.66666666666666</ele><time>2026-04-06T16:46:16.977Z</time></trkpt><trkpt lat="45.7493927" lon="13.6727955"><ele>143.33333333333331</ele><time>2026-04-06T16:46:17.974Z</time></trkpt><trkpt lat="45.7492628" lon="13.6729555"><ele>143.0</ele><time>2026-04-06T16:46:18.981Z</time></trkpt><trkpt lat="45.7491313" lon="13.6731124"><ele>143.66666666666666</ele><time>2026-04-06T16:46:19.969Z</time></trkpt><trkpt lat="45.749004" lon="13.6732744"><ele>144.33333333333334</ele><time>2026-04-06T16:46:20.971Z</time></trkpt><trkpt lat="45.7488769" lon="13.6734384"><ele>145.0</ele><time>2026-04-06T16:46:21.983Z</time></trkpt><trkpt lat="45.748749" lon="13.6735964"><ele>145.0</ele><time>2026-04-06T16:46:22.962Z</time></trkpt><trkpt lat="45.7486241" lon="13.6737632"><ele>145.0</ele><time>2026-04-06T16:46:23.979Z</time></trkpt><trkpt lat="45.7484986" lon="13.6739259"><ele>145.0</ele><time>2026-04-06T16:46:24.972Z</time></trkpt><trkpt lat="45.7483692" lon="13.6740875"><ele>146.33333333333334</ele><time>2026-04-06T16:46:25.975Z</time></trkpt><trkpt lat="45.7482437" lon="13.6742471"><ele>147.66666666666666</ele><time>2026-04-06T16:46:26.971Z</time></trkpt><trkpt lat="45.7481192" lon="13.6744021"><ele>149.0</ele><time>2026-04-06T16:46:27.971Z</time></trkpt><trkpt lat="45.7479989" lon="13.6745569"><ele>149.33333333333331</ele><time>2026-04-06T16:46:28.977Z</time></trkpt><trkpt lat="45.7478802" lon="13.6747119"><ele>149.66666666666666</ele><time>2026-04-06T16:46:29.971Z</time></trkpt><trkpt lat="45.7477653" lon="13.6748626"><ele>150.0</ele><time>2026-04-06T16:46:30.968Z</time></trkpt><trkpt lat="45.7476482" lon="13.675013"><ele>150.33333333333334</ele><time>2026-04-06T16:46:31.972Z</time></trkpt><trkpt lat="45.7475306" lon="13.6751612"><ele>150.66666666666669</ele><time>2026-04-06T16:46:32.965Z</time></trkpt><trkpt lat="45.7474106" lon="13.6753122"><ele>151.0</ele><time>2026-04-06T16:46:33.969Z</time></trkpt><trkpt lat="45.7472905" lon="13.6754661"><ele>151.0</ele><time>2026-04-06T16:46:34.969Z</time></trkpt><trkpt lat="45.7471706" lon="13.6756195"><ele>151.0</ele><time>2026-04-06T16:46:35.964Z</time></trkpt><trkpt lat="45.7470519" lon="13.6757744"><ele>151.0</ele><time>2026-04-06T16:46:36.978Z</time></trkpt><trkpt lat="45.7469313" lon="13.6759319"><ele>152.0</ele><time>2026-04-06T16:46:37.978Z</time></trkpt><trkpt lat="45.746806" lon="13.6760887"><ele>153.0</ele><time>2026-04-06T16:46:38.982Z</time></trkpt><trkpt lat="45.7466788" lon="13.6762464"><ele>154.0</ele><time>2026-04-06T16:46:39.973Z</time></trkpt><trkpt lat="45.7465532" lon="13.6764057"><ele>154.0</ele><time>2026-04-06T16:46:40.972Z</time></trkpt><trkpt lat="45.7464279" lon="13.6765655"><ele>154.0</ele><time>2026-04-06T16:46:41.978Z</time></trkpt><trkpt lat="45.7463043" lon="13.6767251"><ele>154.0</ele><time>2026-04-06T16:46:42.974Z</time></trkpt><trkpt lat="45.7461823" lon="13.6768902"><ele>155.33333333333334</ele><time>2026-04-06T16:46:43.955Z</time></trkpt><trkpt lat="45.7460568" lon="13.6770599"><ele>156.66666666666666</ele><time>2026-04-06T16:46:44.978Z</time></trkpt><trkpt lat="45.7459317" lon="13.6772274"><ele>158.0</ele><time>2026-04-06T16:46:45.975Z</time></trkpt><trkpt lat="45.745806" lon="13.6773967"><ele>159.0</ele><time>2026-04-06T16:46:46.979Z</time></trkpt><trkpt lat="45.745678" lon="13.6775635"><ele>160.0</ele><time>2026-04-06T16:46:47.975Z</time></trkpt><trkpt lat="45.7455495" lon="13.6777307"><ele>161.0</ele><time>2026-04-06T16:46:48.972Z</time></trkpt><trkpt lat="45.7454221" lon="13.6778968"><ele>161.0</ele><time>2026-04-06T16:46:49.979Z</time></trkpt><trkpt lat="45.7452937" lon="13.6780657"><ele>161.0</ele><time>2026-04-06T16:46:50.963Z</time></trkpt><trkpt lat="45.7451592" lon="13.6782364"><ele>161.0</ele><time>2026-04-06T16:46:51.975Z</time></trkpt><trkpt lat="45.7450288" lon="13.6784074"><ele>163.0</ele><time>2026-04-06T16:46:52.971Z</time></trkpt><trkpt lat="45.7448995" lon="13.6785812"><ele>165.0</ele><time>2026-04-06T16:46:53.979Z</time></trkpt><trkpt lat="45.7447724" lon="13.6787556"><ele>167.0</ele><time>2026-04-06T16:46:54.975Z</time></trkpt><trkpt lat="45.7446454" lon="13.6789274"><ele>167.0</ele><time>2026-04-06T16:46:55.966Z</time></trkpt><trkpt lat="45.7445234" lon="13.6791025"><ele>167.0</ele><time>2026-04-06T16:46:56.981Z</time></trkpt><trkpt lat="45.7444031" lon="13.679281"><ele>167.0</ele><time>2026-04-06T16:46:57.97Z</time></trkpt><trkpt lat="45.7442814" lon="13.6794682"><ele>169.0</ele><time>2026-04-06T16:46:58.982Z</time></trkpt><trkpt lat="45.744165" lon="13.6796545"><ele>171.0</ele><time>2026-04-06T16:46:59.973Z</time></trkpt><trkpt lat="45.7440515" lon="13.6798412"><ele>173.0</ele><time>2026-04-06T16:47:00.964Z</time></trkpt><trkpt lat="45.7439386" lon="13.6800314"><ele>173.0</ele><time>2026-04-06T16:47:01.962Z</time></trkpt><trkpt lat="45.7438249" lon="13.680225"><ele>173.0</ele><time>2026-04-06T16:47:02.969Z</time></trkpt><trkpt lat="45.7437093" lon="13.6804161"><ele>173.0</ele><time>2026-04-06T16:47:03.973Z</time></trkpt><trkpt lat="45.743594" lon="13.6806026"><ele>173.66666666666666</ele><time>2026-04-06T16:47:04.988Z</time></trkpt><trkpt lat="45.7434796" lon="13.6807918"><ele>174.33333333333334</ele><time>2026-04-06T16:47:05.982Z</time></trkpt><trkpt lat="45.7433687" lon="13.6809698"><ele>175.0</ele><time>2026-04-06T16:47:06.978Z</time></trkpt><trkpt lat="45.7432703" lon="13.6811335"><ele>175.0</ele><time>2026-04-06T16:47:07.973Z</time></trkpt><trkpt lat="45.743178" lon="13.6812803"><ele>175.0</ele><time>2026-04-06T16:47:08.979Z</time></trkpt><trkpt lat="45.7430912" lon="13.6814209"><ele>175.0</ele><time>2026-04-06T16:47:09.974Z</time></trkpt><trkpt lat="45.7430053" lon="13.681564"><ele>175.0</ele><time>2026-04-06T16:47:10.975Z</time></trkpt><trkpt lat="45.7429152" lon="13.6817163"><ele>175.0</ele><time>2026-04-06T16:47:11.978Z</time></trkpt><trkpt lat="45.7428223" lon="13.6818787"><ele>175.0</ele><time>2026-04-06T16:47:12.98Z</time></trkpt><trkpt lat="45.7427131" lon="13.6820576"><ele>175.0</ele><time>2026-04-06T16:47:13.977Z</time></trkpt><trkpt lat="45.7425932" lon="13.6822452"><ele>174.66666666666669</ele><time>2026-04-06T16:47:14.983Z</time></trkpt><trkpt lat="45.742472" lon="13.6824379"><ele>174.33333333333334</ele><time>2026-04-06T16:47:15.963Z</time></trkpt><trkpt lat="45.7423559" lon="13.6826289"><ele>174.0</ele><time>2026-04-06T16:47:16.98Z</time></trkpt><trkpt lat="45.7422462" lon="13.6828054"><ele>174.0</ele><time>2026-04-06T16:47:17.966Z</time></trkpt><trkpt lat="45.7421357" lon="13.6829769"><ele>174.0</ele><time>2026-04-06T16:47:18.966Z</time></trkpt><trkpt lat="45.7420286" lon="13.683149"><ele>174.0</ele><time>2026-04-06T16:47:19.975Z</time></trkpt><trkpt lat="45.7419191" lon="13.6833249"><ele>176.33333333333334</ele><time>2026-04-06T16:47:20.985Z</time></trkpt><trkpt lat="45.7418093" lon="13.6835004"><ele>178.66666666666669</ele><time>2026-04-06T16:47:21.967Z</time></trkpt><trkpt lat="45.7417018" lon="13.6836758"><ele>181.0</ele><time>2026-04-06T16:47:22.982Z</time></trkpt><trkpt lat="45.7415883" lon="13.6838555"><ele>181.0</ele><time>2026-04-06T16:47:23.965Z</time></trkpt><trkpt lat="45.741479" lon="13.6840383"><ele>181.0</ele><time>2026-04-06T16:47:24.98Z</time></trkpt><trkpt lat="45.7413716" lon="13.6842238"><ele>181.0</ele><time>2026-04-06T16:47:25.975Z</time></trkpt><trkpt lat="45.7412603" lon="13.6844117"><ele>181.66666666666669</ele><time>2026-04-06T16:47:26.977Z</time></trkpt><trkpt lat="45.741146" lon="13.6845987"><ele>182.33333333333334</ele><time>2026-04-06T16:47:27.983Z</time></trkpt><trkpt lat="45.7410252" lon="13.6847866"><ele>183.0</ele><time>2026-04-06T16:47:28.978Z</time></trkpt><trkpt lat="45.7409084" lon="13.6849694"><ele>183.0</ele><time>2026-04-06T16:47:29.974Z</time></trkpt><trkpt lat="45.7407877" lon="13.6851543"><ele>183.0</ele><time>2026-04-06T16:47:30.984Z</time></trkpt><trkpt lat="45.7406692" lon="13.6853378"><ele>183.0</ele><time>2026-04-06T16:47:31.978Z</time></trkpt><trkpt lat="45.7405514" lon="13.68553"><ele>183.0</ele><time>2026-04-06T16:47:32.973Z</time></trkpt><trkpt lat="45.7404345" lon="13.6857216"><ele>183.0</ele><time>2026-04-06T16:47:33.989Z</time></trkpt><trkpt lat="45.7403163" lon="13.685915"><ele>183.0</ele><time>2026-04-06T16:47:34.971Z</time></trkpt><trkpt lat="45.7401966" lon="13.6861066"><ele>184.33333333333334</ele><time>2026-04-06T16:47:35.996Z</time></trkpt><trkpt lat="45.7400801" lon="13.6862996"><ele>185.66666666666669</ele><time>2026-04-06T16:47:36.995Z</time></trkpt><trkpt lat="45.739963" lon="13.6864936"><ele>187.0</ele><time>2026-04-06T16:47:37.985Z</time></trkpt><trkpt lat="45.7398426" lon="13.6866856"><ele>187.0</ele><time>2026-04-06T16:47:38.983Z</time></trkpt><trkpt lat="45.7397275" lon="13.6868719"><ele>187.0</ele><time>2026-04-06T16:47:40.023Z</time></trkpt><trkpt lat="45.7396163" lon="13.6870575"><ele>187.0</ele><time>2026-04-06T16:47:40.976Z</time></trkpt><trkpt lat="45.7395025" lon="13.6872458"><ele>186.66666666666669</ele><time>2026-04-06T16:47:41.975Z</time></trkpt><trkpt lat="45.7393905" lon="13.6874381"><ele>186.33333333333334</ele><time>2026-04-06T16:47:42.985Z</time></trkpt><trkpt lat="45.7392735" lon="13.6876364"><ele>186.0</ele><time>2026-04-06T16:47:43.985Z</time></trkpt><trkpt lat="45.7391643" lon="13.6878282"><ele>186.0</ele><time>2026-04-06T16:47:44.977Z</time></trkpt><trkpt lat="45.739054" lon="13.6880055"><ele>186.0</ele><time>2026-04-06T16:47:45.992Z</time></trkpt><trkpt lat="45.7389504" lon="13.6881736"><ele>186.0</ele><time>2026-04-06T16:47:46.963Z</time></trkpt><trkpt lat="45.7388445" lon="13.6883417"><ele>186.0</ele><time>2026-04-06T16:47:47.963Z</time></trkpt><trkpt lat="45.7387407" lon="13.6885116"><ele>186.0</ele><time>2026-04-06T16:47:48.961Z</time></trkpt><trkpt lat="45.7386389" lon="13.6886753"><ele>186.0</ele><time>2026-04-06T16:47:49.978Z</time></trkpt><trkpt lat="45.7385409" lon="13.688831"><ele>187.5</ele><time>2026-04-06T16:47:50.976Z</time></trkpt><trkpt lat="45.738444" lon="13.6889774"><ele>189.0</ele><time>2026-04-06T16:47:51.982Z</time></trkpt><trkpt lat="45.7383488" lon="13.6891238"><ele>190.5</ele><time>2026-04-06T16:47:52.971Z</time></trkpt><trkpt lat="45.7382533" lon="13.6892761"><ele>192.0</ele><time>2026-04-06T16:47:53.971Z</time></trkpt><trkpt lat="45.7381636" lon="13.6894264"><ele>192.0</ele><time>2026-04-06T16:47:54.969Z</time></trkpt><trkpt lat="45.7380799" lon="13.689566"><ele>192.0</ele><time>2026-04-06T16:47:55.967Z</time></trkpt><trkpt lat="45.7379933" lon="13.6897107"><ele>192.0</ele><time>2026-04-06T16:47:56.988Z</time></trkpt><trkpt lat="45.7379078" lon="13.6898548"><ele>192.0</ele><time>2026-04-06T16:47:57.971Z</time></trkpt><trkpt lat="45.7378216" lon="13.6899947"><ele>192.0</ele><time>2026-04-06T16:47:58.968Z</time></trkpt><trkpt lat="45.7377431" lon="13.6901346"><ele>192.0</ele><time>2026-04-06T16:47:59.969Z</time></trkpt><trkpt lat="45.7376599" lon="13.6902759"><ele>192.0</ele><time>2026-04-06T16:48:00.974Z</time></trkpt><trkpt lat="45.7375745" lon="13.6904194"><ele>192.0</ele><time>2026-04-06T16:48:01.995Z</time></trkpt><trkpt lat="45.7374881" lon="13.6905652"><ele>192.0</ele><time>2026-04-06T16:48:02.986Z</time></trkpt><trkpt lat="45.7373956" lon="13.6907162"><ele>192.0</ele><time>2026-04-06T16:48:03.976Z</time></trkpt><trkpt lat="45.7373022" lon="13.6908649"><ele>192.0</ele><time>2026-04-06T16:48:04.98Z</time></trkpt><trkpt lat="45.7372077" lon="13.6910136"><ele>192.0</ele><time>2026-04-06T16:48:05.978Z</time></trkpt><trkpt lat="45.7371098" lon="13.6911749"><ele>192.0</ele><time>2026-04-06T16:48:06.986Z</time></trkpt><trkpt lat="45.7370228" lon="13.6913401"><ele>192.0</ele><time>2026-04-06T16:48:07.981Z</time></trkpt><trkpt lat="45.7369404" lon="13.6915151"><ele>192.0</ele><time>2026-04-06T16:48:08.979Z</time></trkpt><trkpt lat="45.7368674" lon="13.691692"><ele>192.0</ele><time>2026-04-06T16:48:09.976Z</time></trkpt><trkpt lat="45.7367842" lon="13.691867"><ele>193.5</ele><time>2026-04-06T16:48:10.974Z</time></trkpt><trkpt lat="45.736701" lon="13.6920346"><ele>195.0</ele><time>2026-04-06T16:48:11.979Z</time></trkpt><trkpt lat="45.7366141" lon="13.6922038"><ele>196.5</ele><time>2026-04-06T16:48:12.972Z</time></trkpt><trkpt lat="45.7365275" lon="13.6923769"><ele>198.0</ele><time>2026-04-06T16:48:13.976Z</time></trkpt><trkpt lat="45.7364405" lon="13.6925496"><ele>198.0</ele><time>2026-04-06T16:48:14.979Z</time></trkpt><trkpt lat="45.7363561" lon="13.6927246"><ele>198.0</ele><time>2026-04-06T16:48:15.989Z</time></trkpt><trkpt lat="45.7362699" lon="13.692895"><ele>198.0</ele><time>2026-04-06T16:48:16.973Z</time></trkpt><trkpt lat="45.7361841" lon="13.6930716"><ele>198.0</ele><time>2026-04-06T16:48:17.975Z</time></trkpt><trkpt lat="45.7361034" lon="13.6932456"><ele>198.75</ele><time>2026-04-06T16:48:18.971Z</time></trkpt><trkpt lat="45.7360224" lon="13.6934145"><ele>199.5</ele><time>2026-04-06T16:48:19.973Z</time></trkpt><trkpt lat="45.7359393" lon="13.6935759"><ele>200.25</ele><time>2026-04-06T16:48:20.978Z</time></trkpt><trkpt lat="45.7358601" lon="13.6937352"><ele>201.0</ele><time>2026-04-06T16:48:21.974Z</time></trkpt><trkpt lat="45.7357783" lon="13.6938986"><ele>201.0</ele><time>2026-04-06T16:48:22.969Z</time></trkpt><trkpt lat="45.7356994" lon="13.6940512"><ele>201.0</ele><time>2026-04-06T16:48:23.973Z</time></trkpt><trkpt lat="45.7356215" lon="13.6942097"><ele>201.0</ele><time>2026-04-06T16:48:24.977Z</time></trkpt><trkpt lat="45.7355451" lon="13.6943589"><ele>201.0</ele><time>2026-04-06T16:48:25.979Z</time></trkpt><trkpt lat="45.7354657" lon="13.6945054"><ele>200.5</ele><time>2026-04-06T16:48:26.977Z</time></trkpt><trkpt lat="45.7353854" lon="13.6946526"><ele>200.0</ele><time>2026-04-06T16:48:27.967Z</time></trkpt><trkpt lat="45.7353033" lon="13.6948055"><ele>199.5</ele><time>2026-04-06T16:48:28.982Z</time></trkpt><trkpt lat="45.7352271" lon="13.6949468"><ele>199.0</ele><time>2026-04-06T16:48:29.982Z</time></trkpt><trkpt lat="45.7351521" lon="13.6950841"><ele>200.0</ele><time>2026-04-06T16:48:30.977Z</time></trkpt><trkpt lat="45.7350761" lon="13.695227"><ele>201.0</ele><time>2026-04-06T16:48:31.97Z</time></trkpt><trkpt lat="45.7349996" lon="13.6953719"><ele>202.0</ele><time>2026-04-06T16:48:32.973Z</time></trkpt><trkpt lat="45.7349217" lon="13.6955135"><ele>203.0</ele><time>2026-04-06T16:48:33.964Z</time></trkpt><trkpt lat="45.7348479" lon="13.6956617"><ele>203.0</ele><time>2026-04-06T16:48:34.965Z</time></trkpt><trkpt lat="45.7347702" lon="13.6958092"><ele>203.0</ele><time>2026-04-06T16:48:35.969Z</time></trkpt><trkpt lat="45.7346883" lon="13.6959635"><ele>203.0</ele><time>2026-04-06T16:48:36.976Z</time></trkpt><trkpt lat="45.7346039" lon="13.6961113"><ele>203.0</ele><time>2026-04-06T16:48:37.966Z</time></trkpt><trkpt lat="45.7345247" lon="13.696262"><ele>202.75</ele><time>2026-04-06T16:48:38.981Z</time></trkpt><trkpt lat="45.7344438" lon="13.6964132"><ele>202.5</ele><time>2026-04-06T16:48:39.975Z</time></trkpt><trkpt lat="45.7343628" lon="13.6965663"><ele>202.25</ele><time>2026-04-06T16:48:40.979Z</time></trkpt><trkpt lat="45.7342774" lon="13.696733"><ele>202.0</ele><time>2026-04-06T16:48:41.968Z</time></trkpt><trkpt lat="45.7341848" lon="13.6969044"><ele>203.0</ele><time>2026-04-06T16:48:42.97Z</time></trkpt><trkpt lat="45.7340923" lon="13.6970875"><ele>204.0</ele><time>2026-04-06T16:48:43.977Z</time></trkpt><trkpt lat="45.733995" lon="13.6972724"><ele>205.0</ele><time>2026-04-06T16:48:44.983Z</time></trkpt><trkpt lat="45.7338929" lon="13.6974603"><ele>205.0</ele><time>2026-04-06T16:48:45.972Z</time></trkpt><trkpt lat="45.733791" lon="13.6976547"><ele>205.0</ele><time>2026-04-06T16:48:46.98Z</time></trkpt><trkpt lat="45.7336806" lon="13.6978469"><ele>205.0</ele><time>2026-04-06T16:48:47.961Z</time></trkpt><trkpt lat="45.7335661" lon="13.6980409"><ele>206.66666666666666</ele><time>2026-04-06T16:48:48.972Z</time></trkpt><trkpt lat="45.7334583" lon="13.6982367"><ele>208.33333333333331</ele><time>2026-04-06T16:48:49.964Z</time></trkpt><trkpt lat="45.7333498" lon="13.6984306"><ele>210.0</ele><time>2026-04-06T16:48:50.959Z</time></trkpt><trkpt lat="45.7332452" lon="13.6986282"><ele>210.0</ele><time>2026-04-06T16:48:51.962Z</time></trkpt><trkpt lat="45.7331405" lon="13.6988262"><ele>210.0</ele><time>2026-04-06T16:48:52.964Z</time></trkpt><trkpt lat="45.7330398" lon="13.6990175"><ele>210.0</ele><time>2026-04-06T16:48:53.965Z</time></trkpt><trkpt lat="45.7329428" lon="13.6992053"><ele>210.0</ele><time>2026-04-06T16:48:54.967Z</time></trkpt><trkpt lat="45.7328464" lon="13.6993953"><ele>210.0</ele><time>2026-04-06T16:48:55.98Z</time></trkpt><trkpt lat="45.732749" lon="13.6995777"><ele>210.0</ele><time>2026-04-06T16:48:56.977Z</time></trkpt><trkpt lat="45.7326482" lon="13.6997604"><ele>210.0</ele><time>2026-04-06T16:48:57.978Z</time></trkpt><trkpt lat="45.7325479" lon="13.6999468"><ele>210.0</ele><time>2026-04-06T16:48:58.972Z</time></trkpt><trkpt lat="45.73245" lon="13.7001362"><ele>210.0</ele><time>2026-04-06T16:48:59.976Z</time></trkpt><trkpt lat="45.7323467" lon="13.7003281"><ele>210.0</ele><time>2026-04-06T16:49:00.974Z</time></trkpt><trkpt lat="45.7322441" lon="13.7005221"><ele>210.0</ele><time>2026-04-06T16:49:01.985Z</time></trkpt><trkpt lat="45.7321356" lon="13.7007188"><ele>210.0</ele><time>2026-04-06T16:49:02.977Z</time></trkpt><trkpt lat="45.732031" lon="13.7009137"><ele>210.0</ele><time>2026-04-06T16:49:03.978Z</time></trkpt><trkpt lat="45.7319314" lon="13.7010945"><ele>210.0</ele><time>2026-04-06T16:49:04.98Z</time></trkpt><trkpt lat="45.7318263" lon="13.7012765"><ele>210.0</ele><time>2026-04-06T16:49:05.971Z</time></trkpt><trkpt lat="45.731727" lon="13.7014541"><ele>210.66666666666669</ele><time>2026-04-06T16:49:06.975Z</time></trkpt><trkpt lat="45.7316276" lon="13.7016374"><ele>211.33333333333334</ele><time>2026-04-06T16:49:07.976Z</time></trkpt><trkpt lat="45.7315313" lon="13.701824"><ele>212.0</ele><time>2026-04-06T16:49:08.98Z</time></trkpt><trkpt lat="45.7314326" lon="13.7020119"><ele>212.0</ele><time>2026-04-06T16:49:09.976Z</time></trkpt><trkpt lat="45.7313356" lon="13.7022026"><ele>212.0</ele><time>2026-04-06T16:49:10.983Z</time></trkpt><trkpt lat="45.7312416" lon="13.7023925"><ele>212.0</ele><time>2026-04-06T16:49:11.987Z</time></trkpt><trkpt lat="45.7311493" lon="13.7025838"><ele>212.0</ele><time>2026-04-06T16:49:12.984Z</time></trkpt><trkpt lat="45.7310499" lon="13.7027732"><ele>212.0</ele><time>2026-04-06T16:49:13.977Z</time></trkpt><trkpt lat="45.7309471" lon="13.7029583"><ele>212.0</ele><time>2026-04-06T16:49:14.986Z</time></trkpt><trkpt lat="45.7308418" lon="13.7031414"><ele>212.0</ele><time>2026-04-06T16:49:15.967Z</time></trkpt><trkpt lat="45.7307463" lon="13.7033241"><ele>212.0</ele><time>2026-04-06T16:49:16.984Z</time></trkpt><trkpt lat="45.7306512" lon="13.7035129"><ele>212.0</ele><time>2026-04-06T16:49:17.974Z</time></trkpt><trkpt lat="45.7305571" lon="13.7037043"><ele>212.0</ele><time>2026-04-06T16:49:18.986Z</time></trkpt><trkpt lat="45.7304581" lon="13.7038959"><ele>212.0</ele><time>2026-04-06T16:49:19.979Z</time></trkpt><trkpt lat="45.7303559" lon="13.7040825"><ele>212.0</ele><time>2026-04-06T16:49:20.967Z</time></trkpt><trkpt lat="45.7302537" lon="13.704264"><ele>213.33333333333334</ele><time>2026-04-06T16:49:21.984Z</time></trkpt><trkpt lat="45.7301536" lon="13.7044405"><ele>214.66666666666669</ele><time>2026-04-06T16:49:22.973Z</time></trkpt><trkpt lat="45.73005" lon="13.7046185"><ele>216.0</ele><time>2026-04-06T16:49:23.978Z</time></trkpt><trkpt lat="45.729947" lon="13.7047942"><ele>216.0</ele><time>2026-04-06T16:49:24.98Z</time></trkpt><trkpt lat="45.7298433" lon="13.7049765"><ele>216.0</ele><time>2026-04-06T16:49:25.982Z</time></trkpt><trkpt lat="45.7297437" lon="13.7051565"><ele>216.0</ele><time>2026-04-06T16:49:26.974Z</time></trkpt><trkpt lat="45.7296447" lon="13.7053364"><ele>215.66666666666669</ele><time>2026-04-06T16:49:27.977Z</time></trkpt><trkpt lat="45.7295485" lon="13.7055202"><ele>215.33333333333334</ele><time>2026-04-06T16:49:28.989Z</time></trkpt><trkpt lat="45.7294538" lon="13.7057053"><ele>215.0</ele><time>2026-04-06T16:49:29.974Z</time></trkpt><trkpt lat="45.7293584" lon="13.7058892"><ele>216.0</ele><time>2026-04-06T16:49:30.977Z</time></trkpt><trkpt lat="45.7292603" lon="13.7060798"><ele>217.0</ele><time>2026-04-06T16:49:31.981Z</time></trkpt><trkpt lat="45.7291533" lon="13.7062728"><ele>218.0</ele><time>2026-04-06T16:49:32.975Z</time></trkpt><trkpt lat="45.7290453" lon="13.7064657"><ele>218.0</ele><time>2026-04-06T16:49:33.982Z</time></trkpt><trkpt lat="45.7289372" lon="13.7066583"><ele>218.0</ele><time>2026-04-06T16:49:34.975Z</time></trkpt><trkpt lat="45.7288313" lon="13.7068492"><ele>218.0</ele><time>2026-04-06T16:49:35.966Z</time></trkpt><trkpt lat="45.7287254" lon="13.7070408"><ele>218.33333333333334</ele><time>2026-04-06T16:49:36.972Z</time></trkpt><trkpt lat="45.7286219" lon="13.7072348"><ele>218.66666666666669</ele><time>2026-04-06T16:49:37.972Z</time></trkpt><trkpt lat="45.7285192" lon="13.7074266"><ele>219.0</ele><time>2026-04-06T16:49:38.98Z</time></trkpt><trkpt lat="45.7284213" lon="13.7076141"><ele>218.33333333333331</ele><time>2026-04-06T16:49:39.97Z</time></trkpt><trkpt lat="45.728321" lon="13.7078048"><ele>217.66666666666666</ele><time>2026-04-06T16:49:40.973Z</time></trkpt><trkpt lat="45.7282211" lon="13.7079927"><ele>217.0</ele><time>2026-04-06T16:49:41.966Z</time></trkpt><trkpt lat="45.7281216" lon="13.7081773"><ele>217.0</ele><time>2026-04-06T16:49:42.976Z</time></trkpt><trkpt lat="45.7280201" lon="13.7083654"><ele>217.0</ele><time>2026-04-06T16:49:43.975Z</time></trkpt><trkpt lat="45.7279206" lon="13.7085516"><ele>217.0</ele><time>2026-04-06T16:49:44.976Z</time></trkpt><trkpt lat="45.7278196" lon="13.7087396"><ele>217.66666666666666</ele><time>2026-04-06T16:49:45.967Z</time></trkpt><trkpt lat="45.7277166" lon="13.7089296"><ele>218.33333333333331</ele><time>2026-04-06T16:49:46.98Z</time></trkpt><trkpt lat="45.7276137" lon="13.7091241"><ele>219.0</ele><time>2026-04-06T16:49:47.972Z</time></trkpt><trkpt lat="45.7275098" lon="13.7093215"><ele>219.0</ele><time>2026-04-06T16:49:48.984Z</time></trkpt><trkpt lat="45.7274037" lon="13.7095215"><ele>219.0</ele><time>2026-04-06T16:49:49.979Z</time></trkpt><trkpt lat="45.7272949" lon="13.7097204"><ele>219.0</ele><time>2026-04-06T16:49:50.966Z</time></trkpt><trkpt lat="45.7271877" lon="13.7099258"><ele>219.0</ele><time>2026-04-06T16:49:51.979Z</time></trkpt><trkpt lat="45.7270801" lon="13.7101288"><ele>219.0</ele><time>2026-04-06T16:49:52.973Z</time></trkpt><trkpt lat="45.7269724" lon="13.7103306"><ele>219.0</ele><time>2026-04-06T16:49:53.981Z</time></trkpt><trkpt lat="45.7268608" lon="13.7105342"><ele>220.33333333333331</ele><time>2026-04-06T16:49:54.974Z</time></trkpt><trkpt lat="45.7267546" lon="13.7107326"><ele>221.66666666666666</ele><time>2026-04-06T16:49:55.969Z</time></trkpt><trkpt lat="45.726654" lon="13.710923"><ele>223.0</ele><time>2026-04-06T16:49:56.973Z</time></trkpt><trkpt lat="45.7265561" lon="13.7111095"><ele>223.0</ele><time>2026-04-06T16:49:57.961Z</time></trkpt><trkpt lat="45.7264564" lon="13.7112921"><ele>223.0</ele><time>2026-04-06T16:49:58.987Z</time></trkpt><trkpt lat="45.7263563" lon="13.7114788"><ele>223.0</ele><time>2026-04-06T16:49:59.976Z</time></trkpt><trkpt lat="45.7262532" lon="13.7116604"><ele>223.0</ele><time>2026-04-06T16:50:00.976Z</time></trkpt><trkpt lat="45.7261501" lon="13.7118443"><ele>223.0</ele><time>2026-04-06T16:50:01.97Z</time></trkpt><trkpt lat="45.7260477" lon="13.7120311"><ele>223.0</ele><time>2026-04-06T16:50:02.973Z</time></trkpt><trkpt lat="45.7259459" lon="13.7122207"><ele>224.33333333333331</ele><time>2026-04-06T16:50:03.984Z</time></trkpt><trkpt lat="45.7258396" lon="13.7124077"><ele>225.66666666666669</ele><time>2026-04-06T16:50:04.977Z</time></trkpt><trkpt lat="45.7257293" lon="13.7125879"><ele>227.0</ele><time>2026-04-06T16:50:05.985Z</time></trkpt><trkpt lat="45.7256178" lon="13.7127641"><ele>227.0</ele><time>2026-04-06T16:50:06.97Z</time></trkpt><trkpt lat="45.725501" lon="13.7129388"><ele>227.0</ele><time>2026-04-06T16:50:07.976Z</time></trkpt><trkpt lat="45.7253844" lon="13.7131144"><ele>227.0</ele><time>2026-04-06T16:50:08.97Z</time></trkpt><trkpt lat="45.7252679" lon="13.7132909"><ele>228.33333333333334</ele><time>2026-04-06T16:50:09.968Z</time></trkpt><trkpt lat="45.7251508" lon="13.7134678"><ele>229.66666666666669</ele><time>2026-04-06T16:50:10.978Z</time></trkpt><trkpt lat="45.7250351" lon="13.7136428"><ele>231.0</ele><time>2026-04-06T16:50:11.977Z</time></trkpt><trkpt lat="45.7249148" lon="13.7138174"><ele>231.0</ele><time>2026-04-06T16:50:12.981Z</time></trkpt><trkpt lat="45.7247996" lon="13.713992"><ele>231.0</ele><time>2026-04-06T16:50:13.98Z</time></trkpt><trkpt lat="45.7246818" lon="13.7141681"><ele>231.0</ele><time>2026-04-06T16:50:14.99Z</time></trkpt><trkpt lat="45.7245618" lon="13.714346"><ele>230.66666666666669</ele><time>2026-04-06T16:50:15.967Z</time></trkpt><trkpt lat="45.7244425" lon="13.714523"><ele>230.33333333333334</ele><time>2026-04-06T16:50:16.972Z</time></trkpt><trkpt lat="45.7243201" lon="13.7147025"><ele>230.0</ele><time>2026-04-06T16:50:17.966Z</time></trkpt><trkpt lat="45.7242008" lon="13.7148858"><ele>231.66666666666669</ele><time>2026-04-06T16:50:18.962Z</time></trkpt><trkpt lat="45.7240847" lon="13.7150651"><ele>233.33333333333331</ele><time>2026-04-06T16:50:19.982Z</time></trkpt><trkpt lat="45.7239684" lon="13.7152431"><ele>235.0</ele><time>2026-04-06T16:50:20.972Z</time></trkpt><trkpt lat="45.723856" lon="13.7154213"><ele>235.0</ele><time>2026-04-06T16:50:21.988Z</time></trkpt><trkpt lat="45.7237382" lon="13.7155957"><ele>235.0</ele><time>2026-04-06T16:50:22.977Z</time></trkpt><trkpt lat="45.7236213" lon="13.7157734"><ele>235.0</ele><time>2026-04-06T16:50:23.971Z</time></trkpt><trkpt lat="45.723503" lon="13.7159515"><ele>235.66666666666666</ele><time>2026-04-06T16:50:24.973Z</time></trkpt><trkpt lat="45.7233864" lon="13.7161294"><ele>236.33333333333331</ele><time>2026-04-06T16:50:25.976Z</time></trkpt><trkpt lat="45.7232677" lon="13.7163037"><ele>237.0</ele><time>2026-04-06T16:50:26.98Z</time></trkpt><trkpt lat="45.7231523" lon="13.7164779"><ele>237.0</ele><time>2026-04-06T16:50:27.964Z</time></trkpt><trkpt lat="45.723037" lon="13.7166519"><ele>237.0</ele><time>2026-04-06T16:50:28.977Z</time></trkpt><trkpt lat="45.7229176" lon="13.7168276"><ele>237.0</ele><time>2026-04-06T16:50:29.966Z</time></trkpt><trkpt lat="45.7228021" lon="13.7170069"><ele>238.0</ele><time>2026-04-06T16:50:30.971Z</time></trkpt><trkpt lat="45.7226879" lon="13.717185"><ele>239.0</ele><time>2026-04-06T16:50:31.975Z</time></trkpt><trkpt lat="45.722576" lon="13.7173609"><ele>240.0</ele><time>2026-04-06T16:50:32.97Z</time></trkpt><trkpt lat="45.7224633" lon="13.7175372"><ele>240.0</ele><time>2026-04-06T16:50:33.971Z</time></trkpt><trkpt lat="45.7223491" lon="13.7177111"><ele>240.0</ele><time>2026-04-06T16:50:34.979Z</time></trkpt><trkpt lat="45.7222384" lon="13.717883"><ele>240.0</ele><time>2026-04-06T16:50:35.976Z</time></trkpt><trkpt lat="45.7221261" lon="13.7180529"><ele>240.33333333333331</ele><time>2026-04-06T16:50:36.985Z</time></trkpt><trkpt lat="45.7220065" lon="13.7182242"><ele>240.66666666666666</ele><time>2026-04-06T16:50:37.974Z</time></trkpt><trkpt lat="45.7218909" lon="13.7183966"><ele>241.0</ele><time>2026-04-06T16:50:38.979Z</time></trkpt><trkpt lat="45.7217765" lon="13.7185737"><ele>241.0</ele><time>2026-04-06T16:50:39.975Z</time></trkpt><trkpt lat="45.7216626" lon="13.7187473"><ele>241.0</ele><time>2026-04-06T16:50:40.983Z</time></trkpt><trkpt lat="45.721546" lon="13.7189166"><ele>241.0</ele><time>2026-04-06T16:50:41.975Z</time></trkpt><trkpt lat="45.7214256" lon="13.7190888"><ele>241.0</ele><time>2026-04-06T16:50:42.976Z</time></trkpt><trkpt lat="45.721312" lon="13.7192643"><ele>241.0</ele><time>2026-04-06T16:50:43.986Z</time></trkpt><trkpt lat="45.7211962" lon="13.7194405"><ele>241.0</ele><time>2026-04-06T16:50:44.978Z</time></trkpt><trkpt lat="45.7210789" lon="13.7196188"><ele>240.0</ele><time>2026-04-06T16:50:45.987Z</time></trkpt><trkpt lat="45.7209603" lon="13.7197989"><ele>239.0</ele><time>2026-04-06T16:50:46.986Z</time></trkpt><trkpt lat="45.7208407" lon="13.7199837"><ele>238.0</ele><time>2026-04-06T16:50:47.968Z</time></trkpt><trkpt lat="45.7207177" lon="13.7201691"><ele>237.33333333333331</ele><time>2026-04-06T16:50:48.964Z</time></trkpt><trkpt lat="45.7205967" lon="13.7203579"><ele>236.66666666666669</ele><time>2026-04-06T16:50:49.972Z</time></trkpt><trkpt lat="45.7204724" lon="13.7205489"><ele>236.0</ele><time>2026-04-06T16:50:50.974Z</time></trkpt><trkpt lat="45.7203482" lon="13.7207365"><ele>236.0</ele><time>2026-04-06T16:50:51.974Z</time></trkpt><trkpt lat="45.7202209" lon="13.7209213"><ele>236.0</ele><time>2026-04-06T16:50:52.98Z</time></trkpt><trkpt lat="45.7200898" lon="13.7211015"><ele>236.0</ele><time>2026-04-06T16:50:53.974Z</time></trkpt><trkpt lat="45.7199571" lon="13.7212772"><ele>236.0</ele><time>2026-04-06T16:50:54.972Z</time></trkpt><trkpt lat="45.7198217" lon="13.721446"><ele>236.0</ele><time>2026-04-06T16:50:55.974Z</time></trkpt><trkpt lat="45.7196916" lon="13.7216108"><ele>236.0</ele><time>2026-04-06T16:50:56.977Z</time></trkpt><trkpt lat="45.7195587" lon="13.7217802"><ele>235.33333333333334</ele><time>2026-04-06T16:50:57.965Z</time></trkpt><trkpt lat="45.7194285" lon="13.7219475"><ele>234.66666666666669</ele><time>2026-04-06T16:50:58.963Z</time></trkpt><trkpt lat="45.7193009" lon="13.722115"><ele>234.0</ele><time>2026-04-06T16:50:59.97Z</time></trkpt><trkpt lat="45.7191709" lon="13.7222855"><ele>234.66666666666669</ele><time>2026-04-06T16:51:00.977Z</time></trkpt><trkpt lat="45.7190434" lon="13.722456"><ele>235.33333333333334</ele><time>2026-04-06T16:51:01.976Z</time></trkpt><trkpt lat="45.7189135" lon="13.7226251"><ele>236.0</ele><time>2026-04-06T16:51:02.971Z</time></trkpt><trkpt lat="45.7187826" lon="13.7227894"><ele>236.0</ele><time>2026-04-06T16:51:03.967Z</time></trkpt><trkpt lat="45.7186536" lon="13.7229479"><ele>236.0</ele><time>2026-04-06T16:51:04.979Z</time></trkpt><trkpt lat="45.7185247" lon="13.7231118"><ele>236.0</ele><time>2026-04-06T16:51:05.98Z</time></trkpt><trkpt lat="45.7183967" lon="13.7232762"><ele>236.33333333333334</ele><time>2026-04-06T16:51:06.981Z</time></trkpt><trkpt lat="45.7182666" lon="13.7234375"><ele>236.66666666666669</ele><time>2026-04-06T16:51:07.984Z</time></trkpt><trkpt lat="45.7181352" lon="13.7236021"><ele>237.0</ele><time>2026-04-06T16:51:08.974Z</time></trkpt><trkpt lat="45.7180081" lon="13.7237683"><ele>237.0</ele><time>2026-04-06T16:51:09.966Z</time></trkpt><trkpt lat="45.7178842" lon="13.7239337"><ele>237.0</ele><time>2026-04-06T16:51:10.973Z</time></trkpt><trkpt lat="45.7177583" lon="13.7240982"><ele>237.0</ele><time>2026-04-06T16:51:11.966Z</time></trkpt><trkpt lat="45.7176319" lon="13.7242613"><ele>236.66666666666669</ele><time>2026-04-06T16:51:12.969Z</time></trkpt><trkpt lat="45.71751" lon="13.7244196"><ele>236.33333333333334</ele><time>2026-04-06T16:51:13.973Z</time></trkpt><trkpt lat="45.7173873" lon="13.7245717"><ele>236.0</ele><time>2026-04-06T16:51:14.967Z</time></trkpt><trkpt lat="45.7172677" lon="13.7247213"><ele>236.0</ele><time>2026-04-06T16:51:15.971Z</time></trkpt><trkpt lat="45.7171497" lon="13.7248754"><ele>236.0</ele><time>2026-04-06T16:51:16.972Z</time></trkpt><trkpt lat="45.7170261" lon="13.725033"><ele>236.0</ele><time>2026-04-06T16:51:17.975Z</time></trkpt><trkpt lat="45.7169047" lon="13.725191"><ele>236.66666666666669</ele><time>2026-04-06T16:51:18.971Z</time></trkpt><trkpt lat="45.7167762" lon="13.7253548"><ele>237.33333333333331</ele><time>2026-04-06T16:51:19.992Z</time></trkpt><trkpt lat="45.7166484" lon="13.7255111"><ele>238.0</ele><time>2026-04-06T16:51:20.974Z</time></trkpt><trkpt lat="45.7165183" lon="13.7256681"><ele>238.0</ele><time>2026-04-06T16:51:21.97Z</time></trkpt><trkpt lat="45.7163925" lon="13.725832"><ele>238.0</ele><time>2026-04-06T16:51:22.977Z</time></trkpt><trkpt lat="45.7162648" lon="13.7259953"><ele>238.0</ele><time>2026-04-06T16:51:23.972Z</time></trkpt><trkpt lat="45.7161366" lon="13.7261554"><ele>237.66666666666666</ele><time>2026-04-06T16:51:24.974Z</time></trkpt><trkpt lat="45.7160083" lon="13.7263093"><ele>237.33333333333331</ele><time>2026-04-06T16:51:25.977Z</time></trkpt><trkpt lat="45.7158831" lon="13.7264701"><ele>237.0</ele><time>2026-04-06T16:51:26.97Z</time></trkpt><trkpt lat="45.7157561" lon="13.7266302"><ele>237.0</ele><time>2026-04-06T16:51:27.97Z</time></trkpt><trkpt lat="45.7156292" lon="13.7267937"><ele>237.0</ele><time>2026-04-06T16:51:28.968Z</time></trkpt><trkpt lat="45.7155044" lon="13.7269545"><ele>237.0</ele><time>2026-04-06T16:51:29.981Z</time></trkpt><trkpt lat="45.7153775" lon="13.7271164"><ele>236.33333333333331</ele><time>2026-04-06T16:51:30.975Z</time></trkpt><trkpt lat="45.715254" lon="13.7272758"><ele>235.66666666666666</ele><time>2026-04-06T16:51:31.973Z</time></trkpt><trkpt lat="45.7151396" lon="13.7274198"><ele>235.0</ele><time>2026-04-06T16:51:32.98Z</time></trkpt><trkpt lat="45.7150221" lon="13.7275522"><ele>236.0</ele><time>2026-04-06T16:51:33.98Z</time></trkpt><trkpt lat="45.71491" lon="13.7276806"><ele>237.0</ele><time>2026-04-06T16:51:34.99Z</time></trkpt><trkpt lat="45.7147908" lon="13.7278011"><ele>238.0</ele><time>2026-04-06T16:51:35.977Z</time></trkpt><trkpt lat="45.7146644" lon="13.7279049"><ele>239.0</ele><time>2026-04-06T16:51:36.98Z</time></trkpt><trkpt lat="45.7145312" lon="13.7279981"><ele>239.0</ele><time>2026-04-06T16:51:37.984Z</time></trkpt><trkpt lat="45.7143953" lon="13.7280813"><ele>239.0</ele><time>2026-04-06T16:51:38.976Z</time></trkpt><trkpt lat="45.714248" lon="13.7281402"><ele>239.0</ele><time>2026-04-06T16:51:39.988Z</time></trkpt><trkpt lat="45.7140901" lon="13.7281802"><ele>239.0</ele><time>2026-04-06T16:51:40.977Z</time></trkpt><trkpt lat="45.7139326" lon="13.7282232"><ele>239.0</ele><time>2026-04-06T16:51:41.983Z</time></trkpt><trkpt lat="45.7137764" lon="13.7282612"><ele>239.0</ele><time>2026-04-06T16:51:42.974Z</time></trkpt><trkpt lat="45.7136262" lon="13.7283021"><ele>238.66666666666669</ele><time>2026-04-06T16:51:43.975Z</time></trkpt><trkpt lat="45.7134764" lon="13.728345"><ele>238.33333333333331</ele><time>2026-04-06T16:51:44.98Z</time></trkpt><trkpt lat="45.7133276" lon="13.7283874"><ele>238.0</ele><time>2026-04-06T16:51:45.984Z</time></trkpt><trkpt lat="45.7131791" lon="13.7284289"><ele>238.0</ele><time>2026-04-06T16:51:46.978Z</time></trkpt><trkpt lat="45.7130327" lon="13.7284737"><ele>238.0</ele><time>2026-04-06T16:51:47.976Z</time></trkpt><trkpt lat="45.7128868" lon="13.7285235"><ele>238.0</ele><time>2026-04-06T16:51:48.992Z</time></trkpt><trkpt lat="45.712741" lon="13.7285677"><ele>238.0</ele><time>2026-04-06T16:51:49.987Z</time></trkpt><trkpt lat="45.7126004" lon="13.7286075"><ele>238.5</ele><time>2026-04-06T16:51:50.968Z</time></trkpt><trkpt lat="45.7124593" lon="13.7286488"><ele>239.0</ele><time>2026-04-06T16:51:51.975Z</time></trkpt><trkpt lat="45.7123113" lon="13.7286884"><ele>239.5</ele><time>2026-04-06T16:51:52.978Z</time></trkpt><trkpt lat="45.7121645" lon="13.7287407"><ele>240.0</ele><time>2026-04-06T16:51:53.997Z</time></trkpt><trkpt lat="45.7120136" lon="13.7287982"><ele>240.66666666666669</ele><time>2026-04-06T16:51:54.981Z</time></trkpt><trkpt lat="45.7118591" lon="13.7288526"><ele>241.33333333333334</ele><time>2026-04-06T16:51:55.982Z</time></trkpt><trkpt lat="45.7117026" lon="13.728906"><ele>242.0</ele><time>2026-04-06T16:51:56.973Z</time></trkpt><trkpt lat="45.7115529" lon="13.7289578"><ele>242.0</ele><time>2026-04-06T16:51:57.982Z</time></trkpt><trkpt lat="45.7113987" lon="13.729007"><ele>242.0</ele><time>2026-04-06T16:51:58.98Z</time></trkpt><trkpt lat="45.7112449" lon="13.7290629"><ele>242.0</ele><time>2026-04-06T16:51:59.979Z</time></trkpt><trkpt lat="45.7110881" lon="13.7291215"><ele>242.0</ele><time>2026-04-06T16:52:00.984Z</time></trkpt><trkpt lat="45.7109279" lon="13.7291838"><ele>242.0</ele><time>2026-04-06T16:52:01.976Z</time></trkpt><trkpt lat="45.710767" lon="13.7292433"><ele>242.0</ele><time>2026-04-06T16:52:02.984Z</time></trkpt><trkpt lat="45.7106075" lon="13.7293041"><ele>242.0</ele><time>2026-04-06T16:52:03.977Z</time></trkpt><trkpt lat="45.710453" lon="13.7293602"><ele>242.0</ele><time>2026-04-06T16:52:04.975Z</time></trkpt><trkpt lat="45.7103073" lon="13.7294107"><ele>242.0</ele><time>2026-04-06T16:52:05.975Z</time></trkpt><trkpt lat="45.7101678" lon="13.7294563"><ele>243.25</ele><time>2026-04-06T16:52:06.992Z</time></trkpt><trkpt lat="45.7100325" lon="13.7295017"><ele>244.5</ele><time>2026-04-06T16:52:07.987Z</time></trkpt><trkpt lat="45.7099024" lon="13.7295452"><ele>245.75</ele><time>2026-04-06T16:52:08.987Z</time></trkpt><trkpt lat="45.7097736" lon="13.7295919"><ele>247.0</ele><time>2026-04-06T16:52:09.977Z</time></trkpt><trkpt lat="45.7096483" lon="13.7296386"><ele>247.0</ele><time>2026-04-06T16:52:10.983Z</time></trkpt><trkpt lat="45.7095268" lon="13.7296811"><ele>247.0</ele><time>2026-04-06T16:52:11.974Z</time></trkpt><trkpt lat="45.7094128" lon="13.7297228"><ele>247.0</ele><time>2026-04-06T16:52:12.982Z</time></trkpt><trkpt lat="45.7092997" lon="13.7297733"><ele>247.0</ele><time>2026-04-06T16:52:13.976Z</time></trkpt><trkpt lat="45.7091958" lon="13.7298525"><ele>247.75</ele><time>2026-04-06T16:52:14.983Z</time></trkpt><trkpt lat="45.7091028" lon="13.7299526"><ele>248.5</ele><time>2026-04-06T16:52:15.977Z</time></trkpt><trkpt lat="45.709016" lon="13.7300585"><ele>249.25</ele><time>2026-04-06T16:52:16.972Z</time></trkpt><trkpt lat="45.7089371" lon="13.7301684"><ele>250.0</ele><time>2026-04-06T16:52:17.978Z</time></trkpt><trkpt lat="45.708853" lon="13.7302712"><ele>250.2</ele><time>2026-04-06T16:52:18.979Z</time></trkpt><trkpt lat="45.7087656" lon="13.7303663"><ele>250.4</ele><time>2026-04-06T16:52:19.971Z</time></trkpt><trkpt lat="45.7086871" lon="13.7304531"><ele>250.60000000000002</ele><time>2026-04-06T16:52:20.973Z</time></trkpt><trkpt lat="45.70862" lon="13.7305403"><ele>250.8</ele><time>2026-04-06T16:52:21.978Z</time></trkpt><trkpt lat="45.7085686" lon="13.7306045"><ele>251.0</ele><time>2026-04-06T16:52:22.988Z</time></trkpt><trkpt lat="45.708454" lon="13.7305764"><ele>251.60000000000002</ele><time>2026-04-06T16:52:24.978Z</time></trkpt><trkpt lat="45.7083515" lon="13.7304427"><ele>252.20000000000002</ele><time>2026-04-06T16:52:26.965Z</time></trkpt><trkpt lat="45.7082753" lon="13.7303523"><ele>252.79999999999998</ele><time>2026-04-06T16:52:27.976Z</time></trkpt><trkpt lat="45.7081919" lon="13.7302802"><ele>253.39999999999998</ele><time>2026-04-06T16:52:28.976Z</time></trkpt><trkpt lat="45.708106" lon="13.730233"><ele>254.0</ele><time>2026-04-06T16:52:29.988Z</time></trkpt><trkpt lat="45.7080202" lon="13.7302309"><ele>254.0</ele><time>2026-04-06T16:52:30.975Z</time></trkpt><trkpt lat="45.7079308" lon="13.7302763"><ele>254.0</ele><time>2026-04-06T16:52:31.952Z</time></trkpt><trkpt lat="45.7078401" lon="13.7303691"><ele>254.0</ele><time>2026-04-06T16:52:32.96Z</time></trkpt><trkpt lat="45.7077412" lon="13.7304901"><ele>254.0</ele><time>2026-04-06T16:52:33.962Z</time></trkpt><trkpt lat="45.7076483" lon="13.7306182"><ele>254.5</ele><time>2026-04-06T16:52:34.977Z</time></trkpt><trkpt lat="45.7075521" lon="13.7307361"><ele>255.0</ele><time>2026-04-06T16:52:35.965Z</time></trkpt><trkpt lat="45.707454" lon="13.7308537"><ele>255.5</ele><time>2026-04-06T16:52:36.967Z</time></trkpt><trkpt lat="45.7073597" lon="13.7309663"><ele>256.0</ele><time>2026-04-06T16:52:37.962Z</time></trkpt><trkpt lat="45.7072702" lon="13.7310626"><ele>256.0</ele><time>2026-04-06T16:52:38.965Z</time></trkpt><trkpt lat="45.7071758" lon="13.7311399"><ele>256.0</ele><time>2026-04-06T16:52:39.97Z</time></trkpt><trkpt lat="45.7070791" lon="13.7312042"><ele>256.0</ele><time>2026-04-06T16:52:40.969Z</time></trkpt><trkpt lat="45.7069853" lon="13.7312685"><ele>256.0</ele><time>2026-04-06T16:52:41.981Z</time></trkpt><trkpt lat="45.7068977" lon="13.7313286"><ele>256.0</ele><time>2026-04-06T16:52:42.977Z</time></trkpt><trkpt lat="45.7068158" lon="13.7313886"><ele>256.8</ele><time>2026-04-06T16:52:43.978Z</time></trkpt><trkpt lat="45.7067358" lon="13.7314513"><ele>257.6</ele><time>2026-04-06T16:52:44.965Z</time></trkpt><trkpt lat="45.7066601" lon="13.7315167"><ele>258.4</ele><time>2026-04-06T16:52:45.967Z</time></trkpt><trkpt lat="45.7065784" lon="13.7315797"><ele>259.2</ele><time>2026-04-06T16:52:46.97Z</time></trkpt><trkpt lat="45.7065007" lon="13.7316466"><ele>260.0</ele><time>2026-04-06T16:52:47.966Z</time></trkpt><trkpt lat="45.7064246" lon="13.7317071"><ele>260.0</ele><time>2026-04-06T16:52:48.964Z</time></trkpt><trkpt lat="45.7063509" lon="13.7317609"><ele>260.0</ele><time>2026-04-06T16:52:49.973Z</time></trkpt><trkpt lat="45.7062857" lon="13.7318117"><ele>260.0</ele><time>2026-04-06T16:52:50.972Z</time></trkpt><trkpt lat="45.7062277" lon="13.7318567"><ele>260.0</ele><time>2026-04-06T16:52:51.969Z</time></trkpt><trkpt lat="45.7061254" lon="13.7319272"><ele>260.0</ele><time>2026-04-06T16:52:53.983Z</time></trkpt><trkpt lat="45.7060343" lon="13.7319785"><ele>260.0</ele><time>2026-04-06T16:52:55.96Z</time></trkpt><trkpt lat="45.7059737" lon="13.7320171"><ele>259.33333333333337</ele><time>2026-04-06T16:52:58.959Z</time></trkpt><trkpt lat="45.7059012" lon="13.7320559"><ele>258.6666666666667</ele><time>2026-04-06T16:53:02.965Z</time></trkpt><trkpt lat="45.705797" lon="13.7321148"><ele>258.0</ele><time>2026-04-06T16:53:05.969Z</time></trkpt><trkpt lat="45.7057387" lon="13.7321537"><ele>257.3333333333333</ele><time>2026-04-06T16:53:06.971Z</time></trkpt><trkpt lat="45.7056521" lon="13.7321911"><ele>256.66666666666663</ele><time>2026-04-06T16:53:07.983Z</time></trkpt><trkpt lat="45.7055493" lon="13.7322228"><ele>256.0</ele><time>2026-04-06T16:53:08.969Z</time></trkpt><trkpt lat="45.7054364" lon="13.7322798"><ele>256.0</ele><time>2026-04-06T16:53:09.974Z</time></trkpt><trkpt lat="45.7053157" lon="13.7323393"><ele>256.0</ele><time>2026-04-06T16:53:10.965Z</time></trkpt><trkpt lat="45.7051849" lon="13.7324042"><ele>256.0</ele><time>2026-04-06T16:53:11.962Z</time></trkpt><trkpt lat="45.7050455" lon="13.7324596"><ele>256.0</ele><time>2026-04-06T16:53:12.963Z</time></trkpt><trkpt lat="45.7049132" lon="13.7325133"><ele>254.5</ele><time>2026-04-06T16:53:13.965Z</time></trkpt><trkpt lat="45.7047844" lon="13.7325641"><ele>253.0</ele><time>2026-04-06T16:53:14.958Z</time></trkpt><trkpt lat="45.7046543" lon="13.732619"><ele>251.5</ele><time>2026-04-06T16:53:15.968Z</time></trkpt><trkpt lat="45.7045324" lon="13.7326714"><ele>250.0</ele><time>2026-04-06T16:53:16.96Z</time></trkpt><trkpt lat="45.7044167" lon="13.7327222"><ele>249.75</ele><time>2026-04-06T16:53:17.97Z</time></trkpt><trkpt lat="45.7042952" lon="13.7327729"><ele>249.5</ele><time>2026-04-06T16:53:18.972Z</time></trkpt><trkpt lat="45.7041636" lon="13.7328271"><ele>249.25</ele><time>2026-04-06T16:53:19.971Z</time></trkpt><trkpt lat="45.7040213" lon="13.7328825"><ele>249.0</ele><time>2026-04-06T16:53:20.966Z</time></trkpt><trkpt lat="45.7038708" lon="13.7329393"><ele>249.0</ele><time>2026-04-06T16:53:21.977Z</time></trkpt><trkpt lat="45.7037223" lon="13.7329957"><ele>249.0</ele><time>2026-04-06T16:53:22.974Z</time></trkpt><trkpt lat="45.703586" lon="13.7330512"><ele>249.0</ele><time>2026-04-06T16:53:23.974Z</time></trkpt><trkpt lat="45.7034597" lon="13.7331056"><ele>249.0</ele><time>2026-04-06T16:53:24.975Z</time></trkpt><trkpt lat="45.7033324" lon="13.7331724"><ele>249.33333333333331</ele><time>2026-04-06T16:53:25.966Z</time></trkpt><trkpt lat="45.7032018" lon="13.7332536"><ele>249.66666666666666</ele><time>2026-04-06T16:53:26.967Z</time></trkpt><trkpt lat="45.7030696" lon="13.7333555"><ele>250.0</ele><time>2026-04-06T16:53:27.967Z</time></trkpt><trkpt lat="45.7029295" lon="13.7334663"><ele>251.0</ele><time>2026-04-06T16:53:28.968Z</time></trkpt><trkpt lat="45.7027817" lon="13.7335763"><ele>252.0</ele><time>2026-04-06T16:53:29.959Z</time></trkpt><trkpt lat="45.7026439" lon="13.7336858"><ele>253.0</ele><time>2026-04-06T16:53:30.95Z</time></trkpt><trkpt lat="45.7025107" lon="13.7337922"><ele>251.5</ele><time>2026-04-06T16:53:31.956Z</time></trkpt><trkpt lat="45.7023806" lon="13.7338912"><ele>250.0</ele><time>2026-04-06T16:53:32.974Z</time></trkpt><trkpt lat="45.7022488" lon="13.7339881"><ele>248.5</ele><time>2026-04-06T16:53:33.96Z</time></trkpt><trkpt lat="45.7021227" lon="13.7340792"><ele>247.0</ele><time>2026-04-06T16:53:34.965Z</time></trkpt><trkpt lat="45.7019986" lon="13.7341672"><ele>245.25</ele><time>2026-04-06T16:53:35.959Z</time></trkpt><trkpt lat="45.7018814" lon="13.734241"><ele>243.5</ele><time>2026-04-06T16:53:36.965Z</time></trkpt><trkpt lat="45.7017537" lon="13.7342924"><ele>241.75</ele><time>2026-04-06T16:53:37.963Z</time></trkpt><trkpt lat="45.7016203" lon="13.7343127"><ele>240.0</ele><time>2026-04-06T16:53:38.958Z</time></trkpt><trkpt lat="45.701496" lon="13.7343248"><ele>240.0</ele><time>2026-04-06T16:53:39.966Z</time></trkpt><trkpt lat="45.7013675" lon="13.7343275"><ele>240.0</ele><time>2026-04-06T16:53:40.962Z</time></trkpt><trkpt lat="45.7012531" lon="13.7343187"><ele>240.0</ele><time>2026-04-06T16:53:41.957Z</time></trkpt><trkpt lat="45.7011552" lon="13.7342891"><ele>240.0</ele><time>2026-04-06T16:53:42.969Z</time></trkpt><trkpt lat="45.7010682" lon="13.7342524"><ele>240.0</ele><time>2026-04-06T16:53:43.955Z</time></trkpt><trkpt lat="45.7009895" lon="13.7342119"><ele>237.57142857142858</ele><time>2026-04-06T16:53:44.959Z</time></trkpt><trkpt lat="45.7009214" lon="13.7341736"><ele>235.14285714285714</ele><time>2026-04-06T16:53:45.949Z</time></trkpt><trkpt lat="45.700859" lon="13.7341131"><ele>232.71428571428572</ele><time>2026-04-06T16:53:46.956Z</time></trkpt><trkpt lat="45.7008042" lon="13.7340517"><ele>230.28571428571428</ele><time>2026-04-06T16:53:47.959Z</time></trkpt><trkpt lat="45.7007655" lon="13.7339685"><ele>227.85714285714283</ele><time>2026-04-06T16:53:48.958Z</time></trkpt><trkpt lat="45.7007447" lon="13.7338737"><ele>225.42857142857142</ele><time>2026-04-06T16:53:49.973Z</time></trkpt><trkpt lat="45.7007536" lon="13.7337648"><ele>223.0</ele><time>2026-04-06T16:53:50.956Z</time></trkpt><trkpt lat="45.7007761" lon="13.7336504"><ele>223.66666666666666</ele><time>2026-04-06T16:53:51.959Z</time></trkpt><trkpt lat="45.7008051" lon="13.7335399"><ele>224.33333333333331</ele><time>2026-04-06T16:53:52.964Z</time></trkpt><trkpt lat="45.7008349" lon="13.7334275"><ele>225.0</ele><time>2026-04-06T16:53:53.956Z</time></trkpt><trkpt lat="45.7008702" lon="13.7333056"><ele>225.66666666666669</ele><time>2026-04-06T16:53:54.968Z</time></trkpt><trkpt lat="45.7009108" lon="13.7331821"><ele>226.33333333333334</ele><time>2026-04-06T16:53:55.952Z</time></trkpt><trkpt lat="45.7009503" lon="13.7330671"><ele>227.0</ele><time>2026-04-06T16:53:56.956Z</time></trkpt><trkpt lat="45.7009832" lon="13.7329667"><ele>227.0</ele><time>2026-04-06T16:53:57.949Z</time></trkpt><trkpt lat="45.7009876" lon="13.7328737"><ele>227.0</ele><time>2026-04-06T16:53:58.959Z</time></trkpt><trkpt lat="45.7009245" lon="13.7327579"><ele>227.0</ele><time>2026-04-06T16:54:00.949Z</time></trkpt><trkpt lat="45.7008193" lon="13.7327831"><ele>227.0</ele><time>2026-04-06T16:54:02.952Z</time></trkpt><trkpt lat="45.7007464" lon="13.732947"><ele>227.0</ele><time>2026-04-06T16:54:04.951Z</time></trkpt><trkpt lat="45.7007168" lon="13.7330654"><ele>227.0</ele><time>2026-04-06T16:54:05.96Z</time></trkpt><trkpt lat="45.7006911" lon="13.7332027"><ele>227.0</ele><time>2026-04-06T16:54:06.962Z</time></trkpt><trkpt lat="45.7006545" lon="13.7333471"><ele>227.0</ele><time>2026-04-06T16:54:07.955Z</time></trkpt><trkpt lat="45.7006134" lon="13.73348"><ele>227.0</ele><time>2026-04-06T16:54:08.964Z</time></trkpt><trkpt lat="45.7005692" lon="13.7336114"><ele>227.0</ele><time>2026-04-06T16:54:09.956Z</time></trkpt><trkpt lat="45.7005277" lon="13.7337422"><ele>226.2</ele><time>2026-04-06T16:54:10.956Z</time></trkpt><trkpt lat="45.7004921" lon="13.7338783"><ele>225.39999999999998</ele><time>2026-04-06T16:54:11.955Z</time></trkpt><trkpt lat="45.7004654" lon="13.7340186"><ele>224.60000000000002</ele><time>2026-04-06T16:54:12.96Z</time></trkpt><trkpt lat="45.7004503" lon="13.7341543"><ele>223.8</ele><time>2026-04-06T16:54:13.96Z</time></trkpt><trkpt lat="45.7004501" lon="13.7342816"><ele>223.0</ele><time>2026-04-06T16:54:14.957Z</time></trkpt><trkpt lat="45.7004681" lon="13.7343925"><ele>220.83333333333331</ele><time>2026-04-06T16:54:15.961Z</time></trkpt><trkpt lat="45.7004984" lon="13.7344959"><ele>218.66666666666666</ele><time>2026-04-06T16:54:16.96Z</time></trkpt><trkpt lat="45.7005455" lon="13.7345897"><ele>216.5</ele><time>2026-04-06T16:54:17.966Z</time></trkpt><trkpt lat="45.7006087" lon="13.7346652"><ele>214.33333333333331</ele><time>2026-04-06T16:54:18.96Z</time></trkpt><trkpt lat="45.7006726" lon="13.7347284"><ele>212.16666666666666</ele><time>2026-04-06T16:54:19.966Z</time></trkpt><trkpt lat="45.7007373" lon="13.734788"><ele>210.0</ele><time>2026-04-06T16:54:20.962Z</time></trkpt><trkpt lat="45.7008098" lon="13.734835"><ele>210.0</ele><time>2026-04-06T16:54:21.956Z</time></trkpt><trkpt lat="45.7008823" lon="13.7348864"><ele>210.0</ele><time>2026-04-06T16:54:22.952Z</time></trkpt><trkpt lat="45.7009429" lon="13.7349476"><ele>210.0</ele><time>2026-04-06T16:54:23.945Z</time></trkpt><trkpt lat="45.7009903" lon="13.7350313"><ele>210.0</ele><time>2026-04-06T16:54:24.953Z</time></trkpt><trkpt lat="45.7010113" lon="13.7351294"><ele>210.0</ele><time>2026-04-06T16:54:25.952Z</time></trkpt><trkpt lat="45.700991" lon="13.7352151"><ele>210.0</ele><time>2026-04-06T16:54:26.95Z</time></trkpt><trkpt lat="45.7009494" lon="13.7352977"><ele>210.0</ele><time>2026-04-06T16:54:27.95Z</time></trkpt><trkpt lat="45.7008844" lon="13.7353656"><ele>211.2</ele><time>2026-04-06T16:54:28.947Z</time></trkpt><trkpt lat="45.700817" lon="13.7354361"><ele>212.4</ele><time>2026-04-06T16:54:29.944Z</time></trkpt><trkpt lat="45.7007494" lon="13.7355189"><ele>213.60000000000002</ele><time>2026-04-06T16:54:30.95Z</time></trkpt><trkpt lat="45.700679" lon="13.7356123"><ele>214.8</ele><time>2026-04-06T16:54:31.946Z</time></trkpt><trkpt lat="45.7006044" lon="13.7357169"><ele>216.0</ele><time>2026-04-06T16:54:32.943Z</time></trkpt><trkpt lat="45.7005251" lon="13.7358378"><ele>216.0</ele><time>2026-04-06T16:54:33.948Z</time></trkpt><trkpt lat="45.7004487" lon="13.7359616"><ele>216.0</ele><time>2026-04-06T16:54:34.954Z</time></trkpt><trkpt lat="45.7003704" lon="13.7360831"><ele>216.0</ele><time>2026-04-06T16:54:35.944Z</time></trkpt><trkpt lat="45.7002878" lon="13.7362021"><ele>216.0</ele><time>2026-04-06T16:54:36.946Z</time></trkpt><trkpt lat="45.7001988" lon="13.7363019"><ele>214.20000000000002</ele><time>2026-04-06T16:54:37.948Z</time></trkpt><trkpt lat="45.7001057" lon="13.736392"><ele>212.40000000000003</ele><time>2026-04-06T16:54:38.938Z</time></trkpt><trkpt lat="45.7000169" lon="13.736477"><ele>210.6</ele><time>2026-04-06T16:54:39.942Z</time></trkpt><trkpt lat="45.6999273" lon="13.7365674"><ele>208.8</ele><time>2026-04-06T16:54:40.947Z</time></trkpt><trkpt lat="45.6998366" lon="13.7366535"><ele>207.0</ele><time>2026-04-06T16:54:41.961Z</time></trkpt><trkpt lat="45.6997436" lon="13.7367398"><ele>207.0</ele><time>2026-04-06T16:54:42.943Z</time></trkpt><trkpt lat="45.6996525" lon="13.7368242"><ele>207.0</ele><time>2026-04-06T16:54:43.942Z</time></trkpt><trkpt lat="45.6995563" lon="13.7369081"><ele>207.0</ele><time>2026-04-06T16:54:44.941Z</time></trkpt><trkpt lat="45.6994545" lon="13.7369966"><ele>207.0</ele><time>2026-04-06T16:54:45.942Z</time></trkpt><trkpt lat="45.6993473" lon="13.7370754"><ele>206.25</ele><time>2026-04-06T16:54:46.957Z</time></trkpt><trkpt lat="45.6992414" lon="13.7371442"><ele>205.5</ele><time>2026-04-06T16:54:47.946Z</time></trkpt><trkpt lat="45.6991368" lon="13.7372107"><ele>204.75</ele><time>2026-04-06T16:54:48.938Z</time></trkpt><trkpt lat="45.6990292" lon="13.7372757"><ele>204.0</ele><time>2026-04-06T16:54:49.939Z</time></trkpt><trkpt lat="45.6989285" lon="13.7373493"><ele>204.0</ele><time>2026-04-06T16:54:50.941Z</time></trkpt><trkpt lat="45.6988318" lon="13.7374347"><ele>204.0</ele><time>2026-04-06T16:54:51.949Z</time></trkpt><trkpt lat="45.6987415" lon="13.7375247"><ele>204.0</ele><time>2026-04-06T16:54:52.946Z</time></trkpt><trkpt lat="45.6986528" lon="13.7376137"><ele>204.0</ele><time>2026-04-06T16:54:53.947Z</time></trkpt><trkpt lat="45.698563" lon="13.7377081"><ele>204.0</ele><time>2026-04-06T16:54:54.944Z</time></trkpt><trkpt lat="45.698474" lon="13.7378057"><ele>201.0</ele><time>2026-04-06T16:54:55.942Z</time></trkpt><trkpt lat="45.6983918" lon="13.7379129"><ele>198.0</ele><time>2026-04-06T16:54:56.952Z</time></trkpt><trkpt lat="45.6983319" lon="13.7380464"><ele>195.0</ele><time>2026-04-06T16:54:57.941Z</time></trkpt><trkpt lat="45.6982742" lon="13.7381929"><ele>192.0</ele><time>2026-04-06T16:54:58.941Z</time></trkpt><trkpt lat="45.6982144" lon="13.7383283"><ele>192.0</ele><time>2026-04-06T16:54:59.956Z</time></trkpt><trkpt lat="45.6981594" lon="13.7384684"><ele>192.0</ele><time>2026-04-06T16:55:00.948Z</time></trkpt><trkpt lat="45.698107" lon="13.7386103"><ele>192.0</ele><time>2026-04-06T16:55:01.947Z</time></trkpt><trkpt lat="45.698056" lon="13.7387471"><ele>192.0</ele><time>2026-04-06T16:55:02.941Z</time></trkpt><trkpt lat="45.6980035" lon="13.7388793"><ele>192.0</ele><time>2026-04-06T16:55:03.931Z</time></trkpt><trkpt lat="45.6979452" lon="13.7390093"><ele>191.6</ele><time>2026-04-06T16:55:04.937Z</time></trkpt><trkpt lat="45.6978755" lon="13.739123"><ele>191.2</ele><time>2026-04-06T16:55:05.94Z</time></trkpt><trkpt lat="45.6977959" lon="13.7392414"><ele>190.8</ele><time>2026-04-06T16:55:06.953Z</time></trkpt><trkpt lat="45.6977149" lon="13.739361"><ele>190.4</ele><time>2026-04-06T16:55:07.942Z</time></trkpt><trkpt lat="45.6976364" lon="13.7394703"><ele>190.0</ele><time>2026-04-06T16:55:08.942Z</time></trkpt><trkpt lat="45.6975553" lon="13.7395902"><ele>190.0</ele><time>2026-04-06T16:55:09.935Z</time></trkpt><trkpt lat="45.6974733" lon="13.7397054"><ele>190.0</ele><time>2026-04-06T16:55:10.946Z</time></trkpt><trkpt lat="45.6973981" lon="13.7398073"><ele>190.0</ele><time>2026-04-06T16:55:11.944Z</time></trkpt><trkpt lat="45.6973207" lon="13.7399083"><ele>190.0</ele><time>2026-04-06T16:55:12.941Z</time></trkpt><trkpt lat="45.6972426" lon="13.7400071"><ele>190.0</ele><time>2026-04-06T16:55:13.946Z</time></trkpt><trkpt lat="45.6971712" lon="13.7401194"><ele>185.6</ele><time>2026-04-06T16:55:14.94Z</time></trkpt><trkpt lat="45.6971007" lon="13.7402374"><ele>181.2</ele><time>2026-04-06T16:55:15.941Z</time></trkpt><trkpt lat="45.6970331" lon="13.7403546"><ele>176.8</ele><time>2026-04-06T16:55:16.941Z</time></trkpt><trkpt lat="45.6969707" lon="13.7404763"><ele>172.4</ele><time>2026-04-06T16:55:17.938Z</time></trkpt><trkpt lat="45.6969024" lon="13.7406166"><ele>168.0</ele><time>2026-04-06T16:55:18.954Z</time></trkpt><trkpt lat="45.6968378" lon="13.7407645"><ele>168.0</ele><time>2026-04-06T16:55:19.936Z</time></trkpt><trkpt lat="45.6967701" lon="13.7409002"><ele>168.0</ele><time>2026-04-06T16:55:20.937Z</time></trkpt><trkpt lat="45.6966965" lon="13.7410378"><ele>168.0</ele><time>2026-04-06T16:55:21.941Z</time></trkpt><trkpt lat="45.6966217" lon="13.7411704"><ele>168.0</ele><time>2026-04-06T16:55:22.936Z</time></trkpt><trkpt lat="45.6965442" lon="13.7412902"><ele>173.0</ele><time>2026-04-06T16:55:23.94Z</time></trkpt><trkpt lat="45.6964702" lon="13.7414062"><ele>178.0</ele><time>2026-04-06T16:55:24.939Z</time></trkpt><trkpt lat="45.6964023" lon="13.7415186"><ele>183.0</ele><time>2026-04-06T16:55:25.931Z</time></trkpt><trkpt lat="45.6963299" lon="13.7416249"><ele>188.0</ele><time>2026-04-06T16:55:26.94Z</time></trkpt><trkpt lat="45.696245" lon="13.741717"><ele>193.0</ele><time>2026-04-06T16:55:27.94Z</time></trkpt><trkpt lat="45.6961544" lon="13.7417971"><ele>190.60000000000002</ele><time>2026-04-06T16:55:28.938Z</time></trkpt><trkpt lat="45.696066" lon="13.7418824"><ele>188.20000000000002</ele><time>2026-04-06T16:55:29.943Z</time></trkpt><trkpt lat="45.6959776" lon="13.7419718"><ele>185.8</ele><time>2026-04-06T16:55:30.942Z</time></trkpt><trkpt lat="45.6958856" lon="13.7420558"><ele>183.4</ele><time>2026-04-06T16:55:31.941Z</time></trkpt><trkpt lat="45.695789" lon="13.7421374"><ele>181.0</ele><time>2026-04-06T16:55:32.942Z</time></trkpt><trkpt lat="45.6956985" lon="13.7422017"><ele>181.0</ele><time>2026-04-06T16:55:33.938Z</time></trkpt><trkpt lat="45.6956116" lon="13.7422744"><ele>181.0</ele><time>2026-04-06T16:55:34.938Z</time></trkpt><trkpt lat="45.695527" lon="13.7423537"><ele>181.0</ele><time>2026-04-06T16:55:35.965Z</time></trkpt><trkpt lat="45.6954351" lon="13.7424441"><ele>181.0</ele><time>2026-04-06T16:55:36.946Z</time></trkpt><trkpt lat="45.6953401" lon="13.7425302"><ele>181.0</ele><time>2026-04-06T16:55:37.934Z</time></trkpt><trkpt lat="45.6952482" lon="13.7426147"><ele>180.75</ele><time>2026-04-06T16:55:38.938Z</time></trkpt><trkpt lat="45.6951539" lon="13.7427074"><ele>180.5</ele><time>2026-04-06T16:55:39.948Z</time></trkpt><trkpt lat="45.6950592" lon="13.7428123"><ele>180.25</ele><time>2026-04-06T16:55:40.939Z</time></trkpt><trkpt lat="45.6949638" lon="13.7429234"><ele>180.0</ele><time>2026-04-06T16:55:41.954Z</time></trkpt><trkpt lat="45.6948664" lon="13.7430265"><ele>180.0</ele><time>2026-04-06T16:55:42.943Z</time></trkpt><trkpt lat="45.6947719" lon="13.7431249"><ele>180.0</ele><time>2026-04-06T16:55:43.942Z</time></trkpt><trkpt lat="45.6946746" lon="13.7432203"><ele>180.0</ele><time>2026-04-06T16:55:44.939Z</time></trkpt><trkpt lat="45.6945786" lon="13.743309"><ele>180.0</ele><time>2026-04-06T16:55:45.948Z</time></trkpt><trkpt lat="45.6944853" lon="13.7433817"><ele>180.6</ele><time>2026-04-06T16:55:46.947Z</time></trkpt><trkpt lat="45.6943899" lon="13.7434622"><ele>181.2</ele><time>2026-04-06T16:55:47.941Z</time></trkpt><trkpt lat="45.6942971" lon="13.743537"><ele>181.8</ele><time>2026-04-06T16:55:48.949Z</time></trkpt><trkpt lat="45.6942017" lon="13.7436209"><ele>182.4</ele><time>2026-04-06T16:55:49.94Z</time></trkpt><trkpt lat="45.6940992" lon="13.7436978"><ele>183.0</ele><time>2026-04-06T16:55:50.942Z</time></trkpt><trkpt lat="45.693999" lon="13.7437671"><ele>183.0</ele><time>2026-04-06T16:55:51.943Z</time></trkpt><trkpt lat="45.6938915" lon="13.743834"><ele>183.0</ele><time>2026-04-06T16:55:52.948Z</time></trkpt><trkpt lat="45.6937873" lon="13.7438942"><ele>183.0</ele><time>2026-04-06T16:55:53.946Z</time></trkpt><trkpt lat="45.6936861" lon="13.7439546"><ele>183.0</ele><time>2026-04-06T16:55:54.948Z</time></trkpt><trkpt lat="45.6935875" lon="13.7440257"><ele>177.8</ele><time>2026-04-06T16:55:55.945Z</time></trkpt><trkpt lat="45.6934894" lon="13.744097"><ele>172.60000000000002</ele><time>2026-04-06T16:55:56.947Z</time></trkpt><trkpt lat="45.6933917" lon="13.7441702"><ele>167.39999999999998</ele><time>2026-04-06T16:55:57.941Z</time></trkpt><trkpt lat="45.6932968" lon="13.7442314"><ele>162.2</ele><time>2026-04-06T16:55:58.945Z</time></trkpt><trkpt lat="45.6931915" lon="13.7442706"><ele>157.0</ele><time>2026-04-06T16:55:59.951Z</time></trkpt><trkpt lat="45.6930772" lon="13.7442812"><ele>157.0</ele><time>2026-04-06T16:56:00.944Z</time></trkpt><trkpt lat="45.6929655" lon="13.7442781"><ele>157.0</ele><time>2026-04-06T16:56:01.95Z</time></trkpt><trkpt lat="45.6928582" lon="13.7442777"><ele>157.0</ele><time>2026-04-06T16:56:02.941Z</time></trkpt><trkpt lat="45.6927601" lon="13.7442656"><ele>157.0</ele><time>2026-04-06T16:56:03.942Z</time></trkpt><trkpt lat="45.6926589" lon="13.7442558"><ele>157.0</ele><time>2026-04-06T16:56:04.945Z</time></trkpt><trkpt lat="45.6925524" lon="13.7442597"><ele>155.6</ele><time>2026-04-06T16:56:05.95Z</time></trkpt><trkpt lat="45.6924528" lon="13.7442808"><ele>154.2</ele><time>2026-04-06T16:56:06.946Z</time></trkpt><trkpt lat="45.6923523" lon="13.7443002"><ele>152.8</ele><time>2026-04-06T16:56:07.946Z</time></trkpt><trkpt lat="45.6922588" lon="13.744325"><ele>151.4</ele><time>2026-04-06T16:56:08.941Z</time></trkpt><trkpt lat="45.6921642" lon="13.7443495"><ele>150.0</ele><time>2026-04-06T16:56:09.95Z</time></trkpt><trkpt lat="45.6920692" lon="13.7443919"><ele>151.4</ele><time>2026-04-06T16:56:10.942Z</time></trkpt><trkpt lat="45.69197" lon="13.7444438"><ele>152.8</ele><time>2026-04-06T16:56:11.947Z</time></trkpt><trkpt lat="45.6918771" lon="13.7445012"><ele>154.2</ele><time>2026-04-06T16:56:12.949Z</time></trkpt><trkpt lat="45.6917855" lon="13.7445724"><ele>155.6</ele><time>2026-04-06T16:56:13.941Z</time></trkpt><trkpt lat="45.6916969" lon="13.7446512"><ele>157.0</ele><time>2026-04-06T16:56:14.963Z</time></trkpt><trkpt lat="45.6916135" lon="13.7447389"><ele>157.0</ele><time>2026-04-06T16:56:15.941Z</time></trkpt><trkpt lat="45.6915365" lon="13.7448286"><ele>157.0</ele><time>2026-04-06T16:56:16.95Z</time></trkpt><trkpt lat="45.6914656" lon="13.7449222"><ele>157.0</ele><time>2026-04-06T16:56:17.944Z</time></trkpt><trkpt lat="45.6913986" lon="13.7450291"><ele>157.0</ele><time>2026-04-06T16:56:18.949Z</time></trkpt><trkpt lat="45.6913347" lon="13.7451521"><ele>157.0</ele><time>2026-04-06T16:56:19.937Z</time></trkpt><trkpt lat="45.6912745" lon="13.7452802"><ele>154.0</ele><time>2026-04-06T16:56:20.944Z</time></trkpt><trkpt lat="45.6912145" lon="13.7454093"><ele>151.0</ele><time>2026-04-06T16:56:21.945Z</time></trkpt><trkpt lat="45.6911515" lon="13.7455392"><ele>148.0</ele><time>2026-04-06T16:56:22.948Z</time></trkpt><trkpt lat="45.6910876" lon="13.745674"><ele>145.0</ele><time>2026-04-06T16:56:23.944Z</time></trkpt><trkpt lat="45.6910225" lon="13.7458053"><ele>142.0</ele><time>2026-04-06T16:56:24.951Z</time></trkpt><trkpt lat="45.6909602" lon="13.745932"><ele>146.2</ele><time>2026-04-06T16:56:25.947Z</time></trkpt><trkpt lat="45.6908994" lon="13.7460585"><ele>150.39999999999998</ele><time>2026-04-06T16:56:26.945Z</time></trkpt><trkpt lat="45.6908356" lon="13.7461882"><ele>154.60000000000002</ele><time>2026-04-06T16:56:27.946Z</time></trkpt><trkpt lat="45.6907688" lon="13.7463209"><ele>158.8</ele><time>2026-04-06T16:56:28.949Z</time></trkpt><trkpt lat="45.6907053" lon="13.7464485"><ele>163.0</ele><time>2026-04-06T16:56:29.95Z</time></trkpt><trkpt lat="45.690641" lon="13.746579"><ele>163.0</ele><time>2026-04-06T16:56:30.954Z</time></trkpt><trkpt lat="45.6905785" lon="13.7467141"><ele>163.0</ele><time>2026-04-06T16:56:31.953Z</time></trkpt><trkpt lat="45.69051" lon="13.7468567"><ele>163.0</ele><time>2026-04-06T16:56:32.951Z</time></trkpt><trkpt lat="45.6904447" lon="13.7470032"><ele>163.0</ele><time>2026-04-06T16:56:33.944Z</time></trkpt><trkpt lat="45.6903804" lon="13.7471519"><ele>160.6</ele><time>2026-04-06T16:56:34.943Z</time></trkpt><trkpt lat="45.6903201" lon="13.7472977"><ele>158.20000000000002</ele><time>2026-04-06T16:56:35.95Z</time></trkpt><trkpt lat="45.6902665" lon="13.7474341"><ele>155.8</ele><time>2026-04-06T16:56:36.95Z</time></trkpt><trkpt lat="45.690214" lon="13.7475709"><ele>153.4</ele><time>2026-04-06T16:56:37.944Z</time></trkpt><trkpt lat="45.6901608" lon="13.7477086"><ele>151.0</ele><time>2026-04-06T16:56:38.947Z</time></trkpt><trkpt lat="45.6901051" lon="13.7478447"><ele>151.0</ele><time>2026-04-06T16:56:39.947Z</time></trkpt><trkpt lat="45.6900419" lon="13.7479772"><ele>151.0</ele><time>2026-04-06T16:56:40.947Z</time></trkpt><trkpt lat="45.689978" lon="13.7481174"><ele>151.0</ele><time>2026-04-06T16:56:41.949Z</time></trkpt><trkpt lat="45.6899173" lon="13.7482564"><ele>151.0</ele><time>2026-04-06T16:56:42.946Z</time></trkpt><trkpt lat="45.6898572" lon="13.7483926"><ele>151.0</ele><time>2026-04-06T16:56:43.955Z</time></trkpt><trkpt lat="45.6897992" lon="13.7485236"><ele>151.0</ele><time>2026-04-06T16:56:44.944Z</time></trkpt><trkpt lat="45.689742" lon="13.7486529"><ele>151.0</ele><time>2026-04-06T16:56:45.949Z</time></trkpt><trkpt lat="45.6896813" lon="13.7487799"><ele>151.0</ele><time>2026-04-06T16:56:46.948Z</time></trkpt><trkpt lat="45.6896181" lon="13.7489015"><ele>151.0</ele><time>2026-04-06T16:56:47.947Z</time></trkpt><trkpt lat="45.6895524" lon="13.7490221"><ele>150.0</ele><time>2026-04-06T16:56:48.947Z</time></trkpt><trkpt lat="45.6894881" lon="13.7491438"><ele>149.0</ele><time>2026-04-06T16:56:49.948Z</time></trkpt><trkpt lat="45.6894223" lon="13.7492699"><ele>148.0</ele><time>2026-04-06T16:56:50.947Z</time></trkpt><trkpt lat="45.6893562" lon="13.7493897"><ele>147.0</ele><time>2026-04-06T16:56:51.95Z</time></trkpt><trkpt lat="45.6892861" lon="13.7495158"><ele>146.0</ele><time>2026-04-06T16:56:52.951Z</time></trkpt><trkpt lat="45.6892118" lon="13.7496439"><ele>146.0</ele><time>2026-04-06T16:56:53.951Z</time></trkpt><trkpt lat="45.6891474" lon="13.7497696"><ele>146.0</ele><time>2026-04-06T16:56:54.955Z</time></trkpt><trkpt lat="45.6890797" lon="13.7498926"><ele>146.0</ele><time>2026-04-06T16:56:55.944Z</time></trkpt><trkpt lat="45.6890246" lon="13.75002"><ele>146.0</ele><time>2026-04-06T16:56:56.946Z</time></trkpt><trkpt lat="45.6889686" lon="13.7501504"><ele>146.0</ele><time>2026-04-06T16:56:57.945Z</time></trkpt><trkpt lat="45.6889131" lon="13.7502864"><ele>148.25</ele><time>2026-04-06T16:56:58.95Z</time></trkpt><trkpt lat="45.6888566" lon="13.7504287"><ele>150.5</ele><time>2026-04-06T16:56:59.946Z</time></trkpt><trkpt lat="45.6887996" lon="13.7505686"><ele>152.75</ele><time>2026-04-06T16:57:00.951Z</time></trkpt><trkpt lat="45.6887435" lon="13.7507075"><ele>155.0</ele><time>2026-04-06T16:57:01.942Z</time></trkpt><trkpt lat="45.6886869" lon="13.7508425"><ele>155.0</ele><time>2026-04-06T16:57:02.954Z</time></trkpt><trkpt lat="45.6886273" lon="13.7509832"><ele>155.0</ele><time>2026-04-06T16:57:03.949Z</time></trkpt><trkpt lat="45.6885615" lon="13.7511239"><ele>155.0</ele><time>2026-04-06T16:57:04.961Z</time></trkpt><trkpt lat="45.6884876" lon="13.7512492"><ele>155.0</ele><time>2026-04-06T16:57:05.949Z</time></trkpt><trkpt lat="45.6884071" lon="13.7513606"><ele>150.5</ele><time>2026-04-06T16:57:06.95Z</time></trkpt><trkpt lat="45.6883257" lon="13.7514741"><ele>146.0</ele><time>2026-04-06T16:57:07.948Z</time></trkpt><trkpt lat="45.6882458" lon="13.7515894"><ele>141.5</ele><time>2026-04-06T16:57:08.95Z</time></trkpt><trkpt lat="45.6881707" lon="13.7517049"><ele>137.0</ele><time>2026-04-06T16:57:09.952Z</time></trkpt><trkpt lat="45.6880978" lon="13.7518323"><ele>139.6</ele><time>2026-04-06T16:57:10.956Z</time></trkpt><trkpt lat="45.6880324" lon="13.7519628"><ele>142.2</ele><time>2026-04-06T16:57:11.946Z</time></trkpt><trkpt lat="45.6879639" lon="13.752089"><ele>144.8</ele><time>2026-04-06T16:57:12.95Z</time></trkpt><trkpt lat="45.6878945" lon="13.7522148"><ele>147.4</ele><time>2026-04-06T16:57:13.948Z</time></trkpt><trkpt lat="45.6878346" lon="13.7523316"><ele>150.0</ele><time>2026-04-06T16:57:14.954Z</time></trkpt><trkpt lat="45.6877788" lon="13.7524231"><ele>146.83333333333334</ele><time>2026-04-06T16:57:15.947Z</time></trkpt><trkpt lat="45.6877168" lon="13.7524963"><ele>143.66666666666666</ele><time>2026-04-06T16:57:16.951Z</time></trkpt><trkpt lat="45.6876405" lon="13.7525246"><ele>140.5</ele><time>2026-04-06T16:57:17.952Z</time></trkpt><trkpt lat="45.6875657" lon="13.7525111"><ele>137.33333333333331</ele><time>2026-04-06T16:57:18.947Z</time></trkpt><trkpt lat="45.6875073" lon="13.7524579"><ele>134.16666666666666</ele><time>2026-04-06T16:57:19.942Z</time></trkpt><trkpt lat="45.6873972" lon="13.7523617"><ele>131.0</ele><time>2026-04-06T16:57:21.948Z</time></trkpt><trkpt lat="45.6873267" lon="13.7523393"><ele>131.0</ele><time>2026-04-06T16:57:22.943Z</time></trkpt><trkpt lat="45.6872545" lon="13.7523224"><ele>131.0</ele><time>2026-04-06T16:57:23.948Z</time></trkpt><trkpt lat="45.6871783" lon="13.752318"><ele>131.0</ele><time>2026-04-06T16:57:24.946Z</time></trkpt><trkpt lat="45.6870936" lon="13.7523402"><ele>131.0</ele><time>2026-04-06T16:57:25.947Z</time></trkpt><trkpt lat="45.6870032" lon="13.7523801"><ele>131.0</ele><time>2026-04-06T16:57:26.954Z</time></trkpt><trkpt lat="45.686917" lon="13.7524319"><ele>131.0</ele><time>2026-04-06T16:57:27.947Z</time></trkpt><trkpt lat="45.686841" lon="13.7524881"><ele>130.8</ele><time>2026-04-06T16:57:28.947Z</time></trkpt><trkpt lat="45.6867749" lon="13.7525603"><ele>130.6</ele><time>2026-04-06T16:57:29.949Z</time></trkpt><trkpt lat="45.6867052" lon="13.7526673"><ele>130.4</ele><time>2026-04-06T16:57:30.951Z</time></trkpt><trkpt lat="45.6866316" lon="13.7527799"><ele>130.2</ele><time>2026-04-06T16:57:31.948Z</time></trkpt><trkpt lat="45.6865567" lon="13.7528909"><ele>130.0</ele><time>2026-04-06T16:57:32.949Z</time></trkpt><trkpt lat="45.6864815" lon="13.7529985"><ele>130.0</ele><time>2026-04-06T16:57:33.956Z</time></trkpt><trkpt lat="45.686398" lon="13.7531124"><ele>130.0</ele><time>2026-04-06T16:57:34.949Z</time></trkpt><trkpt lat="45.6863225" lon="13.7532324"><ele>130.0</ele><time>2026-04-06T16:57:35.945Z</time></trkpt><trkpt lat="45.6862489" lon="13.7533433"><ele>130.0</ele><time>2026-04-06T16:57:36.948Z</time></trkpt><trkpt lat="45.6861833" lon="13.7534544"><ele>130.0</ele><time>2026-04-06T16:57:37.944Z</time></trkpt><trkpt lat="45.686118" lon="13.753565"><ele>125.8</ele><time>2026-04-06T16:57:38.967Z</time></trkpt><trkpt lat="45.6860576" lon="13.7536756"><ele>121.6</ele><time>2026-04-06T16:57:39.953Z</time></trkpt><trkpt lat="45.6859995" lon="13.7537909"><ele>117.4</ele><time>2026-04-06T16:57:40.956Z</time></trkpt><trkpt lat="45.6859428" lon="13.7539105"><ele>113.2</ele><time>2026-04-06T16:57:41.948Z</time></trkpt><trkpt lat="45.6858892" lon="13.7540386"><ele>109.0</ele><time>2026-04-06T16:57:42.953Z</time></trkpt><trkpt lat="45.6858439" lon="13.754173"><ele>109.0</ele><time>2026-04-06T16:57:43.948Z</time></trkpt><trkpt lat="45.6858073" lon="13.7543125"><ele>109.0</ele><time>2026-04-06T16:57:44.951Z</time></trkpt><trkpt lat="45.6857771" lon="13.7544545"><ele>109.0</ele><time>2026-04-06T16:57:45.952Z</time></trkpt><trkpt lat="45.6857567" lon="13.7545912"><ele>109.0</ele><time>2026-04-06T16:57:46.947Z</time></trkpt><trkpt lat="45.6857427" lon="13.754729"><ele>109.0</ele><time>2026-04-06T16:57:47.96Z</time></trkpt><trkpt lat="45.6857298" lon="13.7548651"><ele>109.0</ele><time>2026-04-06T16:57:48.951Z</time></trkpt><trkpt lat="45.6857191" lon="13.7549991"><ele>109.0</ele><time>2026-04-06T16:57:49.955Z</time></trkpt><trkpt lat="45.68571" lon="13.7551384"><ele>109.0</ele><time>2026-04-06T16:57:50.949Z</time></trkpt><trkpt lat="45.6857023" lon="13.7552756"><ele>109.0</ele><time>2026-04-06T16:57:51.95Z</time></trkpt><trkpt lat="45.6856941" lon="13.7554122"><ele>109.0</ele><time>2026-04-06T16:57:52.948Z</time></trkpt><trkpt lat="45.6856889" lon="13.7555576"><ele>109.0</ele><time>2026-04-06T16:57:53.951Z</time></trkpt><trkpt lat="45.68568" lon="13.7556981"><ele>109.0</ele><time>2026-04-06T16:57:54.949Z</time></trkpt><trkpt lat="45.6856732" lon="13.7558392"><ele>109.0</ele><time>2026-04-06T16:57:55.944Z</time></trkpt><trkpt lat="45.6856674" lon="13.7559786"><ele>109.0</ele><time>2026-04-06T16:57:56.95Z</time></trkpt><trkpt lat="45.6856528" lon="13.7561181"><ele>109.0</ele><time>2026-04-06T16:57:57.944Z</time></trkpt><trkpt lat="45.6856192" lon="13.7562445"><ele>109.2</ele><time>2026-04-06T16:57:58.942Z</time></trkpt><trkpt lat="45.6855601" lon="13.7563455"><ele>109.4</ele><time>2026-04-06T16:57:59.947Z</time></trkpt><trkpt lat="45.6854885" lon="13.7564252"><ele>109.6</ele><time>2026-04-06T16:58:00.945Z</time></trkpt><trkpt lat="45.6854049" lon="13.7564656"><ele>109.8</ele><time>2026-04-06T16:58:01.954Z</time></trkpt><trkpt lat="45.6853061" lon="13.7564708"><ele>110.0</ele><time>2026-04-06T16:58:02.941Z</time></trkpt><trkpt lat="45.6852184" lon="13.7564455"><ele>110.0</ele><time>2026-04-06T16:58:03.948Z</time></trkpt><trkpt lat="45.6851457" lon="13.756397"><ele>110.0</ele><time>2026-04-06T16:58:04.944Z</time></trkpt><trkpt lat="45.6850727" lon="13.7563262"><ele>110.0</ele><time>2026-04-06T16:58:05.944Z</time></trkpt><trkpt lat="45.684996" lon="13.7562543"><ele>110.0</ele><time>2026-04-06T16:58:06.942Z</time></trkpt><trkpt lat="45.6849155" lon="13.7561764"><ele>110.0</ele><time>2026-04-06T16:58:07.944Z</time></trkpt><trkpt lat="45.6848314" lon="13.7560982"><ele>107.4</ele><time>2026-04-06T16:58:08.946Z</time></trkpt><trkpt lat="45.6847477" lon="13.7560231"><ele>104.8</ele><time>2026-04-06T16:58:09.947Z</time></trkpt><trkpt lat="45.6846626" lon="13.7559544"><ele>102.19999999999999</ele><time>2026-04-06T16:58:10.944Z</time></trkpt><trkpt lat="45.6845739" lon="13.7558915"><ele>99.6</ele><time>2026-04-06T16:58:11.957Z</time></trkpt><trkpt lat="45.6844853" lon="13.7558303"><ele>97.0</ele><time>2026-04-06T16:58:12.948Z</time></trkpt><trkpt lat="45.6843924" lon="13.7557703"><ele>96.39999999999999</ele><time>2026-04-06T16:58:13.948Z</time></trkpt><trkpt lat="45.6842971" lon="13.7557165"><ele>95.8</ele><time>2026-04-06T16:58:14.947Z</time></trkpt><trkpt lat="45.6841991" lon="13.7556809"><ele>95.2</ele><time>2026-04-06T16:58:15.942Z</time></trkpt><trkpt lat="45.6840964" lon="13.7556576"><ele>94.6</ele><time>2026-04-06T16:58:16.948Z</time></trkpt><trkpt lat="45.6839965" lon="13.7556504"><ele>94.0</ele><time>2026-04-06T16:58:17.947Z</time></trkpt><trkpt lat="45.6838972" lon="13.7556699"><ele>94.0</ele><time>2026-04-06T16:58:18.953Z</time></trkpt><trkpt lat="45.6838048" lon="13.7556976"><ele>94.0</ele><time>2026-04-06T16:58:19.945Z</time></trkpt><trkpt lat="45.6837111" lon="13.7557364"><ele>94.0</ele><time>2026-04-06T16:58:20.949Z</time></trkpt><trkpt lat="45.6836204" lon="13.7557914"><ele>94.0</ele><time>2026-04-06T16:58:21.958Z</time></trkpt><trkpt lat="45.683526" lon="13.7558725"><ele>94.0</ele><time>2026-04-06T16:58:22.961Z</time></trkpt><trkpt lat="45.6834197" lon="13.7559958"><ele>94.0</ele><time>2026-04-06T16:58:23.957Z</time></trkpt><trkpt lat="45.6833056" lon="13.7561306"><ele>94.0</ele><time>2026-04-06T16:58:24.961Z</time></trkpt><trkpt lat="45.6831884" lon="13.756249"><ele>94.0</ele><time>2026-04-06T16:58:25.953Z</time></trkpt><trkpt lat="45.6830755" lon="13.7563592"><ele>94.0</ele><time>2026-04-06T16:58:26.968Z</time></trkpt><trkpt lat="45.6829655" lon="13.7564777"><ele>94.0</ele><time>2026-04-06T16:58:27.961Z</time></trkpt><trkpt lat="45.6828637" lon="13.7566012"><ele>94.0</ele><time>2026-04-06T16:58:28.956Z</time></trkpt><trkpt lat="45.6827642" lon="13.7567314"><ele>94.0</ele><time>2026-04-06T16:58:29.961Z</time></trkpt><trkpt lat="45.6826711" lon="13.7568786"><ele>94.0</ele><time>2026-04-06T16:58:30.96Z</time></trkpt><trkpt lat="45.6825912" lon="13.757051"><ele>89.0</ele><time>2026-04-06T16:58:31.959Z</time></trkpt><trkpt lat="45.682525" lon="13.7572515"><ele>84.0</ele><time>2026-04-06T16:58:32.951Z</time></trkpt><trkpt lat="45.6824611" lon="13.757463"><ele>79.0</ele><time>2026-04-06T16:58:33.951Z</time></trkpt><trkpt lat="45.6823969" lon="13.7576658"><ele>80.75</ele><time>2026-04-06T16:58:34.945Z</time></trkpt><trkpt lat="45.6823259" lon="13.7578474"><ele>82.5</ele><time>2026-04-06T16:58:35.95Z</time></trkpt><trkpt lat="45.6822496" lon="13.7580121"><ele>84.25</ele><time>2026-04-06T16:58:36.947Z</time></trkpt><trkpt lat="45.682177" lon="13.7581652"><ele>86.0</ele><time>2026-04-06T16:58:37.945Z</time></trkpt><trkpt lat="45.682106" lon="13.758314"><ele>86.0</ele><time>2026-04-06T16:58:38.947Z</time></trkpt><trkpt lat="45.6820386" lon="13.7584597"><ele>86.0</ele><time>2026-04-06T16:58:39.946Z</time></trkpt><trkpt lat="45.6819634" lon="13.7585812"><ele>86.0</ele><time>2026-04-06T16:58:40.949Z</time></trkpt><trkpt lat="45.6818832" lon="13.758689"><ele>86.0</ele><time>2026-04-06T16:58:41.953Z</time></trkpt><trkpt lat="45.6817958" lon="13.7587879"><ele>83.8</ele><time>2026-04-06T16:58:42.958Z</time></trkpt><trkpt lat="45.6817084" lon="13.758864"><ele>81.6</ele><time>2026-04-06T16:58:43.958Z</time></trkpt><trkpt lat="45.6816221" lon="13.7589202"><ele>79.4</ele><time>2026-04-06T16:58:44.951Z</time></trkpt><trkpt lat="45.6815299" lon="13.7589663"><ele>77.2</ele><time>2026-04-06T16:58:45.952Z</time></trkpt><trkpt lat="45.681444" lon="13.7590158"><ele>75.0</ele><time>2026-04-06T16:58:46.967Z</time></trkpt><trkpt lat="45.6813601" lon="13.7590774"><ele>75.0</ele><time>2026-04-06T16:58:47.955Z</time></trkpt><trkpt lat="45.6812764" lon="13.7591649"><ele>75.0</ele><time>2026-04-06T16:58:48.957Z</time></trkpt><trkpt lat="45.6811973" lon="13.7592563"><ele>75.0</ele><time>2026-04-06T16:58:49.956Z</time></trkpt><trkpt lat="45.6811247" lon="13.7593422"><ele>75.0</ele><time>2026-04-06T16:58:50.948Z</time></trkpt><trkpt lat="45.6810417" lon="13.7594374"><ele>75.0</ele><time>2026-04-06T16:58:51.949Z</time></trkpt><trkpt lat="45.6809598" lon="13.7595321"><ele>73.6</ele><time>2026-04-06T16:58:52.955Z</time></trkpt><trkpt lat="45.6808891" lon="13.7596336"><ele>72.2</ele><time>2026-04-06T16:58:53.949Z</time></trkpt><trkpt lat="45.680828" lon="13.7597493"><ele>70.8</ele><time>2026-04-06T16:58:54.962Z</time></trkpt><trkpt lat="45.6807744" lon="13.7598722"><ele>69.4</ele><time>2026-04-06T16:58:55.958Z</time></trkpt><trkpt lat="45.6807232" lon="13.7599923"><ele>68.0</ele><time>2026-04-06T16:58:56.958Z</time></trkpt><trkpt lat="45.6806726" lon="13.7601073"><ele>70.66666666666667</ele><time>2026-04-06T16:58:57.949Z</time></trkpt><trkpt lat="45.6806221" lon="13.7602115"><ele>73.33333333333334</ele><time>2026-04-06T16:58:58.953Z</time></trkpt><trkpt lat="45.6805732" lon="13.7603138"><ele>76.0</ele><time>2026-04-06T16:58:59.953Z</time></trkpt><trkpt lat="45.6805229" lon="13.7604146"><ele>78.66666666666667</ele><time>2026-04-06T16:59:00.952Z</time></trkpt><trkpt lat="45.6804619" lon="13.7604799"><ele>81.33333333333333</ele><time>2026-04-06T16:59:01.951Z</time></trkpt><trkpt lat="45.6803907" lon="13.7605113"><ele>84.0</ele><time>2026-04-06T16:59:02.953Z</time></trkpt><trkpt lat="45.6803054" lon="13.7605136"><ele>80.4</ele><time>2026-04-06T16:59:03.944Z</time></trkpt><trkpt lat="45.6802168" lon="13.7605001"><ele>76.80000000000001</ele><time>2026-04-06T16:59:04.947Z</time></trkpt><trkpt lat="45.6801278" lon="13.7604825"><ele>73.19999999999999</ele><time>2026-04-06T16:59:05.949Z</time></trkpt><trkpt lat="45.6800318" lon="13.7604713"><ele>69.6</ele><time>2026-04-06T16:59:06.946Z</time></trkpt><trkpt lat="45.6799421" lon="13.760465"><ele>66.0</ele><time>2026-04-06T16:59:07.947Z</time></trkpt><trkpt lat="45.679853" lon="13.7604528"><ele>66.0</ele><time>2026-04-06T16:59:08.939Z</time></trkpt><trkpt lat="45.6797693" lon="13.7604385"><ele>66.0</ele><time>2026-04-06T16:59:09.948Z</time></trkpt><trkpt lat="45.6796912" lon="13.7604465"><ele>66.0</ele><time>2026-04-06T16:59:10.95Z</time></trkpt><trkpt lat="45.6796131" lon="13.7604868"><ele>66.0</ele><time>2026-04-06T16:59:11.953Z</time></trkpt><trkpt lat="45.6795491" lon="13.7605633"><ele>66.0</ele><time>2026-04-06T16:59:12.956Z</time></trkpt><trkpt lat="45.6795051" lon="13.7606541"><ele>66.0</ele><time>2026-04-06T16:59:13.961Z</time></trkpt><trkpt lat="45.6794709" lon="13.7607552"><ele>66.0</ele><time>2026-04-06T16:59:14.963Z</time></trkpt><trkpt lat="45.6794463" lon="13.7608747"><ele>66.0</ele><time>2026-04-06T16:59:15.952Z</time></trkpt><trkpt lat="45.6794427" lon="13.7609945"><ele>66.0</ele><time>2026-04-06T16:59:16.957Z</time></trkpt><trkpt lat="45.6794562" lon="13.761116"><ele>66.0</ele><time>2026-04-06T16:59:17.944Z</time></trkpt><trkpt lat="45.6794758" lon="13.7612386"><ele>66.0</ele><time>2026-04-06T16:59:18.96Z</time></trkpt><trkpt lat="45.6794898" lon="13.7613471"><ele>66.0</ele><time>2026-04-06T16:59:19.948Z</time></trkpt><trkpt lat="45.6795007" lon="13.7614605"><ele>66.5</ele><time>2026-04-06T16:59:20.958Z</time></trkpt><trkpt lat="45.6794939" lon="13.761575"><ele>67.0</ele><time>2026-04-06T16:59:21.955Z</time></trkpt><trkpt lat="45.6794658" lon="13.7616863"><ele>67.5</ele><time>2026-04-06T16:59:22.953Z</time></trkpt><trkpt lat="45.6794126" lon="13.7617896"><ele>68.0</ele><time>2026-04-06T16:59:23.958Z</time></trkpt><trkpt lat="45.6793378" lon="13.7618592"><ele>68.5</ele><time>2026-04-06T16:59:24.95Z</time></trkpt><trkpt lat="45.6792619" lon="13.7618943"><ele>69.0</ele><time>2026-04-06T16:59:25.963Z</time></trkpt><trkpt lat="45.679179" lon="13.7618981"><ele>69.0</ele><time>2026-04-06T16:59:26.945Z</time></trkpt><trkpt lat="45.679081" lon="13.7618654"><ele>69.0</ele><time>2026-04-06T16:59:27.952Z</time></trkpt><trkpt lat="45.6789954" lon="13.7618235"><ele>69.0</ele><time>2026-04-06T16:59:28.944Z</time></trkpt><trkpt lat="45.6789114" lon="13.7617867"><ele>69.0</ele><time>2026-04-06T16:59:29.946Z</time></trkpt><trkpt lat="45.6788353" lon="13.7617654"><ele>69.0</ele><time>2026-04-06T16:59:30.951Z</time></trkpt><trkpt lat="45.6787635" lon="13.7617442"><ele>69.0</ele><time>2026-04-06T16:59:31.947Z</time></trkpt><trkpt lat="45.6786967" lon="13.7617174"><ele>68.71428571428572</ele><time>2026-04-06T16:59:32.945Z</time></trkpt><trkpt lat="45.6786393" lon="13.7616725"><ele>68.42857142857143</ele><time>2026-04-06T16:59:33.95Z</time></trkpt><trkpt lat="45.6785832" lon="13.7616203"><ele>68.14285714285714</ele><time>2026-04-06T16:59:34.943Z</time></trkpt><trkpt lat="45.6785244" lon="13.7615523"><ele>67.85714285714286</ele><time>2026-04-06T16:59:35.946Z</time></trkpt><trkpt lat="45.6784755" lon="13.7614791"><ele>67.57142857142857</ele><time>2026-04-06T16:59:36.95Z</time></trkpt><trkpt lat="45.6784323" lon="13.7614124"><ele>67.28571428571429</ele><time>2026-04-06T16:59:37.949Z</time></trkpt><trkpt lat="45.6783874" lon="13.7613417"><ele>67.0</ele><time>2026-04-06T16:59:38.952Z</time></trkpt><trkpt lat="45.6783365" lon="13.7612682"><ele>67.0</ele><time>2026-04-06T16:59:39.964Z</time></trkpt><trkpt lat="45.6782854" lon="13.7612096"><ele>67.0</ele><time>2026-04-06T16:59:40.956Z</time></trkpt><trkpt lat="45.6781893" lon="13.7611697"><ele>67.0</ele><time>2026-04-06T16:59:42.953Z</time></trkpt><trkpt lat="45.6780665" lon="13.7611584"><ele>67.0</ele><time>2026-04-06T16:59:44.961Z</time></trkpt><trkpt lat="45.6779715" lon="13.7611612"><ele>67.0</ele><time>2026-04-06T16:59:45.985Z</time></trkpt><trkpt lat="45.677862" lon="13.7611904"><ele>68.0</ele><time>2026-04-06T16:59:46.956Z</time></trkpt><trkpt lat="45.6777339" lon="13.7612506"><ele>69.0</ele><time>2026-04-06T16:59:47.956Z</time></trkpt><trkpt lat="45.6776003" lon="13.76133"><ele>70.0</ele><time>2026-04-06T16:59:48.955Z</time></trkpt><trkpt lat="45.6774828" lon="13.7614025"><ele>71.0</ele><time>2026-04-06T16:59:49.941Z</time></trkpt><trkpt lat="45.6773798" lon="13.7614569"><ele>71.0</ele><time>2026-04-06T16:59:50.953Z</time></trkpt><trkpt lat="45.6772816" lon="13.761468"><ele>71.0</ele><time>2026-04-06T16:59:51.946Z</time></trkpt><trkpt lat="45.6771982" lon="13.7614472"><ele>71.0</ele><time>2026-04-06T16:59:52.943Z</time></trkpt><trkpt lat="45.6771278" lon="13.7614047"><ele>71.0</ele><time>2026-04-06T16:59:53.936Z</time></trkpt><trkpt lat="45.6770734" lon="13.76135"><ele>71.0</ele><time>2026-04-06T16:59:54.941Z</time></trkpt><trkpt lat="45.6770314" lon="13.7612783"><ele>71.0</ele><time>2026-04-06T16:59:55.938Z</time></trkpt><trkpt lat="45.6770119" lon="13.7611921"><ele>71.0</ele><time>2026-04-06T16:59:56.952Z</time></trkpt><trkpt lat="45.677022" lon="13.761084"><ele>71.0</ele><time>2026-04-06T16:59:57.942Z</time></trkpt><trkpt lat="45.6770462" lon="13.7609822"><ele>71.0</ele><time>2026-04-06T16:59:58.939Z</time></trkpt><trkpt lat="45.677088" lon="13.7608694"><ele>71.0</ele><time>2026-04-06T16:59:59.935Z</time></trkpt><trkpt lat="45.6771364" lon="13.7607637"><ele>71.0</ele><time>2026-04-06T17:00:00.942Z</time></trkpt><trkpt lat="45.6771823" lon="13.76066"><ele>71.0</ele><time>2026-04-06T17:00:01.948Z</time></trkpt><trkpt lat="45.6772283" lon="13.7605667"><ele>68.66666666666667</ele><time>2026-04-06T17:00:02.94Z</time></trkpt><trkpt lat="45.6772807" lon="13.760475"><ele>66.33333333333334</ele><time>2026-04-06T17:00:03.947Z</time></trkpt><trkpt lat="45.677335" lon="13.7603848"><ele>64.0</ele><time>2026-04-06T17:00:04.937Z</time></trkpt><trkpt lat="45.6773841" lon="13.7602951"><ele>61.66666666666667</ele><time>2026-04-06T17:00:05.945Z</time></trkpt><trkpt lat="45.6774174" lon="13.7601841"><ele>59.333333333333336</ele><time>2026-04-06T17:00:06.949Z</time></trkpt><trkpt lat="45.6774474" lon="13.7600647"><ele>57.0</ele><time>2026-04-06T17:00:07.953Z</time></trkpt><trkpt lat="45.6774558" lon="13.759926"><ele>56.400000000000006</ele><time>2026-04-06T17:00:08.951Z</time></trkpt><trkpt lat="45.6774437" lon="13.7597829"><ele>55.800000000000004</ele><time>2026-04-06T17:00:09.95Z</time></trkpt><trkpt lat="45.677423" lon="13.7596256"><ele>55.2</ele><time>2026-04-06T17:00:10.943Z</time></trkpt><trkpt lat="45.6773962" lon="13.759474"><ele>54.6</ele><time>2026-04-06T17:00:11.965Z</time></trkpt><trkpt lat="45.6773615" lon="13.7593319"><ele>54.0</ele><time>2026-04-06T17:00:12.949Z</time></trkpt><trkpt lat="45.677316" lon="13.759209"><ele>53.400000000000006</ele><time>2026-04-06T17:00:13.959Z</time></trkpt><trkpt lat="45.6772706" lon="13.7590944"><ele>52.800000000000004</ele><time>2026-04-06T17:00:14.955Z</time></trkpt><trkpt lat="45.6772244" lon="13.7589761"><ele>52.2</ele><time>2026-04-06T17:00:15.96Z</time></trkpt><trkpt lat="45.6771722" lon="13.7588591"><ele>51.599999999999994</ele><time>2026-04-06T17:00:16.958Z</time></trkpt><trkpt lat="45.6771216" lon="13.7587299"><ele>51.0</ele><time>2026-04-06T17:00:17.964Z</time></trkpt><trkpt lat="45.6770767" lon="13.758588"><ele>48.25</ele><time>2026-04-06T17:00:18.97Z</time></trkpt><trkpt lat="45.6770402" lon="13.75844"><ele>45.5</ele><time>2026-04-06T17:00:19.97Z</time></trkpt><trkpt lat="45.6769985" lon="13.7582796"><ele>42.75</ele><time>2026-04-06T17:00:20.959Z</time></trkpt><trkpt lat="45.6769425" lon="13.7581176"><ele>40.0</ele><time>2026-04-06T17:00:21.957Z</time></trkpt><trkpt lat="45.6768686" lon="13.7579451"><ele>44.75</ele><time>2026-04-06T17:00:22.959Z</time></trkpt><trkpt lat="45.6767977" lon="13.7577791"><ele>49.5</ele><time>2026-04-06T17:00:23.973Z</time></trkpt><trkpt lat="45.6767293" lon="13.7576175"><ele>54.25</ele><time>2026-04-06T17:00:24.956Z</time></trkpt><trkpt lat="45.6766624" lon="13.7574716"><ele>59.0</ele><time>2026-04-06T17:00:25.95Z</time></trkpt><trkpt lat="45.6765969" lon="13.7573284"><ele>59.0</ele><time>2026-04-06T17:00:26.956Z</time></trkpt><trkpt lat="45.6765353" lon="13.7571933"><ele>59.00000000000001</ele><time>2026-04-06T17:00:27.954Z</time></trkpt><trkpt lat="45.6764806" lon="13.7570625"><ele>59.00000000000001</ele><time>2026-04-06T17:00:28.959Z</time></trkpt><trkpt lat="45.6764284" lon="13.7569415"><ele>59.0</ele><time>2026-04-06T17:00:29.949Z</time></trkpt><trkpt lat="45.6763792" lon="13.7568317"><ele>59.0</ele><time>2026-04-06T17:00:30.956Z</time></trkpt><trkpt lat="45.676336" lon="13.7567273"><ele>58.833333333333336</ele><time>2026-04-06T17:00:31.954Z</time></trkpt><trkpt lat="45.6762895" lon="13.7566299"><ele>58.66666666666667</ele><time>2026-04-06T17:00:32.962Z</time></trkpt><trkpt lat="45.6762289" lon="13.7565397"><ele>58.5</ele><time>2026-04-06T17:00:33.952Z</time></trkpt><trkpt lat="45.6761727" lon="13.7564898"><ele>58.33333333333333</ele><time>2026-04-06T17:00:34.97Z</time></trkpt><trkpt lat="45.676101" lon="13.7564254"><ele>58.166666666666664</ele><time>2026-04-06T17:00:36.964Z</time></trkpt><trkpt lat="45.676079" lon="13.756318"><ele>58.0</ele><time>2026-04-06T17:00:39.956Z</time></trkpt><trkpt lat="45.6761899" lon="13.7563403"><ele>55.599999999999994</ele><time>2026-04-06T17:00:41.951Z</time></trkpt><trkpt lat="45.6762804" lon="13.7563979"><ele>53.199999999999996</ele><time>2026-04-06T17:00:42.955Z</time></trkpt><trkpt lat="45.6763671" lon="13.7564781"><ele>50.8</ele><time>2026-04-06T17:00:43.956Z</time></trkpt><trkpt lat="45.6764481" lon="13.7565659"><ele>48.4</ele><time>2026-04-06T17:00:44.962Z</time></trkpt><trkpt lat="45.6765286" lon="13.7566801"><ele>46.0</ele><time>2026-04-06T17:00:45.959Z</time></trkpt><trkpt lat="45.6766133" lon="13.7568019"><ele>48.599999999999994</ele><time>2026-04-06T17:00:46.967Z</time></trkpt><trkpt lat="45.6766938" lon="13.756921"><ele>51.2</ele><time>2026-04-06T17:00:47.959Z</time></trkpt><trkpt lat="45.6767797" lon="13.7570334"><ele>53.800000000000004</ele><time>2026-04-06T17:00:48.958Z</time></trkpt><trkpt lat="45.6768635" lon="13.7571386"><ele>56.400000000000006</ele><time>2026-04-06T17:00:49.96Z</time></trkpt><trkpt lat="45.6769342" lon="13.7572164"><ele>59.0</ele><time>2026-04-06T17:00:50.964Z</time></trkpt><trkpt lat="45.6769816" lon="13.7572771"><ele>55.2</ele><time>2026-04-06T17:00:51.962Z</time></trkpt><trkpt lat="45.6770348" lon="13.7573666"><ele>51.400000000000006</ele><time>2026-04-06T17:00:53.951Z</time></trkpt><trkpt lat="45.6770854" lon="13.7574362"><ele>47.6</ele><time>2026-04-06T17:00:56.957Z</time></trkpt><trkpt lat="45.6771737" lon="13.7575135"><ele>43.8</ele><time>2026-04-06T17:01:04.957Z</time></trkpt><trkpt lat="45.6772592" lon="13.7576248"><ele>40.0</ele><time>2026-04-06T17:01:06.957Z</time></trkpt><trkpt lat="45.6773159" lon="13.7577099"><ele>40.0</ele><time>2026-04-06T17:01:07.955Z</time></trkpt><trkpt lat="45.6773727" lon="13.7578057"><ele>40.0</ele><time>2026-04-06T17:01:08.963Z</time></trkpt><trkpt lat="45.6774262" lon="13.7579073"><ele>40.0</ele><time>2026-04-06T17:01:09.958Z</time></trkpt><trkpt lat="45.6774838" lon="13.7580093"><ele>40.0</ele><time>2026-04-06T17:01:10.965Z</time></trkpt><trkpt lat="45.6775445" lon="13.7581101"><ele>40.0</ele><time>2026-04-06T17:01:11.959Z</time></trkpt><trkpt lat="45.677607" lon="13.7582051"><ele>40.0</ele><time>2026-04-06T17:01:12.95Z</time></trkpt><trkpt lat="45.6776733" lon="13.758299"><ele>40.0</ele><time>2026-04-06T17:01:13.958Z</time></trkpt><trkpt lat="45.6777367" lon="13.7583911"><ele>40.0</ele><time>2026-04-06T17:01:14.96Z</time></trkpt><trkpt lat="45.6777918" lon="13.7584916"><ele>40.0</ele><time>2026-04-06T17:01:15.953Z</time></trkpt><trkpt lat="45.6778404" lon="13.7585874"><ele>40.0</ele><time>2026-04-06T17:01:16.969Z</time></trkpt><trkpt lat="45.6778725" lon="13.7586677"><ele>40.0</ele><time>2026-04-06T17:01:17.971Z</time></trkpt><trkpt lat="45.6779321" lon="13.7587927"><ele>26.0</ele><time>2026-04-06T17:01:19.975Z</time></trkpt><trkpt lat="45.6779441" lon="13.7588874"><ele>26.0</ele><time>2026-04-06T17:01:22.962Z</time></trkpt><trkpt lat="45.6779059" lon="13.7589742"><ele>26.0</ele><time>2026-04-06T17:01:56.969Z</time></trkpt><trkpt lat="45.6779671" lon="13.7590624"><ele>26.0</ele><time>2026-04-06T17:02:06.959Z</time></trkpt></trkseg></trk></gpx>